<?xml version='1.0' encoding='UTF-8'?><gpx version="1.1" creator="JPX - https://github.com/jenetics/jpx" xmlns="http://www.topografix.com/GPX/1/1"><trk><trkseg><trkpt lat="41.31400262972468" lon="19.475710165039718"><ele>1.9999999999999998</ele><time>2026-04-27T07:18:10Z</time></trkpt><trkpt lat="41.314074297907304" lon="19.47579590916047"><ele>2.0</ele><time>2026-04-27T07:18:22Z</time></trkpt><trkpt lat="41.31412620922967" lon="19.475852935640933"><ele>2.0</ele><time>2026-04-27T07:18:25Z</time></trkpt><trkpt lat="41.3141993156493" lon="19.47588701374357"><ele>2.0</ele><time>2026-04-27T07:18:52Z</time></trkpt><trkpt lat="41.3141799491276" lon="19.476007812466605"><ele>1.9999999999999998</ele><time>2026-04-27T07:19:01Z</time></trkpt><trkpt lat="41.31412476912889" lon="19.476094825587083"><ele>2.0</ele><time>2026-04-27T07:19:03Z</time></trkpt><trkpt lat="41.314078982353124" lon="19.476193419363906"><ele>1.8</ele><time>2026-04-27T07:19:05Z</time></trkpt><trkpt lat="41.3140308069834" lon="19.476302033673285"><ele>1.6</ele><time>2026-04-27T07:19:07Z</time></trkpt><trkpt lat="41.3139749433432" lon="19.476422475370125"><ele>1.4000000000000001</ele><time>2026-04-27T07:19:09Z</time></trkpt><trkpt lat="41.31393920742923" lon="19.476495208052327"><ele>1.2000000000000002</ele><time>2026-04-27T07:19:12Z</time></trkpt><trkpt lat="41.3139031529856" lon="19.47659111983204"><ele>1.0</ele><time>2026-04-27T07:19:15Z</time></trkpt><trkpt lat="41.31382367317404" lon="19.47672562287767"><ele>0.9999999999999999</ele><time>2026-04-27T07:19:17Z</time></trkpt><trkpt lat="41.31378687189025" lon="19.476809458712513"><ele>1.0</ele><time>2026-04-27T07:19:18Z</time></trkpt><trkpt lat="41.31374648828781" lon="19.476902458245068"><ele>1.0</ele><time>2026-04-27T07:19:19Z</time></trkpt><trkpt lat="41.31370073241428" lon="19.47700698915172"><ele>1.0</ele><time>2026-04-27T07:19:20Z</time></trkpt><trkpt lat="41.31365049958847" lon="19.477114945597414"><ele>0.9999999999999999</ele><time>2026-04-27T07:19:21Z</time></trkpt><trkpt lat="41.313596967415364" lon="19.47722861018253"><ele>1.0</ele><time>2026-04-27T07:19:22Z</time></trkpt><trkpt lat="41.31354193811437" lon="19.477347850745044"><ele>0.8333333333333333</ele><time>2026-04-27T07:19:23Z</time></trkpt><trkpt lat="41.31349025392227" lon="19.477461622533482"><ele>0.6666666666666666</ele><time>2026-04-27T07:19:24Z</time></trkpt><trkpt lat="41.313446949382964" lon="19.47755392941136"><ele>0.5</ele><time>2026-04-27T07:19:25Z</time></trkpt><trkpt lat="41.313404341267415" lon="19.477641091129442"><ele>0.3333333333333333</ele><time>2026-04-27T07:19:26Z</time></trkpt><trkpt lat="41.313361996153965" lon="19.47773682266805"><ele>0.16666666666666666</ele><time>2026-04-27T07:19:27Z</time></trkpt><trkpt lat="41.313317333640235" lon="19.47783331962612"><ele>0.0</ele><time>2026-04-27T07:19:28Z</time></trkpt><trkpt lat="41.31327298160863" lon="19.47793004388209"><ele>0.0</ele><time>2026-04-27T07:19:29Z</time></trkpt><trkpt lat="41.31322613636591" lon="19.478031003628328"><ele>0.0</ele><time>2026-04-27T07:19:30Z</time></trkpt><trkpt lat="41.31317498076584" lon="19.478145967725872"><ele>0.0</ele><time>2026-04-27T07:19:31Z</time></trkpt><trkpt lat="41.313125750864785" lon="19.478258772992678"><ele>0.0</ele><time>2026-04-27T07:19:32Z</time></trkpt><trkpt lat="41.31307517253557" lon="19.478368467784318"><ele>0.0</ele><time>2026-04-27T07:19:33Z</time></trkpt><trkpt lat="41.31302838220145" lon="19.478472313213114"><ele>0.2</ele><time>2026-04-27T07:19:34Z</time></trkpt><trkpt lat="41.312980647366004" lon="19.478570666278564"><ele>0.4</ele><time>2026-04-27T07:19:35Z</time></trkpt><trkpt lat="41.312947104957686" lon="19.478648598747792"><ele>0.6000000000000001</ele><time>2026-04-27T07:19:36Z</time></trkpt><trkpt lat="41.31287748188228" lon="19.47877488136255"><ele>0.8</ele><time>2026-04-27T07:19:38Z</time></trkpt><trkpt lat="41.31283150608993" lon="19.478876840160435"><ele>1.0</ele><time>2026-04-27T07:19:40Z</time></trkpt><trkpt lat="41.312778680103705" lon="19.479001791770948"><ele>0.9999999999999999</ele><time>2026-04-27T07:19:42Z</time></trkpt><trkpt lat="41.31274415508481" lon="19.479074340125877"><ele>1.0</ele><time>2026-04-27T07:19:43Z</time></trkpt><trkpt lat="41.31270743067166" lon="19.479143801261984"><ele>1.0</ele><time>2026-04-27T07:19:44Z</time></trkpt><trkpt lat="41.31264990326961" lon="19.47926949478382"><ele>1.0</ele><time>2026-04-27T07:19:46Z</time></trkpt><trkpt lat="41.31259542075064" lon="19.47939122057973"><ele>0.9999999999999999</ele><time>2026-04-27T07:19:48Z</time></trkpt><trkpt lat="41.31254617642826" lon="19.479497454352686"><ele>1.0</ele><time>2026-04-27T07:19:50Z</time></trkpt><trkpt lat="41.312498905454554" lon="19.479604315360632"><ele>1.25</ele><time>2026-04-27T07:19:52Z</time></trkpt><trkpt lat="41.3124376766049" lon="19.47972748143178"><ele>1.5</ele><time>2026-04-27T07:19:54Z</time></trkpt><trkpt lat="41.31237997751323" lon="19.47984934031866"><ele>1.75</ele><time>2026-04-27T07:19:56Z</time></trkpt><trkpt lat="41.31231917335099" lon="19.479982309749044"><ele>2.0</ele><time>2026-04-27T07:19:58Z</time></trkpt><trkpt lat="41.3122569707764" lon="19.480116879201187"><ele>2.0</ele><time>2026-04-27T07:20:00Z</time></trkpt><trkpt lat="41.31220122705696" lon="19.4802420567168"><ele>2.0</ele><time>2026-04-27T07:20:02Z</time></trkpt><trkpt lat="41.312144550401754" lon="19.480358703921645"><ele>2.0</ele><time>2026-04-27T07:20:04Z</time></trkpt><trkpt lat="41.31208972262311" lon="19.48047398234956"><ele>2.0</ele><time>2026-04-27T07:20:06Z</time></trkpt><trkpt lat="41.3120347094921" lon="19.48058505928486"><ele>2.0</ele><time>2026-04-27T07:20:08Z</time></trkpt><trkpt lat="41.31197513345209" lon="19.480716058744136"><ele>1.9999999999999998</ele><time>2026-04-27T07:20:09.999Z</time></trkpt><trkpt lat="41.31191802963593" lon="19.48085954171593"><ele>2.0</ele><time>2026-04-27T07:20:11.999Z</time></trkpt><trkpt lat="41.31188257147868" lon="19.480938877887606"><ele>2.0</ele><time>2026-04-27T07:20:12.999Z</time></trkpt><trkpt lat="41.311839867807905" lon="19.481025960330157"><ele>2.0</ele><time>2026-04-27T07:20:13.999Z</time></trkpt><trkpt lat="41.31179265228431" lon="19.481118404374755"><ele>1.9999999999999998</ele><time>2026-04-27T07:20:14.999Z</time></trkpt><trkpt lat="41.31174685038967" lon="19.48121266582293"><ele>2.0</ele><time>2026-04-27T07:20:15.999Z</time></trkpt><trkpt lat="41.31170169315475" lon="19.481301862621585"><ele>1.6666666666666665</ele><time>2026-04-27T07:20:16.999Z</time></trkpt><trkpt lat="41.31166191446545" lon="19.48138466879883"><ele>1.3333333333333333</ele><time>2026-04-27T07:20:17.999Z</time></trkpt><trkpt lat="41.31162405662121" lon="19.481472934774235"><ele>1.0</ele><time>2026-04-27T07:20:18.999Z</time></trkpt><trkpt lat="41.31158091939622" lon="19.48155139173557"><ele>0.6666666666666666</ele><time>2026-04-27T07:20:19.999Z</time></trkpt><trkpt lat="41.311543565852354" lon="19.481634401680775"><ele>0.3333333333333333</ele><time>2026-04-27T07:20:20.999Z</time></trkpt><trkpt lat="41.311474739405895" lon="19.481783118134086"><ele>0.0</ele><time>2026-04-27T07:20:22.999Z</time></trkpt><trkpt lat="41.311436352424415" lon="19.481868024753172"><ele>0.0</ele><time>2026-04-27T07:20:23.999Z</time></trkpt><trkpt lat="41.3113949337215" lon="19.48195629765362"><ele>0.0</ele><time>2026-04-27T07:20:24.999Z</time></trkpt><trkpt lat="41.31134950650976" lon="19.48204319175353"><ele>0.0</ele><time>2026-04-27T07:20:25.999Z</time></trkpt><trkpt lat="41.31131067516427" lon="19.48213410294808"><ele>0.0</ele><time>2026-04-27T07:20:26.999Z</time></trkpt><trkpt lat="41.31126643116081" lon="19.482216687016603"><ele>0.0</ele><time>2026-04-27T07:20:27.999Z</time></trkpt><trkpt lat="41.311222932603755" lon="19.482308113523274"><ele>0.0</ele><time>2026-04-27T07:20:28.999Z</time></trkpt><trkpt lat="41.31117862772484" lon="19.48240300614848"><ele>0.16666666666666666</ele><time>2026-04-27T07:20:29.999Z</time></trkpt><trkpt lat="41.3111342723449" lon="19.482498224321958"><ele>0.3333333333333333</ele><time>2026-04-27T07:20:30.999Z</time></trkpt><trkpt lat="41.31108832714205" lon="19.482594972810446"><ele>0.5</ele><time>2026-04-27T07:20:31.999Z</time></trkpt><trkpt lat="41.31104273110267" lon="19.482693715750834"><ele>0.6666666666666666</ele><time>2026-04-27T07:20:32.999Z</time></trkpt><trkpt lat="41.31099815567492" lon="19.48278351824447"><ele>0.8333333333333333</ele><time>2026-04-27T07:20:33.999Z</time></trkpt><trkpt lat="41.310952959618525" lon="19.48287950041036"><ele>1.0</ele><time>2026-04-27T07:20:34.999Z</time></trkpt><trkpt lat="41.31090631818962" lon="19.482965113146463"><ele>1.0</ele><time>2026-04-27T07:20:35.999Z</time></trkpt><trkpt lat="41.310863723735416" lon="19.483057257458356"><ele>0.9999999999999999</ele><time>2026-04-27T07:20:36.999Z</time></trkpt><trkpt lat="41.310819795163766" lon="19.483145358353827"><ele>1.0</ele><time>2026-04-27T07:20:37.999Z</time></trkpt><trkpt lat="41.31078224577514" lon="19.48322989088858"><ele>1.0</ele><time>2026-04-27T07:20:38.999Z</time></trkpt><trkpt lat="41.31074579315203" lon="19.483306664404804"><ele>0.9999999999999999</ele><time>2026-04-27T07:20:39.999Z</time></trkpt><trkpt lat="41.31070754813897" lon="19.483384289623228"><ele>1.0</ele><time>2026-04-27T07:20:40.999Z</time></trkpt><trkpt lat="41.31067377487417" lon="19.483465982605164"><ele>1.0</ele><time>2026-04-27T07:20:41.999Z</time></trkpt><trkpt lat="41.3106343739145" lon="19.4835564741017"><ele>0.9999999999999999</ele><time>2026-04-27T07:20:42.999Z</time></trkpt><trkpt lat="41.31058971823424" lon="19.483645720884077"><ele>1.0</ele><time>2026-04-27T07:20:43.999Z</time></trkpt><trkpt lat="41.310549524344026" lon="19.483738491666458"><ele>1.0</ele><time>2026-04-27T07:20:44.999Z</time></trkpt><trkpt lat="41.310508154462305" lon="19.48380913976945"><ele>1.0</ele><time>2026-04-27T07:20:45.999Z</time></trkpt><trkpt lat="41.310475450216416" lon="19.48388205162431"><ele>0.9999999999999999</ele><time>2026-04-27T07:20:46.999Z</time></trkpt><trkpt lat="41.310409850692224" lon="19.48401970523831"><ele>1.0</ele><time>2026-04-27T07:20:48.999Z</time></trkpt><trkpt lat="41.310360549991785" lon="19.484119134695646"><ele>1.3333333333333333</ele><time>2026-04-27T07:20:50.999Z</time></trkpt><trkpt lat="41.310320079206875" lon="19.48420176629691"><ele>1.6666666666666665</ele><time>2026-04-27T07:20:52.999Z</time></trkpt><trkpt lat="41.31028004688015" lon="19.484284452866167"><ele>2.0</ele><time>2026-04-27T07:20:55.999Z</time></trkpt><trkpt lat="41.31023743752808" lon="19.48437261351513"><ele>2.3333333333333335</ele><time>2026-04-27T07:20:58.999Z</time></trkpt><trkpt lat="41.310190973030195" lon="19.4844493620825"><ele>2.6666666666666665</ele><time>2026-04-27T07:21:00.999Z</time></trkpt><trkpt lat="41.310169395533705" lon="19.484556165846872"><ele>3.0</ele><time>2026-04-27T07:21:02.999Z</time></trkpt><trkpt lat="41.31016505890724" lon="19.48466810832966"><ele>3.0</ele><time>2026-04-27T07:21:04.999Z</time></trkpt><trkpt lat="41.310112240715455" lon="19.484792953848387"><ele>3.0</ele><time>2026-04-27T07:21:07Z</time></trkpt><trkpt lat="41.310040507113506" lon="19.48492817426817"><ele>3.0</ele><time>2026-04-27T07:21:09Z</time></trkpt><trkpt lat="41.31000322171229" lon="19.48499776483083"><ele>3.0</ele><time>2026-04-27T07:21:10Z</time></trkpt><trkpt lat="41.30996444185861" lon="19.485070510075996"><ele>3.0</ele><time>2026-04-27T07:21:11Z</time></trkpt><trkpt lat="41.30992537299105" lon="19.485146403833166"><ele>3.0</ele><time>2026-04-27T07:21:12Z</time></trkpt><trkpt lat="41.309868339693544" lon="19.48527115130987"><ele>3.0</ele><time>2026-04-27T07:21:14Z</time></trkpt><trkpt lat="41.30980996665632" lon="19.48539741243509"><ele>3.0</ele><time>2026-04-27T07:21:16Z</time></trkpt><trkpt lat="41.30975811877001" lon="19.48550459668678"><ele>3.0</ele><time>2026-04-27T07:21:18Z</time></trkpt><trkpt lat="41.30969655109675" lon="19.48562301769144"><ele>3.0</ele><time>2026-04-27T07:21:20Z</time></trkpt><trkpt lat="41.30963071018362" lon="19.485766656881015"><ele>3.0</ele><time>2026-04-27T07:21:22Z</time></trkpt><trkpt lat="41.309594212582304" lon="19.485839517894448"><ele>3.0</ele><time>2026-04-27T07:21:23Z</time></trkpt><trkpt lat="41.30955754895504" lon="19.485916838535562"><ele>3.0</ele><time>2026-04-27T07:21:24Z</time></trkpt><trkpt lat="41.30951813369111" lon="19.485997790171318"><ele>3.0</ele><time>2026-04-27T07:21:25Z</time></trkpt><trkpt lat="41.3094787516736" lon="19.48608100333011"><ele>3.0</ele><time>2026-04-27T07:21:26Z</time></trkpt><trkpt lat="41.30944377275932" lon="19.486158379314496"><ele>3.0</ele><time>2026-04-27T07:21:27Z</time></trkpt><trkpt lat="41.30937962519908" lon="19.486283978864826"><ele>3.0</ele><time>2026-04-27T07:21:29Z</time></trkpt><trkpt lat="41.309323872131486" lon="19.486398228358684"><ele>3.1666666666666665</ele><time>2026-04-27T07:21:31Z</time></trkpt><trkpt lat="41.3092877905066" lon="19.48647651580781"><ele>3.333333333333333</ele><time>2026-04-27T07:21:33Z</time></trkpt><trkpt lat="41.30925278084491" lon="19.48655030092331"><ele>3.5</ele><time>2026-04-27T07:21:36Z</time></trkpt><trkpt lat="41.30921521555057" lon="19.486640452583067"><ele>3.6666666666666665</ele><time>2026-04-27T07:21:40Z</time></trkpt><trkpt lat="41.30917018432188" lon="19.486714288072065"><ele>3.833333333333333</ele><time>2026-04-27T07:21:43Z</time></trkpt><trkpt lat="41.30929650865027" lon="19.486765492185295"><ele>4.0</ele><time>2026-04-27T07:21:47Z</time></trkpt><trkpt lat="41.30928846750833" lon="19.486650284380236"><ele>3.9999999999999996</ele><time>2026-04-27T07:24:12.999Z</time></trkpt><trkpt lat="41.30933344466042" lon="19.48658711311459"><ele>4.0</ele><time>2026-04-27T07:27:28Z</time></trkpt><trkpt lat="41.30927435061213" lon="19.48654210356985"><ele>4.0</ele><time>2026-04-27T07:27:45Z</time></trkpt><trkpt lat="41.30920652227158" lon="19.48661728245048"><ele>4.0</ele><time>2026-04-27T07:27:48Z</time></trkpt><trkpt lat="41.30916938681182" lon="19.486694144045657"><ele>3.9999999999999996</ele><time>2026-04-27T07:27:50Z</time></trkpt><trkpt lat="41.30912153957712" lon="19.486789255046837"><ele>4.0</ele><time>2026-04-27T07:27:52Z</time></trkpt><trkpt lat="41.30907431697755" lon="19.48689840447971"><ele>4.0</ele><time>2026-04-27T07:27:54Z</time></trkpt><trkpt lat="41.30902115439989" lon="19.48700634658537"><ele>4.0</ele><time>2026-04-27T07:27:56Z</time></trkpt><trkpt lat="41.30896718137999" lon="19.487109785195923"><ele>4.0</ele><time>2026-04-27T07:27:58Z</time></trkpt><trkpt lat="41.30891292737678" lon="19.48722581994837"><ele>4.0</ele><time>2026-04-27T07:28:00Z</time></trkpt><trkpt lat="41.30885039982302" lon="19.4873500481014"><ele>4.0</ele><time>2026-04-27T07:28:02Z</time></trkpt><trkpt lat="41.30878865562775" lon="19.487487900893598"><ele>3.714285714285714</ele><time>2026-04-27T07:28:04Z</time></trkpt><trkpt lat="41.308755394524496" lon="19.487560709345505"><ele>3.428571428571428</ele><time>2026-04-27T07:28:05Z</time></trkpt><trkpt lat="41.30871961614825" lon="19.487636764932354"><ele>3.142857142857143</ele><time>2026-04-27T07:28:06Z</time></trkpt><trkpt lat="41.308680738075836" lon="19.48771479246803"><ele>2.8571428571428568</ele><time>2026-04-27T07:28:07Z</time></trkpt><trkpt lat="41.30864218278071" lon="19.48779251603116"><ele>2.571428571428571</ele><time>2026-04-27T07:28:08Z</time></trkpt><trkpt lat="41.30860547980238" lon="19.487866852399574"><ele>2.2857142857142856</ele><time>2026-04-27T07:28:09Z</time></trkpt><trkpt lat="41.30856837060277" lon="19.48794212935498"><ele>2.0</ele><time>2026-04-27T07:28:10Z</time></trkpt><trkpt lat="41.30853166175042" lon="19.488018148112246"><ele>1.9999999999999998</ele><time>2026-04-27T07:28:11Z</time></trkpt><trkpt lat="41.308493760155606" lon="19.48809565228568"><ele>2.0</ele><time>2026-04-27T07:28:12Z</time></trkpt><trkpt lat="41.30845586283495" lon="19.48817099969878"><ele>2.0</ele><time>2026-04-27T07:28:13Z</time></trkpt><trkpt lat="41.30841891945905" lon="19.48824804937957"><ele>2.0</ele><time>2026-04-27T07:28:14Z</time></trkpt><trkpt lat="41.30838075300105" lon="19.488328900376167"><ele>1.9999999999999998</ele><time>2026-04-27T07:28:15Z</time></trkpt><trkpt lat="41.30834201311349" lon="19.488410117089632"><ele>2.0</ele><time>2026-04-27T07:28:16Z</time></trkpt><trkpt lat="41.30827339835744" lon="19.48855394276262"><ele>1.9999999999999998</ele><time>2026-04-27T07:28:17Z</time></trkpt><trkpt lat="41.30823044600926" lon="19.488641496268027"><ele>2.0</ele><time>2026-04-27T07:28:18Z</time></trkpt><trkpt lat="41.30818664225454" lon="19.488728030867726"><ele>2.0</ele><time>2026-04-27T07:28:19Z</time></trkpt><trkpt lat="41.30814409629648" lon="19.488807728930507"><ele>2.0</ele><time>2026-04-27T07:28:20Z</time></trkpt><trkpt lat="41.30810968565009" lon="19.488878195008375"><ele>1.9999999999999998</ele><time>2026-04-27T07:28:21Z</time></trkpt><trkpt lat="41.30805807579053" lon="19.488983552162733"><ele>2.0</ele><time>2026-04-27T07:28:22.999Z</time></trkpt><trkpt lat="41.30802465910639" lon="19.489056841355207"><ele>1.6666666666666665</ele><time>2026-04-27T07:28:26.999Z</time></trkpt><trkpt lat="41.30798091723668" lon="19.489145128632803"><ele>1.3333333333333333</ele><time>2026-04-27T07:28:31.999Z</time></trkpt><trkpt lat="41.307941672338615" lon="19.489222364228482"><ele>1.0</ele><time>2026-04-27T07:28:33.999Z</time></trkpt><trkpt lat="41.30790217204141" lon="19.48930866011426"><ele>0.6666666666666666</ele><time>2026-04-27T07:28:35.999Z</time></trkpt><trkpt lat="41.30786307088638" lon="19.489389237494233"><ele>0.3333333333333333</ele><time>2026-04-27T07:28:37.999Z</time></trkpt><trkpt lat="41.307816511044585" lon="19.48947325435707"><ele>0.0</ele><time>2026-04-27T07:28:40.999Z</time></trkpt><trkpt lat="41.307770908370635" lon="19.48957184873144"><ele>-0.16666666666666666</ele><time>2026-04-27T07:28:43.999Z</time></trkpt><trkpt lat="41.30773123618006" lon="19.489665944129708"><ele>-0.3333333333333333</ele><time>2026-04-27T07:28:50.999Z</time></trkpt><trkpt lat="41.30768096410964" lon="19.489768326895284"><ele>-0.5</ele><time>2026-04-27T07:28:53.999Z</time></trkpt><trkpt lat="41.307644872303456" lon="19.489841309333677"><ele>-0.6666666666666666</ele><time>2026-04-27T07:28:55.999Z</time></trkpt><trkpt lat="41.30760861463166" lon="19.48992399044475"><ele>-0.8333333333333333</ele><time>2026-04-27T07:28:57.999Z</time></trkpt><trkpt lat="41.30756359776935" lon="19.490018517202532"><ele>-1.0</ele><time>2026-04-27T07:28:59.999Z</time></trkpt><trkpt lat="41.307512543160264" lon="19.49011419573937"><ele>-1.0</ele><time>2026-04-27T07:29:02.999Z</time></trkpt><trkpt lat="41.307471111304274" lon="19.49019697440482"><ele>-0.9999999999999999</ele><time>2026-04-27T07:29:04.999Z</time></trkpt><trkpt lat="41.3074263348179" lon="19.490289141581748"><ele>-1.0</ele><time>2026-04-27T07:29:06.999Z</time></trkpt><trkpt lat="41.30739051327324" lon="19.490358625218906"><ele>-1.0</ele><time>2026-04-27T07:29:08.999Z</time></trkpt><trkpt lat="41.30735299980502" lon="19.49042681840177"><ele>-0.9999999999999999</ele><time>2026-04-27T07:29:10.999Z</time></trkpt><trkpt lat="41.307309330040916" lon="19.49051651717412"><ele>-1.0</ele><time>2026-04-27T07:29:12.999Z</time></trkpt><trkpt lat="41.30727043961544" lon="19.490600781508583"><ele>-1.0</ele><time>2026-04-27T07:29:15.999Z</time></trkpt><trkpt lat="41.30723894567509" lon="19.49068354431134"><ele>-0.33333333333333326</ele><time>2026-04-27T07:29:17.999Z</time></trkpt><trkpt lat="41.307192453901635" lon="19.490777892550312"><ele>0.33333333333333337</ele><time>2026-04-27T07:29:19.999Z</time></trkpt><trkpt lat="41.30714615978292" lon="19.490867407412885"><ele>1.0</ele><time>2026-04-27T07:29:21.999Z</time></trkpt><trkpt lat="41.3071009934576" lon="19.490963219128826"><ele>1.6666666666666667</ele><time>2026-04-27T07:29:23.999Z</time></trkpt><trkpt lat="41.30704242468061" lon="19.491087673718408"><ele>2.3333333333333335</ele><time>2026-04-27T07:29:25.999Z</time></trkpt><trkpt lat="41.30700554317397" lon="19.49115879808764"><ele>3.0</ele><time>2026-04-27T07:29:26.999Z</time></trkpt><trkpt lat="41.306963155412426" lon="19.49122815199804"><ele>2.6666666666666665</ele><time>2026-04-27T07:29:27.999Z</time></trkpt><trkpt lat="41.30690356739067" lon="19.491349149966055"><ele>2.3333333333333335</ele><time>2026-04-27T07:29:29.999Z</time></trkpt><trkpt lat="41.306841016666674" lon="19.491446564259114"><ele>2.0</ele><time>2026-04-27T07:29:31.999Z</time></trkpt><trkpt lat="41.30679556339137" lon="19.491534719611618"><ele>1.6666666666666665</ele><time>2026-04-27T07:29:33.999Z</time></trkpt><trkpt lat="41.30672963006744" lon="19.49159300729023"><ele>1.3333333333333333</ele><time>2026-04-27T07:29:35.999Z</time></trkpt><trkpt lat="41.306675457496816" lon="19.49167931822114"><ele>1.0</ele><time>2026-04-27T07:29:38.999Z</time></trkpt><trkpt lat="41.30664368805463" lon="19.4917527277728"><ele>0.9999999999999999</ele><time>2026-04-27T07:29:42.999Z</time></trkpt><trkpt lat="41.30659932812209" lon="19.491821425527814"><ele>1.0</ele><time>2026-04-27T07:29:48.999Z</time></trkpt><trkpt lat="41.306562273034004" lon="19.491903494101926"><ele>1.0</ele><time>2026-04-27T07:29:50.999Z</time></trkpt><trkpt lat="41.30650489917266" lon="19.491992044546084"><ele>1.0</ele><time>2026-04-27T07:29:52.999Z</time></trkpt><trkpt lat="41.306448142075666" lon="19.492117497376274"><ele>0.9999999999999999</ele><time>2026-04-27T07:29:54.999Z</time></trkpt><trkpt lat="41.30641167152235" lon="19.492196295469874"><ele>1.0</ele><time>2026-04-27T07:29:55.999Z</time></trkpt><trkpt lat="41.30637017999601" lon="19.49228594181721"><ele>0.8</ele><time>2026-04-27T07:29:56.999Z</time></trkpt><trkpt lat="41.3063231937185" lon="19.492387460091972"><ele>0.6000000000000001</ele><time>2026-04-27T07:29:57.999Z</time></trkpt><trkpt lat="41.30627088561236" lon="19.4925004773784"><ele>0.4</ele><time>2026-04-27T07:29:58.999Z</time></trkpt><trkpt lat="41.30619911732501" lon="19.492611711113973"><ele>0.2</ele><time>2026-04-27T07:29:59.999Z</time></trkpt><trkpt lat="41.30611549963127" lon="19.492737463252222"><ele>0.0</ele><time>2026-04-27T07:30:00.999Z</time></trkpt><trkpt lat="41.306041861183076" lon="19.492848160148814"><ele>0.0</ele><time>2026-04-27T07:30:01.999Z</time></trkpt><trkpt lat="41.30595190197834" lon="19.493008742639002"><ele>0.0</ele><time>2026-04-27T07:30:02.999Z</time></trkpt><trkpt lat="41.30583770085317" lon="19.493142350399225"><ele>0.0</ele><time>2026-04-27T07:30:03.999Z</time></trkpt><trkpt lat="41.305742610760454" lon="19.493248273995793"><ele>0.0</ele><time>2026-04-27T07:30:04.999Z</time></trkpt><trkpt lat="41.305647004725074" lon="19.493327490473906"><ele>0.5</ele><time>2026-04-27T07:30:05.999Z</time></trkpt><trkpt lat="41.30555864432801" lon="19.49342795876485"><ele>1.0</ele><time>2026-04-27T07:30:06.999Z</time></trkpt><trkpt lat="41.305467369540665" lon="19.493528025812267"><ele>1.5</ele><time>2026-04-27T07:30:07.999Z</time></trkpt><trkpt lat="41.30537186889463" lon="19.493632463301132"><ele>2.0</ele><time>2026-04-27T07:30:08.999Z</time></trkpt><trkpt lat="41.30528086974504" lon="19.493731975998763"><ele>1.75</ele><time>2026-04-27T07:30:09.999Z</time></trkpt><trkpt lat="41.305187691438704" lon="19.493832945245803"><ele>1.5</ele><time>2026-04-27T07:30:10.999Z</time></trkpt><trkpt lat="41.305096750305914" lon="19.493936050283256"><ele>1.25</ele><time>2026-04-27T07:30:11.999Z</time></trkpt><trkpt lat="41.30500353597569" lon="19.494041503444983"><ele>1.0</ele><time>2026-04-27T07:30:12.999Z</time></trkpt><trkpt lat="41.30491137717909" lon="19.49414560266642"><ele>1.0</ele><time>2026-04-27T07:30:13.999Z</time></trkpt><trkpt lat="41.3048324901536" lon="19.494260713892533"><ele>1.0</ele><time>2026-04-27T07:30:14.999Z</time></trkpt><trkpt lat="41.30475631791388" lon="19.494343947244136"><ele>1.0</ele><time>2026-04-27T07:30:15.999Z</time></trkpt><trkpt lat="41.30469312972532" lon="19.494414586112217"><ele>1.0</ele><time>2026-04-27T07:30:16.999Z</time></trkpt><trkpt lat="41.30462475696372" lon="19.494468824698146"><ele>1.0</ele><time>2026-04-27T07:30:17.999Z</time></trkpt><trkpt lat="41.30457967575224" lon="19.494561373848093"><ele>0.8</ele><time>2026-04-27T07:30:18.999Z</time></trkpt><trkpt lat="41.30451215315334" lon="19.494620566317934"><ele>0.6000000000000001</ele><time>2026-04-27T07:30:19.999Z</time></trkpt><trkpt lat="41.304453051582875" lon="19.494709321498043"><ele>0.4</ele><time>2026-04-27T07:30:20.999Z</time></trkpt><trkpt lat="41.304382975252636" lon="19.494812735155293"><ele>0.2</ele><time>2026-04-27T07:30:21.999Z</time></trkpt><trkpt lat="41.30431843078172" lon="19.494936697939643"><ele>0.0</ele><time>2026-04-27T07:30:22.999Z</time></trkpt><trkpt lat="41.30422925092027" lon="19.495038227581958"><ele>0.0</ele><time>2026-04-27T07:30:23.999Z</time></trkpt><trkpt lat="41.30416267063768" lon="19.495166548438544"><ele>0.0</ele><time>2026-04-27T07:30:24.999Z</time></trkpt><trkpt lat="41.304079500239325" lon="19.495277977299104"><ele>0.0</ele><time>2026-04-27T07:30:25.999Z</time></trkpt><trkpt lat="41.3040101212621" lon="19.49538079033323"><ele>0.0</ele><time>2026-04-27T07:30:26.999Z</time></trkpt><trkpt lat="41.303945714909624" lon="19.49547838302829"><ele>0.0</ele><time>2026-04-27T07:30:27.999Z</time></trkpt><trkpt lat="41.303877485611615" lon="19.495578394094565"><ele>0.4</ele><time>2026-04-27T07:30:28.999Z</time></trkpt><trkpt lat="41.3038035860261" lon="19.495682392128696"><ele>0.8</ele><time>2026-04-27T07:30:29.999Z</time></trkpt><trkpt lat="41.303729581927236" lon="19.49578958607821"><ele>1.2000000000000002</ele><time>2026-04-27T07:30:30.999Z</time></trkpt><trkpt lat="41.30365303191818" lon="19.49589454606257"><ele>1.6</ele><time>2026-04-27T07:30:31.999Z</time></trkpt><trkpt lat="41.30357784141613" lon="19.49600443300805"><ele>2.0</ele><time>2026-04-27T07:30:32.999Z</time></trkpt><trkpt lat="41.3034977528778" lon="19.496119368241942"><ele>2.0</ele><time>2026-04-27T07:30:33.999Z</time></trkpt><trkpt lat="41.303418743454195" lon="19.496234936620283"><ele>2.0</ele><time>2026-04-27T07:30:34.999Z</time></trkpt><trkpt lat="41.30333757551058" lon="19.496357723391597"><ele>2.0</ele><time>2026-04-27T07:30:35.999Z</time></trkpt><trkpt lat="41.303254087495844" lon="19.4964735561404"><ele>2.0</ele><time>2026-04-27T07:30:36.999Z</time></trkpt><trkpt lat="41.303169531830974" lon="19.49658831633776"><ele>1.8</ele><time>2026-04-27T07:30:37.999Z</time></trkpt><trkpt lat="41.30310247715189" lon="19.496696507922604"><ele>1.6</ele><time>2026-04-27T07:30:38.999Z</time></trkpt><trkpt lat="41.30303442621622" lon="19.496788141633672"><ele>1.4000000000000001</ele><time>2026-04-27T07:30:39.999Z</time></trkpt><trkpt lat="41.302970489311335" lon="19.496883213542542"><ele>1.2000000000000002</ele><time>2026-04-27T07:30:40.999Z</time></trkpt><trkpt lat="41.30289967708816" lon="19.49697887583221"><ele>1.0</ele><time>2026-04-27T07:30:41.999Z</time></trkpt><trkpt lat="41.30283059006724" lon="19.497078109466678"><ele>0.8</ele><time>2026-04-27T07:30:42.999Z</time></trkpt><trkpt lat="41.30276043269936" lon="19.497175675363625"><ele>0.6000000000000001</ele><time>2026-04-27T07:30:43.999Z</time></trkpt><trkpt lat="41.30269372268804" lon="19.49726611141192"><ele>0.4</ele><time>2026-04-27T07:30:44.999Z</time></trkpt><trkpt lat="41.30263504538396" lon="19.49735831903549"><ele>0.2</ele><time>2026-04-27T07:30:45.999Z</time></trkpt><trkpt lat="41.30257350961835" lon="19.497448500329472"><ele>0.0</ele><time>2026-04-27T07:30:46.999Z</time></trkpt><trkpt lat="41.30250984315325" lon="19.49753878631097"><ele>0.0</ele><time>2026-04-27T07:30:47.999Z</time></trkpt><trkpt lat="41.302441728516484" lon="19.497634930413188"><ele>0.0</ele><time>2026-04-27T07:30:48.999Z</time></trkpt><trkpt lat="41.302361602547585" lon="19.497716167018247"><ele>0.0</ele><time>2026-04-27T07:30:49.999Z</time></trkpt><trkpt lat="41.30230116515603" lon="19.49779784951275"><ele>0.0</ele><time>2026-04-27T07:30:50.999Z</time></trkpt><trkpt lat="41.30225930624554" lon="19.497894801638058"><ele>0.0</ele><time>2026-04-27T07:30:51.999Z</time></trkpt><trkpt lat="41.30220470245939" lon="19.49797714057021"><ele>0.0</ele><time>2026-04-27T07:30:52.999Z</time></trkpt><trkpt lat="41.30213933126562" lon="19.498040115046177"><ele>0.0</ele><time>2026-04-27T07:30:53.999Z</time></trkpt><trkpt lat="41.302090653873826" lon="19.498111301931644"><ele>0.0</ele><time>2026-04-27T07:30:54.999Z</time></trkpt><trkpt lat="41.30200956951641" lon="19.498230257461785"><ele>0.0</ele><time>2026-04-27T07:30:56.999Z</time></trkpt><trkpt lat="41.30193762980353" lon="19.498336262444155"><ele>0.0</ele><time>2026-04-27T07:30:58.999Z</time></trkpt><trkpt lat="41.30190062690222" lon="19.498404299758008"><ele>0.0</ele><time>2026-04-27T07:31:07.999Z</time></trkpt><trkpt lat="41.3018374458747" lon="19.49848443158898"><ele>0.0</ele><time>2026-04-27T07:31:18.999Z</time></trkpt><trkpt lat="41.30176145215947" lon="19.498596824094165"><ele>0.0</ele><time>2026-04-27T07:31:20.999Z</time></trkpt><trkpt lat="41.30169532425931" lon="19.498709853832516"><ele>0.0</ele><time>2026-04-27T07:31:22.999Z</time></trkpt><trkpt lat="41.301625769782966" lon="19.498818517225786"><ele>0.0</ele><time>2026-04-27T07:31:24.999Z</time></trkpt><trkpt lat="41.30154236849865" lon="19.498909409942534"><ele>0.0</ele><time>2026-04-27T07:31:26.999Z</time></trkpt><trkpt lat="41.30146927111814" lon="19.49901307711373"><ele>0.5</ele><time>2026-04-27T07:31:28.999Z</time></trkpt><trkpt lat="41.30141679302523" lon="19.499087502195234"><ele>1.0</ele><time>2026-04-27T07:31:31.999Z</time></trkpt><trkpt lat="41.3013431519783" lon="19.499192584574576"><ele>1.5</ele><time>2026-04-27T07:31:33.999Z</time></trkpt><trkpt lat="41.3012986107249" lon="19.499256054544368"><ele>2.0</ele><time>2026-04-27T07:31:34.999Z</time></trkpt><trkpt lat="41.3012443469851" lon="19.49933337880665"><ele>2.5</ele><time>2026-04-27T07:31:35.999Z</time></trkpt><trkpt lat="41.30118251756591" lon="19.499421483959"><ele>3.0</ele><time>2026-04-27T07:31:36.999Z</time></trkpt><trkpt lat="41.30111500430514" lon="19.499514663983"><ele>3.1666666666666665</ele><time>2026-04-27T07:31:37.999Z</time></trkpt><trkpt lat="41.30105842473387" lon="19.499592679537482"><ele>3.333333333333333</ele><time>2026-04-27T07:31:38.999Z</time></trkpt><trkpt lat="41.30102722028463" lon="19.499687313649183"><ele>3.5</ele><time>2026-04-27T07:31:39.999Z</time></trkpt><trkpt lat="41.30094371820012" lon="19.499809145918125"><ele>3.6666666666666665</ele><time>2026-04-27T07:31:41.999Z</time></trkpt><trkpt lat="41.30089966132602" lon="19.499870553849668"><ele>3.833333333333333</ele><time>2026-04-27T07:31:42.999Z</time></trkpt><trkpt lat="41.300832034947085" lon="19.49992931350635"><ele>4.0</ele><time>2026-04-27T07:31:43.999Z</time></trkpt><trkpt lat="41.300783501067286" lon="19.500045849142584"><ele>4.0</ele><time>2026-04-27T07:31:44.999Z</time></trkpt><trkpt lat="41.30071648585759" lon="19.50013875956479"><ele>4.0</ele><time>2026-04-27T07:31:45.999Z</time></trkpt><trkpt lat="41.30064526116089" lon="19.50023666637709"><ele>4.0</ele><time>2026-04-27T07:31:46.999Z</time></trkpt><trkpt lat="41.30056818408718" lon="19.50034715133618"><ele>4.0</ele><time>2026-04-27T07:31:47.999Z</time></trkpt><trkpt lat="41.30048710416973" lon="19.50046758238683"><ele>4.0</ele><time>2026-04-27T07:31:48.999Z</time></trkpt><trkpt lat="41.30040183349689" lon="19.500593875696012"><ele>4.5</ele><time>2026-04-27T07:31:49.999Z</time></trkpt><trkpt lat="41.30031381728416" lon="19.50072379759888"><ele>5.0</ele><time>2026-04-27T07:31:50.999Z</time></trkpt><trkpt lat="41.30021800939928" lon="19.50085829565968"><ele>5.5</ele><time>2026-04-27T07:31:51.999Z</time></trkpt><trkpt lat="41.30011830292508" lon="19.501002112500814"><ele>6.0</ele><time>2026-04-27T07:31:52.999Z</time></trkpt><trkpt lat="41.30001503341954" lon="19.50115287115418"><ele>6.0</ele><time>2026-04-27T07:31:53.999Z</time></trkpt><trkpt lat="41.299908883891" lon="19.501308121846794"><ele>6.0</ele><time>2026-04-27T07:31:54.999Z</time></trkpt><trkpt lat="41.29979849037206" lon="19.50146550261805"><ele>6.0</ele><time>2026-04-27T07:31:55.999Z</time></trkpt><trkpt lat="41.299685224894645" lon="19.501624416925996"><ele>6.0</ele><time>2026-04-27T07:31:56.999Z</time></trkpt><trkpt lat="41.29957879647433" lon="19.50178055906396"><ele>6.0</ele><time>2026-04-27T07:31:57.999Z</time></trkpt><trkpt lat="41.299460579347404" lon="19.50195107419801"><ele>6.0</ele><time>2026-04-27T07:31:58.999Z</time></trkpt><trkpt lat="41.299343485813715" lon="19.50211743138949"><ele>4.0</ele><time>2026-04-27T07:31:59.999Z</time></trkpt><trkpt lat="41.29922548462779" lon="19.50228553462375"><ele>2.0</ele><time>2026-04-27T07:32:00.999Z</time></trkpt><trkpt lat="41.299117708333085" lon="19.502443381573457"><ele>0.0</ele><time>2026-04-27T07:32:01.999Z</time></trkpt><trkpt lat="41.29901328531919" lon="19.502593851854773"><ele>1.0</ele><time>2026-04-27T07:32:02.999Z</time></trkpt><trkpt lat="41.29890697695687" lon="19.502746525989828"><ele>2.0</ele><time>2026-04-27T07:32:03.999Z</time></trkpt><trkpt lat="41.29879400306761" lon="19.50290041191319"><ele>3.0</ele><time>2026-04-27T07:32:04.999Z</time></trkpt><trkpt lat="41.29867656609782" lon="19.5030574152595"><ele>3.666666666666667</ele><time>2026-04-27T07:32:05.999Z</time></trkpt><trkpt lat="41.29855896871565" lon="19.503219473296035"><ele>4.333333333333334</ele><time>2026-04-27T07:32:06.999Z</time></trkpt><trkpt lat="41.29843986499022" lon="19.503383016227456"><ele>5.0</ele><time>2026-04-27T07:32:07.999Z</time></trkpt><trkpt lat="41.29831684828549" lon="19.50354194268482"><ele>5.0</ele><time>2026-04-27T07:32:08.999Z</time></trkpt><trkpt lat="41.29818907134575" lon="19.503696020098243"><ele>5.0</ele><time>2026-04-27T07:32:09.999Z</time></trkpt><trkpt lat="41.298059300964454" lon="19.503848584559815"><ele>5.0</ele><time>2026-04-27T07:32:10.999Z</time></trkpt><trkpt lat="41.29792677346031" lon="19.50400157970444"><ele>4.666666666666667</ele><time>2026-04-27T07:32:11.999Z</time></trkpt><trkpt lat="41.29779083164296" lon="19.504151438849327"><ele>4.333333333333333</ele><time>2026-04-27T07:32:12.999Z</time></trkpt><trkpt lat="41.29764904362949" lon="19.504299681950584"><ele>4.0</ele><time>2026-04-27T07:32:13.999Z</time></trkpt><trkpt lat="41.29750849058088" lon="19.50444448176523"><ele>5.0</ele><time>2026-04-27T07:32:14.999Z</time></trkpt><trkpt lat="41.29736391313691" lon="19.504586961603206"><ele>6.0</ele><time>2026-04-27T07:32:15.999Z</time></trkpt><trkpt lat="41.29721641673116" lon="19.50472254326689"><ele>7.0</ele><time>2026-04-27T07:32:16.999Z</time></trkpt><trkpt lat="41.297075878302515" lon="19.504842957489004"><ele>7.0</ele><time>2026-04-27T07:32:17.999Z</time></trkpt><trkpt lat="41.29694358479479" lon="19.50495464882143"><ele>7.0</ele><time>2026-04-27T07:32:18.999Z</time></trkpt><trkpt lat="41.29681016884035" lon="19.50506832643591"><ele>7.0</ele><time>2026-04-27T07:32:19.999Z</time></trkpt><trkpt lat="41.296672827187436" lon="19.505177574514676"><ele>7.0</ele><time>2026-04-27T07:32:20.999Z</time></trkpt><trkpt lat="41.29653104311695" lon="19.505281999380813"><ele>7.0</ele><time>2026-04-27T07:32:21.999Z</time></trkpt><trkpt lat="41.29638748875555" lon="19.505379404089553"><ele>7.0</ele><time>2026-04-27T07:32:22.999Z</time></trkpt><trkpt lat="41.2962440195985" lon="19.50547830835082"><ele>6.333333333333334</ele><time>2026-04-27T07:32:23.999Z</time></trkpt><trkpt lat="41.2960951133473" lon="19.50557767831501"><ele>5.666666666666667</ele><time>2026-04-27T07:32:24.999Z</time></trkpt><trkpt lat="41.295949673102335" lon="19.50566869127706"><ele>5.0</ele><time>2026-04-27T07:32:25.999Z</time></trkpt><trkpt lat="41.295657286870764" lon="19.50584492760947"><ele>5.333333333333334</ele><time>2026-04-27T07:32:27.999Z</time></trkpt><trkpt lat="41.29550976549565" lon="19.505929478616032"><ele>5.666666666666667</ele><time>2026-04-27T07:32:28.999Z</time></trkpt><trkpt lat="41.295361092440594" lon="19.506016125106953"><ele>6.0</ele><time>2026-04-27T07:32:29.999Z</time></trkpt><trkpt lat="41.29521108213855" lon="19.506100944450267"><ele>6.0</ele><time>2026-04-27T07:32:30.999Z</time></trkpt><trkpt lat="41.29505769548055" lon="19.506186834352217"><ele>6.0</ele><time>2026-04-27T07:32:31.999Z</time></trkpt><trkpt lat="41.294901610548735" lon="19.506264377815516"><ele>6.0</ele><time>2026-04-27T07:32:32.999Z</time></trkpt><trkpt lat="41.2947419902055" lon="19.506336764323073"><ele>5.666666666666667</ele><time>2026-04-27T07:32:33.999Z</time></trkpt><trkpt lat="41.294580302405684" lon="19.506409131772006"><ele>5.333333333333334</ele><time>2026-04-27T07:32:34.999Z</time></trkpt><trkpt lat="41.29442215033238" lon="19.506486800806858"><ele>5.0</ele><time>2026-04-27T07:32:35.999Z</time></trkpt><trkpt lat="41.29426763395587" lon="19.50656587763669"><ele>5.0</ele><time>2026-04-27T07:32:36.999Z</time></trkpt><trkpt lat="41.29412164043122" lon="19.50664253207694"><ele>5.0</ele><time>2026-04-27T07:32:37.999Z</time></trkpt><trkpt lat="41.29398433695331" lon="19.506714173990474"><ele>5.0</ele><time>2026-04-27T07:32:38.999Z</time></trkpt><trkpt lat="41.29384653705375" lon="19.50678860688676"><ele>4.25</ele><time>2026-04-27T07:32:39.999Z</time></trkpt><trkpt lat="41.29371281274505" lon="19.50686244530686"><ele>3.5</ele><time>2026-04-27T07:32:40.999Z</time></trkpt><trkpt lat="41.293580878990056" lon="19.50693483994244"><ele>2.75</ele><time>2026-04-27T07:32:41.999Z</time></trkpt><trkpt lat="41.29344498887491" lon="19.50700286919796"><ele>2.0</ele><time>2026-04-27T07:32:42.999Z</time></trkpt><trkpt lat="41.2933171823687" lon="19.507068732085806"><ele>1.5</ele><time>2026-04-27T07:32:43.999Z</time></trkpt><trkpt lat="41.29318636035457" lon="19.50713850159129"><ele>1.0</ele><time>2026-04-27T07:32:44.999Z</time></trkpt><trkpt lat="41.293051265443026" lon="19.507209063225705"><ele>0.5</ele><time>2026-04-27T07:32:45.999Z</time></trkpt><trkpt lat="41.29291847880842" lon="19.50727660548192"><ele>0.0</ele><time>2026-04-27T07:32:46.999Z</time></trkpt><trkpt lat="41.292795383881106" lon="19.50733688316897"><ele>0.0</ele><time>2026-04-27T07:32:47.999Z</time></trkpt><trkpt lat="41.292677655539" lon="19.507403917506757"><ele>0.0</ele><time>2026-04-27T07:32:48.999Z</time></trkpt><trkpt lat="41.292564541166115" lon="19.507481735779294"><ele>0.0</ele><time>2026-04-27T07:32:49.999Z</time></trkpt><trkpt lat="41.292461130154805" lon="19.507575751296347"><ele>0.0</ele><time>2026-04-27T07:32:50.999Z</time></trkpt><trkpt lat="41.2923642891463" lon="19.50767490218742"><ele>0.0</ele><time>2026-04-27T07:32:51.999Z</time></trkpt><trkpt lat="41.29229063203409" lon="19.50779458116198"><ele>0.0</ele><time>2026-04-27T07:32:52.999Z</time></trkpt><trkpt lat="41.29223346125476" lon="19.507913008173826"><ele>0.0</ele><time>2026-04-27T07:32:53.999Z</time></trkpt><trkpt lat="41.292183806482335" lon="19.50801145145585"><ele>0.0</ele><time>2026-04-27T07:32:54.999Z</time></trkpt><trkpt lat="41.29212157351955" lon="19.508111181004264"><ele>0.0</ele><time>2026-04-27T07:32:56.999Z</time></trkpt><trkpt lat="41.29203585245938" lon="19.50817173462687"><ele>0.0</ele><time>2026-04-27T07:32:59.999Z</time></trkpt><trkpt lat="41.29195923655192" lon="19.508269645454217"><ele>0.0</ele><time>2026-04-27T07:33:01.999Z</time></trkpt><trkpt lat="41.29193280284667" lon="19.508385721483027"><ele>0.0</ele><time>2026-04-27T07:33:03.999Z</time></trkpt><trkpt lat="41.29186850836077" lon="19.508488355667826"><ele>0.0</ele><time>2026-04-27T07:33:05.999Z</time></trkpt><trkpt lat="41.29178127148667" lon="19.508612701551556"><ele>0.0</ele><time>2026-04-27T07:33:07.999Z</time></trkpt><trkpt lat="41.291710054989835" lon="19.508732555280513"><ele>0.0</ele><time>2026-04-27T07:33:09.999Z</time></trkpt><trkpt lat="41.29165290712621" lon="19.508867188429107"><ele>0.0</ele><time>2026-04-27T07:33:11.999Z</time></trkpt><trkpt lat="41.29159811770706" lon="19.509023504160794"><ele>0.0</ele><time>2026-04-27T07:33:13.999Z</time></trkpt><trkpt lat="41.2915643409935" lon="19.509118103147973"><ele>0.0</ele><time>2026-04-27T07:33:14.999Z</time></trkpt><trkpt lat="41.291534427277305" lon="19.50922030209847"><ele>0.0</ele><time>2026-04-27T07:33:15.999Z</time></trkpt><trkpt lat="41.29150535587007" lon="19.509322511546017"><ele>0.0</ele><time>2026-04-27T07:33:16.999Z</time></trkpt><trkpt lat="41.291473531087334" lon="19.50942843904635"><ele>0.0</ele><time>2026-04-27T07:33:17.999Z</time></trkpt><trkpt lat="41.29143771582094" lon="19.509539504781568"><ele>0.0</ele><time>2026-04-27T07:33:18.999Z</time></trkpt><trkpt lat="41.29139600723073" lon="19.509647641820532"><ele>0.0</ele><time>2026-04-27T07:33:19.999Z</time></trkpt><trkpt lat="41.29134586977878" lon="19.50974806196853"><ele>0.0</ele><time>2026-04-27T07:33:20.999Z</time></trkpt><trkpt lat="41.29129654930152" lon="19.509836090954078"><ele>0.0</ele><time>2026-04-27T07:33:21.999Z</time></trkpt><trkpt lat="41.29124118474709" lon="19.509920191193167"><ele>0.16666666666666666</ele><time>2026-04-27T07:33:22.999Z</time></trkpt><trkpt lat="41.29118148656485" lon="19.510006947501346"><ele>0.3333333333333333</ele><time>2026-04-27T07:33:23.999Z</time></trkpt><trkpt lat="41.29110403596363" lon="19.510075559520413"><ele>0.5</ele><time>2026-04-27T07:33:24.999Z</time></trkpt><trkpt lat="41.29103791085422" lon="19.51014656251945"><ele>0.6666666666666666</ele><time>2026-04-27T07:33:25.999Z</time></trkpt><trkpt lat="41.29096975278444" lon="19.51021187925342"><ele>0.8333333333333333</ele><time>2026-04-27T07:33:26.999Z</time></trkpt><trkpt lat="41.290898628250275" lon="19.51027915439182"><ele>1.0</ele><time>2026-04-27T07:33:27.999Z</time></trkpt><trkpt lat="41.29082201185526" lon="19.510351624257115"><ele>1.0</ele><time>2026-04-27T07:33:28.999Z</time></trkpt><trkpt lat="41.29074032888521" lon="19.510428885269018"><ele>1.0</ele><time>2026-04-27T07:33:29.999Z</time></trkpt><trkpt lat="41.290663956682586" lon="19.510526550260458"><ele>1.0</ele><time>2026-04-27T07:33:30.999Z</time></trkpt><trkpt lat="41.29059921980455" lon="19.510621202356077"><ele>1.0</ele><time>2026-04-27T07:33:31.999Z</time></trkpt><trkpt lat="41.29052509761113" lon="19.510722698460732"><ele>1.0</ele><time>2026-04-27T07:33:32.999Z</time></trkpt><trkpt lat="41.29048045829046" lon="19.510831337075444"><ele>1.0</ele><time>2026-04-27T07:33:33.999Z</time></trkpt><trkpt lat="41.290434762585505" lon="19.510942636175216"><ele>1.0</ele><time>2026-04-27T07:33:34.999Z</time></trkpt><trkpt lat="41.29035988386267" lon="19.511102691663872"><ele>1.0</ele><time>2026-04-27T07:33:36.999Z</time></trkpt><trkpt lat="41.290311439820286" lon="19.51119352673832"><ele>1.0</ele><time>2026-04-27T07:33:37.999Z</time></trkpt><trkpt lat="41.290249345301646" lon="19.51128101446468"><ele>1.0</ele><time>2026-04-27T07:33:38.999Z</time></trkpt><trkpt lat="41.29018108742198" lon="19.511374282020196"><ele>1.0</ele><time>2026-04-27T07:33:39.999Z</time></trkpt><trkpt lat="41.29010999415121" lon="19.5114697039591"><ele>1.0</ele><time>2026-04-27T07:33:40.999Z</time></trkpt><trkpt lat="41.2900351165309" lon="19.51157087800361"><ele>1.0</ele><time>2026-04-27T07:33:41.999Z</time></trkpt><trkpt lat="41.289977220166506" lon="19.511657186573572"><ele>1.0</ele><time>2026-04-27T07:33:43Z</time></trkpt><trkpt lat="41.28991729107797" lon="19.51174092696996"><ele>1.0</ele><time>2026-04-27T07:33:44Z</time></trkpt><trkpt lat="41.289855029306" lon="19.51182655939261"><ele>1.0</ele><time>2026-04-27T07:33:45Z</time></trkpt><trkpt lat="41.28978552626445" lon="19.511928545310962"><ele>1.0</ele><time>2026-04-27T07:33:46Z</time></trkpt><trkpt lat="41.2897112802133" lon="19.512041894844018"><ele>1.0</ele><time>2026-04-27T07:33:47Z</time></trkpt><trkpt lat="41.28963657332838" lon="19.512145426014076"><ele>1.0</ele><time>2026-04-27T07:33:48Z</time></trkpt><trkpt lat="41.28954814164103" lon="19.51223281522811"><ele>1.0</ele><time>2026-04-27T07:33:49Z</time></trkpt><trkpt lat="41.28946473490618" lon="19.51232797774245"><ele>1.3333333333333333</ele><time>2026-04-27T07:33:50Z</time></trkpt><trkpt lat="41.289398123261" lon="19.51242387862309"><ele>1.6666666666666665</ele><time>2026-04-27T07:33:51Z</time></trkpt><trkpt lat="41.289331182151265" lon="19.512490027971097"><ele>2.0</ele><time>2026-04-27T07:33:52Z</time></trkpt><trkpt lat="41.28926523231033" lon="19.512552149189453"><ele>2.3333333333333335</ele><time>2026-04-27T07:33:53Z</time></trkpt><trkpt lat="41.28920655809465" lon="19.51260040335702"><ele>2.6666666666666665</ele><time>2026-04-27T07:33:54Z</time></trkpt><trkpt lat="41.28914808835823" lon="19.512645803985777"><ele>3.0</ele><time>2026-04-27T07:33:55Z</time></trkpt><trkpt lat="41.28908587318569" lon="19.51270405981477"><ele>3.0</ele><time>2026-04-27T07:33:56Z</time></trkpt><trkpt lat="41.288996075909644" lon="19.512752876429523"><ele>3.0</ele><time>2026-04-27T07:33:57Z</time></trkpt><trkpt lat="41.288887935321185" lon="19.512851936876327"><ele>3.0</ele><time>2026-04-27T07:33:58Z</time></trkpt><trkpt lat="41.288747642996" lon="19.512866625308575"><ele>3.0</ele><time>2026-04-27T07:33:59Z</time></trkpt><trkpt lat="41.28861886607369" lon="19.512921857160467"><ele>3.0</ele><time>2026-04-27T07:34:00Z</time></trkpt><trkpt lat="41.28849871154403" lon="19.512964733015696"><ele>3.0</ele><time>2026-04-27T07:34:01Z</time></trkpt><trkpt lat="41.288373416807936" lon="19.513006861703303"><ele>3.0</ele><time>2026-04-27T07:34:02Z</time></trkpt><trkpt lat="41.28824725339293" lon="19.513049282446833"><ele>3.0</ele><time>2026-04-27T07:34:03Z</time></trkpt><trkpt lat="41.28811887494057" lon="19.51308800468775"><ele>2.75</ele><time>2026-04-27T07:34:04Z</time></trkpt><trkpt lat="41.28797839812416" lon="19.513128769685153"><ele>2.5</ele><time>2026-04-27T07:34:05Z</time></trkpt><trkpt lat="41.287837309867086" lon="19.513160379419954"><ele>2.25</ele><time>2026-04-27T07:34:06Z</time></trkpt><trkpt lat="41.287690537691695" lon="19.513190600630725"><ele>2.0</ele><time>2026-04-27T07:34:07Z</time></trkpt><trkpt lat="41.287545227152975" lon="19.51322338084304"><ele>2.0</ele><time>2026-04-27T07:34:08Z</time></trkpt><trkpt lat="41.28740720081406" lon="19.513275063481544"><ele>2.0</ele><time>2026-04-27T07:34:09Z</time></trkpt><trkpt lat="41.28726813179165" lon="19.513304145918557"><ele>2.0</ele><time>2026-04-27T07:34:10Z</time></trkpt><trkpt lat="41.2871286831994" lon="19.51333271301465"><ele>2.0</ele><time>2026-04-27T07:34:11Z</time></trkpt><trkpt lat="41.28699018194999" lon="19.513360443865515"><ele>1.5</ele><time>2026-04-27T07:34:12Z</time></trkpt><trkpt lat="41.286850082463474" lon="19.513385954310053"><ele>1.0</ele><time>2026-04-27T07:34:13Z</time></trkpt><trkpt lat="41.286706638183254" lon="19.513415989718737"><ele>0.5</ele><time>2026-04-27T07:34:14Z</time></trkpt><trkpt lat="41.28656050539206" lon="19.513449024037644"><ele>0.0</ele><time>2026-04-27T07:34:15Z</time></trkpt><trkpt lat="41.286407964609765" lon="19.51348420473119"><ele>0.0</ele><time>2026-04-27T07:34:16Z</time></trkpt><trkpt lat="41.28625522211643" lon="19.513518538951075"><ele>0.0</ele><time>2026-04-27T07:34:17Z</time></trkpt><trkpt lat="41.286100489533105" lon="19.513556766201038"><ele>0.0</ele><time>2026-04-27T07:34:18Z</time></trkpt><trkpt lat="41.28594908301516" lon="19.513600463350976"><ele>0.0</ele><time>2026-04-27T07:34:19Z</time></trkpt><trkpt lat="41.285796126638175" lon="19.513651137642047"><ele>0.0</ele><time>2026-04-27T07:34:20Z</time></trkpt><trkpt lat="41.28564106754643" lon="19.513707532707706"><ele>0.0</ele><time>2026-04-27T07:34:21Z</time></trkpt><trkpt lat="41.28548038577875" lon="19.513736709454818"><ele>0.3333333333333333</ele><time>2026-04-27T07:34:22Z</time></trkpt><trkpt lat="41.285317923908956" lon="19.51378809382832"><ele>0.6666666666666666</ele><time>2026-04-27T07:34:23Z</time></trkpt><trkpt lat="41.285168690563616" lon="19.513838985802035"><ele>1.0</ele><time>2026-04-27T07:34:24Z</time></trkpt><trkpt lat="41.28503466497703" lon="19.513874704919154"><ele>1.0</ele><time>2026-04-27T07:34:25Z</time></trkpt><trkpt lat="41.28491328305611" lon="19.513930023474302"><ele>1.0</ele><time>2026-04-27T07:34:26Z</time></trkpt><trkpt lat="41.28479337260087" lon="19.513957934134943"><ele>1.0</ele><time>2026-04-27T07:34:27Z</time></trkpt><trkpt lat="41.284668145841486" lon="19.513985088164535"><ele>1.0</ele><time>2026-04-27T07:34:28Z</time></trkpt><trkpt lat="41.28453582976412" lon="19.514003427112318"><ele>1.25</ele><time>2026-04-27T07:34:29Z</time></trkpt><trkpt lat="41.284400143456104" lon="19.514019007578046"><ele>1.5</ele><time>2026-04-27T07:34:30Z</time></trkpt><trkpt lat="41.284261507067775" lon="19.51404525495171"><ele>1.75</ele><time>2026-04-27T07:34:31Z</time></trkpt><trkpt lat="41.284122388851365" lon="19.514077604510614"><ele>2.0</ele><time>2026-04-27T07:34:32Z</time></trkpt><trkpt lat="41.283978301771725" lon="19.514114600820875"><ele>2.0</ele><time>2026-04-27T07:34:33Z</time></trkpt><trkpt lat="41.283829950701296" lon="19.514153879234932"><ele>2.0</ele><time>2026-04-27T07:34:34Z</time></trkpt><trkpt lat="41.283683251383295" lon="19.51418567624267"><ele>2.0</ele><time>2026-04-27T07:34:35Z</time></trkpt><trkpt lat="41.28353047975719" lon="19.514214787002015"><ele>2.0</ele><time>2026-04-27T07:34:36Z</time></trkpt><trkpt lat="41.28337673987875" lon="19.514239636923016"><ele>2.0</ele><time>2026-04-27T07:34:37Z</time></trkpt><trkpt lat="41.28322073218454" lon="19.514256360679216"><ele>2.0</ele><time>2026-04-27T07:34:38Z</time></trkpt><trkpt lat="41.2830611393896" lon="19.514242583406336"><ele>2.0</ele><time>2026-04-27T07:34:39Z</time></trkpt><trkpt lat="41.28289924640481" lon="19.51424857642441"><ele>2.0</ele><time>2026-04-27T07:34:40Z</time></trkpt><trkpt lat="41.2827377564921" lon="19.51427082026397"><ele>2.0</ele><time>2026-04-27T07:34:41Z</time></trkpt><trkpt lat="41.28257650695665" lon="19.514271278984744"><ele>2.0</ele><time>2026-04-27T07:34:42Z</time></trkpt><trkpt lat="41.28241433672358" lon="19.514269622120445"><ele>2.0</ele><time>2026-04-27T07:34:43Z</time></trkpt><trkpt lat="41.28224704729063" lon="19.51426648492406"><ele>2.0</ele><time>2026-04-27T07:34:44Z</time></trkpt><trkpt lat="41.28208227210476" lon="19.514259819231693"><ele>3.0</ele><time>2026-04-27T07:34:45Z</time></trkpt><trkpt lat="41.28191849606994" lon="19.51425185171382"><ele>4.0</ele><time>2026-04-27T07:34:46Z</time></trkpt><trkpt lat="41.281753817714346" lon="19.514246504271398"><ele>5.0</ele><time>2026-04-27T07:34:47Z</time></trkpt><trkpt lat="41.2815924088061" lon="19.514241695117896"><ele>5.0</ele><time>2026-04-27T07:34:48Z</time></trkpt><trkpt lat="41.28144600065724" lon="19.514237393214113"><ele>5.0</ele><time>2026-04-27T07:34:49Z</time></trkpt><trkpt lat="41.281313981467164" lon="19.51423395077678"><ele>5.0</ele><time>2026-04-27T07:34:50Z</time></trkpt><trkpt lat="41.28119126899691" lon="19.514230585692637"><ele>5.0</ele><time>2026-04-27T07:34:51Z</time></trkpt><trkpt lat="41.281080529529355" lon="19.514229572385766"><ele>5.0</ele><time>2026-04-27T07:34:52Z</time></trkpt><trkpt lat="41.28097008691307" lon="19.514229029946982"><ele>5.0</ele><time>2026-04-27T07:34:53Z</time></trkpt><trkpt lat="41.28085235391686" lon="19.51420587429299"><ele>5.0</ele><time>2026-04-27T07:34:54Z</time></trkpt><trkpt lat="41.28072695040397" lon="19.51420038801055"><ele>5.0</ele><time>2026-04-27T07:34:55Z</time></trkpt><trkpt lat="41.280598588700684" lon="19.514194772301423"><ele>4.0</ele><time>2026-04-27T07:34:56Z</time></trkpt><trkpt lat="41.280466627654576" lon="19.514210461376553"><ele>3.0</ele><time>2026-04-27T07:34:57Z</time></trkpt><trkpt lat="41.28033673235751" lon="19.51420557160491"><ele>2.0</ele><time>2026-04-27T07:34:58Z</time></trkpt><trkpt lat="41.28020558592358" lon="19.514205008865787"><ele>1.0</ele><time>2026-04-27T07:34:59Z</time></trkpt><trkpt lat="41.28007420789192" lon="19.51418717563787"><ele>1.0</ele><time>2026-04-27T07:35:00Z</time></trkpt><trkpt lat="41.27993888169776" lon="19.514194113385205"><ele>1.0</ele><time>2026-04-27T07:35:01Z</time></trkpt><trkpt lat="41.27980549339658" lon="19.51420579340315"><ele>1.0</ele><time>2026-04-27T07:35:02Z</time></trkpt><trkpt lat="41.279684388705796" lon="19.514251833838628"><ele>1.0</ele><time>2026-04-27T07:35:03Z</time></trkpt><trkpt lat="41.27956528399813" lon="19.51427214764102"><ele>0.75</ele><time>2026-04-27T07:35:04Z</time></trkpt><trkpt lat="41.279446349068756" lon="19.514293780790048"><ele>0.5</ele><time>2026-04-27T07:35:05Z</time></trkpt><trkpt lat="41.27932253276494" lon="19.51432081749368"><ele>0.25</ele><time>2026-04-27T07:35:06Z</time></trkpt><trkpt lat="41.27919112715321" lon="19.514357619511763"><ele>0.0</ele><time>2026-04-27T07:35:07Z</time></trkpt><trkpt lat="41.27905773150088" lon="19.514401103349392"><ele>0.25</ele><time>2026-04-27T07:35:08Z</time></trkpt><trkpt lat="41.27892177059055" lon="19.514443695291398"><ele>0.5</ele><time>2026-04-27T07:35:09Z</time></trkpt><trkpt lat="41.27879414190186" lon="19.51448865360111"><ele>0.75</ele><time>2026-04-27T07:35:10Z</time></trkpt><trkpt lat="41.278679010047576" lon="19.514535347216057"><ele>1.0</ele><time>2026-04-27T07:35:11Z</time></trkpt><trkpt lat="41.27856470476745" lon="19.51458557335356"><ele>1.25</ele><time>2026-04-27T07:35:12Z</time></trkpt><trkpt lat="41.27845039733665" lon="19.514634345602182"><ele>1.5</ele><time>2026-04-27T07:35:13Z</time></trkpt><trkpt lat="41.27833364661735" lon="19.514697836610505"><ele>1.75</ele><time>2026-04-27T07:35:14Z</time></trkpt><trkpt lat="41.2782134369045" lon="19.514759953908477"><ele>2.0</ele><time>2026-04-27T07:35:15Z</time></trkpt><trkpt lat="41.27809275758933" lon="19.514823270445433"><ele>2.0</ele><time>2026-04-27T07:35:16Z</time></trkpt><trkpt lat="41.27797159289535" lon="19.514897089655594"><ele>2.0</ele><time>2026-04-27T07:35:17Z</time></trkpt><trkpt lat="41.27784736088416" lon="19.514973367290622"><ele>2.0</ele><time>2026-04-27T07:35:18Z</time></trkpt><trkpt lat="41.2777183316018" lon="19.515040519296022"><ele>2.0</ele><time>2026-04-27T07:35:19Z</time></trkpt><trkpt lat="41.27759140065028" lon="19.515119064171802"><ele>2.0</ele><time>2026-04-27T07:35:20Z</time></trkpt><trkpt lat="41.27747288747362" lon="19.515189064778472"><ele>2.0</ele><time>2026-04-27T07:35:21Z</time></trkpt><trkpt lat="41.277363899870075" lon="19.515255594288067"><ele>2.0</ele><time>2026-04-27T07:35:22Z</time></trkpt><trkpt lat="41.277258166933485" lon="19.515304720114553"><ele>2.0</ele><time>2026-04-27T07:35:23Z</time></trkpt><trkpt lat="41.27715801481083" lon="19.51534591807427"><ele>2.0</ele><time>2026-04-27T07:35:24Z</time></trkpt><trkpt lat="41.27706213449261" lon="19.515409750458414"><ele>2.0</ele><time>2026-04-27T07:35:25Z</time></trkpt><trkpt lat="41.276964030798645" lon="19.51547916033143"><ele>2.0</ele><time>2026-04-27T07:35:26Z</time></trkpt><trkpt lat="41.27685804741162" lon="19.51555536298638"><ele>2.0</ele><time>2026-04-27T07:35:27Z</time></trkpt><trkpt lat="41.27674868839691" lon="19.515633457840252"><ele>2.0</ele><time>2026-04-27T07:35:28Z</time></trkpt><trkpt lat="41.27662907011459" lon="19.515709160028372"><ele>2.0</ele><time>2026-04-27T07:35:29Z</time></trkpt><trkpt lat="41.27649942145653" lon="19.515786266278194"><ele>2.0</ele><time>2026-04-27T07:35:30Z</time></trkpt><trkpt lat="41.27636260223207" lon="19.51586998529425"><ele>2.0</ele><time>2026-04-27T07:35:31Z</time></trkpt><trkpt lat="41.276221548286564" lon="19.51595691930436"><ele>1.6666666666666665</ele><time>2026-04-27T07:35:32Z</time></trkpt><trkpt lat="41.27607647388173" lon="19.51604419624979"><ele>1.3333333333333333</ele><time>2026-04-27T07:35:33Z</time></trkpt><trkpt lat="41.27592608164789" lon="19.516131352810532"><ele>1.0</ele><time>2026-04-27T07:35:34Z</time></trkpt><trkpt lat="41.2757800823757" lon="19.516209447308338"><ele>1.6666666666666665</ele><time>2026-04-27T07:35:35Z</time></trkpt><trkpt lat="41.27564244383089" lon="19.516279667824904"><ele>2.3333333333333335</ele><time>2026-04-27T07:35:36Z</time></trkpt><trkpt lat="41.27550014305954" lon="19.51634957003891"><ele>3.0</ele><time>2026-04-27T07:35:37Z</time></trkpt><trkpt lat="41.275350831437684" lon="19.51641581876365"><ele>3.333333333333333</ele><time>2026-04-27T07:35:38Z</time></trkpt><trkpt lat="41.27519576795913" lon="19.516475866196988"><ele>3.6666666666666665</ele><time>2026-04-27T07:35:39Z</time></trkpt><trkpt lat="41.27503555929129" lon="19.51653128927017"><ele>4.0</ele><time>2026-04-27T07:35:40Z</time></trkpt><trkpt lat="41.27486960220614" lon="19.51658560409408"><ele>3.333333333333333</ele><time>2026-04-27T07:35:41Z</time></trkpt><trkpt lat="41.274706324387594" lon="19.516634112136327"><ele>2.6666666666666665</ele><time>2026-04-27T07:35:42Z</time></trkpt><trkpt lat="41.274536140849555" lon="19.516658367323124"><ele>2.0</ele><time>2026-04-27T07:35:43Z</time></trkpt><trkpt lat="41.27436769783319" lon="19.516692953846167"><ele>2.0</ele><time>2026-04-27T07:35:44Z</time></trkpt><trkpt lat="41.27419350889141" lon="19.516743941358428"><ele>2.0</ele><time>2026-04-27T07:35:45Z</time></trkpt><trkpt lat="41.27402265723479" lon="19.516795457807106"><ele>2.0</ele><time>2026-04-27T07:35:46Z</time></trkpt><trkpt lat="41.273865965258665" lon="19.516842704720062"><ele>1.75</ele><time>2026-04-27T07:35:47Z</time></trkpt><trkpt lat="41.27372318017535" lon="19.51688575827281"><ele>1.5</ele><time>2026-04-27T07:35:48Z</time></trkpt><trkpt lat="41.27358211739506" lon="19.51692873065203"><ele>1.25</ele><time>2026-04-27T07:35:49Z</time></trkpt><trkpt lat="41.273437166153485" lon="19.51697367919956"><ele>1.0</ele><time>2026-04-27T07:35:50Z</time></trkpt><trkpt lat="41.27328931413267" lon="19.51701946123258"><ele>1.0</ele><time>2026-04-27T07:35:51Z</time></trkpt><trkpt lat="41.27313981943213" lon="19.517064951828125"><ele>1.0</ele><time>2026-04-27T07:35:52Z</time></trkpt><trkpt lat="41.27298991996819" lon="19.517119909259875"><ele>1.0</ele><time>2026-04-27T07:35:53Z</time></trkpt><trkpt lat="41.27284115039646" lon="19.517178527389337"><ele>1.25</ele><time>2026-04-27T07:35:54Z</time></trkpt><trkpt lat="41.27268951950261" lon="19.517251738579372"><ele>1.5</ele><time>2026-04-27T07:35:55Z</time></trkpt><trkpt lat="41.272552975616094" lon="19.517316852514604"><ele>1.75</ele><time>2026-04-27T07:35:56Z</time></trkpt><trkpt lat="41.27242355685574" lon="19.517379561468758"><ele>2.0</ele><time>2026-04-27T07:35:57Z</time></trkpt><trkpt lat="41.272292246179994" lon="19.51745338293415"><ele>2.0</ele><time>2026-04-27T07:35:58Z</time></trkpt><trkpt lat="41.2721583283751" lon="19.517538029657153"><ele>2.0</ele><time>2026-04-27T07:35:59Z</time></trkpt><trkpt lat="41.27201950190555" lon="19.51762616819947"><ele>2.0</ele><time>2026-04-27T07:36:00Z</time></trkpt><trkpt lat="41.27187951321689" lon="19.51772427874837"><ele>2.0</ele><time>2026-04-27T07:36:01Z</time></trkpt><trkpt lat="41.271735185359425" lon="19.5178283644157"><ele>2.0</ele><time>2026-04-27T07:36:02Z</time></trkpt><trkpt lat="41.27160004933495" lon="19.51796295858149"><ele>2.0</ele><time>2026-04-27T07:36:02.999Z</time></trkpt><trkpt lat="41.2714591272454" lon="19.5180722830978"><ele>2.6666666666666665</ele><time>2026-04-27T07:36:03.999Z</time></trkpt><trkpt lat="41.271332363254274" lon="19.518181673369437"><ele>3.333333333333333</ele><time>2026-04-27T07:36:04.999Z</time></trkpt><trkpt lat="41.271206762021166" lon="19.51829330667409"><ele>4.0</ele><time>2026-04-27T07:36:05.999Z</time></trkpt><trkpt lat="41.27107903766638" lon="19.51840790267996"><ele>4.0</ele><time>2026-04-27T07:36:06.999Z</time></trkpt><trkpt lat="41.27095360244185" lon="19.518527276950955"><ele>4.0</ele><time>2026-04-27T07:36:07.999Z</time></trkpt><trkpt lat="41.270821943693015" lon="19.51864412258107"><ele>4.0</ele><time>2026-04-27T07:36:08.999Z</time></trkpt><trkpt lat="41.27069007313277" lon="19.51876304316827"><ele>4.25</ele><time>2026-04-27T07:36:09.999Z</time></trkpt><trkpt lat="41.270558847617906" lon="19.518854305391702"><ele>4.5</ele><time>2026-04-27T07:36:10.999Z</time></trkpt><trkpt lat="41.270443282361704" lon="19.518957902107395"><ele>4.75</ele><time>2026-04-27T07:36:11.999Z</time></trkpt><trkpt lat="41.27032653586193" lon="19.519062291401294"><ele>5.0</ele><time>2026-04-27T07:36:12.999Z</time></trkpt><trkpt lat="41.27021120665582" lon="19.519165389822422"><ele>5.0</ele><time>2026-04-27T07:36:13.999Z</time></trkpt><trkpt lat="41.270102265107006" lon="19.519262777813665"><ele>5.0</ele><time>2026-04-27T07:36:14.999Z</time></trkpt><trkpt lat="41.26999708585904" lon="19.51935680178221"><ele>5.0</ele><time>2026-04-27T07:36:15.999Z</time></trkpt><trkpt lat="41.269897854751015" lon="19.519444328683026"><ele>5.0</ele><time>2026-04-27T07:36:16.999Z</time></trkpt><trkpt lat="41.26981195037952" lon="19.51952024920556"><ele>4.6</ele><time>2026-04-27T07:36:17.999Z</time></trkpt><trkpt lat="41.2697318163393" lon="19.519591059829768"><ele>4.2</ele><time>2026-04-27T07:36:18.999Z</time></trkpt><trkpt lat="41.26965529929511" lon="19.51965855430102"><ele>3.8</ele><time>2026-04-27T07:36:19.999Z</time></trkpt><trkpt lat="41.26957926835276" lon="19.519725620157946"><ele>3.4</ele><time>2026-04-27T07:36:20.999Z</time></trkpt><trkpt lat="41.26948235000355" lon="19.519819595214216"><ele>3.0</ele><time>2026-04-27T07:36:21.999Z</time></trkpt><trkpt lat="41.269406323356534" lon="19.519884989969928"><ele>3.0</ele><time>2026-04-27T07:36:22.999Z</time></trkpt><trkpt lat="41.26934120647731" lon="19.519933765444055"><ele>3.0</ele><time>2026-04-27T07:36:23.999Z</time></trkpt><trkpt lat="41.269241493797715" lon="19.520012700819496"><ele>3.0</ele><time>2026-04-27T07:36:25.999Z</time></trkpt><trkpt lat="41.26918495258493" lon="19.520066319070132"><ele>3.0</ele><time>2026-04-27T07:36:26.999Z</time></trkpt><trkpt lat="41.26910287333073" lon="19.520109658553295"><ele>3.0</ele><time>2026-04-27T07:36:27.999Z</time></trkpt><trkpt lat="41.269004900485484" lon="19.520170174208502"><ele>3.0</ele><time>2026-04-27T07:36:28.999Z</time></trkpt><trkpt lat="41.26886439948883" lon="19.520254653206294"><ele>3.0</ele><time>2026-04-27T07:36:29.999Z</time></trkpt><trkpt lat="41.26867660473505" lon="19.52036756856374"><ele>3.0</ele><time>2026-04-27T07:36:30.999Z</time></trkpt><trkpt lat="41.26847981532523" lon="19.520481448566493"><ele>3.0</ele><time>2026-04-27T07:36:31.999Z</time></trkpt><trkpt lat="41.26832156758948" lon="19.520570096146592"><ele>3.0</ele><time>2026-04-27T07:36:32.999Z</time></trkpt><trkpt lat="41.268174663286686" lon="19.520665576921058"><ele>3.0</ele><time>2026-04-27T07:36:33.999Z</time></trkpt><trkpt lat="41.26804432499249" lon="19.520740876979666"><ele>2.8</ele><time>2026-04-27T07:36:34.999Z</time></trkpt><trkpt lat="41.2679329215683" lon="19.520806661223343"><ele>2.5999999999999996</ele><time>2026-04-27T07:36:35.999Z</time></trkpt><trkpt lat="41.26783716893924" lon="19.520893400518364"><ele>2.4000000000000004</ele><time>2026-04-27T07:36:36.999Z</time></trkpt><trkpt lat="41.26776236807501" lon="19.520972648130176"><ele>2.2</ele><time>2026-04-27T07:36:37.999Z</time></trkpt><trkpt lat="41.26770397066829" lon="19.521084274000163"><ele>2.0</ele><time>2026-04-27T07:36:38.999Z</time></trkpt><trkpt lat="41.26762901499069" lon="19.521242465657675"><ele>2.0</ele><time>2026-04-27T07:36:39.999Z</time></trkpt><trkpt lat="41.26753188595278" lon="19.521373798437622"><ele>2.0</ele><time>2026-04-27T07:36:40.999Z</time></trkpt><trkpt lat="41.26740709194895" lon="19.521467360817844"><ele>2.0</ele><time>2026-04-27T07:36:41.999Z</time></trkpt><trkpt lat="41.26731356023819" lon="19.52155229202995"><ele>2.0</ele><time>2026-04-27T07:36:42.999Z</time></trkpt><trkpt lat="41.26722261710024" lon="19.521634874502855"><ele>1.5</ele><time>2026-04-27T07:36:43.999Z</time></trkpt><trkpt lat="41.26714923067351" lon="19.521723478209353"><ele>1.0</ele><time>2026-04-27T07:36:44.999Z</time></trkpt><trkpt lat="41.26706235533714" lon="19.52179686102638"><ele>0.5</ele><time>2026-04-27T07:36:45.999Z</time></trkpt><trkpt lat="41.26695324110911" lon="19.521900905134416"><ele>0.0</ele><time>2026-04-27T07:36:46.999Z</time></trkpt><trkpt lat="41.266813104897416" lon="19.522015585628246"><ele>0.0</ele><time>2026-04-27T07:36:47.999Z</time></trkpt><trkpt lat="41.26665411256829" lon="19.522125094587523"><ele>0.0</ele><time>2026-04-27T07:36:48.999Z</time></trkpt><trkpt lat="41.266485489311584" lon="19.522245518439693"><ele>0.0</ele><time>2026-04-27T07:36:49.999Z</time></trkpt><trkpt lat="41.26632360293114" lon="19.522374080282674"><ele>0.0</ele><time>2026-04-27T07:36:50.999Z</time></trkpt><trkpt lat="41.26618455034809" lon="19.52249572495068"><ele>0.0</ele><time>2026-04-27T07:36:51.999Z</time></trkpt><trkpt lat="41.26604945644033" lon="19.522585942627348"><ele>0.0</ele><time>2026-04-27T07:36:52.999Z</time></trkpt><trkpt lat="41.265940314282105" lon="19.522703367780473"><ele>0.0</ele><time>2026-04-27T07:36:53.999Z</time></trkpt><trkpt lat="41.265834290219615" lon="19.52279252761301"><ele>0.0</ele><time>2026-04-27T07:36:54.999Z</time></trkpt><trkpt lat="41.26572847301048" lon="19.522848418315686"><ele>0.0</ele><time>2026-04-27T07:36:55.999Z</time></trkpt><trkpt lat="41.26563513205562" lon="19.5229168598819"><ele>0.0</ele><time>2026-04-27T07:36:56.999Z</time></trkpt><trkpt lat="41.26554191565791" lon="19.52298521023968"><ele>0.4</ele><time>2026-04-27T07:36:57.999Z</time></trkpt><trkpt lat="41.26544675894105" lon="19.523054983264142"><ele>0.8</ele><time>2026-04-27T07:36:58.999Z</time></trkpt><trkpt lat="41.26536035202305" lon="19.52313485445502"><ele>1.2000000000000002</ele><time>2026-04-27T07:36:59.999Z</time></trkpt><trkpt lat="41.26525712186506" lon="19.52318308285655"><ele>1.6</ele><time>2026-04-27T07:37:00.999Z</time></trkpt><trkpt lat="41.26513899527545" lon="19.523219946474224"><ele>2.0</ele><time>2026-04-27T07:37:01.999Z</time></trkpt><trkpt lat="41.265001744929904" lon="19.523249560907352"><ele>2.0</ele><time>2026-04-27T07:37:02.999Z</time></trkpt><trkpt lat="41.264888985449026" lon="19.523313652659457"><ele>2.0</ele><time>2026-04-27T07:37:03.999Z</time></trkpt><trkpt lat="41.2647932145323" lon="19.52337093587245"><ele>2.0</ele><time>2026-04-27T07:37:04.999Z</time></trkpt><trkpt lat="41.26472473665827" lon="19.523458143138203"><ele>2.0</ele><time>2026-04-27T07:37:05.999Z</time></trkpt><trkpt lat="41.26465717384283" lon="19.52351267107153"><ele>2.0</ele><time>2026-04-27T07:37:06.999Z</time></trkpt><trkpt lat="41.26459779801589" lon="19.523574842337048"><ele>2.1666666666666665</ele><time>2026-04-27T07:37:07.999Z</time></trkpt><trkpt lat="41.26453584894927" lon="19.523636704424444"><ele>2.333333333333333</ele><time>2026-04-27T07:37:08.999Z</time></trkpt><trkpt lat="41.26446790707806" lon="19.523700814607423"><ele>2.5</ele><time>2026-04-27T07:37:09.999Z</time></trkpt><trkpt lat="41.26439759755186" lon="19.523767371473834"><ele>2.6666666666666665</ele><time>2026-04-27T07:37:10.999Z</time></trkpt><trkpt lat="41.2643330253957" lon="19.523825452443123"><ele>2.8333333333333335</ele><time>2026-04-27T07:37:11.999Z</time></trkpt><trkpt lat="41.26426648253016" lon="19.523880764885376"><ele>3.0</ele><time>2026-04-27T07:37:12.999Z</time></trkpt><trkpt lat="41.2641942265977" lon="19.52393632316698"><ele>3.0</ele><time>2026-04-27T07:37:13.999Z</time></trkpt><trkpt lat="41.26411018937472" lon="19.52399103399561"><ele>3.0</ele><time>2026-04-27T07:37:14.999Z</time></trkpt><trkpt lat="41.2640169174206" lon="19.52401065111341"><ele>3.0</ele><time>2026-04-27T07:37:15.999Z</time></trkpt><trkpt lat="41.26392454365023" lon="19.524046296782593"><ele>3.0</ele><time>2026-04-27T07:37:16.999Z</time></trkpt><trkpt lat="41.26382937511953" lon="19.52408302084389"><ele>3.0</ele><time>2026-04-27T07:37:17.999Z</time></trkpt><trkpt lat="41.26372797182801" lon="19.52412215089477"><ele>3.0</ele><time>2026-04-27T07:37:18.999Z</time></trkpt><trkpt lat="41.26361435990617" lon="19.52416599199855"><ele>3.0</ele><time>2026-04-27T07:37:19.999Z</time></trkpt><trkpt lat="41.26347142361472" lon="19.524221148920734"><ele>3.0</ele><time>2026-04-27T07:37:20.999Z</time></trkpt><trkpt lat="41.26329887535219" lon="19.52428157700192"><ele>3.0</ele><time>2026-04-27T07:37:21.999Z</time></trkpt><trkpt lat="41.263120373224965" lon="19.52434391497366"><ele>4.0</ele><time>2026-04-27T07:37:22.999Z</time></trkpt><trkpt lat="41.26293530880853" lon="19.52440562439091"><ele>5.0</ele><time>2026-04-27T07:37:23.999Z</time></trkpt><trkpt lat="41.26274273634863" lon="19.5244700107582"><ele>6.0</ele><time>2026-04-27T07:37:24.999Z</time></trkpt><trkpt lat="41.26254916032859" lon="19.524556938055895"><ele>5.666666666666667</ele><time>2026-04-27T07:37:25.999Z</time></trkpt><trkpt lat="41.26234933841699" lon="19.524612955623596"><ele>5.333333333333334</ele><time>2026-04-27T07:37:26.999Z</time></trkpt><trkpt lat="41.262147497034604" lon="19.52467427391354"><ele>5.0</ele><time>2026-04-27T07:37:27.999Z</time></trkpt><trkpt lat="41.261940432298864" lon="19.524737651603488"><ele>3.666666666666667</ele><time>2026-04-27T07:37:28.999Z</time></trkpt><trkpt lat="41.261732711915485" lon="19.52480231242988"><ele>2.3333333333333335</ele><time>2026-04-27T07:37:29.999Z</time></trkpt><trkpt lat="41.2615189315717" lon="19.52486763611009"><ele>1.0</ele><time>2026-04-27T07:37:30.999Z</time></trkpt><trkpt lat="41.2613043394333" lon="19.524933341385402"><ele>1.0</ele><time>2026-04-27T07:37:31.999Z</time></trkpt><trkpt lat="41.26110263028441" lon="19.524995012488738"><ele>1.0</ele><time>2026-04-27T07:37:32.999Z</time></trkpt><trkpt lat="41.26091629478958" lon="19.525053203931414"><ele>1.0</ele><time>2026-04-27T07:37:33.999Z</time></trkpt><trkpt lat="41.260741752620206" lon="19.52510942926496"><ele>0.6666666666666666</ele><time>2026-04-27T07:37:34.999Z</time></trkpt><trkpt lat="41.2605656814138" lon="19.52516254164556"><ele>0.3333333333333333</ele><time>2026-04-27T07:37:35.999Z</time></trkpt><trkpt lat="41.26039588486776" lon="19.525215552096494"><ele>0.0</ele><time>2026-04-27T07:37:36.999Z</time></trkpt><trkpt lat="41.26022482759074" lon="19.52526917500825"><ele>0.0</ele><time>2026-04-27T07:37:37.999Z</time></trkpt><trkpt lat="41.260050221154565" lon="19.52532404795784"><ele>0.0</ele><time>2026-04-27T07:37:38.999Z</time></trkpt><trkpt lat="41.25987503725474" lon="19.525378514335436"><ele>0.0</ele><time>2026-04-27T07:37:39.999Z</time></trkpt><trkpt lat="41.2597117996091" lon="19.525428088025972"><ele>0.6666666666666666</ele><time>2026-04-27T07:37:40.999Z</time></trkpt><trkpt lat="41.259554008556265" lon="19.525475266703864"><ele>1.3333333333333333</ele><time>2026-04-27T07:37:41.999Z</time></trkpt><trkpt lat="41.25940574009981" lon="19.52552256694766"><ele>2.0</ele><time>2026-04-27T07:37:42.999Z</time></trkpt><trkpt lat="41.25926978027792" lon="19.525569959118016"><ele>2.0</ele><time>2026-04-27T07:37:43.999Z</time></trkpt><trkpt lat="41.259140156423065" lon="19.5255879225654"><ele>2.0</ele><time>2026-04-27T07:37:44.999Z</time></trkpt><trkpt lat="41.25901478152141" lon="19.525626301720973"><ele>2.0</ele><time>2026-04-27T07:37:45.999Z</time></trkpt><trkpt lat="41.25888189164207" lon="19.52566698270774"><ele>2.0</ele><time>2026-04-27T07:37:46.999Z</time></trkpt><trkpt lat="41.25874126865561" lon="19.525711163544187"><ele>2.0</ele><time>2026-04-27T07:37:48Z</time></trkpt><trkpt lat="41.25858884787989" lon="19.525758406936514"><ele>2.0</ele><time>2026-04-27T07:37:49Z</time></trkpt><trkpt lat="41.258421219651645" lon="19.525809882929092"><ele>2.0</ele><time>2026-04-27T07:37:50Z</time></trkpt><trkpt lat="41.25823967910786" lon="19.525865631773343"><ele>1.6666666666666665</ele><time>2026-04-27T07:37:51Z</time></trkpt><trkpt lat="41.25804941447062" lon="19.52592168281978"><ele>1.3333333333333333</ele><time>2026-04-27T07:37:52Z</time></trkpt><trkpt lat="41.25786648714366" lon="19.525995773430466"><ele>1.0</ele><time>2026-04-27T07:37:53Z</time></trkpt><trkpt lat="41.2576904399669" lon="19.526040969724377"><ele>1.0</ele><time>2026-04-27T07:37:54Z</time></trkpt><trkpt lat="41.25751860394707" lon="19.52608545855846"><ele>1.0</ele><time>2026-04-27T07:37:55Z</time></trkpt><trkpt lat="41.257343094711686" lon="19.52612757881148"><ele>1.0</ele><time>2026-04-27T07:37:56Z</time></trkpt><trkpt lat="41.25716328332459" lon="19.526163669855777"><ele>1.3333333333333333</ele><time>2026-04-27T07:37:57Z</time></trkpt><trkpt lat="41.25698912524875" lon="19.526193117507557"><ele>1.6666666666666665</ele><time>2026-04-27T07:37:58Z</time></trkpt><trkpt lat="41.256821543122875" lon="19.526215363361963"><ele>2.0</ele><time>2026-04-27T07:37:59Z</time></trkpt><trkpt lat="41.25664708548508" lon="19.526228367506206"><ele>2.333333333333333</ele><time>2026-04-27T07:38:00Z</time></trkpt><trkpt lat="41.256469654386294" lon="19.526245103870544"><ele>2.6666666666666665</ele><time>2026-04-27T07:38:01Z</time></trkpt><trkpt lat="41.25629166555035" lon="19.526276015114327"><ele>3.0</ele><time>2026-04-27T07:38:02Z</time></trkpt><trkpt lat="41.25611003405237" lon="19.526308058310622"><ele>3.0</ele><time>2026-04-27T07:38:03Z</time></trkpt><trkpt lat="41.25592280453065" lon="19.52631865885403"><ele>3.0</ele><time>2026-04-27T07:38:04Z</time></trkpt><trkpt lat="41.25572486120583" lon="19.52631469106883"><ele>3.0</ele><time>2026-04-27T07:38:05Z</time></trkpt><trkpt lat="41.255517795090356" lon="19.52630893457142"><ele>2.6666666666666665</ele><time>2026-04-27T07:38:06Z</time></trkpt><trkpt lat="41.25530420536849" lon="19.526300151690492"><ele>2.333333333333333</ele><time>2026-04-27T07:38:07Z</time></trkpt><trkpt lat="41.25508188201094" lon="19.5262850330068"><ele>2.0</ele><time>2026-04-27T07:38:08Z</time></trkpt><trkpt lat="41.25485502365377" lon="19.52626114171823"><ele>2.333333333333333</ele><time>2026-04-27T07:38:09Z</time></trkpt><trkpt lat="41.25464073521675" lon="19.526235023322066"><ele>2.6666666666666665</ele><time>2026-04-27T07:38:10Z</time></trkpt><trkpt lat="41.25443617989816" lon="19.526207594355444"><ele>3.0</ele><time>2026-04-27T07:38:11Z</time></trkpt><trkpt lat="41.25423182906681" lon="19.526180564167372"><ele>2.3333333333333335</ele><time>2026-04-27T07:38:12Z</time></trkpt><trkpt lat="41.25402760404214" lon="19.526156116166447"><ele>1.6666666666666665</ele><time>2026-04-27T07:38:13Z</time></trkpt><trkpt lat="41.253826882765345" lon="19.526135179372936"><ele>1.0</ele><time>2026-04-27T07:38:14Z</time></trkpt><trkpt lat="41.25362797543113" lon="19.52611728140232"><ele>0.6666666666666666</ele><time>2026-04-27T07:38:15Z</time></trkpt><trkpt lat="41.25344542789329" lon="19.526098043549304"><ele>0.3333333333333333</ele><time>2026-04-27T07:38:16Z</time></trkpt><trkpt lat="41.253265647783024" lon="19.526078722390963"><ele>0.0</ele><time>2026-04-27T07:38:17Z</time></trkpt><trkpt lat="41.25308058749542" lon="19.52605626895701"><ele>1.0</ele><time>2026-04-27T07:38:18Z</time></trkpt><trkpt lat="41.25289340667272" lon="19.526031560948468"><ele>2.0</ele><time>2026-04-27T07:38:19Z</time></trkpt><trkpt lat="41.25270576711519" lon="19.526012401855652"><ele>3.0</ele><time>2026-04-27T07:38:20Z</time></trkpt><trkpt lat="41.252514908353184" lon="19.52599492518517"><ele>3.0</ele><time>2026-04-27T07:38:21Z</time></trkpt><trkpt lat="41.25232239086335" lon="19.5259760458455"><ele>3.0</ele><time>2026-04-27T07:38:22Z</time></trkpt><trkpt lat="41.25214343409112" lon="19.52595490516059"><ele>3.0</ele><time>2026-04-27T07:38:23Z</time></trkpt><trkpt lat="41.25197554239143" lon="19.525935088113854"><ele>2.3333333333333335</ele><time>2026-04-27T07:38:24Z</time></trkpt><trkpt lat="41.25180627905132" lon="19.525912952778146"><ele>1.6666666666666665</ele><time>2026-04-27T07:38:25Z</time></trkpt><trkpt lat="41.25162927686233" lon="19.525891620111846"><ele>1.0</ele><time>2026-04-27T07:38:26Z</time></trkpt><trkpt lat="41.251450441691766" lon="19.525869661041884"><ele>1.0</ele><time>2026-04-27T07:38:27Z</time></trkpt><trkpt lat="41.251273546831115" lon="19.525849301943648"><ele>1.0</ele><time>2026-04-27T07:38:28Z</time></trkpt><trkpt lat="41.25110672195066" lon="19.525832108063234"><ele>1.0</ele><time>2026-04-27T07:38:29Z</time></trkpt><trkpt lat="41.25093928326523" lon="19.525816126407584"><ele>1.0</ele><time>2026-04-27T07:38:30Z</time></trkpt><trkpt lat="41.250770502690905" lon="19.525797902190803"><ele>1.0</ele><time>2026-04-27T07:38:31Z</time></trkpt><trkpt lat="41.25060134965307" lon="19.525773014877693"><ele>1.0</ele><time>2026-04-27T07:38:32Z</time></trkpt><trkpt lat="41.25043442311779" lon="19.525745757371546"><ele>1.3333333333333333</ele><time>2026-04-27T07:38:33Z</time></trkpt><trkpt lat="41.25025426048956" lon="19.52573079763877"><ele>1.6666666666666665</ele><time>2026-04-27T07:38:34Z</time></trkpt><trkpt lat="41.25007573597658" lon="19.525714727017363"><ele>2.0</ele><time>2026-04-27T07:38:35Z</time></trkpt><trkpt lat="41.24989632071944" lon="19.525694213120154"><ele>2.0</ele><time>2026-04-27T07:38:36Z</time></trkpt><trkpt lat="41.24972073808337" lon="19.52567020810452"><ele>2.0</ele><time>2026-04-27T07:38:37Z</time></trkpt><trkpt lat="41.2495587984853" lon="19.525652701252337"><ele>2.0</ele><time>2026-04-27T07:38:38Z</time></trkpt><trkpt lat="41.24940578700462" lon="19.525636573658897"><ele>2.0</ele><time>2026-04-27T07:38:39Z</time></trkpt><trkpt lat="41.249260827590774" lon="19.5256185399922"><ele>2.0</ele><time>2026-04-27T07:38:40Z</time></trkpt><trkpt lat="41.24910923387397" lon="19.525601330536677"><ele>2.0</ele><time>2026-04-27T07:38:41Z</time></trkpt><trkpt lat="41.24895158006178" lon="19.52557979286694"><ele>1.5</ele><time>2026-04-27T07:38:42Z</time></trkpt><trkpt lat="41.248796280730076" lon="19.525560174130035"><ele>1.0</ele><time>2026-04-27T07:38:43Z</time></trkpt><trkpt lat="41.2486503993231" lon="19.52553929162229"><ele>0.5</ele><time>2026-04-27T07:38:44Z</time></trkpt><trkpt lat="41.248510554616466" lon="19.52552535038068"><ele>0.0</ele><time>2026-04-27T07:38:45Z</time></trkpt><trkpt lat="41.24837368412355" lon="19.5255138018018"><ele>0.0</ele><time>2026-04-27T07:38:46Z</time></trkpt><trkpt lat="41.2482411359876" lon="19.525500273653954"><ele>0.0</ele><time>2026-04-27T07:38:47Z</time></trkpt><trkpt lat="41.248119146929724" lon="19.525486333109853"><ele>0.0</ele><time>2026-04-27T07:38:48Z</time></trkpt><trkpt lat="41.248004655144605" lon="19.525466901025542"><ele>0.0</ele><time>2026-04-27T07:38:49Z</time></trkpt><trkpt lat="41.247901982059865" lon="19.52543509461939"><ele>0.2857142857142857</ele><time>2026-04-27T07:38:50Z</time></trkpt><trkpt lat="41.24782160102804" lon="19.525387949777258"><ele>0.5714285714285714</ele><time>2026-04-27T07:38:51Z</time></trkpt><trkpt lat="41.24776563279563" lon="19.525333755170806"><ele>0.8571428571428571</ele><time>2026-04-27T07:38:52Z</time></trkpt><trkpt lat="41.24773952151899" lon="19.525252224587575"><ele>1.1428571428571428</ele><time>2026-04-27T07:38:53Z</time></trkpt><trkpt lat="41.24768544530191" lon="19.52520233899492"><ele>1.4285714285714284</ele><time>2026-04-27T07:38:54Z</time></trkpt><trkpt lat="41.24762687373646" lon="19.525105298792408"><ele>1.7142857142857142</ele><time>2026-04-27T07:38:56Z</time></trkpt><trkpt lat="41.24759280469636" lon="19.52503485859975"><ele>2.0</ele><time>2026-04-27T07:38:58Z</time></trkpt><trkpt lat="41.24754102321786" lon="19.5249166057655"><ele>1.9999999999999998</ele><time>2026-04-27T07:39:00Z</time></trkpt><trkpt lat="41.247491161080404" lon="19.524861896884374"><ele>2.0</ele><time>2026-04-27T07:39:01Z</time></trkpt><trkpt lat="41.24735492111253" lon="19.52485120168927"><ele>2.0</ele><time>2026-04-27T07:39:03Z</time></trkpt><trkpt lat="41.247289463191656" lon="19.524904890241512"><ele>2.0</ele><time>2026-04-27T07:39:04Z</time></trkpt><trkpt lat="41.24723884078965" lon="19.524989554836985"><ele>1.9999999999999998</ele><time>2026-04-27T07:39:05Z</time></trkpt><trkpt lat="41.2471955978682" lon="19.52508384400753"><ele>2.0</ele><time>2026-04-27T07:39:06Z</time></trkpt><trkpt lat="41.247151402757886" lon="19.525145848656386"><ele>1.8333333333333333</ele><time>2026-04-27T07:39:07Z</time></trkpt><trkpt lat="41.24706246619668" lon="19.525209365169488"><ele>1.6666666666666665</ele><time>2026-04-27T07:39:09Z</time></trkpt><trkpt lat="41.24696106982498" lon="19.52529115759328"><ele>1.5</ele><time>2026-04-27T07:39:11Z</time></trkpt><trkpt lat="41.246901419408054" lon="19.525322094862684"><ele>1.3333333333333333</ele><time>2026-04-27T07:39:12Z</time></trkpt><trkpt lat="41.24683451502023" lon="19.525308466404475"><ele>1.1666666666666665</ele><time>2026-04-27T07:39:13Z</time></trkpt><trkpt lat="41.246763189456736" lon="19.525297936071453"><ele>1.0</ele><time>2026-04-27T07:39:14Z</time></trkpt><trkpt lat="41.24668085698899" lon="19.525291432495468"><ele>1.0</ele><time>2026-04-27T07:39:15Z</time></trkpt><trkpt lat="41.24658476207757" lon="19.525279236281477"><ele>1.0</ele><time>2026-04-27T07:39:16Z</time></trkpt><trkpt lat="41.24647155807506" lon="19.525264917720254"><ele>1.0</ele><time>2026-04-27T07:39:17Z</time></trkpt><trkpt lat="41.246353050862524" lon="19.525249954270326"><ele>1.0</ele><time>2026-04-27T07:39:18Z</time></trkpt><trkpt lat="41.246234609832456" lon="19.525234989533843"><ele>1.0</ele><time>2026-04-27T07:39:19Z</time></trkpt><trkpt lat="41.2461278898263" lon="19.52522148584647"><ele>0.8</ele><time>2026-04-27T07:39:19.999Z</time></trkpt><trkpt lat="41.24602571988129" lon="19.52520885277859"><ele>0.6000000000000001</ele><time>2026-04-27T07:39:20.999Z</time></trkpt><trkpt lat="41.245927434236066" lon="19.525215354395424"><ele>0.4</ele><time>2026-04-27T07:39:21.999Z</time></trkpt><trkpt lat="41.24583880391656" lon="19.525207612371016"><ele>0.2</ele><time>2026-04-27T07:39:22.999Z</time></trkpt><trkpt lat="41.24575437985826" lon="19.52517509544572"><ele>0.0</ele><time>2026-04-27T07:39:23.999Z</time></trkpt><trkpt lat="41.24566323618228" lon="19.52516375629019"><ele>-0.2</ele><time>2026-04-27T07:39:24.999Z</time></trkpt><trkpt lat="41.24556122804821" lon="19.525151065491695"><ele>-0.4</ele><time>2026-04-27T07:39:25.999Z</time></trkpt><trkpt lat="41.24545339039824" lon="19.525137331112678"><ele>-0.6000000000000001</ele><time>2026-04-27T07:39:26.999Z</time></trkpt><trkpt lat="41.24534405530483" lon="19.52512337028121"><ele>-0.8</ele><time>2026-04-27T07:39:27.999Z</time></trkpt><trkpt lat="41.245228876750716" lon="19.525128472207452"><ele>-1.0</ele><time>2026-04-27T07:39:28.999Z</time></trkpt><trkpt lat="41.24511969606252" lon="19.525110131538067"><ele>-1.0</ele><time>2026-04-27T07:39:29.999Z</time></trkpt><trkpt lat="41.24500822614528" lon="19.525091292665877"><ele>-1.0</ele><time>2026-04-27T07:39:30.999Z</time></trkpt><trkpt lat="41.244899437453654" lon="19.52507653324301"><ele>-1.0</ele><time>2026-04-27T07:39:31.999Z</time></trkpt><trkpt lat="41.24478830796209" lon="19.525062513130376"><ele>-1.0</ele><time>2026-04-27T07:39:32.999Z</time></trkpt><trkpt lat="41.24467414641389" lon="19.525050809262098"><ele>-1.0</ele><time>2026-04-27T07:39:33.999Z</time></trkpt><trkpt lat="41.2445563123522" lon="19.52503725167436"><ele>-1.0</ele><time>2026-04-27T07:39:34.999Z</time></trkpt><trkpt lat="41.244441443160326" lon="19.52502305018751"><ele>-1.0</ele><time>2026-04-27T07:39:35.999Z</time></trkpt><trkpt lat="41.24432450552885" lon="19.525009532400826"><ele>-1.0</ele><time>2026-04-27T07:39:36.999Z</time></trkpt><trkpt lat="41.244205079866916" lon="19.52499588861561"><ele>-1.0</ele><time>2026-04-27T07:39:37.999Z</time></trkpt><trkpt lat="41.244080540012426" lon="19.52497627669433"><ele>-0.75</ele><time>2026-04-27T07:39:38.999Z</time></trkpt><trkpt lat="41.24395075655322" lon="19.524950314994733"><ele>-0.5</ele><time>2026-04-27T07:39:39.999Z</time></trkpt><trkpt lat="41.24382265543989" lon="19.5249158598005"><ele>-0.25</ele><time>2026-04-27T07:39:40.999Z</time></trkpt><trkpt lat="41.24369141232223" lon="19.524932622664874"><ele>0.0</ele><time>2026-04-27T07:39:41.999Z</time></trkpt><trkpt lat="41.24355458666139" lon="19.524910935585513"><ele>0.0</ele><time>2026-04-27T07:39:42.999Z</time></trkpt><trkpt lat="41.24341650380477" lon="19.52489551228832"><ele>0.0</ele><time>2026-04-27T07:39:43.999Z</time></trkpt><trkpt lat="41.24329391706118" lon="19.52488068138777"><ele>0.0</ele><time>2026-04-27T07:39:44.999Z</time></trkpt><trkpt lat="41.24318512837128" lon="19.524872505872697"><ele>0.0</ele><time>2026-04-27T07:39:45.999Z</time></trkpt><trkpt lat="41.24307459612486" lon="19.524855402148276"><ele>0.25</ele><time>2026-04-27T07:39:46.999Z</time></trkpt><trkpt lat="41.242957624542754" lon="19.524839833465826"><ele>0.5</ele><time>2026-04-27T07:39:47.999Z</time></trkpt><trkpt lat="41.24283412878254" lon="19.524824557634815"><ele>0.75</ele><time>2026-04-27T07:39:48.999Z</time></trkpt><trkpt lat="41.24271129734557" lon="19.524804501749095"><ele>1.0</ele><time>2026-04-27T07:39:50Z</time></trkpt><trkpt lat="41.2425957160162" lon="19.524792895932624"><ele>1.0</ele><time>2026-04-27T07:39:51Z</time></trkpt><trkpt lat="41.242467928705814" lon="19.52477635894902"><ele>1.0</ele><time>2026-04-27T07:39:52Z</time></trkpt><trkpt lat="41.24233636909012" lon="19.524759469674628"><ele>1.0</ele><time>2026-04-27T07:39:53Z</time></trkpt><trkpt lat="41.24219802649445" lon="19.524744580112298"><ele>1.0</ele><time>2026-04-27T07:39:54Z</time></trkpt><trkpt lat="41.24205939615754" lon="19.524731128829007"><ele>0.6666666666666666</ele><time>2026-04-27T07:39:55Z</time></trkpt><trkpt lat="41.24191375018682" lon="19.524708124915023"><ele>0.3333333333333333</ele><time>2026-04-27T07:39:56Z</time></trkpt><trkpt lat="41.2417635205497" lon="19.52468647661422"><ele>0.0</ele><time>2026-04-27T07:39:57Z</time></trkpt><trkpt lat="41.241603999218945" lon="19.524670991820223"><ele>-0.3333333333333333</ele><time>2026-04-27T07:39:58Z</time></trkpt><trkpt lat="41.241439965067514" lon="19.524645245833803"><ele>-0.6666666666666666</ele><time>2026-04-27T07:39:59Z</time></trkpt><trkpt lat="41.24126889220235" lon="19.52462266973539"><ele>-1.0</ele><time>2026-04-27T07:40:00Z</time></trkpt><trkpt lat="41.2410927469553" lon="19.524597411755295"><ele>-1.0</ele><time>2026-04-27T07:40:01Z</time></trkpt><trkpt lat="41.24091527476129" lon="19.52458101077533"><ele>-1.0</ele><time>2026-04-27T07:40:02Z</time></trkpt><trkpt lat="41.24073849497642" lon="19.524559150282116"><ele>-1.0</ele><time>2026-04-27T07:40:03Z</time></trkpt><trkpt lat="41.24055049608317" lon="19.524533827259283"><ele>-1.3333333333333333</ele><time>2026-04-27T07:40:04Z</time></trkpt><trkpt lat="41.2403647617059" lon="19.52450840350036"><ele>-1.6666666666666665</ele><time>2026-04-27T07:40:05Z</time></trkpt><trkpt lat="41.24018841350486" lon="19.524464403257177"><ele>-2.0</ele><time>2026-04-27T07:40:06Z</time></trkpt><trkpt lat="41.24002661683835" lon="19.524442486980497"><ele>-2.0</ele><time>2026-04-27T07:40:07Z</time></trkpt><trkpt lat="41.239867007710366" lon="19.524422595691917"><ele>-2.0</ele><time>2026-04-27T07:40:08Z</time></trkpt><trkpt lat="41.23971004485697" lon="19.524403360256017"><ele>-2.0</ele><time>2026-04-27T07:40:09Z</time></trkpt><trkpt lat="41.23955832313893" lon="19.524385251979396"><ele>-1.6666666666666665</ele><time>2026-04-27T07:40:10Z</time></trkpt><trkpt lat="41.23940235372868" lon="19.524366382885646"><ele>-1.3333333333333333</ele><time>2026-04-27T07:40:11Z</time></trkpt><trkpt lat="41.23924518247045" lon="19.52434699779746"><ele>-1.0</ele><time>2026-04-27T07:40:12Z</time></trkpt><trkpt lat="41.2390966847071" lon="19.524328687931657"><ele>-0.5</ele><time>2026-04-27T07:40:13Z</time></trkpt><trkpt lat="41.23895621109297" lon="19.524312040961153"><ele>0.0</ele><time>2026-04-27T07:40:14Z</time></trkpt><trkpt lat="41.238813696073144" lon="19.52429515209604"><ele>0.5</ele><time>2026-04-27T07:40:15Z</time></trkpt><trkpt lat="41.23866836091953" lon="19.524277269823408"><ele>1.0</ele><time>2026-04-27T07:40:16Z</time></trkpt><trkpt lat="41.238517277342346" lon="19.524258523926974"><ele>1.0</ele><time>2026-04-27T07:40:17Z</time></trkpt><trkpt lat="41.2383632505226" lon="19.524239356750517"><ele>1.0</ele><time>2026-04-27T07:40:18Z</time></trkpt><trkpt lat="41.23820731764056" lon="19.524219788405738"><ele>1.0</ele><time>2026-04-27T07:40:19Z</time></trkpt><trkpt lat="41.23804677860736" lon="19.524199643640014"><ele>1.0</ele><time>2026-04-27T07:40:20Z</time></trkpt><trkpt lat="41.237872986296644" lon="19.52417743797909"><ele>1.0</ele><time>2026-04-27T07:40:21Z</time></trkpt><trkpt lat="41.237688597190605" lon="19.524154426906392"><ele>1.0</ele><time>2026-04-27T07:40:22Z</time></trkpt><trkpt lat="41.23750243837658" lon="19.524131292417717"><ele>1.0</ele><time>2026-04-27T07:40:23Z</time></trkpt><trkpt lat="41.23733132311517" lon="19.524109996577167"><ele>1.0</ele><time>2026-04-27T07:40:24Z</time></trkpt><trkpt lat="41.237174581759575" lon="19.5241107021648"><ele>1.0</ele><time>2026-04-27T07:40:25Z</time></trkpt><trkpt lat="41.23703421761491" lon="19.524090595751954"><ele>1.25</ele><time>2026-04-27T07:40:26Z</time></trkpt><trkpt lat="41.23689975545377" lon="19.524071152669023"><ele>1.5</ele><time>2026-04-27T07:40:27Z</time></trkpt><trkpt lat="41.236759564712926" lon="19.52405433422251"><ele>1.75</ele><time>2026-04-27T07:40:28Z</time></trkpt><trkpt lat="41.236625588572664" lon="19.524034139297115"><ele>2.0</ele><time>2026-04-27T07:40:29Z</time></trkpt><trkpt lat="41.236503674839334" lon="19.524015704383146"><ele>2.0</ele><time>2026-04-27T07:40:30Z</time></trkpt><trkpt lat="41.23638777756483" lon="19.52399942727326"><ele>2.0</ele><time>2026-04-27T07:40:31Z</time></trkpt><trkpt lat="41.23625847777076" lon="19.52398232984807"><ele>2.0</ele><time>2026-04-27T07:40:32Z</time></trkpt><trkpt lat="41.23611910358262" lon="19.52396745218153"><ele>2.0</ele><time>2026-04-27T07:40:33Z</time></trkpt><trkpt lat="41.23596953574101" lon="19.523956855688215"><ele>2.0</ele><time>2026-04-27T07:40:34Z</time></trkpt><trkpt lat="41.2358189732967" lon="19.523943744364466"><ele>2.0</ele><time>2026-04-27T07:40:35Z</time></trkpt><trkpt lat="41.23568898736668" lon="19.523929877424198"><ele>2.0</ele><time>2026-04-27T07:40:36Z</time></trkpt><trkpt lat="41.23557662507018" lon="19.52391307793837"><ele>2.0</ele><time>2026-04-27T07:40:37Z</time></trkpt><trkpt lat="41.23547079232073" lon="19.523898196340525"><ele>2.6</ele><time>2026-04-27T07:40:38Z</time></trkpt><trkpt lat="41.23536881805376" lon="19.523880482858733"><ele>3.2</ele><time>2026-04-27T07:40:39Z</time></trkpt><trkpt lat="41.23526836241619" lon="19.523866716586017"><ele>3.8</ele><time>2026-04-27T07:40:40Z</time></trkpt><trkpt lat="41.23516639984811" lon="19.52385374549038"><ele>4.4</ele><time>2026-04-27T07:40:41Z</time></trkpt><trkpt lat="41.23505986607106" lon="19.523839653731443"><ele>5.0</ele><time>2026-04-27T07:40:42Z</time></trkpt><trkpt lat="41.2349456417643" lon="19.523828327769316"><ele>5.0</ele><time>2026-04-27T07:40:43Z</time></trkpt><trkpt lat="41.23482662876459" lon="19.523814510542035"><ele>5.0</ele><time>2026-04-27T07:40:44Z</time></trkpt><trkpt lat="41.23470230502045" lon="19.52379891522742"><ele>5.0</ele><time>2026-04-27T07:40:45Z</time></trkpt><trkpt lat="41.23457227432779" lon="19.523786715118117"><ele>5.0</ele><time>2026-04-27T07:40:46Z</time></trkpt><trkpt lat="41.23445062046144" lon="19.52378760735655"><ele>4.8</ele><time>2026-04-27T07:40:47Z</time></trkpt><trkpt lat="41.23434359489868" lon="19.52378215072582"><ele>4.6</ele><time>2026-04-27T07:40:48Z</time></trkpt><trkpt lat="41.234240121754866" lon="19.5237781073827"><ele>4.4</ele><time>2026-04-27T07:40:49Z</time></trkpt><trkpt lat="41.23413520550965" lon="19.523774654521713"><ele>4.2</ele><time>2026-04-27T07:40:50Z</time></trkpt><trkpt lat="41.23402200030452" lon="19.52377236956504"><ele>4.0</ele><time>2026-04-27T07:40:51Z</time></trkpt><trkpt lat="41.23390317911514" lon="19.523768765560707"><ele>4.0</ele><time>2026-04-27T07:40:52Z</time></trkpt><trkpt lat="41.23379157675085" lon="19.523759221309692"><ele>4.0</ele><time>2026-04-27T07:40:53Z</time></trkpt><trkpt lat="41.23368229291916" lon="19.523735569912887"><ele>4.0</ele><time>2026-04-27T07:40:54Z</time></trkpt><trkpt lat="41.23358903385464" lon="19.523654107761367"><ele>4.0</ele><time>2026-04-27T07:40:55Z</time></trkpt><trkpt lat="41.23348728416112" lon="19.523606481421822"><ele>4.0</ele><time>2026-04-27T07:40:56Z</time></trkpt><trkpt lat="41.23341805305143" lon="19.52347629242734"><ele>3.0</ele><time>2026-04-27T07:40:57Z</time></trkpt><trkpt lat="41.2333278694018" lon="19.523362004680227"><ele>2.0000000000000004</ele><time>2026-04-27T07:40:58Z</time></trkpt><trkpt lat="41.23323302555772" lon="19.523297425730828"><ele>1.0</ele><time>2026-04-27T07:40:59Z</time></trkpt><trkpt lat="41.233147624378695" lon="19.52324030992962"><ele>0.0</ele><time>2026-04-27T07:41:00Z</time></trkpt><trkpt lat="41.23306197067008" lon="19.523175398811205"><ele>-1.0</ele><time>2026-04-27T07:41:01Z</time></trkpt><trkpt lat="41.232983089153905" lon="19.52310271651042"><ele>-0.9999999999999999</ele><time>2026-04-27T07:41:02Z</time></trkpt><trkpt lat="41.23290555878166" lon="19.52305277373717"><ele>-1.0</ele><time>2026-04-27T07:41:03Z</time></trkpt><trkpt lat="41.23282874215949" lon="19.523041504683935"><ele>-1.0</ele><time>2026-04-27T07:41:04Z</time></trkpt><trkpt lat="41.232761617293505" lon="19.523078123617786"><ele>-1.0</ele><time>2026-04-27T07:41:05Z</time></trkpt><trkpt lat="41.2327229365084" lon="19.523152516152443"><ele>-0.9999999999999999</ele><time>2026-04-27T07:41:06Z</time></trkpt><trkpt lat="41.23271146971013" lon="19.52323541824927"><ele>-1.0</ele><time>2026-04-27T07:41:07Z</time></trkpt><trkpt lat="41.23273496153962" lon="19.523375901695903"><ele>-0.9999999999999999</ele><time>2026-04-27T07:41:09Z</time></trkpt><trkpt lat="41.23281634797322" lon="19.523453740928982"><ele>-1.0</ele><time>2026-04-27T07:41:10Z</time></trkpt><trkpt lat="41.23287258650879" lon="19.523545741230354"><ele>-1.0</ele><time>2026-04-27T07:41:11Z</time></trkpt><trkpt lat="41.232904713713275" lon="19.523651325695617"><ele>-1.0</ele><time>2026-04-27T07:41:12Z</time></trkpt><trkpt lat="41.232900046073915" lon="19.52375201586629"><ele>-0.9999999999999999</ele><time>2026-04-27T07:41:13Z</time></trkpt><trkpt lat="41.23286086063782" lon="19.523833945215316"><ele>-1.0</ele><time>2026-04-27T07:41:14Z</time></trkpt><trkpt lat="41.23279373211894" lon="19.52388637275726"><ele>-0.49999999999999994</ele><time>2026-04-27T07:41:15Z</time></trkpt><trkpt lat="41.23271087603969" lon="19.523901226724004"><ele>0.0</ele><time>2026-04-27T07:41:16Z</time></trkpt><trkpt lat="41.23262060099454" lon="19.523910741816866"><ele>0.5</ele><time>2026-04-27T07:41:17Z</time></trkpt><trkpt lat="41.23253243180811" lon="19.523928602759636"><ele>1.0</ele><time>2026-04-27T07:41:18Z</time></trkpt><trkpt lat="41.232457039546134" lon="19.523953917146194"><ele>1.4999999999999998</ele><time>2026-04-27T07:41:19Z</time></trkpt><trkpt lat="41.232382093304665" lon="19.523978715590484"><ele>2.0</ele><time>2026-04-27T07:41:20Z</time></trkpt><trkpt lat="41.232303329771845" lon="19.52400612036034"><ele>2.25</ele><time>2026-04-27T07:41:21Z</time></trkpt><trkpt lat="41.23223114389299" lon="19.524035409159847"><ele>2.5</ele><time>2026-04-27T07:41:22Z</time></trkpt><trkpt lat="41.2321277170198" lon="19.524070557068054"><ele>2.75</ele><time>2026-04-27T07:41:23Z</time></trkpt><trkpt lat="41.23198153503384" lon="19.524103447803768"><ele>3.0</ele><time>2026-04-27T07:41:24Z</time></trkpt><trkpt lat="41.23180933098071" lon="19.52414557605554"><ele>3.0</ele><time>2026-04-27T07:41:25Z</time></trkpt><trkpt lat="41.23163906305507" lon="19.5241970592767"><ele>3.0</ele><time>2026-04-27T07:41:26Z</time></trkpt><trkpt lat="41.23148197314305" lon="19.52424346228299"><ele>3.0</ele><time>2026-04-27T07:41:27Z</time></trkpt><trkpt lat="41.23132902083607" lon="19.524289247882386"><ele>2.6666666666666665</ele><time>2026-04-27T07:41:28Z</time></trkpt><trkpt lat="41.23117002734899" lon="19.524339184053698"><ele>2.333333333333333</ele><time>2026-04-27T07:41:29Z</time></trkpt><trkpt lat="41.231008526976325" lon="19.52439527461826"><ele>2.0</ele><time>2026-04-27T07:41:30Z</time></trkpt><trkpt lat="41.230842351396056" lon="19.524462311735572"><ele>2.0</ele><time>2026-04-27T07:41:31Z</time></trkpt><trkpt lat="41.23067707247755" lon="19.5245300327521"><ele>2.0</ele><time>2026-04-27T07:41:32Z</time></trkpt><trkpt lat="41.23050853321622" lon="19.524599319857256"><ele>2.0</ele><time>2026-04-27T07:41:33Z</time></trkpt><trkpt lat="41.23033986896579" lon="19.524668786535848"><ele>3.333333333333333</ele><time>2026-04-27T07:41:34Z</time></trkpt><trkpt lat="41.230169818599805" lon="19.52474301713784"><ele>4.666666666666667</ele><time>2026-04-27T07:41:35Z</time></trkpt><trkpt lat="41.22999829560081" lon="19.524819949595198"><ele>6.0</ele><time>2026-04-27T07:41:36Z</time></trkpt><trkpt lat="41.229825454140986" lon="19.524897261987192"><ele>3.6666666666666665</ele><time>2026-04-27T07:41:37Z</time></trkpt><trkpt lat="41.22965337959137" lon="19.524973733109967"><ele>1.3333333333333335</ele><time>2026-04-27T07:41:38Z</time></trkpt><trkpt lat="41.229477658841994" lon="19.52504924845861"><ele>-1.0</ele><time>2026-04-27T07:41:39Z</time></trkpt><trkpt lat="41.22930469423413" lon="19.525122585979698"><ele>-1.0</ele><time>2026-04-27T07:41:40Z</time></trkpt><trkpt lat="41.22913512984814" lon="19.525199961457023"><ele>-1.0</ele><time>2026-04-27T07:41:41Z</time></trkpt><trkpt lat="41.22896598174173" lon="19.525275182101517"><ele>-1.0</ele><time>2026-04-27T07:41:42Z</time></trkpt><trkpt lat="41.228787396014084" lon="19.525351112259475"><ele>-0.3333333333333333</ele><time>2026-04-27T07:41:43Z</time></trkpt><trkpt lat="41.22859834374493" lon="19.525426746540973"><ele>0.3333333333333333</ele><time>2026-04-27T07:41:44Z</time></trkpt><trkpt lat="41.22840581945915" lon="19.525508276554042"><ele>1.0</ele><time>2026-04-27T07:41:45Z</time></trkpt><trkpt lat="41.22821178034977" lon="19.525591301832232"><ele>1.0</ele><time>2026-04-27T07:41:46Z</time></trkpt><trkpt lat="41.22801101029474" lon="19.525676969177226"><ele>1.0</ele><time>2026-04-27T07:41:47Z</time></trkpt><trkpt lat="41.22780329923074" lon="19.525764951528938"><ele>1.0</ele><time>2026-04-27T07:41:48Z</time></trkpt><trkpt lat="41.22758704718432" lon="19.52585421561752"><ele>1.0</ele><time>2026-04-27T07:41:49Z</time></trkpt><trkpt lat="41.22736167389427" lon="19.525948080237995"><ele>1.0</ele><time>2026-04-27T07:41:50Z</time></trkpt><trkpt lat="41.2271305132161" lon="19.52604633019492"><ele>0.0</ele><time>2026-04-27T07:41:51Z</time></trkpt><trkpt lat="41.22690973801205" lon="19.526137990308783"><ele>-1.0</ele><time>2026-04-27T07:41:52Z</time></trkpt><trkpt lat="41.22669656064871" lon="19.52622433990914"><ele>0.0</ele><time>2026-04-27T07:41:53Z</time></trkpt><trkpt lat="41.22647936837493" lon="19.52631308091618"><ele>1.0</ele><time>2026-04-27T07:41:54Z</time></trkpt><trkpt lat="41.22626141290021" lon="19.5264057214201"><ele>1.5</ele><time>2026-04-27T07:41:55Z</time></trkpt><trkpt lat="41.22603995001476" lon="19.526501776060513"><ele>2.0</ele><time>2026-04-27T07:41:56Z</time></trkpt><trkpt lat="41.22581526620563" lon="19.526598396612844"><ele>1.5</ele><time>2026-04-27T07:41:57Z</time></trkpt><trkpt lat="41.22558863529224" lon="19.526695132033396"><ele>1.0</ele><time>2026-04-27T07:41:58Z</time></trkpt><trkpt lat="41.22535736565768" lon="19.526792440364343"><ele>1.0</ele><time>2026-04-27T07:41:59Z</time></trkpt><trkpt lat="41.2251274035252" lon="19.526889161458087"><ele>1.0</ele><time>2026-04-27T07:42:00Z</time></trkpt><trkpt lat="41.22489399745738" lon="19.52698509221204"><ele>1.0</ele><time>2026-04-27T07:42:01Z</time></trkpt><trkpt lat="41.22466273919933" lon="19.527079570897865"><ele>1.0</ele><time>2026-04-27T07:42:02Z</time></trkpt><trkpt lat="41.224432500811126" lon="19.52717504583293"><ele>1.0</ele><time>2026-04-27T07:42:03Z</time></trkpt><trkpt lat="41.22420236590233" lon="19.52727081173552"><ele>1.0</ele><time>2026-04-27T07:42:04Z</time></trkpt><trkpt lat="41.223972551725865" lon="19.52736637879048"><ele>1.5</ele><time>2026-04-27T07:42:05Z</time></trkpt><trkpt lat="41.223742155962306" lon="19.527462301273545"><ele>2.0</ele><time>2026-04-27T07:42:06Z</time></trkpt><trkpt lat="41.223514254091356" lon="19.527556855493533"><ele>2.0</ele><time>2026-04-27T07:42:07Z</time></trkpt><trkpt lat="41.22328495678011" lon="19.52765159205085"><ele>2.0</ele><time>2026-04-27T07:42:08Z</time></trkpt><trkpt lat="41.22305480190882" lon="19.52774730925362"><ele>2.5</ele><time>2026-04-27T07:42:09Z</time></trkpt><trkpt lat="41.222826305981485" lon="19.52784218263012"><ele>3.0</ele><time>2026-04-27T07:42:10Z</time></trkpt><trkpt lat="41.22259772506145" lon="19.527936989740603"><ele>3.0</ele><time>2026-04-27T07:42:11Z</time></trkpt><trkpt lat="41.22236593248315" lon="19.528030099158066"><ele>3.0</ele><time>2026-04-27T07:42:12Z</time></trkpt><trkpt lat="41.22213682016814" lon="19.528122538412852"><ele>3.0</ele><time>2026-04-27T07:42:13Z</time></trkpt><trkpt lat="41.221908015190735" lon="19.52821744758364"><ele>3.0</ele><time>2026-04-27T07:42:14Z</time></trkpt><trkpt lat="41.22167896297439" lon="19.5283158897933"><ele>3.0</ele><time>2026-04-27T07:42:15Z</time></trkpt><trkpt lat="41.22145268136862" lon="19.528413975115367"><ele>3.0</ele><time>2026-04-27T07:42:16Z</time></trkpt><trkpt lat="41.22122535887879" lon="19.528513116999275"><ele>3.0</ele><time>2026-04-27T07:42:17Z</time></trkpt><trkpt lat="41.22099593200319" lon="19.528610205453973"><ele>3.0</ele><time>2026-04-27T07:42:18Z</time></trkpt><trkpt lat="41.22076487626311" lon="19.528704180298302"><ele>3.0</ele><time>2026-04-27T07:42:19Z</time></trkpt><trkpt lat="41.22053530074016" lon="19.52879848033875"><ele>3.0</ele><time>2026-04-27T07:42:20Z</time></trkpt><trkpt lat="41.220307531738655" lon="19.528896799370695"><ele>3.0</ele><time>2026-04-27T07:42:21Z</time></trkpt><trkpt lat="41.22007654222558" lon="19.5289996479038"><ele>3.0</ele><time>2026-04-27T07:42:22Z</time></trkpt><trkpt lat="41.21982273804291" lon="19.529112172994044"><ele>3.5</ele><time>2026-04-27T07:42:23Z</time></trkpt><trkpt lat="41.219550407487255" lon="19.529217334419766"><ele>4.0</ele><time>2026-04-27T07:42:24Z</time></trkpt><trkpt lat="41.21928693260463" lon="19.529312560950807"><ele>4.0</ele><time>2026-04-27T07:42:25Z</time></trkpt><trkpt lat="41.21904583351815" lon="19.52940425056774"><ele>4.0</ele><time>2026-04-27T07:42:26Z</time></trkpt><trkpt lat="41.21881438128812" lon="19.5295019049997"><ele>4.0</ele><time>2026-04-27T07:42:27Z</time></trkpt><trkpt lat="41.218584997638686" lon="19.529598723060868"><ele>4.0</ele><time>2026-04-27T07:42:28Z</time></trkpt><trkpt lat="41.218356598997495" lon="19.5296927291189"><ele>4.0</ele><time>2026-04-27T07:42:29Z</time></trkpt><trkpt lat="41.218128984995246" lon="19.529785921902043"><ele>4.0</ele><time>2026-04-27T07:42:30Z</time></trkpt><trkpt lat="41.21790173375358" lon="19.52987952910457"><ele>4.0</ele><time>2026-04-27T07:42:31Z</time></trkpt><trkpt lat="41.21767308678134" lon="19.529975381861405"><ele>4.0</ele><time>2026-04-27T07:42:32Z</time></trkpt><trkpt lat="41.21744689507623" lon="19.530070446224485"><ele>3.0</ele><time>2026-04-27T07:42:33Z</time></trkpt><trkpt lat="41.21721768811102" lon="19.530165631467533"><ele>2.0</ele><time>2026-04-27T07:42:34Z</time></trkpt><trkpt lat="41.21698844302538" lon="19.530261538154093"><ele>2.0</ele><time>2026-04-27T07:42:35Z</time></trkpt><trkpt lat="41.21675998892874" lon="19.530357824750215"><ele>2.0</ele><time>2026-04-27T07:42:36Z</time></trkpt><trkpt lat="41.21652568610335" lon="19.530456659740587"><ele>2.5</ele><time>2026-04-27T07:42:37Z</time></trkpt><trkpt lat="41.216289364525345" lon="19.530554253860416"><ele>3.0</ele><time>2026-04-27T07:42:38Z</time></trkpt><trkpt lat="41.21605125265872" lon="19.530652068521572"><ele>3.0</ele><time>2026-04-27T07:42:39Z</time></trkpt><trkpt lat="41.2158117294243" lon="19.530749986135415"><ele>3.0</ele><time>2026-04-27T07:42:40Z</time></trkpt><trkpt lat="41.215571325548815" lon="19.53085007219857"><ele>3.5</ele><time>2026-04-27T07:42:41Z</time></trkpt><trkpt lat="41.21533169436464" lon="19.530950642388724"><ele>4.0</ele><time>2026-04-27T07:42:42Z</time></trkpt><trkpt lat="41.21508896844631" lon="19.531052533836327"><ele>4.0</ele><time>2026-04-27T07:42:43Z</time></trkpt><trkpt lat="41.21484620979696" lon="19.53115128286477"><ele>4.0</ele><time>2026-04-27T07:42:44Z</time></trkpt><trkpt lat="41.21460574555541" lon="19.531248433519757"><ele>5.0</ele><time>2026-04-27T07:42:45Z</time></trkpt><trkpt lat="41.21436419234677" lon="19.531347877125455"><ele>6.0</ele><time>2026-04-27T07:42:46Z</time></trkpt><trkpt lat="41.214121170028974" lon="19.531450115548914"><ele>7.0</ele><time>2026-04-27T07:42:47Z</time></trkpt><trkpt lat="41.21387128977748" lon="19.53155693992749"><ele>8.0</ele><time>2026-04-27T07:42:48Z</time></trkpt><trkpt lat="41.21361847424071" lon="19.531662635253475"><ele>8.0</ele><time>2026-04-27T07:42:49Z</time></trkpt><trkpt lat="41.213366290314305" lon="19.53176487087892"><ele>8.0</ele><time>2026-04-27T07:42:50Z</time></trkpt><trkpt lat="41.21311593650695" lon="19.531866186614014"><ele>8.0</ele><time>2026-04-27T07:42:51Z</time></trkpt><trkpt lat="41.21287284820585" lon="19.531965207201868"><ele>8.0</ele><time>2026-04-27T07:42:52Z</time></trkpt><trkpt lat="41.21264812827707" lon="19.532061401731376"><ele>8.0</ele><time>2026-04-27T07:42:53Z</time></trkpt><trkpt lat="41.212432736608925" lon="19.532152763351355"><ele>8.0</ele><time>2026-04-27T07:42:54Z</time></trkpt><trkpt lat="41.212228254672894" lon="19.5322364560973"><ele>8.0</ele><time>2026-04-27T07:42:55Z</time></trkpt><trkpt lat="41.2120337268638" lon="19.532318143119443"><ele>8.0</ele><time>2026-04-27T07:42:56Z</time></trkpt><trkpt lat="41.2118513176151" lon="19.53239640161308"><ele>8.0</ele><time>2026-04-27T07:42:57Z</time></trkpt><trkpt lat="41.21167456262863" lon="19.53247343733346"><ele>8.0</ele><time>2026-04-27T07:42:58Z</time></trkpt><trkpt lat="41.21149096367637" lon="19.532549400984617"><ele>6.666666666666666</ele><time>2026-04-27T07:42:59Z</time></trkpt><trkpt lat="41.21130129043517" lon="19.532623932887535"><ele>5.333333333333333</ele><time>2026-04-27T07:43:00Z</time></trkpt><trkpt lat="41.21111038473935" lon="19.532702989945697"><ele>4.0</ele><time>2026-04-27T07:43:01Z</time></trkpt><trkpt lat="41.210914658223246" lon="19.532783527362877"><ele>4.0</ele><time>2026-04-27T07:43:02Z</time></trkpt><trkpt lat="41.21071656516894" lon="19.532864270861467"><ele>4.0</ele><time>2026-04-27T07:43:03Z</time></trkpt><trkpt lat="41.21051711504259" lon="19.53294581885811"><ele>4.0</ele><time>2026-04-27T07:43:04Z</time></trkpt><trkpt lat="41.210307144463435" lon="19.53303902525004"><ele>5.5</ele><time>2026-04-27T07:43:05Z</time></trkpt><trkpt lat="41.21008490911622" lon="19.53314612699997"><ele>7.0</ele><time>2026-04-27T07:43:06Z</time></trkpt><trkpt lat="41.20984872027412" lon="19.533258964073937"><ele>7.5</ele><time>2026-04-27T07:43:07Z</time></trkpt><trkpt lat="41.20958417122299" lon="19.533376101776085"><ele>8.0</ele><time>2026-04-27T07:43:08Z</time></trkpt><trkpt lat="41.209300182074315" lon="19.53349586698502"><ele>8.0</ele><time>2026-04-27T07:43:09Z</time></trkpt><trkpt lat="41.208998321963826" lon="19.53360479287672"><ele>8.0</ele><time>2026-04-27T07:43:10Z</time></trkpt><trkpt lat="41.20868300460721" lon="19.533702831338605"><ele>8.0</ele><time>2026-04-27T07:43:11Z</time></trkpt><trkpt lat="41.2083883848926" lon="19.533798261077756"><ele>8.0</ele><time>2026-04-27T07:43:12Z</time></trkpt><trkpt lat="41.208121096884774" lon="19.533887781796494"><ele>8.0</ele><time>2026-04-27T07:43:13Z</time></trkpt><trkpt lat="41.20787049342992" lon="19.533962919274384"><ele>8.0</ele><time>2026-04-27T07:43:14Z</time></trkpt><trkpt lat="41.20762944316178" lon="19.534024921777675"><ele>8.0</ele><time>2026-04-27T07:43:15Z</time></trkpt><trkpt lat="41.20740275143717" lon="19.534077872170954"><ele>8.0</ele><time>2026-04-27T07:43:16Z</time></trkpt><trkpt lat="41.20717965607666" lon="19.534129317047714"><ele>7.666666666666666</ele><time>2026-04-27T07:43:17Z</time></trkpt><trkpt lat="41.2069568071726" lon="19.534177449308192"><ele>7.333333333333334</ele><time>2026-04-27T07:43:18Z</time></trkpt><trkpt lat="41.20674314467086" lon="19.53422333099007"><ele>7.0</ele><time>2026-04-27T07:43:19Z</time></trkpt><trkpt lat="41.20655373682473" lon="19.534265283165464"><ele>6.75</ele><time>2026-04-27T07:43:20Z</time></trkpt><trkpt lat="41.20640372064963" lon="19.534295278781464"><ele>6.5</ele><time>2026-04-27T07:43:21Z</time></trkpt><trkpt lat="41.20627233360592" lon="19.53432123895478"><ele>6.25</ele><time>2026-04-27T07:43:22Z</time></trkpt><trkpt lat="41.20613605657154" lon="19.53435024946383"><ele>6.0</ele><time>2026-04-27T07:43:23Z</time></trkpt><trkpt lat="41.20598746110053" lon="19.53438190899129"><ele>6.0</ele><time>2026-04-27T07:43:24Z</time></trkpt><trkpt lat="41.205860445882166" lon="19.53439694293911"><ele>6.0</ele><time>2026-04-27T07:43:25Z</time></trkpt><trkpt lat="41.205742345852144" lon="19.534417819588818"><ele>6.0</ele><time>2026-04-27T07:43:26Z</time></trkpt><trkpt lat="41.20563571047499" lon="19.53445238391542"><ele>6.0</ele><time>2026-04-27T07:43:27Z</time></trkpt><trkpt lat="41.205549598677365" lon="19.53443708383871"><ele>6.0</ele><time>2026-04-27T07:43:28Z</time></trkpt><trkpt lat="41.20547832967081" lon="19.534382952424707"><ele>6.0</ele><time>2026-04-27T07:43:29Z</time></trkpt><trkpt lat="41.2054439085486" lon="19.534281898375404"><ele>6.0</ele><time>2026-04-27T07:43:30Z</time></trkpt><trkpt lat="41.205443527715836" lon="19.53411264928325"><ele>6.0</ele><time>2026-04-27T07:43:32Z</time></trkpt><trkpt lat="41.20546474864324" lon="19.53402351308778"><ele>6.0</ele><time>2026-04-27T07:43:33Z</time></trkpt><trkpt lat="41.20552077488215" lon="19.53388252853612"><ele>6.0</ele><time>2026-04-27T07:43:35Z</time></trkpt><trkpt lat="41.20555287309803" lon="19.53380191001156"><ele>6.0</ele><time>2026-04-27T07:43:36Z</time></trkpt><trkpt lat="41.205654166461485" lon="19.533773948851348"><ele>6.0</ele><time>2026-04-27T07:43:37Z</time></trkpt><trkpt lat="41.20572527432744" lon="19.53375253703779"><ele>6.0</ele><time>2026-04-27T07:43:38Z</time></trkpt><trkpt lat="41.20578695048254" lon="19.533734041835636"><ele>6.0</ele><time>2026-04-27T07:43:39Z</time></trkpt><trkpt lat="41.20587123519152" lon="19.533871295510853"><ele>6.0</ele><time>2026-04-27T07:43:40Z</time></trkpt><trkpt lat="41.20592710632477" lon="19.533967674110364"><ele>6.0</ele><time>2026-04-27T07:43:41Z</time></trkpt><trkpt lat="41.20596954116683" lon="19.53408892055395"><ele>6.0</ele><time>2026-04-27T07:43:42Z</time></trkpt><trkpt lat="41.20600324734378" lon="19.534221341889427"><ele>6.0</ele><time>2026-04-27T07:43:43Z</time></trkpt><trkpt lat="41.20603701106151" lon="19.534360551588055"><ele>6.0</ele><time>2026-04-27T07:43:44Z</time></trkpt><trkpt lat="41.206067200133496" lon="19.53448945958263"><ele>6.0</ele><time>2026-04-27T07:43:45Z</time></trkpt><trkpt lat="41.20608464059136" lon="19.53460274363562"><ele>6.166666666666667</ele><time>2026-04-27T07:43:46Z</time></trkpt><trkpt lat="41.20609939381414" lon="19.53470248648885"><ele>6.333333333333334</ele><time>2026-04-27T07:43:47Z</time></trkpt><trkpt lat="41.20610182001722" lon="19.53479161671673"><ele>6.5</ele><time>2026-04-27T07:43:48Z</time></trkpt><trkpt lat="41.20608082794183" lon="19.534881067259676"><ele>6.666666666666667</ele><time>2026-04-27T07:43:49Z</time></trkpt><trkpt lat="41.206041726006134" lon="19.534972363773758"><ele>6.833333333333334</ele><time>2026-04-27T07:43:50Z</time></trkpt><trkpt lat="41.205984566827816" lon="19.53505139751741"><ele>7.0</ele><time>2026-04-27T07:43:51Z</time></trkpt><trkpt lat="41.20588871040459" lon="19.53505441917905"><ele>7.0</ele><time>2026-04-27T07:43:52Z</time></trkpt><trkpt lat="41.20580982382693" lon="19.535057019558117"><ele>6.999999999999999</ele><time>2026-04-27T07:43:53Z</time></trkpt><trkpt lat="41.20571801138851" lon="19.535031182061157"><ele>6.999999999999999</ele><time>2026-04-27T07:43:54Z</time></trkpt><trkpt lat="41.20562127480183" lon="19.534985858946825"><ele>7.0</ele><time>2026-04-27T07:43:55Z</time></trkpt><trkpt lat="41.20553427041307" lon="19.53495489671928"><ele>7.0</ele><time>2026-04-27T07:43:56Z</time></trkpt><trkpt lat="41.20543291312248" lon="19.53497852005703"><ele>6.833333333333334</ele><time>2026-04-27T07:43:57Z</time></trkpt><trkpt lat="41.205344751137616" lon="19.535008567892184"><ele>6.666666666666667</ele><time>2026-04-27T07:43:58Z</time></trkpt><trkpt lat="41.20526025853667" lon="19.53504359732404"><ele>6.5</ele><time>2026-04-27T07:43:59Z</time></trkpt><trkpt lat="41.205180936802684" lon="19.53507648298789"><ele>6.333333333333334</ele><time>2026-04-27T07:44:00Z</time></trkpt><trkpt lat="41.205106334838625" lon="19.535107411898093"><ele>6.166666666666667</ele><time>2026-04-27T07:44:01Z</time></trkpt><trkpt lat="41.20503730399021" lon="19.535144927003618"><ele>6.0</ele><time>2026-04-27T07:44:02Z</time></trkpt><trkpt lat="41.20497616415839" lon="19.535175273618545"><ele>5.999999999999999</ele><time>2026-04-27T07:44:03Z</time></trkpt><trkpt lat="41.20491694960243" lon="19.535205106447126"><ele>6.0</ele><time>2026-04-27T07:44:04Z</time></trkpt><trkpt lat="41.2048515643046" lon="19.535240626568513"><ele>6.0</ele><time>2026-04-27T07:44:05Z</time></trkpt><trkpt lat="41.20478315480487" lon="19.535278035453892"><ele>6.0</ele><time>2026-04-27T07:44:06Z</time></trkpt><trkpt lat="41.204711524447916" lon="19.535317498837223"><ele>6.0</ele><time>2026-04-27T07:44:07Z</time></trkpt><trkpt lat="41.20464660079158" lon="19.535353267291818"><ele>5.999999999999999</ele><time>2026-04-27T07:44:08Z</time></trkpt><trkpt lat="41.20458180098659" lon="19.535394408113703"><ele>6.0</ele><time>2026-04-27T07:44:09Z</time></trkpt><trkpt lat="41.20451911827464" lon="19.535435738284857"><ele>6.666666666666667</ele><time>2026-04-27T07:44:10Z</time></trkpt><trkpt lat="41.204465120126834" lon="19.535488031041623"><ele>7.333333333333334</ele><time>2026-04-27T07:44:11Z</time></trkpt><trkpt lat="41.20440378485494" lon="19.53551814789447"><ele>8.0</ele><time>2026-04-27T07:44:12Z</time></trkpt><trkpt lat="41.204342026170444" lon="19.53555118225728"><ele>8.666666666666668</ele><time>2026-04-27T07:44:13Z</time></trkpt><trkpt lat="41.20428419738606" lon="19.535589727809107"><ele>9.333333333333334</ele><time>2026-04-27T07:44:14Z</time></trkpt><trkpt lat="41.20419253494305" lon="19.535651726483536"><ele>10.0</ele><time>2026-04-27T07:44:16Z</time></trkpt><trkpt lat="41.204081996877385" lon="19.535704138947274"><ele>9.4</ele><time>2026-04-27T07:44:18Z</time></trkpt><trkpt lat="41.20397303838821" lon="19.53569930849563"><ele>8.8</ele><time>2026-04-27T07:44:20Z</time></trkpt><trkpt lat="41.203859310944445" lon="19.53572664225884"><ele>8.2</ele><time>2026-04-27T07:44:22Z</time></trkpt><trkpt lat="41.20376070603727" lon="19.53581580025103"><ele>7.6</ele><time>2026-04-27T07:44:24Z</time></trkpt><trkpt lat="41.20372627895225" lon="19.535890617813983"><ele>7.0</ele><time>2026-04-27T07:44:25Z</time></trkpt><trkpt lat="41.203700055706996" lon="19.53601322917055"><ele>7.0</ele><time>2026-04-27T07:44:26Z</time></trkpt><trkpt lat="41.203635235294605" lon="19.536194660696264"><ele>7.0</ele><time>2026-04-27T07:44:27Z</time></trkpt><trkpt lat="41.2035172326186" lon="19.536410633609822"><ele>7.0</ele><time>2026-04-27T07:44:28Z</time></trkpt><trkpt lat="41.20337008988946" lon="19.536660441940782"><ele>6.666666666666667</ele><time>2026-04-27T07:44:29Z</time></trkpt><trkpt lat="41.203260306173334" lon="19.53687884127638"><ele>6.333333333333334</ele><time>2026-04-27T07:44:30Z</time></trkpt><trkpt lat="41.20314989404524" lon="19.537100107028728"><ele>6.0</ele><time>2026-04-27T07:44:31Z</time></trkpt><trkpt lat="41.20301689860727" lon="19.537337915694636"><ele>6.0</ele><time>2026-04-27T07:44:32Z</time></trkpt><trkpt lat="41.20286027738997" lon="19.537593591178794"><ele>6.0</ele><time>2026-04-27T07:44:33Z</time></trkpt><trkpt lat="41.202724079199065" lon="19.53781729656714"><ele>6.333333333333334</ele><time>2026-04-27T07:44:34Z</time></trkpt><trkpt lat="41.20260740826183" lon="19.53802884302012"><ele>6.666666666666667</ele><time>2026-04-27T07:44:35Z</time></trkpt><trkpt lat="41.20249369713842" lon="19.538246738946576"><ele>7.0</ele><time>2026-04-27T07:44:36Z</time></trkpt><trkpt lat="41.202372805618744" lon="19.538449349683138"><ele>7.0</ele><time>2026-04-27T07:44:37Z</time></trkpt><trkpt lat="41.20224984352132" lon="19.538654412829416"><ele>7.0</ele><time>2026-04-27T07:44:38Z</time></trkpt><trkpt lat="41.20212921142732" lon="19.538858016515047"><ele>7.0</ele><time>2026-04-27T07:44:39Z</time></trkpt><trkpt lat="41.20200626976528" lon="19.539058054910555"><ele>7.333333333333334</ele><time>2026-04-27T07:44:40Z</time></trkpt><trkpt lat="41.20187791131835" lon="19.53926117333417"><ele>7.666666666666666</ele><time>2026-04-27T07:44:41Z</time></trkpt><trkpt lat="41.201755525155534" lon="19.539458722272247"><ele>8.0</ele><time>2026-04-27T07:44:42Z</time></trkpt><trkpt lat="41.20163315991654" lon="19.539661037715685"><ele>8.0</ele><time>2026-04-27T07:44:43Z</time></trkpt><trkpt lat="41.20150643134344" lon="19.539865534613938"><ele>8.0</ele><time>2026-04-27T07:44:44Z</time></trkpt><trkpt lat="41.201380175068046" lon="19.540070306649998"><ele>8.0</ele><time>2026-04-27T07:44:45Z</time></trkpt><trkpt lat="41.20126547784472" lon="19.540254452565648"><ele>8.5</ele><time>2026-04-27T07:44:46Z</time></trkpt><trkpt lat="41.20115971306523" lon="19.54042391984511"><ele>9.0</ele><time>2026-04-27T07:44:47Z</time></trkpt><trkpt lat="41.20106764810396" lon="19.540578371485427"><ele>9.5</ele><time>2026-04-27T07:44:48Z</time></trkpt><trkpt lat="41.200986340920515" lon="19.540715843087387"><ele>10.0</ele><time>2026-04-27T07:44:49Z</time></trkpt><trkpt lat="41.2009214108524" lon="19.54082378462041"><ele>10.0</ele><time>2026-04-27T07:44:50Z</time></trkpt><trkpt lat="41.200877694884944" lon="19.54089077868941"><ele>10.0</ele><time>2026-04-27T07:44:51Z</time></trkpt><trkpt lat="41.20083543395022" lon="19.540959790039892"><ele>10.0</ele><time>2026-04-27T07:44:52Z</time></trkpt><trkpt lat="41.2007897389509" lon="19.541026115469368"><ele>10.0</ele><time>2026-04-27T07:44:53Z</time></trkpt><trkpt lat="41.200658939114824" lon="19.540979680972814"><ele>10.0</ele><time>2026-04-27T07:44:56Z</time></trkpt><trkpt lat="41.20066296201031" lon="19.540805771209037"><ele>9.5</ele><time>2026-04-27T07:44:57Z</time></trkpt><trkpt lat="41.20061978867631" lon="19.54065898158397"><ele>9.0</ele><time>2026-04-27T07:44:58Z</time></trkpt><trkpt lat="41.20059196082554" lon="19.540510638452368"><ele>8.5</ele><time>2026-04-27T07:44:59Z</time></trkpt><trkpt lat="41.200555574505934" lon="19.540357190844954"><ele>8.0</ele><time>2026-04-27T07:45:00Z</time></trkpt><trkpt lat="41.20051474029705" lon="19.540194777759652"><ele>8.0</ele><time>2026-04-27T07:45:01Z</time></trkpt><trkpt lat="41.200473315841926" lon="19.540020894396925"><ele>8.0</ele><time>2026-04-27T07:45:02Z</time></trkpt><trkpt lat="41.200429692458826" lon="19.539835994216897"><ele>8.0</ele><time>2026-04-27T07:45:03Z</time></trkpt><trkpt lat="41.20038451106259" lon="19.539646149886313"><ele>8.0</ele><time>2026-04-27T07:45:04Z</time></trkpt><trkpt lat="41.20033367987709" lon="19.539452559907534"><ele>8.0</ele><time>2026-04-27T07:45:05Z</time></trkpt><trkpt lat="41.200284752702984" lon="19.539255053667514"><ele>8.0</ele><time>2026-04-27T07:45:06Z</time></trkpt><trkpt lat="41.20023779986006" lon="19.539054036933656"><ele>8.0</ele><time>2026-04-27T07:45:07Z</time></trkpt><trkpt lat="41.20019329763722" lon="19.538866954033516"><ele>7.75</ele><time>2026-04-27T07:45:08Z</time></trkpt><trkpt lat="41.200155108191474" lon="19.538703445226105"><ele>7.5</ele><time>2026-04-27T07:45:09Z</time></trkpt><trkpt lat="41.20011825407133" lon="19.538538232554732"><ele>7.25</ele><time>2026-04-27T07:45:10Z</time></trkpt><trkpt lat="41.20007698292559" lon="19.538361591028377"><ele>7.0</ele><time>2026-04-27T07:45:11Z</time></trkpt><trkpt lat="41.20003584850524" lon="19.538194068006838"><ele>7.0</ele><time>2026-04-27T07:45:12Z</time></trkpt><trkpt lat="41.19999722833728" lon="19.538039652026512"><ele>7.0</ele><time>2026-04-27T07:45:13Z</time></trkpt><trkpt lat="41.19995767347694" lon="19.537885687882"><ele>7.0</ele><time>2026-04-27T07:45:14Z</time></trkpt><trkpt lat="41.19990419762381" lon="19.53767728769628"><ele>7.0</ele><time>2026-04-27T07:45:15Z</time></trkpt><trkpt lat="41.19985492450549" lon="19.537402683795268"><ele>6.75</ele><time>2026-04-27T07:45:16Z</time></trkpt><trkpt lat="41.19981163683135" lon="19.5372171743659"><ele>6.5</ele><time>2026-04-27T07:45:17Z</time></trkpt><trkpt lat="41.199780642762384" lon="19.537084349204317"><ele>6.25</ele><time>2026-04-27T07:45:18Z</time></trkpt><trkpt lat="41.19974224783775" lon="19.536918304762978"><ele>6.0</ele><time>2026-04-27T07:45:19Z</time></trkpt><trkpt lat="41.199705468703634" lon="19.536761213811094"><ele>6.0</ele><time>2026-04-27T07:45:20Z</time></trkpt><trkpt lat="41.199668170816786" lon="19.53660190713267"><ele>6.0</ele><time>2026-04-27T07:45:21Z</time></trkpt><trkpt lat="41.199640052187334" lon="19.536481806891576"><ele>6.0</ele><time>2026-04-27T07:45:22Z</time></trkpt><trkpt lat="41.199601579551" lon="19.536390578111256"><ele>6.0</ele><time>2026-04-27T07:45:23Z</time></trkpt><trkpt lat="41.1995788122278" lon="19.536286185942355"><ele>6.0</ele><time>2026-04-27T07:45:25Z</time></trkpt><trkpt lat="41.19945866968414" lon="19.536292309255817"><ele>6.0</ele><time>2026-04-27T07:45:30Z</time></trkpt><trkpt lat="41.19939453822669" lon="19.5363378664795"><ele>6.0</ele><time>2026-04-27T07:45:31Z</time></trkpt><trkpt lat="41.19935393976821" lon="19.536437159973964"><ele>6.0</ele><time>2026-04-27T07:45:32Z</time></trkpt><trkpt lat="41.199365254583256" lon="19.536546770726872"><ele>6.0</ele><time>2026-04-27T07:45:33Z</time></trkpt><trkpt lat="41.19936824415138" lon="19.536647566713956"><ele>6.0</ele><time>2026-04-27T07:45:34Z</time></trkpt><trkpt lat="41.19937470820647" lon="19.536762122017482"><ele>6.0</ele><time>2026-04-27T07:45:35Z</time></trkpt><trkpt lat="41.199379766844054" lon="19.536872690860278"><ele>6.0</ele><time>2026-04-27T07:45:36Z</time></trkpt><trkpt lat="41.19936338324997" lon="19.536958057480003"><ele>6.0</ele><time>2026-04-27T07:45:37Z</time></trkpt><trkpt lat="41.19923774198232" lon="19.5369970062379"><ele>6.0</ele><time>2026-04-27T07:45:39Z</time></trkpt><trkpt lat="41.19916755116041" lon="19.537026337149086"><ele>6.0</ele><time>2026-04-27T07:45:40Z</time></trkpt><trkpt lat="41.19907611509887" lon="19.53706530307376"><ele>6.0</ele><time>2026-04-27T07:45:41Z</time></trkpt><trkpt lat="41.198966760868615" lon="19.53711193346706"><ele>6.0</ele><time>2026-04-27T07:45:42Z</time></trkpt><trkpt lat="41.19884071308046" lon="19.537165219995277"><ele>6.0</ele><time>2026-04-27T07:45:43Z</time></trkpt><trkpt lat="41.19869259598519" lon="19.537228261791615"><ele>6.0</ele><time>2026-04-27T07:45:44Z</time></trkpt><trkpt lat="41.19852770939491" lon="19.537298290843772"><ele>6.0</ele><time>2026-04-27T07:45:45Z</time></trkpt><trkpt lat="41.198358823611755" lon="19.5373700183945"><ele>6.0</ele><time>2026-04-27T07:45:46Z</time></trkpt><trkpt lat="41.19817833830497" lon="19.537437670096647"><ele>6.0</ele><time>2026-04-27T07:45:47Z</time></trkpt><trkpt lat="41.197989939863014" lon="19.5375091461307"><ele>6.0</ele><time>2026-04-27T07:45:48Z</time></trkpt><trkpt lat="41.19779012589352" lon="19.53758508675191"><ele>6.0</ele><time>2026-04-27T07:45:49Z</time></trkpt><trkpt lat="41.19758133985497" lon="19.537664436455998"><ele>6.0</ele><time>2026-04-27T07:45:50Z</time></trkpt><trkpt lat="41.197370776232354" lon="19.537750897988147"><ele>6.5</ele><time>2026-04-27T07:45:51Z</time></trkpt><trkpt lat="41.1971562951506" lon="19.53784100205742"><ele>7.0</ele><time>2026-04-27T07:45:52Z</time></trkpt><trkpt lat="41.19693784555204" lon="19.53793279552977"><ele>6.5</ele><time>2026-04-27T07:45:53Z</time></trkpt><trkpt lat="41.19671655725574" lon="19.53802592228672"><ele>6.0</ele><time>2026-04-27T07:45:54Z</time></trkpt><trkpt lat="41.196490667658445" lon="19.53812090496781"><ele>6.0</ele><time>2026-04-27T07:45:55Z</time></trkpt><trkpt lat="41.19626453251331" lon="19.538212859106558"><ele>6.0</ele><time>2026-04-27T07:45:56Z</time></trkpt><trkpt lat="41.196040273704455" lon="19.538301222564428"><ele>6.0</ele><time>2026-04-27T07:45:57Z</time></trkpt><trkpt lat="41.19581902032463" lon="19.538388001826064"><ele>6.0</ele><time>2026-04-27T07:45:58Z</time></trkpt><trkpt lat="41.19559351305035" lon="19.53847633348709"><ele>6.0</ele><time>2026-04-27T07:45:59Z</time></trkpt><trkpt lat="41.19536638224372" lon="19.538565300954758"><ele>6.0</ele><time>2026-04-27T07:46:00Z</time></trkpt><trkpt lat="41.195137448631776" lon="19.538662663348507"><ele>6.5</ele><time>2026-04-27T07:46:01Z</time></trkpt><trkpt lat="41.19491349911955" lon="19.5387648670877"><ele>7.0</ele><time>2026-04-27T07:46:02Z</time></trkpt><trkpt lat="41.19468918379726" lon="19.53886629487091"><ele>7.333333333333334</ele><time>2026-04-27T07:46:03Z</time></trkpt><trkpt lat="41.19447437146066" lon="19.538955167430707"><ele>7.666666666666666</ele><time>2026-04-27T07:46:04Z</time></trkpt><trkpt lat="41.19427909649659" lon="19.53903595580359"><ele>8.0</ele><time>2026-04-27T07:46:05Z</time></trkpt><trkpt lat="41.19409606676235" lon="19.539111678077187"><ele>7.666666666666666</ele><time>2026-04-27T07:46:06Z</time></trkpt><trkpt lat="41.19392413190231" lon="19.53918281025443"><ele>7.333333333333334</ele><time>2026-04-27T07:46:07Z</time></trkpt><trkpt lat="41.19375757236376" lon="19.53925171857815"><ele>7.0</ele><time>2026-04-27T07:46:08Z</time></trkpt><trkpt lat="41.193604012043515" lon="19.539315248932382"><ele>7.0</ele><time>2026-04-27T07:46:09Z</time></trkpt><trkpt lat="41.19347026796379" lon="19.53936853762516"><ele>7.0</ele><time>2026-04-27T07:46:10Z</time></trkpt><trkpt lat="41.19331891328243" lon="19.539427163521193"><ele>7.0</ele><time>2026-04-27T07:46:11Z</time></trkpt><trkpt lat="41.193158771612346" lon="19.539489125309544"><ele>6.666666666666667</ele><time>2026-04-27T07:46:12Z</time></trkpt><trkpt lat="41.192992697037624" lon="19.539553382677017"><ele>6.333333333333334</ele><time>2026-04-27T07:46:13Z</time></trkpt><trkpt lat="41.192823161399815" lon="19.53961897918636"><ele>6.0</ele><time>2026-04-27T07:46:14Z</time></trkpt><trkpt lat="41.19265542380047" lon="19.539685649191473"><ele>6.0</ele><time>2026-04-27T07:46:15Z</time></trkpt><trkpt lat="41.19249619096055" lon="19.5397532924759"><ele>6.0</ele><time>2026-04-27T07:46:16Z</time></trkpt><trkpt lat="41.192327893318655" lon="19.53982478661401"><ele>6.0</ele><time>2026-04-27T07:46:17Z</time></trkpt><trkpt lat="41.19214897382307" lon="19.53990079298724"><ele>6.0</ele><time>2026-04-27T07:46:18Z</time></trkpt><trkpt lat="41.191965741250044" lon="19.539978631560338"><ele>6.0</ele><time>2026-04-27T07:46:19Z</time></trkpt><trkpt lat="41.191774506679195" lon="19.54005986945054"><ele>6.0</ele><time>2026-04-27T07:46:20Z</time></trkpt><trkpt lat="41.19158569711404" lon="19.540137239148084"><ele>6.666666666666666</ele><time>2026-04-27T07:46:21Z</time></trkpt><trkpt lat="41.191411144094424" lon="19.54020657933033"><ele>7.333333333333333</ele><time>2026-04-27T07:46:22Z</time></trkpt><trkpt lat="41.19122803390949" lon="19.54027964855339"><ele>8.0</ele><time>2026-04-27T07:46:23Z</time></trkpt><trkpt lat="41.19103806365716" lon="19.54035534956556"><ele>8.0</ele><time>2026-04-27T07:46:24Z</time></trkpt><trkpt lat="41.19084322537928" lon="19.540432674394296"><ele>8.0</ele><time>2026-04-27T07:46:25Z</time></trkpt><trkpt lat="41.19064662557836" lon="19.540510698339016"><ele>8.0</ele><time>2026-04-27T07:46:26Z</time></trkpt><trkpt lat="41.19045212596192" lon="19.540587888789595"><ele>8.0</ele><time>2026-04-27T07:46:27Z</time></trkpt><trkpt lat="41.190270940745805" lon="19.540659219756794"><ele>8.0</ele><time>2026-04-27T07:46:28Z</time></trkpt><trkpt lat="41.190093178297" lon="19.540729414157653"><ele>8.0</ele><time>2026-04-27T07:46:29Z</time></trkpt><trkpt lat="41.189914940945194" lon="19.540800179938866"><ele>8.0</ele><time>2026-04-27T07:46:30Z</time></trkpt><trkpt lat="41.18973318246787" lon="19.540872978849492"><ele>8.0</ele><time>2026-04-27T07:46:31Z</time></trkpt><trkpt lat="41.18955222282054" lon="19.540946131124294"><ele>8.0</ele><time>2026-04-27T07:46:32Z</time></trkpt><trkpt lat="41.18936844589798" lon="19.541021277702757"><ele>8.0</ele><time>2026-04-27T07:46:33Z</time></trkpt><trkpt lat="41.189182954004885" lon="19.541097080000483"><ele>8.0</ele><time>2026-04-27T07:46:34Z</time></trkpt><trkpt lat="41.18899780064982" lon="19.541172998937128"><ele>8.0</ele><time>2026-04-27T07:46:35Z</time></trkpt><trkpt lat="41.18881260034634" lon="19.541253935338247"><ele>8.333333333333332</ele><time>2026-04-27T07:46:36Z</time></trkpt><trkpt lat="41.18862520857154" lon="19.54133588591235"><ele>8.666666666666666</ele><time>2026-04-27T07:46:37Z</time></trkpt><trkpt lat="41.188450346457536" lon="19.541407052643553"><ele>9.0</ele><time>2026-04-27T07:46:38Z</time></trkpt><trkpt lat="41.18829137931648" lon="19.541470558335934"><ele>8.5</ele><time>2026-04-27T07:46:39Z</time></trkpt><trkpt lat="41.1881403198249" lon="19.54153090500487"><ele>8.0</ele><time>2026-04-27T07:46:40Z</time></trkpt><trkpt lat="41.1880092030592" lon="19.541583284743187"><ele>7.5</ele><time>2026-04-27T07:46:41Z</time></trkpt><trkpt lat="41.187890236126805" lon="19.54163076612697"><ele>7.0</ele><time>2026-04-27T07:46:42Z</time></trkpt><trkpt lat="41.18777443764467" lon="19.541680180768072"><ele>7.0</ele><time>2026-04-27T07:46:43Z</time></trkpt><trkpt lat="41.18764970485031" lon="19.541732477858318"><ele>7.0</ele><time>2026-04-27T07:46:44Z</time></trkpt><trkpt lat="41.18751409897593" lon="19.541792049834463"><ele>7.0</ele><time>2026-04-27T07:46:45Z</time></trkpt><trkpt lat="41.18737845004436" lon="19.54185765217001"><ele>7.0</ele><time>2026-04-27T07:46:46Z</time></trkpt><trkpt lat="41.187234901187324" lon="19.54191919455296"><ele>8.0</ele><time>2026-04-27T07:46:47Z</time></trkpt><trkpt lat="41.18708360647785" lon="19.541955007856206"><ele>9.0</ele><time>2026-04-27T07:46:48Z</time></trkpt><trkpt lat="41.1869186467338" lon="19.54201386068841"><ele>10.0</ele><time>2026-04-27T07:46:49Z</time></trkpt><trkpt lat="41.18674899840344" lon="19.54208459007533"><ele>9.666666666666668</ele><time>2026-04-27T07:46:50Z</time></trkpt><trkpt lat="41.18657006077589" lon="19.542159208567945"><ele>9.333333333333334</ele><time>2026-04-27T07:46:51Z</time></trkpt><trkpt lat="41.186385625402814" lon="19.542232674681326"><ele>9.0</ele><time>2026-04-27T07:46:52Z</time></trkpt><trkpt lat="41.18620023033271" lon="19.542300695480737"><ele>9.0</ele><time>2026-04-27T07:46:53Z</time></trkpt><trkpt lat="41.18600940650765" lon="19.542370719389158"><ele>9.0</ele><time>2026-04-27T07:46:54Z</time></trkpt><trkpt lat="41.185817222332" lon="19.542441443583098"><ele>9.0</ele><time>2026-04-27T07:46:55Z</time></trkpt><trkpt lat="41.18562230935552" lon="19.542512930554686"><ele>9.0</ele><time>2026-04-27T07:46:56Z</time></trkpt><trkpt lat="41.18542332987044" lon="19.542590368776615"><ele>9.0</ele><time>2026-04-27T07:46:57Z</time></trkpt><trkpt lat="41.18522655767711" lon="19.542673507280732"><ele>9.0</ele><time>2026-04-27T07:46:58Z</time></trkpt><trkpt lat="41.18502652895627" lon="19.542757318642323"><ele>10.0</ele><time>2026-04-27T07:46:59Z</time></trkpt><trkpt lat="41.18481814632121" lon="19.542852271382074"><ele>11.0</ele><time>2026-04-27T07:47:00Z</time></trkpt><trkpt lat="41.184623233972886" lon="19.54294529309049"><ele>12.0</ele><time>2026-04-27T07:47:01Z</time></trkpt><trkpt lat="41.184447775302374" lon="19.543032388300638"><ele>12.0</ele><time>2026-04-27T07:47:02Z</time></trkpt><trkpt lat="41.184278940205004" lon="19.54311854502414"><ele>12.0</ele><time>2026-04-27T07:47:03Z</time></trkpt><trkpt lat="41.184115647184775" lon="19.543201873224376"><ele>12.0</ele><time>2026-04-27T07:47:04Z</time></trkpt><trkpt lat="41.183949448501714" lon="19.54330071946147"><ele>11.666666666666666</ele><time>2026-04-27T07:47:05Z</time></trkpt><trkpt lat="41.18378574166838" lon="19.543405143693196"><ele>11.333333333333332</ele><time>2026-04-27T07:47:06Z</time></trkpt><trkpt lat="41.1836168097717" lon="19.543527759537323"><ele>11.0</ele><time>2026-04-27T07:47:07Z</time></trkpt><trkpt lat="41.18342490715443" lon="19.543643220389768"><ele>11.333333333333332</ele><time>2026-04-27T07:47:08Z</time></trkpt><trkpt lat="41.1832351196359" lon="19.54378350701301"><ele>11.666666666666666</ele><time>2026-04-27T07:47:09Z</time></trkpt><trkpt lat="41.183061791632035" lon="19.54395287637379"><ele>12.0</ele><time>2026-04-27T07:47:10Z</time></trkpt><trkpt lat="41.182891906508864" lon="19.54409339778163"><ele>12.0</ele><time>2026-04-27T07:47:11Z</time></trkpt><trkpt lat="41.182720007439265" lon="19.544234964581772"><ele>12.0</ele><time>2026-04-27T07:47:12Z</time></trkpt><trkpt lat="41.18254831892832" lon="19.54437839674895"><ele>12.0</ele><time>2026-04-27T07:47:13Z</time></trkpt><trkpt lat="41.18238690432609" lon="19.54451746843599"><ele>12.0</ele><time>2026-04-27T07:47:14Z</time></trkpt><trkpt lat="41.182249478700875" lon="19.544635969119515"><ele>12.0</ele><time>2026-04-27T07:47:15Z</time></trkpt><trkpt lat="41.1821249482788" lon="19.544741608150076"><ele>12.0</ele><time>2026-04-27T07:47:16Z</time></trkpt><trkpt lat="41.182009326195065" lon="19.544845079232736"><ele>12.0</ele><time>2026-04-27T07:47:17Z</time></trkpt><trkpt lat="41.18188877336291" lon="19.54492779773892"><ele>12.0</ele><time>2026-04-27T07:47:18Z</time></trkpt><trkpt lat="41.1817930790346" lon="19.54504113115189"><ele>12.0</ele><time>2026-04-27T07:47:19Z</time></trkpt><trkpt lat="41.181694431285514" lon="19.545127577117427"><ele>12.0</ele><time>2026-04-27T07:47:20Z</time></trkpt><trkpt lat="41.18160031829635" lon="19.54520618594755"><ele>12.0</ele><time>2026-04-27T07:47:21Z</time></trkpt><trkpt lat="41.181506896368944" lon="19.54527054138943"><ele>12.0</ele><time>2026-04-27T07:47:22Z</time></trkpt><trkpt lat="41.181409931761195" lon="19.545305104457146"><ele>12.0</ele><time>2026-04-27T07:47:23Z</time></trkpt><trkpt lat="41.18131844111619" lon="19.545281028058007"><ele>12.0</ele><time>2026-04-27T07:47:24Z</time></trkpt><trkpt lat="41.181235103384694" lon="19.545271376181528"><ele>12.0</ele><time>2026-04-27T07:47:25Z</time></trkpt><trkpt lat="41.18116681181878" lon="19.545240951167592"><ele>12.0</ele><time>2026-04-27T07:47:26Z</time></trkpt><trkpt lat="41.18109651958464" lon="19.54511074211373"><ele>12.0</ele><time>2026-04-27T07:47:28Z</time></trkpt><trkpt lat="41.181052404195555" lon="19.545017305993458"><ele>12.0</ele><time>2026-04-27T07:47:29Z</time></trkpt><trkpt lat="41.180952209291" lon="19.544935430419233"><ele>12.0</ele><time>2026-04-27T07:47:31Z</time></trkpt><trkpt lat="41.18087769421747" lon="19.544905114667795"><ele>12.0</ele><time>2026-04-27T07:47:33Z</time></trkpt><trkpt lat="41.18082644206395" lon="19.544801140775522"><ele>12.0</ele><time>2026-04-27T07:47:35Z</time></trkpt><trkpt lat="41.18078427391206" lon="19.544696535424627"><ele>12.0</ele><time>2026-04-27T07:47:36Z</time></trkpt><trkpt lat="41.180736385357235" lon="19.5445773428443"><ele>12.0</ele><time>2026-04-27T07:47:37Z</time></trkpt><trkpt lat="41.18068567351452" lon="19.544450986310775"><ele>12.0</ele><time>2026-04-27T07:47:38Z</time></trkpt><trkpt lat="41.18063201560762" lon="19.54431635092337"><ele>12.0</ele><time>2026-04-27T07:47:39Z</time></trkpt><trkpt lat="41.18058396518604" lon="19.544196806892785"><ele>12.333333333333334</ele><time>2026-04-27T07:47:40Z</time></trkpt><trkpt lat="41.18054247468464" lon="19.544093299749242"><ele>12.666666666666668</ele><time>2026-04-27T07:47:41Z</time></trkpt><trkpt lat="41.180503043460256" lon="19.54399492990919"><ele>13.0</ele><time>2026-04-27T07:47:42Z</time></trkpt><trkpt lat="41.180449566889386" lon="19.543905502401234"><ele>13.333333333333334</ele><time>2026-04-27T07:47:43Z</time></trkpt><trkpt lat="41.180422770062194" lon="19.543793985772673"><ele>13.666666666666668</ele><time>2026-04-27T07:47:44Z</time></trkpt><trkpt lat="41.18038197459665" lon="19.54369195597616"><ele>14.0</ele><time>2026-04-27T07:47:44.999Z</time></trkpt><trkpt lat="41.18034009084815" lon="19.54358782028586"><ele>14.0</ele><time>2026-04-27T07:47:45.999Z</time></trkpt><trkpt lat="41.18029637579198" lon="19.543479316633007"><ele>13.999999999999998</ele><time>2026-04-27T07:47:46.999Z</time></trkpt><trkpt lat="41.18023931974587" lon="19.5433779155322"><ele>13.999999999999998</ele><time>2026-04-27T07:47:47.999Z</time></trkpt><trkpt lat="41.18019162000173" lon="19.543261238578296"><ele>14.0</ele><time>2026-04-27T07:47:48.999Z</time></trkpt><trkpt lat="41.18015089202061" lon="19.543160857792554"><ele>14.0</ele><time>2026-04-27T07:47:49.999Z</time></trkpt><trkpt lat="41.1801274465252" lon="19.543056407398353"><ele>14.000000000000002</ele><time>2026-04-27T07:47:50.999Z</time></trkpt><trkpt lat="41.18007810295292" lon="19.54297258817833"><ele>14.0</ele><time>2026-04-27T07:47:51.999Z</time></trkpt><trkpt lat="41.18003602206642" lon="19.542865751053743"><ele>14.0</ele><time>2026-04-27T07:47:52.999Z</time></trkpt><trkpt lat="41.17999520139476" lon="19.542767694797476"><ele>14.0</ele><time>2026-04-27T07:47:53.999Z</time></trkpt><trkpt lat="41.1799758486629" lon="19.54267305403229"><ele>14.000000000000002</ele><time>2026-04-27T07:47:54.999Z</time></trkpt><trkpt lat="41.17992651953067" lon="19.542594789253172"><ele>14.0</ele><time>2026-04-27T07:47:55.999Z</time></trkpt><trkpt lat="41.17990858736642" lon="19.54250122124884"><ele>13.799999999999999</ele><time>2026-04-27T07:47:56.999Z</time></trkpt><trkpt lat="41.179867432563775" lon="19.542396082878664"><ele>13.599999999999998</ele><time>2026-04-27T07:47:58.999Z</time></trkpt><trkpt lat="41.17972055884284" lon="19.542385565130598"><ele>13.4</ele><time>2026-04-27T07:48:05.999Z</time></trkpt><trkpt lat="41.17961844603226" lon="19.54247784960286"><ele>13.2</ele><time>2026-04-27T07:48:07.999Z</time></trkpt><trkpt lat="41.179544831123955" lon="19.542513960012027"><ele>13.0</ele><time>2026-04-27T07:48:08.999Z</time></trkpt><trkpt lat="41.17947117000906" lon="19.542576945604537"><ele>13.0</ele><time>2026-04-27T07:48:09.999Z</time></trkpt><trkpt lat="41.17939021538271" lon="19.5426462368671"><ele>13.0</ele><time>2026-04-27T07:48:10.999Z</time></trkpt><trkpt lat="41.17930644676817" lon="19.54271944374577"><ele>13.0</ele><time>2026-04-27T07:48:11.999Z</time></trkpt><trkpt lat="41.17921566432581" lon="19.542799148919272"><ele>13.0</ele><time>2026-04-27T07:48:12.999Z</time></trkpt><trkpt lat="41.17912216520399" lon="19.542889990966053"><ele>13.0</ele><time>2026-04-27T07:48:14Z</time></trkpt><trkpt lat="41.179025729124625" lon="19.54298944823228"><ele>12.75</ele><time>2026-04-27T07:48:15Z</time></trkpt><trkpt lat="41.17893858350268" lon="19.54311377849228"><ele>12.5</ele><time>2026-04-27T07:48:16Z</time></trkpt><trkpt lat="41.1788394794171" lon="19.543222497347276"><ele>12.25</ele><time>2026-04-27T07:48:17Z</time></trkpt><trkpt lat="41.17872664025163" lon="19.54332177646896"><ele>12.0</ele><time>2026-04-27T07:48:18Z</time></trkpt><trkpt lat="41.17862317629734" lon="19.543442391055226"><ele>12.0</ele><time>2026-04-27T07:48:19Z</time></trkpt><trkpt lat="41.17851843766015" lon="19.54356584698647"><ele>12.0</ele><time>2026-04-27T07:48:20Z</time></trkpt><trkpt lat="41.17841042980218" lon="19.543694017478135"><ele>12.0</ele><time>2026-04-27T07:48:21Z</time></trkpt><trkpt lat="41.17830059207669" lon="19.54382390767024"><ele>12.0</ele><time>2026-04-27T07:48:22Z</time></trkpt><trkpt lat="41.17818955765021" lon="19.543954321916548"><ele>12.333333333333332</ele><time>2026-04-27T07:48:23Z</time></trkpt><trkpt lat="41.178077209997426" lon="19.544086770830184"><ele>12.666666666666666</ele><time>2026-04-27T07:48:24Z</time></trkpt><trkpt lat="41.17796308581658" lon="19.54422441826477"><ele>13.0</ele><time>2026-04-27T07:48:25Z</time></trkpt><trkpt lat="41.17786043109192" lon="19.54437683587134"><ele>13.0</ele><time>2026-04-27T07:48:26Z</time></trkpt><trkpt lat="41.177747191375396" lon="19.544511112356684"><ele>13.0</ele><time>2026-04-27T07:48:27Z</time></trkpt><trkpt lat="41.17764856204842" lon="19.544642637829426"><ele>13.0</ele><time>2026-04-27T07:48:28Z</time></trkpt><trkpt lat="41.17755544321601" lon="19.544772420767323"><ele>13.0</ele><time>2026-04-27T07:48:29Z</time></trkpt><trkpt lat="41.17747892870404" lon="19.54489614876462"><ele>13.0</ele><time>2026-04-27T07:48:30Z</time></trkpt><trkpt lat="41.177397428156496" lon="19.544994569083443"><ele>13.0</ele><time>2026-04-27T07:48:31Z</time></trkpt><trkpt lat="41.17732777651718" lon="19.54509595820836"><ele>13.0</ele><time>2026-04-27T07:48:32Z</time></trkpt><trkpt lat="41.17726959032541" lon="19.54520853430243"><ele>13.0</ele><time>2026-04-27T07:48:33Z</time></trkpt><trkpt lat="41.17720542048138" lon="19.54532519901061"><ele>13.0</ele><time>2026-04-27T07:48:34Z</time></trkpt><trkpt lat="41.17715414356054" lon="19.545468421982164"><ele>13.0</ele><time>2026-04-27T07:48:35Z</time></trkpt><trkpt lat="41.177090243206884" lon="19.545583361322436"><ele>13.0</ele><time>2026-04-27T07:48:36Z</time></trkpt><trkpt lat="41.17705601576375" lon="19.545700838439757"><ele>13.0</ele><time>2026-04-27T07:48:37Z</time></trkpt><trkpt lat="41.177070411300804" lon="19.545829256111382"><ele>13.0</ele><time>2026-04-27T07:48:38Z</time></trkpt><trkpt lat="41.177095383274825" lon="19.545943070897945"><ele>13.0</ele><time>2026-04-27T07:48:39Z</time></trkpt><trkpt lat="41.17713109243891" lon="19.546074485746406"><ele>13.0</ele><time>2026-04-27T07:48:40Z</time></trkpt><trkpt lat="41.177167688519916" lon="19.546225795153234"><ele>13.0</ele><time>2026-04-27T07:48:41Z</time></trkpt><trkpt lat="41.17720824399392" lon="19.546392956421805"><ele>13.0</ele><time>2026-04-27T07:48:42Z</time></trkpt><trkpt lat="41.17725139786572" lon="19.546572462296087"><ele>13.0</ele><time>2026-04-27T07:48:43Z</time></trkpt><trkpt lat="41.17729417562373" lon="19.54677042404438"><ele>13.0</ele><time>2026-04-27T07:48:44Z</time></trkpt><trkpt lat="41.177332699763284" lon="19.546976497219894"><ele>13.0</ele><time>2026-04-27T07:48:45Z</time></trkpt><trkpt lat="41.17737301496385" lon="19.54718736916068"><ele>13.0</ele><time>2026-04-27T07:48:46Z</time></trkpt><trkpt lat="41.17741641018655" lon="19.547402177946335"><ele>13.25</ele><time>2026-04-27T07:48:47Z</time></trkpt><trkpt lat="41.17745653863575" lon="19.54760541098775"><ele>13.5</ele><time>2026-04-27T07:48:48Z</time></trkpt><trkpt lat="41.17748657532277" lon="19.54778657023656"><ele>13.75</ele><time>2026-04-27T07:48:49Z</time></trkpt><trkpt lat="41.177512273070164" lon="19.547952927789762"><ele>14.0</ele><time>2026-04-27T07:48:50Z</time></trkpt><trkpt lat="41.17754137617081" lon="19.548113994117855"><ele>14.0</ele><time>2026-04-27T07:48:51Z</time></trkpt><trkpt lat="41.177568343963834" lon="19.548269507636384"><ele>13.999999999999998</ele><time>2026-04-27T07:48:52Z</time></trkpt><trkpt lat="41.177580231089046" lon="19.548411772486375"><ele>13.999999999999998</ele><time>2026-04-27T07:48:53Z</time></trkpt><trkpt lat="41.177598496158225" lon="19.548519168834062"><ele>14.0</ele><time>2026-04-27T07:48:54Z</time></trkpt><trkpt lat="41.17761984340176" lon="19.54864468798616"><ele>14.0</ele><time>2026-04-27T07:48:56Z</time></trkpt><trkpt lat="41.17760291794071" lon="19.548736734096007"><ele>14.0</ele><time>2026-04-27T07:48:58Z</time></trkpt><trkpt lat="41.17752385408849" lon="19.548756177110906"><ele>13.999999999999998</ele><time>2026-04-27T07:48:59Z</time></trkpt><trkpt lat="41.177451188917416" lon="19.54881660626912"><ele>13.999999999999998</ele><time>2026-04-27T07:49:00Z</time></trkpt><trkpt lat="41.177368986942355" lon="19.54889947685932"><ele>14.0</ele><time>2026-04-27T07:49:01Z</time></trkpt><trkpt lat="41.17727323045328" lon="19.548984584551"><ele>14.0</ele><time>2026-04-27T07:49:02Z</time></trkpt><trkpt lat="41.17717844346117" lon="19.549076299563986"><ele>14.0</ele><time>2026-04-27T07:49:03Z</time></trkpt><trkpt lat="41.177102945290194" lon="19.54913133199696"><ele>13.999999999999998</ele><time>2026-04-27T07:49:04Z</time></trkpt><trkpt lat="41.17702731512331" lon="19.549151784542573"><ele>13.999999999999998</ele><time>2026-04-27T07:49:05Z</time></trkpt><trkpt lat="41.17689659179248" lon="19.549126760404853"><ele>14.0</ele><time>2026-04-27T07:49:07Z</time></trkpt><trkpt lat="41.176827337429636" lon="19.54908482213676"><ele>14.0</ele><time>2026-04-27T07:49:08Z</time></trkpt><trkpt lat="41.176737704566314" lon="19.54904353526096"><ele>14.000000000000002</ele><time>2026-04-27T07:49:10Z</time></trkpt><trkpt lat="41.17667617907937" lon="19.54901489245895"><ele>14.0</ele><time>2026-04-27T07:49:11Z</time></trkpt><trkpt lat="41.17660388481588" lon="19.548981236320767"><ele>14.0</ele><time>2026-04-27T07:49:12Z</time></trkpt><trkpt lat="41.17652273416078" lon="19.548964785354134"><ele>14.0</ele><time>2026-04-27T07:49:13Z</time></trkpt><trkpt lat="41.1764588501963" lon="19.54892951751668"><ele>14.000000000000002</ele><time>2026-04-27T07:49:14Z</time></trkpt><trkpt lat="41.17634733480896" lon="19.548870577063084"><ele>14.0</ele><time>2026-04-27T07:49:16Z</time></trkpt><trkpt lat="41.17624851113759" lon="19.54882475128852"><ele>14.0</ele><time>2026-04-27T07:49:18Z</time></trkpt><trkpt lat="41.17618577709364" lon="19.548809125205945"><ele>13.999999999999998</ele><time>2026-04-27T07:49:24Z</time></trkpt><trkpt lat="41.176251509999005" lon="19.548821136537644"><ele>13.999999999999998</ele><time>2026-04-27T07:49:35Z</time></trkpt><trkpt lat="41.176371819082284" lon="19.548882089633192"><ele>14.0</ele><time>2026-04-27T07:49:37Z</time></trkpt><trkpt lat="41.176511904521725" lon="19.54874627020481"><ele>14.0</ele><time>2026-04-27T07:49:38Z</time></trkpt><trkpt lat="41.17663171999858" lon="19.548786999989545"><ele>14.0</ele><time>2026-04-27T07:49:39Z</time></trkpt><trkpt lat="41.17671825262632" lon="19.54881736887276"><ele>14.0</ele><time>2026-04-27T07:49:40Z</time></trkpt><trkpt lat="41.17681333018248" lon="19.548847354910787"><ele>14.0</ele><time>2026-04-27T07:49:42Z</time></trkpt><trkpt lat="41.17676698915603" lon="19.549228879464682"><ele>14.0</ele><time>2026-04-27T07:49:45Z</time></trkpt><trkpt lat="41.17671892802819" lon="19.54933307068177"><ele>13.999999999999998</ele><time>2026-04-27T07:49:47Z</time></trkpt><trkpt lat="41.17666210368137" lon="19.54944943423649"><ele>13.999999999999998</ele><time>2026-04-27T07:49:48.999Z</time></trkpt><trkpt lat="41.17660133985189" lon="19.54952761172385"><ele>14.0</ele><time>2026-04-27T07:49:49.999Z</time></trkpt><trkpt lat="41.17651068919067" lon="19.54961661896968"><ele>14.0</ele><time>2026-04-27T07:49:50.999Z</time></trkpt><trkpt lat="41.1763805278357" lon="19.54973740795486"><ele>13.666666666666668</ele><time>2026-04-27T07:49:51.999Z</time></trkpt><trkpt lat="41.176246590060714" lon="19.549860265720774"><ele>13.333333333333332</ele><time>2026-04-27T07:49:52.999Z</time></trkpt><trkpt lat="41.1761262180292" lon="19.54997215469711"><ele>13.0</ele><time>2026-04-27T07:49:53.999Z</time></trkpt><trkpt lat="41.17600402360953" lon="19.55009007165235"><ele>13.0</ele><time>2026-04-27T07:49:54.999Z</time></trkpt><trkpt lat="41.17587758903133" lon="19.550218913534003"><ele>13.0</ele><time>2026-04-27T07:49:55.999Z</time></trkpt><trkpt lat="41.17574105490032" lon="19.55035805276354"><ele>13.0</ele><time>2026-04-27T07:49:56.999Z</time></trkpt><trkpt lat="41.17560014473191" lon="19.550506447393854"><ele>12.666666666666666</ele><time>2026-04-27T07:49:57.999Z</time></trkpt><trkpt lat="41.175452006890104" lon="19.550681485929992"><ele>12.333333333333332</ele><time>2026-04-27T07:49:58.999Z</time></trkpt><trkpt lat="41.175317249863305" lon="19.550851088489026"><ele>12.0</ele><time>2026-04-27T07:49:59.999Z</time></trkpt><trkpt lat="41.17518939692676" lon="19.551019091348053"><ele>12.0</ele><time>2026-04-27T07:50:00.999Z</time></trkpt><trkpt lat="41.175040068564904" lon="19.551169555654248"><ele>12.0</ele><time>2026-04-27T07:50:01.999Z</time></trkpt><trkpt lat="41.174909483101935" lon="19.551349029892332"><ele>12.0</ele><time>2026-04-27T07:50:02.999Z</time></trkpt><trkpt lat="41.17476493602373" lon="19.551511264460274"><ele>13.0</ele><time>2026-04-27T07:50:03.999Z</time></trkpt><trkpt lat="41.17463165927534" lon="19.551661490561322"><ele>14.0</ele><time>2026-04-27T07:50:04.999Z</time></trkpt><trkpt lat="41.17450787894123" lon="19.551816069024486"><ele>15.0</ele><time>2026-04-27T07:50:05.999Z</time></trkpt><trkpt lat="41.174369542119045" lon="19.551964186373"><ele>15.0</ele><time>2026-04-27T07:50:06.999Z</time></trkpt><trkpt lat="41.17424679184504" lon="19.55213123875787"><ele>15.0</ele><time>2026-04-27T07:50:07.999Z</time></trkpt><trkpt lat="41.17414409626261" lon="19.552292021392905"><ele>15.0</ele><time>2026-04-27T07:50:08.999Z</time></trkpt><trkpt lat="41.174030420523906" lon="19.552451067098602"><ele>14.666666666666668</ele><time>2026-04-27T07:50:09.999Z</time></trkpt><trkpt lat="41.17391717243442" lon="19.55262348426599"><ele>14.333333333333334</ele><time>2026-04-27T07:50:10.999Z</time></trkpt><trkpt lat="41.17378873274048" lon="19.552789997308334"><ele>14.0</ele><time>2026-04-27T07:50:11.999Z</time></trkpt><trkpt lat="41.173683196148225" lon="19.55295414200743"><ele>14.0</ele><time>2026-04-27T07:50:12.999Z</time></trkpt><trkpt lat="41.17358318786579" lon="19.553109910401137"><ele>14.0</ele><time>2026-04-27T07:50:13.999Z</time></trkpt><trkpt lat="41.173493189625916" lon="19.553247887931473"><ele>14.0</ele><time>2026-04-27T07:50:14.999Z</time></trkpt><trkpt lat="41.173413211064315" lon="19.553369525111417"><ele>14.0</ele><time>2026-04-27T07:50:15.999Z</time></trkpt><trkpt lat="41.17334141944892" lon="19.553478710994384"><ele>14.000000000000002</ele><time>2026-04-27T07:50:16.999Z</time></trkpt><trkpt lat="41.17328884882836" lon="19.553591473439184"><ele>14.0</ele><time>2026-04-27T07:50:17.999Z</time></trkpt><trkpt lat="41.17322692062" lon="19.55368091461817"><ele>14.0</ele><time>2026-04-27T07:50:18.999Z</time></trkpt><trkpt lat="41.17317215571546" lon="19.55376339386089"><ele>14.0</ele><time>2026-04-27T07:50:20Z</time></trkpt><trkpt lat="41.173112234514136" lon="19.553828357623704"><ele>14.000000000000002</ele><time>2026-04-27T07:50:21Z</time></trkpt><trkpt lat="41.173066015374005" lon="19.5538990623183"><ele>14.0</ele><time>2026-04-27T07:50:22Z</time></trkpt><trkpt lat="41.173028133600575" lon="19.55397175470774"><ele>13.75</ele><time>2026-04-27T07:50:23Z</time></trkpt><trkpt lat="41.17290091489566" lon="19.553935465789817"><ele>13.5</ele><time>2026-04-27T07:50:25Z</time></trkpt><trkpt lat="41.17284522344375" lon="19.553842989089006"><ele>13.25</ele><time>2026-04-27T07:50:26Z</time></trkpt><trkpt lat="41.1727903733321" lon="19.553715407548516"><ele>13.0</ele><time>2026-04-27T07:50:27Z</time></trkpt><trkpt lat="41.17272388689171" lon="19.553558014629225"><ele>13.0</ele><time>2026-04-27T07:50:28Z</time></trkpt><trkpt lat="41.17264574327774" lon="19.553403144368293"><ele>13.0</ele><time>2026-04-27T07:50:29Z</time></trkpt><trkpt lat="41.17260088477356" lon="19.55328049302928"><ele>13.0</ele><time>2026-04-27T07:50:30Z</time></trkpt><trkpt lat="41.172507731922096" lon="19.5532188488373"><ele>13.0</ele><time>2026-04-27T07:50:31Z</time></trkpt><trkpt lat="41.17242024629793" lon="19.55318528833179"><ele>13.0</ele><time>2026-04-27T07:50:32Z</time></trkpt><trkpt lat="41.17231080641824" lon="19.55326530456408"><ele>12.600000000000001</ele><time>2026-04-27T07:50:33Z</time></trkpt><trkpt lat="41.17221772248243" lon="19.553325502904237"><ele>12.200000000000001</ele><time>2026-04-27T07:50:34Z</time></trkpt><trkpt lat="41.17211982740953" lon="19.55341425514078"><ele>11.8</ele><time>2026-04-27T07:50:35Z</time></trkpt><trkpt lat="41.17200870022171" lon="19.553482294086166"><ele>11.4</ele><time>2026-04-27T07:50:36Z</time></trkpt><trkpt lat="41.171925386510104" lon="19.553540055992286"><ele>11.0</ele><time>2026-04-27T07:50:37Z</time></trkpt><trkpt lat="41.171866406257855" lon="19.553616827992883"><ele>11.0</ele><time>2026-04-27T07:50:38Z</time></trkpt><trkpt lat="41.17182113766987" lon="19.55367905203233"><ele>11.0</ele><time>2026-04-27T07:50:39Z</time></trkpt><trkpt lat="41.171858435196675" lon="19.553818403028203"><ele>11.0</ele><time>2026-04-27T07:50:40Z</time></trkpt><trkpt lat="41.17188900921289" lon="19.55392812346984"><ele>11.0</ele><time>2026-04-27T07:50:41Z</time></trkpt><trkpt lat="41.17193181371842" lon="19.554052753089678"><ele>11.0</ele><time>2026-04-27T07:50:42Z</time></trkpt><trkpt lat="41.171967213530245" lon="19.5541771453267"><ele>11.4</ele><time>2026-04-27T07:50:43Z</time></trkpt><trkpt lat="41.17197238701652" lon="19.554286342753354"><ele>11.8</ele><time>2026-04-27T07:50:44Z</time></trkpt><trkpt lat="41.17194061271244" lon="19.554380948606287"><ele>12.200000000000001</ele><time>2026-04-27T07:50:45Z</time></trkpt><trkpt lat="41.171837642708084" lon="19.554383592734933"><ele>12.600000000000001</ele><time>2026-04-27T07:50:46Z</time></trkpt><trkpt lat="41.17173914228457" lon="19.55442135418965"><ele>13.0</ele><time>2026-04-27T07:50:47Z</time></trkpt><trkpt lat="41.17163027658648" lon="19.554480297672974"><ele>12.999999999999998</ele><time>2026-04-27T07:50:48Z</time></trkpt><trkpt lat="41.171528476949646" lon="19.55453541532854"><ele>13.0</ele><time>2026-04-27T07:50:49Z</time></trkpt><trkpt lat="41.17144263040219" lon="19.55458189547542"><ele>13.0</ele><time>2026-04-27T07:50:50Z</time></trkpt><trkpt lat="41.171370764434364" lon="19.554620805952453"><ele>13.0</ele><time>2026-04-27T07:50:51Z</time></trkpt><trkpt lat="41.1713264202303" lon="19.554691816412827"><ele>12.999999999999998</ele><time>2026-04-27T07:50:52Z</time></trkpt><trkpt lat="41.1713470639173" lon="19.55481694498642"><ele>13.0</ele><time>2026-04-27T07:50:53Z</time></trkpt><trkpt lat="41.17137656594784" lon="19.55492987496436"><ele>13.0</ele><time>2026-04-27T07:50:54Z</time></trkpt><trkpt lat="41.17142873143062" lon="19.555080571707986"><ele>13.0</ele><time>2026-04-27T07:50:55Z</time></trkpt><trkpt lat="41.17148234044227" lon="19.555261357194624"><ele>13.0</ele><time>2026-04-27T07:50:56Z</time></trkpt><trkpt lat="41.17151991096665" lon="19.555456599457976"><ele>13.0</ele><time>2026-04-27T07:50:57Z</time></trkpt><trkpt lat="41.17154390714367" lon="19.55561987519968"><ele>13.2</ele><time>2026-04-27T07:50:58Z</time></trkpt><trkpt lat="41.171576544670025" lon="19.555767971739545"><ele>13.4</ele><time>2026-04-27T07:50:59Z</time></trkpt><trkpt lat="41.17162025215752" lon="19.555911317765446"><ele>13.599999999999998</ele><time>2026-04-27T07:51:00Z</time></trkpt><trkpt lat="41.171646980040535" lon="19.55603479920118"><ele>13.799999999999999</ele><time>2026-04-27T07:51:01Z</time></trkpt><trkpt lat="41.17164091344778" lon="19.556143347902317"><ele>14.0</ele><time>2026-04-27T07:51:02Z</time></trkpt><trkpt lat="41.171602610084086" lon="19.55625390876814"><ele>13.75</ele><time>2026-04-27T07:51:03Z</time></trkpt><trkpt lat="41.171506850932055" lon="19.556360614521218"><ele>13.5</ele><time>2026-04-27T07:51:04Z</time></trkpt><trkpt lat="41.171409286197814" lon="19.556513149081994"><ele>13.25</ele><time>2026-04-27T07:51:05Z</time></trkpt><trkpt lat="41.17131637359991" lon="19.556690946492292"><ele>13.0</ele><time>2026-04-27T07:51:06Z</time></trkpt><trkpt lat="41.17120017574317" lon="19.556868279005126"><ele>12.666666666666666</ele><time>2026-04-27T07:51:07Z</time></trkpt><trkpt lat="41.17108212659045" lon="19.55704918972421"><ele>12.333333333333332</ele><time>2026-04-27T07:51:08Z</time></trkpt><trkpt lat="41.17096586651142" lon="19.557231161939907"><ele>12.0</ele><time>2026-04-27T07:51:09Z</time></trkpt><trkpt lat="41.17085091844561" lon="19.55741478423118"><ele>12.0</ele><time>2026-04-27T07:51:10Z</time></trkpt><trkpt lat="41.17072758569389" lon="19.557602678991106"><ele>12.0</ele><time>2026-04-27T07:51:11Z</time></trkpt><trkpt lat="41.17060300942563" lon="19.557794059434187"><ele>12.0</ele><time>2026-04-27T07:51:12Z</time></trkpt><trkpt lat="41.17048655049203" lon="19.557981405116248"><ele>13.333333333333332</ele><time>2026-04-27T07:51:13Z</time></trkpt><trkpt lat="41.17038096226305" lon="19.558149987193698"><ele>14.666666666666666</ele><time>2026-04-27T07:51:14Z</time></trkpt><trkpt lat="41.17028157616646" lon="19.558304392588546"><ele>16.0</ele><time>2026-04-27T07:51:15Z</time></trkpt><trkpt lat="41.17018055687994" lon="19.558460391198683"><ele>16.0</ele><time>2026-04-27T07:51:16Z</time></trkpt><trkpt lat="41.1700796660653" lon="19.55862055181095"><ele>16.0</ele><time>2026-04-27T07:51:17Z</time></trkpt><trkpt lat="41.16998527541568" lon="19.558760408195262"><ele>16.0</ele><time>2026-04-27T07:51:18Z</time></trkpt><trkpt lat="41.16988843795341" lon="19.558899130979334"><ele>16.0</ele><time>2026-04-27T07:51:19Z</time></trkpt><trkpt lat="41.16977067451136" lon="19.559018708658996"><ele>16.25</ele><time>2026-04-27T07:51:20Z</time></trkpt><trkpt lat="41.16971283629791" lon="19.559186163578165"><ele>16.5</ele><time>2026-04-27T07:51:21Z</time></trkpt><trkpt lat="41.169627479553995" lon="19.559322640704856"><ele>16.75</ele><time>2026-04-27T07:51:22Z</time></trkpt><trkpt lat="41.169538760439444" lon="19.559473860273457"><ele>17.0</ele><time>2026-04-27T07:51:23Z</time></trkpt><trkpt lat="41.169441511215865" lon="19.559638039806376"><ele>17.0</ele><time>2026-04-27T07:51:24Z</time></trkpt><trkpt lat="41.16933679038427" lon="19.55980196549683"><ele>17.0</ele><time>2026-04-27T07:51:25Z</time></trkpt><trkpt lat="41.1692309936464" lon="19.559965178306676"><ele>17.0</ele><time>2026-04-27T07:51:26Z</time></trkpt><trkpt lat="41.16911994557362" lon="19.560135869331567"><ele>17.333333333333336</ele><time>2026-04-27T07:51:27Z</time></trkpt><trkpt lat="41.16900611434796" lon="19.560309521320363"><ele>17.666666666666668</ele><time>2026-04-27T07:51:28Z</time></trkpt><trkpt lat="41.168891910519" lon="19.560487523405985"><ele>18.0</ele><time>2026-04-27T07:51:29Z</time></trkpt><trkpt lat="41.16876943582841" lon="19.560678801634623"><ele>18.333333333333332</ele><time>2026-04-27T07:51:30Z</time></trkpt><trkpt lat="41.16864775598173" lon="19.56087062253842"><ele>18.666666666666664</ele><time>2026-04-27T07:51:31Z</time></trkpt><trkpt lat="41.168532209813144" lon="19.561058068291864"><ele>19.0</ele><time>2026-04-27T07:51:32Z</time></trkpt><trkpt lat="41.16842187915609" lon="19.561230144244618"><ele>19.0</ele><time>2026-04-27T07:51:33Z</time></trkpt><trkpt lat="41.1683096626803" lon="19.56139983798617"><ele>19.0</ele><time>2026-04-27T07:51:34Z</time></trkpt><trkpt lat="41.168197076826125" lon="19.561576020341313"><ele>19.0</ele><time>2026-04-27T07:51:35Z</time></trkpt><trkpt lat="41.168086771385816" lon="19.56175628801867"><ele>19.0</ele><time>2026-04-27T07:51:36Z</time></trkpt><trkpt lat="41.167968430189745" lon="19.561943599172455"><ele>19.0</ele><time>2026-04-27T07:51:37Z</time></trkpt><trkpt lat="41.16784248655533" lon="19.562137488257527"><ele>19.0</ele><time>2026-04-27T07:51:38Z</time></trkpt><trkpt lat="41.16770950271023" lon="19.56234012376219"><ele>19.333333333333332</ele><time>2026-04-27T07:51:39Z</time></trkpt><trkpt lat="41.16757327024641" lon="19.56255477522378"><ele>19.666666666666668</ele><time>2026-04-27T07:51:40Z</time></trkpt><trkpt lat="41.167436434015244" lon="19.562773185993063"><ele>20.0</ele><time>2026-04-27T07:51:41Z</time></trkpt><trkpt lat="41.16730020467624" lon="19.562987800796325"><ele>19.333333333333336</ele><time>2026-04-27T07:51:42Z</time></trkpt><trkpt lat="41.1671613761636" lon="19.56320567753963"><ele>18.666666666666668</ele><time>2026-04-27T07:51:43Z</time></trkpt><trkpt lat="41.16702157508176" lon="19.563422544168517"><ele>18.0</ele><time>2026-04-27T07:51:44Z</time></trkpt><trkpt lat="41.166882964373265" lon="19.563636123989294"><ele>18.666666666666668</ele><time>2026-04-27T07:51:45Z</time></trkpt><trkpt lat="41.1667433687526" lon="19.563851686590663"><ele>19.333333333333336</ele><time>2026-04-27T07:51:46Z</time></trkpt><trkpt lat="41.16661533022847" lon="19.56405340909296"><ele>20.0</ele><time>2026-04-27T07:51:47Z</time></trkpt><trkpt lat="41.16649038975139" lon="19.56424993659262"><ele>20.0</ele><time>2026-04-27T07:51:48Z</time></trkpt><trkpt lat="41.166361269997246" lon="19.564443946229574"><ele>20.0</ele><time>2026-04-27T07:51:49Z</time></trkpt><trkpt lat="41.166229832774036" lon="19.56464490347938"><ele>20.0</ele><time>2026-04-27T07:51:50Z</time></trkpt><trkpt lat="41.166100405266945" lon="19.564846814179912"><ele>20.666666666666668</ele><time>2026-04-27T07:51:51Z</time></trkpt><trkpt lat="41.16597241362585" lon="19.565050386068403"><ele>21.333333333333332</ele><time>2026-04-27T07:51:52Z</time></trkpt><trkpt lat="41.16585326549849" lon="19.565235781097357"><ele>22.0</ele><time>2026-04-27T07:51:53Z</time></trkpt><trkpt lat="41.165740809017926" lon="19.56540199314423"><ele>21.666666666666664</ele><time>2026-04-27T07:51:54Z</time></trkpt><trkpt lat="41.16563294647683" lon="19.56556615779072"><ele>21.333333333333332</ele><time>2026-04-27T07:51:55Z</time></trkpt><trkpt lat="41.16552206902874" lon="19.56574342689699"><ele>21.0</ele><time>2026-04-27T07:51:55.999Z</time></trkpt><trkpt lat="41.165410921803065" lon="19.56592292005946"><ele>21.0</ele><time>2026-04-27T07:51:56.999Z</time></trkpt><trkpt lat="41.16529590910971" lon="19.566106341913972"><ele>21.0</ele><time>2026-04-27T07:51:57.999Z</time></trkpt><trkpt lat="41.16518156762989" lon="19.566290043267532"><ele>21.0</ele><time>2026-04-27T07:51:58.999Z</time></trkpt><trkpt lat="41.165063468813976" lon="19.566475998851313"><ele>21.0</ele><time>2026-04-27T07:51:59.999Z</time></trkpt><trkpt lat="41.16495623147009" lon="19.56663977328986"><ele>21.0</ele><time>2026-04-27T07:52:00.999Z</time></trkpt><trkpt lat="41.16485388777986" lon="19.566802976495666"><ele>21.0</ele><time>2026-04-27T07:52:01.999Z</time></trkpt><trkpt lat="41.16474846632873" lon="19.566977603737914"><ele>21.333333333333332</ele><time>2026-04-27T07:52:02.999Z</time></trkpt><trkpt lat="41.16463617625769" lon="19.567150410088384"><ele>21.666666666666664</ele><time>2026-04-27T07:52:03.999Z</time></trkpt><trkpt lat="41.16452402342494" lon="19.56731900758844"><ele>22.0</ele><time>2026-04-27T07:52:04.999Z</time></trkpt><trkpt lat="41.164422947351355" lon="19.56747483747626"><ele>22.0</ele><time>2026-04-27T07:52:05.999Z</time></trkpt><trkpt lat="41.16432916398823" lon="19.567612822723884"><ele>22.0</ele><time>2026-04-27T07:52:06.999Z</time></trkpt><trkpt lat="41.164240649491425" lon="19.56774618806452"><ele>22.0</ele><time>2026-04-27T07:52:07.999Z</time></trkpt><trkpt lat="41.164161178321805" lon="19.567869299849253"><ele>22.0</ele><time>2026-04-27T07:52:08.999Z</time></trkpt><trkpt lat="41.164086083403824" lon="19.567987092174654"><ele>22.200000000000003</ele><time>2026-04-27T07:52:09.999Z</time></trkpt><trkpt lat="41.16401292957924" lon="19.568103629747753"><ele>22.4</ele><time>2026-04-27T07:52:10.999Z</time></trkpt><trkpt lat="41.16394067626901" lon="19.56821049579409"><ele>22.6</ele><time>2026-04-27T07:52:11.999Z</time></trkpt><trkpt lat="41.163877169891045" lon="19.568300560093284"><ele>22.799999999999997</ele><time>2026-04-27T07:52:12.999Z</time></trkpt><trkpt lat="41.16381141470915" lon="19.56839246462488"><ele>23.0</ele><time>2026-04-27T07:52:13.999Z</time></trkpt><trkpt lat="41.16373398540298" lon="19.56850819827118"><ele>23.0</ele><time>2026-04-27T07:52:14.999Z</time></trkpt><trkpt lat="41.16364611427453" lon="19.56864716129175"><ele>23.0</ele><time>2026-04-27T07:52:15.999Z</time></trkpt><trkpt lat="41.163552660595634" lon="19.568799336449928"><ele>23.0</ele><time>2026-04-27T07:52:16.999Z</time></trkpt><trkpt lat="41.163451292017335" lon="19.568958716884648"><ele>23.0</ele><time>2026-04-27T07:52:17.999Z</time></trkpt><trkpt lat="41.16333976551473" lon="19.569125357744863"><ele>23.333333333333336</ele><time>2026-04-27T07:52:18.999Z</time></trkpt><trkpt lat="41.16322081446064" lon="19.569302831851267"><ele>23.666666666666668</ele><time>2026-04-27T07:52:19.999Z</time></trkpt><trkpt lat="41.16310045910862" lon="19.569482405184562"><ele>24.0</ele><time>2026-04-27T07:52:20.999Z</time></trkpt><trkpt lat="41.162973787915604" lon="19.56966442719497"><ele>24.0</ele><time>2026-04-27T07:52:21.999Z</time></trkpt><trkpt lat="41.16284113658131" lon="19.569851002291127"><ele>24.0</ele><time>2026-04-27T07:52:22.999Z</time></trkpt><trkpt lat="41.162710977315896" lon="19.570038225636438"><ele>24.0</ele><time>2026-04-27T07:52:23.999Z</time></trkpt><trkpt lat="41.16260094921663" lon="19.5702115189304"><ele>24.333333333333336</ele><time>2026-04-27T07:52:24.999Z</time></trkpt><trkpt lat="41.1625007086207" lon="19.570370390249593"><ele>24.666666666666668</ele><time>2026-04-27T07:52:26Z</time></trkpt><trkpt lat="41.16240232145444" lon="19.57052450331464"><ele>25.0</ele><time>2026-04-27T07:52:27Z</time></trkpt><trkpt lat="41.16229963044536" lon="19.57068354564372"><ele>25.0</ele><time>2026-04-27T07:52:28Z</time></trkpt><trkpt lat="41.162191067034854" lon="19.57084961160029"><ele>25.0</ele><time>2026-04-27T07:52:29Z</time></trkpt><trkpt lat="41.16208083873232" lon="19.571023406450944"><ele>25.0</ele><time>2026-04-27T07:52:30Z</time></trkpt><trkpt lat="41.161978027986535" lon="19.57118581255577"><ele>24.8</ele><time>2026-04-27T07:52:31Z</time></trkpt><trkpt lat="41.16188649000152" lon="19.571330709607007"><ele>24.6</ele><time>2026-04-27T07:52:32Z</time></trkpt><trkpt lat="41.16180769937419" lon="19.571457380658043"><ele>24.4</ele><time>2026-04-27T07:52:33Z</time></trkpt><trkpt lat="41.16174416200547" lon="19.571561064970528"><ele>24.2</ele><time>2026-04-27T07:52:34Z</time></trkpt><trkpt lat="41.16169525177901" lon="19.571643616677182"><ele>24.0</ele><time>2026-04-27T07:52:35Z</time></trkpt><trkpt lat="41.16164576598349" lon="19.571713692071874"><ele>24.0</ele><time>2026-04-27T07:52:36Z</time></trkpt><trkpt lat="41.16159464296593" lon="19.571777882312066"><ele>24.0</ele><time>2026-04-27T07:52:37Z</time></trkpt><trkpt lat="41.161549413358024" lon="19.571844217336473"><ele>24.0</ele><time>2026-04-27T07:52:38Z</time></trkpt><trkpt lat="41.161497855817366" lon="19.57192414569793"><ele>24.0</ele><time>2026-04-27T07:52:39Z</time></trkpt><trkpt lat="41.16144892432952" lon="19.571997942269594"><ele>24.0</ele><time>2026-04-27T07:52:40Z</time></trkpt><trkpt lat="41.16139760148203" lon="19.572089996421163"><ele>24.0</ele><time>2026-04-27T07:52:41Z</time></trkpt><trkpt lat="41.161320130210974" lon="19.572172528839268"><ele>24.5</ele><time>2026-04-27T07:52:42Z</time></trkpt><trkpt lat="41.16124626167208" lon="19.572281947526534"><ele>25.0</ele><time>2026-04-27T07:52:43Z</time></trkpt><trkpt lat="41.16116056958433" lon="19.572408853504186"><ele>25.5</ele><time>2026-04-27T07:52:44Z</time></trkpt><trkpt lat="41.16106242095024" lon="19.57255420258109"><ele>26.0</ele><time>2026-04-27T07:52:45Z</time></trkpt><trkpt lat="41.160961113396866" lon="19.57271512058791"><ele>26.0</ele><time>2026-04-27T07:52:46Z</time></trkpt><trkpt lat="41.16089012589328" lon="19.572854236120644"><ele>26.0</ele><time>2026-04-27T07:52:47Z</time></trkpt><trkpt lat="41.16083504112977" lon="19.57293626141801"><ele>26.0</ele><time>2026-04-27T07:52:48Z</time></trkpt><trkpt lat="41.160772100686394" lon="19.572988120932486"><ele>26.0</ele><time>2026-04-27T07:52:49Z</time></trkpt><trkpt lat="41.160670214226094" lon="19.573039386302185"><ele>26.0</ele><time>2026-04-27T07:52:50Z</time></trkpt><trkpt lat="41.16055416306518" lon="19.573110466421763"><ele>26.25</ele><time>2026-04-27T07:52:51Z</time></trkpt><trkpt lat="41.160452168250536" lon="19.573189069862906"><ele>26.5</ele><time>2026-04-27T07:52:52Z</time></trkpt><trkpt lat="41.160336433340206" lon="19.57321906423776"><ele>26.75</ele><time>2026-04-27T07:52:53Z</time></trkpt><trkpt lat="41.16021874873813" lon="19.573303389337724"><ele>27.0</ele><time>2026-04-27T07:52:54Z</time></trkpt><trkpt lat="41.16008186005408" lon="19.573401481470153"><ele>27.0</ele><time>2026-04-27T07:52:55Z</time></trkpt><trkpt lat="41.159966825374106" lon="19.573482748936378"><ele>27.0</ele><time>2026-04-27T07:52:56Z</time></trkpt><trkpt lat="41.159855137433325" lon="19.573561694737283"><ele>27.0</ele><time>2026-04-27T07:52:57Z</time></trkpt><trkpt lat="41.15974854773284" lon="19.573635913199894"><ele>27.0</ele><time>2026-04-27T07:52:58Z</time></trkpt><trkpt lat="41.159657585199476" lon="19.573698663924095"><ele>26.833333333333332</ele><time>2026-04-27T07:52:59Z</time></trkpt><trkpt lat="41.159584868424595" lon="19.573749612374208"><ele>26.666666666666664</ele><time>2026-04-27T07:53:00Z</time></trkpt><trkpt lat="41.15949766473698" lon="19.57381365770071"><ele>26.5</ele><time>2026-04-27T07:53:02Z</time></trkpt><trkpt lat="41.15943791185356" lon="19.573853811389718"><ele>26.333333333333332</ele><time>2026-04-27T07:53:04Z</time></trkpt><trkpt lat="41.15938828501864" lon="19.573763872261594"><ele>26.166666666666664</ele><time>2026-04-27T07:53:06Z</time></trkpt><trkpt lat="41.1592846439391" lon="19.57369926709408"><ele>26.0</ele><time>2026-04-27T07:53:08Z</time></trkpt><trkpt lat="41.159220890096755" lon="19.573642787795603"><ele>26.0</ele><time>2026-04-27T07:53:09Z</time></trkpt><trkpt lat="41.15914321976186" lon="19.57357960987615"><ele>26.0</ele><time>2026-04-27T07:53:10Z</time></trkpt><trkpt lat="41.15906771627021" lon="19.573488052494287"><ele>26.0</ele><time>2026-04-27T07:53:11Z</time></trkpt><trkpt lat="41.15897971721415" lon="19.57341180365008"><ele>26.0</ele><time>2026-04-27T07:53:12Z</time></trkpt><trkpt lat="41.15888672542981" lon="19.57333122877068"><ele>26.0</ele><time>2026-04-27T07:53:13Z</time></trkpt><trkpt lat="41.15879077001529" lon="19.57324867623896"><ele>25.75</ele><time>2026-04-27T07:53:14Z</time></trkpt><trkpt lat="41.15868752287044" lon="19.57315999940453"><ele>25.5</ele><time>2026-04-27T07:53:15Z</time></trkpt><trkpt lat="41.158576822211586" lon="19.573064920897146"><ele>25.25</ele><time>2026-04-27T07:53:16Z</time></trkpt><trkpt lat="41.158455802661166" lon="19.57298210618166"><ele>25.0</ele><time>2026-04-27T07:53:17Z</time></trkpt><trkpt lat="41.158350308890086" lon="19.572889288408284"><ele>25.0</ele><time>2026-04-27T07:53:18Z</time></trkpt><trkpt lat="41.15824157767335" lon="19.572793636519656"><ele>25.0</ele><time>2026-04-27T07:53:19Z</time></trkpt><trkpt lat="41.15812578437189" lon="19.572688348276973"><ele>25.0</ele><time>2026-04-27T07:53:20Z</time></trkpt><trkpt lat="41.15800460755887" lon="19.57258172589383"><ele>25.0</ele><time>2026-04-27T07:53:21Z</time></trkpt><trkpt lat="41.157881504494604" lon="19.572474116120244"><ele>25.333333333333336</ele><time>2026-04-27T07:53:22Z</time></trkpt><trkpt lat="41.15775258033418" lon="19.572368570081974"><ele>25.666666666666664</ele><time>2026-04-27T07:53:23Z</time></trkpt><trkpt lat="41.15762163838974" lon="19.572258324557158"><ele>26.0</ele><time>2026-04-27T07:53:24Z</time></trkpt><trkpt lat="41.15748946656991" lon="19.572136438641536"><ele>25.666666666666664</ele><time>2026-04-27T07:53:25Z</time></trkpt><trkpt lat="41.15735480643848" lon="19.572021380963523"><ele>25.333333333333336</ele><time>2026-04-27T07:53:26Z</time></trkpt><trkpt lat="41.1572289525209" lon="19.571882103389946"><ele>25.0</ele><time>2026-04-27T07:53:27Z</time></trkpt><trkpt lat="41.15708795487128" lon="19.571755556180044"><ele>25.0</ele><time>2026-04-27T07:53:28Z</time></trkpt><trkpt lat="41.156956154927094" lon="19.571636879733752"><ele>25.0</ele><time>2026-04-27T07:53:29Z</time></trkpt><trkpt lat="41.15683560137179" lon="19.57152889202493"><ele>25.0</ele><time>2026-04-27T07:53:30Z</time></trkpt><trkpt lat="41.15669917847196" lon="19.571441091923173"><ele>25.0</ele><time>2026-04-27T07:53:31Z</time></trkpt><trkpt lat="41.15654617056195" lon="19.57130990196051"><ele>25.0</ele><time>2026-04-27T07:53:32Z</time></trkpt><trkpt lat="41.156356682247505" lon="19.57114974862797"><ele>25.0</ele><time>2026-04-27T07:53:33Z</time></trkpt><trkpt lat="41.156158635583765" lon="19.570975086871123"><ele>24.5</ele><time>2026-04-27T07:53:34Z</time></trkpt><trkpt lat="41.15597838449038" lon="19.570778112302243"><ele>24.0</ele><time>2026-04-27T07:53:35Z</time></trkpt><trkpt lat="41.15577482657919" lon="19.570602389325867"><ele>24.0</ele><time>2026-04-27T07:53:36Z</time></trkpt><trkpt lat="41.155577834071686" lon="19.57043258857957"><ele>24.0</ele><time>2026-04-27T07:53:37Z</time></trkpt><trkpt lat="41.155394013504036" lon="19.570274197709526"><ele>24.333333333333336</ele><time>2026-04-27T07:53:38Z</time></trkpt><trkpt lat="41.15520651814361" lon="19.570136081826444"><ele>24.666666666666668</ele><time>2026-04-27T07:53:39Z</time></trkpt><trkpt lat="41.155025684901005" lon="19.569978939965697"><ele>25.0</ele><time>2026-04-27T07:53:40Z</time></trkpt><trkpt lat="41.154860969888105" lon="19.569814029754642"><ele>25.0</ele><time>2026-04-27T07:53:41Z</time></trkpt><trkpt lat="41.15469257743598" lon="19.569668860685397"><ele>25.0</ele><time>2026-04-27T07:53:42Z</time></trkpt><trkpt lat="41.15452060013133" lon="19.569527653110725"><ele>25.0</ele><time>2026-04-27T07:53:43Z</time></trkpt><trkpt lat="41.15435441581402" lon="19.569382181290894"><ele>24.333333333333336</ele><time>2026-04-27T07:53:44Z</time></trkpt><trkpt lat="41.15418445319762" lon="19.5692397121697"><ele>23.666666666666668</ele><time>2026-04-27T07:53:45Z</time></trkpt><trkpt lat="41.15401219723411" lon="19.56909104977757"><ele>23.0</ele><time>2026-04-27T07:53:46Z</time></trkpt><trkpt lat="41.153839768945986" lon="19.568936736170908"><ele>22.666666666666668</ele><time>2026-04-27T07:53:47Z</time></trkpt><trkpt lat="41.15367337466754" lon="19.56879170018473"><ele>22.333333333333332</ele><time>2026-04-27T07:53:48Z</time></trkpt><trkpt lat="41.15351268776758" lon="19.568655662993297"><ele>22.0</ele><time>2026-04-27T07:53:49Z</time></trkpt><trkpt lat="41.15335055370912" lon="19.568516127625404"><ele>22.333333333333332</ele><time>2026-04-27T07:53:50Z</time></trkpt><trkpt lat="41.153196352296575" lon="19.568382261766573"><ele>22.666666666666668</ele><time>2026-04-27T07:53:51Z</time></trkpt><trkpt lat="41.15305691779776" lon="19.56825829859529"><ele>23.0</ele><time>2026-04-27T07:53:52Z</time></trkpt><trkpt lat="41.15293316451819" lon="19.568146278540144"><ele>23.0</ele><time>2026-04-27T07:53:53Z</time></trkpt><trkpt lat="41.15281714488131" lon="19.568044746080762"><ele>23.0</ele><time>2026-04-27T07:53:54Z</time></trkpt><trkpt lat="41.15269971150755" lon="19.56794780695382"><ele>23.0</ele><time>2026-04-27T07:53:55Z</time></trkpt><trkpt lat="41.15257777236332" lon="19.567842215445367"><ele>23.0</ele><time>2026-04-27T07:53:56Z</time></trkpt><trkpt lat="41.15246222669634" lon="19.567741987940426"><ele>23.0</ele><time>2026-04-27T07:53:57Z</time></trkpt><trkpt lat="41.15236032205528" lon="19.567660150799234"><ele>23.0</ele><time>2026-04-27T07:53:58Z</time></trkpt><trkpt lat="41.15228865145419" lon="19.56759684737528"><ele>23.0</ele><time>2026-04-27T07:53:59Z</time></trkpt><trkpt lat="41.15221859950182" lon="19.56753725788622"><ele>23.0</ele><time>2026-04-27T07:54:00Z</time></trkpt><trkpt lat="41.152144750699414" lon="19.5674771587068"><ele>23.0</ele><time>2026-04-27T07:54:01Z</time></trkpt><trkpt lat="41.152080239539536" lon="19.567426148182065"><ele>23.0</ele><time>2026-04-27T07:54:02Z</time></trkpt><trkpt lat="41.15202088689985" lon="19.56737009030958"><ele>23.0</ele><time>2026-04-27T07:54:03Z</time></trkpt><trkpt lat="41.15195698178948" lon="19.567304536724897"><ele>23.0</ele><time>2026-04-27T07:54:04Z</time></trkpt><trkpt lat="41.15188579442413" lon="19.56723042334349"><ele>23.0</ele><time>2026-04-27T07:54:05Z</time></trkpt><trkpt lat="41.1517978360434" lon="19.567151392195736"><ele>23.0</ele><time>2026-04-27T07:54:05.999Z</time></trkpt><trkpt lat="41.15169588850434" lon="19.567058707969238"><ele>23.0</ele><time>2026-04-27T07:54:06.999Z</time></trkpt><trkpt lat="41.151578359068964" lon="19.566953422213917"><ele>23.0</ele><time>2026-04-27T07:54:07.999Z</time></trkpt><trkpt lat="41.151448746459984" lon="19.566839842793875"><ele>23.0</ele><time>2026-04-27T07:54:08.999Z</time></trkpt><trkpt lat="41.1513093355459" lon="19.566719594560716"><ele>23.0</ele><time>2026-04-27T07:54:09.999Z</time></trkpt><trkpt lat="41.151166595285936" lon="19.566596106314353"><ele>23.0</ele><time>2026-04-27T07:54:10.999Z</time></trkpt><trkpt lat="41.15102484097439" lon="19.566472365150183"><ele>23.0</ele><time>2026-04-27T07:54:11.999Z</time></trkpt><trkpt lat="41.15088921389536" lon="19.566350170036372"><ele>23.0</ele><time>2026-04-27T07:54:12.999Z</time></trkpt><trkpt lat="41.15075434603009" lon="19.566229769313036"><ele>23.0</ele><time>2026-04-27T07:54:13.999Z</time></trkpt><trkpt lat="41.150610642180574" lon="19.56610773904656"><ele>23.0</ele><time>2026-04-27T07:54:14.999Z</time></trkpt><trkpt lat="41.15047551973482" lon="19.565993010198866"><ele>22.75</ele><time>2026-04-27T07:54:15.999Z</time></trkpt><trkpt lat="41.15035172727304" lon="19.56588705281879"><ele>22.5</ele><time>2026-04-27T07:54:16.999Z</time></trkpt><trkpt lat="41.1502438503906" lon="19.56579244080737"><ele>22.25</ele><time>2026-04-27T07:54:17.999Z</time></trkpt><trkpt lat="41.15014554171229" lon="19.56569520332149"><ele>22.0</ele><time>2026-04-27T07:54:18.999Z</time></trkpt><trkpt lat="41.15004581551421" lon="19.565595134475593"><ele>22.0</ele><time>2026-04-27T07:54:19.999Z</time></trkpt><trkpt lat="41.14995552880955" lon="19.56551376767797"><ele>22.0</ele><time>2026-04-27T07:54:20.999Z</time></trkpt><trkpt lat="41.14989091578855" lon="19.565457646023543"><ele>22.0</ele><time>2026-04-27T07:54:21.999Z</time></trkpt><trkpt lat="41.14979810590703" lon="19.565400962086574"><ele>22.0</ele><time>2026-04-27T07:54:23.999Z</time></trkpt><trkpt lat="41.14970210947431" lon="19.565330630262057"><ele>22.0</ele><time>2026-04-27T07:54:25.999Z</time></trkpt><trkpt lat="41.14964946200116" lon="19.56528036329463"><ele>21.6</ele><time>2026-04-27T07:54:26.999Z</time></trkpt><trkpt lat="41.14958610324923" lon="19.56522098980003"><ele>21.200000000000003</ele><time>2026-04-27T07:54:27.999Z</time></trkpt><trkpt lat="41.1495100247378" lon="19.565159933275904"><ele>20.8</ele><time>2026-04-27T07:54:28.999Z</time></trkpt><trkpt lat="41.149420244735055" lon="19.56510604027418"><ele>20.4</ele><time>2026-04-27T07:54:29.999Z</time></trkpt><trkpt lat="41.149318658383095" lon="19.565048034018222"><ele>20.0</ele><time>2026-04-27T07:54:30.999Z</time></trkpt><trkpt lat="41.14921096156908" lon="19.56498470935129"><ele>20.0</ele><time>2026-04-27T07:54:32Z</time></trkpt><trkpt lat="41.14909581025621" lon="19.56492057597594"><ele>20.0</ele><time>2026-04-27T07:54:33Z</time></trkpt><trkpt lat="41.14898935287316" lon="19.56486334869164"><ele>20.0</ele><time>2026-04-27T07:54:34Z</time></trkpt><trkpt lat="41.148875175905445" lon="19.56480351160896"><ele>20.0</ele><time>2026-04-27T07:54:35Z</time></trkpt><trkpt lat="41.148749378810564" lon="19.564745444297984"><ele>20.75</ele><time>2026-04-27T07:54:36Z</time></trkpt><trkpt lat="41.14861389083498" lon="19.564690583236064"><ele>21.5</ele><time>2026-04-27T07:54:37Z</time></trkpt><trkpt lat="41.148480691575436" lon="19.56463552745714"><ele>22.25</ele><time>2026-04-27T07:54:38Z</time></trkpt><trkpt lat="41.1483556382062" lon="19.564586684596918"><ele>23.0</ele><time>2026-04-27T07:54:39Z</time></trkpt><trkpt lat="41.14823233755872" lon="19.56453908422065"><ele>23.0</ele><time>2026-04-27T07:54:40Z</time></trkpt><trkpt lat="41.14812524364102" lon="19.56449809471831"><ele>23.0</ele><time>2026-04-27T07:54:41Z</time></trkpt><trkpt lat="41.14802955098561" lon="19.564431158759024"><ele>23.0</ele><time>2026-04-27T07:54:42Z</time></trkpt><trkpt lat="41.14790278160467" lon="19.564484645835293"><ele>23.0</ele><time>2026-04-27T07:54:43Z</time></trkpt><trkpt lat="41.14778113750939" lon="19.56451175550227"><ele>22.75</ele><time>2026-04-27T07:54:44Z</time></trkpt><trkpt lat="41.147652507798476" lon="19.564546412045047"><ele>22.5</ele><time>2026-04-27T07:54:45Z</time></trkpt><trkpt lat="41.14751489015599" lon="19.56458171605199"><ele>22.25</ele><time>2026-04-27T07:54:46Z</time></trkpt><trkpt lat="41.14736942134914" lon="19.56461520513013"><ele>22.0</ele><time>2026-04-27T07:54:47Z</time></trkpt><trkpt lat="41.14722098323525" lon="19.5646486785807"><ele>22.0</ele><time>2026-04-27T07:54:48Z</time></trkpt><trkpt lat="41.14708250802092" lon="19.564681963738384"><ele>22.0</ele><time>2026-04-27T07:54:49Z</time></trkpt><trkpt lat="41.14694096339728" lon="19.564718641789426"><ele>22.0</ele><time>2026-04-27T07:54:50Z</time></trkpt><trkpt lat="41.14679052049758" lon="19.564734470551546"><ele>22.0</ele><time>2026-04-27T07:54:51Z</time></trkpt><trkpt lat="41.14665103083338" lon="19.564766265657678"><ele>22.0</ele><time>2026-04-27T07:54:52Z</time></trkpt><trkpt lat="41.14651011128376" lon="19.56479838671202"><ele>22.0</ele><time>2026-04-27T07:54:53Z</time></trkpt><trkpt lat="41.14636433275835" lon="19.564851795562905"><ele>22.0</ele><time>2026-04-27T07:54:54Z</time></trkpt><trkpt lat="41.146210493199476" lon="19.564884426756127"><ele>22.0</ele><time>2026-04-27T07:54:55Z</time></trkpt><trkpt lat="41.14605142522604" lon="19.56492306438326"><ele>22.0</ele><time>2026-04-27T07:54:56Z</time></trkpt><trkpt lat="41.14588864537587" lon="19.56496248722184"><ele>22.0</ele><time>2026-04-27T07:54:57Z</time></trkpt><trkpt lat="41.145732940750435" lon="19.56497627247659"><ele>21.75</ele><time>2026-04-27T07:54:58Z</time></trkpt><trkpt lat="41.145601088546236" lon="19.565046133316812"><ele>21.5</ele><time>2026-04-27T07:54:59Z</time></trkpt><trkpt lat="41.1454667214791" lon="19.56511556771478"><ele>21.25</ele><time>2026-04-27T07:55:00Z</time></trkpt><trkpt lat="41.14532862040187" lon="19.56520812388227"><ele>21.0</ele><time>2026-04-27T07:55:01Z</time></trkpt><trkpt lat="41.14519036620847" lon="19.565309960328378"><ele>21.0</ele><time>2026-04-27T07:55:02Z</time></trkpt><trkpt lat="41.1450617521802" lon="19.56540069822726"><ele>21.0</ele><time>2026-04-27T07:55:03Z</time></trkpt><trkpt lat="41.1449383135169" lon="19.565483770876313"><ele>21.0</ele><time>2026-04-27T07:55:04Z</time></trkpt><trkpt lat="41.1448189847748" lon="19.56555706954051"><ele>21.0</ele><time>2026-04-27T07:55:05Z</time></trkpt><trkpt lat="41.14471552471683" lon="19.565591443261003"><ele>20.833333333333332</ele><time>2026-04-27T07:55:06Z</time></trkpt><trkpt lat="41.14463924441146" lon="19.56562748446433"><ele>20.666666666666668</ele><time>2026-04-27T07:55:07Z</time></trkpt><trkpt lat="41.14457539728019" lon="19.565657651210937"><ele>20.5</ele><time>2026-04-27T07:55:08Z</time></trkpt><trkpt lat="41.14450446463517" lon="19.565691165695235"><ele>20.333333333333336</ele><time>2026-04-27T07:55:09Z</time></trkpt><trkpt lat="41.144414018868034" lon="19.565733900328592"><ele>20.166666666666668</ele><time>2026-04-27T07:55:10Z</time></trkpt><trkpt lat="41.144305107865286" lon="19.565789503872686"><ele>20.0</ele><time>2026-04-27T07:55:11Z</time></trkpt><trkpt lat="41.144184565440426" lon="19.565863648287575"><ele>20.0</ele><time>2026-04-27T07:55:12Z</time></trkpt><trkpt lat="41.14404761355459" lon="19.56592994248042"><ele>20.0</ele><time>2026-04-27T07:55:13Z</time></trkpt><trkpt lat="41.14390488079402" lon="19.565997856241097"><ele>20.0</ele><time>2026-04-27T07:55:14Z</time></trkpt><trkpt lat="41.14374725926494" lon="19.56607607886303"><ele>20.0</ele><time>2026-04-27T07:55:15Z</time></trkpt><trkpt lat="41.14358186223509" lon="19.566156545458842"><ele>20.0</ele><time>2026-04-27T07:55:16Z</time></trkpt><trkpt lat="41.14341167249493" lon="19.566239138533735"><ele>20.0</ele><time>2026-04-27T07:55:17Z</time></trkpt><trkpt lat="41.14325113051878" lon="19.566315322434686"><ele>19.666666666666668</ele><time>2026-04-27T07:55:18Z</time></trkpt><trkpt lat="41.14309187949852" lon="19.56639295561737"><ele>19.333333333333332</ele><time>2026-04-27T07:55:19Z</time></trkpt><trkpt lat="41.1429274671975" lon="19.566476102589913"><ele>19.0</ele><time>2026-04-27T07:55:20Z</time></trkpt><trkpt lat="41.14275671570138" lon="19.5665615094841"><ele>19.0</ele><time>2026-04-27T07:55:21Z</time></trkpt><trkpt lat="41.142581780488655" lon="19.56664671628474"><ele>19.0</ele><time>2026-04-27T07:55:22Z</time></trkpt><trkpt lat="41.142405831644055" lon="19.566731068008195"><ele>19.0</ele><time>2026-04-27T07:55:23Z</time></trkpt><trkpt lat="41.142242071742324" lon="19.566807944662088"><ele>18.666666666666664</ele><time>2026-04-27T07:55:24Z</time></trkpt><trkpt lat="41.14207074663067" lon="19.56688377297213"><ele>18.333333333333332</ele><time>2026-04-27T07:55:25Z</time></trkpt><trkpt lat="41.1418898692702" lon="19.566966149361814"><ele>18.0</ele><time>2026-04-27T07:55:26Z</time></trkpt><trkpt lat="41.14171828030385" lon="19.567052820323394"><ele>18.0</ele><time>2026-04-27T07:55:27Z</time></trkpt><trkpt lat="41.14154538565461" lon="19.567142695761657"><ele>18.0</ele><time>2026-04-27T07:55:28Z</time></trkpt><trkpt lat="41.141381628234925" lon="19.56722592769971"><ele>18.0</ele><time>2026-04-27T07:55:29Z</time></trkpt><trkpt lat="41.14122421046537" lon="19.567308812492595"><ele>18.0</ele><time>2026-04-27T07:55:30Z</time></trkpt><trkpt lat="41.141061982471754" lon="19.567391490781777"><ele>18.0</ele><time>2026-04-27T07:55:31Z</time></trkpt><trkpt lat="41.14090331597489" lon="19.567472754530808"><ele>18.0</ele><time>2026-04-27T07:55:32Z</time></trkpt><trkpt lat="41.14076048025274" lon="19.567544978372364"><ele>18.333333333333332</ele><time>2026-04-27T07:55:33Z</time></trkpt><trkpt lat="41.14062373135528" lon="19.567613739408156"><ele>18.666666666666664</ele><time>2026-04-27T07:55:34Z</time></trkpt><trkpt lat="41.14046451490358" lon="19.567681579146825"><ele>19.0</ele><time>2026-04-27T07:55:35Z</time></trkpt><trkpt lat="41.14029091354764" lon="19.567751947797593"><ele>19.0</ele><time>2026-04-27T07:55:36Z</time></trkpt><trkpt lat="41.140106942350506" lon="19.56783500739918"><ele>19.0</ele><time>2026-04-27T07:55:37Z</time></trkpt><trkpt lat="41.13993041477799" lon="19.567922130671246"><ele>19.0</ele><time>2026-04-27T07:55:38Z</time></trkpt><trkpt lat="41.13976379338227" lon="19.56800373633306"><ele>19.333333333333332</ele><time>2026-04-27T07:55:39Z</time></trkpt><trkpt lat="41.13959177342624" lon="19.568086101477057"><ele>19.666666666666668</ele><time>2026-04-27T07:55:40Z</time></trkpt><trkpt lat="41.139412762214015" lon="19.56817378902622"><ele>20.0</ele><time>2026-04-27T07:55:41Z</time></trkpt><trkpt lat="41.139228427977834" lon="19.56826770479122"><ele>19.333333333333336</ele><time>2026-04-27T07:55:42Z</time></trkpt><trkpt lat="41.1390462621745" lon="19.568358659662138"><ele>18.666666666666668</ele><time>2026-04-27T07:55:43Z</time></trkpt><trkpt lat="41.138873649954895" lon="19.568441153467766"><ele>18.0</ele><time>2026-04-27T07:55:44Z</time></trkpt><trkpt lat="41.138700603035915" lon="19.568527309556103"><ele>18.0</ele><time>2026-04-27T07:55:45Z</time></trkpt><trkpt lat="41.138521184003366" lon="19.568615765441862"><ele>18.0</ele><time>2026-04-27T07:55:46Z</time></trkpt><trkpt lat="41.138333815934196" lon="19.568704886576118"><ele>18.0</ele><time>2026-04-27T07:55:47Z</time></trkpt><trkpt lat="41.13814737449059" lon="19.568794818486143"><ele>18.0</ele><time>2026-04-27T07:55:48Z</time></trkpt><trkpt lat="41.1379637427838" lon="19.568886327763988"><ele>18.0</ele><time>2026-04-27T07:55:49Z</time></trkpt><trkpt lat="41.137769202820515" lon="19.568979054811546"><ele>18.0</ele><time>2026-04-27T07:55:50Z</time></trkpt><trkpt lat="41.13758144659071" lon="19.569067376054438"><ele>17.666666666666668</ele><time>2026-04-27T07:55:51Z</time></trkpt><trkpt lat="41.13738199125116" lon="19.569169651693063"><ele>17.333333333333336</ele><time>2026-04-27T07:55:52Z</time></trkpt><trkpt lat="41.13717363687361" lon="19.56927402479783"><ele>17.0</ele><time>2026-04-27T07:55:53Z</time></trkpt><trkpt lat="41.13695558709244" lon="19.569379628952312"><ele>17.0</ele><time>2026-04-27T07:55:54Z</time></trkpt><trkpt lat="41.13673418274906" lon="19.56948608492969"><ele>17.0</ele><time>2026-04-27T07:55:55Z</time></trkpt><trkpt lat="41.13651938298695" lon="19.569583280927585"><ele>16.5</ele><time>2026-04-27T07:55:56Z</time></trkpt><trkpt lat="41.13630685429381" lon="19.569685199361167"><ele>16.0</ele><time>2026-04-27T07:55:57Z</time></trkpt><trkpt lat="41.13609079465261" lon="19.56979216256962"><ele>16.0</ele><time>2026-04-27T07:55:58Z</time></trkpt><trkpt lat="41.13586957984763" lon="19.569900236506587"><ele>16.0</ele><time>2026-04-27T07:55:59Z</time></trkpt><trkpt lat="41.135650358730224" lon="19.570003294866513"><ele>16.0</ele><time>2026-04-27T07:56:00Z</time></trkpt><trkpt lat="41.13543337626632" lon="19.570107651166467"><ele>16.0</ele><time>2026-04-27T07:56:01Z</time></trkpt><trkpt lat="41.13521579117992" lon="19.570216640205857"><ele>16.0</ele><time>2026-04-27T07:56:02Z</time></trkpt><trkpt lat="41.134992176943214" lon="19.570327441999382"><ele>16.0</ele><time>2026-04-27T07:56:03Z</time></trkpt><trkpt lat="41.13476902146626" lon="19.57043490641053"><ele>16.0</ele><time>2026-04-27T07:56:04Z</time></trkpt><trkpt lat="41.13456487625765" lon="19.570531461939446"><ele>16.0</ele><time>2026-04-27T07:56:05Z</time></trkpt><trkpt lat="41.134367272944715" lon="19.570625978444433"><ele>16.0</ele><time>2026-04-27T07:56:06Z</time></trkpt><trkpt lat="41.134163820169334" lon="19.57072532815779"><ele>15.333333333333332</ele><time>2026-04-27T07:56:07Z</time></trkpt><trkpt lat="41.13396372580346" lon="19.57081718918668"><ele>14.666666666666668</ele><time>2026-04-27T07:56:08Z</time></trkpt><trkpt lat="41.1337666109005" lon="19.57091308819314"><ele>14.0</ele><time>2026-04-27T07:56:09Z</time></trkpt><trkpt lat="41.133569503467626" lon="19.571008064780443"><ele>14.0</ele><time>2026-04-27T07:56:10Z</time></trkpt><trkpt lat="41.13336589661342" lon="19.571104257259893"><ele>14.0</ele><time>2026-04-27T07:56:11Z</time></trkpt><trkpt lat="41.13315792415982" lon="19.571202995451305"><ele>14.0</ele><time>2026-04-27T07:56:12Z</time></trkpt><trkpt lat="41.13294869206765" lon="19.571311376551314"><ele>14.0</ele><time>2026-04-27T07:56:13Z</time></trkpt><trkpt lat="41.13272779031483" lon="19.571396757673302"><ele>14.0</ele><time>2026-04-27T07:56:14Z</time></trkpt><trkpt lat="41.13252446546124" lon="19.571493222290293"><ele>14.0</ele><time>2026-04-27T07:56:15Z</time></trkpt><trkpt lat="41.13234413625199" lon="19.571578459592324"><ele>14.0</ele><time>2026-04-27T07:56:16Z</time></trkpt><trkpt lat="41.13217774184327" lon="19.571657012604362"><ele>14.0</ele><time>2026-04-27T07:56:17Z</time></trkpt><trkpt lat="41.132017503270156" lon="19.571732233045868"><ele>14.0</ele><time>2026-04-27T07:56:18Z</time></trkpt><trkpt lat="41.131858396432094" lon="19.571806738485446"><ele>14.0</ele><time>2026-04-27T07:56:19Z</time></trkpt><trkpt lat="41.131700339276136" lon="19.57188061024306"><ele>14.0</ele><time>2026-04-27T07:56:20Z</time></trkpt><trkpt lat="41.13154103517819" lon="19.57195499768506"><ele>14.0</ele><time>2026-04-27T07:56:21Z</time></trkpt><trkpt lat="41.13138154522992" lon="19.572029240637423"><ele>14.666666666666668</ele><time>2026-04-27T07:56:22Z</time></trkpt><trkpt lat="41.131220717973434" lon="19.572104106270995"><ele>15.333333333333332</ele><time>2026-04-27T07:56:23Z</time></trkpt><trkpt lat="41.131058267285844" lon="19.57217972718491"><ele>16.0</ele><time>2026-04-27T07:56:24Z</time></trkpt><trkpt lat="41.13089258560243" lon="19.57225685019385"><ele>16.0</ele><time>2026-04-27T07:56:25Z</time></trkpt><trkpt lat="41.13073239310431" lon="19.572341316028684"><ele>16.0</ele><time>2026-04-27T07:56:26Z</time></trkpt><trkpt lat="41.130552210437585" lon="19.572397130064317"><ele>16.0</ele><time>2026-04-27T07:56:27Z</time></trkpt><trkpt lat="41.13036951821634" lon="19.572456858540793"><ele>15.666666666666666</ele><time>2026-04-27T07:56:28Z</time></trkpt><trkpt lat="41.13018434328606" lon="19.57251618104071"><ele>15.333333333333332</ele><time>2026-04-27T07:56:29Z</time></trkpt><trkpt lat="41.12999371533157" lon="19.572576976794274"><ele>15.0</ele><time>2026-04-27T07:56:30Z</time></trkpt><trkpt lat="41.12979952059202" lon="19.57264285519351"><ele>15.666666666666668</ele><time>2026-04-27T07:56:31Z</time></trkpt><trkpt lat="41.12960584535057" lon="19.572705334119252"><ele>16.333333333333336</ele><time>2026-04-27T07:56:32Z</time></trkpt><trkpt lat="41.12940400357034" lon="19.57276952976933"><ele>17.0</ele><time>2026-04-27T07:56:33Z</time></trkpt><trkpt lat="41.12920183001297" lon="19.572836990777663"><ele>16.666666666666668</ele><time>2026-04-27T07:56:34Z</time></trkpt><trkpt lat="41.12900734085259" lon="19.572899768479132"><ele>16.333333333333332</ele><time>2026-04-27T07:56:35Z</time></trkpt><trkpt lat="41.128828868559445" lon="19.572960254295875"><ele>16.0</ele><time>2026-04-27T07:56:36Z</time></trkpt><trkpt lat="41.12865229941332" lon="19.573019313719833"><ele>16.0</ele><time>2026-04-27T07:56:37Z</time></trkpt><trkpt lat="41.128488327898104" lon="19.57307246451471"><ele>16.0</ele><time>2026-04-27T07:56:38Z</time></trkpt><trkpt lat="41.128327217779514" lon="19.57312539479545"><ele>16.0</ele><time>2026-04-27T07:56:39Z</time></trkpt><trkpt lat="41.12817319339373" lon="19.57317606930471"><ele>15.666666666666666</ele><time>2026-04-27T07:56:40Z</time></trkpt><trkpt lat="41.128016459302316" lon="19.573230500796146"><ele>15.333333333333332</ele><time>2026-04-27T07:56:41Z</time></trkpt><trkpt lat="41.12785278285389" lon="19.573287385380425"><ele>15.0</ele><time>2026-04-27T07:56:42Z</time></trkpt><trkpt lat="41.12768975908816" lon="19.573335733830742"><ele>15.0</ele><time>2026-04-27T07:56:43Z</time></trkpt><trkpt lat="41.127527890747466" lon="19.57338481214402"><ele>15.0</ele><time>2026-04-27T07:56:44Z</time></trkpt><trkpt lat="41.12738234566987" lon="19.573433695622203"><ele>15.0</ele><time>2026-04-27T07:56:45Z</time></trkpt><trkpt lat="41.12724799035235" lon="19.57348139388814"><ele>15.0</ele><time>2026-04-27T07:56:46Z</time></trkpt><trkpt lat="41.1271191274841" lon="19.573534189668184"><ele>15.0</ele><time>2026-04-27T07:56:47Z</time></trkpt><trkpt lat="41.12698437218118" lon="19.573607106085216"><ele>15.0</ele><time>2026-04-27T07:56:48Z</time></trkpt><trkpt lat="41.126840431410585" lon="19.573699281446345"><ele>15.0</ele><time>2026-04-27T07:56:49Z</time></trkpt><trkpt lat="41.126680160310556" lon="19.573801860906805"><ele>15.666666666666668</ele><time>2026-04-27T07:56:50Z</time></trkpt><trkpt lat="41.12652079595002" lon="19.573895432711033"><ele>16.333333333333336</ele><time>2026-04-27T07:56:51Z</time></trkpt><trkpt lat="41.1263685197853" lon="19.573989991958427"><ele>17.0</ele><time>2026-04-27T07:56:52Z</time></trkpt><trkpt lat="41.126221702961494" lon="19.57408464180973"><ele>17.0</ele><time>2026-04-27T07:56:53Z</time></trkpt><trkpt lat="41.12607935396004" lon="19.5741765099189"><ele>17.0</ele><time>2026-04-27T07:56:54Z</time></trkpt><trkpt lat="41.12593050590291" lon="19.57426758203067"><ele>17.0</ele><time>2026-04-27T07:56:55Z</time></trkpt><trkpt lat="41.1257775281111" lon="19.574358906988"><ele>17.0</ele><time>2026-04-27T07:56:56Z</time></trkpt><trkpt lat="41.12562486342874" lon="19.574453234949786"><ele>17.0</ele><time>2026-04-27T07:56:57Z</time></trkpt><trkpt lat="41.12548904055789" lon="19.574542489682827"><ele>17.0</ele><time>2026-04-27T07:56:58Z</time></trkpt><trkpt lat="41.1253596962213" lon="19.57462930412617"><ele>17.0</ele><time>2026-04-27T07:56:59Z</time></trkpt><trkpt lat="41.12522912875628" lon="19.574714126765624"><ele>17.0</ele><time>2026-04-27T07:57:00Z</time></trkpt><trkpt lat="41.12510686625214" lon="19.57478493159908"><ele>17.0</ele><time>2026-04-27T07:57:01Z</time></trkpt><trkpt lat="41.124995293446446" lon="19.57484066656213"><ele>17.0</ele><time>2026-04-27T07:57:02Z</time></trkpt><trkpt lat="41.124880953249416" lon="19.57490595418176"><ele>16.75</ele><time>2026-04-27T07:57:03Z</time></trkpt><trkpt lat="41.124757342996254" lon="19.574981166411348"><ele>16.5</ele><time>2026-04-27T07:57:04Z</time></trkpt><trkpt lat="41.12462666663143" lon="19.57506251026274"><ele>16.25</ele><time>2026-04-27T07:57:05Z</time></trkpt><trkpt lat="41.124499143274114" lon="19.575155157967004"><ele>16.0</ele><time>2026-04-27T07:57:06Z</time></trkpt><trkpt lat="41.124379734372276" lon="19.5752377909623"><ele>16.0</ele><time>2026-04-27T07:57:07Z</time></trkpt><trkpt lat="41.12427762062622" lon="19.575296891942546"><ele>16.0</ele><time>2026-04-27T07:57:08Z</time></trkpt><trkpt lat="41.12418756751175" lon="19.575340388959763"><ele>16.0</ele><time>2026-04-27T07:57:09Z</time></trkpt><trkpt lat="41.12410886626611" lon="19.57538109082057"><ele>16.0</ele><time>2026-04-27T07:57:10Z</time></trkpt><trkpt lat="41.124025604505796" lon="19.57543559644913"><ele>16.0</ele><time>2026-04-27T07:57:12Z</time></trkpt><trkpt lat="41.1239549055626" lon="19.57537016912236"><ele>16.0</ele><time>2026-04-27T07:57:16Z</time></trkpt><trkpt lat="41.12391081621821" lon="19.575258695319594"><ele>16.0</ele><time>2026-04-27T07:57:17Z</time></trkpt><trkpt lat="41.12387045485624" lon="19.57513659453749"><ele>16.0</ele><time>2026-04-27T07:57:18Z</time></trkpt><trkpt lat="41.1238276863785" lon="19.575015027426005"><ele>16.0</ele><time>2026-04-27T07:57:19Z</time></trkpt><trkpt lat="41.12377995058716" lon="19.57488822036114"><ele>16.0</ele><time>2026-04-27T07:57:20Z</time></trkpt><trkpt lat="41.1237316364758" lon="19.57476470487594"><ele>15.999999999999998</ele><time>2026-04-27T07:57:21Z</time></trkpt><trkpt lat="41.123690022060096" lon="19.57465847641587"><ele>16.0</ele><time>2026-04-27T07:57:22Z</time></trkpt><trkpt lat="41.12365150470131" lon="19.574565731863125"><ele>16.0</ele><time>2026-04-27T07:57:23Z</time></trkpt><trkpt lat="41.12361546759037" lon="19.574464259030517"><ele>16.0</ele><time>2026-04-27T07:57:25Z</time></trkpt><trkpt lat="41.12355938203373" lon="19.574398046782424"><ele>15.999999999999998</ele><time>2026-04-27T07:57:31Z</time></trkpt><trkpt lat="41.123486261424006" lon="19.574441197477142"><ele>16.0</ele><time>2026-04-27T07:57:34Z</time></trkpt><trkpt lat="41.123424086018645" lon="19.5744870809606"><ele>16.0</ele><time>2026-04-27T07:57:36Z</time></trkpt><trkpt lat="41.12335293022018" lon="19.574518235307924"><ele>16.0</ele><time>2026-04-27T07:57:37Z</time></trkpt><trkpt lat="41.12323103326173" lon="19.574577372999464"><ele>16.0</ele><time>2026-04-27T07:57:39Z</time></trkpt><trkpt lat="41.12310604990552" lon="19.574650141649094"><ele>16.0</ele><time>2026-04-27T07:57:41Z</time></trkpt><trkpt lat="41.12303163441187" lon="19.57468849796521"><ele>16.0</ele><time>2026-04-27T07:57:42Z</time></trkpt><trkpt lat="41.12295062480611" lon="19.57472508544392"><ele>15.8</ele><time>2026-04-27T07:57:43Z</time></trkpt><trkpt lat="41.12287530970337" lon="19.574744537001788"><ele>15.600000000000001</ele><time>2026-04-27T07:57:44Z</time></trkpt><trkpt lat="41.12281107284679" lon="19.574808570152832"><ele>15.4</ele><time>2026-04-27T07:57:45Z</time></trkpt><trkpt lat="41.12272941772775" lon="19.57485554458999"><ele>15.2</ele><time>2026-04-27T07:57:46Z</time></trkpt><trkpt lat="41.12264108588694" lon="19.57490571946442"><ele>15.0</ele><time>2026-04-27T07:57:47Z</time></trkpt><trkpt lat="41.1225346200651" lon="19.57494025069009"><ele>15.0</ele><time>2026-04-27T07:57:48Z</time></trkpt><trkpt lat="41.12243721970932" lon="19.57501139330883"><ele>15.0</ele><time>2026-04-27T07:57:49Z</time></trkpt><trkpt lat="41.122332412947245" lon="19.575058821669938"><ele>15.0</ele><time>2026-04-27T07:57:50Z</time></trkpt><trkpt lat="41.122218437694464" lon="19.575108562453657"><ele>15.0</ele><time>2026-04-27T07:57:51Z</time></trkpt><trkpt lat="41.12209405164365" lon="19.575163931441814"><ele>15.0</ele><time>2026-04-27T07:57:52Z</time></trkpt><trkpt lat="41.12196659742212" lon="19.57522909908475"><ele>15.0</ele><time>2026-04-27T07:57:53Z</time></trkpt><trkpt lat="41.121823890466345" lon="19.575297397887432"><ele>15.0</ele><time>2026-04-27T07:57:54Z</time></trkpt><trkpt lat="41.12169220731491" lon="19.575370595887293"><ele>15.0</ele><time>2026-04-27T07:57:55Z</time></trkpt><trkpt lat="41.12155672582871" lon="19.57544151082403"><ele>15.0</ele><time>2026-04-27T07:57:56Z</time></trkpt><trkpt lat="41.12141775402886" lon="19.575513215482314"><ele>15.0</ele><time>2026-04-27T07:57:57Z</time></trkpt><trkpt lat="41.12127086031106" lon="19.575584984320116"><ele>15.0</ele><time>2026-04-27T07:57:58Z</time></trkpt><trkpt lat="41.12110958634952" lon="19.575666345950165"><ele>15.0</ele><time>2026-04-27T07:57:59Z</time></trkpt><trkpt lat="41.12096343553801" lon="19.575745276070183"><ele>15.0</ele><time>2026-04-27T07:58:00Z</time></trkpt><trkpt lat="41.120811526129486" lon="19.57581729943199"><ele>15.0</ele><time>2026-04-27T07:58:01Z</time></trkpt><trkpt lat="41.12065662355237" lon="19.57589691991908"><ele>15.0</ele><time>2026-04-27T07:58:02Z</time></trkpt><trkpt lat="41.12049725555072" lon="19.575981437935024"><ele>15.0</ele><time>2026-04-27T07:58:03Z</time></trkpt><trkpt lat="41.12033077577849" lon="19.576048165780673"><ele>15.0</ele><time>2026-04-27T07:58:04Z</time></trkpt><trkpt lat="41.12017018306896" lon="19.576146713935522"><ele>14.666666666666668</ele><time>2026-04-27T07:58:05Z</time></trkpt><trkpt lat="41.120005647851556" lon="19.576232388015"><ele>14.333333333333334</ele><time>2026-04-27T07:58:06Z</time></trkpt><trkpt lat="41.11985211357038" lon="19.5763194022353"><ele>14.0</ele><time>2026-04-27T07:58:07Z</time></trkpt><trkpt lat="41.11968776661265" lon="19.57640091934237"><ele>14.0</ele><time>2026-04-27T07:58:08Z</time></trkpt><trkpt lat="41.119519000162065" lon="19.576488167229652"><ele>14.0</ele><time>2026-04-27T07:58:09Z</time></trkpt><trkpt lat="41.11935809127483" lon="19.57657111773708"><ele>14.0</ele><time>2026-04-27T07:58:10Z</time></trkpt><trkpt lat="41.119212902706096" lon="19.576639524252325"><ele>14.0</ele><time>2026-04-27T07:58:11Z</time></trkpt><trkpt lat="41.11907821801729" lon="19.576706722361173"><ele>14.0</ele><time>2026-04-27T07:58:12Z</time></trkpt><trkpt lat="41.11894850616719" lon="19.576789966084256"><ele>14.0</ele><time>2026-04-27T07:58:13Z</time></trkpt><trkpt lat="41.118831632787476" lon="19.576854402335126"><ele>14.0</ele><time>2026-04-27T07:58:14Z</time></trkpt><trkpt lat="41.11871778857562" lon="19.576913164778556"><ele>14.333333333333334</ele><time>2026-04-27T07:58:15Z</time></trkpt><trkpt lat="41.11858466663803" lon="19.576971703535854"><ele>14.666666666666668</ele><time>2026-04-27T07:58:16Z</time></trkpt><trkpt lat="41.11843745259696" lon="19.57703687636195"><ele>15.0</ele><time>2026-04-27T07:58:17Z</time></trkpt><trkpt lat="41.11827623463761" lon="19.57711289233626"><ele>15.0</ele><time>2026-04-27T07:58:18Z</time></trkpt><trkpt lat="41.11811308400723" lon="19.577194103791552"><ele>15.0</ele><time>2026-04-27T07:58:19Z</time></trkpt><trkpt lat="41.11794566102297" lon="19.57727699308845"><ele>15.0</ele><time>2026-04-27T07:58:20Z</time></trkpt><trkpt lat="41.117774770063896" lon="19.577368082683005"><ele>15.0</ele><time>2026-04-27T07:58:21Z</time></trkpt><trkpt lat="41.11759670879054" lon="19.577461315116736"><ele>15.0</ele><time>2026-04-27T07:58:22Z</time></trkpt><trkpt lat="41.1174176929028" lon="19.57755547307153"><ele>15.0</ele><time>2026-04-27T07:58:23Z</time></trkpt><trkpt lat="41.11723743778237" lon="19.577649682815338"><ele>15.0</ele><time>2026-04-27T07:58:24Z</time></trkpt><trkpt lat="41.117071558677644" lon="19.577739440414398"><ele>15.0</ele><time>2026-04-27T07:58:25Z</time></trkpt><trkpt lat="41.1169170632421" lon="19.577801962469373"><ele>15.0</ele><time>2026-04-27T07:58:26Z</time></trkpt><trkpt lat="41.116774429442906" lon="19.577892419163554"><ele>15.0</ele><time>2026-04-27T07:58:27Z</time></trkpt><trkpt lat="41.116617907638144" lon="19.577953336032085"><ele>15.0</ele><time>2026-04-27T07:58:28Z</time></trkpt><trkpt lat="41.11645149490777" lon="19.578031131015024"><ele>15.0</ele><time>2026-04-27T07:58:29Z</time></trkpt><trkpt lat="41.116284021415346" lon="19.578115913609352"><ele>15.333333333333332</ele><time>2026-04-27T07:58:30Z</time></trkpt><trkpt lat="41.116132235453115" lon="19.578202587214953"><ele>15.666666666666666</ele><time>2026-04-27T07:58:31Z</time></trkpt><trkpt lat="41.115989460400236" lon="19.578283487012982"><ele>16.0</ele><time>2026-04-27T07:58:32Z</time></trkpt><trkpt lat="41.11585384177923" lon="19.578357080849052"><ele>15.600000000000001</ele><time>2026-04-27T07:58:33Z</time></trkpt><trkpt lat="41.11572852270488" lon="19.578422921206656"><ele>15.200000000000001</ele><time>2026-04-27T07:58:34Z</time></trkpt><trkpt lat="41.115615978850165" lon="19.57847906604"><ele>14.799999999999999</ele><time>2026-04-27T07:58:35Z</time></trkpt><trkpt lat="41.11552973600973" lon="19.578519869880843"><ele>14.399999999999999</ele><time>2026-04-27T07:58:36Z</time></trkpt><trkpt lat="41.11544677258904" lon="19.578556064620983"><ele>14.0</ele><time>2026-04-27T07:58:37Z</time></trkpt><trkpt lat="41.11535694853795" lon="19.578610392467514"><ele>14.0</ele><time>2026-04-27T07:58:38Z</time></trkpt><trkpt lat="41.11525440651581" lon="19.578654852672052"><ele>13.999999999999998</ele><time>2026-04-27T07:58:39Z</time></trkpt><trkpt lat="41.11517419480782" lon="19.57877837542689"><ele>13.999999999999998</ele><time>2026-04-27T07:58:40Z</time></trkpt><trkpt lat="41.115096443117466" lon="19.5788941564953"><ele>14.0</ele><time>2026-04-27T07:58:41Z</time></trkpt><trkpt lat="41.11502709484106" lon="19.578992333781613"><ele>14.0</ele><time>2026-04-27T07:58:42Z</time></trkpt><trkpt lat="41.11496196683994" lon="19.579078228013906"><ele>14.166666666666668</ele><time>2026-04-27T07:58:43Z</time></trkpt><trkpt lat="41.11490270674148" lon="19.579166232399878"><ele>14.333333333333334</ele><time>2026-04-27T07:58:44Z</time></trkpt><trkpt lat="41.11484174523504" lon="19.57925610961232"><ele>14.5</ele><time>2026-04-27T07:58:45Z</time></trkpt><trkpt lat="41.11477315286231" lon="19.57933758196541"><ele>14.666666666666668</ele><time>2026-04-27T07:58:46Z</time></trkpt><trkpt lat="41.11470652326265" lon="19.579414937224147"><ele>14.833333333333334</ele><time>2026-04-27T07:58:47Z</time></trkpt><trkpt lat="41.11463575490534" lon="19.57948018582897"><ele>15.0</ele><time>2026-04-27T07:58:48Z</time></trkpt><trkpt lat="41.11455415126417" lon="19.57954456853949"><ele>15.2</ele><time>2026-04-27T07:58:49Z</time></trkpt><trkpt lat="41.1144567067024" lon="19.579602965570523"><ele>15.4</ele><time>2026-04-27T07:58:50Z</time></trkpt><trkpt lat="41.11435247690368" lon="19.57965180689819"><ele>15.600000000000001</ele><time>2026-04-27T07:58:51Z</time></trkpt><trkpt lat="41.11425413012232" lon="19.579693668406858"><ele>15.8</ele><time>2026-04-27T07:58:52Z</time></trkpt><trkpt lat="41.114157369574976" lon="19.579734895356335"><ele>16.0</ele><time>2026-04-27T07:58:53Z</time></trkpt><trkpt lat="41.1140768319438" lon="19.579741078723"><ele>15.666666666666666</ele><time>2026-04-27T07:58:54Z</time></trkpt><trkpt lat="41.113983422990565" lon="19.579794447250922"><ele>15.333333333333332</ele><time>2026-04-27T07:58:56Z</time></trkpt><trkpt lat="41.11387679007071" lon="19.579825872307946"><ele>15.0</ele><time>2026-04-27T07:58:58Z</time></trkpt><trkpt lat="41.11381294442979" lon="19.579847986452783"><ele>14.666666666666668</ele><time>2026-04-27T07:58:59Z</time></trkpt><trkpt lat="41.11373841750708" lon="19.57987001798462"><ele>14.333333333333334</ele><time>2026-04-27T07:59:00Z</time></trkpt><trkpt lat="41.11365660027715" lon="19.579896835293194"><ele>14.0</ele><time>2026-04-27T07:59:01Z</time></trkpt><trkpt lat="41.1135708023426" lon="19.579923986728943"><ele>14.0</ele><time>2026-04-27T07:59:02Z</time></trkpt><trkpt lat="41.11347598314847" lon="19.579951183561096"><ele>13.999999999999998</ele><time>2026-04-27T07:59:03Z</time></trkpt><trkpt lat="41.113376094027565" lon="19.579976098714372"><ele>13.999999999999998</ele><time>2026-04-27T07:59:04Z</time></trkpt><trkpt lat="41.11327528674847" lon="19.580003220258206"><ele>14.0</ele><time>2026-04-27T07:59:05Z</time></trkpt><trkpt lat="41.1131664328762" lon="19.58002899516384"><ele>14.0</ele><time>2026-04-27T07:59:06Z</time></trkpt><trkpt lat="41.11305235987372" lon="19.580044446744747"><ele>14.25</ele><time>2026-04-27T07:59:07Z</time></trkpt><trkpt lat="41.112930940366084" lon="19.580047597529063"><ele>14.5</ele><time>2026-04-27T07:59:08Z</time></trkpt><trkpt lat="41.11279612929189" lon="19.580051165143697"><ele>14.75</ele><time>2026-04-27T07:59:09Z</time></trkpt><trkpt lat="41.11265299128343" lon="19.58005609793028"><ele>15.0</ele><time>2026-04-27T07:59:10Z</time></trkpt><trkpt lat="41.11248189783987" lon="19.580067651106976"><ele>14.333333333333332</ele><time>2026-04-27T07:59:11Z</time></trkpt><trkpt lat="41.11229135801832" lon="19.580047636616012"><ele>13.666666666666666</ele><time>2026-04-27T07:59:12Z</time></trkpt><trkpt lat="41.11210679251953" lon="19.580067865457185"><ele>13.0</ele><time>2026-04-27T07:59:13Z</time></trkpt><trkpt lat="41.1119308323598" lon="19.580059758452208"><ele>13.0</ele><time>2026-04-27T07:59:14Z</time></trkpt><trkpt lat="41.11177381168958" lon="19.58006347401228"><ele>13.0</ele><time>2026-04-27T07:59:15Z</time></trkpt><trkpt lat="41.111609208628984" lon="19.580074813495905"><ele>13.0</ele><time>2026-04-27T07:59:16Z</time></trkpt><trkpt lat="41.11143335872825" lon="19.580108605089897"><ele>13.333333333333332</ele><time>2026-04-27T07:59:17Z</time></trkpt><trkpt lat="41.1112552770068" lon="19.580175431199965"><ele>13.666666666666668</ele><time>2026-04-27T07:59:18Z</time></trkpt><trkpt lat="41.111069221829496" lon="19.58026581274921"><ele>14.0</ele><time>2026-04-27T07:59:19Z</time></trkpt><trkpt lat="41.11089650589372" lon="19.580346261552776"><ele>14.0</ele><time>2026-04-27T07:59:20Z</time></trkpt><trkpt lat="41.11074093624948" lon="19.580414387708295"><ele>14.0</ele><time>2026-04-27T07:59:21Z</time></trkpt><trkpt lat="41.11058913014586" lon="19.58047843111522"><ele>14.0</ele><time>2026-04-27T07:59:22Z</time></trkpt><trkpt lat="41.11043113087971" lon="19.580549816176404"><ele>14.0</ele><time>2026-04-27T07:59:23Z</time></trkpt><trkpt lat="41.11026996520593" lon="19.580617727634113"><ele>14.0</ele><time>2026-04-27T07:59:24Z</time></trkpt><trkpt lat="41.11010640677704" lon="19.580684657778736"><ele>14.0</ele><time>2026-04-27T07:59:25Z</time></trkpt><trkpt lat="41.10993931592098" lon="19.58074915556181"><ele>14.333333333333334</ele><time>2026-04-27T07:59:26Z</time></trkpt><trkpt lat="41.10976857548722" lon="19.580779708966045"><ele>14.666666666666668</ele><time>2026-04-27T07:59:27Z</time></trkpt><trkpt lat="41.10959198225889" lon="19.58082649314018"><ele>15.0</ele><time>2026-04-27T07:59:28Z</time></trkpt><trkpt lat="41.10941120744734" lon="19.58090520261511"><ele>15.0</ele><time>2026-04-27T07:59:29Z</time></trkpt><trkpt lat="41.10923321307023" lon="19.580994948664873"><ele>15.0</ele><time>2026-04-27T07:59:30Z</time></trkpt><trkpt lat="41.10907596742197" lon="19.581087202985447"><ele>15.0</ele><time>2026-04-27T07:59:31Z</time></trkpt><trkpt lat="41.10894019182559" lon="19.581170965445853"><ele>15.0</ele><time>2026-04-27T07:59:32Z</time></trkpt><trkpt lat="41.1088496325468" lon="19.581230334738933"><ele>15.0</ele><time>2026-04-27T07:59:33Z</time></trkpt><trkpt lat="41.10875986820436" lon="19.58126615789342"><ele>15.0</ele><time>2026-04-27T07:59:34Z</time></trkpt><trkpt lat="41.108661633264035" lon="19.581343950296016"><ele>15.0</ele><time>2026-04-27T07:59:35Z</time></trkpt><trkpt lat="41.108535873007504" lon="19.581381055020078"><ele>15.0</ele><time>2026-04-27T07:59:36Z</time></trkpt><trkpt lat="41.10839820618885" lon="19.58142417980265"><ele>15.0</ele><time>2026-04-27T07:59:37Z</time></trkpt><trkpt lat="41.10825297051987" lon="19.581480850820313"><ele>15.0</ele><time>2026-04-27T07:59:38Z</time></trkpt><trkpt lat="41.10809852581565" lon="19.581548737041633"><ele>15.0</ele><time>2026-04-27T07:59:39Z</time></trkpt><trkpt lat="41.107939454129735" lon="19.581613450607882"><ele>14.666666666666668</ele><time>2026-04-27T07:59:40Z</time></trkpt><trkpt lat="41.10776240258124" lon="19.581670099071186"><ele>14.333333333333334</ele><time>2026-04-27T07:59:41Z</time></trkpt><trkpt lat="41.10757816092229" lon="19.58173299795546"><ele>14.0</ele><time>2026-04-27T07:59:42Z</time></trkpt><trkpt lat="41.10740728848171" lon="19.58179557798599"><ele>14.0</ele><time>2026-04-27T07:59:43Z</time></trkpt><trkpt lat="41.10723977940175" lon="19.581861980031636"><ele>14.0</ele><time>2026-04-27T07:59:44Z</time></trkpt><trkpt lat="41.107064810003266" lon="19.581931440754996"><ele>14.0</ele><time>2026-04-27T07:59:45Z</time></trkpt><trkpt lat="41.10688511364763" lon="19.58199934998903"><ele>14.0</ele><time>2026-04-27T07:59:46Z</time></trkpt><trkpt lat="41.10669864265231" lon="19.58206758254514"><ele>14.0</ele><time>2026-04-27T07:59:47Z</time></trkpt><trkpt lat="41.106506885767985" lon="19.582137143294094"><ele>14.0</ele><time>2026-04-27T07:59:48Z</time></trkpt><trkpt lat="41.1063271316721" lon="19.582190786104615"><ele>13.666666666666668</ele><time>2026-04-27T07:59:49Z</time></trkpt><trkpt lat="41.10615721237885" lon="19.58222607051405"><ele>13.333333333333332</ele><time>2026-04-27T07:59:50Z</time></trkpt><trkpt lat="41.10598601244497" lon="19.582253048394847"><ele>13.0</ele><time>2026-04-27T07:59:51Z</time></trkpt><trkpt lat="41.1058097788307" lon="19.582287930852317"><ele>13.333333333333332</ele><time>2026-04-27T07:59:52Z</time></trkpt><trkpt lat="41.10562982257569" lon="19.582335010867187"><ele>13.666666666666668</ele><time>2026-04-27T07:59:53Z</time></trkpt><trkpt lat="41.10544967859476" lon="19.582390220988973"><ele>14.0</ele><time>2026-04-27T07:59:54Z</time></trkpt><trkpt lat="41.105279941174736" lon="19.582454445135703"><ele>14.0</ele><time>2026-04-27T07:59:55Z</time></trkpt><trkpt lat="41.10512313265876" lon="19.58251883949347"><ele>14.0</ele><time>2026-04-27T07:59:56Z</time></trkpt><trkpt lat="41.10496657976988" lon="19.582587109354066"><ele>14.0</ele><time>2026-04-27T07:59:57Z</time></trkpt><trkpt lat="41.104817194472005" lon="19.58265245958522"><ele>13.666666666666668</ele><time>2026-04-27T07:59:58Z</time></trkpt><trkpt lat="41.1046629060853" lon="19.582720222984765"><ele>13.333333333333332</ele><time>2026-04-27T07:59:59Z</time></trkpt><trkpt lat="41.104502370827475" lon="19.582790299858196"><ele>13.0</ele><time>2026-04-27T08:00:00Z</time></trkpt><trkpt lat="41.10433666569637" lon="19.582862374130716"><ele>13.0</ele><time>2026-04-27T08:00:01Z</time></trkpt><trkpt lat="41.10416175898702" lon="19.582932957614215"><ele>13.0</ele><time>2026-04-27T08:00:02Z</time></trkpt><trkpt lat="41.10396971223319" lon="19.582999483170227"><ele>13.0</ele><time>2026-04-27T08:00:03Z</time></trkpt><trkpt lat="41.10376694596991" lon="19.583066904770753"><ele>12.333333333333332</ele><time>2026-04-27T08:00:04Z</time></trkpt><trkpt lat="41.10355929867499" lon="19.58313252668303"><ele>11.666666666666666</ele><time>2026-04-27T08:00:05Z</time></trkpt><trkpt lat="41.10334715828631" lon="19.58319499872514"><ele>11.0</ele><time>2026-04-27T08:00:06Z</time></trkpt><trkpt lat="41.10314864206763" lon="19.583247690480864"><ele>11.0</ele><time>2026-04-27T08:00:07Z</time></trkpt><trkpt lat="41.10296232650864" lon="19.58329972566949"><ele>11.0</ele><time>2026-04-27T08:00:08Z</time></trkpt><trkpt lat="41.102772690069415" lon="19.58335634215953"><ele>11.0</ele><time>2026-04-27T08:00:09Z</time></trkpt><trkpt lat="41.10257837686344" lon="19.5834209813219"><ele>10.333333333333332</ele><time>2026-04-27T08:00:10Z</time></trkpt><trkpt lat="41.10238793964146" lon="19.58348687053599"><ele>9.666666666666666</ele><time>2026-04-27T08:00:11Z</time></trkpt><trkpt lat="41.10220589960594" lon="19.583526401433094"><ele>9.0</ele><time>2026-04-27T08:00:12Z</time></trkpt><trkpt lat="41.10203326626212" lon="19.58357943641316"><ele>9.0</ele><time>2026-04-27T08:00:13Z</time></trkpt><trkpt lat="41.10188418016249" lon="19.58364082409937"><ele>9.0</ele><time>2026-04-27T08:00:14Z</time></trkpt><trkpt lat="41.1017420424915" lon="19.583674439631704"><ele>9.0</ele><time>2026-04-27T08:00:15Z</time></trkpt><trkpt lat="41.10159009288582" lon="19.583721687958267"><ele>9.666666666666666</ele><time>2026-04-27T08:00:16Z</time></trkpt><trkpt lat="41.10142778959321" lon="19.58378534995047"><ele>10.333333333333332</ele><time>2026-04-27T08:00:17Z</time></trkpt><trkpt lat="41.10125560163308" lon="19.583860260825613"><ele>11.0</ele><time>2026-04-27T08:00:18Z</time></trkpt><trkpt lat="41.10107406704887" lon="19.58395231203994"><ele>11.0</ele><time>2026-04-27T08:00:19Z</time></trkpt><trkpt lat="41.10089032509781" lon="19.584054134475505"><ele>11.0</ele><time>2026-04-27T08:00:20Z</time></trkpt><trkpt lat="41.10071979179504" lon="19.584130977367963"><ele>11.0</ele><time>2026-04-27T08:00:21Z</time></trkpt><trkpt lat="41.10056812864022" lon="19.584215271416742"><ele>10.666666666666666</ele><time>2026-04-27T08:00:22Z</time></trkpt><trkpt lat="41.10042142206126" lon="19.584295840547355"><ele>10.333333333333334</ele><time>2026-04-27T08:00:23Z</time></trkpt><trkpt lat="41.10026503520779" lon="19.584380022872434"><ele>10.0</ele><time>2026-04-27T08:00:24Z</time></trkpt><trkpt lat="41.10012051008063" lon="19.584457064387426"><ele>9.5</ele><time>2026-04-27T08:00:25Z</time></trkpt><trkpt lat="41.099986650412994" lon="19.58452842052676"><ele>9.0</ele><time>2026-04-27T08:00:26Z</time></trkpt><trkpt lat="41.09987012462647" lon="19.584593839999123"><ele>8.5</ele><time>2026-04-27T08:00:27Z</time></trkpt><trkpt lat="41.099756104537576" lon="19.58465804928391"><ele>8.0</ele><time>2026-04-27T08:00:28Z</time></trkpt><trkpt lat="41.099630504173625" lon="19.584752572507245"><ele>8.0</ele><time>2026-04-27T08:00:29Z</time></trkpt><trkpt lat="41.0994841104121" lon="19.584824401184992"><ele>8.0</ele><time>2026-04-27T08:00:30Z</time></trkpt><trkpt lat="41.099327960796174" lon="19.584912606270994"><ele>8.0</ele><time>2026-04-27T08:00:31Z</time></trkpt><trkpt lat="41.09917747341322" lon="19.58500167584913"><ele>7.75</ele><time>2026-04-27T08:00:32Z</time></trkpt><trkpt lat="41.09902984461196" lon="19.585079953854326"><ele>7.5</ele><time>2026-04-27T08:00:33Z</time></trkpt><trkpt lat="41.09889416864394" lon="19.585151523350085"><ele>7.25</ele><time>2026-04-27T08:00:34Z</time></trkpt><trkpt lat="41.09876709106219" lon="19.58521934514317"><ele>7.0</ele><time>2026-04-27T08:00:35Z</time></trkpt><trkpt lat="41.09864868078239" lon="19.585284123880562"><ele>7.0</ele><time>2026-04-27T08:00:36Z</time></trkpt><trkpt lat="41.098542563173" lon="19.585345861888754"><ele>6.999999999999999</ele><time>2026-04-27T08:00:37Z</time></trkpt><trkpt lat="41.098444621522304" lon="19.585407958680896"><ele>6.999999999999999</ele><time>2026-04-27T08:00:38Z</time></trkpt><trkpt lat="41.098357132061636" lon="19.58544604010226"><ele>7.0</ele><time>2026-04-27T08:00:39Z</time></trkpt><trkpt lat="41.098279636180514" lon="19.585493814963122"><ele>7.0</ele><time>2026-04-27T08:00:40Z</time></trkpt><trkpt lat="41.09820660439538" lon="19.5855590004516"><ele>6.6</ele><time>2026-04-27T08:00:41Z</time></trkpt><trkpt lat="41.098127424146014" lon="19.58556931794811"><ele>6.199999999999999</ele><time>2026-04-27T08:00:42Z</time></trkpt><trkpt lat="41.098058668863445" lon="19.585548207471078"><ele>5.8</ele><time>2026-04-27T08:00:43Z</time></trkpt><trkpt lat="41.09795966296085" lon="19.585501889276436"><ele>5.4</ele><time>2026-04-27T08:00:45Z</time></trkpt><trkpt lat="41.09786743602902" lon="19.585475853326113"><ele>5.0</ele><time>2026-04-27T08:00:47Z</time></trkpt><trkpt lat="41.09777919933198" lon="19.585397541632492"><ele>5.0</ele><time>2026-04-27T08:00:49Z</time></trkpt><trkpt lat="41.09765479427517" lon="19.585368811625518"><ele>5.0</ele><time>2026-04-27T08:00:51Z</time></trkpt><trkpt lat="41.09755476810178" lon="19.585364244502745"><ele>5.0</ele><time>2026-04-27T08:00:53Z</time></trkpt><trkpt lat="41.09744524633203" lon="19.585389562119595"><ele>5.0</ele><time>2026-04-27T08:00:55Z</time></trkpt><trkpt lat="41.097359534824875" lon="19.58540276704643"><ele>5.0</ele><time>2026-04-27T08:00:57Z</time></trkpt><trkpt lat="41.097273590056375" lon="19.585424620993823"><ele>4.8</ele><time>2026-04-27T08:00:59Z</time></trkpt><trkpt lat="41.09718647068453" lon="19.585424733176673"><ele>4.6</ele><time>2026-04-27T08:01:01Z</time></trkpt><trkpt lat="41.09709314736639" lon="19.58544726058896"><ele>4.4</ele><time>2026-04-27T08:01:03Z</time></trkpt><trkpt lat="41.097005676295886" lon="19.58546904882981"><ele>4.2</ele><time>2026-04-27T08:01:05Z</time></trkpt><trkpt lat="41.09691012747075" lon="19.585492849178948"><ele>4.0</ele><time>2026-04-27T08:01:07Z</time></trkpt><trkpt lat="41.09682819004939" lon="19.585530364372417"><ele>4.0</ele><time>2026-04-27T08:01:09Z</time></trkpt><trkpt lat="41.096739270437155" lon="19.58554816847612"><ele>4.0</ele><time>2026-04-27T08:01:11Z</time></trkpt><trkpt lat="41.096648823630154" lon="19.58556785160416"><ele>4.0</ele><time>2026-04-27T08:01:13Z</time></trkpt><trkpt lat="41.096545633501194" lon="19.585589715725327"><ele>4.0</ele><time>2026-04-27T08:01:15Z</time></trkpt><trkpt lat="41.096415999075106" lon="19.585621998124143"><ele>4.0</ele><time>2026-04-27T08:01:17Z</time></trkpt><trkpt lat="41.09634106881195" lon="19.585640489049826"><ele>3.9999999999999996</ele><time>2026-04-27T08:01:18Z</time></trkpt><trkpt lat="41.09626531584946" lon="19.58566132098331"><ele>4.0</ele><time>2026-04-27T08:01:19Z</time></trkpt><trkpt lat="41.09619228978267" lon="19.585678750035147"><ele>4.0</ele><time>2026-04-27T08:01:20Z</time></trkpt><trkpt lat="41.09611074472434" lon="19.585694068008987"><ele>4.0</ele><time>2026-04-27T08:01:21Z</time></trkpt><trkpt lat="41.09602650415527" lon="19.58571960701889"><ele>3.9999999999999996</ele><time>2026-04-27T08:01:22Z</time></trkpt><trkpt lat="41.09594491366882" lon="19.585735621145947"><ele>4.0</ele><time>2026-04-27T08:01:23Z</time></trkpt><trkpt lat="41.09585788543786" lon="19.585754293564833"><ele>4.0</ele><time>2026-04-27T08:01:24Z</time></trkpt><trkpt lat="41.09577025505966" lon="19.58577919613759"><ele>4.0</ele><time>2026-04-27T08:01:25Z</time></trkpt><trkpt lat="41.095672169262265" lon="19.58580159138569"><ele>4.0</ele><time>2026-04-27T08:01:26Z</time></trkpt><trkpt lat="41.09558204737255" lon="19.58582254124465"><ele>4.0</ele><time>2026-04-27T08:01:27Z</time></trkpt><trkpt lat="41.095483494996756" lon="19.58584512696356"><ele>4.0</ele><time>2026-04-27T08:01:28Z</time></trkpt><trkpt lat="41.095401638901684" lon="19.58586846770686"><ele>3.9999999999999996</ele><time>2026-04-27T08:01:29Z</time></trkpt><trkpt lat="41.09531681152862" lon="19.5858903229545"><ele>4.0</ele><time>2026-04-27T08:01:30Z</time></trkpt><trkpt lat="41.09522711454627" lon="19.585908527145065"><ele>4.0</ele><time>2026-04-27T08:01:31Z</time></trkpt><trkpt lat="41.09514859984655" lon="19.585924637591447"><ele>4.0</ele><time>2026-04-27T08:01:32Z</time></trkpt><trkpt lat="41.09506232125645" lon="19.585949177309917"><ele>3.9999999999999996</ele><time>2026-04-27T08:01:33Z</time></trkpt><trkpt lat="41.094969816949686" lon="19.585968933807788"><ele>4.0</ele><time>2026-04-27T08:01:34Z</time></trkpt><trkpt lat="41.094885152652694" lon="19.585979663182584"><ele>3.9999999999999996</ele><time>2026-04-27T08:01:35Z</time></trkpt><trkpt lat="41.094815483624714" lon="19.585989108171756"><ele>4.0</ele><time>2026-04-27T08:01:36Z</time></trkpt><trkpt lat="41.09470568208381" lon="19.586016810152817"><ele>4.0</ele><time>2026-04-27T08:01:38Z</time></trkpt><trkpt lat="41.09461650255021" lon="19.586035201566315"><ele>4.0</ele><time>2026-04-27T08:01:40Z</time></trkpt><trkpt lat="41.09453905825132" lon="19.586070703188764"><ele>3.9999999999999996</ele><time>2026-04-27T08:01:42Z</time></trkpt><trkpt lat="41.09444929908057" lon="19.586095922278417"><ele>4.0</ele><time>2026-04-27T08:01:44Z</time></trkpt><trkpt lat="41.09438551751065" lon="19.586111705997975"><ele>3.9999999999999996</ele><time>2026-04-27T08:01:45Z</time></trkpt><trkpt lat="41.094318141800706" lon="19.58612422705202"><ele>4.0</ele><time>2026-04-27T08:01:46Z</time></trkpt><trkpt lat="41.09425332154868" lon="19.586142029903005"><ele>4.0</ele><time>2026-04-27T08:01:47Z</time></trkpt><trkpt lat="41.094176088925046" lon="19.586163717918282"><ele>4.0</ele><time>2026-04-27T08:01:48Z</time></trkpt><trkpt lat="41.094097979069645" lon="19.58618224480966"><ele>3.9999999999999996</ele><time>2026-04-27T08:01:49Z</time></trkpt><trkpt lat="41.09402452735864" lon="19.5862033812389"><ele>4.0</ele><time>2026-04-27T08:01:50Z</time></trkpt><trkpt lat="41.093903988511286" lon="19.586211958405876"><ele>4.166666666666666</ele><time>2026-04-27T08:01:52Z</time></trkpt><trkpt lat="41.09384055764985" lon="19.586226012529472"><ele>4.333333333333333</ele><time>2026-04-27T08:01:53Z</time></trkpt><trkpt lat="41.093765758580446" lon="19.58625404666511"><ele>4.5</ele><time>2026-04-27T08:01:54Z</time></trkpt><trkpt lat="41.093693388968326" lon="19.586273178352872"><ele>4.666666666666667</ele><time>2026-04-27T08:01:55Z</time></trkpt><trkpt lat="41.093620911514726" lon="19.58629154149306"><ele>4.833333333333334</ele><time>2026-04-27T08:01:56Z</time></trkpt><trkpt lat="41.09354385745443" lon="19.586314826984"><ele>5.0</ele><time>2026-04-27T08:01:57Z</time></trkpt><trkpt lat="41.09346198012869" lon="19.5863109675242"><ele>5.0</ele><time>2026-04-27T08:01:58Z</time></trkpt><trkpt lat="41.09337985899096" lon="19.586329395982034"><ele>5.0</ele><time>2026-04-27T08:01:59Z</time></trkpt><trkpt lat="41.09330373374409" lon="19.586346478930466"><ele>5.0</ele><time>2026-04-27T08:02:00Z</time></trkpt><trkpt lat="41.0932205472761" lon="19.58636514644813"><ele>5.0</ele><time>2026-04-27T08:02:01Z</time></trkpt><trkpt lat="41.093155890668925" lon="19.586379655777456"><ele>5.0</ele><time>2026-04-27T08:02:02Z</time></trkpt><trkpt lat="41.09308998501211" lon="19.586395322245277"><ele>5.0</ele><time>2026-04-27T08:02:03Z</time></trkpt><trkpt lat="41.092978002249936" lon="19.586433508197523"><ele>5.166666666666667</ele><time>2026-04-27T08:02:05Z</time></trkpt><trkpt lat="41.09290983102182" lon="19.58644546300152"><ele>5.333333333333334</ele><time>2026-04-27T08:02:06Z</time></trkpt><trkpt lat="41.09282355220398" lon="19.586460556092955"><ele>5.5</ele><time>2026-04-27T08:02:07Z</time></trkpt><trkpt lat="41.092745265216514" lon="19.586482941552728"><ele>5.666666666666667</ele><time>2026-04-27T08:02:08Z</time></trkpt><trkpt lat="41.092683299902" lon="19.586507032839027"><ele>5.833333333333333</ele><time>2026-04-27T08:02:09Z</time></trkpt><trkpt lat="41.09257292007289" lon="19.586548581843324"><ele>6.0</ele><time>2026-04-27T08:02:11Z</time></trkpt><trkpt lat="41.0925065693766" lon="19.586545816086524"><ele>5.833333333333333</ele><time>2026-04-27T08:02:12Z</time></trkpt><trkpt lat="41.092392841194595" lon="19.586575563222926"><ele>5.666666666666667</ele><time>2026-04-27T08:02:14Z</time></trkpt><trkpt lat="41.0923200183841" lon="19.586593105616313"><ele>5.5</ele><time>2026-04-27T08:02:15Z</time></trkpt><trkpt lat="41.092248419597716" lon="19.58660912462341"><ele>5.333333333333334</ele><time>2026-04-27T08:02:16Z</time></trkpt><trkpt lat="41.0921804574657" lon="19.586624511386123"><ele>5.166666666666667</ele><time>2026-04-27T08:02:17Z</time></trkpt><trkpt lat="41.09211347341753" lon="19.58664017277004"><ele>5.0</ele><time>2026-04-27T08:02:18Z</time></trkpt><trkpt lat="41.09204004154672" lon="19.586657341716425"><ele>5.0</ele><time>2026-04-27T08:02:19Z</time></trkpt><trkpt lat="41.091977363818664" lon="19.586671996256698"><ele>5.0</ele><time>2026-04-27T08:02:20Z</time></trkpt><trkpt lat="41.09190652253989" lon="19.586688517037665"><ele>5.0</ele><time>2026-04-27T08:02:21Z</time></trkpt><trkpt lat="41.0918290779765" lon="19.58670632236493"><ele>5.0</ele><time>2026-04-27T08:02:22Z</time></trkpt><trkpt lat="41.09175491446465" lon="19.586723327445743"><ele>5.0</ele><time>2026-04-27T08:02:23Z</time></trkpt><trkpt lat="41.09168509119376" lon="19.586739345417424"><ele>5.0</ele><time>2026-04-27T08:02:24Z</time></trkpt><trkpt lat="41.09160922084572" lon="19.586756817254866"><ele>5.0</ele><time>2026-04-27T08:02:25Z</time></trkpt><trkpt lat="41.09153190276654" lon="19.58677462247844"><ele>5.333333333333334</ele><time>2026-04-27T08:02:26Z</time></trkpt><trkpt lat="41.09145657715648" lon="19.5868127790288"><ele>5.666666666666667</ele><time>2026-04-27T08:02:27Z</time></trkpt><trkpt lat="41.09138309646455" lon="19.586830425907184"><ele>6.0</ele><time>2026-04-27T08:02:28Z</time></trkpt><trkpt lat="41.09130861765396" lon="19.586847246906242"><ele>6.333333333333334</ele><time>2026-04-27T08:02:29Z</time></trkpt><trkpt lat="41.0912252374153" lon="19.58686675840164"><ele>6.666666666666667</ele><time>2026-04-27T08:02:30Z</time></trkpt><trkpt lat="41.09113156718327" lon="19.586885228057703"><ele>7.0</ele><time>2026-04-27T08:02:31Z</time></trkpt><trkpt lat="41.09104020178993" lon="19.586903150854965"><ele>7.000000000000001</ele><time>2026-04-27T08:02:32Z</time></trkpt><trkpt lat="41.09094754132946" lon="19.586929485714332"><ele>7.0</ele><time>2026-04-27T08:02:33Z</time></trkpt><trkpt lat="41.090869536742176" lon="19.586948639689293"><ele>7.0</ele><time>2026-04-27T08:02:34Z</time></trkpt><trkpt lat="41.0907808342615" lon="19.58695200492252"><ele>7.0</ele><time>2026-04-27T08:02:35Z</time></trkpt><trkpt lat="41.09069024450786" lon="19.586996486629378"><ele>7.000000000000001</ele><time>2026-04-27T08:02:36Z</time></trkpt><trkpt lat="41.09060489845129" lon="19.58700885391648"><ele>7.0</ele><time>2026-04-27T08:02:37Z</time></trkpt><trkpt lat="41.09053487327655" lon="19.587028250870034"><ele>6.500000000000001</ele><time>2026-04-27T08:02:38Z</time></trkpt><trkpt lat="41.09047240846416" lon="19.58704667145882"><ele>6.0</ele><time>2026-04-27T08:02:39Z</time></trkpt><trkpt lat="41.090403335752654" lon="19.587064911966966"><ele>5.5</ele><time>2026-04-27T08:02:40Z</time></trkpt><trkpt lat="41.090323962677225" lon="19.587088860215797"><ele>5.0</ele><time>2026-04-27T08:02:41Z</time></trkpt><trkpt lat="41.09024461476615" lon="19.587105400990065"><ele>4.5</ele><time>2026-04-27T08:02:42Z</time></trkpt><trkpt lat="41.090166016461104" lon="19.587122492927804"><ele>4.0</ele><time>2026-04-27T08:02:43Z</time></trkpt><trkpt lat="41.090083413712804" lon="19.587143810840907"><ele>3.9999999999999996</ele><time>2026-04-27T08:02:44Z</time></trkpt><trkpt lat="41.090008147997565" lon="19.58716177470578"><ele>4.0</ele><time>2026-04-27T08:02:45Z</time></trkpt><trkpt lat="41.089923842155606" lon="19.587187645833172"><ele>4.0</ele><time>2026-04-27T08:02:46Z</time></trkpt><trkpt lat="41.08984167458347" lon="19.58720809740249"><ele>4.0</ele><time>2026-04-27T08:02:47Z</time></trkpt><trkpt lat="41.089754631689395" lon="19.587229424912767"><ele>3.9999999999999996</ele><time>2026-04-27T08:02:48Z</time></trkpt><trkpt lat="41.08966484181422" lon="19.587249635284866"><ele>4.0</ele><time>2026-04-27T08:02:49Z</time></trkpt><trkpt lat="41.08958153933334" lon="19.587269547801313"><ele>3.9999999999999996</ele><time>2026-04-27T08:02:50Z</time></trkpt><trkpt lat="41.089496474963966" lon="19.587293910623554"><ele>4.0</ele><time>2026-04-27T08:02:51Z</time></trkpt><trkpt lat="41.089413383983505" lon="19.58731368905281"><ele>4.0</ele><time>2026-04-27T08:02:52Z</time></trkpt><trkpt lat="41.08933070399476" lon="19.587331919253714"><ele>4.0</ele><time>2026-04-27T08:02:53Z</time></trkpt><trkpt lat="41.089252716284" lon="19.58735131922735"><ele>3.9999999999999996</ele><time>2026-04-27T08:02:54Z</time></trkpt><trkpt lat="41.089174372972245" lon="19.587370770633708"><ele>4.0</ele><time>2026-04-27T08:02:55Z</time></trkpt><trkpt lat="41.08909018024928" lon="19.587393420983492"><ele>3.9999999999999996</ele><time>2026-04-27T08:02:56Z</time></trkpt><trkpt lat="41.08901493739835" lon="19.58740136299469"><ele>4.0</ele><time>2026-04-27T08:02:57Z</time></trkpt><trkpt lat="41.08894382120331" lon="19.587412181381332"><ele>4.0</ele><time>2026-04-27T08:02:58Z</time></trkpt><trkpt lat="41.08887932277516" lon="19.587425480349516"><ele>4.0</ele><time>2026-04-27T08:02:59Z</time></trkpt><trkpt lat="41.088814474932406" lon="19.587444582781092"><ele>3.9999999999999996</ele><time>2026-04-27T08:03:00Z</time></trkpt><trkpt lat="41.08874635147021" lon="19.587462632038857"><ele>4.0</ele><time>2026-04-27T08:03:01Z</time></trkpt><trkpt lat="41.08862802079206" lon="19.587500958120213"><ele>4.0</ele><time>2026-04-27T08:03:03Z</time></trkpt><trkpt lat="41.08852226739985" lon="19.587510561863105"><ele>4.0</ele><time>2026-04-27T08:03:05Z</time></trkpt><trkpt lat="41.088415652172856" lon="19.587540288816975"><ele>4.0</ele><time>2026-04-27T08:03:07Z</time></trkpt><trkpt lat="41.088319191453756" lon="19.58756717589812"><ele>4.0</ele><time>2026-04-27T08:03:09Z</time></trkpt><trkpt lat="41.08822693975276" lon="19.58759659826068"><ele>4.0</ele><time>2026-04-27T08:03:11Z</time></trkpt><trkpt lat="41.08812437371324" lon="19.587625389123605"><ele>4.25</ele><time>2026-04-27T08:03:13Z</time></trkpt><trkpt lat="41.087999218029104" lon="19.587648952412806"><ele>4.5</ele><time>2026-04-27T08:03:15Z</time></trkpt><trkpt lat="41.087898359236746" lon="19.58767405863361"><ele>4.75</ele><time>2026-04-27T08:03:17Z</time></trkpt><trkpt lat="41.08779019608442" lon="19.58769579316948"><ele>5.0</ele><time>2026-04-27T08:03:19Z</time></trkpt><trkpt lat="41.08768030216664" lon="19.587723955128826"><ele>5.0</ele><time>2026-04-27T08:03:21Z</time></trkpt><trkpt lat="41.08758630552864" lon="19.587744064112428"><ele>5.0</ele><time>2026-04-27T08:03:23Z</time></trkpt><trkpt lat="41.08750132513909" lon="19.58775699753078"><ele>5.0</ele><time>2026-04-27T08:03:25Z</time></trkpt><trkpt lat="41.087395185023205" lon="19.587782203478866"><ele>5.0</ele><time>2026-04-27T08:03:27Z</time></trkpt><trkpt lat="41.08729359079635" lon="19.587812899701916"><ele>5.0</ele><time>2026-04-27T08:03:29Z</time></trkpt><trkpt lat="41.087191858346316" lon="19.58782990470493"><ele>5.0</ele><time>2026-04-27T08:03:31Z</time></trkpt><trkpt lat="41.087113404700375" lon="19.587841381196238"><ele>5.0</ele><time>2026-04-27T08:03:32Z</time></trkpt><trkpt lat="41.08703734305974" lon="19.587857829458954"><ele>5.0</ele><time>2026-04-27T08:03:33Z</time></trkpt><trkpt lat="41.08691962263319" lon="19.587875078606814"><ele>5.0</ele><time>2026-04-27T08:03:35Z</time></trkpt><trkpt lat="41.08683532121227" lon="19.587890973624326"><ele>5.0</ele><time>2026-04-27T08:03:36Z</time></trkpt><trkpt lat="41.086751485465186" lon="19.587918472380842"><ele>5.0</ele><time>2026-04-27T08:03:37Z</time></trkpt><trkpt lat="41.08666663578875" lon="19.58793985777867"><ele>5.0</ele><time>2026-04-27T08:03:38Z</time></trkpt><trkpt lat="41.08659931449299" lon="19.58795295866471"><ele>5.0</ele><time>2026-04-27T08:03:39Z</time></trkpt><trkpt lat="41.086524515006246" lon="19.587967991142214"><ele>5.0</ele><time>2026-04-27T08:03:40Z</time></trkpt><trkpt lat="41.08643908348997" lon="19.58798609531619"><ele>5.0</ele><time>2026-04-27T08:03:41Z</time></trkpt><trkpt lat="41.08634532246136" lon="19.58800871936637"><ele>5.0</ele><time>2026-04-27T08:03:42Z</time></trkpt><trkpt lat="41.08625701918339" lon="19.588034373261294"><ele>5.0</ele><time>2026-04-27T08:03:43Z</time></trkpt><trkpt lat="41.08616267392636" lon="19.588056038663566"><ele>5.0</ele><time>2026-04-27T08:03:44Z</time></trkpt><trkpt lat="41.08606660659675" lon="19.588082865932353"><ele>5.0</ele><time>2026-04-27T08:03:45Z</time></trkpt><trkpt lat="41.085981066800194" lon="19.58810214014854"><ele>5.0</ele><time>2026-04-27T08:03:46Z</time></trkpt><trkpt lat="41.085897647113846" lon="19.58811604065029"><ele>5.0</ele><time>2026-04-27T08:03:47Z</time></trkpt><trkpt lat="41.08580742972556" lon="19.58813777130746"><ele>5.0</ele><time>2026-04-27T08:03:48Z</time></trkpt><trkpt lat="41.08572135084855" lon="19.588155449383603"><ele>5.0</ele><time>2026-04-27T08:03:49Z</time></trkpt><trkpt lat="41.08563292791041" lon="19.588173465143996"><ele>4.833333333333334</ele><time>2026-04-27T08:03:50Z</time></trkpt><trkpt lat="41.08554391294247" lon="19.588197652518843"><ele>4.666666666666667</ele><time>2026-04-27T08:03:51Z</time></trkpt><trkpt lat="41.085469665035866" lon="19.58821209446142"><ele>4.5</ele><time>2026-04-27T08:03:52Z</time></trkpt><trkpt lat="41.08539748008876" lon="19.588229543645973"><ele>4.333333333333333</ele><time>2026-04-27T08:03:53Z</time></trkpt><trkpt lat="41.08532402519393" lon="19.5882528061836"><ele>4.166666666666666</ele><time>2026-04-27T08:03:54Z</time></trkpt><trkpt lat="41.085236787010565" lon="19.58827301178481"><ele>4.0</ele><time>2026-04-27T08:03:55Z</time></trkpt><trkpt lat="41.085149907593916" lon="19.588291119547744"><ele>3.9999999999999996</ele><time>2026-04-27T08:03:56Z</time></trkpt><trkpt lat="41.085062754006984" lon="19.588304720251223"><ele>4.0</ele><time>2026-04-27T08:03:57Z</time></trkpt><trkpt lat="41.08497827423892" lon="19.588323135433413"><ele>4.0</ele><time>2026-04-27T08:03:58Z</time></trkpt><trkpt lat="41.08489328459038" lon="19.588352416139237"><ele>4.0</ele><time>2026-04-27T08:03:59Z</time></trkpt><trkpt lat="41.084819058088506" lon="19.588373936140528"><ele>3.9999999999999996</ele><time>2026-04-27T08:04:00Z</time></trkpt><trkpt lat="41.084747375468815" lon="19.588397446193397"><ele>4.0</ele><time>2026-04-27T08:04:01Z</time></trkpt><trkpt lat="41.0846580640262" lon="19.588420950009827"><ele>3.75</ele><time>2026-04-27T08:04:02Z</time></trkpt><trkpt lat="41.084561622070744" lon="19.588443003610518"><ele>3.5</ele><time>2026-04-27T08:04:03Z</time></trkpt><trkpt lat="41.0844529899306" lon="19.588470046701886"><ele>3.25</ele><time>2026-04-27T08:04:04Z</time></trkpt><trkpt lat="41.084334382650965" lon="19.588495756481905"><ele>3.0</ele><time>2026-04-27T08:04:05Z</time></trkpt><trkpt lat="41.0842122789772" lon="19.588526621734037"><ele>3.25</ele><time>2026-04-27T08:04:06Z</time></trkpt><trkpt lat="41.08408371040942" lon="19.588567336020695"><ele>3.5</ele><time>2026-04-27T08:04:07Z</time></trkpt><trkpt lat="41.08395914251121" lon="19.588598660703063"><ele>3.75</ele><time>2026-04-27T08:04:08Z</time></trkpt><trkpt lat="41.08384036131761" lon="19.58862539397376"><ele>4.0</ele><time>2026-04-27T08:04:09Z</time></trkpt><trkpt lat="41.08373223263168" lon="19.588652330250408"><ele>4.25</ele><time>2026-04-27T08:04:10Z</time></trkpt><trkpt lat="41.083621156965755" lon="19.588682326413064"><ele>4.5</ele><time>2026-04-27T08:04:11Z</time></trkpt><trkpt lat="41.08350609554139" lon="19.58871054765356"><ele>4.75</ele><time>2026-04-27T08:04:12Z</time></trkpt><trkpt lat="41.083395376055975" lon="19.588738891316176"><ele>5.0</ele><time>2026-04-27T08:04:13Z</time></trkpt><trkpt lat="41.08327579839623" lon="19.588771147219486"><ele>4.75</ele><time>2026-04-27T08:04:14Z</time></trkpt><trkpt lat="41.083149413523266" lon="19.58880157022489"><ele>4.5</ele><time>2026-04-27T08:04:15Z</time></trkpt><trkpt lat="41.08301903715199" lon="19.588827591193322"><ele>4.25</ele><time>2026-04-27T08:04:16Z</time></trkpt><trkpt lat="41.082888848809134" lon="19.588851643095857"><ele>4.0</ele><time>2026-04-27T08:04:17Z</time></trkpt><trkpt lat="41.08275371415362" lon="19.58888024114032"><ele>4.0</ele><time>2026-04-27T08:04:18Z</time></trkpt><trkpt lat="41.08260806614364" lon="19.588916185718126"><ele>4.0</ele><time>2026-04-27T08:04:19Z</time></trkpt><trkpt lat="41.08245725043607" lon="19.588953466224545"><ele>4.0</ele><time>2026-04-27T08:04:20Z</time></trkpt><trkpt lat="41.08230449598706" lon="19.588990268698918"><ele>4.25</ele><time>2026-04-27T08:04:21Z</time></trkpt><trkpt lat="41.08215604450168" lon="19.589023399069003"><ele>4.5</ele><time>2026-04-27T08:04:22Z</time></trkpt><trkpt lat="41.08202713265853" lon="19.589054688468593"><ele>4.75</ele><time>2026-04-27T08:04:23Z</time></trkpt><trkpt lat="41.081909393766324" lon="19.589083008870922"><ele>5.0</ele><time>2026-04-27T08:04:24Z</time></trkpt><trkpt lat="41.08178908594393" lon="19.589110703697962"><ele>5.0</ele><time>2026-04-27T08:04:25Z</time></trkpt><trkpt lat="41.08166512618232" lon="19.58914189257501"><ele>5.0</ele><time>2026-04-27T08:04:26Z</time></trkpt><trkpt lat="41.08154961304703" lon="19.58917258759896"><ele>5.0</ele><time>2026-04-27T08:04:27Z</time></trkpt><trkpt lat="41.081455114704596" lon="19.58919689858617"><ele>5.0</ele><time>2026-04-27T08:04:28Z</time></trkpt><trkpt lat="41.081368528244305" lon="19.589220074481297"><ele>5.0</ele><time>2026-04-27T08:04:29Z</time></trkpt><trkpt lat="41.08128238355557" lon="19.589242417300657"><ele>5.2</ele><time>2026-04-27T08:04:30Z</time></trkpt><trkpt lat="41.08118156153063" lon="19.589267713744825"><ele>5.4</ele><time>2026-04-27T08:04:31Z</time></trkpt><trkpt lat="41.08106842519127" lon="19.589297084296415"><ele>5.6</ele><time>2026-04-27T08:04:32Z</time></trkpt><trkpt lat="41.08095860804109" lon="19.589325901961093"><ele>5.8</ele><time>2026-04-27T08:04:33Z</time></trkpt><trkpt lat="41.08086924113999" lon="19.589348813782387"><ele>6.0</ele><time>2026-04-27T08:04:34Z</time></trkpt><trkpt lat="41.0807911194271" lon="19.5893670803844"><ele>5.833333333333333</ele><time>2026-04-27T08:04:35Z</time></trkpt><trkpt lat="41.080717924072744" lon="19.589384109096777"><ele>5.666666666666667</ele><time>2026-04-27T08:04:36Z</time></trkpt><trkpt lat="41.080656148637644" lon="19.589408703046765"><ele>5.5</ele><time>2026-04-27T08:04:37Z</time></trkpt><trkpt lat="41.08056972946719" lon="19.589448831021404"><ele>5.333333333333334</ele><time>2026-04-27T08:04:39Z</time></trkpt><trkpt lat="41.08050965983919" lon="19.589474085259315"><ele>5.166666666666667</ele><time>2026-04-27T08:05:04Z</time></trkpt><trkpt lat="41.08053299494912" lon="19.589638785933086"><ele>5.0</ele><time>2026-04-27T08:05:06Z</time></trkpt><trkpt lat="41.080578300437494" lon="19.589719951937276"><ele>4.6</ele><time>2026-04-27T08:05:07Z</time></trkpt><trkpt lat="41.08060244591624" lon="19.589828817641042"><ele>4.2</ele><time>2026-04-27T08:05:08Z</time></trkpt><trkpt lat="41.080643273245315" lon="19.589942334278447"><ele>3.8</ele><time>2026-04-27T08:05:09Z</time></trkpt><trkpt lat="41.08068845983305" lon="19.590067971488395"><ele>3.4</ele><time>2026-04-27T08:05:10Z</time></trkpt><trkpt lat="41.08074731325684" lon="19.590182351409936"><ele>3.0</ele><time>2026-04-27T08:05:11Z</time></trkpt><trkpt lat="41.08078248468272" lon="19.590290740329564"><ele>3.0</ele><time>2026-04-27T08:05:12Z</time></trkpt><trkpt lat="41.0808235206656" lon="19.590401048133547"><ele>3.0</ele><time>2026-04-27T08:05:13Z</time></trkpt><trkpt lat="41.08086758086109" lon="19.590517014437786"><ele>3.0</ele><time>2026-04-27T08:05:14Z</time></trkpt><trkpt lat="41.08091076833796" lon="19.59063880535093"><ele>3.0</ele><time>2026-04-27T08:05:15Z</time></trkpt><trkpt lat="41.08095703286895" lon="19.590767749170283"><ele>3.0</ele><time>2026-04-27T08:05:16Z</time></trkpt><trkpt lat="41.081004266709286" lon="19.59089780720385"><ele>3.0</ele><time>2026-04-27T08:05:17Z</time></trkpt><trkpt lat="41.0810353447867" lon="19.591027722632916"><ele>3.0</ele><time>2026-04-27T08:05:18Z</time></trkpt><trkpt lat="41.08108466945306" lon="19.591164366058287"><ele>3.0</ele><time>2026-04-27T08:05:19Z</time></trkpt><trkpt lat="41.0811653071045" lon="19.591337271381445"><ele>3.0</ele><time>2026-04-27T08:05:20Z</time></trkpt><trkpt lat="41.08124677650697" lon="19.59161281385224"><ele>3.5</ele><time>2026-04-27T08:05:21Z</time></trkpt><trkpt lat="41.08136001492932" lon="19.591927475100793"><ele>4.0</ele><time>2026-04-27T08:05:22Z</time></trkpt><trkpt lat="41.08146457615507" lon="19.592218940226616"><ele>4.0</ele><time>2026-04-27T08:05:23Z</time></trkpt><trkpt lat="41.08156716665419" lon="19.592503172158548"><ele>4.0</ele><time>2026-04-27T08:05:24Z</time></trkpt><trkpt lat="41.08168622292335" lon="19.592788607391874"><ele>5.0</ele><time>2026-04-27T08:05:25Z</time></trkpt><trkpt lat="41.08179299387108" lon="19.59308790152652"><ele>6.0</ele><time>2026-04-27T08:05:26Z</time></trkpt><trkpt lat="41.081902753954324" lon="19.593387865493668"><ele>6.0</ele><time>2026-04-27T08:05:27Z</time></trkpt><trkpt lat="41.08201072364832" lon="19.59368519915517"><ele>6.0</ele><time>2026-04-27T08:05:28Z</time></trkpt><trkpt lat="41.082117658368865" lon="19.593979242380634"><ele>6.0</ele><time>2026-04-27T08:05:29Z</time></trkpt><trkpt lat="41.082225980747225" lon="19.594278798932013"><ele>6.0</ele><time>2026-04-27T08:05:30Z</time></trkpt><trkpt lat="41.08232092672091" lon="19.594590356481817"><ele>5.0</ele><time>2026-04-27T08:05:31Z</time></trkpt><trkpt lat="41.08244491497249" lon="19.594883058058205"><ele>4.0</ele><time>2026-04-27T08:05:32Z</time></trkpt><trkpt lat="41.082555002961406" lon="19.595187852856014"><ele>3.5</ele><time>2026-04-27T08:05:33Z</time></trkpt><trkpt lat="41.082663587499944" lon="19.595493140329026"><ele>3.0</ele><time>2026-04-27T08:05:34Z</time></trkpt><trkpt lat="41.082770892018004" lon="19.595792015394856"><ele>3.0</ele><time>2026-04-27T08:05:35Z</time></trkpt><trkpt lat="41.082870933578405" lon="19.5960691341296"><ele>3.0</ele><time>2026-04-27T08:05:36Z</time></trkpt><trkpt lat="41.082966869937394" lon="19.596338786397695"><ele>3.0</ele><time>2026-04-27T08:05:37Z</time></trkpt><trkpt lat="41.08306301521204" lon="19.596606065104815"><ele>3.0</ele><time>2026-04-27T08:05:38Z</time></trkpt><trkpt lat="41.08315887344698" lon="19.596872446089147"><ele>3.0</ele><time>2026-04-27T08:05:39Z</time></trkpt><trkpt lat="41.08325432516094" lon="19.597140157110232"><ele>3.666666666666667</ele><time>2026-04-27T08:05:40Z</time></trkpt><trkpt lat="41.08334900329497" lon="19.5974034118569"><ele>4.333333333333334</ele><time>2026-04-27T08:05:41Z</time></trkpt><trkpt lat="41.08344571305372" lon="19.597670349326783"><ele>5.0</ele><time>2026-04-27T08:05:42Z</time></trkpt><trkpt lat="41.08354210954006" lon="19.59793644684881"><ele>5.0</ele><time>2026-04-27T08:05:43Z</time></trkpt><trkpt lat="41.08363569359299" lon="19.59819000862433"><ele>5.0</ele><time>2026-04-27T08:05:44Z</time></trkpt><trkpt lat="41.083709353812615" lon="19.5984440072633"><ele>5.0</ele><time>2026-04-27T08:05:45Z</time></trkpt><trkpt lat="41.08379254288901" lon="19.59867597635446"><ele>5.0</ele><time>2026-04-27T08:05:46Z</time></trkpt><trkpt lat="41.08387887710774" lon="19.598916715675436"><ele>5.0</ele><time>2026-04-27T08:05:47Z</time></trkpt><trkpt lat="41.08396511481042" lon="19.599157268492945"><ele>5.0</ele><time>2026-04-27T08:05:48Z</time></trkpt><trkpt lat="41.08405221132855" lon="19.599400564375692"><ele>5.333333333333334</ele><time>2026-04-27T08:05:49Z</time></trkpt><trkpt lat="41.084143667985224" lon="19.59965624372221"><ele>5.666666666666667</ele><time>2026-04-27T08:05:50Z</time></trkpt><trkpt lat="41.08423754019775" lon="19.599919006695142"><ele>6.0</ele><time>2026-04-27T08:05:51Z</time></trkpt><trkpt lat="41.08433440117827" lon="19.600189757062637"><ele>7.0</ele><time>2026-04-27T08:05:52Z</time></trkpt><trkpt lat="41.08443489114817" lon="19.60046854191069"><ele>8.0</ele><time>2026-04-27T08:05:53Z</time></trkpt><trkpt lat="41.084536163456036" lon="19.600751200322506"><ele>8.0</ele><time>2026-04-27T08:05:54Z</time></trkpt><trkpt lat="41.084637332877556" lon="19.60103404117669"><ele>8.0</ele><time>2026-04-27T08:05:55Z</time></trkpt><trkpt lat="41.08473771014934" lon="19.601315207804053"><ele>8.0</ele><time>2026-04-27T08:05:56Z</time></trkpt><trkpt lat="41.08483867328685" lon="19.601596991325778"><ele>8.0</ele><time>2026-04-27T08:05:57Z</time></trkpt><trkpt lat="41.08494001752454" lon="19.601878670249178"><ele>7.0</ele><time>2026-04-27T08:05:58Z</time></trkpt><trkpt lat="41.08504018562286" lon="19.602158690214306"><ele>6.0</ele><time>2026-04-27T08:05:59Z</time></trkpt><trkpt lat="41.08514157369615" lon="19.602443416303764"><ele>6.0</ele><time>2026-04-27T08:06:00Z</time></trkpt><trkpt lat="41.08524376555536" lon="19.602728079156098"><ele>6.0</ele><time>2026-04-27T08:06:01Z</time></trkpt><trkpt lat="41.08534665054595" lon="19.60301454454741"><ele>6.0</ele><time>2026-04-27T08:06:02Z</time></trkpt><trkpt lat="41.08544854159387" lon="19.603298495563312"><ele>6.0</ele><time>2026-04-27T08:06:03Z</time></trkpt><trkpt lat="41.08554309640934" lon="19.603562001864866"><ele>6.0</ele><time>2026-04-27T08:06:04Z</time></trkpt><trkpt lat="41.085634737269515" lon="19.603819774056866"><ele>6.0</ele><time>2026-04-27T08:06:05Z</time></trkpt><trkpt lat="41.085729173493505" lon="19.604082826998017"><ele>6.0</ele><time>2026-04-27T08:06:06Z</time></trkpt><trkpt lat="41.08582182193944" lon="19.604341639172432"><ele>5.666666666666667</ele><time>2026-04-27T08:06:07Z</time></trkpt><trkpt lat="41.08591656768473" lon="19.60460585940644"><ele>5.333333333333334</ele><time>2026-04-27T08:06:08Z</time></trkpt><trkpt lat="41.08601236732564" lon="19.60487301905516"><ele>5.0</ele><time>2026-04-27T08:06:09Z</time></trkpt><trkpt lat="41.08611141924512" lon="19.6051492113221"><ele>6.0</ele><time>2026-04-27T08:06:10Z</time></trkpt><trkpt lat="41.08621484073804" lon="19.6054380620019"><ele>7.0</ele><time>2026-04-27T08:06:11Z</time></trkpt><trkpt lat="41.08631912864917" lon="19.605728245544277"><ele>7.0</ele><time>2026-04-27T08:06:12Z</time></trkpt><trkpt lat="41.08642254190056" lon="19.606012737638046"><ele>7.0</ele><time>2026-04-27T08:06:13Z</time></trkpt><trkpt lat="41.086516603387274" lon="19.60627150282443"><ele>6.666666666666667</ele><time>2026-04-27T08:06:14Z</time></trkpt><trkpt lat="41.08661079810317" lon="19.60652779509253"><ele>6.333333333333334</ele><time>2026-04-27T08:06:15Z</time></trkpt><trkpt lat="41.08671946248801" lon="19.606775669261868"><ele>6.0</ele><time>2026-04-27T08:06:16Z</time></trkpt><trkpt lat="41.08681474623037" lon="19.607045710442375"><ele>5.5</ele><time>2026-04-27T08:06:17Z</time></trkpt><trkpt lat="41.086910884728965" lon="19.60731674149133"><ele>5.0</ele><time>2026-04-27T08:06:18Z</time></trkpt><trkpt lat="41.087008599646005" lon="19.60759773096093"><ele>5.0</ele><time>2026-04-27T08:06:19Z</time></trkpt><trkpt lat="41.08710674934598" lon="19.607880911366518"><ele>5.0</ele><time>2026-04-27T08:06:20Z</time></trkpt><trkpt lat="41.08721032895115" lon="19.608169656278463"><ele>5.0</ele><time>2026-04-27T08:06:21Z</time></trkpt><trkpt lat="41.08731659893465" lon="19.60845979987792"><ele>5.0</ele><time>2026-04-27T08:06:22Z</time></trkpt><trkpt lat="41.08741539047766" lon="19.608733244516493"><ele>5.333333333333334</ele><time>2026-04-27T08:06:23Z</time></trkpt><trkpt lat="41.08750712483144" lon="19.60898964356302"><ele>5.666666666666667</ele><time>2026-04-27T08:06:24Z</time></trkpt><trkpt lat="41.08759829270326" lon="19.60924550651285"><ele>6.0</ele><time>2026-04-27T08:06:25Z</time></trkpt><trkpt lat="41.087688619894195" lon="19.609498613319065"><ele>6.0</ele><time>2026-04-27T08:06:26Z</time></trkpt><trkpt lat="41.08776998358251" lon="19.609729375832472"><ele>6.0</ele><time>2026-04-27T08:06:27Z</time></trkpt><trkpt lat="41.08784380794397" lon="19.60992952438174"><ele>6.0</ele><time>2026-04-27T08:06:28Z</time></trkpt><trkpt lat="41.087911495220375" lon="19.610113425596612"><ele>6.0</ele><time>2026-04-27T08:06:29Z</time></trkpt><trkpt lat="41.08797093641018" lon="19.610284197668364"><ele>6.0</ele><time>2026-04-27T08:06:30Z</time></trkpt><trkpt lat="41.08800961586268" lon="19.6103954971794"><ele>6.0</ele><time>2026-04-27T08:06:31Z</time></trkpt><trkpt lat="41.08803512615038" lon="19.610475902985694"><ele>6.0</ele><time>2026-04-27T08:06:32Z</time></trkpt><trkpt lat="41.08805207006961" lon="19.610577386351448"><ele>6.0</ele><time>2026-04-27T08:06:34Z</time></trkpt><trkpt lat="41.088037486292215" lon="19.610662491487908"><ele>6.0</ele><time>2026-04-27T08:06:36Z</time></trkpt><trkpt lat="41.087994449612864" lon="19.610786050062803"><ele>6.199999999999999</ele><time>2026-04-27T08:06:38Z</time></trkpt><trkpt lat="41.088021167383" lon="19.610883633685646"><ele>6.3999999999999995</ele><time>2026-04-27T08:06:40Z</time></trkpt><trkpt lat="41.08806678471925" lon="19.611003843349355"><ele>6.6</ele><time>2026-04-27T08:06:43Z</time></trkpt><trkpt lat="41.08808313238119" lon="19.61118392028006"><ele>6.8</ele><time>2026-04-27T08:06:45Z</time></trkpt><trkpt lat="41.088120038921176" lon="19.611293318654162"><ele>7.0</ele><time>2026-04-27T08:06:46Z</time></trkpt><trkpt lat="41.088158252814075" lon="19.61141828008265"><ele>7.0</ele><time>2026-04-27T08:06:47Z</time></trkpt><trkpt lat="41.08818954044523" lon="19.611541470132035"><ele>6.999999999999999</ele><time>2026-04-27T08:06:48Z</time></trkpt><trkpt lat="41.08820813898763" lon="19.611653587305177"><ele>6.999999999999999</ele><time>2026-04-27T08:06:49Z</time></trkpt><trkpt lat="41.088208700982506" lon="19.611775453272983"><ele>7.0</ele><time>2026-04-27T08:06:50Z</time></trkpt><trkpt lat="41.088169549897835" lon="19.611870812146577"><ele>7.0</ele><time>2026-04-27T08:06:50.999Z</time></trkpt><trkpt lat="41.08808793234984" lon="19.611981396135334"><ele>6.666666666666667</ele><time>2026-04-27T08:06:51.999Z</time></trkpt><trkpt lat="41.087984920780315" lon="19.61212322276665"><ele>6.333333333333334</ele><time>2026-04-27T08:06:52.999Z</time></trkpt><trkpt lat="41.08787597681992" lon="19.61228988172565"><ele>6.0</ele><time>2026-04-27T08:06:53.999Z</time></trkpt><trkpt lat="41.08776462667025" lon="19.612466966185494"><ele>6.0</ele><time>2026-04-27T08:06:54.999Z</time></trkpt><trkpt lat="41.08764779867756" lon="19.612656398053183"><ele>6.0</ele><time>2026-04-27T08:06:55.999Z</time></trkpt><trkpt lat="41.087518149093775" lon="19.61286434330166"><ele>6.0</ele><time>2026-04-27T08:06:56.999Z</time></trkpt><trkpt lat="41.087388083330545" lon="19.61306774993492"><ele>6.666666666666666</ele><time>2026-04-27T08:06:57.999Z</time></trkpt><trkpt lat="41.08727319050619" lon="19.613247579078962"><ele>7.333333333333333</ele><time>2026-04-27T08:06:58.999Z</time></trkpt><trkpt lat="41.0871616843106" lon="19.61342439255146"><ele>8.0</ele><time>2026-04-27T08:06:59.999Z</time></trkpt><trkpt lat="41.087041435259344" lon="19.61360861236013"><ele>8.0</ele><time>2026-04-27T08:07:00.999Z</time></trkpt><trkpt lat="41.08691925314353" lon="19.613791448632572"><ele>8.0</ele><time>2026-04-27T08:07:01.999Z</time></trkpt><trkpt lat="41.086788979370986" lon="19.613985581392843"><ele>8.0</ele><time>2026-04-27T08:07:02.999Z</time></trkpt><trkpt lat="41.08665359221415" lon="19.614180081721237"><ele>7.666666666666666</ele><time>2026-04-27T08:07:03.999Z</time></trkpt><trkpt lat="41.0865151700049" lon="19.614381667740574"><ele>7.333333333333334</ele><time>2026-04-27T08:07:04.999Z</time></trkpt><trkpt lat="41.086377298179755" lon="19.614593144799777"><ele>7.0</ele><time>2026-04-27T08:07:05.999Z</time></trkpt><trkpt lat="41.08623595195522" lon="19.6148156371567"><ele>8.0</ele><time>2026-04-27T08:07:06.999Z</time></trkpt><trkpt lat="41.0860892937376" lon="19.615048278538442"><ele>9.0</ele><time>2026-04-27T08:07:08Z</time></trkpt><trkpt lat="41.0859333682891" lon="19.615293409109135"><ele>8.5</ele><time>2026-04-27T08:07:09Z</time></trkpt><trkpt lat="41.08577653069791" lon="19.615537445162587"><ele>8.0</ele><time>2026-04-27T08:07:10Z</time></trkpt><trkpt lat="41.08561263683284" lon="19.61578101896041"><ele>7.5</ele><time>2026-04-27T08:07:11Z</time></trkpt><trkpt lat="41.08544114911422" lon="19.6160268829514"><ele>7.0</ele><time>2026-04-27T08:07:12Z</time></trkpt><trkpt lat="41.0852684630501" lon="19.616281187325132"><ele>7.0</ele><time>2026-04-27T08:07:13Z</time></trkpt><trkpt lat="41.085094939106966" lon="19.616547502944897"><ele>7.0</ele><time>2026-04-27T08:07:14Z</time></trkpt><trkpt lat="41.08492037946607" lon="19.616811832781497"><ele>7.5</ele><time>2026-04-27T08:07:15Z</time></trkpt><trkpt lat="41.0847456301613" lon="19.617082496985155"><ele>8.0</ele><time>2026-04-27T08:07:16Z</time></trkpt><trkpt lat="41.084570884909645" lon="19.617352241496636"><ele>8.0</ele><time>2026-04-27T08:07:17Z</time></trkpt><trkpt lat="41.084393776574736" lon="19.617624438614044"><ele>8.0</ele><time>2026-04-27T08:07:18Z</time></trkpt><trkpt lat="41.084219673993566" lon="19.617882147139404"><ele>9.0</ele><time>2026-04-27T08:07:19Z</time></trkpt><trkpt lat="41.084054415459896" lon="19.618118509588033"><ele>10.0</ele><time>2026-04-27T08:07:20Z</time></trkpt><trkpt lat="41.083888199916956" lon="19.618349736326827"><ele>10.0</ele><time>2026-04-27T08:07:21Z</time></trkpt><trkpt lat="41.08372393460395" lon="19.61857792813037"><ele>10.0</ele><time>2026-04-27T08:07:22Z</time></trkpt><trkpt lat="41.0835607954183" lon="19.61880875078578"><ele>10.0</ele><time>2026-04-27T08:07:23Z</time></trkpt><trkpt lat="41.083402477872134" lon="19.619025514858947"><ele>10.0</ele><time>2026-04-27T08:07:24Z</time></trkpt><trkpt lat="41.08325266521483" lon="19.619222269970766"><ele>10.0</ele><time>2026-04-27T08:07:25Z</time></trkpt><trkpt lat="41.08310100113033" lon="19.619422636937568"><ele>10.0</ele><time>2026-04-27T08:07:26Z</time></trkpt><trkpt lat="41.082938955294836" lon="19.619628847626423"><ele>10.0</ele><time>2026-04-27T08:07:27Z</time></trkpt><trkpt lat="41.08276969711938" lon="19.619839531061658"><ele>10.0</ele><time>2026-04-27T08:07:28Z</time></trkpt><trkpt lat="41.08259801527241" lon="19.620054353974375"><ele>10.0</ele><time>2026-04-27T08:07:29Z</time></trkpt><trkpt lat="41.08242688154287" lon="19.620271720229066"><ele>10.0</ele><time>2026-04-27T08:07:30Z</time></trkpt><trkpt lat="41.08225697489459" lon="19.620484785512758"><ele>10.0</ele><time>2026-04-27T08:07:31Z</time></trkpt><trkpt lat="41.08208563228258" lon="19.620704953432014"><ele>10.0</ele><time>2026-04-27T08:07:32Z</time></trkpt><trkpt lat="41.08191616575223" lon="19.62093340367069"><ele>10.0</ele><time>2026-04-27T08:07:33Z</time></trkpt><trkpt lat="41.08174282733436" lon="19.62116661313229"><ele>10.5</ele><time>2026-04-27T08:07:34Z</time></trkpt><trkpt lat="41.08156431768864" lon="19.62140248968111"><ele>11.0</ele><time>2026-04-27T08:07:35Z</time></trkpt><trkpt lat="41.08138349928231" lon="19.621638868663485"><ele>11.0</ele><time>2026-04-27T08:07:36Z</time></trkpt><trkpt lat="41.08120119910717" lon="19.62187689701321"><ele>11.0</ele><time>2026-04-27T08:07:37Z</time></trkpt><trkpt lat="41.08102631455759" lon="19.622108476751606"><ele>11.5</ele><time>2026-04-27T08:07:38Z</time></trkpt><trkpt lat="41.08086429218897" lon="19.622322745729385"><ele>12.0</ele><time>2026-04-27T08:07:39Z</time></trkpt><trkpt lat="41.080700915251455" lon="19.622533244718653"><ele>12.5</ele><time>2026-04-27T08:07:40Z</time></trkpt><trkpt lat="41.08052789107254" lon="19.622754577904598"><ele>13.0</ele><time>2026-04-27T08:07:41Z</time></trkpt><trkpt lat="41.080354204934245" lon="19.622979533300878"><ele>13.0</ele><time>2026-04-27T08:07:42Z</time></trkpt><trkpt lat="41.080177037745074" lon="19.62321178470549"><ele>13.0</ele><time>2026-04-27T08:07:43Z</time></trkpt><trkpt lat="41.079998989612065" lon="19.62344445933307"><ele>12.5</ele><time>2026-04-27T08:07:44Z</time></trkpt><trkpt lat="41.07981705995949" lon="19.623682574660574"><ele>12.0</ele><time>2026-04-27T08:07:45Z</time></trkpt><trkpt lat="41.07963315418752" lon="19.62392183616318"><ele>12.0</ele><time>2026-04-27T08:07:46Z</time></trkpt><trkpt lat="41.07944683052885" lon="19.624158884930992"><ele>12.0</ele><time>2026-04-27T08:07:47Z</time></trkpt><trkpt lat="41.07927044255232" lon="19.6243790207037"><ele>12.666666666666668</ele><time>2026-04-27T08:07:48Z</time></trkpt><trkpt lat="41.07910538965682" lon="19.62457625590895"><ele>13.333333333333334</ele><time>2026-04-27T08:07:49Z</time></trkpt><trkpt lat="41.0789497169303" lon="19.62475282906309"><ele>14.0</ele><time>2026-04-27T08:07:50Z</time></trkpt><trkpt lat="41.07878665087759" lon="19.624922241148237"><ele>14.0</ele><time>2026-04-27T08:07:51Z</time></trkpt><trkpt lat="41.07861145089269" lon="19.62509459210794"><ele>14.0</ele><time>2026-04-27T08:07:52Z</time></trkpt><trkpt lat="41.07841923684396" lon="19.62526454316548"><ele>14.0</ele><time>2026-04-27T08:07:53Z</time></trkpt><trkpt lat="41.078223611305354" lon="19.625442270823463"><ele>13.0</ele><time>2026-04-27T08:07:54Z</time></trkpt><trkpt lat="41.07802586060441" lon="19.6256258073266"><ele>12.0</ele><time>2026-04-27T08:07:55Z</time></trkpt><trkpt lat="41.07782417660351" lon="19.625804317424222"><ele>12.0</ele><time>2026-04-27T08:07:56Z</time></trkpt><trkpt lat="41.07761858318233" lon="19.625982729316995"><ele>12.0</ele><time>2026-04-27T08:07:57Z</time></trkpt><trkpt lat="41.07742537678799" lon="19.626145767263097"><ele>12.0</ele><time>2026-04-27T08:07:58Z</time></trkpt><trkpt lat="41.07723815011939" lon="19.626308865830392"><ele>12.0</ele><time>2026-04-27T08:07:59Z</time></trkpt><trkpt lat="41.07705178415877" lon="19.626487279201697"><ele>12.0</ele><time>2026-04-27T08:08:00Z</time></trkpt><trkpt lat="41.076871979086455" lon="19.626684199273093"><ele>12.0</ele><time>2026-04-27T08:08:01Z</time></trkpt><trkpt lat="41.076695064015745" lon="19.62689595309381"><ele>12.0</ele><time>2026-04-27T08:08:02Z</time></trkpt><trkpt lat="41.076522498302374" lon="19.627121057864077"><ele>12.0</ele><time>2026-04-27T08:08:03Z</time></trkpt><trkpt lat="41.07635819633908" lon="19.627363629927565"><ele>12.0</ele><time>2026-04-27T08:08:04Z</time></trkpt><trkpt lat="41.07619773362957" lon="19.62761553993072"><ele>12.0</ele><time>2026-04-27T08:08:05Z</time></trkpt><trkpt lat="41.076050534955066" lon="19.627863284666862"><ele>13.0</ele><time>2026-04-27T08:08:06Z</time></trkpt><trkpt lat="41.07591359679991" lon="19.6281116573861"><ele>14.0</ele><time>2026-04-27T08:08:07Z</time></trkpt><trkpt lat="41.07578101918365" lon="19.62837207508155"><ele>13.5</ele><time>2026-04-27T08:08:08Z</time></trkpt><trkpt lat="41.07564469361068" lon="19.628643730884452"><ele>13.0</ele><time>2026-04-27T08:08:09Z</time></trkpt><trkpt lat="41.07550238611969" lon="19.628914138231877"><ele>13.0</ele><time>2026-04-27T08:08:10Z</time></trkpt><trkpt lat="41.07535605605142" lon="19.62918907419547"><ele>13.0</ele><time>2026-04-27T08:08:11Z</time></trkpt><trkpt lat="41.07521288712231" lon="19.629468524482284"><ele>12.5</ele><time>2026-04-27T08:08:12Z</time></trkpt><trkpt lat="41.07508226754004" lon="19.629724632581958"><ele>12.0</ele><time>2026-04-27T08:08:13Z</time></trkpt><trkpt lat="41.0749591228532" lon="19.62996357855258"><ele>11.666666666666666</ele><time>2026-04-27T08:08:14Z</time></trkpt><trkpt lat="41.07483623458643" lon="19.63019936662704"><ele>11.333333333333332</ele><time>2026-04-27T08:08:15Z</time></trkpt><trkpt lat="41.074715981799905" lon="19.63041907590019"><ele>11.0</ele><time>2026-04-27T08:08:16Z</time></trkpt><trkpt lat="41.074601036154924" lon="19.630627175924598"><ele>11.0</ele><time>2026-04-27T08:08:17Z</time></trkpt><trkpt lat="41.07448404231769" lon="19.63083540291195"><ele>11.0</ele><time>2026-04-27T08:08:18Z</time></trkpt><trkpt lat="41.074367399542545" lon="19.631053558323668"><ele>11.0</ele><time>2026-04-27T08:08:19Z</time></trkpt><trkpt lat="41.074248256967415" lon="19.63127149576456"><ele>10.666666666666666</ele><time>2026-04-27T08:08:20Z</time></trkpt><trkpt lat="41.074135741003175" lon="19.631487295681467"><ele>10.333333333333334</ele><time>2026-04-27T08:08:21Z</time></trkpt><trkpt lat="41.07403279120688" lon="19.631689083420213"><ele>10.0</ele><time>2026-04-27T08:08:22Z</time></trkpt><trkpt lat="41.07393628258284" lon="19.63187608381194"><ele>9.5</ele><time>2026-04-27T08:08:23Z</time></trkpt><trkpt lat="41.073846443037326" lon="19.632047146657534"><ele>9.0</ele><time>2026-04-27T08:08:24Z</time></trkpt><trkpt lat="41.07376500250655" lon="19.63219971536755"><ele>8.5</ele><time>2026-04-27T08:08:25Z</time></trkpt><trkpt lat="41.07368914295539" lon="19.63234690219173"><ele>8.0</ele><time>2026-04-27T08:08:26Z</time></trkpt><trkpt lat="41.073623092827724" lon="19.632480764267754"><ele>8.0</ele><time>2026-04-27T08:08:27Z</time></trkpt><trkpt lat="41.07356250619714" lon="19.63261424977528"><ele>8.0</ele><time>2026-04-27T08:08:28Z</time></trkpt><trkpt lat="41.07349976736142" lon="19.63275923248001"><ele>8.0</ele><time>2026-04-27T08:08:29Z</time></trkpt><trkpt lat="41.073435249438845" lon="19.632937456331938"><ele>8.0</ele><time>2026-04-27T08:08:30Z</time></trkpt><trkpt lat="41.07335582462824" lon="19.633135544591987"><ele>8.0</ele><time>2026-04-27T08:08:31Z</time></trkpt><trkpt lat="41.07326439245346" lon="19.633344897079535"><ele>8.0</ele><time>2026-04-27T08:08:32Z</time></trkpt><trkpt lat="41.0731696373366" lon="19.633553966636438"><ele>8.0</ele><time>2026-04-27T08:08:33Z</time></trkpt><trkpt lat="41.07308337124472" lon="19.633755592766814"><ele>8.0</ele><time>2026-04-27T08:08:34Z</time></trkpt><trkpt lat="41.07300985110245" lon="19.63395415978261"><ele>8.0</ele><time>2026-04-27T08:08:35Z</time></trkpt><trkpt lat="41.07293226119735" lon="19.634153875807904"><ele>8.0</ele><time>2026-04-27T08:08:36Z</time></trkpt><trkpt lat="41.07286831488539" lon="19.63433564500452"><ele>8.25</ele><time>2026-04-27T08:08:36.999Z</time></trkpt><trkpt lat="41.07282074663546" lon="19.63450624007661"><ele>8.5</ele><time>2026-04-27T08:08:37.999Z</time></trkpt><trkpt lat="41.072776969411315" lon="19.634653520591733"><ele>8.75</ele><time>2026-04-27T08:08:38.999Z</time></trkpt><trkpt lat="41.0727304946228" lon="19.634771926724422"><ele>9.0</ele><time>2026-04-27T08:08:39.999Z</time></trkpt><trkpt lat="41.07265467168857" lon="19.634855190997783"><ele>9.0</ele><time>2026-04-27T08:08:40.999Z</time></trkpt><trkpt lat="41.07254250167481" lon="19.6348956197377"><ele>9.0</ele><time>2026-04-27T08:08:41.999Z</time></trkpt><trkpt lat="41.07241477017483" lon="19.63491326568491"><ele>9.0</ele><time>2026-04-27T08:08:42.999Z</time></trkpt><trkpt lat="41.07229421383422" lon="19.634930150410845"><ele>9.0</ele><time>2026-04-27T08:08:43.999Z</time></trkpt><trkpt lat="41.07219991213395" lon="19.634966942040826"><ele>9.0</ele><time>2026-04-27T08:08:44.999Z</time></trkpt><trkpt lat="41.072119626081474" lon="19.635043417400695"><ele>9.0</ele><time>2026-04-27T08:08:45.999Z</time></trkpt><trkpt lat="41.072060431561155" lon="19.635150366226906"><ele>9.0</ele><time>2026-04-27T08:08:46.999Z</time></trkpt><trkpt lat="41.0720194720987" lon="19.635281394254278"><ele>9.0</ele><time>2026-04-27T08:08:47.999Z</time></trkpt><trkpt lat="41.071988885282714" lon="19.635439988066032"><ele>9.0</ele><time>2026-04-27T08:08:48.999Z</time></trkpt><trkpt lat="41.07195651822846" lon="19.635626050206568"><ele>9.0</ele><time>2026-04-27T08:08:49.999Z</time></trkpt><trkpt lat="41.071915468973565" lon="19.63583347058646"><ele>9.0</ele><time>2026-04-27T08:08:50.999Z</time></trkpt><trkpt lat="41.07187633998434" lon="19.636022342988976"><ele>9.0</ele><time>2026-04-27T08:08:51.999Z</time></trkpt><trkpt lat="41.07185694246352" lon="19.636185812420106"><ele>9.0</ele><time>2026-04-27T08:08:52.999Z</time></trkpt><trkpt lat="41.07186770386199" lon="19.636334709853433"><ele>9.25</ele><time>2026-04-27T08:08:53.999Z</time></trkpt><trkpt lat="41.07190098088635" lon="19.63648989204792"><ele>9.5</ele><time>2026-04-27T08:08:54.999Z</time></trkpt><trkpt lat="41.07195919121998" lon="19.636641359175783"><ele>9.75</ele><time>2026-04-27T08:08:55.999Z</time></trkpt><trkpt lat="41.0720237313318" lon="19.636782512148272"><ele>10.0</ele><time>2026-04-27T08:08:56.999Z</time></trkpt><trkpt lat="41.07207901599029" lon="19.636907335837854"><ele>10.0</ele><time>2026-04-27T08:08:57.999Z</time></trkpt><trkpt lat="41.07212300460501" lon="19.637006703882143"><ele>10.0</ele><time>2026-04-27T08:08:58.999Z</time></trkpt><trkpt lat="41.072150633846796" lon="19.637121585676685"><ele>10.0</ele><time>2026-04-27T08:09:00.999Z</time></trkpt><trkpt lat="41.07213243126997" lon="19.637253195647407"><ele>10.0</ele><time>2026-04-27T08:09:15Z</time></trkpt><trkpt lat="41.07212119713958" lon="19.637342431101715"><ele>10.0</ele><time>2026-04-27T08:09:16Z</time></trkpt><trkpt lat="41.072121553881246" lon="19.63743619069562"><ele>10.0</ele><time>2026-04-27T08:09:17Z</time></trkpt><trkpt lat="41.07214581041134" lon="19.637526437775726"><ele>10.0</ele><time>2026-04-27T08:09:18Z</time></trkpt><trkpt lat="41.07218553248668" lon="19.637615060607878"><ele>10.0</ele><time>2026-04-27T08:09:19Z</time></trkpt><trkpt lat="41.07224425718708" lon="19.63768333770885"><ele>10.0</ele><time>2026-04-27T08:09:20Z</time></trkpt><trkpt lat="41.072318244047146" lon="19.637729039486725"><ele>10.0</ele><time>2026-04-27T08:09:21Z</time></trkpt><trkpt lat="41.07242281508584" lon="19.637735990495422"><ele>10.0</ele><time>2026-04-27T08:09:22Z</time></trkpt><trkpt lat="41.07252619709386" lon="19.637730049317927"><ele>10.0</ele><time>2026-04-27T08:09:23Z</time></trkpt><trkpt lat="41.07262916756231" lon="19.63775324682494"><ele>9.75</ele><time>2026-04-27T08:09:24Z</time></trkpt><trkpt lat="41.07273938556887" lon="19.637834687830512"><ele>9.5</ele><time>2026-04-27T08:09:25Z</time></trkpt><trkpt lat="41.07285177581027" lon="19.63794530775978"><ele>9.25</ele><time>2026-04-27T08:09:26Z</time></trkpt><trkpt lat="41.07297432483098" lon="19.63806962177194"><ele>9.0</ele><time>2026-04-27T08:09:27Z</time></trkpt><trkpt lat="41.07310030713634" lon="19.63820672789407"><ele>9.0</ele><time>2026-04-27T08:09:28Z</time></trkpt><trkpt lat="41.073226995061546" lon="19.638359365501888"><ele>9.0</ele><time>2026-04-27T08:09:29Z</time></trkpt><trkpt lat="41.073348551998706" lon="19.638527767858186"><ele>9.0</ele><time>2026-04-27T08:09:30Z</time></trkpt><trkpt lat="41.07345665750333" lon="19.63869845597881"><ele>9.25</ele><time>2026-04-27T08:09:31Z</time></trkpt><trkpt lat="41.07354742657829" lon="19.638853733882954"><ele>9.5</ele><time>2026-04-27T08:09:32Z</time></trkpt><trkpt lat="41.07362813371835" lon="19.638995766543353"><ele>9.75</ele><time>2026-04-27T08:09:33Z</time></trkpt><trkpt lat="41.07370081264394" lon="19.639133870347155"><ele>10.0</ele><time>2026-04-27T08:09:34Z</time></trkpt><trkpt lat="41.073767604700855" lon="19.639274185282627"><ele>10.0</ele><time>2026-04-27T08:09:35Z</time></trkpt><trkpt lat="41.07381382277704" lon="19.639428983700544"><ele>10.0</ele><time>2026-04-27T08:09:36Z</time></trkpt><trkpt lat="41.0738720073808" lon="19.639573910610338"><ele>10.0</ele><time>2026-04-27T08:09:37Z</time></trkpt><trkpt lat="41.0739316447608" lon="19.639728616377017"><ele>10.0</ele><time>2026-04-27T08:09:38Z</time></trkpt><trkpt lat="41.0739962543028" lon="19.639874063219303"><ele>9.75</ele><time>2026-04-27T08:09:39Z</time></trkpt><trkpt lat="41.074037217285046" lon="19.640025018175585"><ele>9.5</ele><time>2026-04-27T08:09:40Z</time></trkpt><trkpt lat="41.074109989177494" lon="19.64016652454125"><ele>9.25</ele><time>2026-04-27T08:09:41Z</time></trkpt><trkpt lat="41.074152292671165" lon="19.64032635948632"><ele>9.0</ele><time>2026-04-27T08:09:42Z</time></trkpt><trkpt lat="41.074211089741596" lon="19.640487274466235"><ele>9.5</ele><time>2026-04-27T08:09:43Z</time></trkpt><trkpt lat="41.074272975107235" lon="19.640656700328613"><ele>10.0</ele><time>2026-04-27T08:09:44Z</time></trkpt><trkpt lat="41.07433796739193" lon="19.64083463209898"><ele>10.5</ele><time>2026-04-27T08:09:45Z</time></trkpt><trkpt lat="41.07437449083203" lon="19.64093462367297"><ele>11.0</ele><time>2026-04-27T08:09:46Z</time></trkpt><trkpt lat="41.074433742486974" lon="19.641096988140916"><ele>11.0</ele><time>2026-04-27T08:09:47Z</time></trkpt><trkpt lat="41.07449611086339" lon="19.6412684826271"><ele>11.0</ele><time>2026-04-27T08:09:48Z</time></trkpt><trkpt lat="41.07457289840785" lon="19.641429482459998"><ele>11.0</ele><time>2026-04-27T08:09:49Z</time></trkpt><trkpt lat="41.074629348323874" lon="19.64160588876071"><ele>11.0</ele><time>2026-04-27T08:09:50Z</time></trkpt><trkpt lat="41.07466882832645" lon="19.641801018714833"><ele>10.666666666666666</ele><time>2026-04-27T08:09:51Z</time></trkpt><trkpt lat="41.074715666529826" lon="19.641988108993534"><ele>10.333333333333334</ele><time>2026-04-27T08:09:52Z</time></trkpt><trkpt lat="41.07477977638617" lon="19.64217938275087"><ele>10.0</ele><time>2026-04-27T08:09:53Z</time></trkpt><trkpt lat="41.07482118847686" lon="19.642380793570734"><ele>10.0</ele><time>2026-04-27T08:09:54Z</time></trkpt><trkpt lat="41.07486028905519" lon="19.642591465272737"><ele>10.0</ele><time>2026-04-27T08:09:55Z</time></trkpt><trkpt lat="41.07487318529815" lon="19.64280020660118"><ele>10.0</ele><time>2026-04-27T08:09:56Z</time></trkpt><trkpt lat="41.074912483123846" lon="19.642985995356252"><ele>10.333333333333334</ele><time>2026-04-27T08:09:57Z</time></trkpt><trkpt lat="41.07493027636818" lon="19.643179905223477"><ele>10.666666666666666</ele><time>2026-04-27T08:09:58Z</time></trkpt><trkpt lat="41.07495043346519" lon="19.643392699245563"><ele>11.0</ele><time>2026-04-27T08:09:59Z</time></trkpt><trkpt lat="41.07495990020437" lon="19.64360626510625"><ele>11.333333333333332</ele><time>2026-04-27T08:10:00Z</time></trkpt><trkpt lat="41.07496041377624" lon="19.643820553171285"><ele>11.666666666666666</ele><time>2026-04-27T08:10:01Z</time></trkpt><trkpt lat="41.0749592360668" lon="19.644036042189132"><ele>12.0</ele><time>2026-04-27T08:10:02Z</time></trkpt><trkpt lat="41.074955262398305" lon="19.644248886455678"><ele>11.666666666666666</ele><time>2026-04-27T08:10:03Z</time></trkpt><trkpt lat="41.07493879067051" lon="19.644468885627187"><ele>11.333333333333332</ele><time>2026-04-27T08:10:04Z</time></trkpt><trkpt lat="41.07491604594065" lon="19.644688455678384"><ele>11.0</ele><time>2026-04-27T08:10:05Z</time></trkpt><trkpt lat="41.074889942975155" lon="19.644914219803834"><ele>11.0</ele><time>2026-04-27T08:10:06Z</time></trkpt><trkpt lat="41.07486157645663" lon="19.645144000336042"><ele>11.0</ele><time>2026-04-27T08:10:07Z</time></trkpt><trkpt lat="41.07481763539008" lon="19.645371545004657"><ele>11.0</ele><time>2026-04-27T08:10:08Z</time></trkpt><trkpt lat="41.07477282246345" lon="19.645594737385565"><ele>10.0</ele><time>2026-04-27T08:10:09Z</time></trkpt><trkpt lat="41.074720226992596" lon="19.645798950588"><ele>9.0</ele><time>2026-04-27T08:10:10Z</time></trkpt><trkpt lat="41.07466213967102" lon="19.645999461624776"><ele>8.0</ele><time>2026-04-27T08:10:11Z</time></trkpt><trkpt lat="41.074599512248824" lon="19.646210506177354"><ele>8.0</ele><time>2026-04-27T08:10:12Z</time></trkpt><trkpt lat="41.07453026543168" lon="19.646426993936423"><ele>8.0</ele><time>2026-04-27T08:10:13Z</time></trkpt><trkpt lat="41.07443340366148" lon="19.646659451571974"><ele>8.0</ele><time>2026-04-27T08:10:14Z</time></trkpt><trkpt lat="41.07435121772513" lon="19.646899120422685"><ele>9.0</ele><time>2026-04-27T08:10:15Z</time></trkpt><trkpt lat="41.07425360199209" lon="19.647211336363792"><ele>10.0</ele><time>2026-04-27T08:10:16Z</time></trkpt><trkpt lat="41.07412101148287" lon="19.647541730454748"><ele>9.5</ele><time>2026-04-27T08:10:17Z</time></trkpt><trkpt lat="41.07397383432272" lon="19.64789647997693"><ele>9.0</ele><time>2026-04-27T08:10:18Z</time></trkpt><trkpt lat="41.0738244955894" lon="19.648273823741583"><ele>9.0</ele><time>2026-04-27T08:10:19Z</time></trkpt><trkpt lat="41.07367461140353" lon="19.648670486585942"><ele>9.0</ele><time>2026-04-27T08:10:20Z</time></trkpt><trkpt lat="41.07352961384597" lon="19.649054393786912"><ele>9.0</ele><time>2026-04-27T08:10:21Z</time></trkpt><trkpt lat="41.07339734539987" lon="19.649404236728135"><ele>9.0</ele><time>2026-04-27T08:10:22Z</time></trkpt><trkpt lat="41.07326731616354" lon="19.64974360675112"><ele>9.0</ele><time>2026-04-27T08:10:23Z</time></trkpt><trkpt lat="41.073137274849394" lon="19.650072990717245"><ele>9.0</ele><time>2026-04-27T08:10:24Z</time></trkpt><trkpt lat="41.07300892016341" lon="19.650400595515105"><ele>9.5</ele><time>2026-04-27T08:10:25Z</time></trkpt><trkpt lat="41.07288777088884" lon="19.650720365770887"><ele>10.0</ele><time>2026-04-27T08:10:26Z</time></trkpt><trkpt lat="41.07276872452508" lon="19.651039497988034"><ele>9.5</ele><time>2026-04-27T08:10:27Z</time></trkpt><trkpt lat="41.07264945422499" lon="19.651354138529292"><ele>9.0</ele><time>2026-04-27T08:10:28Z</time></trkpt><trkpt lat="41.072529310148155" lon="19.651673573558707"><ele>9.5</ele><time>2026-04-27T08:10:29Z</time></trkpt><trkpt lat="41.07241021286907" lon="19.65199084899024"><ele>10.0</ele><time>2026-04-27T08:10:30Z</time></trkpt><trkpt lat="41.072289595888634" lon="19.652310204110417"><ele>10.0</ele><time>2026-04-27T08:10:31Z</time></trkpt><trkpt lat="41.07216905875206" lon="19.65262726694488"><ele>10.0</ele><time>2026-04-27T08:10:32Z</time></trkpt><trkpt lat="41.07204970214903" lon="19.652948141169"><ele>10.0</ele><time>2026-04-27T08:10:33Z</time></trkpt><trkpt lat="41.07193178441952" lon="19.653267864638973"><ele>10.0</ele><time>2026-04-27T08:10:34Z</time></trkpt><trkpt lat="41.07181173446741" lon="19.653588170872535"><ele>10.5</ele><time>2026-04-27T08:10:35Z</time></trkpt><trkpt lat="41.0716935010966" lon="19.653900463774985"><ele>11.0</ele><time>2026-04-27T08:10:36Z</time></trkpt><trkpt lat="41.07158298433366" lon="19.654194725384897"><ele>10.5</ele><time>2026-04-27T08:10:37Z</time></trkpt><trkpt lat="41.07146677702939" lon="19.654460154756254"><ele>10.0</ele><time>2026-04-27T08:10:38Z</time></trkpt><trkpt lat="41.07136181861021" lon="19.65473336030612"><ele>10.0</ele><time>2026-04-27T08:10:39Z</time></trkpt><trkpt lat="41.071255694102405" lon="19.655009602637218"><ele>10.0</ele><time>2026-04-27T08:10:40Z</time></trkpt><trkpt lat="41.071150222845226" lon="19.655287431176426"><ele>11.0</ele><time>2026-04-27T08:10:41Z</time></trkpt><trkpt lat="41.07104705438029" lon="19.655559018612884"><ele>12.0</ele><time>2026-04-27T08:10:42Z</time></trkpt><trkpt lat="41.070960486082036" lon="19.65584279900987"><ele>12.0</ele><time>2026-04-27T08:10:43Z</time></trkpt><trkpt lat="41.07086222746521" lon="19.656106872962837"><ele>12.0</ele><time>2026-04-27T08:10:44Z</time></trkpt><trkpt lat="41.070769183602955" lon="19.65635697161265"><ele>12.0</ele><time>2026-04-27T08:10:45Z</time></trkpt><trkpt lat="41.07067956171711" lon="19.656609320309563"><ele>12.0</ele><time>2026-04-27T08:10:46Z</time></trkpt><trkpt lat="41.070617826636436" lon="19.65685878046315"><ele>12.0</ele><time>2026-04-27T08:10:47Z</time></trkpt><trkpt lat="41.07056424331789" lon="19.657083444237426"><ele>12.0</ele><time>2026-04-27T08:10:48Z</time></trkpt><trkpt lat="41.07052951207575" lon="19.65728671190115"><ele>12.0</ele><time>2026-04-27T08:10:49Z</time></trkpt><trkpt lat="41.07050073808988" lon="19.657445355219355"><ele>12.0</ele><time>2026-04-27T08:10:50Z</time></trkpt><trkpt lat="41.07047213552074" lon="19.65757499559372"><ele>12.0</ele><time>2026-04-27T08:10:51Z</time></trkpt><trkpt lat="41.07041583351738" lon="19.657671851586187"><ele>12.0</ele><time>2026-04-27T08:10:52Z</time></trkpt><trkpt lat="41.070359812878934" lon="19.65775858606232"><ele>12.0</ele><time>2026-04-27T08:10:53Z</time></trkpt><trkpt lat="41.070276072269706" lon="19.657799399952637"><ele>12.0</ele><time>2026-04-27T08:10:54Z</time></trkpt><trkpt lat="41.07018012123285" lon="19.65780361605919"><ele>12.0</ele><time>2026-04-27T08:10:55Z</time></trkpt><trkpt lat="41.07009676048182" lon="19.657761212244463"><ele>12.0</ele><time>2026-04-27T08:10:56Z</time></trkpt><trkpt lat="41.07003897709816" lon="19.65766941124383"><ele>12.0</ele><time>2026-04-27T08:10:57Z</time></trkpt><trkpt lat="41.069992864798905" lon="19.657527418242307"><ele>12.0</ele><time>2026-04-27T08:10:58Z</time></trkpt><trkpt lat="41.06992425783734" lon="19.65735407578419"><ele>12.0</ele><time>2026-04-27T08:10:59Z</time></trkpt><trkpt lat="41.0698140299513" lon="19.657171631911822"><ele>12.0</ele><time>2026-04-27T08:11:00Z</time></trkpt><trkpt lat="41.06966567295548" lon="19.657006475098324"><ele>12.0</ele><time>2026-04-27T08:11:01Z</time></trkpt><trkpt lat="41.06949446471207" lon="19.65684217888064"><ele>12.0</ele><time>2026-04-27T08:11:02Z</time></trkpt><trkpt lat="41.069306854390135" lon="19.656661982679083"><ele>12.0</ele><time>2026-04-27T08:11:03Z</time></trkpt><trkpt lat="41.069110083683285" lon="19.65646162981164"><ele>11.5</ele><time>2026-04-27T08:11:04Z</time></trkpt><trkpt lat="41.06891075908246" lon="19.656257756279842"><ele>11.0</ele><time>2026-04-27T08:11:05Z</time></trkpt><trkpt lat="41.068732752081125" lon="19.65608221745457"><ele>11.666666666666666</ele><time>2026-04-27T08:11:06Z</time></trkpt><trkpt lat="41.068575999505484" lon="19.65592677132837"><ele>12.333333333333332</ele><time>2026-04-27T08:11:07Z</time></trkpt><trkpt lat="41.06843609673468" lon="19.65578085237874"><ele>13.0</ele><time>2026-04-27T08:11:08Z</time></trkpt><trkpt lat="41.06830999103458" lon="19.65564726939242"><ele>12.75</ele><time>2026-04-27T08:11:09Z</time></trkpt><trkpt lat="41.06819104583194" lon="19.655520008211212"><ele>12.5</ele><time>2026-04-27T08:11:10Z</time></trkpt><trkpt lat="41.06808066679059" lon="19.65541968433773"><ele>12.25</ele><time>2026-04-27T08:11:11Z</time></trkpt><trkpt lat="41.06797690125427" lon="19.65533972281672"><ele>12.0</ele><time>2026-04-27T08:11:12Z</time></trkpt><trkpt lat="41.067888178592156" lon="19.655278917712504"><ele>12.0</ele><time>2026-04-27T08:11:13Z</time></trkpt><trkpt lat="41.067812829470626" lon="19.655234809368583"><ele>12.0</ele><time>2026-04-27T08:11:13.999Z</time></trkpt><trkpt lat="41.06774353215782" lon="19.655203291197715"><ele>12.0</ele><time>2026-04-27T08:11:14.999Z</time></trkpt><trkpt lat="41.06763656591249" lon="19.655155628631903"><ele>12.0</ele><time>2026-04-27T08:11:16.999Z</time></trkpt><trkpt lat="41.067576610897376" lon="19.65512278212755"><ele>12.0</ele><time>2026-04-27T08:11:17.999Z</time></trkpt><trkpt lat="41.0674958442552" lon="19.655082219593318"><ele>12.0</ele><time>2026-04-27T08:11:18.999Z</time></trkpt><trkpt lat="41.06739019376276" lon="19.655030983073477"><ele>12.25</ele><time>2026-04-27T08:11:20Z</time></trkpt><trkpt lat="41.06726507526628" lon="19.65496920554711"><ele>12.5</ele><time>2026-04-27T08:11:21Z</time></trkpt><trkpt lat="41.06712868234558" lon="19.654896913836087"><ele>12.75</ele><time>2026-04-27T08:11:22Z</time></trkpt><trkpt lat="41.06698324782236" lon="19.654829013998373"><ele>13.0</ele><time>2026-04-27T08:11:23Z</time></trkpt><trkpt lat="41.06682533509028" lon="19.65476130492725"><ele>13.0</ele><time>2026-04-27T08:11:24Z</time></trkpt><trkpt lat="41.06666533785538" lon="19.654691035266964"><ele>13.0</ele><time>2026-04-27T08:11:25Z</time></trkpt><trkpt lat="41.06651463853028" lon="19.65461772136638"><ele>13.0</ele><time>2026-04-27T08:11:26Z</time></trkpt><trkpt lat="41.06636573299696" lon="19.654542994550347"><ele>13.0</ele><time>2026-04-27T08:11:27Z</time></trkpt><trkpt lat="41.066214747656" lon="19.654465018925787"><ele>13.0</ele><time>2026-04-27T08:11:28Z</time></trkpt><trkpt lat="41.06605724085599" lon="19.654390076274346"><ele>13.0</ele><time>2026-04-27T08:11:29Z</time></trkpt><trkpt lat="41.065894843195544" lon="19.654324329214205"><ele>12.0</ele><time>2026-04-27T08:11:30Z</time></trkpt><trkpt lat="41.06572687022121" lon="19.654253673801087"><ele>11.0</ele><time>2026-04-27T08:11:31Z</time></trkpt><trkpt lat="41.065558579079024" lon="19.65418201092926"><ele>10.0</ele><time>2026-04-27T08:11:32Z</time></trkpt><trkpt lat="41.06538501254929" lon="19.654110967191063"><ele>10.0</ele><time>2026-04-27T08:11:33Z</time></trkpt><trkpt lat="41.06520976017734" lon="19.65404144870443"><ele>10.0</ele><time>2026-04-27T08:11:34Z</time></trkpt><trkpt lat="41.065026576872945" lon="19.653965517207357"><ele>10.0</ele><time>2026-04-27T08:11:35Z</time></trkpt><trkpt lat="41.0648406121958" lon="19.65389123401187"><ele>10.333333333333334</ele><time>2026-04-27T08:11:36Z</time></trkpt><trkpt lat="41.0646528464216" lon="19.653815852075244"><ele>10.666666666666666</ele><time>2026-04-27T08:11:37Z</time></trkpt><trkpt lat="41.064476049234784" lon="19.653745413697575"><ele>11.0</ele><time>2026-04-27T08:11:38Z</time></trkpt><trkpt lat="41.064301296117605" lon="19.653676391709148"><ele>10.666666666666666</ele><time>2026-04-27T08:11:39Z</time></trkpt><trkpt lat="41.06414179124852" lon="19.6536108913128"><ele>10.333333333333334</ele><time>2026-04-27T08:11:40Z</time></trkpt><trkpt lat="41.0639989430635" lon="19.653553513754094"><ele>10.0</ele><time>2026-04-27T08:11:41Z</time></trkpt><trkpt lat="41.06387028925893" lon="19.65349936145912"><ele>11.5</ele><time>2026-04-27T08:11:42Z</time></trkpt><trkpt lat="41.06375293523143" lon="19.653449567947806"><ele>13.0</ele><time>2026-04-27T08:11:43Z</time></trkpt><trkpt lat="41.063645627101884" lon="19.653407709114543"><ele>14.5</ele><time>2026-04-27T08:11:44Z</time></trkpt><trkpt lat="41.06352552180315" lon="19.653374434262055"><ele>16.0</ele><time>2026-04-27T08:11:45Z</time></trkpt><trkpt lat="41.06340746689619" lon="19.653366224844454"><ele>16.0</ele><time>2026-04-27T08:11:46Z</time></trkpt><trkpt lat="41.0632907211609" lon="19.65339716758079"><ele>16.0</ele><time>2026-04-27T08:11:47Z</time></trkpt><trkpt lat="41.063174853514724" lon="19.653457489394953"><ele>16.0</ele><time>2026-04-27T08:11:48Z</time></trkpt><trkpt lat="41.063057026744374" lon="19.65355305843754"><ele>16.0</ele><time>2026-04-27T08:11:49Z</time></trkpt><trkpt lat="41.06293548289508" lon="19.6536637505304"><ele>16.400000000000002</ele><time>2026-04-27T08:11:50Z</time></trkpt><trkpt lat="41.06283166641988" lon="19.653768568164807"><ele>16.8</ele><time>2026-04-27T08:11:51Z</time></trkpt><trkpt lat="41.062751234791264" lon="19.653847613118728"><ele>17.200000000000003</ele><time>2026-04-27T08:11:52Z</time></trkpt><trkpt lat="41.06269118811593" lon="19.653902143720785"><ele>17.6</ele><time>2026-04-27T08:11:53Z</time></trkpt><trkpt lat="41.06271209309863" lon="19.653993148062646"><ele>18.0</ele><time>2026-04-27T08:11:57Z</time></trkpt><trkpt lat="41.06279336377392" lon="19.65397080226467"><ele>18.0</ele><time>2026-04-27T08:11:59Z</time></trkpt><trkpt lat="41.062895895001674" lon="19.653876402625045"><ele>18.0</ele><time>2026-04-27T08:12:00Z</time></trkpt><trkpt lat="41.06299231798219" lon="19.653787963877395"><ele>18.0</ele><time>2026-04-27T08:12:01Z</time></trkpt><trkpt lat="41.063096717968435" lon="19.653693829932546"><ele>18.0</ele><time>2026-04-27T08:12:02Z</time></trkpt><trkpt lat="41.063192656725384" lon="19.65363083152513"><ele>17.6</ele><time>2026-04-27T08:12:03Z</time></trkpt><trkpt lat="41.06327866242015" lon="19.653584083115728"><ele>17.200000000000003</ele><time>2026-04-27T08:12:04Z</time></trkpt><trkpt lat="41.063368938857884" lon="19.653564574907342"><ele>16.8</ele><time>2026-04-27T08:12:05Z</time></trkpt><trkpt lat="41.06347467104403" lon="19.653574644617706"><ele>16.400000000000002</ele><time>2026-04-27T08:12:06Z</time></trkpt><trkpt lat="41.0635703540747" lon="19.65362521135055"><ele>16.0</ele><time>2026-04-27T08:12:07Z</time></trkpt><trkpt lat="41.063646010294164" lon="19.653701117233037"><ele>18.5</ele><time>2026-04-27T08:12:08Z</time></trkpt><trkpt lat="41.06372050858879" lon="19.653798780403076"><ele>21.0</ele><time>2026-04-27T08:12:09Z</time></trkpt><trkpt lat="41.06379456792774" lon="19.653919190134392"><ele>23.5</ele><time>2026-04-27T08:12:10Z</time></trkpt><trkpt lat="41.06385335893899" lon="19.654056182345798"><ele>26.0</ele><time>2026-04-27T08:12:11Z</time></trkpt><trkpt lat="41.06388968333693" lon="19.654211713584786"><ele>26.0</ele><time>2026-04-27T08:12:12Z</time></trkpt><trkpt lat="41.063933161497744" lon="19.654381130405753"><ele>26.0</ele><time>2026-04-27T08:12:13Z</time></trkpt><trkpt lat="41.06398948459909" lon="19.654555529981128"><ele>26.0</ele><time>2026-04-27T08:12:14Z</time></trkpt><trkpt lat="41.064029320383355" lon="19.654751515769732"><ele>26.0</ele><time>2026-04-27T08:12:15Z</time></trkpt><trkpt lat="41.064081285622734" lon="19.655001519513593"><ele>24.333333333333332</ele><time>2026-04-27T08:12:16Z</time></trkpt><trkpt lat="41.064128058680595" lon="19.655288800392444"><ele>22.666666666666664</ele><time>2026-04-27T08:12:17Z</time></trkpt><trkpt lat="41.06417440338289" lon="19.655514068580594"><ele>21.0</ele><time>2026-04-27T08:12:18Z</time></trkpt><trkpt lat="41.06421546300922" lon="19.655705701127754"><ele>21.0</ele><time>2026-04-27T08:12:19Z</time></trkpt><trkpt lat="41.06425576465321" lon="19.65589509209565"><ele>21.0</ele><time>2026-04-27T08:12:20Z</time></trkpt><trkpt lat="41.06429051803587" lon="19.656049361315468"><ele>21.0</ele><time>2026-04-27T08:12:21Z</time></trkpt><trkpt lat="41.06430464722075" lon="19.65619133044836"><ele>21.0</ele><time>2026-04-27T08:12:22Z</time></trkpt><trkpt lat="41.064283184702546" lon="19.65635604871472"><ele>21.333333333333332</ele><time>2026-04-27T08:12:23Z</time></trkpt><trkpt lat="41.06424444500374" lon="19.65656007723443"><ele>21.666666666666664</ele><time>2026-04-27T08:12:24Z</time></trkpt><trkpt lat="41.064196894112214" lon="19.65679947514234"><ele>22.0</ele><time>2026-04-27T08:12:25Z</time></trkpt><trkpt lat="41.0641737087968" lon="19.657025264097555"><ele>22.0</ele><time>2026-04-27T08:12:26Z</time></trkpt><trkpt lat="41.06416262593621" lon="19.65722030175922"><ele>22.0</ele><time>2026-04-27T08:12:27Z</time></trkpt><trkpt lat="41.06415893612333" lon="19.657401153903614"><ele>22.0</ele><time>2026-04-27T08:12:28Z</time></trkpt><trkpt lat="41.064160814119525" lon="19.657618290813744"><ele>22.0</ele><time>2026-04-27T08:12:29Z</time></trkpt><trkpt lat="41.064156748216874" lon="19.65785288527886"><ele>21.75</ele><time>2026-04-27T08:12:30Z</time></trkpt><trkpt lat="41.06415279907976" lon="19.658065904902458"><ele>21.5</ele><time>2026-04-27T08:12:31Z</time></trkpt><trkpt lat="41.064155671199465" lon="19.65825463805623"><ele>21.25</ele><time>2026-04-27T08:12:32Z</time></trkpt><trkpt lat="41.064154047812096" lon="19.658444793863637"><ele>21.0</ele><time>2026-04-27T08:12:33Z</time></trkpt><trkpt lat="41.064125333050754" lon="19.658628307981527"><ele>27.75</ele><time>2026-04-27T08:12:34Z</time></trkpt><trkpt lat="41.064072777970566" lon="19.658786756603416"><ele>34.5</ele><time>2026-04-27T08:12:35Z</time></trkpt><trkpt lat="41.06399902211338" lon="19.658947990529384"><ele>41.25</ele><time>2026-04-27T08:12:36Z</time></trkpt><trkpt lat="41.063934658766094" lon="19.659139682481836"><ele>48.0</ele><time>2026-04-27T08:12:37Z</time></trkpt><trkpt lat="41.06388775027706" lon="19.65935575696939"><ele>49.33333333333333</ele><time>2026-04-27T08:12:38Z</time></trkpt><trkpt lat="41.06384551980135" lon="19.65956846697565"><ele>50.666666666666664</ele><time>2026-04-27T08:12:39Z</time></trkpt><trkpt lat="41.063816587155586" lon="19.659782924824484"><ele>52.0</ele><time>2026-04-27T08:12:40Z</time></trkpt><trkpt lat="41.06381915685749" lon="19.660010034611286"><ele>52.0</ele><time>2026-04-27T08:12:41Z</time></trkpt><trkpt lat="41.06383633985387" lon="19.66020635245602"><ele>52.0</ele><time>2026-04-27T08:12:42Z</time></trkpt><trkpt lat="41.06385416167085" lon="19.660400525667878"><ele>52.0</ele><time>2026-04-27T08:12:43Z</time></trkpt><trkpt lat="41.06388127934226" lon="19.66059386625339"><ele>52.0</ele><time>2026-04-27T08:12:44Z</time></trkpt><trkpt lat="41.06393016656469" lon="19.660769752938336"><ele>52.400000000000006</ele><time>2026-04-27T08:12:45Z</time></trkpt><trkpt lat="41.06393831030918" lon="19.660930038808317"><ele>52.800000000000004</ele><time>2026-04-27T08:12:46Z</time></trkpt><trkpt lat="41.06394364830169" lon="19.661071231091967"><ele>53.2</ele><time>2026-04-27T08:12:47Z</time></trkpt><trkpt lat="41.06392403116146" lon="19.661199197590992"><ele>53.6</ele><time>2026-04-27T08:12:48Z</time></trkpt><trkpt lat="41.06387903364296" lon="19.661329998002785"><ele>54.0</ele><time>2026-04-27T08:12:49Z</time></trkpt><trkpt lat="41.063811615827" lon="19.66146295824403"><ele>52.75</ele><time>2026-04-27T08:12:50Z</time></trkpt><trkpt lat="41.063760398453226" lon="19.661631656571824"><ele>51.5</ele><time>2026-04-27T08:12:51Z</time></trkpt><trkpt lat="41.06372221626649" lon="19.661805529916606"><ele>50.25</ele><time>2026-04-27T08:12:52Z</time></trkpt><trkpt lat="41.06368109094075" lon="19.661987437450538"><ele>49.0</ele><time>2026-04-27T08:12:53Z</time></trkpt><trkpt lat="41.063624888822126" lon="19.662182468480207"><ele>46.0</ele><time>2026-04-27T08:12:54Z</time></trkpt><trkpt lat="41.06355463868463" lon="19.662380669645586"><ele>43.0</ele><time>2026-04-27T08:12:55Z</time></trkpt><trkpt lat="41.063489693177154" lon="19.662558679553754"><ele>40.0</ele><time>2026-04-27T08:12:56Z</time></trkpt><trkpt lat="41.06342399707851" lon="19.662747245771268"><ele>35.0</ele><time>2026-04-27T08:12:57Z</time></trkpt><trkpt lat="41.06338515315214" lon="19.662947997421632"><ele>30.0</ele><time>2026-04-27T08:12:58Z</time></trkpt><trkpt lat="41.06332974479808" lon="19.663146646385574"><ele>25.0</ele><time>2026-04-27T08:12:59Z</time></trkpt><trkpt lat="41.06332357161877" lon="19.663369681991018"><ele>25.0</ele><time>2026-04-27T08:13:00Z</time></trkpt><trkpt lat="41.06328576371673" lon="19.663573888187674"><ele>25.0</ele><time>2026-04-27T08:13:01Z</time></trkpt><trkpt lat="41.06322132534649" lon="19.66375264026512"><ele>25.0</ele><time>2026-04-27T08:13:02Z</time></trkpt><trkpt lat="41.0631316351942" lon="19.66392739789121"><ele>32.0</ele><time>2026-04-27T08:13:03Z</time></trkpt><trkpt lat="41.06301977745178" lon="19.66409190873185"><ele>39.0</ele><time>2026-04-27T08:13:04Z</time></trkpt><trkpt lat="41.0629126207436" lon="19.664259018252928"><ele>46.0</ele><time>2026-04-27T08:13:05Z</time></trkpt><trkpt lat="41.06281977833452" lon="19.664440989057393"><ele>41.333333333333336</ele><time>2026-04-27T08:13:06Z</time></trkpt><trkpt lat="41.062730516370955" lon="19.664618593809426"><ele>36.666666666666664</ele><time>2026-04-27T08:13:07Z</time></trkpt><trkpt lat="41.06266470441658" lon="19.664826115106752"><ele>32.0</ele><time>2026-04-27T08:13:08Z</time></trkpt><trkpt lat="41.06259777758005" lon="19.66503947421168"><ele>32.0</ele><time>2026-04-27T08:13:09Z</time></trkpt><trkpt lat="41.06254078360229" lon="19.66526364274407"><ele>32.0</ele><time>2026-04-27T08:13:10Z</time></trkpt><trkpt lat="41.06250210592881" lon="19.665502919460597"><ele>32.0</ele><time>2026-04-27T08:13:11Z</time></trkpt><trkpt lat="41.06245138256351" lon="19.66573965329594"><ele>33.666666666666664</ele><time>2026-04-27T08:13:12Z</time></trkpt><trkpt lat="41.062411651813086" lon="19.665976444202297"><ele>35.333333333333336</ele><time>2026-04-27T08:13:12.999Z</time></trkpt><trkpt lat="41.06237796194149" lon="19.666178441784698"><ele>37.0</ele><time>2026-04-27T08:13:13.999Z</time></trkpt><trkpt lat="41.062347991546815" lon="19.66633614861027"><ele>33.0</ele><time>2026-04-27T08:13:14.999Z</time></trkpt><trkpt lat="41.06233220614297" lon="19.66649678488518"><ele>29.0</ele><time>2026-04-27T08:13:15.999Z</time></trkpt><trkpt lat="41.06234614217938" lon="19.66666412892549"><ele>25.0</ele><time>2026-04-27T08:13:16.999Z</time></trkpt><trkpt lat="41.06239945807277" lon="19.666834844448235"><ele>21.0</ele><time>2026-04-27T08:13:17.999Z</time></trkpt><trkpt lat="41.062454545694386" lon="19.66698065370368"><ele>19.25</ele><time>2026-04-27T08:13:18.999Z</time></trkpt><trkpt lat="41.06248752903192" lon="19.66712087493807"><ele>17.5</ele><time>2026-04-27T08:13:19.999Z</time></trkpt><trkpt lat="41.062476345071524" lon="19.667270514748864"><ele>15.75</ele><time>2026-04-27T08:13:20.999Z</time></trkpt><trkpt lat="41.06241415106769" lon="19.667416810110407"><ele>14.0</ele><time>2026-04-27T08:13:21.999Z</time></trkpt><trkpt lat="41.06234954546993" lon="19.667588125821073"><ele>14.333333333333334</ele><time>2026-04-27T08:13:22.999Z</time></trkpt><trkpt lat="41.06227709073089" lon="19.667780255220542"><ele>14.666666666666668</ele><time>2026-04-27T08:13:23.999Z</time></trkpt><trkpt lat="41.06221270850929" lon="19.667999997295986"><ele>15.0</ele><time>2026-04-27T08:13:24.999Z</time></trkpt><trkpt lat="41.06212905976471" lon="19.66821811537568"><ele>15.0</ele><time>2026-04-27T08:13:26Z</time></trkpt><trkpt lat="41.06203923146977" lon="19.668445166093527"><ele>15.0</ele><time>2026-04-27T08:13:27Z</time></trkpt><trkpt lat="41.06194190630537" lon="19.668681795446215"><ele>15.0</ele><time>2026-04-27T08:13:28Z</time></trkpt><trkpt lat="41.06184559158953" lon="19.668928112680522"><ele>14.666666666666668</ele><time>2026-04-27T08:13:29Z</time></trkpt><trkpt lat="41.06176382322575" lon="19.669164381818444"><ele>14.333333333333334</ele><time>2026-04-27T08:13:30Z</time></trkpt><trkpt lat="41.06168560642058" lon="19.669378902235398"><ele>14.0</ele><time>2026-04-27T08:13:31Z</time></trkpt><trkpt lat="41.06160341025912" lon="19.669573196071187"><ele>14.0</ele><time>2026-04-27T08:13:32Z</time></trkpt><trkpt lat="41.061517685324844" lon="19.66974448206389"><ele>14.0</ele><time>2026-04-27T08:13:33Z</time></trkpt><trkpt lat="41.06143293039277" lon="19.66988613723735"><ele>14.0</ele><time>2026-04-27T08:13:34Z</time></trkpt><trkpt lat="41.06135066956067" lon="19.67001010734617"><ele>14.0</ele><time>2026-04-27T08:13:35Z</time></trkpt><trkpt lat="41.0612673849194" lon="19.670131002437778"><ele>14.0</ele><time>2026-04-27T08:13:36Z</time></trkpt><trkpt lat="41.06116201785642" lon="19.670239156616244"><ele>14.0</ele><time>2026-04-27T08:13:37Z</time></trkpt><trkpt lat="41.06107530821047" lon="19.67038182757832"><ele>14.0</ele><time>2026-04-27T08:13:38Z</time></trkpt><trkpt lat="41.06097018923412" lon="19.67050856915227"><ele>14.0</ele><time>2026-04-27T08:13:39Z</time></trkpt><trkpt lat="41.06086812516717" lon="19.670629031206964"><ele>15.25</ele><time>2026-04-27T08:13:40Z</time></trkpt><trkpt lat="41.06077179124915" lon="19.670741504152208"><ele>16.5</ele><time>2026-04-27T08:13:41Z</time></trkpt><trkpt lat="41.060656063226254" lon="19.670829731109105"><ele>17.75</ele><time>2026-04-27T08:13:42Z</time></trkpt><trkpt lat="41.060520356561355" lon="19.670896466893183"><ele>19.0</ele><time>2026-04-27T08:13:43Z</time></trkpt><trkpt lat="41.06037085567075" lon="19.670977868792782"><ele>19.0</ele><time>2026-04-27T08:13:44Z</time></trkpt><trkpt lat="41.060219060363515" lon="19.671075509009874"><ele>19.0</ele><time>2026-04-27T08:13:45Z</time></trkpt><trkpt lat="41.06005407418491" lon="19.67114035138486"><ele>19.0</ele><time>2026-04-27T08:13:46Z</time></trkpt><trkpt lat="41.059875922463426" lon="19.671162024793677"><ele>18.333333333333332</ele><time>2026-04-27T08:13:47Z</time></trkpt><trkpt lat="41.05969738084775" lon="19.67123691097492"><ele>17.666666666666668</ele><time>2026-04-27T08:13:48Z</time></trkpt><trkpt lat="41.059510430555214" lon="19.67129180034274"><ele>17.0</ele><time>2026-04-27T08:13:49Z</time></trkpt><trkpt lat="41.059348393104266" lon="19.67135698299075"><ele>17.0</ele><time>2026-04-27T08:13:50Z</time></trkpt><trkpt lat="41.059198255131655" lon="19.671418677407726"><ele>17.0</ele><time>2026-04-27T08:13:51Z</time></trkpt><trkpt lat="41.05905595182434" lon="19.67149575662352"><ele>17.0</ele><time>2026-04-27T08:13:52Z</time></trkpt><trkpt lat="41.058894223970206" lon="19.671546682380605"><ele>19.666666666666668</ele><time>2026-04-27T08:13:53Z</time></trkpt><trkpt lat="41.05873610813184" lon="19.671631256724122"><ele>22.333333333333336</ele><time>2026-04-27T08:13:54Z</time></trkpt><trkpt lat="41.058579151189626" lon="19.671728909499407"><ele>25.0</ele><time>2026-04-27T08:13:55Z</time></trkpt><trkpt lat="41.05843300804257" lon="19.671854641512365"><ele>23.333333333333336</ele><time>2026-04-27T08:13:56Z</time></trkpt><trkpt lat="41.05829526569876" lon="19.67200304537025"><ele>21.666666666666668</ele><time>2026-04-27T08:13:57Z</time></trkpt><trkpt lat="41.05816529982029" lon="19.67215989378253"><ele>20.0</ele><time>2026-04-27T08:13:58Z</time></trkpt><trkpt lat="41.05805210679754" lon="19.672346343001134"><ele>19.666666666666668</ele><time>2026-04-27T08:13:59Z</time></trkpt><trkpt lat="41.05792164092808" lon="19.672518462478326"><ele>19.333333333333332</ele><time>2026-04-27T08:14:00Z</time></trkpt><trkpt lat="41.057787640313364" lon="19.672694619528237"><ele>19.0</ele><time>2026-04-27T08:14:01Z</time></trkpt><trkpt lat="41.057652348363334" lon="19.672872857072356"><ele>19.0</ele><time>2026-04-27T08:14:02Z</time></trkpt><trkpt lat="41.05753484567178" lon="19.673039212611307"><ele>19.0</ele><time>2026-04-27T08:14:03Z</time></trkpt><trkpt lat="41.05743591838874" lon="19.67317867739897"><ele>19.0</ele><time>2026-04-27T08:14:04Z</time></trkpt><trkpt lat="41.057335722746025" lon="19.673291025516665"><ele>19.0</ele><time>2026-04-27T08:14:05Z</time></trkpt><trkpt lat="41.05723049423963" lon="19.673408975656514"><ele>20.25</ele><time>2026-04-27T08:14:06Z</time></trkpt><trkpt lat="41.05713186766231" lon="19.673542014028683"><ele>21.5</ele><time>2026-04-27T08:14:07Z</time></trkpt><trkpt lat="41.057028718830914" lon="19.673682148468096"><ele>22.75</ele><time>2026-04-27T08:14:08Z</time></trkpt><trkpt lat="41.056918075418984" lon="19.67381095256862"><ele>24.0</ele><time>2026-04-27T08:14:09Z</time></trkpt><trkpt lat="41.05681425042651" lon="19.67391533430581"><ele>24.0</ele><time>2026-04-27T08:14:10Z</time></trkpt><trkpt lat="41.05670532384941" lon="19.674003512235593"><ele>24.0</ele><time>2026-04-27T08:14:11Z</time></trkpt><trkpt lat="41.05657819962439" lon="19.674084470273733"><ele>24.0</ele><time>2026-04-27T08:14:12Z</time></trkpt><trkpt lat="41.056431569510366" lon="19.67413524767077"><ele>24.0</ele><time>2026-04-27T08:14:13Z</time></trkpt><trkpt lat="41.056293728918675" lon="19.674244291926314"><ele>21.666666666666668</ele><time>2026-04-27T08:14:14Z</time></trkpt><trkpt lat="41.05613542419572" lon="19.67434191579696"><ele>19.333333333333336</ele><time>2026-04-27T08:14:15Z</time></trkpt><trkpt lat="41.05596883992331" lon="19.674451296666717"><ele>17.0</ele><time>2026-04-27T08:14:16Z</time></trkpt><trkpt lat="41.055798357034625" lon="19.6745747712906"><ele>22.666666666666668</ele><time>2026-04-27T08:14:17Z</time></trkpt><trkpt lat="41.05564331902461" lon="19.674695609158114"><ele>28.333333333333336</ele><time>2026-04-27T08:14:18Z</time></trkpt><trkpt lat="41.055504894712655" lon="19.67481335824743"><ele>34.0</ele><time>2026-04-27T08:14:19Z</time></trkpt><trkpt lat="41.05536697348197" lon="19.67493358514606"><ele>34.0</ele><time>2026-04-27T08:14:20Z</time></trkpt><trkpt lat="41.055220242163315" lon="19.675069210568342"><ele>34.0</ele><time>2026-04-27T08:14:21Z</time></trkpt><trkpt lat="41.055084729916054" lon="19.67523321599758"><ele>34.0</ele><time>2026-04-27T08:14:22Z</time></trkpt><trkpt lat="41.05495756108411" lon="19.67543605895969"><ele>36.0</ele><time>2026-04-27T08:14:23Z</time></trkpt><trkpt lat="41.054826458877066" lon="19.67560275596871"><ele>38.0</ele><time>2026-04-27T08:14:24Z</time></trkpt><trkpt lat="41.054717236562844" lon="19.675752134396653"><ele>40.0</ele><time>2026-04-27T08:14:25Z</time></trkpt><trkpt lat="41.0546365304836" lon="19.675944185359935"><ele>34.66666666666667</ele><time>2026-04-27T08:14:26Z</time></trkpt><trkpt lat="41.05457019452005" lon="19.676170979077344"><ele>29.333333333333336</ele><time>2026-04-27T08:14:27Z</time></trkpt><trkpt lat="41.054504836739255" lon="19.676420896644874"><ele>24.0</ele><time>2026-04-27T08:14:28Z</time></trkpt><trkpt lat="41.054429499940724" lon="19.676660392754922"><ele>24.0</ele><time>2026-04-27T08:14:29Z</time></trkpt><trkpt lat="41.05434164741838" lon="19.67688464426732"><ele>24.0</ele><time>2026-04-27T08:14:30Z</time></trkpt><trkpt lat="41.05423041542008" lon="19.67711121668071"><ele>24.0</ele><time>2026-04-27T08:14:31Z</time></trkpt><trkpt lat="41.05409794710537" lon="19.677286892422202"><ele>24.666666666666664</ele><time>2026-04-27T08:14:32Z</time></trkpt><trkpt lat="41.054017303693044" lon="19.67747802081698"><ele>25.333333333333332</ele><time>2026-04-27T08:14:33Z</time></trkpt><trkpt lat="41.053937376356956" lon="19.677647046790298"><ele>26.0</ele><time>2026-04-27T08:14:34Z</time></trkpt><trkpt lat="41.05381523749922" lon="19.677755492715015"><ele>23.333333333333332</ele><time>2026-04-27T08:14:35Z</time></trkpt><trkpt lat="41.05366559393931" lon="19.6778584125564"><ele>20.666666666666664</ele><time>2026-04-27T08:14:36Z</time></trkpt><trkpt lat="41.05350602334603" lon="19.677933465311156"><ele>18.0</ele><time>2026-04-27T08:14:37Z</time></trkpt><trkpt lat="41.053365622224696" lon="19.67802578597438"><ele>19.5</ele><time>2026-04-27T08:14:38Z</time></trkpt><trkpt lat="41.0532279274864" lon="19.678139162002534"><ele>21.0</ele><time>2026-04-27T08:14:39Z</time></trkpt><trkpt lat="41.053125147079385" lon="19.678260492826976"><ele>22.5</ele><time>2026-04-27T08:14:40Z</time></trkpt><trkpt lat="41.053004161368555" lon="19.678323433512272"><ele>24.0</ele><time>2026-04-27T08:14:41Z</time></trkpt><trkpt lat="41.05287472092488" lon="19.678313809821738"><ele>24.0</ele><time>2026-04-27T08:14:42Z</time></trkpt><trkpt lat="41.05278207254374" lon="19.67834103356587"><ele>24.0</ele><time>2026-04-27T08:14:43Z</time></trkpt><trkpt lat="41.052715375707336" lon="19.67846441893915"><ele>24.0</ele><time>2026-04-27T08:14:44Z</time></trkpt><trkpt lat="41.0526531731135" lon="19.67856507121644"><ele>24.0</ele><time>2026-04-27T08:14:45Z</time></trkpt><trkpt lat="41.05264682534923" lon="19.678722183637888"><ele>24.0</ele><time>2026-04-27T08:14:46Z</time></trkpt><trkpt lat="41.052627437668505" lon="19.678881289707572"><ele>23.25</ele><time>2026-04-27T08:14:47Z</time></trkpt><trkpt lat="41.05261451355047" lon="19.679035261507128"><ele>22.5</ele><time>2026-04-27T08:14:48Z</time></trkpt><trkpt lat="41.0525543476181" lon="19.679171771459973"><ele>21.75</ele><time>2026-04-27T08:14:49Z</time></trkpt><trkpt lat="41.05246714619108" lon="19.679321987411118"><ele>21.0</ele><time>2026-04-27T08:14:50Z</time></trkpt><trkpt lat="41.052376446535554" lon="19.679500813055455"><ele>21.0</ele><time>2026-04-27T08:14:51Z</time></trkpt><trkpt lat="41.05229853771182" lon="19.67965227015169"><ele>21.0</ele><time>2026-04-27T08:14:52Z</time></trkpt><trkpt lat="41.0522161017356" lon="19.67976319374246"><ele>21.0</ele><time>2026-04-27T08:14:53Z</time></trkpt><trkpt lat="41.05207380514773" lon="19.67981388547127"><ele>21.0</ele><time>2026-04-27T08:14:54Z</time></trkpt><trkpt lat="41.05194229265671" lon="19.679935656906743"><ele>21.0</ele><time>2026-04-27T08:14:55Z</time></trkpt><trkpt lat="41.0518022677483" lon="19.680071688462522"><ele>21.0</ele><time>2026-04-27T08:14:56Z</time></trkpt><trkpt lat="41.051675717581524" lon="19.68020700879878"><ele>21.0</ele><time>2026-04-27T08:14:57Z</time></trkpt><trkpt lat="41.05155796125933" lon="19.680327976790807"><ele>21.75</ele><time>2026-04-27T08:14:58Z</time></trkpt><trkpt lat="41.05145577180682" lon="19.6804375484517"><ele>22.5</ele><time>2026-04-27T08:14:59Z</time></trkpt><trkpt lat="41.05136718619372" lon="19.68054296497686"><ele>23.25</ele><time>2026-04-27T08:15:00Z</time></trkpt><trkpt lat="41.05126923335007" lon="19.680647642095217"><ele>24.0</ele><time>2026-04-27T08:15:01Z</time></trkpt><trkpt lat="41.05115356071424" lon="19.680742727750005"><ele>24.0</ele><time>2026-04-27T08:15:02Z</time></trkpt><trkpt lat="41.05104699995744" lon="19.680815989133617"><ele>24.0</ele><time>2026-04-27T08:15:03Z</time></trkpt><trkpt lat="41.05094849271581" lon="19.680878766678244"><ele>24.0</ele><time>2026-04-27T08:15:04Z</time></trkpt><trkpt lat="41.050855958398934" lon="19.680929948938953"><ele>24.0</ele><time>2026-04-27T08:15:05Z</time></trkpt><trkpt lat="41.05075500300957" lon="19.68100010410573"><ele>24.0</ele><time>2026-04-27T08:15:06Z</time></trkpt><trkpt lat="41.050659490478274" lon="19.681102462380647"><ele>25.4</ele><time>2026-04-27T08:15:07Z</time></trkpt><trkpt lat="41.050578684446364" lon="19.681233274924324"><ele>26.799999999999997</ele><time>2026-04-27T08:15:08Z</time></trkpt><trkpt lat="41.05051934765611" lon="19.681358671244237"><ele>28.200000000000003</ele><time>2026-04-27T08:15:09Z</time></trkpt><trkpt lat="41.050472090696125" lon="19.681479758212664"><ele>29.6</ele><time>2026-04-27T08:15:10Z</time></trkpt><trkpt lat="41.05043996340798" lon="19.6815911099854"><ele>31.0</ele><time>2026-04-27T08:15:11Z</time></trkpt><trkpt lat="41.050418119289255" lon="19.681711238907155"><ele>31.0</ele><time>2026-04-27T08:15:12Z</time></trkpt><trkpt lat="41.05038615460015" lon="19.681830010442116"><ele>31.0</ele><time>2026-04-27T08:15:13Z</time></trkpt><trkpt lat="41.050327412565196" lon="19.6819049483935"><ele>31.0</ele><time>2026-04-27T08:15:14Z</time></trkpt><trkpt lat="41.050275622393784" lon="19.6819845504085"><ele>31.0</ele><time>2026-04-27T08:15:15Z</time></trkpt><trkpt lat="41.05021641202612" lon="19.682075125712704"><ele>31.0</ele><time>2026-04-27T08:15:16Z</time></trkpt><trkpt lat="41.050177006433806" lon="19.682205645413998"><ele>29.5</ele><time>2026-04-27T08:15:17Z</time></trkpt><trkpt lat="41.05011930665411" lon="19.68233515428027"><ele>28.0</ele><time>2026-04-27T08:15:18Z</time></trkpt><trkpt lat="41.0500628466589" lon="19.682473645896895"><ele>26.5</ele><time>2026-04-27T08:15:19Z</time></trkpt><trkpt lat="41.05000825737169" lon="19.682612011817326"><ele>25.0</ele><time>2026-04-27T08:15:20Z</time></trkpt><trkpt lat="41.04995362779874" lon="19.682727536076367"><ele>25.4</ele><time>2026-04-27T08:15:21Z</time></trkpt><trkpt lat="41.049895246352" lon="19.682832628325514"><ele>25.8</ele><time>2026-04-27T08:15:22Z</time></trkpt><trkpt lat="41.04983065214235" lon="19.682910835418685"><ele>26.200000000000003</ele><time>2026-04-27T08:15:23Z</time></trkpt><trkpt lat="41.04974877401336" lon="19.682991784589092"><ele>26.6</ele><time>2026-04-27T08:15:24Z</time></trkpt><trkpt lat="41.04966781486068" lon="19.683085677758907"><ele>27.0</ele><time>2026-04-27T08:15:25Z</time></trkpt><trkpt lat="41.04958466785737" lon="19.683140345471106"><ele>27.0</ele><time>2026-04-27T08:15:26Z</time></trkpt><trkpt lat="41.049523957389" lon="19.683196848684904"><ele>27.0</ele><time>2026-04-27T08:15:27Z</time></trkpt><trkpt lat="41.04946243784138" lon="19.68321741594499"><ele>27.0</ele><time>2026-04-27T08:15:28Z</time></trkpt><trkpt lat="41.04939834125447" lon="19.68323980306852"><ele>27.0</ele><time>2026-04-27T08:15:29Z</time></trkpt><trkpt lat="41.0493218603009" lon="19.68325569678798"><ele>27.0</ele><time>2026-04-27T08:15:30Z</time></trkpt><trkpt lat="41.0492453561351" lon="19.683249527619644"><ele>27.0</ele><time>2026-04-27T08:15:31Z</time></trkpt><trkpt lat="41.04915454728914" lon="19.683227739961612"><ele>29.0</ele><time>2026-04-27T08:15:32Z</time></trkpt><trkpt lat="41.04905565277742" lon="19.683199814160417"><ele>31.000000000000004</ele><time>2026-04-27T08:15:33Z</time></trkpt><trkpt lat="41.048972968616084" lon="19.683176465801935"><ele>33.0</ele><time>2026-04-27T08:15:34Z</time></trkpt><trkpt lat="41.04890113119432" lon="19.683177571233177"><ele>35.0</ele><time>2026-04-27T08:15:35Z</time></trkpt><trkpt lat="41.04877996756124" lon="19.683196030409313"><ele>37.0</ele><time>2026-04-27T08:15:37Z</time></trkpt><trkpt lat="41.048762366598474" lon="19.68329046952279"><ele>37.0</ele><time>2026-04-27T08:15:38Z</time></trkpt><trkpt lat="41.04873624797429" lon="19.683385313102495"><ele>37.0</ele><time>2026-04-27T08:15:39Z</time></trkpt><trkpt lat="41.04871301190289" lon="19.683489553259918"><ele>37.0</ele><time>2026-04-27T08:15:40Z</time></trkpt><trkpt lat="41.048683508647954" lon="19.6835711856805"><ele>37.0</ele><time>2026-04-27T08:15:41Z</time></trkpt><trkpt lat="41.04865295563822" lon="19.683651825680332"><ele>37.0</ele><time>2026-04-27T08:15:42Z</time></trkpt><trkpt lat="41.04860577164902" lon="19.683777775691574"><ele>37.0</ele><time>2026-04-27T08:15:44Z</time></trkpt><trkpt lat="41.04866740568509" lon="19.683883976688158"><ele>36.800000000000004</ele><time>2026-04-27T08:15:45Z</time></trkpt><trkpt lat="41.04871144424717" lon="19.68398713544542"><ele>36.6</ele><time>2026-04-27T08:15:46Z</time></trkpt><trkpt lat="41.04877665980741" lon="19.68410414212018"><ele>36.400000000000006</ele><time>2026-04-27T08:15:47Z</time></trkpt><trkpt lat="41.048835724457355" lon="19.684219759589027"><ele>36.2</ele><time>2026-04-27T08:15:48Z</time></trkpt><trkpt lat="41.04886753951108" lon="19.684319015268915"><ele>36.0</ele><time>2026-04-27T08:15:49Z</time></trkpt><trkpt lat="41.04887253243336" lon="19.684417007622738"><ele>34.6</ele><time>2026-04-27T08:15:50Z</time></trkpt><trkpt lat="41.04886037729701" lon="19.68452401070003"><ele>33.2</ele><time>2026-04-27T08:15:51Z</time></trkpt><trkpt lat="41.04878863945766" lon="19.684639925302125"><ele>31.799999999999997</ele><time>2026-04-27T08:15:52Z</time></trkpt><trkpt lat="41.04872078003118" lon="19.684756214861675"><ele>30.4</ele><time>2026-04-27T08:15:53Z</time></trkpt><trkpt lat="41.0486384051298" lon="19.684875179060736"><ele>29.0</ele><time>2026-04-27T08:15:54Z</time></trkpt><trkpt lat="41.048555407487285" lon="19.68501316633753"><ele>29.0</ele><time>2026-04-27T08:15:55Z</time></trkpt><trkpt lat="41.048430260361705" lon="19.68512008539217"><ele>29.0</ele><time>2026-04-27T08:15:56Z</time></trkpt><trkpt lat="41.04831192329202" lon="19.685238129636183"><ele>29.0</ele><time>2026-04-27T08:15:57Z</time></trkpt><trkpt lat="41.048180212993884" lon="19.685346686488533"><ele>28.333333333333332</ele><time>2026-04-27T08:15:58Z</time></trkpt><trkpt lat="41.04803602169426" lon="19.685456349046238"><ele>27.666666666666664</ele><time>2026-04-27T08:15:59Z</time></trkpt><trkpt lat="41.047901128425394" lon="19.685559969909793"><ele>27.0</ele><time>2026-04-27T08:16:00Z</time></trkpt><trkpt lat="41.0477865820921" lon="19.685671881681227"><ele>27.0</ele><time>2026-04-27T08:16:01Z</time></trkpt><trkpt lat="41.04766421271126" lon="19.685771808434836"><ele>27.0</ele><time>2026-04-27T08:16:02Z</time></trkpt><trkpt lat="41.04754957018147" lon="19.6858801724504"><ele>27.0</ele><time>2026-04-27T08:16:03Z</time></trkpt><trkpt lat="41.04745097898792" lon="19.685978419342693"><ele>27.0</ele><time>2026-04-27T08:16:04Z</time></trkpt><trkpt lat="41.04736028776701" lon="19.68608596057988"><ele>25.75</ele><time>2026-04-27T08:16:05Z</time></trkpt><trkpt lat="41.04727875694938" lon="19.686219785611534"><ele>24.5</ele><time>2026-04-27T08:16:06Z</time></trkpt><trkpt lat="41.04719712080836" lon="19.68636924203318"><ele>23.25</ele><time>2026-04-27T08:16:07Z</time></trkpt><trkpt lat="41.04710623101014" lon="19.6865208006849"><ele>22.0</ele><time>2026-04-27T08:16:08Z</time></trkpt><trkpt lat="41.047011770472146" lon="19.686673008312113"><ele>22.0</ele><time>2026-04-27T08:16:09Z</time></trkpt><trkpt lat="41.046901666444214" lon="19.686813334299664"><ele>22.0</ele><time>2026-04-27T08:16:10Z</time></trkpt><trkpt lat="41.04682524954809" lon="19.686990874285673"><ele>22.0</ele><time>2026-04-27T08:16:11Z</time></trkpt><trkpt lat="41.04674166645596" lon="19.68716055445182"><ele>21.5</ele><time>2026-04-27T08:16:12Z</time></trkpt><trkpt lat="41.046644400136366" lon="19.68730505356676"><ele>21.0</ele><time>2026-04-27T08:16:13Z</time></trkpt><trkpt lat="41.04657963678724" lon="19.687457675300937"><ele>20.5</ele><time>2026-04-27T08:16:14Z</time></trkpt><trkpt lat="41.046516582853194" lon="19.68756230558338"><ele>20.0</ele><time>2026-04-27T08:16:15Z</time></trkpt><trkpt lat="41.04645716735012" lon="19.687653128066476"><ele>20.75</ele><time>2026-04-27T08:16:16Z</time></trkpt><trkpt lat="41.0463914614877" lon="19.68772608776156"><ele>21.5</ele><time>2026-04-27T08:16:17Z</time></trkpt><trkpt lat="41.046295409529144" lon="19.687810205255566"><ele>22.25</ele><time>2026-04-27T08:16:18Z</time></trkpt><trkpt lat="41.04616559007852" lon="19.68791393843486"><ele>23.0</ele><time>2026-04-27T08:16:19Z</time></trkpt><trkpt lat="41.0460100135966" lon="19.688032368304263"><ele>23.0</ele><time>2026-04-27T08:16:20Z</time></trkpt><trkpt lat="41.04584658499396" lon="19.688134064207823"><ele>23.0</ele><time>2026-04-27T08:16:21Z</time></trkpt><trkpt lat="41.04573622956498" lon="19.688227661295464"><ele>23.0</ele><time>2026-04-27T08:16:22Z</time></trkpt><trkpt lat="41.045650932200346" lon="19.6883091367032"><ele>23.0</ele><time>2026-04-27T08:16:23Z</time></trkpt><trkpt lat="41.04556664892784" lon="19.688389742128535"><ele>23.2</ele><time>2026-04-27T08:16:24Z</time></trkpt><trkpt lat="41.04547912018453" lon="19.688493372540922"><ele>23.4</ele><time>2026-04-27T08:16:25Z</time></trkpt><trkpt lat="41.045378347415934" lon="19.688585199464725"><ele>23.599999999999998</ele><time>2026-04-27T08:16:26Z</time></trkpt><trkpt lat="41.04529519359101" lon="19.68866094482702"><ele>23.799999999999997</ele><time>2026-04-27T08:16:27Z</time></trkpt><trkpt lat="41.045210862580255" lon="19.68873980486335"><ele>24.0</ele><time>2026-04-27T08:16:28Z</time></trkpt><trkpt lat="41.04514182375927" lon="19.688839888355474"><ele>24.0</ele><time>2026-04-27T08:16:29Z</time></trkpt><trkpt lat="41.045074531671006" lon="19.688952915951397"><ele>24.0</ele><time>2026-04-27T08:16:30Z</time></trkpt><trkpt lat="41.04500107623394" lon="19.689075808823294"><ele>24.0</ele><time>2026-04-27T08:16:31Z</time></trkpt><trkpt lat="41.04493587842749" lon="19.6891914534927"><ele>24.0</ele><time>2026-04-27T08:16:32Z</time></trkpt><trkpt lat="41.044875493892434" lon="19.68930017868433"><ele>24.0</ele><time>2026-04-27T08:16:33Z</time></trkpt><trkpt lat="41.044816207528555" lon="19.68943715210304"><ele>23.799999999999997</ele><time>2026-04-27T08:16:34Z</time></trkpt><trkpt lat="41.04476452695803" lon="19.689570006299004"><ele>23.599999999999998</ele><time>2026-04-27T08:16:35Z</time></trkpt><trkpt lat="41.04471552463524" lon="19.68970219850033"><ele>23.4</ele><time>2026-04-27T08:16:36Z</time></trkpt><trkpt lat="41.044670130462855" lon="19.689831521266367"><ele>23.2</ele><time>2026-04-27T08:16:37Z</time></trkpt><trkpt lat="41.04462964530483" lon="19.689952607508488"><ele>23.0</ele><time>2026-04-27T08:16:38Z</time></trkpt><trkpt lat="41.04460433706668" lon="19.69006817927599"><ele>23.0</ele><time>2026-04-27T08:16:39Z</time></trkpt><trkpt lat="41.04458524786858" lon="19.690190349234804"><ele>23.0</ele><time>2026-04-27T08:16:40Z</time></trkpt><trkpt lat="41.044569518710254" lon="19.690303784809245"><ele>23.0</ele><time>2026-04-27T08:16:41Z</time></trkpt><trkpt lat="41.044553003908554" lon="19.6903985427466"><ele>23.0</ele><time>2026-04-27T08:16:42Z</time></trkpt><trkpt lat="41.04453777677655" lon="19.69049252594881"><ele>23.0</ele><time>2026-04-27T08:16:43Z</time></trkpt><trkpt lat="41.044526266604784" lon="19.690615054979386"><ele>23.0</ele><time>2026-04-27T08:16:44Z</time></trkpt><trkpt lat="41.04451329631539" lon="19.690745000280963"><ele>23.599999999999998</ele><time>2026-04-27T08:16:45Z</time></trkpt><trkpt lat="41.044499891060205" lon="19.690881557089945"><ele>24.2</ele><time>2026-04-27T08:16:46Z</time></trkpt><trkpt lat="41.044461696842724" lon="19.69100536882917"><ele>24.8</ele><time>2026-04-27T08:16:47Z</time></trkpt><trkpt lat="41.04444940180405" lon="19.691125703776805"><ele>25.4</ele><time>2026-04-27T08:16:48Z</time></trkpt><trkpt lat="41.04439894400535" lon="19.691252916485563"><ele>26.0</ele><time>2026-04-27T08:16:49Z</time></trkpt><trkpt lat="41.04433438252364" lon="19.691412123628407"><ele>26.0</ele><time>2026-04-27T08:16:50Z</time></trkpt><trkpt lat="41.04423721955528" lon="19.69153078161157"><ele>26.0</ele><time>2026-04-27T08:16:51Z</time></trkpt><trkpt lat="41.04415096278308" lon="19.691648490914794"><ele>26.0</ele><time>2026-04-27T08:16:52Z</time></trkpt><trkpt lat="41.044049599223655" lon="19.691775085478646"><ele>26.0</ele><time>2026-04-27T08:16:53Z</time></trkpt><trkpt lat="41.043939545898034" lon="19.691906283933292"><ele>26.75</ele><time>2026-04-27T08:16:54Z</time></trkpt><trkpt lat="41.043841405677284" lon="19.69200275905593"><ele>27.5</ele><time>2026-04-27T08:16:55Z</time></trkpt><trkpt lat="41.04374630318115" lon="19.692084641713883"><ele>28.25</ele><time>2026-04-27T08:16:56Z</time></trkpt><trkpt lat="41.043678374345106" lon="19.69220106169249"><ele>29.0</ele><time>2026-04-27T08:16:57Z</time></trkpt><trkpt lat="41.043613834948026" lon="19.6923234434958"><ele>29.0</ele><time>2026-04-27T08:16:58Z</time></trkpt><trkpt lat="41.04356520251477" lon="19.692473796497517"><ele>29.0</ele><time>2026-04-27T08:16:59Z</time></trkpt><trkpt lat="41.04352661866623" lon="19.692629739842634"><ele>29.0</ele><time>2026-04-27T08:17:00Z</time></trkpt><trkpt lat="41.04348487822254" lon="19.69277780455434"><ele>29.0</ele><time>2026-04-27T08:17:01Z</time></trkpt><trkpt lat="41.043437072692484" lon="19.692886537595715"><ele>29.5</ele><time>2026-04-27T08:17:02Z</time></trkpt><trkpt lat="41.043369349287175" lon="19.692978182941335"><ele>30.0</ele><time>2026-04-27T08:17:03Z</time></trkpt><trkpt lat="41.04325945795664" lon="19.692987831106556"><ele>30.5</ele><time>2026-04-27T08:17:04Z</time></trkpt><trkpt lat="41.04313460515989" lon="19.693053631871692"><ele>31.0</ele><time>2026-04-27T08:17:05Z</time></trkpt><trkpt lat="41.042982932023236" lon="19.693139235625218"><ele>31.0</ele><time>2026-04-27T08:17:06Z</time></trkpt><trkpt lat="41.042829305032704" lon="19.693254676441057"><ele>31.0</ele><time>2026-04-27T08:17:07Z</time></trkpt><trkpt lat="41.042653415645496" lon="19.693372272808514"><ele>31.0</ele><time>2026-04-27T08:17:08Z</time></trkpt><trkpt lat="41.042491476090305" lon="19.69345778948129"><ele>29.0</ele><time>2026-04-27T08:17:09Z</time></trkpt><trkpt lat="41.04235388641251" lon="19.693547526456506"><ele>27.0</ele><time>2026-04-27T08:17:10Z</time></trkpt><trkpt lat="41.04221594724413" lon="19.693632769811327"><ele>25.0</ele><time>2026-04-27T08:17:11Z</time></trkpt><trkpt lat="41.04208805011429" lon="19.693710370355035"><ele>23.0</ele><time>2026-04-27T08:17:12Z</time></trkpt><trkpt lat="41.04195664449323" lon="19.69377511741314"><ele>23.0</ele><time>2026-04-27T08:17:13Z</time></trkpt><trkpt lat="41.04183360256656" lon="19.693834315181967"><ele>23.0</ele><time>2026-04-27T08:17:14Z</time></trkpt><trkpt lat="41.04172323688569" lon="19.69388733393056"><ele>23.0</ele><time>2026-04-27T08:17:15Z</time></trkpt><trkpt lat="41.04162397434924" lon="19.693934547930102"><ele>23.0</ele><time>2026-04-27T08:17:16Z</time></trkpt><trkpt lat="41.04152934445291" lon="19.693978683635574"><ele>23.2</ele><time>2026-04-27T08:17:17Z</time></trkpt><trkpt lat="41.04142906889331" lon="19.694013798682096"><ele>23.4</ele><time>2026-04-27T08:17:18Z</time></trkpt><trkpt lat="41.04132458265368" lon="19.694040540980943"><ele>23.599999999999998</ele><time>2026-04-27T08:17:19Z</time></trkpt><trkpt lat="41.041218316119945" lon="19.694065670934787"><ele>23.799999999999997</ele><time>2026-04-27T08:17:20Z</time></trkpt><trkpt lat="41.041112627211255" lon="19.694091531234857"><ele>24.0</ele><time>2026-04-27T08:17:21Z</time></trkpt><trkpt lat="41.04101555347609" lon="19.69411904588178"><ele>24.0</ele><time>2026-04-27T08:17:22Z</time></trkpt><trkpt lat="41.040926098814595" lon="19.69415739898706"><ele>24.0</ele><time>2026-04-27T08:17:23Z</time></trkpt><trkpt lat="41.04083654431295" lon="19.69421607971857"><ele>24.0</ele><time>2026-04-27T08:17:24Z</time></trkpt><trkpt lat="41.04076202425177" lon="19.6943085019937"><ele>24.0</ele><time>2026-04-27T08:17:25Z</time></trkpt><trkpt lat="41.04068350691923" lon="19.694401373446826"><ele>24.0</ele><time>2026-04-27T08:17:26Z</time></trkpt><trkpt lat="41.04061481568901" lon="19.694519587481516"><ele>24.4</ele><time>2026-04-27T08:17:27Z</time></trkpt><trkpt lat="41.04054698036948" lon="19.694651730137064"><ele>24.799999999999997</ele><time>2026-04-27T08:17:28Z</time></trkpt><trkpt lat="41.04048425714081" lon="19.694768213704375"><ele>25.200000000000003</ele><time>2026-04-27T08:17:29Z</time></trkpt><trkpt lat="41.040441478720155" lon="19.69488589470727"><ele>25.6</ele><time>2026-04-27T08:17:30Z</time></trkpt><trkpt lat="41.04040744670655" lon="19.695029392568735"><ele>26.0</ele><time>2026-04-27T08:17:31Z</time></trkpt><trkpt lat="41.04038105183973" lon="19.69519019843205"><ele>26.5</ele><time>2026-04-27T08:17:32Z</time></trkpt><trkpt lat="41.04036109900397" lon="19.6953654625352"><ele>27.0</ele><time>2026-04-27T08:17:33Z</time></trkpt><trkpt lat="41.04033480205718" lon="19.6955366728893"><ele>27.5</ele><time>2026-04-27T08:17:34Z</time></trkpt><trkpt lat="41.0403047477855" lon="19.69567677388303"><ele>28.0</ele><time>2026-04-27T08:17:34.999Z</time></trkpt><trkpt lat="41.04024161228493" lon="19.695789712025036"><ele>28.0</ele><time>2026-04-27T08:17:35.999Z</time></trkpt><trkpt lat="41.04016853325831" lon="19.695923171451163"><ele>28.0</ele><time>2026-04-27T08:17:36.999Z</time></trkpt><trkpt lat="41.04008724570312" lon="19.69606708805219"><ele>28.0</ele><time>2026-04-27T08:17:38Z</time></trkpt><trkpt lat="41.03999498085126" lon="19.696202763329016"><ele>28.0</ele><time>2026-04-27T08:17:39Z</time></trkpt><trkpt lat="41.03990462764005" lon="19.696329146268212"><ele>29.2</ele><time>2026-04-27T08:17:40Z</time></trkpt><trkpt lat="41.03981270062466" lon="19.696446183320596"><ele>30.4</ele><time>2026-04-27T08:17:41Z</time></trkpt><trkpt lat="41.03974344419008" lon="19.69656816666539"><ele>31.599999999999998</ele><time>2026-04-27T08:17:42Z</time></trkpt><trkpt lat="41.03968042116059" lon="19.696680227810823"><ele>32.8</ele><time>2026-04-27T08:17:43Z</time></trkpt><trkpt lat="41.039632898039336" lon="19.696790072615276"><ele>34.0</ele><time>2026-04-27T08:17:44Z</time></trkpt><trkpt lat="41.03958416549626" lon="19.696854366882523"><ele>34.0</ele><time>2026-04-27T08:17:45Z</time></trkpt><trkpt lat="41.0395235554669" lon="19.69691913955572"><ele>34.0</ele><time>2026-04-27T08:17:46Z</time></trkpt><trkpt lat="41.039444548171105" lon="19.69700161438478"><ele>34.0</ele><time>2026-04-27T08:17:47Z</time></trkpt><trkpt lat="41.03934526298921" lon="19.697000635775854"><ele>34.0</ele><time>2026-04-27T08:17:48Z</time></trkpt><trkpt lat="41.03927863070324" lon="19.697024502696802"><ele>34.0</ele><time>2026-04-27T08:17:49Z</time></trkpt><trkpt lat="41.03922502014042" lon="19.697171026172086"><ele>33.16666666666667</ele><time>2026-04-27T08:17:51Z</time></trkpt><trkpt lat="41.039259181539386" lon="19.697262834078973"><ele>32.333333333333336</ele><time>2026-04-27T08:17:52Z</time></trkpt><trkpt lat="41.03928625588485" lon="19.697351444840102"><ele>31.5</ele><time>2026-04-27T08:17:53Z</time></trkpt><trkpt lat="41.03931781724069" lon="19.697453843232164"><ele>30.666666666666664</ele><time>2026-04-27T08:17:54Z</time></trkpt><trkpt lat="41.03930390341587" lon="19.69755328334129"><ele>29.833333333333332</ele><time>2026-04-27T08:17:55Z</time></trkpt><trkpt lat="41.039259329788514" lon="19.697633223633904"><ele>29.0</ele><time>2026-04-27T08:17:56Z</time></trkpt><trkpt lat="41.039209669478964" lon="19.69775836346601"><ele>29.25</ele><time>2026-04-27T08:17:57Z</time></trkpt><trkpt lat="41.039101747849955" lon="19.697834125224553"><ele>29.5</ele><time>2026-04-27T08:17:58Z</time></trkpt><trkpt lat="41.03900807066162" lon="19.6979192916039"><ele>29.75</ele><time>2026-04-27T08:17:59Z</time></trkpt><trkpt lat="41.03891508592866" lon="19.698027035193817"><ele>30.0</ele><time>2026-04-27T08:18:00Z</time></trkpt><trkpt lat="41.0388058138126" lon="19.698126189859295"><ele>30.0</ele><time>2026-04-27T08:18:01Z</time></trkpt><trkpt lat="41.038708493463545" lon="19.6982104126907"><ele>30.0</ele><time>2026-04-27T08:18:02Z</time></trkpt><trkpt lat="41.038626995401216" lon="19.6982466354879"><ele>30.0</ele><time>2026-04-27T08:18:03Z</time></trkpt><trkpt lat="41.03855635640983" lon="19.698278653089925"><ele>30.0</ele><time>2026-04-27T08:18:04Z</time></trkpt><trkpt lat="41.0384830996146" lon="19.698306100642554"><ele>30.0</ele><time>2026-04-27T08:18:05Z</time></trkpt><trkpt lat="41.038407265912255" lon="19.698349921527978"><ele>30.0</ele><time>2026-04-27T08:18:06Z</time></trkpt><trkpt lat="41.038331665362264" lon="19.698373137194142"><ele>29.6</ele><time>2026-04-27T08:18:07Z</time></trkpt><trkpt lat="41.03826542528204" lon="19.698431374410916"><ele>29.2</ele><time>2026-04-27T08:18:08Z</time></trkpt><trkpt lat="41.0381931802594" lon="19.698517954574513"><ele>28.799999999999997</ele><time>2026-04-27T08:18:09Z</time></trkpt><trkpt lat="41.03811916918677" lon="19.698630335941015"><ele>28.4</ele><time>2026-04-27T08:18:10Z</time></trkpt><trkpt lat="41.03803739933314" lon="19.698759066491778"><ele>28.0</ele><time>2026-04-27T08:18:11Z</time></trkpt><trkpt lat="41.03793376372128" lon="19.698887859108048"><ele>27.0</ele><time>2026-04-27T08:18:12Z</time></trkpt><trkpt lat="41.03785522113404" lon="19.699075950911595"><ele>26.0</ele><time>2026-04-27T08:18:13Z</time></trkpt><trkpt lat="41.037728459688005" lon="19.699219813553942"><ele>25.0</ele><time>2026-04-27T08:18:14Z</time></trkpt><trkpt lat="41.03763090977519" lon="19.699379641886583"><ele>24.75</ele><time>2026-04-27T08:18:15Z</time></trkpt><trkpt lat="41.03752529104404" lon="19.699526269678508"><ele>24.5</ele><time>2026-04-27T08:18:16Z</time></trkpt><trkpt lat="41.0374320644178" lon="19.69967547326486"><ele>24.25</ele><time>2026-04-27T08:18:17Z</time></trkpt><trkpt lat="41.03736081295337" lon="19.69981180624647"><ele>24.0</ele><time>2026-04-27T08:18:18Z</time></trkpt><trkpt lat="41.03729176476185" lon="19.69996008859354"><ele>24.666666666666664</ele><time>2026-04-27T08:18:19Z</time></trkpt><trkpt lat="41.03721066524079" lon="19.700142617159923"><ele>25.333333333333332</ele><time>2026-04-27T08:18:20Z</time></trkpt><trkpt lat="41.03711981474821" lon="19.700336997979356"><ele>26.0</ele><time>2026-04-27T08:18:21Z</time></trkpt><trkpt lat="41.03702855271079" lon="19.700507341231237"><ele>26.0</ele><time>2026-04-27T08:18:22Z</time></trkpt><trkpt lat="41.036943281153434" lon="19.700666258855648"><ele>26.0</ele><time>2026-04-27T08:18:23Z</time></trkpt><trkpt lat="41.0368777827642" lon="19.70080180115898"><ele>26.0</ele><time>2026-04-27T08:18:24Z</time></trkpt><trkpt lat="41.036809380777115" lon="19.700926149374745"><ele>26.0</ele><time>2026-04-27T08:18:25Z</time></trkpt><trkpt lat="41.036722864946384" lon="19.701041393623218"><ele>29.666666666666664</ele><time>2026-04-27T08:18:26Z</time></trkpt><trkpt lat="41.0366153747845" lon="19.701158440240206"><ele>33.333333333333336</ele><time>2026-04-27T08:18:27Z</time></trkpt><trkpt lat="41.03648182140335" lon="19.70125747732617"><ele>37.0</ele><time>2026-04-27T08:18:28Z</time></trkpt><trkpt lat="41.036340287497204" lon="19.701387302175895"><ele>37.0</ele><time>2026-04-27T08:18:29Z</time></trkpt><trkpt lat="41.036168039339856" lon="19.701531120882006"><ele>37.0</ele><time>2026-04-27T08:18:30Z</time></trkpt><trkpt lat="41.03602540402571" lon="19.70165558838727"><ele>37.0</ele><time>2026-04-27T08:18:31Z</time></trkpt><trkpt lat="41.035908804127445" lon="19.701802480443373"><ele>36.66666666666667</ele><time>2026-04-27T08:18:32Z</time></trkpt><trkpt lat="41.03578473233832" lon="19.701956882613086"><ele>36.333333333333336</ele><time>2026-04-27T08:18:33Z</time></trkpt><trkpt lat="41.03566313481048" lon="19.702076725176795"><ele>36.0</ele><time>2026-04-27T08:18:34Z</time></trkpt><trkpt lat="41.03556038104546" lon="19.70221344448141"><ele>36.0</ele><time>2026-04-27T08:18:35Z</time></trkpt><trkpt lat="41.03544215637577" lon="19.702326893970117"><ele>36.0</ele><time>2026-04-27T08:18:36Z</time></trkpt><trkpt lat="41.03533363327394" lon="19.702418486252267"><ele>36.0</ele><time>2026-04-27T08:18:37Z</time></trkpt><trkpt lat="41.035233314118074" lon="19.70250874181985"><ele>36.0</ele><time>2026-04-27T08:18:38Z</time></trkpt><trkpt lat="41.03513044929938" lon="19.702630590875064"><ele>32.333333333333336</ele><time>2026-04-27T08:18:39Z</time></trkpt><trkpt lat="41.035014871945954" lon="19.702781569930185"><ele>28.666666666666668</ele><time>2026-04-27T08:18:40Z</time></trkpt><trkpt lat="41.034920986118436" lon="19.702965035299048"><ele>25.0</ele><time>2026-04-27T08:18:41Z</time></trkpt><trkpt lat="41.03484990777505" lon="19.70316633119538"><ele>25.0</ele><time>2026-04-27T08:18:42Z</time></trkpt><trkpt lat="41.03476518132264" lon="19.703366503653374"><ele>25.0</ele><time>2026-04-27T08:18:43Z</time></trkpt><trkpt lat="41.03468693070847" lon="19.703549494865797"><ele>25.0</ele><time>2026-04-27T08:18:44Z</time></trkpt><trkpt lat="41.034612348949764" lon="19.70372967330486"><ele>24.0</ele><time>2026-04-27T08:18:45Z</time></trkpt><trkpt lat="41.03454265848984" lon="19.703914531093005"><ele>23.0</ele><time>2026-04-27T08:18:46Z</time></trkpt><trkpt lat="41.03448302146226" lon="19.704107305826632"><ele>22.0</ele><time>2026-04-27T08:18:47Z</time></trkpt><trkpt lat="41.03443616588889" lon="19.704293537981407"><ele>21.5</ele><time>2026-04-27T08:18:48Z</time></trkpt><trkpt lat="41.034398115862295" lon="19.704460923493002"><ele>21.0</ele><time>2026-04-27T08:18:49Z</time></trkpt><trkpt lat="41.034361728233556" lon="19.704632596453155"><ele>20.5</ele><time>2026-04-27T08:18:50Z</time></trkpt><trkpt lat="41.03432614548191" lon="19.70480904116825"><ele>20.0</ele><time>2026-04-27T08:18:51Z</time></trkpt><trkpt lat="41.03429339609661" lon="19.70500049605211"><ele>20.0</ele><time>2026-04-27T08:18:52Z</time></trkpt><trkpt lat="41.034263105126236" lon="19.70519635682526"><ele>20.0</ele><time>2026-04-27T08:18:53Z</time></trkpt><trkpt lat="41.03423076089018" lon="19.70539860110424"><ele>20.0</ele><time>2026-04-27T08:18:54Z</time></trkpt><trkpt lat="41.034198914313905" lon="19.70560561542724"><ele>20.5</ele><time>2026-04-27T08:18:55Z</time></trkpt><trkpt lat="41.03416274175904" lon="19.705816991933865"><ele>21.0</ele><time>2026-04-27T08:18:56Z</time></trkpt><trkpt lat="41.034132608994334" lon="19.70600646477225"><ele>21.5</ele><time>2026-04-27T08:18:57Z</time></trkpt><trkpt lat="41.03410595325137" lon="19.7061764697504"><ele>22.0</ele><time>2026-04-27T08:18:58Z</time></trkpt><trkpt lat="41.034076923305385" lon="19.70633338803994"><ele>22.8</ele><time>2026-04-27T08:18:59Z</time></trkpt><trkpt lat="41.03404813403321" lon="19.706447282709064"><ele>23.6</ele><time>2026-04-27T08:19:00Z</time></trkpt><trkpt lat="41.033996750646715" lon="19.70659632745146"><ele>24.400000000000002</ele><time>2026-04-27T08:19:02Z</time></trkpt><trkpt lat="41.03396088520277" lon="19.706696184409765"><ele>25.200000000000003</ele><time>2026-04-27T08:19:03Z</time></trkpt><trkpt lat="41.03390950076235" lon="19.706827971871032"><ele>26.0</ele><time>2026-04-27T08:19:04Z</time></trkpt><trkpt lat="41.033822390140834" lon="19.706970845773576"><ele>26.0</ele><time>2026-04-27T08:19:05Z</time></trkpt><trkpt lat="41.03374360102623" lon="19.707121311085785"><ele>26.0</ele><time>2026-04-27T08:19:06Z</time></trkpt><trkpt lat="41.03369317624649" lon="19.70724970829767"><ele>26.0</ele><time>2026-04-27T08:19:07Z</time></trkpt><trkpt lat="41.03364381021449" lon="19.707366868335605"><ele>26.0</ele><time>2026-04-27T08:19:08Z</time></trkpt><trkpt lat="41.03356654222489" lon="19.707462649103284"><ele>26.0</ele><time>2026-04-27T08:19:09Z</time></trkpt><trkpt lat="41.03348280724915" lon="19.707560712425582"><ele>26.0</ele><time>2026-04-27T08:19:10Z</time></trkpt><trkpt lat="41.03338752102628" lon="19.707676805960748"><ele>26.0</ele><time>2026-04-27T08:19:11Z</time></trkpt><trkpt lat="41.03328019025433" lon="19.70778638911677"><ele>26.0</ele><time>2026-04-27T08:19:12Z</time></trkpt><trkpt lat="41.03317564163842" lon="19.707913701954404"><ele>27.75</ele><time>2026-04-27T08:19:13Z</time></trkpt><trkpt lat="41.033075704051626" lon="19.708058334512558"><ele>29.5</ele><time>2026-04-27T08:19:14Z</time></trkpt><trkpt lat="41.032986039247476" lon="19.708211278395833"><ele>31.25</ele><time>2026-04-27T08:19:15Z</time></trkpt><trkpt lat="41.032921208864614" lon="19.70834757749642"><ele>33.0</ele><time>2026-04-27T08:19:16Z</time></trkpt><trkpt lat="41.032871667495634" lon="19.708473400551167"><ele>32.8</ele><time>2026-04-27T08:19:17Z</time></trkpt><trkpt lat="41.0328472795234" lon="19.70858950586593"><ele>32.599999999999994</ele><time>2026-04-27T08:19:18Z</time></trkpt><trkpt lat="41.03282960805377" lon="19.70870424775494"><ele>32.400000000000006</ele><time>2026-04-27T08:19:19Z</time></trkpt><trkpt lat="41.03280896122619" lon="19.708836826321942"><ele>32.2</ele><time>2026-04-27T08:19:20Z</time></trkpt><trkpt lat="41.03278163790199" lon="19.708972163556428"><ele>32.0</ele><time>2026-04-27T08:19:21Z</time></trkpt><trkpt lat="41.03275759115914" lon="19.709096022195443"><ele>31.999999999999996</ele><time>2026-04-27T08:19:22Z</time></trkpt><trkpt lat="41.03273734779927" lon="19.70920410755627"><ele>32.0</ele><time>2026-04-27T08:19:22.999Z</time></trkpt><trkpt lat="41.032723246141856" lon="19.709299669785832"><ele>32.0</ele><time>2026-04-27T08:19:23.999Z</time></trkpt><trkpt lat="41.03270755335368" lon="19.70939693052195"><ele>32.0</ele><time>2026-04-27T08:19:24.999Z</time></trkpt><trkpt lat="41.03268489007989" lon="19.709505153676712"><ele>31.999999999999996</ele><time>2026-04-27T08:19:25.999Z</time></trkpt><trkpt lat="41.03264780420376" lon="19.70963708298915"><ele>32.0</ele><time>2026-04-27T08:19:26.999Z</time></trkpt><trkpt lat="41.032603442810796" lon="19.70979016553132"><ele>31.5</ele><time>2026-04-27T08:19:27.999Z</time></trkpt><trkpt lat="41.032555570972875" lon="19.70995327971571"><ele>31.0</ele><time>2026-04-27T08:19:28.999Z</time></trkpt><trkpt lat="41.03251219232546" lon="19.710113816963734"><ele>30.5</ele><time>2026-04-27T08:19:29.999Z</time></trkpt><trkpt lat="41.032469179362" lon="19.710270374294076"><ele>30.0</ele><time>2026-04-27T08:19:30.999Z</time></trkpt><trkpt lat="41.03242145169579" lon="19.710423295607367"><ele>29.5</ele><time>2026-04-27T08:19:31.999Z</time></trkpt><trkpt lat="41.03236766716061" lon="19.710570051509137"><ele>29.0</ele><time>2026-04-27T08:19:32.999Z</time></trkpt><trkpt lat="41.03231046509781" lon="19.71072402628354"><ele>28.5</ele><time>2026-04-27T08:19:33.999Z</time></trkpt><trkpt lat="41.03223280608328" lon="19.710870917766222"><ele>28.0</ele><time>2026-04-27T08:19:34.999Z</time></trkpt><trkpt lat="41.03218744868791" lon="19.711051747286994"><ele>28.25</ele><time>2026-04-27T08:19:35.999Z</time></trkpt><trkpt lat="41.03213350957652" lon="19.711234322602618"><ele>28.5</ele><time>2026-04-27T08:19:36.999Z</time></trkpt><trkpt lat="41.032095906628086" lon="19.71141362508838"><ele>28.75</ele><time>2026-04-27T08:19:37.999Z</time></trkpt><trkpt lat="41.03205542983128" lon="19.711601693203995"><ele>29.0</ele><time>2026-04-27T08:19:38.999Z</time></trkpt><trkpt lat="41.03200563014896" lon="19.711786275805462"><ele>28.75</ele><time>2026-04-27T08:19:39.999Z</time></trkpt><trkpt lat="41.03194607570678" lon="19.711953155427118"><ele>28.5</ele><time>2026-04-27T08:19:40.999Z</time></trkpt><trkpt lat="41.03188406176851" lon="19.712091746354865"><ele>28.25</ele><time>2026-04-27T08:19:41.999Z</time></trkpt><trkpt lat="41.031815127424906" lon="19.712223649496476"><ele>28.0</ele><time>2026-04-27T08:19:42.999Z</time></trkpt><trkpt lat="41.03172929180881" lon="19.712359854942473"><ele>28.0</ele><time>2026-04-27T08:19:44Z</time></trkpt><trkpt lat="41.03164187303041" lon="19.712480523700318"><ele>28.0</ele><time>2026-04-27T08:19:45Z</time></trkpt><trkpt lat="41.031570942629976" lon="19.71259277230954"><ele>28.0</ele><time>2026-04-27T08:19:46Z</time></trkpt><trkpt lat="41.03150334264555" lon="19.712704029742365"><ele>28.0</ele><time>2026-04-27T08:19:47Z</time></trkpt><trkpt lat="41.031429244760645" lon="19.712814085337083"><ele>28.75</ele><time>2026-04-27T08:19:48Z</time></trkpt><trkpt lat="41.03134488688978" lon="19.712924705371556"><ele>29.5</ele><time>2026-04-27T08:19:49Z</time></trkpt><trkpt lat="41.03124571774455" lon="19.71303112829507"><ele>30.25</ele><time>2026-04-27T08:19:50Z</time></trkpt><trkpt lat="41.031150717989966" lon="19.713142208835045"><ele>31.0</ele><time>2026-04-27T08:19:51Z</time></trkpt><trkpt lat="41.03107259226014" lon="19.713254298742225"><ele>31.0</ele><time>2026-04-27T08:19:52Z</time></trkpt><trkpt lat="41.030997107094265" lon="19.713376933348176"><ele>31.0</ele><time>2026-04-27T08:19:53Z</time></trkpt><trkpt lat="41.03092328455857" lon="19.713518562525934"><ele>31.0</ele><time>2026-04-27T08:19:54Z</time></trkpt><trkpt lat="41.03085078332971" lon="19.713684370485062"><ele>31.0</ele><time>2026-04-27T08:19:55Z</time></trkpt><trkpt lat="41.03077478483539" lon="19.71386032732763"><ele>31.0</ele><time>2026-04-27T08:19:56Z</time></trkpt><trkpt lat="41.03069488262378" lon="19.714046687005247"><ele>31.0</ele><time>2026-04-27T08:19:57Z</time></trkpt><trkpt lat="41.03062713861215" lon="19.714226119025646"><ele>31.0</ele><time>2026-04-27T08:19:58Z</time></trkpt><trkpt lat="41.03056930244506" lon="19.71440206926066"><ele>30.333333333333336</ele><time>2026-04-27T08:19:59Z</time></trkpt><trkpt lat="41.03051918055239" lon="19.71458485474519"><ele>29.666666666666664</ele><time>2026-04-27T08:20:00Z</time></trkpt><trkpt lat="41.030476342993374" lon="19.714777320670905"><ele>29.0</ele><time>2026-04-27T08:20:01Z</time></trkpt><trkpt lat="41.030434173073644" lon="19.714978625226053"><ele>29.0</ele><time>2026-04-27T08:20:02Z</time></trkpt><trkpt lat="41.03039516634118" lon="19.715183856997232"><ele>29.0</ele><time>2026-04-27T08:20:03Z</time></trkpt><trkpt lat="41.03036475467011" lon="19.71539978987083"><ele>29.0</ele><time>2026-04-27T08:20:04Z</time></trkpt><trkpt lat="41.03033277411018" lon="19.715608207891094"><ele>29.333333333333332</ele><time>2026-04-27T08:20:05Z</time></trkpt><trkpt lat="41.03028893825076" lon="19.715806896002018"><ele>29.666666666666664</ele><time>2026-04-27T08:20:06Z</time></trkpt><trkpt lat="41.03023610432839" lon="19.716010120292776"><ele>30.0</ele><time>2026-04-27T08:20:07Z</time></trkpt><trkpt lat="41.0301754971951" lon="19.716203547103994"><ele>30.333333333333336</ele><time>2026-04-27T08:20:08Z</time></trkpt><trkpt lat="41.030113149777925" lon="19.716387256987915"><ele>30.666666666666668</ele><time>2026-04-27T08:20:09Z</time></trkpt><trkpt lat="41.0300410871926" lon="19.71657645714016"><ele>31.0</ele><time>2026-04-27T08:20:10Z</time></trkpt><trkpt lat="41.029962086562044" lon="19.716775794498908"><ele>30.666666666666668</ele><time>2026-04-27T08:20:11Z</time></trkpt><trkpt lat="41.029882963580114" lon="19.716967790876442"><ele>30.333333333333336</ele><time>2026-04-27T08:20:12Z</time></trkpt><trkpt lat="41.02980807649785" lon="19.717144053919423"><ele>30.0</ele><time>2026-04-27T08:20:13Z</time></trkpt><trkpt lat="41.02972954670386" lon="19.7173161786912"><ele>30.0</ele><time>2026-04-27T08:20:14Z</time></trkpt><trkpt lat="41.02964779661128" lon="19.71749977445232"><ele>30.0</ele><time>2026-04-27T08:20:15Z</time></trkpt><trkpt lat="41.029568947171164" lon="19.717684325990064"><ele>30.0</ele><time>2026-04-27T08:20:16Z</time></trkpt><trkpt lat="41.0294939201205" lon="19.717866980628294"><ele>29.333333333333336</ele><time>2026-04-27T08:20:17Z</time></trkpt><trkpt lat="41.02942042472655" lon="19.718066682596163"><ele>28.666666666666668</ele><time>2026-04-27T08:20:18Z</time></trkpt><trkpt lat="41.029357140772035" lon="19.718272198563525"><ele>28.0</ele><time>2026-04-27T08:20:19Z</time></trkpt><trkpt lat="41.02929796791006" lon="19.718488174109282"><ele>27.666666666666668</ele><time>2026-04-27T08:20:20Z</time></trkpt><trkpt lat="41.02924947426218" lon="19.71870308985768"><ele>27.333333333333336</ele><time>2026-04-27T08:20:21Z</time></trkpt><trkpt lat="41.02920792456508" lon="19.718924116647578"><ele>27.0</ele><time>2026-04-27T08:20:22Z</time></trkpt><trkpt lat="41.02916443724648" lon="19.71914823187461"><ele>27.333333333333336</ele><time>2026-04-27T08:20:23Z</time></trkpt><trkpt lat="41.02911527519387" lon="19.719368246910367"><ele>27.666666666666668</ele><time>2026-04-27T08:20:24Z</time></trkpt><trkpt lat="41.02906333809686" lon="19.719566677440326"><ele>28.0</ele><time>2026-04-27T08:20:25Z</time></trkpt><trkpt lat="41.029018150823795" lon="19.7197398159342"><ele>28.0</ele><time>2026-04-27T08:20:26Z</time></trkpt><trkpt lat="41.02897680842336" lon="19.719901320324958"><ele>27.999999999999996</ele><time>2026-04-27T08:20:27Z</time></trkpt><trkpt lat="41.02894884115455" lon="19.720052759959444"><ele>27.999999999999996</ele><time>2026-04-27T08:20:28Z</time></trkpt><trkpt lat="41.02893443204019" lon="19.720187918765788"><ele>28.0</ele><time>2026-04-27T08:20:29Z</time></trkpt><trkpt lat="41.02893303385218" lon="19.72028608026442"><ele>28.0</ele><time>2026-04-27T08:20:30Z</time></trkpt><trkpt lat="41.02890979221393" lon="19.720376763284666"><ele>27.5</ele><time>2026-04-27T08:20:31Z</time></trkpt><trkpt lat="41.02889259597218" lon="19.720479479099044"><ele>27.0</ele><time>2026-04-27T08:20:32Z</time></trkpt><trkpt lat="41.02886207989792" lon="19.7206201195579"><ele>26.5</ele><time>2026-04-27T08:20:33Z</time></trkpt><trkpt lat="41.02883336719697" lon="19.72079814888295"><ele>26.0</ele><time>2026-04-27T08:20:34Z</time></trkpt><trkpt lat="41.02878505196835" lon="19.720996168137976"><ele>26.25</ele><time>2026-04-27T08:20:35Z</time></trkpt><trkpt lat="41.02874064595258" lon="19.721200712174394"><ele>26.5</ele><time>2026-04-27T08:20:36Z</time></trkpt><trkpt lat="41.02869942120716" lon="19.721396008271576"><ele>26.75</ele><time>2026-04-27T08:20:37Z</time></trkpt><trkpt lat="41.02866263937442" lon="19.72156917350917"><ele>27.0</ele><time>2026-04-27T08:20:38Z</time></trkpt><trkpt lat="41.02862511194536" lon="19.721740820979132"><ele>27.75</ele><time>2026-04-27T08:20:39Z</time></trkpt><trkpt lat="41.02858838562309" lon="19.72190651787346"><ele>28.5</ele><time>2026-04-27T08:20:40Z</time></trkpt><trkpt lat="41.0285541673854" lon="19.722058179085497"><ele>29.25</ele><time>2026-04-27T08:20:41Z</time></trkpt><trkpt lat="41.02852067013601" lon="19.722206748521728"><ele>30.0</ele><time>2026-04-27T08:20:42Z</time></trkpt><trkpt lat="41.028492005245745" lon="19.722350685177787"><ele>30.0</ele><time>2026-04-27T08:20:43Z</time></trkpt><trkpt lat="41.02845886612419" lon="19.722494681350245"><ele>30.0</ele><time>2026-04-27T08:20:44Z</time></trkpt><trkpt lat="41.02841928580007" lon="19.72263513624314"><ele>30.0</ele><time>2026-04-27T08:20:45Z</time></trkpt><trkpt lat="41.028370821608405" lon="19.722775873839225"><ele>30.0</ele><time>2026-04-27T08:20:46Z</time></trkpt><trkpt lat="41.02830699300564" lon="19.722907698489376"><ele>30.5</ele><time>2026-04-27T08:20:47Z</time></trkpt><trkpt lat="41.0282294093231" lon="19.723036113354095"><ele>31.0</ele><time>2026-04-27T08:20:48Z</time></trkpt><trkpt lat="41.02814656063513" lon="19.72315473420887"><ele>31.5</ele><time>2026-04-27T08:20:49Z</time></trkpt><trkpt lat="41.0280520745694" lon="19.7232598494593"><ele>32.0</ele><time>2026-04-27T08:20:50Z</time></trkpt><trkpt lat="41.02794679152449" lon="19.72334845703987"><ele>32.0</ele><time>2026-04-27T08:20:51Z</time></trkpt><trkpt lat="41.0278281147484" lon="19.7234174884139"><ele>32.0</ele><time>2026-04-27T08:20:52Z</time></trkpt><trkpt lat="41.027690674555394" lon="19.723450057536375"><ele>32.0</ele><time>2026-04-27T08:20:53Z</time></trkpt><trkpt lat="41.02754829343113" lon="19.723503138654387"><ele>32.0</ele><time>2026-04-27T08:20:54Z</time></trkpt><trkpt lat="41.027403154054994" lon="19.72355724811312"><ele>32.33333333333333</ele><time>2026-04-27T08:20:55Z</time></trkpt><trkpt lat="41.02725223540303" lon="19.723618108001627"><ele>32.666666666666664</ele><time>2026-04-27T08:20:56Z</time></trkpt><trkpt lat="41.02709833923736" lon="19.723683478513124"><ele>33.0</ele><time>2026-04-27T08:20:57Z</time></trkpt><trkpt lat="41.026946272987374" lon="19.723770809612898"><ele>33.0</ele><time>2026-04-27T08:20:58Z</time></trkpt><trkpt lat="41.02678974400964" lon="19.723829896858952"><ele>33.0</ele><time>2026-04-27T08:20:59Z</time></trkpt><trkpt lat="41.0266303234097" lon="19.72385904267723"><ele>33.0</ele><time>2026-04-27T08:21:00Z</time></trkpt><trkpt lat="41.02649043582214" lon="19.72390438940316"><ele>33.0</ele><time>2026-04-27T08:21:01Z</time></trkpt><trkpt lat="41.02634454753519" lon="19.723952523911784"><ele>33.0</ele><time>2026-04-27T08:21:02Z</time></trkpt><trkpt lat="41.02620522634555" lon="19.724037241298237"><ele>33.0</ele><time>2026-04-27T08:21:03Z</time></trkpt><trkpt lat="41.02606379187446" lon="19.724102897818682"><ele>33.0</ele><time>2026-04-27T08:21:04Z</time></trkpt><trkpt lat="41.025937276108614" lon="19.724178199221914"><ele>33.0</ele><time>2026-04-27T08:21:05Z</time></trkpt><trkpt lat="41.025815196065274" lon="19.72427945559987"><ele>33.0</ele><time>2026-04-27T08:21:06Z</time></trkpt><trkpt lat="41.02569185133843" lon="19.72438806451902"><ele>33.0</ele><time>2026-04-27T08:21:07Z</time></trkpt><trkpt lat="41.02556453749859" lon="19.724504238634655"><ele>33.5</ele><time>2026-04-27T08:21:08Z</time></trkpt><trkpt lat="41.025441156165456" lon="19.72460136937082"><ele>34.0</ele><time>2026-04-27T08:21:08.999Z</time></trkpt><trkpt lat="41.025316640906524" lon="19.724707679802517"><ele>34.5</ele><time>2026-04-27T08:21:09.999Z</time></trkpt><trkpt lat="41.02519084294639" lon="19.724813395055936"><ele>35.0</ele><time>2026-04-27T08:21:10.999Z</time></trkpt><trkpt lat="41.02506623661589" lon="19.724923230239728"><ele>35.75</ele><time>2026-04-27T08:21:11.999Z</time></trkpt><trkpt lat="41.02494575140594" lon="19.72503090492011"><ele>36.5</ele><time>2026-04-27T08:21:12.999Z</time></trkpt><trkpt lat="41.02482729478125" lon="19.725135371180592"><ele>37.25</ele><time>2026-04-27T08:21:13.999Z</time></trkpt><trkpt lat="41.024713691685555" lon="19.725242241473552"><ele>38.0</ele><time>2026-04-27T08:21:14.999Z</time></trkpt><trkpt lat="41.02458674164394" lon="19.72532517307394"><ele>38.25</ele><time>2026-04-27T08:21:15.999Z</time></trkpt><trkpt lat="41.02447561437441" lon="19.72544145312718"><ele>38.5</ele><time>2026-04-27T08:21:16.999Z</time></trkpt><trkpt lat="41.02434757698727" lon="19.725539625400852"><ele>38.75</ele><time>2026-04-27T08:21:17.999Z</time></trkpt><trkpt lat="41.02421743395646" lon="19.725643571803673"><ele>39.0</ele><time>2026-04-27T08:21:18.999Z</time></trkpt><trkpt lat="41.02408901056952" lon="19.72575416269141"><ele>40.25</ele><time>2026-04-27T08:21:19.999Z</time></trkpt><trkpt lat="41.023967649167005" lon="19.725859019459"><ele>41.5</ele><time>2026-04-27T08:21:20.999Z</time></trkpt><trkpt lat="41.02386021923014" lon="19.725952315781804"><ele>42.75</ele><time>2026-04-27T08:21:21.999Z</time></trkpt><trkpt lat="41.02376689024781" lon="19.72604733277039"><ele>44.0</ele><time>2026-04-27T08:21:22.999Z</time></trkpt><trkpt lat="41.023692022084" lon="19.726142346152887"><ele>44.400000000000006</ele><time>2026-04-27T08:21:23.999Z</time></trkpt><trkpt lat="41.023636572961166" lon="19.726258823374515"><ele>44.8</ele><time>2026-04-27T08:21:24.999Z</time></trkpt><trkpt lat="41.02361664726171" lon="19.726383851970777"><ele>45.2</ele><time>2026-04-27T08:21:25.999Z</time></trkpt><trkpt lat="41.023621864828" lon="19.726502896499966"><ele>45.599999999999994</ele><time>2026-04-27T08:21:26.999Z</time></trkpt><trkpt lat="41.0236485805271" lon="19.726640462455162"><ele>46.0</ele><time>2026-04-27T08:21:27.999Z</time></trkpt><trkpt lat="41.023673821811265" lon="19.726771886665823"><ele>46.5</ele><time>2026-04-27T08:21:28.999Z</time></trkpt><trkpt lat="41.02371394530533" lon="19.726923329244098"><ele>47.0</ele><time>2026-04-27T08:21:29.999Z</time></trkpt><trkpt lat="41.02375678212706" lon="19.72708694703583"><ele>47.5</ele><time>2026-04-27T08:21:30.999Z</time></trkpt><trkpt lat="41.023805486966175" lon="19.72726297909172"><ele>48.0</ele><time>2026-04-27T08:21:31.999Z</time></trkpt><trkpt lat="41.02385380444759" lon="19.72744955889209"><ele>48.0</ele><time>2026-04-27T08:21:32.999Z</time></trkpt><trkpt lat="41.023904479187685" lon="19.72764205484341"><ele>48.0</ele><time>2026-04-27T08:21:33.999Z</time></trkpt><trkpt lat="41.02396502646814" lon="19.727839403958612"><ele>48.0</ele><time>2026-04-27T08:21:34.999Z</time></trkpt><trkpt lat="41.02402480918777" lon="19.728028306129136"><ele>48.75</ele><time>2026-04-27T08:21:35.999Z</time></trkpt><trkpt lat="41.02407714603717" lon="19.728210488792026"><ele>49.5</ele><time>2026-04-27T08:21:36.999Z</time></trkpt><trkpt lat="41.024126881064994" lon="19.728387204651526"><ele>50.25</ele><time>2026-04-27T08:21:37.999Z</time></trkpt><trkpt lat="41.024175133842256" lon="19.72854590504606"><ele>51.0</ele><time>2026-04-27T08:21:38.999Z</time></trkpt><trkpt lat="41.024219508950495" lon="19.72869534685117"><ele>48.5</ele><time>2026-04-27T08:21:39.999Z</time></trkpt><trkpt lat="41.02423688622751" lon="19.728852417478343"><ele>46.0</ele><time>2026-04-27T08:21:40.999Z</time></trkpt><trkpt lat="41.02425616022413" lon="19.729022208066457"><ele>43.5</ele><time>2026-04-27T08:21:41.999Z</time></trkpt><trkpt lat="41.02427451350852" lon="19.72920917179774"><ele>41.0</ele><time>2026-04-27T08:21:42.999Z</time></trkpt><trkpt lat="41.02424380061443" lon="19.729413931588603"><ele>41.0</ele><time>2026-04-27T08:21:43.999Z</time></trkpt><trkpt lat="41.024240293729406" lon="19.72963707534007"><ele>41.0</ele><time>2026-04-27T08:21:44.999Z</time></trkpt><trkpt lat="41.024214831616405" lon="19.72983913185451"><ele>41.0</ele><time>2026-04-27T08:21:45.999Z</time></trkpt><trkpt lat="41.024201294285945" lon="19.730050920168022"><ele>41.0</ele><time>2026-04-27T08:21:46.999Z</time></trkpt><trkpt lat="41.024209445773444" lon="19.730278278010225"><ele>41.0</ele><time>2026-04-27T08:21:47.999Z</time></trkpt><trkpt lat="41.02422224473323" lon="19.730505248877268"><ele>41.0</ele><time>2026-04-27T08:21:48.999Z</time></trkpt><trkpt lat="41.02422828386107" lon="19.73072293838434"><ele>41.0</ele><time>2026-04-27T08:21:50Z</time></trkpt><trkpt lat="41.0242194031183" lon="19.73091621765936"><ele>41.0</ele><time>2026-04-27T08:21:51Z</time></trkpt><trkpt lat="41.024175850874656" lon="19.731111895676175"><ele>41.0</ele><time>2026-04-27T08:21:52Z</time></trkpt><trkpt lat="41.024137838989795" lon="19.731320960990608"><ele>42.25</ele><time>2026-04-27T08:21:53Z</time></trkpt><trkpt lat="41.02409423837489" lon="19.73151467370725"><ele>43.5</ele><time>2026-04-27T08:21:54Z</time></trkpt><trkpt lat="41.024072578604454" lon="19.731694124091486"><ele>44.75</ele><time>2026-04-27T08:21:55Z</time></trkpt><trkpt lat="41.0240596816394" lon="19.731901371217194"><ele>46.0</ele><time>2026-04-27T08:21:56Z</time></trkpt><trkpt lat="41.024067007474905" lon="19.732127120846748"><ele>46.0</ele><time>2026-04-27T08:21:57Z</time></trkpt><trkpt lat="41.02407493348248" lon="19.732345829061867"><ele>46.0</ele><time>2026-04-27T08:21:58Z</time></trkpt><trkpt lat="41.02409013139644" lon="19.7325475923206"><ele>46.0</ele><time>2026-04-27T08:21:59Z</time></trkpt><trkpt lat="41.024114489778015" lon="19.732726781004487"><ele>44.0</ele><time>2026-04-27T08:22:00Z</time></trkpt><trkpt lat="41.02414567954775" lon="19.732883996702295"><ele>42.0</ele><time>2026-04-27T08:22:01Z</time></trkpt><trkpt lat="41.02417626686888" lon="19.7330314522234"><ele>40.0</ele><time>2026-04-27T08:22:02Z</time></trkpt><trkpt lat="41.024192056098705" lon="19.73319418191118"><ele>38.0</ele><time>2026-04-27T08:22:03Z</time></trkpt><trkpt lat="41.02419128504272" lon="19.73335214401766"><ele>37.8</ele><time>2026-04-27T08:22:04Z</time></trkpt><trkpt lat="41.02417895997501" lon="19.733498854984273"><ele>37.599999999999994</ele><time>2026-04-27T08:22:05Z</time></trkpt><trkpt lat="41.02416221636015" lon="19.733630710965347"><ele>37.400000000000006</ele><time>2026-04-27T08:22:06Z</time></trkpt><trkpt lat="41.024127716307575" lon="19.733720386170912"><ele>37.2</ele><time>2026-04-27T08:22:07Z</time></trkpt><trkpt lat="41.024103846880784" lon="19.733842261772"><ele>37.0</ele><time>2026-04-27T08:22:09Z</time></trkpt><trkpt lat="41.02408709373471" lon="19.73395002527022"><ele>37.0</ele><time>2026-04-27T08:22:11Z</time></trkpt><trkpt lat="41.02406563024144" lon="19.73409561089163"><ele>37.0</ele><time>2026-04-27T08:22:13Z</time></trkpt><trkpt lat="41.02406200802418" lon="19.734204769588178"><ele>37.0</ele><time>2026-04-27T08:22:14Z</time></trkpt><trkpt lat="41.02402920976261" lon="19.73432600150149"><ele>37.0</ele><time>2026-04-27T08:22:15Z</time></trkpt><trkpt lat="41.024004370617746" lon="19.734461573775043"><ele>37.0</ele><time>2026-04-27T08:22:16Z</time></trkpt><trkpt lat="41.02398338562552" lon="19.73460841628976"><ele>37.0</ele><time>2026-04-27T08:22:17Z</time></trkpt><trkpt lat="41.02396901443426" lon="19.734768592323196"><ele>37.0</ele><time>2026-04-27T08:22:18Z</time></trkpt><trkpt lat="41.02395503850776" lon="19.73493516098464"><ele>37.0</ele><time>2026-04-27T08:22:19Z</time></trkpt><trkpt lat="41.02391159046484" lon="19.73510740090726"><ele>37.0</ele><time>2026-04-27T08:22:20Z</time></trkpt><trkpt lat="41.02388042553916" lon="19.735284477296638"><ele>37.0</ele><time>2026-04-27T08:22:21Z</time></trkpt><trkpt lat="41.02384248933053" lon="19.735444737023123"><ele>37.0</ele><time>2026-04-27T08:22:22Z</time></trkpt><trkpt lat="41.023810631332275" lon="19.735610737947614"><ele>37.0</ele><time>2026-04-27T08:22:23Z</time></trkpt><trkpt lat="41.02374282072801" lon="19.735765671766167"><ele>37.0</ele><time>2026-04-27T08:22:24Z</time></trkpt><trkpt lat="41.023678589619756" lon="19.735914252585747"><ele>37.0</ele><time>2026-04-27T08:22:25Z</time></trkpt><trkpt lat="41.02361431768455" lon="19.736048241620676"><ele>37.0</ele><time>2026-04-27T08:22:26Z</time></trkpt><trkpt lat="41.023542833708014" lon="19.736186590263863"><ele>37.0</ele><time>2026-04-27T08:22:27Z</time></trkpt><trkpt lat="41.023471149949025" lon="19.736315204268408"><ele>37.0</ele><time>2026-04-27T08:22:28Z</time></trkpt><trkpt lat="41.0234145271631" lon="19.736432649875578"><ele>36.4</ele><time>2026-04-27T08:22:29Z</time></trkpt><trkpt lat="41.02333392251444" lon="19.73650457749083"><ele>35.800000000000004</ele><time>2026-04-27T08:22:30Z</time></trkpt><trkpt lat="41.023257225038265" lon="19.736588869050124"><ele>35.2</ele><time>2026-04-27T08:22:31Z</time></trkpt><trkpt lat="41.023197636361374" lon="19.73668458811163"><ele>34.6</ele><time>2026-04-27T08:22:32Z</time></trkpt><trkpt lat="41.02313137641776" lon="19.736764684031797"><ele>34.0</ele><time>2026-04-27T08:22:33Z</time></trkpt><trkpt lat="41.023074406476276" lon="19.736849349927773"><ele>34.0</ele><time>2026-04-27T08:22:34Z</time></trkpt><trkpt lat="41.0230338835394" lon="19.73693371844534"><ele>34.0</ele><time>2026-04-27T08:22:35Z</time></trkpt><trkpt lat="41.02301346920221" lon="19.737037996971708"><ele>34.0</ele><time>2026-04-27T08:22:36Z</time></trkpt><trkpt lat="41.02300441032681" lon="19.737137843181774"><ele>34.0</ele><time>2026-04-27T08:22:37Z</time></trkpt><trkpt lat="41.02301456231482" lon="19.737249027854947"><ele>34.0</ele><time>2026-04-27T08:22:38Z</time></trkpt><trkpt lat="41.023028091617945" lon="19.737369831533492"><ele>34.0</ele><time>2026-04-27T08:22:39Z</time></trkpt><trkpt lat="41.02304952553333" lon="19.737502936139666"><ele>34.0</ele><time>2026-04-27T08:22:40Z</time></trkpt><trkpt lat="41.02306819967398" lon="19.73763440552191"><ele>34.0</ele><time>2026-04-27T08:22:41Z</time></trkpt><trkpt lat="41.0230815119944" lon="19.737744876030504"><ele>34.0</ele><time>2026-04-27T08:22:42Z</time></trkpt><trkpt lat="41.02308055151669" lon="19.73784538194893"><ele>34.0</ele><time>2026-04-27T08:22:43Z</time></trkpt><trkpt lat="41.0230840177887" lon="19.73795152122583"><ele>34.0</ele><time>2026-04-27T08:22:44Z</time></trkpt><trkpt lat="41.02309042444558" lon="19.73807152352612"><ele>34.0</ele><time>2026-04-27T08:22:45Z</time></trkpt><trkpt lat="41.0230995906651" lon="19.738207308081808"><ele>35.5</ele><time>2026-04-27T08:22:46Z</time></trkpt><trkpt lat="41.02310021087794" lon="19.738347709171403"><ele>37.0</ele><time>2026-04-27T08:22:47Z</time></trkpt><trkpt lat="41.02309352524516" lon="19.73850009939076"><ele>38.5</ele><time>2026-04-27T08:22:48Z</time></trkpt><trkpt lat="41.02308431919576" lon="19.738660596335883"><ele>40.0</ele><time>2026-04-27T08:22:49Z</time></trkpt><trkpt lat="41.02306025260492" lon="19.738850666848027"><ele>41.25</ele><time>2026-04-27T08:22:50Z</time></trkpt><trkpt lat="41.02303847496415" lon="19.739038363982065"><ele>42.5</ele><time>2026-04-27T08:22:51Z</time></trkpt><trkpt lat="41.02303265396341" lon="19.739211901722772"><ele>43.75</ele><time>2026-04-27T08:22:52Z</time></trkpt><trkpt lat="41.023012984353144" lon="19.73938842742254"><ele>45.0</ele><time>2026-04-27T08:22:53Z</time></trkpt><trkpt lat="41.02298718252678" lon="19.739574089938074"><ele>45.0</ele><time>2026-04-27T08:22:54Z</time></trkpt><trkpt lat="41.022943530249776" lon="19.73976512689411"><ele>45.0</ele><time>2026-04-27T08:22:55Z</time></trkpt><trkpt lat="41.02289406792436" lon="19.73996299106376"><ele>45.0</ele><time>2026-04-27T08:22:56Z</time></trkpt><trkpt lat="41.0228420185926" lon="19.740159817898945"><ele>41.666666666666664</ele><time>2026-04-27T08:22:57Z</time></trkpt><trkpt lat="41.022762697023396" lon="19.740346562896608"><ele>38.33333333333333</ele><time>2026-04-27T08:22:58Z</time></trkpt><trkpt lat="41.02268900484725" lon="19.74053209588808"><ele>35.0</ele><time>2026-04-27T08:22:59Z</time></trkpt><trkpt lat="41.02259958914327" lon="19.74073034685645"><ele>35.0</ele><time>2026-04-27T08:23:00Z</time></trkpt><trkpt lat="41.02251598001191" lon="19.740960055632197"><ele>35.0</ele><time>2026-04-27T08:23:01Z</time></trkpt><trkpt lat="41.02246402307824" lon="19.741169150795262"><ele>35.0</ele><time>2026-04-27T08:23:02Z</time></trkpt><trkpt lat="41.02242719298863" lon="19.74137320756127"><ele>36.33333333333333</ele><time>2026-04-27T08:23:03Z</time></trkpt><trkpt lat="41.02238614058787" lon="19.741578227066945"><ele>37.666666666666664</ele><time>2026-04-27T08:23:04Z</time></trkpt><trkpt lat="41.02235311000171" lon="19.74180292411488"><ele>39.0</ele><time>2026-04-27T08:23:05Z</time></trkpt><trkpt lat="41.02233674889135" lon="19.742033474474184"><ele>39.0</ele><time>2026-04-27T08:23:06Z</time></trkpt><trkpt lat="41.02232652200251" lon="19.742252397296696"><ele>39.0</ele><time>2026-04-27T08:23:07Z</time></trkpt><trkpt lat="41.022318335780156" lon="19.742446923002614"><ele>39.0</ele><time>2026-04-27T08:23:07.999Z</time></trkpt><trkpt lat="41.022304986909184" lon="19.742629860540173"><ele>37.0</ele><time>2026-04-27T08:23:08.999Z</time></trkpt><trkpt lat="41.02228188534167" lon="19.742791790892806"><ele>35.0</ele><time>2026-04-27T08:23:09.999Z</time></trkpt><trkpt lat="41.0222120647773" lon="19.742920348907692"><ele>33.0</ele><time>2026-04-27T08:23:10.999Z</time></trkpt><trkpt lat="41.02216702007451" lon="19.743065060673576"><ele>31.0</ele><time>2026-04-27T08:23:11.999Z</time></trkpt><trkpt lat="41.02210863939784" lon="19.7431959434797"><ele>31.0</ele><time>2026-04-27T08:23:12.999Z</time></trkpt><trkpt lat="41.02209276275436" lon="19.743360594403345"><ele>31.0</ele><time>2026-04-27T08:23:13.999Z</time></trkpt><trkpt lat="41.02211927213764" lon="19.743540548032666"><ele>31.0</ele><time>2026-04-27T08:23:14.999Z</time></trkpt><trkpt lat="41.022171601124484" lon="19.743717967766443"><ele>31.0</ele><time>2026-04-27T08:23:15.999Z</time></trkpt><trkpt lat="41.02223640608771" lon="19.743889852297652"><ele>31.0</ele><time>2026-04-27T08:23:16.999Z</time></trkpt><trkpt lat="41.02231435373389" lon="19.744038148361653"><ele>31.0</ele><time>2026-04-27T08:23:17.999Z</time></trkpt><trkpt lat="41.02240225545184" lon="19.744193251921832"><ele>31.0</ele><time>2026-04-27T08:23:18.999Z</time></trkpt><trkpt lat="41.022480410456346" lon="19.74438127776393"><ele>31.0</ele><time>2026-04-27T08:23:19.999Z</time></trkpt><trkpt lat="41.02253558858003" lon="19.74459813452662"><ele>31.0</ele><time>2026-04-27T08:23:20.999Z</time></trkpt><trkpt lat="41.022594030939715" lon="19.744810063860847"><ele>31.0</ele><time>2026-04-27T08:23:21.999Z</time></trkpt><trkpt lat="41.02265185982415" lon="19.74498901354673"><ele>31.0</ele><time>2026-04-27T08:23:22.999Z</time></trkpt><trkpt lat="41.022707866187744" lon="19.745151351067204"><ele>32.75</ele><time>2026-04-27T08:23:23.999Z</time></trkpt><trkpt lat="41.022753821223056" lon="19.74529018344905"><ele>34.5</ele><time>2026-04-27T08:23:24.999Z</time></trkpt><trkpt lat="41.02280413713827" lon="19.74542079441627"><ele>36.25</ele><time>2026-04-27T08:23:25.999Z</time></trkpt><trkpt lat="41.022854273559965" lon="19.745558849623965"><ele>38.0</ele><time>2026-04-27T08:23:26.999Z</time></trkpt><trkpt lat="41.02288676957806" lon="19.74572504952834"><ele>38.0</ele><time>2026-04-27T08:23:27.999Z</time></trkpt><trkpt lat="41.02294347099761" lon="19.745878132373022"><ele>38.0</ele><time>2026-04-27T08:23:28.999Z</time></trkpt><trkpt lat="41.0229822202209" lon="19.746034574731542"><ele>38.0</ele><time>2026-04-27T08:23:29.999Z</time></trkpt><trkpt lat="41.02298605625907" lon="19.746201029292322"><ele>38.0</ele><time>2026-04-27T08:23:30.999Z</time></trkpt><trkpt lat="41.023002523441306" lon="19.74638244963369"><ele>39.666666666666664</ele><time>2026-04-27T08:23:31.999Z</time></trkpt><trkpt lat="41.02298802200647" lon="19.746583167503452"><ele>41.333333333333336</ele><time>2026-04-27T08:23:32.999Z</time></trkpt><trkpt lat="41.0229793834288" lon="19.746785515753086"><ele>43.0</ele><time>2026-04-27T08:23:33.999Z</time></trkpt><trkpt lat="41.02297054807476" lon="19.746997725008885"><ele>45.0</ele><time>2026-04-27T08:23:34.999Z</time></trkpt><trkpt lat="41.02296338561867" lon="19.74721917619634"><ele>47.0</ele><time>2026-04-27T08:23:35.999Z</time></trkpt><trkpt lat="41.02295505088472" lon="19.7474314871389"><ele>49.0</ele><time>2026-04-27T08:23:36.999Z</time></trkpt><trkpt lat="41.02294608266086" lon="19.74761364310624"><ele>49.5</ele><time>2026-04-27T08:23:37.999Z</time></trkpt><trkpt lat="41.022944662356196" lon="19.747794178942147"><ele>50.0</ele><time>2026-04-27T08:23:38.999Z</time></trkpt><trkpt lat="41.02295993741267" lon="19.747989269986373"><ele>50.5</ele><time>2026-04-27T08:23:39.999Z</time></trkpt><trkpt lat="41.022994491288166" lon="19.74819015696258"><ele>51.0</ele><time>2026-04-27T08:23:40.999Z</time></trkpt><trkpt lat="41.02303775077367" lon="19.7484009976118"><ele>52.25</ele><time>2026-04-27T08:23:41.999Z</time></trkpt><trkpt lat="41.023082287608716" lon="19.748607500308793"><ele>53.5</ele><time>2026-04-27T08:23:42.999Z</time></trkpt><trkpt lat="41.02312637124459" lon="19.74879133313059"><ele>54.75</ele><time>2026-04-27T08:23:43.999Z</time></trkpt><trkpt lat="41.02316891993398" lon="19.748952964957773"><ele>56.0</ele><time>2026-04-27T08:23:44.999Z</time></trkpt><trkpt lat="41.02321433510903" lon="19.749116890926917"><ele>56.0</ele><time>2026-04-27T08:23:45.999Z</time></trkpt><trkpt lat="41.023245454895886" lon="19.749302653173753"><ele>56.0</ele><time>2026-04-27T08:23:46.999Z</time></trkpt><trkpt lat="41.023228741573746" lon="19.749506413878393"><ele>56.0</ele><time>2026-04-27T08:23:47.999Z</time></trkpt><trkpt lat="41.02323373189297" lon="19.749711440248237"><ele>55.25</ele><time>2026-04-27T08:23:48.999Z</time></trkpt><trkpt lat="41.02321272236418" lon="19.74990641308542"><ele>54.5</ele><time>2026-04-27T08:23:49.999Z</time></trkpt><trkpt lat="41.02325331543684" lon="19.75009374492488"><ele>53.75</ele><time>2026-04-27T08:23:50.999Z</time></trkpt><trkpt lat="41.02328003687957" lon="19.75025822723771"><ele>53.0</ele><time>2026-04-27T08:23:51.999Z</time></trkpt><trkpt lat="41.02330529809455" lon="19.750404191469062"><ele>48.6</ele><time>2026-04-27T08:23:52.999Z</time></trkpt><trkpt lat="41.02333676209966" lon="19.750542950037765"><ele>44.199999999999996</ele><time>2026-04-27T08:23:53.999Z</time></trkpt><trkpt lat="41.02337040063914" lon="19.750673431127183"><ele>39.8</ele><time>2026-04-27T08:23:54.999Z</time></trkpt><trkpt lat="41.023406092516474" lon="19.750775673711086"><ele>35.4</ele><time>2026-04-27T08:23:56Z</time></trkpt><trkpt lat="41.0234465935999" lon="19.75086486927665"><ele>31.0</ele><time>2026-04-27T08:23:57Z</time></trkpt><trkpt lat="41.02349744917099" lon="19.75096363557208"><ele>31.166666666666668</ele><time>2026-04-27T08:23:58Z</time></trkpt><trkpt lat="41.02356547913153" lon="19.751073705685723"><ele>31.333333333333336</ele><time>2026-04-27T08:23:59Z</time></trkpt><trkpt lat="41.0236337542684" lon="19.75116009780841"><ele>31.5</ele><time>2026-04-27T08:24:00Z</time></trkpt><trkpt lat="41.02370510142135" lon="19.751211966042334"><ele>31.666666666666664</ele><time>2026-04-27T08:24:01Z</time></trkpt><trkpt lat="41.02377511166287" lon="19.751244337496136"><ele>31.833333333333332</ele><time>2026-04-27T08:24:02Z</time></trkpt><trkpt lat="41.023853500727164" lon="19.75126236121264"><ele>32.0</ele><time>2026-04-27T08:24:04Z</time></trkpt><trkpt lat="41.023876369357424" lon="19.75138752729292"><ele>32.0</ele><time>2026-04-27T08:24:07Z</time></trkpt><trkpt lat="41.02379596608025" lon="19.751452003834785"><ele>32.0</ele><time>2026-04-27T08:24:09Z</time></trkpt><trkpt lat="41.0237456025698" lon="19.7515335514187"><ele>32.0</ele><time>2026-04-27T08:24:11Z</time></trkpt><trkpt lat="41.02375601853411" lon="19.75161934326171"><ele>32.0</ele><time>2026-04-27T08:24:13Z</time></trkpt><trkpt lat="41.023813470644804" lon="19.751710924430757"><ele>32.0</ele><time>2026-04-27T08:24:15Z</time></trkpt><trkpt lat="41.023851610092315" lon="19.75188000881415"><ele>32.2</ele><time>2026-04-27T08:24:17Z</time></trkpt><trkpt lat="41.02386469975778" lon="19.75198700097533"><ele>32.400000000000006</ele><time>2026-04-27T08:24:18Z</time></trkpt><trkpt lat="41.02384400729007" lon="19.752104161773666"><ele>32.599999999999994</ele><time>2026-04-27T08:24:19Z</time></trkpt><trkpt lat="41.023818313164995" lon="19.75223639161912"><ele>32.8</ele><time>2026-04-27T08:24:20Z</time></trkpt><trkpt lat="41.02379454281614" lon="19.752379120457537"><ele>33.0</ele><time>2026-04-27T08:24:21Z</time></trkpt><trkpt lat="41.02376843574154" lon="19.75253588018397"><ele>33.0</ele><time>2026-04-27T08:24:22Z</time></trkpt><trkpt lat="41.02374414273038" lon="19.75269088293269"><ele>33.0</ele><time>2026-04-27T08:24:23Z</time></trkpt><trkpt lat="41.02372443521605" lon="19.752853511071617"><ele>33.0</ele><time>2026-04-27T08:24:24Z</time></trkpt><trkpt lat="41.02372355692351" lon="19.753026647036368"><ele>33.0</ele><time>2026-04-27T08:24:25Z</time></trkpt><trkpt lat="41.023713286096026" lon="19.75319463383974"><ele>34.0</ele><time>2026-04-27T08:24:26Z</time></trkpt><trkpt lat="41.02370006530403" lon="19.75337053650959"><ele>35.0</ele><time>2026-04-27T08:24:27Z</time></trkpt><trkpt lat="41.02367752753457" lon="19.753552219503074"><ele>36.0</ele><time>2026-04-27T08:24:28Z</time></trkpt><trkpt lat="41.02364787457629" lon="19.75373890512793"><ele>37.0</ele><time>2026-04-27T08:24:29Z</time></trkpt><trkpt lat="41.023586467635084" lon="19.753912814527737"><ele>38.75</ele><time>2026-04-27T08:24:30Z</time></trkpt><trkpt lat="41.02354728604998" lon="19.75409816947468"><ele>40.5</ele><time>2026-04-27T08:24:31Z</time></trkpt><trkpt lat="41.023496261171374" lon="19.754274136001865"><ele>42.25</ele><time>2026-04-27T08:24:32Z</time></trkpt><trkpt lat="41.02343059631689" lon="19.754444910083766"><ele>44.0</ele><time>2026-04-27T08:24:33Z</time></trkpt><trkpt lat="41.023400836838604" lon="19.754633568781315"><ele>46.25</ele><time>2026-04-27T08:24:34Z</time></trkpt><trkpt lat="41.02338787961253" lon="19.754817054563578"><ele>48.5</ele><time>2026-04-27T08:24:35Z</time></trkpt><trkpt lat="41.02341020641093" lon="19.754997802831376"><ele>50.75</ele><time>2026-04-27T08:24:36Z</time></trkpt><trkpt lat="41.023418725774945" lon="19.755179416077112"><ele>53.0</ele><time>2026-04-27T08:24:37Z</time></trkpt><trkpt lat="41.023426711221" lon="19.755366126344953"><ele>56.333333333333336</ele><time>2026-04-27T08:24:38Z</time></trkpt><trkpt lat="41.023424249988395" lon="19.75555850777219"><ele>59.66666666666667</ele><time>2026-04-27T08:24:39Z</time></trkpt><trkpt lat="41.023404554559285" lon="19.75575348922458"><ele>63.0</ele><time>2026-04-27T08:24:40Z</time></trkpt><trkpt lat="41.02335453834853" lon="19.75595219792608"><ele>64.66666666666667</ele><time>2026-04-27T08:24:41Z</time></trkpt><trkpt lat="41.02331626037661" lon="19.756171963322757"><ele>66.33333333333334</ele><time>2026-04-27T08:24:42Z</time></trkpt><trkpt lat="41.023273786626184" lon="19.75636767673538"><ele>68.0</ele><time>2026-04-27T08:24:43Z</time></trkpt><trkpt lat="41.02323289326759" lon="19.756536672466822"><ele>66.5</ele><time>2026-04-27T08:24:44Z</time></trkpt><trkpt lat="41.023205737037905" lon="19.756690774148133"><ele>65.0</ele><time>2026-04-27T08:24:45Z</time></trkpt><trkpt lat="41.02317039862425" lon="19.756849854181823"><ele>63.5</ele><time>2026-04-27T08:24:46Z</time></trkpt><trkpt lat="41.02316418971822" lon="19.75702656622359"><ele>62.0</ele><time>2026-04-27T08:24:47Z</time></trkpt><trkpt lat="41.02315943256691" lon="19.757208711631716"><ele>62.0</ele><time>2026-04-27T08:24:48Z</time></trkpt><trkpt lat="41.02313284015432" lon="19.757386386445162"><ele>62.0</ele><time>2026-04-27T08:24:49Z</time></trkpt><trkpt lat="41.02312090627469" lon="19.75753967147445"><ele>62.0</ele><time>2026-04-27T08:24:50Z</time></trkpt><trkpt lat="41.023123739331474" lon="19.757699541910153"><ele>62.0</ele><time>2026-04-27T08:24:51Z</time></trkpt><trkpt lat="41.023109142084685" lon="19.75783368250495"><ele>63.16666666666667</ele><time>2026-04-27T08:24:52Z</time></trkpt><trkpt lat="41.023105028167485" lon="19.75792498784789"><ele>64.33333333333334</ele><time>2026-04-27T08:24:53Z</time></trkpt><trkpt lat="41.02310097611459" lon="19.758022927675256"><ele>65.5</ele><time>2026-04-27T08:24:57Z</time></trkpt><trkpt lat="41.02310589961036" lon="19.758145768076687"><ele>66.66666666666667</ele><time>2026-04-27T08:24:59.999Z</time></trkpt><trkpt lat="41.023114643331944" lon="19.758284334991526"><ele>67.83333333333333</ele><time>2026-04-27T08:25:01.999Z</time></trkpt><trkpt lat="41.02311374801432" lon="19.758376574122416"><ele>69.0</ele><time>2026-04-27T08:25:02.999Z</time></trkpt><trkpt lat="41.02310447069089" lon="19.75848703580243"><ele>71.0</ele><time>2026-04-27T08:25:03.999Z</time></trkpt><trkpt lat="41.023063563475986" lon="19.758617532312236"><ele>73.0</ele><time>2026-04-27T08:25:04.999Z</time></trkpt><trkpt lat="41.02303838589061" lon="19.758795029049192"><ele>75.0</ele><time>2026-04-27T08:25:05.999Z</time></trkpt><trkpt lat="41.02302031953524" lon="19.759033577157755"><ele>77.0</ele><time>2026-04-27T08:25:06.999Z</time></trkpt><trkpt lat="41.022991038876185" lon="19.75928191268372"><ele>79.75</ele><time>2026-04-27T08:25:07.999Z</time></trkpt><trkpt lat="41.022941971154914" lon="19.759480753698043"><ele>82.5</ele><time>2026-04-27T08:25:08.999Z</time></trkpt><trkpt lat="41.02290775215503" lon="19.759650017587227"><ele>85.25</ele><time>2026-04-27T08:25:09.999Z</time></trkpt><trkpt lat="41.02287217060574" lon="19.75979608841122"><ele>88.0</ele><time>2026-04-27T08:25:10.999Z</time></trkpt><trkpt lat="41.02280587001164" lon="19.759893310534228"><ele>88.0</ele><time>2026-04-27T08:25:11.999Z</time></trkpt><trkpt lat="41.02274184840069" lon="19.760006271158705"><ele>88.0</ele><time>2026-04-27T08:25:12.999Z</time></trkpt><trkpt lat="41.022685240652564" lon="19.760140781044612"><ele>88.0</ele><time>2026-04-27T08:25:13.999Z</time></trkpt><trkpt lat="41.022602237379836" lon="19.760247766971215"><ele>88.0</ele><time>2026-04-27T08:25:14.999Z</time></trkpt><trkpt lat="41.02255550229215" lon="19.760362538395423"><ele>88.0</ele><time>2026-04-27T08:25:15.999Z</time></trkpt><trkpt lat="41.02246201903215" lon="19.760365094891874"><ele>89.5</ele><time>2026-04-27T08:25:16.999Z</time></trkpt><trkpt lat="41.02235729363449" lon="19.760374152968783"><ele>91.0</ele><time>2026-04-27T08:25:17.999Z</time></trkpt><trkpt lat="41.022224091868296" lon="19.760414899481255"><ele>92.5</ele><time>2026-04-27T08:25:18.999Z</time></trkpt><trkpt lat="41.022081639644504" lon="19.76049137789921"><ele>94.0</ele><time>2026-04-27T08:25:19.999Z</time></trkpt><trkpt lat="41.02194971633932" lon="19.760549401236705"><ele>94.0</ele><time>2026-04-27T08:25:20.999Z</time></trkpt><trkpt lat="41.021861256553606" lon="19.76062656954087"><ele>94.0</ele><time>2026-04-27T08:25:21.999Z</time></trkpt><trkpt lat="41.021790753720666" lon="19.76072659667461"><ele>94.0</ele><time>2026-04-27T08:25:22.999Z</time></trkpt><trkpt lat="41.02172353531597" lon="19.760840924669775"><ele>94.0</ele><time>2026-04-27T08:25:23.999Z</time></trkpt><trkpt lat="41.02164462441817" lon="19.76095552872535"><ele>94.0</ele><time>2026-04-27T08:25:24.999Z</time></trkpt><trkpt lat="41.02155319531996" lon="19.761078083460905"><ele>95.0</ele><time>2026-04-27T08:25:25.999Z</time></trkpt><trkpt lat="41.021451466453634" lon="19.761217016555054"><ele>96.0</ele><time>2026-04-27T08:25:26.999Z</time></trkpt><trkpt lat="41.02136054174758" lon="19.761337121105683"><ele>97.0</ele><time>2026-04-27T08:25:27.999Z</time></trkpt><trkpt lat="41.02128193669515" lon="19.761442747699228"><ele>98.0</ele><time>2026-04-27T08:25:28.999Z</time></trkpt><trkpt lat="41.02120826630807" lon="19.76155344938463"><ele>98.0</ele><time>2026-04-27T08:25:29.999Z</time></trkpt><trkpt lat="41.02114289542532" lon="19.761675612606393"><ele>98.0</ele><time>2026-04-27T08:25:30.999Z</time></trkpt><trkpt lat="41.02111298782078" lon="19.76180697297644"><ele>98.0</ele><time>2026-04-27T08:25:31.999Z</time></trkpt><trkpt lat="41.02107050899699" lon="19.761922429043988"><ele>98.0</ele><time>2026-04-27T08:25:32.999Z</time></trkpt><trkpt lat="41.02100770622973" lon="19.762019855692873"><ele>98.0</ele><time>2026-04-27T08:25:33.999Z</time></trkpt><trkpt lat="41.020919702584365" lon="19.762078204202037"><ele>99.66666666666666</ele><time>2026-04-27T08:25:34.999Z</time></trkpt><trkpt lat="41.0207854948853" lon="19.76205813426793"><ele>101.33333333333334</ele><time>2026-04-27T08:25:35.999Z</time></trkpt><trkpt lat="41.02062829702123" lon="19.76207663609974"><ele>103.0</ele><time>2026-04-27T08:25:36.999Z</time></trkpt><trkpt lat="41.02044592016305" lon="19.76210166952947"><ele>103.0</ele><time>2026-04-27T08:25:37.999Z</time></trkpt><trkpt lat="41.02025145084732" lon="19.762115901144323"><ele>103.0</ele><time>2026-04-27T08:25:38.999Z</time></trkpt><trkpt lat="41.020097051166516" lon="19.762113930093257"><ele>103.0</ele><time>2026-04-27T08:25:39.999Z</time></trkpt><trkpt lat="41.0199602859388" lon="19.762129094025543"><ele>105.33333333333334</ele><time>2026-04-27T08:25:40.999Z</time></trkpt><trkpt lat="41.01981363771694" lon="19.762183513479698"><ele>107.66666666666666</ele><time>2026-04-27T08:25:41.999Z</time></trkpt><trkpt lat="41.019639261431315" lon="19.762221128807766"><ele>110.0</ele><time>2026-04-27T08:25:42.999Z</time></trkpt><trkpt lat="41.019449331811494" lon="19.76226034417715"><ele>110.0</ele><time>2026-04-27T08:25:43.999Z</time></trkpt><trkpt lat="41.01926710311005" lon="19.762263133196665"><ele>110.0</ele><time>2026-04-27T08:25:44.999Z</time></trkpt><trkpt lat="41.01910039533105" lon="19.762290391172094"><ele>110.0</ele><time>2026-04-27T08:25:45.999Z</time></trkpt><trkpt lat="41.01896044430805" lon="19.762305529020527"><ele>110.25</ele><time>2026-04-27T08:25:46.999Z</time></trkpt><trkpt lat="41.01883908615288" lon="19.762308292043976"><ele>110.5</ele><time>2026-04-27T08:25:47.999Z</time></trkpt><trkpt lat="41.01871984548486" lon="19.762281228360546"><ele>110.75</ele><time>2026-04-27T08:25:48.999Z</time></trkpt><trkpt lat="41.018580247981475" lon="19.7622709361"><ele>111.0</ele><time>2026-04-27T08:25:49.999Z</time></trkpt><trkpt lat="41.018431380373386" lon="19.762299354893752"><ele>110.75</ele><time>2026-04-27T08:25:50.999Z</time></trkpt><trkpt lat="41.0182804583352" lon="19.762323462765636"><ele>110.5</ele><time>2026-04-27T08:25:51.999Z</time></trkpt><trkpt lat="41.01813130788852" lon="19.76233671728165"><ele>110.25</ele><time>2026-04-27T08:25:52.999Z</time></trkpt><trkpt lat="41.01800749124816" lon="19.76235430780285"><ele>110.0</ele><time>2026-04-27T08:25:53.999Z</time></trkpt><trkpt lat="41.01790086097913" lon="19.762342047664045"><ele>110.0</ele><time>2026-04-27T08:25:54.999Z</time></trkpt><trkpt lat="41.01779900294496" lon="19.762292576869545"><ele>110.0</ele><time>2026-04-27T08:25:55.999Z</time></trkpt><trkpt lat="41.017678078546915" lon="19.762199341934664"><ele>110.0</ele><time>2026-04-27T08:25:56.999Z</time></trkpt><trkpt lat="41.017535127907074" lon="19.762138967246493"><ele>110.0</ele><time>2026-04-27T08:25:57.999Z</time></trkpt><trkpt lat="41.0173880138402" lon="19.762076834310445"><ele>107.66666666666666</ele><time>2026-04-27T08:25:58.999Z</time></trkpt><trkpt lat="41.01722508247599" lon="19.762075245582388"><ele>105.33333333333334</ele><time>2026-04-27T08:25:59.999Z</time></trkpt><trkpt lat="41.01705897372762" lon="19.76204887453143"><ele>103.0</ele><time>2026-04-27T08:26:00.999Z</time></trkpt><trkpt lat="41.0168960048509" lon="19.762024927702285"><ele>103.0</ele><time>2026-04-27T08:26:02Z</time></trkpt><trkpt lat="41.01674602550588" lon="19.762011714240945"><ele>103.0</ele><time>2026-04-27T08:26:03Z</time></trkpt><trkpt lat="41.0166076525689" lon="19.76197166350532"><ele>103.0</ele><time>2026-04-27T08:26:04Z</time></trkpt><trkpt lat="41.01647620131619" lon="19.761939120023808"><ele>103.0</ele><time>2026-04-27T08:26:05Z</time></trkpt><trkpt lat="41.01634101268421" lon="19.76190257684306"><ele>104.0</ele><time>2026-04-27T08:26:06Z</time></trkpt><trkpt lat="41.01620256182612" lon="19.76183971357838"><ele>105.0</ele><time>2026-04-27T08:26:07Z</time></trkpt><trkpt lat="41.01605009340504" lon="19.761776301270405"><ele>106.0</ele><time>2026-04-27T08:26:08Z</time></trkpt><trkpt lat="41.01589094156442" lon="19.76170950166522"><ele>104.66666666666667</ele><time>2026-04-27T08:26:09Z</time></trkpt><trkpt lat="41.015728399819906" lon="19.761640553181998"><ele>103.33333333333334</ele><time>2026-04-27T08:26:10Z</time></trkpt><trkpt lat="41.015555541529274" lon="19.761567099209252"><ele>102.0</ele><time>2026-04-27T08:26:11Z</time></trkpt><trkpt lat="41.01538519562322" lon="19.761488080553082"><ele>102.0</ele><time>2026-04-27T08:26:12Z</time></trkpt><trkpt lat="41.015231298275786" lon="19.76141300867699"><ele>102.0</ele><time>2026-04-27T08:26:13Z</time></trkpt><trkpt lat="41.01509087129199" lon="19.76134412325643"><ele>102.0</ele><time>2026-04-27T08:26:14Z</time></trkpt><trkpt lat="41.01494611879185" lon="19.761273523350077"><ele>99.66666666666667</ele><time>2026-04-27T08:26:15Z</time></trkpt><trkpt lat="41.01479708381857" lon="19.761201656192718"><ele>97.33333333333334</ele><time>2026-04-27T08:26:16Z</time></trkpt><trkpt lat="41.01464050940895" lon="19.761127519318674"><ele>95.0</ele><time>2026-04-27T08:26:17Z</time></trkpt><trkpt lat="41.01447926915326" lon="19.761051698744545"><ele>97.66666666666667</ele><time>2026-04-27T08:26:18Z</time></trkpt><trkpt lat="41.01432209654495" lon="19.76097726036648"><ele>100.33333333333334</ele><time>2026-04-27T08:26:19Z</time></trkpt><trkpt lat="41.01415497131325" lon="19.760907929726052"><ele>103.0</ele><time>2026-04-27T08:26:20Z</time></trkpt><trkpt lat="41.01398672299678" lon="19.760842579231074"><ele>103.33333333333334</ele><time>2026-04-27T08:26:21Z</time></trkpt><trkpt lat="41.01380826360672" lon="19.760790497130376"><ele>103.66666666666666</ele><time>2026-04-27T08:26:22Z</time></trkpt><trkpt lat="41.01363066786058" lon="19.76074376451002"><ele>104.0</ele><time>2026-04-27T08:26:23Z</time></trkpt><trkpt lat="41.013444396741136" lon="19.760733007006458"><ele>102.0</ele><time>2026-04-27T08:26:24Z</time></trkpt><trkpt lat="41.01326947363655" lon="19.760705236499565"><ele>100.0</ele><time>2026-04-27T08:26:25Z</time></trkpt><trkpt lat="41.01311040321562" lon="19.760660725127945"><ele>98.0</ele><time>2026-04-27T08:26:26Z</time></trkpt><trkpt lat="41.01295000471319" lon="19.76063320713415"><ele>98.0</ele><time>2026-04-27T08:26:27Z</time></trkpt><trkpt lat="41.012799063075114" lon="19.76060686541188"><ele>98.0</ele><time>2026-04-27T08:26:28Z</time></trkpt><trkpt lat="41.01265471821698" lon="19.760580918253183"><ele>98.0</ele><time>2026-04-27T08:26:29Z</time></trkpt><trkpt lat="41.01252650779045" lon="19.760535061705"><ele>98.0</ele><time>2026-04-27T08:26:30Z</time></trkpt><trkpt lat="41.01239545714337" lon="19.760490909942053"><ele>97.0</ele><time>2026-04-27T08:26:31Z</time></trkpt><trkpt lat="41.012265746024184" lon="19.76045666131009"><ele>96.0</ele><time>2026-04-27T08:26:32Z</time></trkpt><trkpt lat="41.01214805113452" lon="19.760427274755923"><ele>95.0</ele><time>2026-04-27T08:26:33Z</time></trkpt><trkpt lat="41.012042568874655" lon="19.760400381089088"><ele>94.0</ele><time>2026-04-27T08:26:34Z</time></trkpt><trkpt lat="41.01194047598634" lon="19.760368859161307"><ele>94.0</ele><time>2026-04-27T08:26:35Z</time></trkpt><trkpt lat="41.011837678017365" lon="19.760336215465976"><ele>94.0</ele><time>2026-04-27T08:26:36Z</time></trkpt><trkpt lat="41.011750054724466" lon="19.760299560715705"><ele>94.0</ele><time>2026-04-27T08:26:37Z</time></trkpt><trkpt lat="41.01166555078078" lon="19.760263841505623"><ele>94.0</ele><time>2026-04-27T08:26:38Z</time></trkpt><trkpt lat="41.01157901219321" lon="19.76023570906711"><ele>94.0</ele><time>2026-04-27T08:26:39Z</time></trkpt><trkpt lat="41.011505933408266" lon="19.760217462055643"><ele>94.0</ele><time>2026-04-27T08:26:40Z</time></trkpt><trkpt lat="41.01143777553512" lon="19.760199469769184"><ele>94.0</ele><time>2026-04-27T08:26:41Z</time></trkpt><trkpt lat="41.01135604627292" lon="19.76018868442687"><ele>94.0</ele><time>2026-04-27T08:26:42Z</time></trkpt><trkpt lat="41.011274932985835" lon="19.760182988564633"><ele>94.0</ele><time>2026-04-27T08:26:43Z</time></trkpt><trkpt lat="41.011188026148595" lon="19.760175618000247"><ele>94.0</ele><time>2026-04-27T08:26:44Z</time></trkpt><trkpt lat="41.011103930465566" lon="19.760217723471765"><ele>94.0</ele><time>2026-04-27T08:26:45Z</time></trkpt><trkpt lat="41.011028869977835" lon="19.760236114497683"><ele>94.0</ele><time>2026-04-27T08:26:46Z</time></trkpt><trkpt lat="41.010947993536575" lon="19.760255701497236"><ele>94.0</ele><time>2026-04-27T08:26:47Z</time></trkpt><trkpt lat="41.010855244252156" lon="19.760277235928967"><ele>94.0</ele><time>2026-04-27T08:26:48Z</time></trkpt><trkpt lat="41.01075920981343" lon="19.76028868060855"><ele>94.0</ele><time>2026-04-27T08:26:49Z</time></trkpt><trkpt lat="41.010659639075556" lon="19.76029995315726"><ele>94.0</ele><time>2026-04-27T08:26:50Z</time></trkpt><trkpt lat="41.010572379097006" lon="19.76029748637205"><ele>95.80000000000001</ele><time>2026-04-27T08:26:51Z</time></trkpt><trkpt lat="41.010484107449486" lon="19.760296977942364"><ele>97.60000000000001</ele><time>2026-04-27T08:26:52Z</time></trkpt><trkpt lat="41.01038651991203" lon="19.76029572728989"><ele>99.4</ele><time>2026-04-27T08:26:53Z</time></trkpt><trkpt lat="41.01027954992927" lon="19.760293949313866"><ele>101.2</ele><time>2026-04-27T08:26:54Z</time></trkpt><trkpt lat="41.01016952660598" lon="19.76029280047781"><ele>103.0</ele><time>2026-04-27T08:26:54.999Z</time></trkpt><trkpt lat="41.01005774842126" lon="19.7602913783834"><ele>106.0</ele><time>2026-04-27T08:26:55.999Z</time></trkpt><trkpt lat="41.00994474452411" lon="19.760290108200156"><ele>109.0</ele><time>2026-04-27T08:26:56.999Z</time></trkpt><trkpt lat="41.00982861544832" lon="19.760290108202025"><ele>112.0</ele><time>2026-04-27T08:26:57.999Z</time></trkpt><trkpt lat="41.009713164885824" lon="19.760290108204796"><ele>115.0</ele><time>2026-04-27T08:26:58.999Z</time></trkpt><trkpt lat="41.00959430005791" lon="19.76032371830552"><ele>115.0</ele><time>2026-04-27T08:26:59.999Z</time></trkpt><trkpt lat="41.00948610010239" lon="19.760357271236867"><ele>115.0</ele><time>2026-04-27T08:27:00.999Z</time></trkpt><trkpt lat="41.00937863276585" lon="19.760395193724793"><ele>115.0</ele><time>2026-04-27T08:27:01.999Z</time></trkpt><trkpt lat="41.00927569593421" lon="19.76043399198972"><ele>115.0</ele><time>2026-04-27T08:27:02.999Z</time></trkpt><trkpt lat="41.009171485787554" lon="19.760473579159285"><ele>115.0</ele><time>2026-04-27T08:27:03.999Z</time></trkpt><trkpt lat="41.00905268108352" lon="19.76051871047199"><ele>116.5</ele><time>2026-04-27T08:27:04.999Z</time></trkpt><trkpt lat="41.008909809644514" lon="19.76057298421731"><ele>118.0</ele><time>2026-04-27T08:27:05.999Z</time></trkpt><trkpt lat="41.00876014481697" lon="19.760629838644714"><ele>119.5</ele><time>2026-04-27T08:27:06.999Z</time></trkpt><trkpt lat="41.00863424045469" lon="19.760666172882484"><ele>121.0</ele><time>2026-04-27T08:27:07.999Z</time></trkpt><trkpt lat="41.00851811270018" lon="19.76068758191538"><ele>121.0</ele><time>2026-04-27T08:27:08.999Z</time></trkpt><trkpt lat="41.00839195463641" lon="19.760711201037104"><ele>121.0</ele><time>2026-04-27T08:27:09.999Z</time></trkpt><trkpt lat="41.00824825262377" lon="19.760738439750366"><ele>121.0</ele><time>2026-04-27T08:27:10.999Z</time></trkpt><trkpt lat="41.00809456568534" lon="19.760767157121194"><ele>121.0</ele><time>2026-04-27T08:27:11.999Z</time></trkpt><trkpt lat="41.00793432532823" lon="19.76079209507442"><ele>125.33333333333334</ele><time>2026-04-27T08:27:12.999Z</time></trkpt><trkpt lat="41.007761588776546" lon="19.760807036263397"><ele>129.66666666666666</ele><time>2026-04-27T08:27:13.999Z</time></trkpt><trkpt lat="41.007585225298236" lon="19.760820909392972"><ele>134.0</ele><time>2026-04-27T08:27:14.999Z</time></trkpt><trkpt lat="41.0074363922481" lon="19.760830501773167"><ele>137.5</ele><time>2026-04-27T08:27:15.999Z</time></trkpt><trkpt lat="41.00731208263835" lon="19.760839173044165"><ele>141.0</ele><time>2026-04-27T08:27:16.999Z</time></trkpt><trkpt lat="41.00717981161425" lon="19.760859461836223"><ele>144.5</ele><time>2026-04-27T08:27:17.999Z</time></trkpt><trkpt lat="41.007060181548724" lon="19.760890077769275"><ele>148.0</ele><time>2026-04-27T08:27:18.999Z</time></trkpt><trkpt lat="41.006940748892006" lon="19.760950969109174"><ele>148.0</ele><time>2026-04-27T08:27:19.999Z</time></trkpt><trkpt lat="41.006819629258025" lon="19.761026814718107"><ele>148.0</ele><time>2026-04-27T08:27:20.999Z</time></trkpt><trkpt lat="41.0066900102708" lon="19.76111145256839"><ele>148.0</ele><time>2026-04-27T08:27:21.999Z</time></trkpt><trkpt lat="41.006586610765055" lon="19.76118049113701"><ele>148.0</ele><time>2026-04-27T08:27:22.999Z</time></trkpt><trkpt lat="41.0064927095591" lon="19.761218121808817"><ele>146.20000000000002</ele><time>2026-04-27T08:27:23.999Z</time></trkpt><trkpt lat="41.006398096220636" lon="19.7612139375738"><ele>144.4</ele><time>2026-04-27T08:27:24.999Z</time></trkpt><trkpt lat="41.00630383862533" lon="19.761181261971643"><ele>142.60000000000002</ele><time>2026-04-27T08:27:25.999Z</time></trkpt><trkpt lat="41.00620731343354" lon="19.761144493941707"><ele>140.8</ele><time>2026-04-27T08:27:26.999Z</time></trkpt><trkpt lat="41.006102840940265" lon="19.761109935415632"><ele>139.0</ele><time>2026-04-27T08:27:27.999Z</time></trkpt><trkpt lat="41.00599596534646" lon="19.76107798854636"><ele>139.0</ele><time>2026-04-27T08:27:28.999Z</time></trkpt><trkpt lat="41.005877947087036" lon="19.761067565390388"><ele>139.0</ele><time>2026-04-27T08:27:29.999Z</time></trkpt><trkpt lat="41.00576651505221" lon="19.761054678604715"><ele>139.0</ele><time>2026-04-27T08:27:30.999Z</time></trkpt><trkpt lat="41.00565825560084" lon="19.761079621802434"><ele>139.0</ele><time>2026-04-27T08:27:31.999Z</time></trkpt><trkpt lat="41.0055702710087" lon="19.761145892437355"><ele>139.0</ele><time>2026-04-27T08:27:32.999Z</time></trkpt><trkpt lat="41.00548366504997" lon="19.761194882089022"><ele>140.75</ele><time>2026-04-27T08:27:33.999Z</time></trkpt><trkpt lat="41.00539134163565" lon="19.761245630778593"><ele>142.5</ele><time>2026-04-27T08:27:34.999Z</time></trkpt><trkpt lat="41.005282323122636" lon="19.761224484604465"><ele>144.25</ele><time>2026-04-27T08:27:35.999Z</time></trkpt><trkpt lat="41.005178155961616" lon="19.761191361541773"><ele>146.0</ele><time>2026-04-27T08:27:36.999Z</time></trkpt><trkpt lat="41.0050435636794" lon="19.761159309440114"><ele>146.5</ele><time>2026-04-27T08:27:37.999Z</time></trkpt><trkpt lat="41.004897216338705" lon="19.761124564833548"><ele>147.0</ele><time>2026-04-27T08:27:38.999Z</time></trkpt><trkpt lat="41.00476914602387" lon="19.761076523696364"><ele>147.5</ele><time>2026-04-27T08:27:39.999Z</time></trkpt><trkpt lat="41.004631755215605" lon="19.761022399519277"><ele>148.0</ele><time>2026-04-27T08:27:40.999Z</time></trkpt><trkpt lat="41.00449616858835" lon="19.760954073415423"><ele>151.5</ele><time>2026-04-27T08:27:41.999Z</time></trkpt><trkpt lat="41.00437410083305" lon="19.760887079865984"><ele>155.0</ele><time>2026-04-27T08:27:42.999Z</time></trkpt><trkpt lat="41.004263925918714" lon="19.76081735747517"><ele>158.5</ele><time>2026-04-27T08:27:43.999Z</time></trkpt><trkpt lat="41.004146870035875" lon="19.760749254912806"><ele>162.0</ele><time>2026-04-27T08:27:44.999Z</time></trkpt><trkpt lat="41.004034911621126" lon="19.760712875207663"><ele>164.33333333333334</ele><time>2026-04-27T08:27:45.999Z</time></trkpt><trkpt lat="41.00393154313951" lon="19.760679286718837"><ele>166.66666666666666</ele><time>2026-04-27T08:27:46.999Z</time></trkpt><trkpt lat="41.003833436270654" lon="19.760685301973748"><ele>169.0</ele><time>2026-04-27T08:27:47.999Z</time></trkpt><trkpt lat="41.003762836030994" lon="19.760683536964272"><ele>171.33333333333331</ele><time>2026-04-27T08:27:48.999Z</time></trkpt><trkpt lat="41.003700142365155" lon="19.7607674395794"><ele>173.66666666666666</ele><time>2026-04-27T08:27:49.999Z</time></trkpt><trkpt lat="41.003663889190726" lon="19.760867286768125"><ele>176.0</ele><time>2026-04-27T08:27:50.999Z</time></trkpt><trkpt lat="41.00363274378426" lon="19.76096544954341"><ele>176.83333333333331</ele><time>2026-04-27T08:27:51.999Z</time></trkpt><trkpt lat="41.00361634846541" lon="19.7610551099266"><ele>177.66666666666666</ele><time>2026-04-27T08:27:52.999Z</time></trkpt><trkpt lat="41.00357109740656" lon="19.76114086996735"><ele>178.5</ele><time>2026-04-27T08:27:53.999Z</time></trkpt><trkpt lat="41.003481897608225" lon="19.76115615699155"><ele>179.33333333333334</ele><time>2026-04-27T08:27:54.999Z</time></trkpt><trkpt lat="41.00340022244556" lon="19.76114155601338"><ele>180.16666666666669</ele><time>2026-04-27T08:27:55.999Z</time></trkpt><trkpt lat="41.00331113471284" lon="19.761190396138264"><ele>181.0</ele><time>2026-04-27T08:27:56.999Z</time></trkpt><trkpt lat="41.00322217299747" lon="19.761265930188834"><ele>181.0</ele><time>2026-04-27T08:27:57.999Z</time></trkpt><trkpt lat="41.00315012990621" lon="19.76131634483881"><ele>181.0</ele><time>2026-04-27T08:27:58.999Z</time></trkpt><trkpt lat="41.00309397219531" lon="19.761355863219496"><ele>181.0</ele><time>2026-04-27T08:27:59.999Z</time></trkpt><trkpt lat="41.003015669136786" lon="19.761291885147525"><ele>181.0</ele><time>2026-04-27T08:28:01.999Z</time></trkpt><trkpt lat="41.00296926127654" lon="19.761230856015345"><ele>181.0</ele><time>2026-04-27T08:28:02.999Z</time></trkpt><trkpt lat="41.00291479681474" lon="19.761148080420188"><ele>181.0</ele><time>2026-04-27T08:28:03.999Z</time></trkpt><trkpt lat="41.00285794934505" lon="19.761053796454686"><ele>182.5</ele><time>2026-04-27T08:28:04.999Z</time></trkpt><trkpt lat="41.00278949242628" lon="19.760947988741442"><ele>184.0</ele><time>2026-04-27T08:28:05.999Z</time></trkpt><trkpt lat="41.00274218696163" lon="19.76087449274233"><ele>185.5</ele><time>2026-04-27T08:28:07Z</time></trkpt><trkpt lat="41.00270521803009" lon="19.76075092030676"><ele>187.0</ele><time>2026-04-27T08:28:09Z</time></trkpt><trkpt lat="41.00271877928848" lon="19.76066576475523"><ele>188.5</ele><time>2026-04-27T08:28:10Z</time></trkpt><trkpt lat="41.002707908932415" lon="19.760542592911666"><ele>190.0</ele><time>2026-04-27T08:28:11Z</time></trkpt><trkpt lat="41.00269850750231" lon="19.76043606536129"><ele>190.0</ele><time>2026-04-27T08:28:12Z</time></trkpt><trkpt lat="41.00264437020825" lon="19.76035256294843"><ele>190.0</ele><time>2026-04-27T08:28:13Z</time></trkpt><trkpt lat="41.00262320696455" lon="19.760255900818315"><ele>190.0</ele><time>2026-04-27T08:28:14Z</time></trkpt><trkpt lat="41.00255263542726" lon="19.76019268288789"><ele>190.0</ele><time>2026-04-27T08:28:15Z</time></trkpt><trkpt lat="41.00247477403847" lon="19.760149859956012"><ele>190.0</ele><time>2026-04-27T08:28:16Z</time></trkpt><trkpt lat="41.00240110071839" lon="19.76010086653908"><ele>190.0</ele><time>2026-04-27T08:28:17Z</time></trkpt><trkpt lat="41.002314962732406" lon="19.760095671753533"><ele>192.4</ele><time>2026-04-27T08:28:18Z</time></trkpt><trkpt lat="41.002205315981634" lon="19.760107416625996"><ele>194.8</ele><time>2026-04-27T08:28:20Z</time></trkpt><trkpt lat="41.002121017541846" lon="19.760190085122805"><ele>197.2</ele><time>2026-04-27T08:28:22Z</time></trkpt><trkpt lat="41.00210533809748" lon="19.760312556799878"><ele>199.6</ele><time>2026-04-27T08:28:24Z</time></trkpt><trkpt lat="41.00210827035327" lon="19.76041524377148"><ele>202.0</ele><time>2026-04-27T08:28:25Z</time></trkpt><trkpt lat="41.00208449293491" lon="19.760526584314942"><ele>202.2</ele><time>2026-04-27T08:28:26Z</time></trkpt><trkpt lat="41.00202325645081" lon="19.76066471062839"><ele>202.39999999999998</ele><time>2026-04-27T08:28:28Z</time></trkpt><trkpt lat="41.00195270205641" lon="19.760706969409227"><ele>202.60000000000002</ele><time>2026-04-27T08:28:29Z</time></trkpt><trkpt lat="41.00188785010902" lon="19.76072387901707"><ele>202.8</ele><time>2026-04-27T08:28:30Z</time></trkpt><trkpt lat="41.00181980722297" lon="19.760670439705848"><ele>203.0</ele><time>2026-04-27T08:28:32Z</time></trkpt><trkpt lat="41.00180400201998" lon="19.760518100607428"><ele>203.0</ele><time>2026-04-27T08:28:34Z</time></trkpt><trkpt lat="41.00176567824737" lon="19.7604375668378"><ele>203.0</ele><time>2026-04-27T08:28:35Z</time></trkpt><trkpt lat="41.00173852125515" lon="19.7603604411408"><ele>203.0</ele><time>2026-04-27T08:28:36Z</time></trkpt><trkpt lat="41.00170026114529" lon="19.76028877275764"><ele>203.0</ele><time>2026-04-27T08:28:37Z</time></trkpt><trkpt lat="41.001654959098005" lon="19.760213004978"><ele>203.0</ele><time>2026-04-27T08:28:38Z</time></trkpt><trkpt lat="41.00160901155696" lon="19.76012929141547"><ele>203.0</ele><time>2026-04-27T08:28:39Z</time></trkpt><trkpt lat="41.001563449385365" lon="19.760045225551032"><ele>203.0</ele><time>2026-04-27T08:28:40Z</time></trkpt><trkpt lat="41.001516386801654" lon="19.75996468920582"><ele>206.57142857142856</ele><time>2026-04-27T08:28:41Z</time></trkpt><trkpt lat="41.00147035368519" lon="19.759887878183914"><ele>210.14285714285714</ele><time>2026-04-27T08:28:42Z</time></trkpt><trkpt lat="41.001437999589186" lon="19.759797515217524"><ele>213.71428571428572</ele><time>2026-04-27T08:28:43Z</time></trkpt><trkpt lat="41.0013884047131" lon="19.759727124070007"><ele>217.28571428571428</ele><time>2026-04-27T08:28:44Z</time></trkpt><trkpt lat="41.00134399609402" lon="19.759663089463217"><ele>220.85714285714283</ele><time>2026-04-27T08:28:45Z</time></trkpt><trkpt lat="41.00128967964333" lon="19.759608627449268"><ele>224.42857142857142</ele><time>2026-04-27T08:28:46Z</time></trkpt><trkpt lat="41.0012304579399" lon="19.759576950225334"><ele>228.0</ele><time>2026-04-27T08:28:47Z</time></trkpt><trkpt lat="41.001139609810984" lon="19.759451984951163"><ele>228.0</ele><time>2026-04-27T08:28:48.999Z</time></trkpt><trkpt lat="41.00107342332512" lon="19.75939599060496"><ele>228.0</ele><time>2026-04-27T08:28:49.999Z</time></trkpt><trkpt lat="41.00101528785802" lon="19.759305538807403"><ele>228.0</ele><time>2026-04-27T08:28:50.999Z</time></trkpt><trkpt lat="41.00096271878027" lon="19.759197720089155"><ele>228.0</ele><time>2026-04-27T08:28:51.999Z</time></trkpt><trkpt lat="41.00091298468432" lon="19.75907828803737"><ele>228.0</ele><time>2026-04-27T08:28:52.999Z</time></trkpt><trkpt lat="41.00085940066348" lon="19.75894835979765"><ele>229.66666666666666</ele><time>2026-04-27T08:28:53.999Z</time></trkpt><trkpt lat="41.00080753182284" lon="19.75882388570095"><ele>231.33333333333331</ele><time>2026-04-27T08:28:54.999Z</time></trkpt><trkpt lat="41.00076013380258" lon="19.75873318050905"><ele>233.0</ele><time>2026-04-27T08:28:55.999Z</time></trkpt><trkpt lat="41.000708017234146" lon="19.758660693346343"><ele>234.66666666666666</ele><time>2026-04-27T08:28:56.999Z</time></trkpt><trkpt lat="41.00064908337793" lon="19.758600100420797"><ele>236.33333333333331</ele><time>2026-04-27T08:28:57.999Z</time></trkpt><trkpt lat="41.00058796191801" lon="19.75853151715602"><ele>238.0</ele><time>2026-04-27T08:28:58.999Z</time></trkpt><trkpt lat="41.000509876930984" lon="19.758462943107126"><ele>233.4</ele><time>2026-04-27T08:28:59.999Z</time></trkpt><trkpt lat="41.00042773938007" lon="19.758387796720445"><ele>228.8</ele><time>2026-04-27T08:29:00.999Z</time></trkpt><trkpt lat="41.00034060914484" lon="19.758305297747302"><ele>224.2</ele><time>2026-04-27T08:29:01.999Z</time></trkpt><trkpt lat="41.000241997731145" lon="19.758229513579703"><ele>219.6</ele><time>2026-04-27T08:29:02.999Z</time></trkpt><trkpt lat="41.00013624882286" lon="19.75815201880714"><ele>215.0</ele><time>2026-04-27T08:29:03.999Z</time></trkpt><trkpt lat="41.00003335452204" lon="19.758061547725056"><ele>215.0</ele><time>2026-04-27T08:29:04.999Z</time></trkpt><trkpt lat="40.999958624812784" lon="19.757935777921112"><ele>215.0</ele><time>2026-04-27T08:29:05.999Z</time></trkpt><trkpt lat="40.99986560257462" lon="19.7578166349511"><ele>215.0</ele><time>2026-04-27T08:29:06.999Z</time></trkpt><trkpt lat="40.99977905272486" lon="19.75769023583206"><ele>215.0</ele><time>2026-04-27T08:29:07.999Z</time></trkpt><trkpt lat="40.99969416882203" lon="19.757581574384062"><ele>212.0</ele><time>2026-04-27T08:29:08.999Z</time></trkpt><trkpt lat="40.99962607156946" lon="19.757446916963794"><ele>209.0</ele><time>2026-04-27T08:29:09.999Z</time></trkpt><trkpt lat="40.99956529072211" lon="19.757288446919993"><ele>206.0</ele><time>2026-04-27T08:29:10.999Z</time></trkpt><trkpt lat="40.99951608076514" lon="19.757125638872566"><ele>203.0</ele><time>2026-04-27T08:29:11.999Z</time></trkpt><trkpt lat="40.99947661254576" lon="19.756981433315158"><ele>201.0</ele><time>2026-04-27T08:29:12.999Z</time></trkpt><trkpt lat="40.999439430394006" lon="19.75685540382268"><ele>199.0</ele><time>2026-04-27T08:29:13.999Z</time></trkpt><trkpt lat="40.999399389151094" lon="19.75672190348061"><ele>197.0</ele><time>2026-04-27T08:29:14.999Z</time></trkpt><trkpt lat="40.99936206983184" lon="19.7565797468596"><ele>195.0</ele><time>2026-04-27T08:29:15.999Z</time></trkpt><trkpt lat="40.99933562082846" lon="19.756430730980668"><ele>193.0</ele><time>2026-04-27T08:29:16.999Z</time></trkpt><trkpt lat="40.99932404996592" lon="19.75627285241499"><ele>193.0</ele><time>2026-04-27T08:29:17.999Z</time></trkpt><trkpt lat="40.99932515405925" lon="19.756102010098566"><ele>193.0</ele><time>2026-04-27T08:29:18.999Z</time></trkpt><trkpt lat="40.999333221015156" lon="19.755917695168748"><ele>193.0</ele><time>2026-04-27T08:29:19.999Z</time></trkpt><trkpt lat="40.999339774452885" lon="19.755732233983263"><ele>193.0</ele><time>2026-04-27T08:29:20.999Z</time></trkpt><trkpt lat="40.99933745197461" lon="19.75556488412692"><ele>192.5</ele><time>2026-04-27T08:29:21.999Z</time></trkpt><trkpt lat="40.999317314340296" lon="19.755410327683027"><ele>192.0</ele><time>2026-04-27T08:29:22.999Z</time></trkpt><trkpt lat="40.9992903997981" lon="19.755263970289526"><ele>191.5</ele><time>2026-04-27T08:29:23.999Z</time></trkpt><trkpt lat="40.99925864747251" lon="19.755121206041984"><ele>191.0</ele><time>2026-04-27T08:29:24.999Z</time></trkpt><trkpt lat="40.9992252852749" lon="19.754972154915535"><ele>191.0</ele><time>2026-04-27T08:29:25.999Z</time></trkpt><trkpt lat="40.99919288554963" lon="19.754819193967233"><ele>191.0</ele><time>2026-04-27T08:29:26.999Z</time></trkpt><trkpt lat="40.999167669873856" lon="19.754657984827247"><ele>191.0</ele><time>2026-04-27T08:29:27.999Z</time></trkpt><trkpt lat="40.99915038360565" lon="19.754519166966684"><ele>191.0</ele><time>2026-04-27T08:29:28.999Z</time></trkpt><trkpt lat="40.999133091816866" lon="19.75441277815784"><ele>191.0</ele><time>2026-04-27T08:29:29.999Z</time></trkpt><trkpt lat="40.99911500670832" lon="19.75431894456354"><ele>193.60000000000002</ele><time>2026-04-27T08:29:30.999Z</time></trkpt><trkpt lat="40.99908700941528" lon="19.75423171953864"><ele>196.2</ele><time>2026-04-27T08:29:31.999Z</time></trkpt><trkpt lat="40.9990390634495" lon="19.75414821954548"><ele>198.8</ele><time>2026-04-27T08:29:32.999Z</time></trkpt><trkpt lat="40.99897115190711" lon="19.754066971681823"><ele>201.39999999999998</ele><time>2026-04-27T08:29:33.999Z</time></trkpt><trkpt lat="40.99887992910609" lon="19.753979703856793"><ele>204.0</ele><time>2026-04-27T08:29:34.999Z</time></trkpt><trkpt lat="40.99879521948103" lon="19.753867840361874"><ele>204.0</ele><time>2026-04-27T08:29:35.999Z</time></trkpt><trkpt lat="40.99869294812149" lon="19.75376589913406"><ele>204.0</ele><time>2026-04-27T08:29:36.999Z</time></trkpt><trkpt lat="40.998576402750636" lon="19.753696477990466"><ele>204.0</ele><time>2026-04-27T08:29:37.999Z</time></trkpt><trkpt lat="40.998485428193604" lon="19.753601433627633"><ele>204.0</ele><time>2026-04-27T08:29:38.999Z</time></trkpt><trkpt lat="40.998413885525686" lon="19.75351160767094"><ele>204.0</ele><time>2026-04-27T08:29:39.999Z</time></trkpt><trkpt lat="40.99837688440626" lon="19.753400158557277"><ele>204.0</ele><time>2026-04-27T08:29:40.999Z</time></trkpt><trkpt lat="40.998320290526046" lon="19.753293630383773"><ele>204.0</ele><time>2026-04-27T08:29:41.999Z</time></trkpt><trkpt lat="40.998303225797635" lon="19.753163192102377"><ele>204.0</ele><time>2026-04-27T08:29:42.999Z</time></trkpt><trkpt lat="40.998266303718765" lon="19.75303914807744"><ele>204.0</ele><time>2026-04-27T08:29:43.999Z</time></trkpt><trkpt lat="40.99824058382025" lon="19.752907303604875"><ele>204.0</ele><time>2026-04-27T08:29:44.999Z</time></trkpt><trkpt lat="40.998232577467995" lon="19.752770244805014"><ele>204.0</ele><time>2026-04-27T08:29:45.999Z</time></trkpt><trkpt lat="40.998196955557574" lon="19.752645392464274"><ele>204.0</ele><time>2026-04-27T08:29:46.999Z</time></trkpt><trkpt lat="40.998177227791786" lon="19.75249124993059"><ele>204.0</ele><time>2026-04-27T08:29:47.999Z</time></trkpt><trkpt lat="40.99816085762635" lon="19.752320633773497"><ele>202.0</ele><time>2026-04-27T08:29:48.999Z</time></trkpt><trkpt lat="40.998138920149025" lon="19.75215835962398"><ele>200.0</ele><time>2026-04-27T08:29:49.999Z</time></trkpt><trkpt lat="40.9981185387657" lon="19.752007596053733"><ele>198.0</ele><time>2026-04-27T08:29:50.999Z</time></trkpt><trkpt lat="40.99811489366207" lon="19.75186871219241"><ele>196.0</ele><time>2026-04-27T08:29:51.999Z</time></trkpt><trkpt lat="40.998111104566135" lon="19.751728546221408"><ele>194.0</ele><time>2026-04-27T08:29:52.999Z</time></trkpt><trkpt lat="40.99810896611012" lon="19.7515936796078"><ele>192.0</ele><time>2026-04-27T08:29:53.999Z</time></trkpt><trkpt lat="40.998092822600654" lon="19.751457155857146"><ele>190.0</ele><time>2026-04-27T08:29:54.999Z</time></trkpt><trkpt lat="40.998069976964324" lon="19.751334771149132"><ele>188.0</ele><time>2026-04-27T08:29:55.999Z</time></trkpt><trkpt lat="40.9980237861055" lon="19.751213671961203"><ele>186.0</ele><time>2026-04-27T08:29:56.999Z</time></trkpt><trkpt lat="40.997988027809065" lon="19.751088842681202"><ele>185.5</ele><time>2026-04-27T08:29:57.999Z</time></trkpt><trkpt lat="40.997948909216305" lon="19.750982369134473"><ele>185.0</ele><time>2026-04-27T08:29:58.999Z</time></trkpt><trkpt lat="40.99790915044708" lon="19.750883926512973"><ele>184.5</ele><time>2026-04-27T08:29:59.999Z</time></trkpt><trkpt lat="40.997874675848294" lon="19.750795196705738"><ele>184.0</ele><time>2026-04-27T08:30:00.999Z</time></trkpt><trkpt lat="40.997854178087714" lon="19.750705100316853"><ele>183.5</ele><time>2026-04-27T08:30:01.999Z</time></trkpt><trkpt lat="40.99787285635857" lon="19.750611276386195"><ele>183.0</ele><time>2026-04-27T08:30:02.999Z</time></trkpt><trkpt lat="40.99789777535522" lon="19.7505226301414"><ele>183.0</ele><time>2026-04-27T08:30:03.999Z</time></trkpt><trkpt lat="40.99792526742821" lon="19.75040471809567"><ele>183.0</ele><time>2026-04-27T08:30:04.999Z</time></trkpt><trkpt lat="40.99793769684978" lon="19.75026291337292"><ele>183.0</ele><time>2026-04-27T08:30:05.999Z</time></trkpt><trkpt lat="40.997932028874175" lon="19.750107919842865"><ele>183.0</ele><time>2026-04-27T08:30:06.999Z</time></trkpt><trkpt lat="40.99793869419562" lon="19.74993754765713"><ele>183.0</ele><time>2026-04-27T08:30:07.999Z</time></trkpt><trkpt lat="40.997941316800066" lon="19.749748927578384"><ele>183.0</ele><time>2026-04-27T08:30:08.999Z</time></trkpt><trkpt lat="40.997935813800446" lon="19.749553250080744"><ele>183.0</ele><time>2026-04-27T08:30:09.999Z</time></trkpt><trkpt lat="40.997948110346" lon="19.7493438591913"><ele>183.0</ele><time>2026-04-27T08:30:10.999Z</time></trkpt><trkpt lat="40.99793260541876" lon="19.749155113687735"><ele>183.0</ele><time>2026-04-27T08:30:11.999Z</time></trkpt><trkpt lat="40.99791854935938" lon="19.748981049702152"><ele>183.0</ele><time>2026-04-27T08:30:13Z</time></trkpt><trkpt lat="40.997893212078985" lon="19.748809916627618"><ele>183.0</ele><time>2026-04-27T08:30:14Z</time></trkpt><trkpt lat="40.99791195299803" lon="19.748642060849257"><ele>183.0</ele><time>2026-04-27T08:30:15Z</time></trkpt><trkpt lat="40.99791646321674" lon="19.748473173408545"><ele>183.0</ele><time>2026-04-27T08:30:16Z</time></trkpt><trkpt lat="40.99791426575782" lon="19.74830359914624"><ele>183.0</ele><time>2026-04-27T08:30:17Z</time></trkpt><trkpt lat="40.997908650831306" lon="19.74814701572619"><ele>183.0</ele><time>2026-04-27T08:30:18Z</time></trkpt><trkpt lat="40.997903290882256" lon="19.748004259028388"><ele>183.0</ele><time>2026-04-27T08:30:19Z</time></trkpt><trkpt lat="40.997891663958" lon="19.747869858292006"><ele>183.0</ele><time>2026-04-27T08:30:20Z</time></trkpt><trkpt lat="40.99787560434706" lon="19.747774831778276"><ele>183.0</ele><time>2026-04-27T08:30:21Z</time></trkpt><trkpt lat="40.99785163908405" lon="19.747633025491403"><ele>183.0</ele><time>2026-04-27T08:30:23Z</time></trkpt><trkpt lat="40.997764420649375" lon="19.747546008518096"><ele>183.0</ele><time>2026-04-27T08:30:25Z</time></trkpt><trkpt lat="40.99771359146243" lon="19.747487063031336"><ele>183.0</ele><time>2026-04-27T08:30:26Z</time></trkpt><trkpt lat="40.997655176265184" lon="19.747419569443135"><ele>183.0</ele><time>2026-04-27T08:30:27Z</time></trkpt><trkpt lat="40.99758475381826" lon="19.74734433483388"><ele>183.2</ele><time>2026-04-27T08:30:28Z</time></trkpt><trkpt lat="40.9975046449128" lon="19.747268395499443"><ele>183.4</ele><time>2026-04-27T08:30:29Z</time></trkpt><trkpt lat="40.99741675373836" lon="19.74718852388859"><ele>183.6</ele><time>2026-04-27T08:30:30Z</time></trkpt><trkpt lat="40.997327227512045" lon="19.74710113194648"><ele>183.79999999999998</ele><time>2026-04-27T08:30:31Z</time></trkpt><trkpt lat="40.997257621145906" lon="19.746979745420365"><ele>184.0</ele><time>2026-04-27T08:30:32Z</time></trkpt><trkpt lat="40.99717651356468" lon="19.746866896165233"><ele>186.0</ele><time>2026-04-27T08:30:33Z</time></trkpt><trkpt lat="40.99708488984782" lon="19.746770658083193"><ele>188.0</ele><time>2026-04-27T08:30:34Z</time></trkpt><trkpt lat="40.997033038748825" lon="19.746632648734156"><ele>190.0</ele><time>2026-04-27T08:30:35Z</time></trkpt><trkpt lat="40.996975390880955" lon="19.74650086896543"><ele>192.0</ele><time>2026-04-27T08:30:36Z</time></trkpt><trkpt lat="40.99692348758655" lon="19.746370206174152"><ele>192.0</ele><time>2026-04-27T08:30:37Z</time></trkpt><trkpt lat="40.9968721547967" lon="19.74622882556141"><ele>192.0</ele><time>2026-04-27T08:30:38Z</time></trkpt><trkpt lat="40.99681048135552" lon="19.74608142643775"><ele>192.0</ele><time>2026-04-27T08:30:39Z</time></trkpt><trkpt lat="40.99676497392007" lon="19.74591055024882"><ele>192.0</ele><time>2026-04-27T08:30:40Z</time></trkpt><trkpt lat="40.99673011381655" lon="19.745730766460365"><ele>191.5</ele><time>2026-04-27T08:30:41Z</time></trkpt><trkpt lat="40.99667246138429" lon="19.745552268573675"><ele>191.0</ele><time>2026-04-27T08:30:42Z</time></trkpt><trkpt lat="40.99661533418521" lon="19.745387231617524"><ele>190.5</ele><time>2026-04-27T08:30:43Z</time></trkpt><trkpt lat="40.99656987917559" lon="19.74522945616747"><ele>190.0</ele><time>2026-04-27T08:30:44Z</time></trkpt><trkpt lat="40.99652534828807" lon="19.74507417431498"><ele>188.75</ele><time>2026-04-27T08:30:45Z</time></trkpt><trkpt lat="40.99647726170578" lon="19.74490469559971"><ele>187.5</ele><time>2026-04-27T08:30:46Z</time></trkpt><trkpt lat="40.996437868640854" lon="19.744728763770432"><ele>186.25</ele><time>2026-04-27T08:30:47Z</time></trkpt><trkpt lat="40.99640908884184" lon="19.744565124532297"><ele>185.0</ele><time>2026-04-27T08:30:48Z</time></trkpt><trkpt lat="40.99636865604138" lon="19.744417096639236"><ele>184.0</ele><time>2026-04-27T08:30:49Z</time></trkpt><trkpt lat="40.99632851403537" lon="19.744278909481732"><ele>183.0</ele><time>2026-04-27T08:30:50Z</time></trkpt><trkpt lat="40.99622782213412" lon="19.744161331726147"><ele>182.0</ele><time>2026-04-27T08:30:51Z</time></trkpt><trkpt lat="40.996163216877655" lon="19.744016582988962"><ele>181.0</ele><time>2026-04-27T08:30:52Z</time></trkpt><trkpt lat="40.99606193168518" lon="19.743902781158713"><ele>181.0</ele><time>2026-04-27T08:30:52.999Z</time></trkpt><trkpt lat="40.99597199710444" lon="19.74377380749972"><ele>181.0</ele><time>2026-04-27T08:30:53.999Z</time></trkpt><trkpt lat="40.99588811146025" lon="19.743662116690597"><ele>181.0</ele><time>2026-04-27T08:30:54.999Z</time></trkpt><trkpt lat="40.99581159525345" lon="19.74355084251749"><ele>181.0</ele><time>2026-04-27T08:30:55.999Z</time></trkpt><trkpt lat="40.99570525061043" lon="19.74349366960225"><ele>180.75</ele><time>2026-04-27T08:30:56.999Z</time></trkpt><trkpt lat="40.99560283430984" lon="19.74343229154851"><ele>180.5</ele><time>2026-04-27T08:30:57.999Z</time></trkpt><trkpt lat="40.99549438828543" lon="19.74337145799733"><ele>180.25</ele><time>2026-04-27T08:30:58.999Z</time></trkpt><trkpt lat="40.99538329244464" lon="19.743297150281677"><ele>180.0</ele><time>2026-04-27T08:30:59.999Z</time></trkpt><trkpt lat="40.99527056908025" lon="19.743205196482553"><ele>180.0</ele><time>2026-04-27T08:31:00.999Z</time></trkpt><trkpt lat="40.995155259759194" lon="19.74308778594171"><ele>180.0</ele><time>2026-04-27T08:31:01.999Z</time></trkpt><trkpt lat="40.99504677106106" lon="19.742963988852434"><ele>180.0</ele><time>2026-04-27T08:31:02.999Z</time></trkpt><trkpt lat="40.994951458779305" lon="19.742842672725963"><ele>180.0</ele><time>2026-04-27T08:31:03.999Z</time></trkpt><trkpt lat="40.99485891274223" lon="19.74270451993498"><ele>179.25</ele><time>2026-04-27T08:31:04.999Z</time></trkpt><trkpt lat="40.99477675344596" lon="19.74256917952075"><ele>178.5</ele><time>2026-04-27T08:31:05.999Z</time></trkpt><trkpt lat="40.99471103762879" lon="19.7424450880816"><ele>177.75</ele><time>2026-04-27T08:31:06.999Z</time></trkpt><trkpt lat="40.994655120537665" lon="19.74231840961896"><ele>177.0</ele><time>2026-04-27T08:31:07.999Z</time></trkpt><trkpt lat="40.99464485015596" lon="19.74217466041243"><ele>177.0</ele><time>2026-04-27T08:31:08.999Z</time></trkpt><trkpt lat="40.994645884410076" lon="19.742045688200914"><ele>177.0</ele><time>2026-04-27T08:31:09.999Z</time></trkpt><trkpt lat="40.99465769217179" lon="19.74190629883287"><ele>177.0</ele><time>2026-04-27T08:31:10.999Z</time></trkpt><trkpt lat="40.994679521644876" lon="19.741749229312237"><ele>177.0</ele><time>2026-04-27T08:31:11.999Z</time></trkpt><trkpt lat="40.99470495112184" lon="19.74157988437043"><ele>176.6</ele><time>2026-04-27T08:31:12.999Z</time></trkpt><trkpt lat="40.99473143524356" lon="19.741408627410625"><ele>176.2</ele><time>2026-04-27T08:31:13.999Z</time></trkpt><trkpt lat="40.9947684082403" lon="19.741267881255517"><ele>175.8</ele><time>2026-04-27T08:31:14.999Z</time></trkpt><trkpt lat="40.99480665104358" lon="19.74113858535165"><ele>175.4</ele><time>2026-04-27T08:31:15.999Z</time></trkpt><trkpt lat="40.99484310516964" lon="19.741025213464567"><ele>175.0</ele><time>2026-04-27T08:31:16.999Z</time></trkpt><trkpt lat="40.99488031138948" lon="19.740917381848604"><ele>174.5</ele><time>2026-04-27T08:31:17.999Z</time></trkpt><trkpt lat="40.99492878787649" lon="19.74077859496669"><ele>174.0</ele><time>2026-04-27T08:31:18.999Z</time></trkpt><trkpt lat="40.99498666217272" lon="19.740614135486737"><ele>173.5</ele><time>2026-04-27T08:31:19.999Z</time></trkpt><trkpt lat="40.9950380261598" lon="19.740468592430332"><ele>173.0</ele><time>2026-04-27T08:31:20.999Z</time></trkpt><trkpt lat="40.99508170750416" lon="19.74033819845593"><ele>172.2</ele><time>2026-04-27T08:31:21.999Z</time></trkpt><trkpt lat="40.995107644705065" lon="19.740204804117347"><ele>171.4</ele><time>2026-04-27T08:31:22.999Z</time></trkpt><trkpt lat="40.9951519570174" lon="19.7400872912654"><ele>170.6</ele><time>2026-04-27T08:31:23.999Z</time></trkpt><trkpt lat="40.995189838385926" lon="19.7399762473746"><ele>169.79999999999998</ele><time>2026-04-27T08:31:24.999Z</time></trkpt><trkpt lat="40.99522500968806" lon="19.739873464113952"><ele>169.0</ele><time>2026-04-27T08:31:25.999Z</time></trkpt><trkpt lat="40.995253163023875" lon="19.739777377134633"><ele>169.0</ele><time>2026-04-27T08:31:26.999Z</time></trkpt><trkpt lat="40.995280447102765" lon="19.739685698818757"><ele>169.0</ele><time>2026-04-27T08:31:27.999Z</time></trkpt><trkpt lat="40.99531597652911" lon="19.73960583675514"><ele>169.0</ele><time>2026-04-27T08:31:28.999Z</time></trkpt><trkpt lat="40.995330943359896" lon="19.739508629969023"><ele>169.0</ele><time>2026-04-27T08:31:29.999Z</time></trkpt><trkpt lat="40.995343331282065" lon="19.739393773442234"><ele>169.0</ele><time>2026-04-27T08:31:30.999Z</time></trkpt><trkpt lat="40.99531342368847" lon="19.739257731260683"><ele>169.0</ele><time>2026-04-27T08:31:31.999Z</time></trkpt><trkpt lat="40.99525748509737" lon="19.739136925946994"><ele>168.83333333333334</ele><time>2026-04-27T08:31:32.999Z</time></trkpt><trkpt lat="40.99523162450369" lon="19.739015280436693"><ele>168.66666666666669</ele><time>2026-04-27T08:31:33.999Z</time></trkpt><trkpt lat="40.99519595081715" lon="19.73890871033933"><ele>168.5</ele><time>2026-04-27T08:31:34.999Z</time></trkpt><trkpt lat="40.995160871390866" lon="19.738803915370116"><ele>168.33333333333334</ele><time>2026-04-27T08:31:35.999Z</time></trkpt><trkpt lat="40.99512656246761" lon="19.73870038538971"><ele>168.16666666666666</ele><time>2026-04-27T08:31:36.999Z</time></trkpt><trkpt lat="40.99509309345576" lon="19.738599081461796"><ele>168.0</ele><time>2026-04-27T08:31:37.999Z</time></trkpt><trkpt lat="40.99505352077082" lon="19.738499902222795"><ele>167.4</ele><time>2026-04-27T08:31:38.999Z</time></trkpt><trkpt lat="40.99500298474681" lon="19.738414557651748"><ele>166.8</ele><time>2026-04-27T08:31:39.999Z</time></trkpt><trkpt lat="40.99496044241021" lon="19.73831739538376"><ele>166.2</ele><time>2026-04-27T08:31:40.999Z</time></trkpt><trkpt lat="40.99489634143202" lon="19.738221872391"><ele>165.6</ele><time>2026-04-27T08:31:41.999Z</time></trkpt><trkpt lat="40.99481648059893" lon="19.738123887257878"><ele>165.0</ele><time>2026-04-27T08:31:42.999Z</time></trkpt><trkpt lat="40.99472714036012" lon="19.738024914177267"><ele>165.0</ele><time>2026-04-27T08:31:43.999Z</time></trkpt><trkpt lat="40.99462731256585" lon="19.73791449624221"><ele>165.0</ele><time>2026-04-27T08:31:44.999Z</time></trkpt><trkpt lat="40.99451964523506" lon="19.73779385280078"><ele>165.0</ele><time>2026-04-27T08:31:45.999Z</time></trkpt><trkpt lat="40.99440165450333" lon="19.737665985676227"><ele>165.0</ele><time>2026-04-27T08:31:46.999Z</time></trkpt><trkpt lat="40.99429882592506" lon="19.737527970747564"><ele>164.75</ele><time>2026-04-27T08:31:47.999Z</time></trkpt><trkpt lat="40.994178989890685" lon="19.7374243873733"><ele>164.5</ele><time>2026-04-27T08:31:48.999Z</time></trkpt><trkpt lat="40.994053390376" lon="19.73733029481027"><ele>164.25</ele><time>2026-04-27T08:31:49.999Z</time></trkpt><trkpt lat="40.993912138489584" lon="19.737260654165077"><ele>164.0</ele><time>2026-04-27T08:31:50.999Z</time></trkpt><trkpt lat="40.993767265301315" lon="19.737208636822803"><ele>164.0</ele><time>2026-04-27T08:31:51.999Z</time></trkpt><trkpt lat="40.993617134004154" lon="19.7371884077578"><ele>164.0</ele><time>2026-04-27T08:31:52.999Z</time></trkpt><trkpt lat="40.99348857193406" lon="19.7371362861624"><ele>164.0</ele><time>2026-04-27T08:31:53.999Z</time></trkpt><trkpt lat="40.99337797860999" lon="19.737033971290693"><ele>164.0</ele><time>2026-04-27T08:31:54.999Z</time></trkpt><trkpt lat="40.99326470135299" lon="19.736926931875807"><ele>165.5</ele><time>2026-04-27T08:31:55.999Z</time></trkpt><trkpt lat="40.993153800138806" lon="19.736799863581517"><ele>167.0</ele><time>2026-04-27T08:31:56.999Z</time></trkpt><trkpt lat="40.993041139162386" lon="19.73666918447621"><ele>168.5</ele><time>2026-04-27T08:31:57.999Z</time></trkpt><trkpt lat="40.99292419210861" lon="19.736548384385387"><ele>170.0</ele><time>2026-04-27T08:31:58.999Z</time></trkpt><trkpt lat="40.99283042277719" lon="19.736422148799978"><ele>170.0</ele><time>2026-04-27T08:31:59.999Z</time></trkpt><trkpt lat="40.99272359880753" lon="19.736293195114065"><ele>170.0</ele><time>2026-04-27T08:32:00.999Z</time></trkpt><trkpt lat="40.992617641647044" lon="19.736168839002683"><ele>170.0</ele><time>2026-04-27T08:32:01.999Z</time></trkpt><trkpt lat="40.99253252526805" lon="19.736064143416687"><ele>170.0</ele><time>2026-04-27T08:32:02.999Z</time></trkpt><trkpt lat="40.992454110167444" lon="19.73596590216351"><ele>170.8</ele><time>2026-04-27T08:32:03.999Z</time></trkpt><trkpt lat="40.992375976526326" lon="19.73588155646961"><ele>171.6</ele><time>2026-04-27T08:32:04.999Z</time></trkpt><trkpt lat="40.99229046986543" lon="19.735804167379364"><ele>172.39999999999998</ele><time>2026-04-27T08:32:05.999Z</time></trkpt><trkpt lat="40.99220914252334" lon="19.735738417526456"><ele>173.2</ele><time>2026-04-27T08:32:06.999Z</time></trkpt><trkpt lat="40.992123580782064" lon="19.73567835903903"><ele>174.0</ele><time>2026-04-27T08:32:07.999Z</time></trkpt><trkpt lat="40.99205095901783" lon="19.735605697563113"><ele>174.0</ele><time>2026-04-27T08:32:08.999Z</time></trkpt><trkpt lat="40.99196953052067" lon="19.735572607192154"><ele>174.0</ele><time>2026-04-27T08:32:09.999Z</time></trkpt><trkpt lat="40.99188502111105" lon="19.73554967537362"><ele>174.0</ele><time>2026-04-27T08:32:10.999Z</time></trkpt><trkpt lat="40.99180496320876" lon="19.735493204226582"><ele>174.0</ele><time>2026-04-27T08:32:11.999Z</time></trkpt><trkpt lat="40.99171121254153" lon="19.73544431518636"><ele>174.0</ele><time>2026-04-27T08:32:12.999Z</time></trkpt><trkpt lat="40.99161775707316" lon="19.735395580025248"><ele>174.33333333333334</ele><time>2026-04-27T08:32:13.999Z</time></trkpt><trkpt lat="40.99153336900125" lon="19.735352072634527"><ele>174.66666666666666</ele><time>2026-04-27T08:32:14.999Z</time></trkpt><trkpt lat="40.99145373271593" lon="19.735330820250535"><ele>175.0</ele><time>2026-04-27T08:32:15.999Z</time></trkpt><trkpt lat="40.99141339551691" lon="19.735234391177336"><ele>175.33333333333331</ele><time>2026-04-27T08:32:16.999Z</time></trkpt><trkpt lat="40.99136367104278" lon="19.735142134460858"><ele>175.66666666666666</ele><time>2026-04-27T08:32:17.999Z</time></trkpt><trkpt lat="40.99130435617802" lon="19.73505251868801"><ele>176.0</ele><time>2026-04-27T08:32:19Z</time></trkpt><trkpt lat="40.991241725091896" lon="19.734930857840666"><ele>176.0</ele><time>2026-04-27T08:32:20Z</time></trkpt><trkpt lat="40.991164243902695" lon="19.734817756331704"><ele>176.0</ele><time>2026-04-27T08:32:21Z</time></trkpt><trkpt lat="40.9910720632164" lon="19.73472567624092"><ele>176.0</ele><time>2026-04-27T08:32:22Z</time></trkpt><trkpt lat="40.99097591479415" lon="19.734654377226132"><ele>176.0</ele><time>2026-04-27T08:32:23Z</time></trkpt><trkpt lat="40.990867077439695" lon="19.73460413379464"><ele>175.75</ele><time>2026-04-27T08:32:23.999Z</time></trkpt><trkpt lat="40.990757151456975" lon="19.734545264851356"><ele>175.5</ele><time>2026-04-27T08:32:24.999Z</time></trkpt><trkpt lat="40.99064684326112" lon="19.734477982097207"><ele>175.25</ele><time>2026-04-27T08:32:25.999Z</time></trkpt><trkpt lat="40.99053637034374" lon="19.734410439741296"><ele>175.0</ele><time>2026-04-27T08:32:26.999Z</time></trkpt><trkpt lat="40.990427596274536" lon="19.73433494408895"><ele>176.75</ele><time>2026-04-27T08:32:28Z</time></trkpt><trkpt lat="40.99034039687356" lon="19.734272751747373"><ele>178.5</ele><time>2026-04-27T08:32:29Z</time></trkpt><trkpt lat="40.99024856236704" lon="19.73421036507326"><ele>180.25</ele><time>2026-04-27T08:32:30Z</time></trkpt><trkpt lat="40.99013839748506" lon="19.734148033267385"><ele>182.0</ele><time>2026-04-27T08:32:31Z</time></trkpt><trkpt lat="40.99002514189557" lon="19.734054316724826"><ele>180.75</ele><time>2026-04-27T08:32:32Z</time></trkpt><trkpt lat="40.9898948209556" lon="19.734005490697797"><ele>179.5</ele><time>2026-04-27T08:32:33Z</time></trkpt><trkpt lat="40.98976608857036" lon="19.733952179403463"><ele>178.25</ele><time>2026-04-27T08:32:34Z</time></trkpt><trkpt lat="40.98962811732906" lon="19.73391098060542"><ele>177.0</ele><time>2026-04-27T08:32:35Z</time></trkpt><trkpt lat="40.98950069952332" lon="19.733872365249542"><ele>177.0</ele><time>2026-04-27T08:32:36Z</time></trkpt><trkpt lat="40.98939400731597" lon="19.73384299747416"><ele>177.0</ele><time>2026-04-27T08:32:37Z</time></trkpt><trkpt lat="40.989293127272994" lon="19.733800203970656"><ele>177.0</ele><time>2026-04-27T08:32:38Z</time></trkpt><trkpt lat="40.98921004574554" lon="19.733714922918605"><ele>177.0</ele><time>2026-04-27T08:32:39Z</time></trkpt><trkpt lat="40.98913028868965" lon="19.73363669448403"><ele>177.0</ele><time>2026-04-27T08:32:40Z</time></trkpt><trkpt lat="40.98904519730149" lon="19.73356761291091"><ele>180.0</ele><time>2026-04-27T08:32:41Z</time></trkpt><trkpt lat="40.98897995039947" lon="19.733469258005726"><ele>183.0</ele><time>2026-04-27T08:32:42Z</time></trkpt><trkpt lat="40.98891738838039" lon="19.73336640247866"><ele>186.0</ele><time>2026-04-27T08:32:43Z</time></trkpt><trkpt lat="40.98887151315242" lon="19.733247279373895"><ele>189.0</ele><time>2026-04-27T08:32:43.999Z</time></trkpt><trkpt lat="40.98882241511847" lon="19.73313318962318"><ele>192.0</ele><time>2026-04-27T08:32:44.999Z</time></trkpt><trkpt lat="40.988775108661855" lon="19.73300982876243"><ele>192.0</ele><time>2026-04-27T08:32:45.999Z</time></trkpt><trkpt lat="40.98871442884215" lon="19.732894060028052"><ele>192.0</ele><time>2026-04-27T08:32:46.999Z</time></trkpt><trkpt lat="40.988695074415425" lon="19.732739584705552"><ele>192.0</ele><time>2026-04-27T08:32:47.999Z</time></trkpt><trkpt lat="40.98865751797887" lon="19.732585089879027"><ele>192.0</ele><time>2026-04-27T08:32:48.999Z</time></trkpt><trkpt lat="40.98860325544559" lon="19.732457714175563"><ele>193.8</ele><time>2026-04-27T08:32:49.999Z</time></trkpt><trkpt lat="40.988573617221846" lon="19.732339228017263"><ele>195.6</ele><time>2026-04-27T08:32:50.999Z</time></trkpt><trkpt lat="40.98854267028734" lon="19.73221605875567"><ele>197.4</ele><time>2026-04-27T08:32:51.999Z</time></trkpt><trkpt lat="40.98850191830683" lon="19.732102191482227"><ele>199.20000000000002</ele><time>2026-04-27T08:32:52.999Z</time></trkpt><trkpt lat="40.988461372696435" lon="19.73199509473897"><ele>201.0</ele><time>2026-04-27T08:32:53.999Z</time></trkpt><trkpt lat="40.98837365351618" lon="19.731915192099414"><ele>199.60000000000002</ele><time>2026-04-27T08:32:54.999Z</time></trkpt><trkpt lat="40.9882927020427" lon="19.731832567403952"><ele>198.2</ele><time>2026-04-27T08:32:55.999Z</time></trkpt><trkpt lat="40.988197200755764" lon="19.731761836015103"><ele>196.8</ele><time>2026-04-27T08:32:56.999Z</time></trkpt><trkpt lat="40.98808914413197" lon="19.73170857152122"><ele>195.39999999999998</ele><time>2026-04-27T08:32:57.999Z</time></trkpt><trkpt lat="40.98797926200988" lon="19.73165083934265"><ele>194.0</ele><time>2026-04-27T08:32:58.999Z</time></trkpt><trkpt lat="40.98786262264158" lon="19.731584011530355"><ele>194.0</ele><time>2026-04-27T08:32:59.999Z</time></trkpt><trkpt lat="40.98774217857026" lon="19.731502975859673"><ele>194.0</ele><time>2026-04-27T08:33:00.999Z</time></trkpt><trkpt lat="40.98761659996062" lon="19.731424327046874"><ele>194.0</ele><time>2026-04-27T08:33:01.999Z</time></trkpt><trkpt lat="40.987506403065055" lon="19.731336091720536"><ele>194.0</ele><time>2026-04-27T08:33:02.999Z</time></trkpt><trkpt lat="40.987395790122" lon="19.731299828128403"><ele>193.6</ele><time>2026-04-27T08:33:03.999Z</time></trkpt><trkpt lat="40.987300815912015" lon="19.73125584158031"><ele>193.2</ele><time>2026-04-27T08:33:04.999Z</time></trkpt><trkpt lat="40.987203059361164" lon="19.73121330982078"><ele>192.79999999999998</ele><time>2026-04-27T08:33:05.999Z</time></trkpt><trkpt lat="40.98711784845005" lon="19.731180682589464"><ele>192.39999999999998</ele><time>2026-04-27T08:33:06.999Z</time></trkpt><trkpt lat="40.98702527310597" lon="19.73115058134858"><ele>192.0</ele><time>2026-04-27T08:33:07.999Z</time></trkpt><trkpt lat="40.986940547268574" lon="19.731132431485253"><ele>192.0</ele><time>2026-04-27T08:33:08.999Z</time></trkpt><trkpt lat="40.98686299581502" lon="19.73113466553856"><ele>192.0</ele><time>2026-04-27T08:33:09.999Z</time></trkpt><trkpt lat="40.98677320799633" lon="19.731151051304415"><ele>192.0</ele><time>2026-04-27T08:33:10.999Z</time></trkpt><trkpt lat="40.98666682022471" lon="19.73116705255997"><ele>192.0</ele><time>2026-04-27T08:33:11.999Z</time></trkpt><trkpt lat="40.98654582735189" lon="19.731191993127606"><ele>192.0</ele><time>2026-04-27T08:33:12.999Z</time></trkpt><trkpt lat="40.98641644570886" lon="19.731226011509655"><ele>192.0</ele><time>2026-04-27T08:33:13.999Z</time></trkpt><trkpt lat="40.98628046166173" lon="19.73126241045792"><ele>192.0</ele><time>2026-04-27T08:33:14.999Z</time></trkpt><trkpt lat="40.98615160089653" lon="19.731295880431947"><ele>192.0</ele><time>2026-04-27T08:33:15.999Z</time></trkpt><trkpt lat="40.98604038750108" lon="19.73132496232973"><ele>192.0</ele><time>2026-04-27T08:33:16.999Z</time></trkpt><trkpt lat="40.98594177407683" lon="19.73132377252862"><ele>192.5</ele><time>2026-04-27T08:33:17.999Z</time></trkpt><trkpt lat="40.98584376986644" lon="19.731347330403317"><ele>193.0</ele><time>2026-04-27T08:33:18.999Z</time></trkpt><trkpt lat="40.98573444631147" lon="19.731335826135552"><ele>193.5</ele><time>2026-04-27T08:33:19.999Z</time></trkpt><trkpt lat="40.985608919911144" lon="19.7313291384823"><ele>194.0</ele><time>2026-04-27T08:33:20.999Z</time></trkpt><trkpt lat="40.985474396521845" lon="19.73132929519614"><ele>194.0</ele><time>2026-04-27T08:33:21.999Z</time></trkpt><trkpt lat="40.985348237197485" lon="19.73133090209206"><ele>194.0</ele><time>2026-04-27T08:33:22.999Z</time></trkpt><trkpt lat="40.98523546001935" lon="19.731321403289414"><ele>194.0</ele><time>2026-04-27T08:33:23.999Z</time></trkpt><trkpt lat="40.98512109351046" lon="19.731386979473353"><ele>194.0</ele><time>2026-04-27T08:33:24.999Z</time></trkpt><trkpt lat="40.98502404829089" lon="19.73149692899951"><ele>195.0</ele><time>2026-04-27T08:33:25.999Z</time></trkpt><trkpt lat="40.9849184271749" lon="19.73159300492952"><ele>196.0</ele><time>2026-04-27T08:33:26.999Z</time></trkpt><trkpt lat="40.984805360855006" lon="19.731683424963837"><ele>197.0</ele><time>2026-04-27T08:33:27.999Z</time></trkpt><trkpt lat="40.98468049771437" lon="19.73174814752718"><ele>198.0</ele><time>2026-04-27T08:33:28.999Z</time></trkpt><trkpt lat="40.98454382407901" lon="19.731774610983205"><ele>198.0</ele><time>2026-04-27T08:33:29.999Z</time></trkpt><trkpt lat="40.984404336835084" lon="19.731816037725523"><ele>198.0</ele><time>2026-04-27T08:33:30.999Z</time></trkpt><trkpt lat="40.98425968224988" lon="19.731813228870735"><ele>198.0</ele><time>2026-04-27T08:33:31.999Z</time></trkpt><trkpt lat="40.9841473004851" lon="19.731804596420705"><ele>198.0</ele><time>2026-04-27T08:33:32.999Z</time></trkpt><trkpt lat="40.98406711157794" lon="19.73180140308739"><ele>198.16666666666666</ele><time>2026-04-27T08:33:33.999Z</time></trkpt><trkpt lat="40.983997310610626" lon="19.731806278799684"><ele>198.33333333333331</ele><time>2026-04-27T08:33:34.999Z</time></trkpt><trkpt lat="40.98392851976408" lon="19.731803889185556"><ele>198.5</ele><time>2026-04-27T08:33:35.999Z</time></trkpt><trkpt lat="40.98386270164038" lon="19.731804741080175"><ele>198.66666666666666</ele><time>2026-04-27T08:33:36.999Z</time></trkpt><trkpt lat="40.983752609956" lon="19.731801320777855"><ele>198.83333333333331</ele><time>2026-04-27T08:33:38.999Z</time></trkpt><trkpt lat="40.983665961999044" lon="19.731802480540356"><ele>199.0</ele><time>2026-04-27T08:33:39.999Z</time></trkpt><trkpt lat="40.98353272462285" lon="19.73180064404827"><ele>199.0</ele><time>2026-04-27T08:33:40.999Z</time></trkpt><trkpt lat="40.98334997169208" lon="19.731804213436565"><ele>199.0</ele><time>2026-04-27T08:33:41.999Z</time></trkpt><trkpt lat="40.98320283275041" lon="19.73178811634214"><ele>199.0</ele><time>2026-04-27T08:33:42.999Z</time></trkpt><trkpt lat="40.98307960907203" lon="19.731841611770083"><ele>200.0</ele><time>2026-04-27T08:33:43.999Z</time></trkpt><trkpt lat="40.982954932326685" lon="19.73187465778625"><ele>201.0</ele><time>2026-04-27T08:33:44.999Z</time></trkpt><trkpt lat="40.982846060049106" lon="19.731895773891004"><ele>202.0</ele><time>2026-04-27T08:33:45.999Z</time></trkpt><trkpt lat="40.982740133608516" lon="19.731894818297512"><ele>203.0</ele><time>2026-04-27T08:33:46.999Z</time></trkpt><trkpt lat="40.98262792914455" lon="19.731875006527325"><ele>203.0</ele><time>2026-04-27T08:33:47.999Z</time></trkpt><trkpt lat="40.98253529198913" lon="19.73181345408116"><ele>203.0</ele><time>2026-04-27T08:33:48.999Z</time></trkpt><trkpt lat="40.98245749176924" lon="19.731786953009152"><ele>203.0</ele><time>2026-04-27T08:33:49.999Z</time></trkpt><trkpt lat="40.982370804257066" lon="19.73167996784857"><ele>203.0</ele><time>2026-04-27T08:33:51.999Z</time></trkpt><trkpt lat="40.98232326263579" lon="19.731607748975748"><ele>203.0</ele><time>2026-04-27T08:33:54.999Z</time></trkpt><trkpt lat="40.98220878434459" lon="19.731551114654543"><ele>203.00000000000003</ele><time>2026-04-27T08:42:17.999Z</time></trkpt><trkpt lat="40.982141843156036" lon="19.731523748465527"><ele>203.0</ele><time>2026-04-27T08:42:18.999Z</time></trkpt><trkpt lat="40.98208082112347" lon="19.731479124783338"><ele>203.0</ele><time>2026-04-27T08:42:19.999Z</time></trkpt><trkpt lat="40.98198428364585" lon="19.73141550174473"><ele>203.0</ele><time>2026-04-27T08:42:21.999Z</time></trkpt><trkpt lat="40.98187252581386" lon="19.73134141048922"><ele>203.00000000000003</ele><time>2026-04-27T08:42:51.999Z</time></trkpt><trkpt lat="40.98180360785449" lon="19.73132225488626"><ele>203.0</ele><time>2026-04-27T08:42:52.999Z</time></trkpt><trkpt lat="40.981717674555114" lon="19.731315989203615"><ele>201.66666666666669</ele><time>2026-04-27T08:42:53.999Z</time></trkpt><trkpt lat="40.981639847780734" lon="19.73129015663035"><ele>200.33333333333334</ele><time>2026-04-27T08:42:54.999Z</time></trkpt><trkpt lat="40.981571007172334" lon="19.73129202728507"><ele>199.0</ele><time>2026-04-27T08:42:55.999Z</time></trkpt><trkpt lat="40.98151292991771" lon="19.731327196587195"><ele>197.66666666666669</ele><time>2026-04-27T08:42:56.999Z</time></trkpt><trkpt lat="40.9814514453994" lon="19.731364435208594"><ele>196.33333333333334</ele><time>2026-04-27T08:42:57.999Z</time></trkpt><trkpt lat="40.98140692498071" lon="19.731471271126747"><ele>195.0</ele><time>2026-04-27T08:42:58.999Z</time></trkpt><trkpt lat="40.98136965098686" lon="19.731580278380967"><ele>195.0</ele><time>2026-04-27T08:42:59.999Z</time></trkpt><trkpt lat="40.98131988361272" lon="19.731657607159338"><ele>195.0</ele><time>2026-04-27T08:43:00.999Z</time></trkpt><trkpt lat="40.98127754701532" lon="19.731720856474684"><ele>195.0</ele><time>2026-04-27T08:43:01.999Z</time></trkpt><trkpt lat="40.981205999177945" lon="19.731722167269567"><ele>195.0</ele><time>2026-04-27T08:43:02.999Z</time></trkpt><trkpt lat="40.98111658897116" lon="19.731712740503514"><ele>195.0</ele><time>2026-04-27T08:43:03.999Z</time></trkpt><trkpt lat="40.98100500163321" lon="19.731635775664973"><ele>195.0</ele><time>2026-04-27T08:43:04.999Z</time></trkpt><trkpt lat="40.98088926470193" lon="19.73156585420192"><ele>194.0</ele><time>2026-04-27T08:43:05.999Z</time></trkpt><trkpt lat="40.980780228880704" lon="19.73152895020945"><ele>193.0</ele><time>2026-04-27T08:43:06.999Z</time></trkpt><trkpt lat="40.980677047195634" lon="19.73151616938291"><ele>192.0</ele><time>2026-04-27T08:43:07.999Z</time></trkpt><trkpt lat="40.980588231301454" lon="19.731519776710183"><ele>191.0</ele><time>2026-04-27T08:43:08.999Z</time></trkpt><trkpt lat="40.980505609074655" lon="19.731525100006426"><ele>190.0</ele><time>2026-04-27T08:43:09.999Z</time></trkpt><trkpt lat="40.98041875936183" lon="19.731519967660844"><ele>190.0</ele><time>2026-04-27T08:43:10.999Z</time></trkpt><trkpt lat="40.98032724695086" lon="19.73156614052156"><ele>190.0</ele><time>2026-04-27T08:43:11.999Z</time></trkpt><trkpt lat="40.9802356013562" lon="19.73160116347703"><ele>190.0</ele><time>2026-04-27T08:43:12.999Z</time></trkpt><trkpt lat="40.98013591870823" lon="19.731624696801614"><ele>190.0</ele><time>2026-04-27T08:43:13.999Z</time></trkpt><trkpt lat="40.980048932501056" lon="19.731681254194463"><ele>190.0</ele><time>2026-04-27T08:43:14.999Z</time></trkpt><trkpt lat="40.97994719641669" lon="19.731667996896142"><ele>188.5</ele><time>2026-04-27T08:43:15.999Z</time></trkpt><trkpt lat="40.979839826607915" lon="19.731669405019872"><ele>187.0</ele><time>2026-04-27T08:43:16.999Z</time></trkpt><trkpt lat="40.9797451966961" lon="19.73166881794814"><ele>185.5</ele><time>2026-04-27T08:43:17.999Z</time></trkpt><trkpt lat="40.97966495914141" lon="19.731645456358198"><ele>184.0</ele><time>2026-04-27T08:43:18.999Z</time></trkpt><trkpt lat="40.9795864126067" lon="19.731631044975536"><ele>182.5</ele><time>2026-04-27T08:43:19.999Z</time></trkpt><trkpt lat="40.97953325510583" lon="19.731552901663964"><ele>181.0</ele><time>2026-04-27T08:43:20.999Z</time></trkpt><trkpt lat="40.979460995992284" lon="19.731506546777215"><ele>181.0</ele><time>2026-04-27T08:43:21.999Z</time></trkpt><trkpt lat="40.97935200570152" lon="19.731493117940232"><ele>181.0</ele><time>2026-04-27T08:43:22.999Z</time></trkpt><trkpt lat="40.97924346407352" lon="19.73148830600833"><ele>181.0</ele><time>2026-04-27T08:43:23.999Z</time></trkpt><trkpt lat="40.97911846520027" lon="19.731477503646186"><ele>181.0</ele><time>2026-04-27T08:43:24.999Z</time></trkpt><trkpt lat="40.97900954821407" lon="19.731442113893284"><ele>181.16666666666669</ele><time>2026-04-27T08:43:25.999Z</time></trkpt><trkpt lat="40.97892166276149" lon="19.731401771580657"><ele>181.33333333333334</ele><time>2026-04-27T08:43:26.999Z</time></trkpt><trkpt lat="40.9788374877561" lon="19.731369017368564"><ele>181.5</ele><time>2026-04-27T08:43:27.999Z</time></trkpt><trkpt lat="40.97876676522771" lon="19.73132645077332"><ele>181.66666666666666</ele><time>2026-04-27T08:43:28.999Z</time></trkpt><trkpt lat="40.978692653816125" lon="19.731340145040377"><ele>181.83333333333331</ele><time>2026-04-27T08:43:29.999Z</time></trkpt><trkpt lat="40.97861885677253" lon="19.731397439785194"><ele>182.0</ele><time>2026-04-27T08:43:30.999Z</time></trkpt><trkpt lat="40.978533197363596" lon="19.73146130467433"><ele>182.0</ele><time>2026-04-27T08:43:31.999Z</time></trkpt><trkpt lat="40.97845894906639" lon="19.731488660445056"><ele>182.0</ele><time>2026-04-27T08:43:32.999Z</time></trkpt><trkpt lat="40.97838030679464" lon="19.731483874841366"><ele>182.0</ele><time>2026-04-27T08:43:33.999Z</time></trkpt><trkpt lat="40.97828683159685" lon="19.731415769439728"><ele>182.0</ele><time>2026-04-27T08:43:34.999Z</time></trkpt><trkpt lat="40.97817740138024" lon="19.731372881321676"><ele>182.0</ele><time>2026-04-27T08:43:35.999Z</time></trkpt><trkpt lat="40.978098689485286" lon="19.731318578310997"><ele>181.0</ele><time>2026-04-27T08:43:36.999Z</time></trkpt><trkpt lat="40.97803669604355" lon="19.731268811275367"><ele>180.0</ele><time>2026-04-27T08:43:37.999Z</time></trkpt><trkpt lat="40.977979844009326" lon="19.731201574816822"><ele>179.0</ele><time>2026-04-27T08:43:38.999Z</time></trkpt><trkpt lat="40.97797685795741" lon="19.731087913554493"><ele>178.0</ele><time>2026-04-27T08:43:39.999Z</time></trkpt><trkpt lat="40.978039048944424" lon="19.730993663011137"><ele>177.0</ele><time>2026-04-27T08:43:40.999Z</time></trkpt><trkpt lat="40.97802286480321" lon="19.73080763294095"><ele>173.2</ele><time>2026-04-27T08:43:42.999Z</time></trkpt><trkpt lat="40.97790151005381" lon="19.730690130181248"><ele>169.39999999999998</ele><time>2026-04-27T08:43:44.999Z</time></trkpt><trkpt lat="40.97781879426818" lon="19.730713837701614"><ele>165.60000000000002</ele><time>2026-04-27T08:43:45.999Z</time></trkpt><trkpt lat="40.97771658698938" lon="19.730794563489543"><ele>161.8</ele><time>2026-04-27T08:43:47.999Z</time></trkpt><trkpt lat="40.97766381355184" lon="19.730853620035745"><ele>158.0</ele><time>2026-04-27T08:43:48.999Z</time></trkpt><trkpt lat="40.97758792632431" lon="19.7308102646157"><ele>158.0</ele><time>2026-04-27T08:43:50.999Z</time></trkpt><trkpt lat="40.97761577803172" lon="19.73071051218949"><ele>158.0</ele><time>2026-04-27T08:43:52.999Z</time></trkpt><trkpt lat="40.977640372410406" lon="19.730609874980313"><ele>158.0</ele><time>2026-04-27T08:43:54.999Z</time></trkpt><trkpt lat="40.977741173489434" lon="19.730634274702577"><ele>158.0</ele><time>2026-04-27T08:43:55.999Z</time></trkpt><trkpt lat="40.977810977361536" lon="19.73062834640089"><ele>158.0</ele><time>2026-04-27T08:43:56.999Z</time></trkpt><trkpt lat="40.9779100343497" lon="19.730615967155263"><ele>158.0</ele><time>2026-04-27T08:43:57.999Z</time></trkpt><trkpt lat="40.97801035449982" lon="19.730609624907256"><ele>158.0</ele><time>2026-04-27T08:43:58.999Z</time></trkpt><trkpt lat="40.97810346036368" lon="19.73061226689266"><ele>158.0</ele><time>2026-04-27T08:43:59.999Z</time></trkpt><trkpt lat="40.97819473410224" lon="19.730614280483742"><ele>158.0</ele><time>2026-04-27T08:44:00.999Z</time></trkpt><trkpt lat="40.97827563924862" lon="19.730621647754983"><ele>158.0</ele><time>2026-04-27T08:44:01.999Z</time></trkpt><trkpt lat="40.97834933129786" lon="19.73063728438585"><ele>158.0</ele><time>2026-04-27T08:44:02.999Z</time></trkpt><trkpt lat="40.978412380116836" lon="19.730663004213575"><ele>158.0</ele><time>2026-04-27T08:44:03.999Z</time></trkpt><trkpt lat="40.978497077430944" lon="19.730725184286744"><ele>157.4</ele><time>2026-04-27T08:44:05.999Z</time></trkpt><trkpt lat="40.97857513726955" lon="19.73074400221723"><ele>156.8</ele><time>2026-04-27T08:44:07.999Z</time></trkpt><trkpt lat="40.97864669970836" lon="19.73063420262838"><ele>156.2</ele><time>2026-04-27T08:44:08.999Z</time></trkpt><trkpt lat="40.97865009818114" lon="19.73047225670159"><ele>155.6</ele><time>2026-04-27T08:44:10.999Z</time></trkpt><trkpt lat="40.97857742337087" lon="19.730413046442877"><ele>155.0</ele><time>2026-04-27T08:44:11.999Z</time></trkpt><trkpt lat="40.97849867234972" lon="19.73039277660993"><ele>155.0</ele><time>2026-04-27T08:44:12.999Z</time></trkpt><trkpt lat="40.97840493076286" lon="19.730357517177588"><ele>155.0</ele><time>2026-04-27T08:44:13.999Z</time></trkpt><trkpt lat="40.978289562684466" lon="19.730310437945764"><ele>155.0</ele><time>2026-04-27T08:44:14.999Z</time></trkpt><trkpt lat="40.97818234472377" lon="19.730257488508425"><ele>155.0</ele><time>2026-04-27T08:44:15.999Z</time></trkpt><trkpt lat="40.97808954301923" lon="19.730200941420197"><ele>155.0</ele><time>2026-04-27T08:44:16.999Z</time></trkpt><trkpt lat="40.97802136724081" lon="19.730106176590766"><ele>152.2</ele><time>2026-04-27T08:44:17.999Z</time></trkpt><trkpt lat="40.97793877293417" lon="19.730051410427475"><ele>149.4</ele><time>2026-04-27T08:44:18.999Z</time></trkpt><trkpt lat="40.97787514810588" lon="19.729995220085165"><ele>146.6</ele><time>2026-04-27T08:44:19.999Z</time></trkpt><trkpt lat="40.97779271916563" lon="19.729982133953417"><ele>143.8</ele><time>2026-04-27T08:44:20.999Z</time></trkpt><trkpt lat="40.97769150287547" lon="19.729978600149806"><ele>141.0</ele><time>2026-04-27T08:44:21.999Z</time></trkpt><trkpt lat="40.97758247617064" lon="19.729981535833666"><ele>140.6</ele><time>2026-04-27T08:44:22.999Z</time></trkpt><trkpt lat="40.97747523597609" lon="19.72998632964204"><ele>140.2</ele><time>2026-04-27T08:44:23.999Z</time></trkpt><trkpt lat="40.97736842780105" lon="19.72996692402974"><ele>139.8</ele><time>2026-04-27T08:44:24.999Z</time></trkpt><trkpt lat="40.9772635533378" lon="19.729948272053157"><ele>139.4</ele><time>2026-04-27T08:44:25.999Z</time></trkpt><trkpt lat="40.97717434398224" lon="19.72986658214926"><ele>139.0</ele><time>2026-04-27T08:44:26.999Z</time></trkpt><trkpt lat="40.97709456344434" lon="19.729803153253112"><ele>139.0</ele><time>2026-04-27T08:44:27.999Z</time></trkpt><trkpt lat="40.97705683448913" lon="19.729735171136706"><ele>139.0</ele><time>2026-04-27T08:44:28.999Z</time></trkpt><trkpt lat="40.97699829966068" lon="19.72967692657469"><ele>139.0</ele><time>2026-04-27T08:44:29.999Z</time></trkpt><trkpt lat="40.97706674695588" lon="19.729550614271577"><ele>139.0</ele><time>2026-04-27T08:44:30.999Z</time></trkpt><trkpt lat="40.97707126860155" lon="19.72939757004459"><ele>139.0</ele><time>2026-04-27T08:44:31.999Z</time></trkpt><trkpt lat="40.97707457467475" lon="19.729236056676157"><ele>135.5</ele><time>2026-04-27T08:44:32.999Z</time></trkpt><trkpt lat="40.977044207696956" lon="19.729091315233006"><ele>132.0</ele><time>2026-04-27T08:44:33.999Z</time></trkpt><trkpt lat="40.9770068089504" lon="19.728942607809685"><ele>128.5</ele><time>2026-04-27T08:44:34.999Z</time></trkpt><trkpt lat="40.97696235748737" lon="19.728800050761144"><ele>125.0</ele><time>2026-04-27T08:44:35.999Z</time></trkpt><trkpt lat="40.97693333528539" lon="19.728649061869323"><ele>121.75</ele><time>2026-04-27T08:44:36.999Z</time></trkpt><trkpt lat="40.97689272508057" lon="19.728500402342114"><ele>118.5</ele><time>2026-04-27T08:44:37.999Z</time></trkpt><trkpt lat="40.97681348413991" lon="19.728378451422433"><ele>115.25</ele><time>2026-04-27T08:44:38.999Z</time></trkpt><trkpt lat="40.97675116364231" lon="19.728255495804905"><ele>112.0</ele><time>2026-04-27T08:44:39.999Z</time></trkpt><trkpt lat="40.97670177150891" lon="19.728143027706334"><ele>112.00000000000001</ele><time>2026-04-27T08:44:40.999Z</time></trkpt><trkpt lat="40.97667472686645" lon="19.728034849208964"><ele>112.0</ele><time>2026-04-27T08:44:41.999Z</time></trkpt><trkpt lat="40.976702758323285" lon="19.72793542427534"><ele>112.0</ele><time>2026-04-27T08:44:42.999Z</time></trkpt><trkpt lat="40.97672190787823" lon="19.727846322498515"><ele>112.0</ele><time>2026-04-27T08:44:43.999Z</time></trkpt><trkpt lat="40.976737420594226" lon="19.727743696333107"><ele>112.00000000000001</ele><time>2026-04-27T08:44:44.999Z</time></trkpt><trkpt lat="40.97676861046344" lon="19.727640575329197"><ele>112.0</ele><time>2026-04-27T08:44:45.999Z</time></trkpt><trkpt lat="40.97678135046668" lon="19.727499660130036"><ele>113.0</ele><time>2026-04-27T08:44:46.999Z</time></trkpt><trkpt lat="40.97678185779043" lon="19.727357038128662"><ele>113.99999999999999</ele><time>2026-04-27T08:44:47.999Z</time></trkpt><trkpt lat="40.976742070669424" lon="19.727200573293935"><ele>114.99999999999999</ele><time>2026-04-27T08:44:48.999Z</time></trkpt><trkpt lat="40.976701118575455" lon="19.727058187820404"><ele>116.0</ele><time>2026-04-27T08:44:49.999Z</time></trkpt><trkpt lat="40.97666803814378" lon="19.726930484312845"><ele>117.0</ele><time>2026-04-27T08:44:50.999Z</time></trkpt><trkpt lat="40.97662210847076" lon="19.726811889757883"><ele>114.8</ele><time>2026-04-27T08:44:51.999Z</time></trkpt><trkpt lat="40.97664255212005" lon="19.726666858090365"><ele>112.6</ele><time>2026-04-27T08:44:52.999Z</time></trkpt><trkpt lat="40.97669722574767" lon="19.726529985020733"><ele>110.39999999999999</ele><time>2026-04-27T08:44:53.999Z</time></trkpt><trkpt lat="40.97674057951143" lon="19.7263970315345"><ele>108.19999999999999</ele><time>2026-04-27T08:44:54.999Z</time></trkpt><trkpt lat="40.97676951466167" lon="19.726285199024222"><ele>106.0</ele><time>2026-04-27T08:44:55.999Z</time></trkpt><trkpt lat="40.97676556427418" lon="19.726155685265756"><ele>104.5</ele><time>2026-04-27T08:44:56.999Z</time></trkpt><trkpt lat="40.97673062932416" lon="19.726014402192902"><ele>103.0</ele><time>2026-04-27T08:44:57.999Z</time></trkpt><trkpt lat="40.97670100182908" lon="19.725836731938195"><ele>101.5</ele><time>2026-04-27T08:44:58.999Z</time></trkpt><trkpt lat="40.97668291435003" lon="19.725628438089394"><ele>100.0</ele><time>2026-04-27T08:44:59.999Z</time></trkpt><trkpt lat="40.97666144237848" lon="19.72542906248157"><ele>100.0</ele><time>2026-04-27T08:45:00.999Z</time></trkpt><trkpt lat="40.97661902907283" lon="19.72524479721909"><ele>100.0</ele><time>2026-04-27T08:45:01.999Z</time></trkpt><trkpt lat="40.97658855826245" lon="19.7250621905243"><ele>100.0</ele><time>2026-04-27T08:45:02.999Z</time></trkpt><trkpt lat="40.97656853477228" lon="19.724884635621056"><ele>100.0</ele><time>2026-04-27T08:45:03.999Z</time></trkpt><trkpt lat="40.97654000706154" lon="19.72472401846607"><ele>98.6</ele><time>2026-04-27T08:45:04.999Z</time></trkpt><trkpt lat="40.97651260930673" lon="19.72456729392001"><ele>97.2</ele><time>2026-04-27T08:45:05.999Z</time></trkpt><trkpt lat="40.97648725059396" lon="19.724427959081368"><ele>95.80000000000001</ele><time>2026-04-27T08:45:06.999Z</time></trkpt><trkpt lat="40.976484174202156" lon="19.724293823120167"><ele>94.4</ele><time>2026-04-27T08:45:07.999Z</time></trkpt><trkpt lat="40.97647937897441" lon="19.72415979870044"><ele>93.0</ele><time>2026-04-27T08:45:08.999Z</time></trkpt><trkpt lat="40.976477177175624" lon="19.72401064461381"><ele>92.4</ele><time>2026-04-27T08:45:09.999Z</time></trkpt><trkpt lat="40.97647187009864" lon="19.723867457083983"><ele>91.80000000000001</ele><time>2026-04-27T08:45:10.999Z</time></trkpt><trkpt lat="40.97648121263739" lon="19.723733589925065"><ele>91.2</ele><time>2026-04-27T08:45:11.999Z</time></trkpt><trkpt lat="40.97648243143521" lon="19.72360463956853"><ele>90.6</ele><time>2026-04-27T08:45:12.999Z</time></trkpt><trkpt lat="40.97645058679936" lon="19.723503201585117"><ele>90.0</ele><time>2026-04-27T08:45:13.999Z</time></trkpt><trkpt lat="40.97645216534443" lon="19.72340164481379"><ele>88.0</ele><time>2026-04-27T08:45:14.999Z</time></trkpt><trkpt lat="40.97639223518713" lon="19.72330837203552"><ele>86.0</ele><time>2026-04-27T08:45:15.999Z</time></trkpt><trkpt lat="40.976328999418484" lon="19.723206879479353"><ele>84.0</ele><time>2026-04-27T08:45:16.999Z</time></trkpt><trkpt lat="40.97623960550898" lon="19.723100381512147"><ele>82.0</ele><time>2026-04-27T08:45:17.999Z</time></trkpt><trkpt lat="40.97613681770031" lon="19.722980875693302"><ele>80.0</ele><time>2026-04-27T08:45:18.999Z</time></trkpt><trkpt lat="40.97605974039217" lon="19.72283464503384"><ele>79.66666666666667</ele><time>2026-04-27T08:45:19.999Z</time></trkpt><trkpt lat="40.97599572843613" lon="19.72272146531306"><ele>79.33333333333334</ele><time>2026-04-27T08:45:20.999Z</time></trkpt><trkpt lat="40.975950100039675" lon="19.722630086900253"><ele>79.0</ele><time>2026-04-27T08:45:21.999Z</time></trkpt><trkpt lat="40.97588670536342" lon="19.72255664093092"><ele>78.66666666666667</ele><time>2026-04-27T08:45:22.999Z</time></trkpt><trkpt lat="40.975796848022" lon="19.72255060107437"><ele>78.33333333333333</ele><time>2026-04-27T08:45:23.999Z</time></trkpt><trkpt lat="40.97571249135097" lon="19.722558831248964"><ele>78.0</ele><time>2026-04-27T08:45:24.999Z</time></trkpt><trkpt lat="40.975610738556384" lon="19.722591761346845"><ele>78.0</ele><time>2026-04-27T08:45:25.999Z</time></trkpt><trkpt lat="40.975489993942745" lon="19.722627288637156"><ele>78.0</ele><time>2026-04-27T08:45:26.999Z</time></trkpt><trkpt lat="40.97536610642553" lon="19.722620424722244"><ele>78.0</ele><time>2026-04-27T08:45:27.999Z</time></trkpt><trkpt lat="40.97525313313094" lon="19.722615229665543"><ele>78.0</ele><time>2026-04-27T08:45:28.999Z</time></trkpt><trkpt lat="40.97516182925309" lon="19.722629039559937"><ele>78.0</ele><time>2026-04-27T08:45:29.999Z</time></trkpt><trkpt lat="40.97506780540446" lon="19.722674153555456"><ele>78.0</ele><time>2026-04-27T08:45:30.999Z</time></trkpt><trkpt lat="40.974995343889624" lon="19.722790410899833"><ele>78.0</ele><time>2026-04-27T08:45:31.999Z</time></trkpt><trkpt lat="40.97493222074602" lon="19.72290265035947"><ele>78.0</ele><time>2026-04-27T08:45:32.999Z</time></trkpt><trkpt lat="40.97487889309995" lon="19.723038131493503"><ele>78.0</ele><time>2026-04-27T08:45:33.999Z</time></trkpt><trkpt lat="40.97482191425046" lon="19.7231788421625"><ele>78.2</ele><time>2026-04-27T08:45:34.999Z</time></trkpt><trkpt lat="40.97477059585976" lon="19.72329721477641"><ele>78.4</ele><time>2026-04-27T08:45:35.999Z</time></trkpt><trkpt lat="40.97472410478803" lon="19.723394700515627"><ele>78.60000000000001</ele><time>2026-04-27T08:45:36.999Z</time></trkpt><trkpt lat="40.974652049850015" lon="19.723384445166865"><ele>78.8</ele><time>2026-04-27T08:45:38.999Z</time></trkpt><trkpt lat="40.9745856960162" lon="19.72328535036611"><ele>79.0</ele><time>2026-04-27T08:45:40.999Z</time></trkpt><trkpt lat="40.97455635019093" lon="19.723162016673715"><ele>79.0</ele><time>2026-04-27T08:45:41.999Z</time></trkpt><trkpt lat="40.97452655146052" lon="19.723006454329084"><ele>79.0</ele><time>2026-04-27T08:45:42.999Z</time></trkpt><trkpt lat="40.974492038559696" lon="19.722844276995417"><ele>79.0</ele><time>2026-04-27T08:45:43.999Z</time></trkpt><trkpt lat="40.974449165072755" lon="19.722687262764897"><ele>79.0</ele><time>2026-04-27T08:45:44.999Z</time></trkpt><trkpt lat="40.97441279721576" lon="19.72254736280819"><ele>77.4</ele><time>2026-04-27T08:45:45.999Z</time></trkpt><trkpt lat="40.97438152283026" lon="19.72241785105291"><ele>75.80000000000001</ele><time>2026-04-27T08:45:46.999Z</time></trkpt><trkpt lat="40.974351584119695" lon="19.722297943929235"><ele>74.19999999999999</ele><time>2026-04-27T08:45:47.999Z</time></trkpt><trkpt lat="40.97431561970167" lon="19.72218924259541"><ele>72.6</ele><time>2026-04-27T08:45:48.999Z</time></trkpt><trkpt lat="40.97427730323562" lon="19.72206207450398"><ele>71.0</ele><time>2026-04-27T08:45:49.999Z</time></trkpt><trkpt lat="40.974223268797424" lon="19.72192146696048"><ele>68.2</ele><time>2026-04-27T08:45:50.999Z</time></trkpt><trkpt lat="40.9741730747483" lon="19.72181038357044"><ele>65.39999999999999</ele><time>2026-04-27T08:45:51.999Z</time></trkpt><trkpt lat="40.97411947155253" lon="19.721717757550206"><ele>62.6</ele><time>2026-04-27T08:45:52.999Z</time></trkpt><trkpt lat="40.974064795905974" lon="19.72163464448297"><ele>59.8</ele><time>2026-04-27T08:45:53.999Z</time></trkpt><trkpt lat="40.97400595529583" lon="19.721554907671013"><ele>57.0</ele><time>2026-04-27T08:45:54.999Z</time></trkpt><trkpt lat="40.97394360764825" lon="19.72144990546002"><ele>57.0</ele><time>2026-04-27T08:45:55.999Z</time></trkpt><trkpt lat="40.97386552199106" lon="19.721367196325254"><ele>57.0</ele><time>2026-04-27T08:45:56.999Z</time></trkpt><trkpt lat="40.97376872495652" lon="19.721326154321545"><ele>57.0</ele><time>2026-04-27T08:45:57.999Z</time></trkpt><trkpt lat="40.973674677805974" lon="19.7212813737043"><ele>57.0</ele><time>2026-04-27T08:45:58.999Z</time></trkpt><trkpt lat="40.973569875632435" lon="19.72126163298098"><ele>57.0</ele><time>2026-04-27T08:45:59.999Z</time></trkpt><trkpt lat="40.9734495458864" lon="19.721252299737344"><ele>58.6</ele><time>2026-04-27T08:46:00.999Z</time></trkpt><trkpt lat="40.97332073369176" lon="19.721251491138013"><ele>60.2</ele><time>2026-04-27T08:46:01.999Z</time></trkpt><trkpt lat="40.973210267788566" lon="19.721249731064677"><ele>61.8</ele><time>2026-04-27T08:46:02.999Z</time></trkpt><trkpt lat="40.97311300104619" lon="19.721242316150484"><ele>63.4</ele><time>2026-04-27T08:46:03.999Z</time></trkpt><trkpt lat="40.9730238908139" lon="19.721198387502334"><ele>65.0</ele><time>2026-04-27T08:46:04.999Z</time></trkpt><trkpt lat="40.97293771112035" lon="19.721169806077747"><ele>65.0</ele><time>2026-04-27T08:46:05.999Z</time></trkpt><trkpt lat="40.97283760093416" lon="19.721154456991794"><ele>65.0</ele><time>2026-04-27T08:46:06.999Z</time></trkpt><trkpt lat="40.97274487210083" lon="19.721123426025674"><ele>65.0</ele><time>2026-04-27T08:46:07.999Z</time></trkpt><trkpt lat="40.972642784106114" lon="19.72107050441671"><ele>65.0</ele><time>2026-04-27T08:46:08.999Z</time></trkpt><trkpt lat="40.97250847846055" lon="19.72102929082105"><ele>65.0</ele><time>2026-04-27T08:46:09.999Z</time></trkpt><trkpt lat="40.972377535957" lon="19.72099220588841"><ele>61.5</ele><time>2026-04-27T08:46:10.999Z</time></trkpt><trkpt lat="40.972251053332826" lon="19.720978913930416"><ele>58.0</ele><time>2026-04-27T08:46:11.999Z</time></trkpt><trkpt lat="40.97212231604717" lon="19.720939803455888"><ele>54.5</ele><time>2026-04-27T08:46:12.999Z</time></trkpt><trkpt lat="40.971995732750784" lon="19.720895875087447"><ele>51.0</ele><time>2026-04-27T08:46:13.999Z</time></trkpt><trkpt lat="40.97186308453112" lon="19.72085492775671"><ele>51.0</ele><time>2026-04-27T08:46:14.999Z</time></trkpt><trkpt lat="40.97172737120687" lon="19.720813429530807"><ele>51.0</ele><time>2026-04-27T08:46:15.999Z</time></trkpt><trkpt lat="40.97160596775476" lon="19.720779620538845"><ele>51.0</ele><time>2026-04-27T08:46:16.999Z</time></trkpt><trkpt lat="40.9714959215148" lon="19.720753545642072"><ele>51.0</ele><time>2026-04-27T08:46:17.999Z</time></trkpt><trkpt lat="40.9713703980674" lon="19.720750018672977"><ele>51.25</ele><time>2026-04-27T08:46:18.999Z</time></trkpt><trkpt lat="40.97123006237312" lon="19.72073535874772"><ele>51.5</ele><time>2026-04-27T08:46:19.999Z</time></trkpt><trkpt lat="40.97107945099322" lon="19.720749149452402"><ele>51.75</ele><time>2026-04-27T08:46:20.999Z</time></trkpt><trkpt lat="40.97093888020826" lon="19.72076397223977"><ele>52.0</ele><time>2026-04-27T08:46:21.999Z</time></trkpt><trkpt lat="40.970810915872335" lon="19.720777465706938"><ele>51.25</ele><time>2026-04-27T08:46:22.999Z</time></trkpt><trkpt lat="40.97069750183423" lon="19.720801115599443"><ele>50.5</ele><time>2026-04-27T08:46:23.999Z</time></trkpt><trkpt lat="40.97058776723573" lon="19.720784622873303"><ele>49.75</ele><time>2026-04-27T08:46:24.999Z</time></trkpt><trkpt lat="40.97046946229415" lon="19.72076137735471"><ele>49.0</ele><time>2026-04-27T08:46:25.999Z</time></trkpt><trkpt lat="40.970345746432514" lon="19.720701572413713"><ele>49.0</ele><time>2026-04-27T08:46:26.999Z</time></trkpt><trkpt lat="40.970216742032385" lon="19.720648648095775"><ele>49.0</ele><time>2026-04-27T08:46:27.999Z</time></trkpt><trkpt lat="40.970078360098455" lon="19.720576649907464"><ele>49.0</ele><time>2026-04-27T08:46:28.999Z</time></trkpt><trkpt lat="40.96994990548742" lon="19.720482085634924"><ele>49.0</ele><time>2026-04-27T08:46:29.999Z</time></trkpt><trkpt lat="40.96983357145725" lon="19.72040439111732"><ele>49.0</ele><time>2026-04-27T08:46:30.999Z</time></trkpt><trkpt lat="40.96971726137241" lon="19.720342692566636"><ele>49.0</ele><time>2026-04-27T08:46:31.999Z</time></trkpt><trkpt lat="40.969618404140355" lon="19.720219398740927"><ele>49.0</ele><time>2026-04-27T08:46:32.999Z</time></trkpt><trkpt lat="40.96951420981505" lon="19.72008404053887"><ele>49.0</ele><time>2026-04-27T08:46:33.999Z</time></trkpt><trkpt lat="40.969406876843074" lon="19.719944642421314"><ele>49.0</ele><time>2026-04-27T08:46:34.999Z</time></trkpt><trkpt lat="40.96930498124298" lon="19.71983608989644"><ele>49.0</ele><time>2026-04-27T08:46:35.999Z</time></trkpt><trkpt lat="40.96921800812303" lon="19.71973367629692"><ele>49.0</ele><time>2026-04-27T08:46:36.999Z</time></trkpt><trkpt lat="40.96911673217601" lon="19.71964834868167"><ele>49.0</ele><time>2026-04-27T08:46:37.999Z</time></trkpt><trkpt lat="40.96899424866142" lon="19.719576573696887"><ele>49.666666666666664</ele><time>2026-04-27T08:46:38.999Z</time></trkpt><trkpt lat="40.96886637055936" lon="19.719466382269296"><ele>50.33333333333333</ele><time>2026-04-27T08:46:39.999Z</time></trkpt><trkpt lat="40.968715894246344" lon="19.719361392178367"><ele>51.0</ele><time>2026-04-27T08:46:40.999Z</time></trkpt><trkpt lat="40.968549187202086" lon="19.719246073594494"><ele>49.666666666666664</ele><time>2026-04-27T08:46:41.999Z</time></trkpt><trkpt lat="40.968375681686084" lon="19.719125734351753"><ele>48.33333333333333</ele><time>2026-04-27T08:46:42.999Z</time></trkpt><trkpt lat="40.96819791443892" lon="19.71899667887594"><ele>47.0</ele><time>2026-04-27T08:46:43.999Z</time></trkpt><trkpt lat="40.96801185458388" lon="19.718880273852776"><ele>47.0</ele><time>2026-04-27T08:46:44.999Z</time></trkpt><trkpt lat="40.96783092369117" lon="19.71873946737888"><ele>47.0</ele><time>2026-04-27T08:46:45.999Z</time></trkpt><trkpt lat="40.96764708355346" lon="19.718600371679873"><ele>47.0</ele><time>2026-04-27T08:46:46.999Z</time></trkpt><trkpt lat="40.96746888532747" lon="19.718464966008945"><ele>45.33333333333333</ele><time>2026-04-27T08:46:47.999Z</time></trkpt><trkpt lat="40.967306050560374" lon="19.718344458206303"><ele>43.666666666666664</ele><time>2026-04-27T08:46:48.999Z</time></trkpt><trkpt lat="40.96715365328256" lon="19.718232247352805"><ele>42.0</ele><time>2026-04-27T08:46:49.999Z</time></trkpt><trkpt lat="40.96700269620732" lon="19.718114416241104"><ele>42.0</ele><time>2026-04-27T08:46:50.999Z</time></trkpt><trkpt lat="40.966852130927634" lon="19.71800302554048"><ele>42.0</ele><time>2026-04-27T08:46:51.999Z</time></trkpt><trkpt lat="40.96671725499751" lon="19.717908658259407"><ele>42.0</ele><time>2026-04-27T08:46:52.999Z</time></trkpt><trkpt lat="40.96660111853282" lon="19.71782060405271"><ele>41.8</ele><time>2026-04-27T08:46:53.999Z</time></trkpt><trkpt lat="40.96650062903819" lon="19.717738814453458"><ele>41.6</ele><time>2026-04-27T08:46:54.999Z</time></trkpt><trkpt lat="40.966417304765265" lon="19.717677114306245"><ele>41.4</ele><time>2026-04-27T08:46:55.999Z</time></trkpt><trkpt lat="40.966343448319996" lon="19.717622155522072"><ele>41.199999999999996</ele><time>2026-04-27T08:46:56.999Z</time></trkpt><trkpt lat="40.96626278586981" lon="19.717564845326137"><ele>41.0</ele><time>2026-04-27T08:46:57.999Z</time></trkpt><trkpt lat="40.96617680268993" lon="19.717504717758178"><ele>41.0</ele><time>2026-04-27T08:46:58.999Z</time></trkpt><trkpt lat="40.96607561593643" lon="19.717433727608178"><ele>41.0</ele><time>2026-04-27T08:46:59.999Z</time></trkpt><trkpt lat="40.96595938372661" lon="19.71734989392086"><ele>41.0</ele><time>2026-04-27T08:47:00.999Z</time></trkpt><trkpt lat="40.96583671342623" lon="19.717234295995695"><ele>41.0</ele><time>2026-04-27T08:47:01.999Z</time></trkpt><trkpt lat="40.96569467941653" lon="19.717127307725836"><ele>40.75</ele><time>2026-04-27T08:47:02.999Z</time></trkpt><trkpt lat="40.96554636022006" lon="19.717042770150783"><ele>40.5</ele><time>2026-04-27T08:47:03.999Z</time></trkpt><trkpt lat="40.96542590516964" lon="19.716947677778325"><ele>40.25</ele><time>2026-04-27T08:47:04.999Z</time></trkpt><trkpt lat="40.96531809268437" lon="19.716863435099643"><ele>40.0</ele><time>2026-04-27T08:47:05.999Z</time></trkpt><trkpt lat="40.965217872118885" lon="19.716749325114414"><ele>40.0</ele><time>2026-04-27T08:47:06.999Z</time></trkpt><trkpt lat="40.96510399117733" lon="19.716641231565646"><ele>40.0</ele><time>2026-04-27T08:47:07.999Z</time></trkpt><trkpt lat="40.96498241644156" lon="19.716540912680085"><ele>40.0</ele><time>2026-04-27T08:47:08.999Z</time></trkpt><trkpt lat="40.9648777328219" lon="19.716414394540962"><ele>40.0</ele><time>2026-04-27T08:47:09.999Z</time></trkpt><trkpt lat="40.9647789596291" lon="19.71631188481788"><ele>40.0</ele><time>2026-04-27T08:47:10.999Z</time></trkpt><trkpt lat="40.96466890833901" lon="19.71622221468429"><ele>40.0</ele><time>2026-04-27T08:47:11.999Z</time></trkpt><trkpt lat="40.964545255558235" lon="19.716127525485746"><ele>40.0</ele><time>2026-04-27T08:47:12.999Z</time></trkpt><trkpt lat="40.9644100841494" lon="19.716029269839048"><ele>40.0</ele><time>2026-04-27T08:47:13.999Z</time></trkpt><trkpt lat="40.96428009194013" lon="19.715894988708733"><ele>39.0</ele><time>2026-04-27T08:47:14.999Z</time></trkpt><trkpt lat="40.964132806575414" lon="19.715767574910547"><ele>38.0</ele><time>2026-04-27T08:47:15.999Z</time></trkpt><trkpt lat="40.96400113994713" lon="19.715654345234842"><ele>37.0</ele><time>2026-04-27T08:47:16.999Z</time></trkpt><trkpt lat="40.96387321739489" lon="19.71557414502891"><ele>37.0</ele><time>2026-04-27T08:47:17.999Z</time></trkpt><trkpt lat="40.96375760056875" lon="19.715473720569445"><ele>37.0</ele><time>2026-04-27T08:47:18.999Z</time></trkpt><trkpt lat="40.96363169084508" lon="19.715373089914795"><ele>37.0</ele><time>2026-04-27T08:47:19.999Z</time></trkpt><trkpt lat="40.96349087760793" lon="19.71527862353577"><ele>37.0</ele><time>2026-04-27T08:47:20.999Z</time></trkpt><trkpt lat="40.96334190214691" lon="19.715193067358104"><ele>36.75</ele><time>2026-04-27T08:47:21.999Z</time></trkpt><trkpt lat="40.96321898750883" lon="19.715106039725967"><ele>36.5</ele><time>2026-04-27T08:47:22.999Z</time></trkpt><trkpt lat="40.96310847602433" lon="19.715039658789603"><ele>36.25</ele><time>2026-04-27T08:47:23.999Z</time></trkpt><trkpt lat="40.96299056386957" lon="19.715009086850085"><ele>36.0</ele><time>2026-04-27T08:47:24.999Z</time></trkpt><trkpt lat="40.96287884308192" lon="19.71498050164545"><ele>36.0</ele><time>2026-04-27T08:47:25.999Z</time></trkpt><trkpt lat="40.962754285240734" lon="19.714969470129436"><ele>36.0</ele><time>2026-04-27T08:47:26.999Z</time></trkpt><trkpt lat="40.96262701495822" lon="19.714945052753425"><ele>36.0</ele><time>2026-04-27T08:47:27.999Z</time></trkpt><trkpt lat="40.96251458102933" lon="19.714921027050774"><ele>36.0</ele><time>2026-04-27T08:47:28.999Z</time></trkpt><trkpt lat="40.96242977864419" lon="19.71485253335935"><ele>36.25</ele><time>2026-04-27T08:47:29.999Z</time></trkpt><trkpt lat="40.962365788604444" lon="19.714749930740382"><ele>36.5</ele><time>2026-04-27T08:47:30.999Z</time></trkpt><trkpt lat="40.96231034008909" lon="19.714631090804566"><ele>36.75</ele><time>2026-04-27T08:47:31.999Z</time></trkpt><trkpt lat="40.962264286972925" lon="19.714481517891794"><ele>37.0</ele><time>2026-04-27T08:47:32.999Z</time></trkpt><trkpt lat="40.96221286421923" lon="19.714314944797486"><ele>36.0</ele><time>2026-04-27T08:47:33.999Z</time></trkpt><trkpt lat="40.96215704300711" lon="19.71413820456711"><ele>35.0</ele><time>2026-04-27T08:47:34.999Z</time></trkpt><trkpt lat="40.96209781175124" lon="19.71393912702453"><ele>34.0</ele><time>2026-04-27T08:47:35.999Z</time></trkpt><trkpt lat="40.96201400476006" lon="19.71373800143569"><ele>36.333333333333336</ele><time>2026-04-27T08:47:36.999Z</time></trkpt><trkpt lat="40.96192827792709" lon="19.7135557877618"><ele>38.666666666666664</ele><time>2026-04-27T08:47:37.999Z</time></trkpt><trkpt lat="40.96184975858124" lon="19.71338967656116"><ele>41.0</ele><time>2026-04-27T08:47:38.999Z</time></trkpt><trkpt lat="40.961755692034" lon="19.71323601868277"><ele>39.0</ele><time>2026-04-27T08:47:39.999Z</time></trkpt><trkpt lat="40.961641947547385" lon="19.713111200892833"><ele>37.0</ele><time>2026-04-27T08:47:40.999Z</time></trkpt><trkpt lat="40.961521445655855" lon="19.71299550642597"><ele>35.0</ele><time>2026-04-27T08:47:41.999Z</time></trkpt><trkpt lat="40.96137922312179" lon="19.712903833256295"><ele>35.0</ele><time>2026-04-27T08:47:42.999Z</time></trkpt><trkpt lat="40.961242013384975" lon="19.712771446343705"><ele>35.0</ele><time>2026-04-27T08:47:43.999Z</time></trkpt><trkpt lat="40.96108707266321" lon="19.712661401101705"><ele>35.0</ele><time>2026-04-27T08:47:44.999Z</time></trkpt><trkpt lat="40.9609241005942" lon="19.71256994769434"><ele>34.0</ele><time>2026-04-27T08:47:45.999Z</time></trkpt><trkpt lat="40.9607706823779" lon="19.71245064002988"><ele>33.0</ele><time>2026-04-27T08:47:46.999Z</time></trkpt><trkpt lat="40.960624963239425" lon="19.712352678719444"><ele>32.0</ele><time>2026-04-27T08:47:47.999Z</time></trkpt><trkpt lat="40.96049025323934" lon="19.71226725831118"><ele>32.0</ele><time>2026-04-27T08:47:48.999Z</time></trkpt><trkpt lat="40.960364772763974" lon="19.712191593593328"><ele>32.0</ele><time>2026-04-27T08:47:49.999Z</time></trkpt><trkpt lat="40.96023540415017" lon="19.712117942530977"><ele>32.0</ele><time>2026-04-27T08:47:50.999Z</time></trkpt><trkpt lat="40.960092319715244" lon="19.712040869499234"><ele>32.0</ele><time>2026-04-27T08:47:51.999Z</time></trkpt><trkpt lat="40.959938014641324" lon="19.711977212781836"><ele>31.75</ele><time>2026-04-27T08:47:52.999Z</time></trkpt><trkpt lat="40.959803571855765" lon="19.71190827343376"><ele>31.5</ele><time>2026-04-27T08:47:53.999Z</time></trkpt><trkpt lat="40.959683213044265" lon="19.711847271786073"><ele>31.25</ele><time>2026-04-27T08:47:54.999Z</time></trkpt><trkpt lat="40.95955830688563" lon="19.711775527007656"><ele>31.0</ele><time>2026-04-27T08:47:55.999Z</time></trkpt><trkpt lat="40.959442674563356" lon="19.711679381767677"><ele>31.0</ele><time>2026-04-27T08:47:56.999Z</time></trkpt><trkpt lat="40.959326894026" lon="19.711583991510345"><ele>31.0</ele><time>2026-04-27T08:47:57.999Z</time></trkpt><trkpt lat="40.95921613434181" lon="19.711474956571774"><ele>31.0</ele><time>2026-04-27T08:47:58.999Z</time></trkpt><trkpt lat="40.95911702486561" lon="19.71135800846049"><ele>31.0</ele><time>2026-04-27T08:47:59.999Z</time></trkpt><trkpt lat="40.959030995785234" lon="19.711248043726858"><ele>32.75</ele><time>2026-04-27T08:48:00.999Z</time></trkpt><trkpt lat="40.95895539000675" lon="19.711166050319783"><ele>34.5</ele><time>2026-04-27T08:48:01.999Z</time></trkpt><trkpt lat="40.95884944396327" lon="19.711134153632248"><ele>36.25</ele><time>2026-04-27T08:48:02.999Z</time></trkpt><trkpt lat="40.95873431883976" lon="19.71111456902544"><ele>38.0</ele><time>2026-04-27T08:48:03.999Z</time></trkpt><trkpt lat="40.95860241702115" lon="19.711074329377322"><ele>36.33333333333333</ele><time>2026-04-27T08:48:04.999Z</time></trkpt><trkpt lat="40.95844350388871" lon="19.711049360705765"><ele>34.666666666666664</ele><time>2026-04-27T08:48:05.999Z</time></trkpt><trkpt lat="40.95827432473675" lon="19.71102721851216"><ele>33.0</ele><time>2026-04-27T08:48:06.999Z</time></trkpt><trkpt lat="40.95810140016037" lon="19.710999424212666"><ele>33.0</ele><time>2026-04-27T08:48:07.999Z</time></trkpt><trkpt lat="40.957933017702366" lon="19.710970924850326"><ele>33.0</ele><time>2026-04-27T08:48:08.999Z</time></trkpt><trkpt lat="40.95778099543959" lon="19.710946446182692"><ele>33.0</ele><time>2026-04-27T08:48:09.999Z</time></trkpt><trkpt lat="40.95764892033486" lon="19.710924651800347"><ele>33.0</ele><time>2026-04-27T08:48:10.999Z</time></trkpt><trkpt lat="40.957545804784544" lon="19.71087045494033"><ele>33.0</ele><time>2026-04-27T08:48:11.999Z</time></trkpt><trkpt lat="40.957443346113806" lon="19.710816210483014"><ele>33.0</ele><time>2026-04-27T08:48:12.999Z</time></trkpt><trkpt lat="40.95734288332307" lon="19.710763914046147"><ele>33.0</ele><time>2026-04-27T08:48:13.999Z</time></trkpt><trkpt lat="40.95723027129395" lon="19.710782286045816"><ele>33.0</ele><time>2026-04-27T08:48:14.999Z</time></trkpt><trkpt lat="40.957131469887464" lon="19.71077548061487"><ele>32.75</ele><time>2026-04-27T08:48:15.999Z</time></trkpt><trkpt lat="40.957018522935996" lon="19.710802357642653"><ele>32.5</ele><time>2026-04-27T08:48:16.999Z</time></trkpt><trkpt lat="40.95688836639265" lon="19.710858385001327"><ele>32.25</ele><time>2026-04-27T08:48:17.999Z</time></trkpt><trkpt lat="40.95674501772799" lon="19.7109223220939"><ele>32.0</ele><time>2026-04-27T08:48:18.999Z</time></trkpt><trkpt lat="40.956594048600095" lon="19.710982185470662"><ele>32.0</ele><time>2026-04-27T08:48:19.999Z</time></trkpt><trkpt lat="40.956432298891144" lon="19.711039389138474"><ele>32.0</ele><time>2026-04-27T08:48:20.999Z</time></trkpt><trkpt lat="40.95627814838318" lon="19.71109335742433"><ele>32.0</ele><time>2026-04-27T08:48:21.999Z</time></trkpt><trkpt lat="40.95613698705103" lon="19.71114229166915"><ele>33.5</ele><time>2026-04-27T08:48:22.999Z</time></trkpt><trkpt lat="40.956007165913725" lon="19.711175138839767"><ele>35.0</ele><time>2026-04-27T08:48:23.999Z</time></trkpt><trkpt lat="40.95587584670882" lon="19.711208193137324"><ele>36.5</ele><time>2026-04-27T08:48:24.999Z</time></trkpt><trkpt lat="40.95576108967646" lon="19.711252485601722"><ele>38.0</ele><time>2026-04-27T08:48:25.999Z</time></trkpt><trkpt lat="40.95564821175903" lon="19.711305195432526"><ele>38.0</ele><time>2026-04-27T08:48:26.999Z</time></trkpt><trkpt lat="40.955548207644895" lon="19.71135014231424"><ele>38.0</ele><time>2026-04-27T08:48:27.999Z</time></trkpt><trkpt lat="40.95545621469932" lon="19.711472105490643"><ele>38.0</ele><time>2026-04-27T08:48:28.999Z</time></trkpt><trkpt lat="40.955362933762586" lon="19.71157915073246"><ele>38.0</ele><time>2026-04-27T08:48:29.999Z</time></trkpt><trkpt lat="40.95526282385602" lon="19.711675161460985"><ele>38.0</ele><time>2026-04-27T08:48:30.999Z</time></trkpt><trkpt lat="40.955148627033125" lon="19.711724230476122"><ele>38.0</ele><time>2026-04-27T08:48:31.999Z</time></trkpt><trkpt lat="40.95503129168864" lon="19.71178711559123"><ele>38.0</ele><time>2026-04-27T08:48:32.999Z</time></trkpt><trkpt lat="40.95490660130384" lon="19.711847283503364"><ele>38.0</ele><time>2026-04-27T08:48:33.999Z</time></trkpt><trkpt lat="40.954783188924736" lon="19.711922468723692"><ele>39.25</ele><time>2026-04-27T08:48:34.999Z</time></trkpt><trkpt lat="40.95466952389247" lon="19.711972949413287"><ele>40.5</ele><time>2026-04-27T08:48:35.999Z</time></trkpt><trkpt lat="40.95455927482883" lon="19.712047179629696"><ele>41.75</ele><time>2026-04-27T08:48:36.999Z</time></trkpt><trkpt lat="40.95445895365736" lon="19.71215636538375"><ele>43.0</ele><time>2026-04-27T08:48:37.999Z</time></trkpt><trkpt lat="40.954365160870324" lon="19.71228441453351"><ele>43.0</ele><time>2026-04-27T08:48:38.999Z</time></trkpt><trkpt lat="40.954256333810065" lon="19.71240300602875"><ele>43.0</ele><time>2026-04-27T08:48:39.999Z</time></trkpt><trkpt lat="40.95414160345443" lon="19.712480397257078"><ele>43.0</ele><time>2026-04-27T08:48:40.999Z</time></trkpt><trkpt lat="40.95405763845038" lon="19.71255801490857"><ele>43.0</ele><time>2026-04-27T08:48:41.999Z</time></trkpt><trkpt lat="40.95399743558077" lon="19.712644531896057"><ele>42.0</ele><time>2026-04-27T08:48:42.999Z</time></trkpt><trkpt lat="40.95394275772699" lon="19.71272069869406"><ele>41.0</ele><time>2026-04-27T08:48:43.999Z</time></trkpt><trkpt lat="40.95391166550529" lon="19.712813618891307"><ele>40.0</ele><time>2026-04-27T08:48:44.999Z</time></trkpt><trkpt lat="40.95389323830576" lon="19.712926991204192"><ele>39.0</ele><time>2026-04-27T08:48:45.999Z</time></trkpt><trkpt lat="40.95389063165659" lon="19.713054426021504"><ele>38.0</ele><time>2026-04-27T08:48:46.999Z</time></trkpt><trkpt lat="40.953908657583" lon="19.71317857195667"><ele>37.0</ele><time>2026-04-27T08:48:47.999Z</time></trkpt><trkpt lat="40.95392332656883" lon="19.71330940166583"><ele>37.0</ele><time>2026-04-27T08:48:48.999Z</time></trkpt><trkpt lat="40.953933458979456" lon="19.713421445695076"><ele>37.0</ele><time>2026-04-27T08:48:49.999Z</time></trkpt><trkpt lat="40.95391478819835" lon="19.713508698696593"><ele>37.0</ele><time>2026-04-27T08:48:50.999Z</time></trkpt><trkpt lat="40.9539055721102" lon="19.713627533085667"><ele>37.0</ele><time>2026-04-27T08:48:52.999Z</time></trkpt><trkpt lat="40.95384163129427" lon="19.71367058473934"><ele>37.0</ele><time>2026-04-27T08:48:54.999Z</time></trkpt><trkpt lat="40.953778930883914" lon="19.713551961740443"><ele>37.0</ele><time>2026-04-27T08:48:56.999Z</time></trkpt><trkpt lat="40.953716001274934" lon="19.713503104404715"><ele>37.0</ele><time>2026-04-27T08:48:57.999Z</time></trkpt><trkpt lat="40.953635675865435" lon="19.713440031129235"><ele>37.0</ele><time>2026-04-27T08:48:58.999Z</time></trkpt><trkpt lat="40.953536877078854" lon="19.71336167225109"><ele>37.0</ele><time>2026-04-27T08:48:59.999Z</time></trkpt><trkpt lat="40.95342335797523" lon="19.713271638548044"><ele>37.0</ele><time>2026-04-27T08:49:00.999Z</time></trkpt><trkpt lat="40.95331028575939" lon="19.713181739108695"><ele>33.75</ele><time>2026-04-27T08:49:01.999Z</time></trkpt><trkpt lat="40.95319108208638" lon="19.713086732454112"><ele>30.5</ele><time>2026-04-27T08:49:02.999Z</time></trkpt><trkpt lat="40.95306647443622" lon="19.71298712341568"><ele>27.25</ele><time>2026-04-27T08:49:03.999Z</time></trkpt><trkpt lat="40.95294993698606" lon="19.712913831223243"><ele>24.0</ele><time>2026-04-27T08:49:05Z</time></trkpt><trkpt lat="40.95286867978654" lon="19.712845055527577"><ele>24.0</ele><time>2026-04-27T08:49:06Z</time></trkpt><trkpt lat="40.952799697527425" lon="19.7128244816554"><ele>24.0</ele><time>2026-04-27T08:49:07Z</time></trkpt><trkpt lat="40.95270520895852" lon="19.712826064127047"><ele>24.0</ele><time>2026-04-27T08:49:08Z</time></trkpt><trkpt lat="40.95260321750436" lon="19.712838694888667"><ele>24.0</ele><time>2026-04-27T08:49:09Z</time></trkpt><trkpt lat="40.952494400087474" lon="19.71285897198828"><ele>24.0</ele><time>2026-04-27T08:49:10Z</time></trkpt><trkpt lat="40.95237956933596" lon="19.71287483169572"><ele>24.799999999999997</ele><time>2026-04-27T08:49:11Z</time></trkpt><trkpt lat="40.95226126934265" lon="19.712880530047872"><ele>25.599999999999998</ele><time>2026-04-27T08:49:12Z</time></trkpt><trkpt lat="40.952146157679465" lon="19.71288413096594"><ele>26.4</ele><time>2026-04-27T08:49:13Z</time></trkpt><trkpt lat="40.95204258571474" lon="19.712888019017257"><ele>27.2</ele><time>2026-04-27T08:49:14Z</time></trkpt><trkpt lat="40.95193727493007" lon="19.712881550663624"><ele>28.0</ele><time>2026-04-27T08:49:15Z</time></trkpt><trkpt lat="40.95184326049974" lon="19.712843516284998"><ele>28.0</ele><time>2026-04-27T08:49:16Z</time></trkpt><trkpt lat="40.95175910674603" lon="19.71281261487872"><ele>27.999999999999996</ele><time>2026-04-27T08:49:17Z</time></trkpt><trkpt lat="40.95167009408627" lon="19.712763503726507"><ele>27.999999999999996</ele><time>2026-04-27T08:49:18Z</time></trkpt><trkpt lat="40.951566965221424" lon="19.712712614998434"><ele>28.0</ele><time>2026-04-27T08:49:19Z</time></trkpt><trkpt lat="40.95145967586631" lon="19.71265623440809"><ele>28.0</ele><time>2026-04-27T08:49:20Z</time></trkpt><trkpt lat="40.95135117721864" lon="19.712591521092847"><ele>27.799999999999997</ele><time>2026-04-27T08:49:21Z</time></trkpt><trkpt lat="40.95125177285786" lon="19.712516465843997"><ele>27.599999999999998</ele><time>2026-04-27T08:49:22Z</time></trkpt><trkpt lat="40.95116450755951" lon="19.712444241421654"><ele>27.400000000000002</ele><time>2026-04-27T08:49:23Z</time></trkpt><trkpt lat="40.95109203109532" lon="19.71237749297531"><ele>27.200000000000003</ele><time>2026-04-27T08:49:24Z</time></trkpt><trkpt lat="40.9510305680053" lon="19.712312950110068"><ele>27.0</ele><time>2026-04-27T08:49:25Z</time></trkpt><trkpt lat="40.95096330425564" lon="19.712237648927307"><ele>27.0</ele><time>2026-04-27T08:49:26Z</time></trkpt><trkpt lat="40.950886772752725" lon="19.712145895901738"><ele>27.0</ele><time>2026-04-27T08:49:27Z</time></trkpt><trkpt lat="40.95080872385789" lon="19.71204037261195"><ele>27.0</ele><time>2026-04-27T08:49:28Z</time></trkpt><trkpt lat="40.9507261446758" lon="19.711926526864954"><ele>27.0</ele><time>2026-04-27T08:49:29Z</time></trkpt><trkpt lat="40.95063082316978" lon="19.711822349213406"><ele>27.0</ele><time>2026-04-27T08:49:30Z</time></trkpt><trkpt lat="40.95055250636196" lon="19.71168631095405"><ele>27.0</ele><time>2026-04-27T08:49:31Z</time></trkpt><trkpt lat="40.95048934425126" lon="19.711528489611396"><ele>27.0</ele><time>2026-04-27T08:49:32Z</time></trkpt><trkpt lat="40.95039749806994" lon="19.71139458092281"><ele>27.0</ele><time>2026-04-27T08:49:33Z</time></trkpt><trkpt lat="40.950315987808224" lon="19.711244458299877"><ele>27.0</ele><time>2026-04-27T08:49:34Z</time></trkpt><trkpt lat="40.9502292431463" lon="19.711088577929278"><ele>27.0</ele><time>2026-04-27T08:49:35Z</time></trkpt><trkpt lat="40.95014741687702" lon="19.710942685781085"><ele>27.0</ele><time>2026-04-27T08:49:36Z</time></trkpt><trkpt lat="40.95007497719242" lon="19.710811310830554"><ele>27.0</ele><time>2026-04-27T08:49:37Z</time></trkpt><trkpt lat="40.950021354249806" lon="19.71067772521566"><ele>27.0</ele><time>2026-04-27T08:49:38Z</time></trkpt><trkpt lat="40.949958524991324" lon="19.71056312835474"><ele>27.000000000000004</ele><time>2026-04-27T08:49:39Z</time></trkpt><trkpt lat="40.949898711028354" lon="19.7104548902783"><ele>27.000000000000004</ele><time>2026-04-27T08:49:40Z</time></trkpt><trkpt lat="40.94984322344746" lon="19.710354481040433"><ele>27.0</ele><time>2026-04-27T08:49:41Z</time></trkpt><trkpt lat="40.949791883333695" lon="19.710261577230757"><ele>27.0</ele><time>2026-04-27T08:49:42Z</time></trkpt><trkpt lat="40.94974354853675" lon="19.710173651101297"><ele>27.0</ele><time>2026-04-27T08:49:43Z</time></trkpt><trkpt lat="40.94969906269117" lon="19.710092684814676"><ele>27.0</ele><time>2026-04-27T08:49:44Z</time></trkpt><trkpt lat="40.949657071664674" lon="19.710016259614505"><ele>27.0</ele><time>2026-04-27T08:49:45Z</time></trkpt><trkpt lat="40.9496132483405" lon="19.709936499489203"><ele>27.0</ele><time>2026-04-27T08:49:46Z</time></trkpt><trkpt lat="40.94955828066508" lon="19.7098264967525"><ele>27.0</ele><time>2026-04-27T08:49:47Z</time></trkpt><trkpt lat="40.949513196478506" lon="19.70969358031661"><ele>27.0</ele><time>2026-04-27T08:49:48Z</time></trkpt><trkpt lat="40.949493376603215" lon="19.709551938508294"><ele>26.75</ele><time>2026-04-27T08:49:49Z</time></trkpt><trkpt lat="40.949488299259606" lon="19.709399600372304"><ele>26.5</ele><time>2026-04-27T08:49:50Z</time></trkpt><trkpt lat="40.949483080723084" lon="19.709230433385205"><ele>26.25</ele><time>2026-04-27T08:49:50.999Z</time></trkpt><trkpt lat="40.949475715451506" lon="19.709066534022146"><ele>26.0</ele><time>2026-04-27T08:49:51.999Z</time></trkpt><trkpt lat="40.949457916324135" lon="19.708918911732788"><ele>26.0</ele><time>2026-04-27T08:49:52.999Z</time></trkpt><trkpt lat="40.94941037092582" lon="19.708792146133934"><ele>26.0</ele><time>2026-04-27T08:49:53.999Z</time></trkpt><trkpt lat="40.94938104203461" lon="19.708651115795874"><ele>26.0</ele><time>2026-04-27T08:49:54.999Z</time></trkpt><trkpt lat="40.94931798455666" lon="19.708516387672702"><ele>26.0</ele><time>2026-04-27T08:49:55.999Z</time></trkpt><trkpt lat="40.94923739766728" lon="19.708389203413756"><ele>26.0</ele><time>2026-04-27T08:49:56.999Z</time></trkpt><trkpt lat="40.94914856586178" lon="19.708271285515824"><ele>26.0</ele><time>2026-04-27T08:49:57.999Z</time></trkpt><trkpt lat="40.949054399031965" lon="19.70815415758173"><ele>26.0</ele><time>2026-04-27T08:49:58.999Z</time></trkpt><trkpt lat="40.94895593056532" lon="19.708047999465066"><ele>26.0</ele><time>2026-04-27T08:49:59.999Z</time></trkpt><trkpt lat="40.94885625009792" lon="19.707960529034334"><ele>26.0</ele><time>2026-04-27T08:50:00.999Z</time></trkpt><trkpt lat="40.94874708240038" lon="19.707908790073112"><ele>26.0</ele><time>2026-04-27T08:50:01.999Z</time></trkpt><trkpt lat="40.94863771340073" lon="19.707851965523194"><ele>26.0</ele><time>2026-04-27T08:50:02.999Z</time></trkpt><trkpt lat="40.94852097182354" lon="19.707799384830594"><ele>26.0</ele><time>2026-04-27T08:50:03.999Z</time></trkpt><trkpt lat="40.94840401609123" lon="19.707753524586302"><ele>26.0</ele><time>2026-04-27T08:50:04.999Z</time></trkpt><trkpt lat="40.94828175263745" lon="19.707707437595076"><ele>26.0</ele><time>2026-04-27T08:50:05.999Z</time></trkpt><trkpt lat="40.94816216253069" lon="19.70765344600462"><ele>26.0</ele><time>2026-04-27T08:50:06.999Z</time></trkpt><trkpt lat="40.94803400791206" lon="19.707599766446254"><ele>26.0</ele><time>2026-04-27T08:50:07.999Z</time></trkpt><trkpt lat="40.94790463386637" lon="19.707551932908636"><ele>26.0</ele><time>2026-04-27T08:50:08.999Z</time></trkpt><trkpt lat="40.94778745136041" lon="19.707506809603338"><ele>26.0</ele><time>2026-04-27T08:50:09.999Z</time></trkpt><trkpt lat="40.94768570896288" lon="19.707459070300985"><ele>26.0</ele><time>2026-04-27T08:50:10.999Z</time></trkpt><trkpt lat="40.947588293881964" lon="19.707417576549233"><ele>26.0</ele><time>2026-04-27T08:50:11.999Z</time></trkpt><trkpt lat="40.94748810427293" lon="19.70737636564064"><ele>26.0</ele><time>2026-04-27T08:50:12.999Z</time></trkpt><trkpt lat="40.94739128285717" lon="19.707335975787096"><ele>25.857142857142858</ele><time>2026-04-27T08:50:13.999Z</time></trkpt><trkpt lat="40.947305581173744" lon="19.70729708490323"><ele>25.714285714285715</ele><time>2026-04-27T08:50:14.999Z</time></trkpt><trkpt lat="40.94723733090421" lon="19.707273654693154"><ele>25.571428571428573</ele><time>2026-04-27T08:50:15.999Z</time></trkpt><trkpt lat="40.94717578427382" lon="19.707244595379255"><ele>25.42857142857143</ele><time>2026-04-27T08:50:16.999Z</time></trkpt><trkpt lat="40.94710752848805" lon="19.707224590185923"><ele>25.285714285714285</ele><time>2026-04-27T08:50:17.999Z</time></trkpt><trkpt lat="40.94703896478072" lon="19.707180631788322"><ele>25.142857142857146</ele><time>2026-04-27T08:50:18.999Z</time></trkpt><trkpt lat="40.946977119778374" lon="19.707152597946973"><ele>25.0</ele><time>2026-04-27T08:50:19.999Z</time></trkpt><trkpt lat="40.946916815317" lon="19.70712710532233"><ele>25.000000000000004</ele><time>2026-04-27T08:50:20.999Z</time></trkpt><trkpt lat="40.94684599686875" lon="19.707111110240117"><ele>25.0</ele><time>2026-04-27T08:50:21.999Z</time></trkpt><trkpt lat="40.946769926445725" lon="19.707071389159122"><ele>25.0</ele><time>2026-04-27T08:50:22.999Z</time></trkpt><trkpt lat="40.94669119479067" lon="19.7070381832618"><ele>25.0</ele><time>2026-04-27T08:50:23.999Z</time></trkpt><trkpt lat="40.94661056665063" lon="19.707008723867663"><ele>25.000000000000004</ele><time>2026-04-27T08:50:24.999Z</time></trkpt><trkpt lat="40.946523455536145" lon="19.706968642355346"><ele>25.0</ele><time>2026-04-27T08:50:25.999Z</time></trkpt><trkpt lat="40.94642999654287" lon="19.706930370653797"><ele>25.0</ele><time>2026-04-27T08:50:26.999Z</time></trkpt><trkpt lat="40.94633547594481" lon="19.706889688283216"><ele>25.0</ele><time>2026-04-27T08:50:27.999Z</time></trkpt><trkpt lat="40.946243703089955" lon="19.706855020694537"><ele>25.0</ele><time>2026-04-27T08:50:28.999Z</time></trkpt><trkpt lat="40.946157788027904" lon="19.706801625967074"><ele>25.0</ele><time>2026-04-27T08:50:29.999Z</time></trkpt><trkpt lat="40.94607306442958" lon="19.70676360932487"><ele>25.0</ele><time>2026-04-27T08:50:30.999Z</time></trkpt><trkpt lat="40.94597726186569" lon="19.706724570744786"><ele>24.8</ele><time>2026-04-27T08:50:31.999Z</time></trkpt><trkpt lat="40.94587754603567" lon="19.706683361647592"><ele>24.6</ele><time>2026-04-27T08:50:32.999Z</time></trkpt><trkpt lat="40.94579030982157" lon="19.70664730995192"><ele>24.4</ele><time>2026-04-27T08:50:33.999Z</time></trkpt><trkpt lat="40.9457072246689" lon="19.70661297373178"><ele>24.2</ele><time>2026-04-27T08:50:34.999Z</time></trkpt><trkpt lat="40.94561769552078" lon="19.70657597444324"><ele>24.0</ele><time>2026-04-27T08:50:35.999Z</time></trkpt><trkpt lat="40.945532493992665" lon="19.706540763744353"><ele>24.0</ele><time>2026-04-27T08:50:36.999Z</time></trkpt><trkpt lat="40.945455551979464" lon="19.70650825451171"><ele>24.0</ele><time>2026-04-27T08:50:37.999Z</time></trkpt><trkpt lat="40.94537394506699" lon="19.70647066786401"><ele>24.0</ele><time>2026-04-27T08:50:38.999Z</time></trkpt><trkpt lat="40.9452907107796" lon="19.70643141336108"><ele>24.0</ele><time>2026-04-27T08:50:39.999Z</time></trkpt><trkpt lat="40.94520006114119" lon="19.70638866167762"><ele>24.0</ele><time>2026-04-27T08:50:40.999Z</time></trkpt><trkpt lat="40.94511425434272" lon="19.706348193931362"><ele>24.0</ele><time>2026-04-27T08:50:41.999Z</time></trkpt><trkpt lat="40.9450413268003" lon="19.706314328464476"><ele>23.833333333333332</ele><time>2026-04-27T08:50:42.999Z</time></trkpt><trkpt lat="40.944972720108254" lon="19.7062847244574"><ele>23.666666666666668</ele><time>2026-04-27T08:50:43.999Z</time></trkpt><trkpt lat="40.944910007964715" lon="19.70625766397728"><ele>23.5</ele><time>2026-04-27T08:50:44.999Z</time></trkpt><trkpt lat="40.94484080199561" lon="19.706223505029367"><ele>23.333333333333336</ele><time>2026-04-27T08:50:46.999Z</time></trkpt><trkpt lat="40.94476677956687" lon="19.706178400046525"><ele>23.166666666666668</ele><time>2026-04-27T08:50:49.999Z</time></trkpt><trkpt lat="40.944727246470954" lon="19.706072334193458"><ele>23.0</ele><time>2026-04-27T08:50:51.999Z</time></trkpt><trkpt lat="40.944629409423314" lon="19.706101732257743"><ele>23.0</ele><time>2026-04-27T08:50:53.999Z</time></trkpt><trkpt lat="40.94454580846948" lon="19.70612975071173"><ele>23.0</ele><time>2026-04-27T08:50:56.999Z</time></trkpt><trkpt lat="40.94448474283366" lon="19.706098187660235"><ele>23.0</ele><time>2026-04-27T08:50:59.999Z</time></trkpt><trkpt lat="40.94442344818922" lon="19.706073229065"><ele>23.0</ele><time>2026-04-27T08:51:02.999Z</time></trkpt><trkpt lat="40.94433218708686" lon="19.70601272062024"><ele>23.0</ele><time>2026-04-27T08:51:05.999Z</time></trkpt><trkpt lat="40.94424974428358" lon="19.705942770685652"><ele>23.0</ele><time>2026-04-27T08:51:07.999Z</time></trkpt><trkpt lat="40.944184507512404" lon="19.705885603507443"><ele>22.833333333333336</ele><time>2026-04-27T08:51:11Z</time></trkpt><trkpt lat="40.944124176562475" lon="19.705819671747715"><ele>22.666666666666668</ele><time>2026-04-27T08:51:14Z</time></trkpt><trkpt lat="40.94406889906626" lon="19.70575723421332"><ele>22.5</ele><time>2026-04-27T08:51:18Z</time></trkpt><trkpt lat="40.9440005789649" lon="19.705685719571523"><ele>22.333333333333332</ele><time>2026-04-27T08:51:21Z</time></trkpt><trkpt lat="40.94395839210578" lon="19.70559066422052"><ele>22.166666666666664</ele><time>2026-04-27T08:51:24Z</time></trkpt><trkpt lat="40.94391017065638" lon="19.705517670603115"><ele>22.0</ele><time>2026-04-27T08:51:31Z</time></trkpt><trkpt lat="40.94386759436546" lon="19.705453222153814"><ele>22.0</ele><time>2026-04-27T08:51:34Z</time></trkpt><trkpt lat="40.94381351822564" lon="19.705367341445232"><ele>22.0</ele><time>2026-04-27T08:51:38Z</time></trkpt><trkpt lat="40.94377161557538" lon="19.705298012073168"><ele>22.0</ele><time>2026-04-27T08:51:40Z</time></trkpt><trkpt lat="40.94373102572421" lon="19.705230854765748"><ele>22.0</ele><time>2026-04-27T08:51:42Z</time></trkpt><trkpt lat="40.94369110210002" lon="19.705164799769168"><ele>22.0</ele><time>2026-04-27T08:51:45Z</time></trkpt><trkpt lat="40.943641822408814" lon="19.70507892481892"><ele>22.0</ele><time>2026-04-27T08:51:49Z</time></trkpt><trkpt lat="40.943591173668025" lon="19.704989535803026"><ele>22.0</ele><time>2026-04-27T08:51:52Z</time></trkpt><trkpt lat="40.94354738449079" lon="19.704912260786617"><ele>22.0</ele><time>2026-04-27T08:51:54Z</time></trkpt><trkpt lat="40.943505073250044" lon="19.704837593889383"><ele>22.0</ele><time>2026-04-27T08:51:56Z</time></trkpt><trkpt lat="40.943461765504935" lon="19.704766354156806"><ele>22.0</ele><time>2026-04-27T08:52:00Z</time></trkpt><trkpt lat="40.94341092722937" lon="19.70469150370646"><ele>22.0</ele><time>2026-04-27T08:52:02.999Z</time></trkpt><trkpt lat="40.943332519495826" lon="19.70457606215787"><ele>22.0</ele><time>2026-04-27T08:52:04.999Z</time></trkpt><trkpt lat="40.94327876023321" lon="19.704496911202536"><ele>22.0</ele><time>2026-04-27T08:52:05.999Z</time></trkpt><trkpt lat="40.9431981653545" lon="19.704417239915585"><ele>22.166666666666664</ele><time>2026-04-27T08:52:06.999Z</time></trkpt><trkpt lat="40.943127567167686" lon="19.704329302355056"><ele>22.333333333333332</ele><time>2026-04-27T08:52:07.999Z</time></trkpt><trkpt lat="40.943073695575066" lon="19.70426219955026"><ele>22.5</ele><time>2026-04-27T08:52:08.999Z</time></trkpt><trkpt lat="40.943005185039496" lon="19.704185599131225"><ele>22.666666666666668</ele><time>2026-04-27T08:52:10.999Z</time></trkpt><trkpt lat="40.942961187494085" lon="19.704102409765273"><ele>22.833333333333336</ele><time>2026-04-27T08:52:13.999Z</time></trkpt><trkpt lat="40.94289260878661" lon="19.704036636725302"><ele>23.0</ele><time>2026-04-27T08:52:16.999Z</time></trkpt><trkpt lat="40.94281293524346" lon="19.704114684230536"><ele>23.0</ele><time>2026-04-27T08:52:17.999Z</time></trkpt><trkpt lat="40.942754527357415" lon="19.704159936802178"><ele>23.0</ele><time>2026-04-27T08:52:24.999Z</time></trkpt><trkpt lat="40.94269520288535" lon="19.70421505384967"><ele>23.0</ele><time>2026-04-27T08:52:26.999Z</time></trkpt><trkpt lat="40.9426300594149" lon="19.704242259390032"><ele>23.0</ele><time>2026-04-27T08:52:27.999Z</time></trkpt><trkpt lat="40.94257244294916" lon="19.70430019212135"><ele>23.0</ele><time>2026-04-27T08:52:28.999Z</time></trkpt><trkpt lat="40.94249549387464" lon="19.704347369706454"><ele>23.0</ele><time>2026-04-27T08:52:29.999Z</time></trkpt><trkpt lat="40.942424060235325" lon="19.704394314662647"><ele>23.0</ele><time>2026-04-27T08:52:30.999Z</time></trkpt><trkpt lat="40.942339280711856" lon="19.704456893418712"><ele>22.799999999999997</ele><time>2026-04-27T08:52:31.999Z</time></trkpt><trkpt lat="40.94224672318426" lon="19.704525213400004"><ele>22.6</ele><time>2026-04-27T08:52:32.999Z</time></trkpt><trkpt lat="40.942146412179184" lon="19.70459925649722"><ele>22.4</ele><time>2026-04-27T08:52:33.999Z</time></trkpt><trkpt lat="40.94205419292439" lon="19.704667326781642"><ele>22.200000000000003</ele><time>2026-04-27T08:52:34.999Z</time></trkpt><trkpt lat="40.94197298923312" lon="19.70472726609699"><ele>22.0</ele><time>2026-04-27T08:52:35.999Z</time></trkpt><trkpt lat="40.94190574307194" lon="19.704776902862587"><ele>22.0</ele><time>2026-04-27T08:52:36.999Z</time></trkpt><trkpt lat="40.94184905861532" lon="19.704818743659974"><ele>22.0</ele><time>2026-04-27T08:52:37.999Z</time></trkpt><trkpt lat="40.9417738331082" lon="19.70487427026282"><ele>22.0</ele><time>2026-04-27T08:52:39.999Z</time></trkpt><trkpt lat="40.94170195199" lon="19.704927328252417"><ele>22.0</ele><time>2026-04-27T08:52:42.999Z</time></trkpt><trkpt lat="40.94162858885261" lon="19.704981480142237"><ele>22.0</ele><time>2026-04-27T08:52:44.999Z</time></trkpt><trkpt lat="40.941542822420026" lon="19.705032254162525"><ele>22.0</ele><time>2026-04-27T08:52:51.999Z</time></trkpt><trkpt lat="40.94144652355029" lon="19.7051297239225"><ele>22.0</ele><time>2026-04-27T08:52:53.999Z</time></trkpt><trkpt lat="40.94136599561726" lon="19.705182124064187"><ele>22.0</ele><time>2026-04-27T08:52:55.999Z</time></trkpt><trkpt lat="40.941280535498386" lon="19.70524982964375"><ele>22.0</ele><time>2026-04-27T08:52:57.999Z</time></trkpt><trkpt lat="40.94117045502291" lon="19.70531655564003"><ele>22.0</ele><time>2026-04-27T08:52:59.999Z</time></trkpt><trkpt lat="40.94111470712811" lon="19.70535796766568"><ele>22.0</ele><time>2026-04-27T08:53:00.999Z</time></trkpt><trkpt lat="40.94105450674059" lon="19.705397043011054"><ele>22.0</ele><time>2026-04-27T08:53:01.999Z</time></trkpt><trkpt lat="40.94099386694204" lon="19.70543520809694"><ele>21.857142857142858</ele><time>2026-04-27T08:53:02.999Z</time></trkpt><trkpt lat="40.94093237712268" lon="19.70547181744356"><ele>21.714285714285715</ele><time>2026-04-27T08:53:03.999Z</time></trkpt><trkpt lat="40.94086766589014" lon="19.705506582982107"><ele>21.57142857142857</ele><time>2026-04-27T08:53:04.999Z</time></trkpt><trkpt lat="40.94080200992844" lon="19.70553310048525"><ele>21.42857142857143</ele><time>2026-04-27T08:53:05.999Z</time></trkpt><trkpt lat="40.94073181143807" lon="19.70555192219247"><ele>21.285714285714285</ele><time>2026-04-27T08:53:06.999Z</time></trkpt><trkpt lat="40.940659754262484" lon="19.705563923396873"><ele>21.142857142857142</ele><time>2026-04-27T08:53:07.999Z</time></trkpt><trkpt lat="40.940589095323766" lon="19.705570751299106"><ele>21.0</ele><time>2026-04-27T08:53:08.999Z</time></trkpt><trkpt lat="40.94051868185631" lon="19.705584085696923"><ele>20.666666666666668</ele><time>2026-04-27T08:53:09.999Z</time></trkpt><trkpt lat="40.940446621698165" lon="19.705599930109283"><ele>20.333333333333332</ele><time>2026-04-27T08:53:10.999Z</time></trkpt><trkpt lat="40.94037369774817" lon="19.705619541191094"><ele>20.0</ele><time>2026-04-27T08:53:11.999Z</time></trkpt><trkpt lat="40.94029806027692" lon="19.705634980002404"><ele>19.666666666666664</ele><time>2026-04-27T08:53:12.999Z</time></trkpt><trkpt lat="40.9402185766849" lon="19.705644154759906"><ele>19.333333333333332</ele><time>2026-04-27T08:53:13.999Z</time></trkpt><trkpt lat="40.940133899882525" lon="19.705658125705938"><ele>19.0</ele><time>2026-04-27T08:53:14.999Z</time></trkpt><trkpt lat="40.94004701794741" lon="19.705672281181297"><ele>19.0</ele><time>2026-04-27T08:53:15.999Z</time></trkpt><trkpt lat="40.93996012549759" lon="19.705681703702087"><ele>19.0</ele><time>2026-04-27T08:53:17Z</time></trkpt><trkpt lat="40.9398755222019" lon="19.70569243983684"><ele>19.0</ele><time>2026-04-27T08:53:18Z</time></trkpt><trkpt lat="40.939792655945595" lon="19.705698397756038"><ele>19.0</ele><time>2026-04-27T08:53:19Z</time></trkpt><trkpt lat="40.93971130222539" lon="19.705704135231223"><ele>19.0</ele><time>2026-04-27T08:53:20Z</time></trkpt><trkpt lat="40.93962801238756" lon="19.705719754787825"><ele>19.0</ele><time>2026-04-27T08:53:21Z</time></trkpt><trkpt lat="40.939543769878604" lon="19.70573846321553"><ele>19.0</ele><time>2026-04-27T08:53:22Z</time></trkpt><trkpt lat="40.939459626376305" lon="19.705751110360495"><ele>19.0</ele><time>2026-04-27T08:53:23Z</time></trkpt><trkpt lat="40.939378520782206" lon="19.705764155163322"><ele>19.0</ele><time>2026-04-27T08:53:24Z</time></trkpt><trkpt lat="40.93931104913174" lon="19.705780360910108"><ele>19.0</ele><time>2026-04-27T08:53:25Z</time></trkpt><trkpt lat="40.93924749798141" lon="19.705785671313333"><ele>19.0</ele><time>2026-04-27T08:53:26Z</time></trkpt><trkpt lat="40.9391465825401" lon="19.705797931802334"><ele>19.0</ele><time>2026-04-27T08:53:28Z</time></trkpt><trkpt lat="40.9390776484694" lon="19.705820962691366"><ele>19.2</ele><time>2026-04-27T08:53:31.999Z</time></trkpt><trkpt lat="40.93901228662042" lon="19.705828139201632"><ele>19.4</ele><time>2026-04-27T08:53:36Z</time></trkpt><trkpt lat="40.93894640283258" lon="19.70585555349559"><ele>19.6</ele><time>2026-04-27T08:53:38Z</time></trkpt><trkpt lat="40.93885853074099" lon="19.705883077724565"><ele>19.8</ele><time>2026-04-27T08:53:40Z</time></trkpt><trkpt lat="40.93876237159345" lon="19.70590642066826"><ele>20.0</ele><time>2026-04-27T08:53:42Z</time></trkpt><trkpt lat="40.938630378745856" lon="19.70591350102397"><ele>20.0</ele><time>2026-04-27T08:53:44Z</time></trkpt><trkpt lat="40.93856069058317" lon="19.7059216750018"><ele>20.0</ele><time>2026-04-27T08:53:45Z</time></trkpt><trkpt lat="40.93849596538814" lon="19.705945728003133"><ele>20.0</ele><time>2026-04-27T08:53:46Z</time></trkpt><trkpt lat="40.93837583013381" lon="19.70596350099431"><ele>20.0</ele><time>2026-04-27T08:53:48Z</time></trkpt><trkpt lat="40.93831126671641" lon="19.705976167777695"><ele>20.0</ele><time>2026-04-27T08:53:49Z</time></trkpt><trkpt lat="40.93824030701806" lon="19.70598942299142"><ele>20.0</ele><time>2026-04-27T08:53:50Z</time></trkpt><trkpt lat="40.938168600909506" lon="19.70600783066616"><ele>20.0</ele><time>2026-04-27T08:53:51Z</time></trkpt><trkpt lat="40.93810162725124" lon="19.706026402523328"><ele>20.0</ele><time>2026-04-27T08:53:52Z</time></trkpt><trkpt lat="40.9379947904675" lon="19.706050569414966"><ele>20.0</ele><time>2026-04-27T08:53:54Z</time></trkpt><trkpt lat="40.93788792343447" lon="19.706078887482438"><ele>20.0</ele><time>2026-04-27T08:53:55.999Z</time></trkpt><trkpt lat="40.937793561280294" lon="19.706093834246694"><ele>20.0</ele><time>2026-04-27T08:53:57.999Z</time></trkpt><trkpt lat="40.93768163913601" lon="19.70611354147581"><ele>20.0</ele><time>2026-04-27T08:53:59.999Z</time></trkpt><trkpt lat="40.93756087956545" lon="19.706149052325472"><ele>20.0</ele><time>2026-04-27T08:54:01.999Z</time></trkpt><trkpt lat="40.937435793733" lon="19.706173425050146"><ele>20.0</ele><time>2026-04-27T08:54:03.999Z</time></trkpt><trkpt lat="40.9373253632245" lon="19.706193159389056"><ele>20.0</ele><time>2026-04-27T08:54:05.999Z</time></trkpt><trkpt lat="40.93722737457427" lon="19.70621627939308"><ele>19.666666666666668</ele><time>2026-04-27T08:54:07.999Z</time></trkpt><trkpt lat="40.93711090548662" lon="19.706244627485113"><ele>19.333333333333336</ele><time>2026-04-27T08:54:09.999Z</time></trkpt><trkpt lat="40.93703952611283" lon="19.70626637204937"><ele>19.0</ele><time>2026-04-27T08:54:10.999Z</time></trkpt><trkpt lat="40.93697120125139" lon="19.706286802006005"><ele>18.666666666666668</ele><time>2026-04-27T08:54:11.999Z</time></trkpt><trkpt lat="40.936908774111046" lon="19.70631047180262"><ele>18.333333333333332</ele><time>2026-04-27T08:54:12.999Z</time></trkpt><trkpt lat="40.93684916378241" lon="19.706338461849107"><ele>18.0</ele><time>2026-04-27T08:54:13.999Z</time></trkpt><trkpt lat="40.93673354368432" lon="19.70639549145457"><ele>18.2</ele><time>2026-04-27T08:54:15.999Z</time></trkpt><trkpt lat="40.93662069990296" lon="19.706460838275547"><ele>18.4</ele><time>2026-04-27T08:54:17.999Z</time></trkpt><trkpt lat="40.93652438017339" lon="19.70650995274254"><ele>18.599999999999998</ele><time>2026-04-27T08:54:19.999Z</time></trkpt><trkpt lat="40.936435584156825" lon="19.706555815600296"><ele>18.8</ele><time>2026-04-27T08:54:21.999Z</time></trkpt><trkpt lat="40.936327603051836" lon="19.70661941535272"><ele>19.0</ele><time>2026-04-27T08:54:23.999Z</time></trkpt><trkpt lat="40.936231595792556" lon="19.70667208043724"><ele>19.0</ele><time>2026-04-27T08:54:25.999Z</time></trkpt><trkpt lat="40.93614878580552" lon="19.706730031820943"><ele>19.0</ele><time>2026-04-27T08:54:27.999Z</time></trkpt><trkpt lat="40.93609347097818" lon="19.70677138129004"><ele>19.0</ele><time>2026-04-27T08:54:28.999Z</time></trkpt><trkpt lat="40.93602533972904" lon="19.70681330480837"><ele>19.0</ele><time>2026-04-27T08:54:29.999Z</time></trkpt><trkpt lat="40.935947080940984" lon="19.706855832079704"><ele>19.0</ele><time>2026-04-27T08:54:30.999Z</time></trkpt><trkpt lat="40.93586790664882" lon="19.706888812109348"><ele>19.0</ele><time>2026-04-27T08:54:31.999Z</time></trkpt><trkpt lat="40.935807503115456" lon="19.706915749122594"><ele>19.0</ele><time>2026-04-27T08:54:32.999Z</time></trkpt><trkpt lat="40.93570118693938" lon="19.70697258847571"><ele>19.0</ele><time>2026-04-27T08:54:34.999Z</time></trkpt><trkpt lat="40.93563969092359" lon="19.707005672152995"><ele>19.0</ele><time>2026-04-27T08:54:35.999Z</time></trkpt><trkpt lat="40.93553786488001" lon="19.707061859233566"><ele>19.0</ele><time>2026-04-27T08:54:37.999Z</time></trkpt><trkpt lat="40.93543651673642" lon="19.707126056462553"><ele>19.0</ele><time>2026-04-27T08:54:39.999Z</time></trkpt><trkpt lat="40.93533480782501" lon="19.707193203849794"><ele>19.0</ele><time>2026-04-27T08:54:41.999Z</time></trkpt><trkpt lat="40.93522796191665" lon="19.70727535376297"><ele>19.0</ele><time>2026-04-27T08:54:43.999Z</time></trkpt><trkpt lat="40.93513416549583" lon="19.707346106647467"><ele>19.0</ele><time>2026-04-27T08:54:45.999Z</time></trkpt><trkpt lat="40.93505915057233" lon="19.70739844180992"><ele>19.0</ele><time>2026-04-27T08:54:47.999Z</time></trkpt><trkpt lat="40.934960974351974" lon="19.707469177225597"><ele>19.0</ele><time>2026-04-27T08:54:49.999Z</time></trkpt><trkpt lat="40.934850700648155" lon="19.707540112240654"><ele>18.833333333333332</ele><time>2026-04-27T08:54:51.999Z</time></trkpt><trkpt lat="40.93479481084308" lon="19.707580723218175"><ele>18.666666666666664</ele><time>2026-04-27T08:54:52.999Z</time></trkpt><trkpt lat="40.93473984034506" lon="19.70762368159661"><ele>18.5</ele><time>2026-04-27T08:54:53.999Z</time></trkpt><trkpt lat="40.93463910564244" lon="19.70769135892591"><ele>18.333333333333332</ele><time>2026-04-27T08:54:55.999Z</time></trkpt><trkpt lat="40.934528409468214" lon="19.707766119741407"><ele>18.166666666666668</ele><time>2026-04-27T08:54:57.999Z</time></trkpt><trkpt lat="40.93446525880542" lon="19.707811794459502"><ele>18.0</ele><time>2026-04-27T08:54:58.999Z</time></trkpt><trkpt lat="40.93438252722741" lon="19.707874895001193"><ele>18.0</ele><time>2026-04-27T08:54:59.999Z</time></trkpt><trkpt lat="40.93428674014562" lon="19.707946707106455"><ele>18.0</ele><time>2026-04-27T08:55:00.999Z</time></trkpt><trkpt lat="40.934186987302645" lon="19.708016605870114"><ele>18.0</ele><time>2026-04-27T08:55:01.999Z</time></trkpt><trkpt lat="40.934093769768275" lon="19.708075358851474"><ele>18.0</ele><time>2026-04-27T08:55:02.999Z</time></trkpt><trkpt lat="40.93399955908941" lon="19.708145910233146"><ele>18.0</ele><time>2026-04-27T08:55:03.999Z</time></trkpt><trkpt lat="40.93389780122307" lon="19.70821527746389"><ele>17.8</ele><time>2026-04-27T08:55:04.999Z</time></trkpt><trkpt lat="40.93378493543348" lon="19.708282964039082"><ele>17.6</ele><time>2026-04-27T08:55:05.999Z</time></trkpt><trkpt lat="40.93367731420422" lon="19.708354390904223"><ele>17.4</ele><time>2026-04-27T08:55:06.999Z</time></trkpt><trkpt lat="40.93358270233071" lon="19.708412414446933"><ele>17.2</ele><time>2026-04-27T08:55:07.999Z</time></trkpt><trkpt lat="40.933503777503375" lon="19.708464166942363"><ele>17.0</ele><time>2026-04-27T08:55:08.999Z</time></trkpt><trkpt lat="40.933430901377484" lon="19.708514119127447"><ele>16.8</ele><time>2026-04-27T08:55:09.999Z</time></trkpt><trkpt lat="40.933367038146166" lon="19.708567923961837"><ele>16.6</ele><time>2026-04-27T08:55:10.999Z</time></trkpt><trkpt lat="40.93331331616653" lon="19.708626491083283"><ele>16.400000000000002</ele><time>2026-04-27T08:55:11.999Z</time></trkpt><trkpt lat="40.93323628440235" lon="19.708736946537755"><ele>16.2</ele><time>2026-04-27T08:55:13.999Z</time></trkpt><trkpt lat="40.93312913146714" lon="19.70881253022367"><ele>16.0</ele><time>2026-04-27T08:55:15.999Z</time></trkpt><trkpt lat="40.93305109683978" lon="19.708841685736036"><ele>15.999999999999998</ele><time>2026-04-27T08:55:16.999Z</time></trkpt><trkpt lat="40.932959333180975" lon="19.708873367532966"><ele>16.0</ele><time>2026-04-27T08:55:17.999Z</time></trkpt><trkpt lat="40.932866451722035" lon="19.708909055676145"><ele>16.0</ele><time>2026-04-27T08:55:18.999Z</time></trkpt><trkpt lat="40.93278590094891" lon="19.708937449405965"><ele>16.0</ele><time>2026-04-27T08:55:19.999Z</time></trkpt><trkpt lat="40.932713986592574" lon="19.70896739658953"><ele>15.999999999999998</ele><time>2026-04-27T08:55:20.999Z</time></trkpt><trkpt lat="40.93263893413166" lon="19.708990605290566"><ele>16.0</ele><time>2026-04-27T08:55:21.999Z</time></trkpt><trkpt lat="40.93255922932684" lon="19.70901167129515"><ele>15.8</ele><time>2026-04-27T08:55:23Z</time></trkpt><trkpt lat="40.93247649108995" lon="19.70903922235005"><ele>15.600000000000001</ele><time>2026-04-27T08:55:24Z</time></trkpt><trkpt lat="40.93238881855676" lon="19.709045892212835"><ele>15.4</ele><time>2026-04-27T08:55:25Z</time></trkpt><trkpt lat="40.932288581585695" lon="19.709074508529255"><ele>15.2</ele><time>2026-04-27T08:55:26Z</time></trkpt><trkpt lat="40.93217404320727" lon="19.709107207702854"><ele>15.0</ele><time>2026-04-27T08:55:27Z</time></trkpt><trkpt lat="40.932047051577385" lon="19.70914346211101"><ele>15.0</ele><time>2026-04-27T08:55:28Z</time></trkpt><trkpt lat="40.93192411995617" lon="19.709195640699573"><ele>15.0</ele><time>2026-04-27T08:55:29Z</time></trkpt><trkpt lat="40.931796707454815" lon="19.70922568099076"><ele>15.0</ele><time>2026-04-27T08:55:30Z</time></trkpt><trkpt lat="40.93166121723048" lon="19.70926279415954"><ele>15.0</ele><time>2026-04-27T08:55:31Z</time></trkpt><trkpt lat="40.931529105464826" lon="19.709305358744224"><ele>15.0</ele><time>2026-04-27T08:55:32Z</time></trkpt><trkpt lat="40.93138992993554" lon="19.709345897049406"><ele>15.0</ele><time>2026-04-27T08:55:33Z</time></trkpt><trkpt lat="40.93124873793896" lon="19.709387424467423"><ele>15.0</ele><time>2026-04-27T08:55:34Z</time></trkpt><trkpt lat="40.93111990120194" lon="19.709427816539073"><ele>15.0</ele><time>2026-04-27T08:55:35Z</time></trkpt><trkpt lat="40.931001705230344" lon="19.709465953651602"><ele>14.8</ele><time>2026-04-27T08:55:36Z</time></trkpt><trkpt lat="40.93089254888497" lon="19.709496246286182"><ele>14.6</ele><time>2026-04-27T08:55:37Z</time></trkpt><trkpt lat="40.930785031098296" lon="19.70951209226443"><ele>14.399999999999999</ele><time>2026-04-27T08:55:38Z</time></trkpt><trkpt lat="40.93068220531843" lon="19.709517324242366"><ele>14.2</ele><time>2026-04-27T08:55:39Z</time></trkpt><trkpt lat="40.930586988781485" lon="19.709502962693247"><ele>14.0</ele><time>2026-04-27T08:55:40Z</time></trkpt><trkpt lat="40.93050306723332" lon="19.709466289709642"><ele>14.333333333333334</ele><time>2026-04-27T08:55:41Z</time></trkpt><trkpt lat="40.930432900567645" lon="19.709409768384102"><ele>14.666666666666668</ele><time>2026-04-27T08:55:42Z</time></trkpt><trkpt lat="40.930375011526294" lon="19.70934014116846"><ele>15.0</ele><time>2026-04-27T08:55:43Z</time></trkpt><trkpt lat="40.93031866456007" lon="19.709263444032384"><ele>15.333333333333332</ele><time>2026-04-27T08:55:44Z</time></trkpt><trkpt lat="40.930251696966444" lon="19.709188533316368"><ele>15.666666666666666</ele><time>2026-04-27T08:55:45Z</time></trkpt><trkpt lat="40.93017381663567" lon="19.709113499876654"><ele>16.0</ele><time>2026-04-27T08:55:46Z</time></trkpt><trkpt lat="40.930087271082776" lon="19.709057973016016"><ele>15.499999999999998</ele><time>2026-04-27T08:55:47Z</time></trkpt><trkpt lat="40.93000467789192" lon="19.70903360365954"><ele>15.0</ele><time>2026-04-27T08:55:48Z</time></trkpt><trkpt lat="40.92992740066049" lon="19.70905342536371"><ele>14.5</ele><time>2026-04-27T08:55:49Z</time></trkpt><trkpt lat="40.92984754513782" lon="19.709061410808026"><ele>14.0</ele><time>2026-04-27T08:55:50Z</time></trkpt><trkpt lat="40.92979394454126" lon="19.70917760918439"><ele>13.499999999999998</ele><time>2026-04-27T08:55:51Z</time></trkpt><trkpt lat="40.92975649862577" lon="19.709267396494003"><ele>13.0</ele><time>2026-04-27T08:55:52Z</time></trkpt><trkpt lat="40.92974049265741" lon="19.709357229432754"><ele>13.833333333333332</ele><time>2026-04-27T08:55:53Z</time></trkpt><trkpt lat="40.92971719899668" lon="19.709460729339614"><ele>14.666666666666666</ele><time>2026-04-27T08:55:54Z</time></trkpt><trkpt lat="40.92968495499957" lon="19.709565953638574"><ele>15.5</ele><time>2026-04-27T08:55:55Z</time></trkpt><trkpt lat="40.92965205071862" lon="19.709655059476404"><ele>16.333333333333332</ele><time>2026-04-27T08:55:56Z</time></trkpt><trkpt lat="40.929625870320116" lon="19.709735434756798"><ele>17.166666666666668</ele><time>2026-04-27T08:55:56.999Z</time></trkpt><trkpt lat="40.929564433154674" lon="19.709881077524535"><ele>18.0</ele><time>2026-04-27T08:55:58.999Z</time></trkpt><trkpt lat="40.92950628334585" lon="19.709934858110028"><ele>18.0</ele><time>2026-04-27T08:55:59.999Z</time></trkpt><trkpt lat="40.92942524450785" lon="19.70994494109112"><ele>18.0</ele><time>2026-04-27T08:56:00.999Z</time></trkpt><trkpt lat="40.92934438052425" lon="19.709983898236455"><ele>18.0</ele><time>2026-04-27T08:56:01.999Z</time></trkpt><trkpt lat="40.929255285569056" lon="19.710009396179426"><ele>18.0</ele><time>2026-04-27T08:56:02.999Z</time></trkpt><trkpt lat="40.92916548453592" lon="19.710046807419612"><ele>18.0</ele><time>2026-04-27T08:56:03.999Z</time></trkpt><trkpt lat="40.92906958187455" lon="19.710085370609022"><ele>17.25</ele><time>2026-04-27T08:56:04.999Z</time></trkpt><trkpt lat="40.92896369338045" lon="19.71012805456811"><ele>16.5</ele><time>2026-04-27T08:56:05.999Z</time></trkpt><trkpt lat="40.92885059483657" lon="19.710164786915435"><ele>15.75</ele><time>2026-04-27T08:56:06.999Z</time></trkpt><trkpt lat="40.928731434233775" lon="19.710202877444818"><ele>15.0</ele><time>2026-04-27T08:56:07.999Z</time></trkpt><trkpt lat="40.928605251815966" lon="19.71024940705941"><ele>16.25</ele><time>2026-04-27T08:56:08.999Z</time></trkpt><trkpt lat="40.92847349219332" lon="19.710301366221557"><ele>17.5</ele><time>2026-04-27T08:56:09.999Z</time></trkpt><trkpt lat="40.92833549275479" lon="19.710353783506747"><ele>18.75</ele><time>2026-04-27T08:56:10.999Z</time></trkpt><trkpt lat="40.92819084045745" lon="19.71041645692787"><ele>20.0</ele><time>2026-04-27T08:56:11.999Z</time></trkpt><trkpt lat="40.92804363904324" lon="19.710498958227696"><ele>20.0</ele><time>2026-04-27T08:56:12.999Z</time></trkpt><trkpt lat="40.92788274764816" lon="19.710578811341833"><ele>20.0</ele><time>2026-04-27T08:56:13.999Z</time></trkpt><trkpt lat="40.92772168572123" lon="19.71073180416793"><ele>20.0</ele><time>2026-04-27T08:56:14.999Z</time></trkpt><trkpt lat="40.92756045178817" lon="19.71087488377787"><ele>19.0</ele><time>2026-04-27T08:56:15.999Z</time></trkpt><trkpt lat="40.927394780060574" lon="19.711028708775796"><ele>18.0</ele><time>2026-04-27T08:56:16.999Z</time></trkpt><trkpt lat="40.92724159692872" lon="19.711196705478432"><ele>17.0</ele><time>2026-04-27T08:56:17.999Z</time></trkpt><trkpt lat="40.92710642812168" lon="19.711370866004472"><ele>20.0</ele><time>2026-04-27T08:56:18.999Z</time></trkpt><trkpt lat="40.926977277746346" lon="19.711553735168675"><ele>23.0</ele><time>2026-04-27T08:56:19.999Z</time></trkpt><trkpt lat="40.92685214537194" lon="19.71174159460941"><ele>26.0</ele><time>2026-04-27T08:56:20.999Z</time></trkpt><trkpt lat="40.92672847704758" lon="19.711932668087968"><ele>22.666666666666664</ele><time>2026-04-27T08:56:21.999Z</time></trkpt><trkpt lat="40.926605530194045" lon="19.71212449396598"><ele>19.333333333333332</ele><time>2026-04-27T08:56:22.999Z</time></trkpt><trkpt lat="40.92649312273005" lon="19.71230511309122"><ele>16.0</ele><time>2026-04-27T08:56:23.999Z</time></trkpt><trkpt lat="40.92638758178794" lon="19.71246981432993"><ele>16.0</ele><time>2026-04-27T08:56:24.999Z</time></trkpt><trkpt lat="40.92628672687918" lon="19.71262586368673"><ele>16.0</ele><time>2026-04-27T08:56:25.999Z</time></trkpt><trkpt lat="40.926186129036545" lon="19.712777650050615"><ele>16.0</ele><time>2026-04-27T08:56:26.999Z</time></trkpt><trkpt lat="40.92608022955115" lon="19.712940397170925"><ele>15.666666666666666</ele><time>2026-04-27T08:56:27.999Z</time></trkpt><trkpt lat="40.92597077021888" lon="19.71310640020615"><ele>15.333333333333332</ele><time>2026-04-27T08:56:28.999Z</time></trkpt><trkpt lat="40.92586269418378" lon="19.71327430411965"><ele>15.0</ele><time>2026-04-27T08:56:29.999Z</time></trkpt><trkpt lat="40.92575401965263" lon="19.713447838297366"><ele>14.666666666666668</ele><time>2026-04-27T08:56:30.999Z</time></trkpt><trkpt lat="40.92564552061562" lon="19.713627103972648"><ele>14.333333333333334</ele><time>2026-04-27T08:56:31.999Z</time></trkpt><trkpt lat="40.92553238055057" lon="19.713807334291634"><ele>14.0</ele><time>2026-04-27T08:56:32.999Z</time></trkpt><trkpt lat="40.9254171686615" lon="19.713985143686802"><ele>14.0</ele><time>2026-04-27T08:56:33.999Z</time></trkpt><trkpt lat="40.92530419239897" lon="19.714155525233718"><ele>14.0</ele><time>2026-04-27T08:56:34.999Z</time></trkpt><trkpt lat="40.92520392204334" lon="19.714309887793807"><ele>14.0</ele><time>2026-04-27T08:56:35.999Z</time></trkpt><trkpt lat="40.92510534700856" lon="19.714465135034583"><ele>14.666666666666668</ele><time>2026-04-27T08:56:36.999Z</time></trkpt><trkpt lat="40.92500154115439" lon="19.714627780445497"><ele>15.333333333333332</ele><time>2026-04-27T08:56:37.999Z</time></trkpt><trkpt lat="40.92489635050821" lon="19.71479568592776"><ele>16.0</ele><time>2026-04-27T08:56:38.999Z</time></trkpt><trkpt lat="40.92478242923" lon="19.71496566249826"><ele>16.0</ele><time>2026-04-27T08:56:39.999Z</time></trkpt><trkpt lat="40.92465500048043" lon="19.715112138278197"><ele>16.0</ele><time>2026-04-27T08:56:40.999Z</time></trkpt><trkpt lat="40.92449487695339" lon="19.715228752799614"><ele>16.0</ele><time>2026-04-27T08:56:41.999Z</time></trkpt><trkpt lat="40.92428505510205" lon="19.71533671139733"><ele>16.5</ele><time>2026-04-27T08:56:42.999Z</time></trkpt><trkpt lat="40.9240390012083" lon="19.715448238715357"><ele>17.0</ele><time>2026-04-27T08:56:43.999Z</time></trkpt><trkpt lat="40.92377747536957" lon="19.71557590709134"><ele>17.0</ele><time>2026-04-27T08:56:44.999Z</time></trkpt><trkpt lat="40.92354170957303" lon="19.71570018703818"><ele>17.0</ele><time>2026-04-27T08:56:45.999Z</time></trkpt><trkpt lat="40.92333189224782" lon="19.715814580997012"><ele>17.0</ele><time>2026-04-27T08:56:46.999Z</time></trkpt><trkpt lat="40.92313557110997" lon="19.715920000867506"><ele>17.0</ele><time>2026-04-27T08:56:47.999Z</time></trkpt><trkpt lat="40.922951337974496" lon="19.716017871798623"><ele>17.0</ele><time>2026-04-27T08:56:48.999Z</time></trkpt><trkpt lat="40.922773742433925" lon="19.71610385179649"><ele>17.0</ele><time>2026-04-27T08:56:49.999Z</time></trkpt><trkpt lat="40.92260276978904" lon="19.716177285121713"><ele>17.0</ele><time>2026-04-27T08:56:50.999Z</time></trkpt><trkpt lat="40.92241985139538" lon="19.716231999607555"><ele>17.0</ele><time>2026-04-27T08:56:51.999Z</time></trkpt><trkpt lat="40.922229854085515" lon="19.716264655327585"><ele>16.333333333333336</ele><time>2026-04-27T08:56:52.999Z</time></trkpt><trkpt lat="40.922032812334216" lon="19.71628545739711"><ele>15.666666666666668</ele><time>2026-04-27T08:56:53.999Z</time></trkpt><trkpt lat="40.921839258521516" lon="19.71630128324915"><ele>15.0</ele><time>2026-04-27T08:56:54.999Z</time></trkpt><trkpt lat="40.9216660293782" lon="19.716317591540257"><ele>15.0</ele><time>2026-04-27T08:56:55.999Z</time></trkpt><trkpt lat="40.92150409626606" lon="19.71634103980115"><ele>15.0</ele><time>2026-04-27T08:56:56.999Z</time></trkpt><trkpt lat="40.92135158930711" lon="19.716378195679198"><ele>15.0</ele><time>2026-04-27T08:56:57.999Z</time></trkpt><trkpt lat="40.92120373398201" lon="19.71644472215052"><ele>15.0</ele><time>2026-04-27T08:56:58.999Z</time></trkpt><trkpt lat="40.921055856014924" lon="19.716537541046073"><ele>15.0</ele><time>2026-04-27T08:56:59.999Z</time></trkpt><trkpt lat="40.92091806655311" lon="19.716661093484372"><ele>15.0</ele><time>2026-04-27T08:57:00.999Z</time></trkpt><trkpt lat="40.92078568728348" lon="19.716808685133117"><ele>18.333333333333336</ele><time>2026-04-27T08:57:01.999Z</time></trkpt><trkpt lat="40.920660594739616" lon="19.71696839443426"><ele>21.666666666666668</ele><time>2026-04-27T08:57:02.999Z</time></trkpt><trkpt lat="40.92054524428174" lon="19.717145554206528"><ele>25.0</ele><time>2026-04-27T08:57:03.999Z</time></trkpt><trkpt lat="40.920450998894246" lon="19.717313908746995"><ele>25.0</ele><time>2026-04-27T08:57:04.999Z</time></trkpt><trkpt lat="40.9203634980049" lon="19.717472113590247"><ele>25.0</ele><time>2026-04-27T08:57:05.999Z</time></trkpt><trkpt lat="40.920284840724165" lon="19.717626497262117"><ele>25.0</ele><time>2026-04-27T08:57:06.999Z</time></trkpt><trkpt lat="40.92020443411103" lon="19.717766660330096"><ele>25.0</ele><time>2026-04-27T08:57:07.999Z</time></trkpt><trkpt lat="40.92012175839207" lon="19.717898011289925"><ele>23.75</ele><time>2026-04-27T08:57:08.999Z</time></trkpt><trkpt lat="40.92003522583044" lon="19.718015384246215"><ele>22.5</ele><time>2026-04-27T08:57:09.999Z</time></trkpt><trkpt lat="40.91995065765074" lon="19.718118579892554"><ele>21.25</ele><time>2026-04-27T08:57:10.999Z</time></trkpt><trkpt lat="40.91986709960668" lon="19.718215766900883"><ele>20.0</ele><time>2026-04-27T08:57:11.999Z</time></trkpt><trkpt lat="40.91978606280708" lon="19.71830456815856"><ele>20.0</ele><time>2026-04-27T08:57:12.999Z</time></trkpt><trkpt lat="40.91971910486592" lon="19.71835928931008"><ele>20.0</ele><time>2026-04-27T08:57:13.999Z</time></trkpt><trkpt lat="40.91965594305368" lon="19.718415727556717"><ele>20.0</ele><time>2026-04-27T08:57:14.999Z</time></trkpt><trkpt lat="40.91959866844356" lon="19.718476499266007"><ele>20.0</ele><time>2026-04-27T08:57:15.999Z</time></trkpt><trkpt lat="40.919549165830865" lon="19.71853082655872"><ele>20.0</ele><time>2026-04-27T08:57:16.999Z</time></trkpt><trkpt lat="40.9194468620153" lon="19.71860771333428"><ele>20.0</ele><time>2026-04-27T08:57:18.999Z</time></trkpt><trkpt lat="40.91938700006856" lon="19.718665551960616"><ele>19.8</ele><time>2026-04-27T08:57:20.999Z</time></trkpt><trkpt lat="40.919306079272005" lon="19.718770424531655"><ele>19.6</ele><time>2026-04-27T08:57:23.999Z</time></trkpt><trkpt lat="40.91922985091263" lon="19.718816884617688"><ele>19.4</ele><time>2026-04-27T08:57:24.999Z</time></trkpt><trkpt lat="40.91915066233946" lon="19.718892645512756"><ele>19.2</ele><time>2026-04-27T08:57:25.999Z</time></trkpt><trkpt lat="40.91906620878422" lon="19.718999821352337"><ele>19.0</ele><time>2026-04-27T08:57:26.999Z</time></trkpt><trkpt lat="40.91894594262394" lon="19.71910957189681"><ele>18.0</ele><time>2026-04-27T08:57:27.999Z</time></trkpt><trkpt lat="40.91877726022789" lon="19.71926659241234"><ele>17.0</ele><time>2026-04-27T08:57:28.999Z</time></trkpt><trkpt lat="40.91858442999261" lon="19.719454240493956"><ele>16.0</ele><time>2026-04-27T08:57:29.999Z</time></trkpt><trkpt lat="40.91840081629486" lon="19.719640706458122"><ele>16.0</ele><time>2026-04-27T08:57:30.999Z</time></trkpt><trkpt lat="40.91823812417468" lon="19.719825538965605"><ele>16.0</ele><time>2026-04-27T08:57:31.999Z</time></trkpt><trkpt lat="40.91807881828806" lon="19.720037987572372"><ele>16.0</ele><time>2026-04-27T08:57:32.999Z</time></trkpt><trkpt lat="40.91793511958581" lon="19.7202418632546"><ele>16.0</ele><time>2026-04-27T08:57:33.999Z</time></trkpt><trkpt lat="40.91780199614543" lon="19.72042750824264"><ele>16.0</ele><time>2026-04-27T08:57:34.999Z</time></trkpt><trkpt lat="40.917673615355156" lon="19.720609680917725"><ele>16.0</ele><time>2026-04-27T08:57:35.999Z</time></trkpt><trkpt lat="40.91754059780294" lon="19.72080557538577"><ele>16.0</ele><time>2026-04-27T08:57:36.999Z</time></trkpt><trkpt lat="40.91740240758171" lon="19.721007396192885"><ele>16.0</ele><time>2026-04-27T08:57:37.999Z</time></trkpt><trkpt lat="40.91725058374704" lon="19.72119473002531"><ele>16.0</ele><time>2026-04-27T08:57:38.999Z</time></trkpt><trkpt lat="40.91711538393112" lon="19.721410809083427"><ele>16.0</ele><time>2026-04-27T08:57:39.999Z</time></trkpt><trkpt lat="40.91696223778038" lon="19.721615248281342"><ele>16.0</ele><time>2026-04-27T08:57:40.999Z</time></trkpt><trkpt lat="40.91680463795411" lon="19.7218302586014"><ele>16.0</ele><time>2026-04-27T08:57:41.999Z</time></trkpt><trkpt lat="40.91664388842207" lon="19.722047898466542"><ele>15.5</ele><time>2026-04-27T08:57:42.999Z</time></trkpt><trkpt lat="40.91647385342033" lon="19.7222797507042"><ele>15.0</ele><time>2026-04-27T08:57:43.999Z</time></trkpt><trkpt lat="40.91629718457346" lon="19.722522295944636"><ele>15.0</ele><time>2026-04-27T08:57:44.999Z</time></trkpt><trkpt lat="40.9161226525997" lon="19.722759789586956"><ele>15.0</ele><time>2026-04-27T08:57:45.999Z</time></trkpt><trkpt lat="40.915950697503476" lon="19.722995540642508"><ele>15.5</ele><time>2026-04-27T08:57:46.999Z</time></trkpt><trkpt lat="40.915778728536345" lon="19.72323107387823"><ele>16.0</ele><time>2026-04-27T08:57:47.999Z</time></trkpt><trkpt lat="40.91560291364956" lon="19.723472027813436"><ele>16.0</ele><time>2026-04-27T08:57:48.999Z</time></trkpt><trkpt lat="40.915423521436786" lon="19.723720465743586"><ele>16.0</ele><time>2026-04-27T08:57:49.999Z</time></trkpt><trkpt lat="40.91524126078032" lon="19.723974214874445"><ele>15.5</ele><time>2026-04-27T08:57:50.999Z</time></trkpt><trkpt lat="40.915056853700044" lon="19.724230492660947"><ele>15.0</ele><time>2026-04-27T08:57:51.999Z</time></trkpt><trkpt lat="40.914870890981504" lon="19.724490367297665"><ele>15.0</ele><time>2026-04-27T08:57:52.999Z</time></trkpt><trkpt lat="40.914686697664855" lon="19.724746286690305"><ele>15.0</ele><time>2026-04-27T08:57:53.999Z</time></trkpt><trkpt lat="40.91451673426433" lon="19.72498363918264"><ele>15.0</ele><time>2026-04-27T08:57:54.999Z</time></trkpt><trkpt lat="40.91435591757879" lon="19.725212423250838"><ele>15.0</ele><time>2026-04-27T08:57:55.999Z</time></trkpt><trkpt lat="40.91419534693237" lon="19.725441585114975"><ele>15.5</ele><time>2026-04-27T08:57:56.999Z</time></trkpt><trkpt lat="40.91403110350249" lon="19.725666424866127"><ele>16.0</ele><time>2026-04-27T08:57:57.999Z</time></trkpt><trkpt lat="40.913861408618125" lon="19.72589023698446"><ele>16.0</ele><time>2026-04-27T08:57:58.999Z</time></trkpt><trkpt lat="40.91369118117007" lon="19.726118708322335"><ele>16.0</ele><time>2026-04-27T08:57:59.999Z</time></trkpt><trkpt lat="40.913520816992325" lon="19.726355350865056"><ele>15.5</ele><time>2026-04-27T08:58:00.999Z</time></trkpt><trkpt lat="40.913345380221884" lon="19.726595692781967"><ele>15.0</ele><time>2026-04-27T08:58:01.999Z</time></trkpt><trkpt lat="40.913175880624614" lon="19.726823097135536"><ele>15.0</ele><time>2026-04-27T08:58:02.999Z</time></trkpt><trkpt lat="40.913022563601416" lon="19.727037114268075"><ele>15.0</ele><time>2026-04-27T08:58:03.999Z</time></trkpt><trkpt lat="40.91288755612886" lon="19.727226934816336"><ele>15.0</ele><time>2026-04-27T08:58:04.999Z</time></trkpt><trkpt lat="40.91276744018316" lon="19.7273920887838"><ele>15.0</ele><time>2026-04-27T08:58:05.999Z</time></trkpt><trkpt lat="40.912664912555556" lon="19.72753712513558"><ele>15.0</ele><time>2026-04-27T08:58:06.999Z</time></trkpt><trkpt lat="40.912578445035486" lon="19.727658520833227"><ele>15.0</ele><time>2026-04-27T08:58:07.999Z</time></trkpt><trkpt lat="40.912503650285444" lon="19.727765974361603"><ele>15.0</ele><time>2026-04-27T08:58:08.999Z</time></trkpt><trkpt lat="40.91244369143918" lon="19.727840213388536"><ele>14.8</ele><time>2026-04-27T08:58:09.999Z</time></trkpt><trkpt lat="40.91238760012343" lon="19.72791090380245"><ele>14.6</ele><time>2026-04-27T08:58:10.999Z</time></trkpt><trkpt lat="40.91232750078169" lon="19.72798957524519"><ele>14.399999999999999</ele><time>2026-04-27T08:58:11.999Z</time></trkpt><trkpt lat="40.912250148293175" lon="19.728101819093823"><ele>14.2</ele><time>2026-04-27T08:58:12.999Z</time></trkpt><trkpt lat="40.9121594396846" lon="19.72822867963444"><ele>14.0</ele><time>2026-04-27T08:58:13.999Z</time></trkpt><trkpt lat="40.912057221699015" lon="19.728374997256438"><ele>14.0</ele><time>2026-04-27T08:58:14.999Z</time></trkpt><trkpt lat="40.91193886237995" lon="19.728541552720657"><ele>14.0</ele><time>2026-04-27T08:58:15.999Z</time></trkpt><trkpt lat="40.91181204346529" lon="19.728718590370306"><ele>14.0</ele><time>2026-04-27T08:58:16.999Z</time></trkpt><trkpt lat="40.91167718387011" lon="19.72890257905337"><ele>14.0</ele><time>2026-04-27T08:58:17.999Z</time></trkpt><trkpt lat="40.911538737983896" lon="19.729097228476032"><ele>14.0</ele><time>2026-04-27T08:58:18.999Z</time></trkpt><trkpt lat="40.91139567963004" lon="19.729299731423666"><ele>14.0</ele><time>2026-04-27T08:58:19.999Z</time></trkpt><trkpt lat="40.911247157482116" lon="19.72950690674445"><ele>14.0</ele><time>2026-04-27T08:58:20.999Z</time></trkpt><trkpt lat="40.91109073558421" lon="19.729722119552097"><ele>14.0</ele><time>2026-04-27T08:58:21.999Z</time></trkpt><trkpt lat="40.9109413710998" lon="19.729919075210624"><ele>14.0</ele><time>2026-04-27T08:58:22.999Z</time></trkpt><trkpt lat="40.910797662090474" lon="19.73012489333963"><ele>14.333333333333334</ele><time>2026-04-27T08:58:23.999Z</time></trkpt><trkpt lat="40.91065027496041" lon="19.73032958113478"><ele>14.666666666666668</ele><time>2026-04-27T08:58:24.999Z</time></trkpt><trkpt lat="40.91050275365252" lon="19.730537651692273"><ele>15.0</ele><time>2026-04-27T08:58:25.999Z</time></trkpt><trkpt lat="40.9103516173924" lon="19.73075248251443"><ele>15.0</ele><time>2026-04-27T08:58:26.999Z</time></trkpt><trkpt lat="40.910198199965855" lon="19.730972144577656"><ele>15.0</ele><time>2026-04-27T08:58:27.999Z</time></trkpt><trkpt lat="40.910042457196916" lon="19.731192042568317"><ele>14.666666666666668</ele><time>2026-04-27T08:58:28.999Z</time></trkpt><trkpt lat="40.90989545533344" lon="19.731394005746285"><ele>14.333333333333334</ele><time>2026-04-27T08:58:29.999Z</time></trkpt><trkpt lat="40.90975554228272" lon="19.731583777634953"><ele>14.0</ele><time>2026-04-27T08:58:30.999Z</time></trkpt><trkpt lat="40.90962428091278" lon="19.73176444181243"><ele>15.0</ele><time>2026-04-27T08:58:31.999Z</time></trkpt><trkpt lat="40.909501150245404" lon="19.731942037793612"><ele>16.0</ele><time>2026-04-27T08:58:32.999Z</time></trkpt><trkpt lat="40.909377076392495" lon="19.732122673717942"><ele>17.0</ele><time>2026-04-27T08:58:33.999Z</time></trkpt><trkpt lat="40.90924788851037" lon="19.7322967168757"><ele>16.333333333333336</ele><time>2026-04-27T08:58:34.999Z</time></trkpt><trkpt lat="40.909113659876404" lon="19.732470487541605"><ele>15.666666666666668</ele><time>2026-04-27T08:58:35.999Z</time></trkpt><trkpt lat="40.908985412227416" lon="19.732631163571284"><ele>15.0</ele><time>2026-04-27T08:58:36.999Z</time></trkpt><trkpt lat="40.9088452152066" lon="19.732792421220548"><ele>15.333333333333332</ele><time>2026-04-27T08:58:37.999Z</time></trkpt><trkpt lat="40.908685639223016" lon="19.732946492184045"><ele>15.666666666666666</ele><time>2026-04-27T08:58:38.999Z</time></trkpt><trkpt lat="40.908502441012146" lon="19.73309866362477"><ele>16.0</ele><time>2026-04-27T08:58:39.999Z</time></trkpt><trkpt lat="40.90829865920494" lon="19.733254155910267"><ele>16.0</ele><time>2026-04-27T08:58:40.999Z</time></trkpt><trkpt lat="40.90808873284937" lon="19.733422729826245"><ele>16.0</ele><time>2026-04-27T08:58:41.999Z</time></trkpt><trkpt lat="40.907871682392944" lon="19.73360630164011"><ele>15.5</ele><time>2026-04-27T08:58:42.999Z</time></trkpt><trkpt lat="40.907651411917634" lon="19.7337963122645"><ele>15.0</ele><time>2026-04-27T08:58:43.999Z</time></trkpt><trkpt lat="40.9074509654749" lon="19.733972091239906"><ele>15.0</ele><time>2026-04-27T08:58:44.999Z</time></trkpt><trkpt lat="40.90726867556482" lon="19.734132898960684"><ele>15.0</ele><time>2026-04-27T08:58:45.999Z</time></trkpt><trkpt lat="40.90709798278682" lon="19.734282744663968"><ele>15.0</ele><time>2026-04-27T08:58:46.999Z</time></trkpt><trkpt lat="40.90692667759916" lon="19.734431509862375"><ele>15.333333333333332</ele><time>2026-04-27T08:58:47.999Z</time></trkpt><trkpt lat="40.906746127610035" lon="19.734566903852862"><ele>15.666666666666666</ele><time>2026-04-27T08:58:48.999Z</time></trkpt><trkpt lat="40.90656117747615" lon="19.73466261695313"><ele>16.0</ele><time>2026-04-27T08:58:49.999Z</time></trkpt><trkpt lat="40.90637486012192" lon="19.734696521783274"><ele>16.0</ele><time>2026-04-27T08:58:50.999Z</time></trkpt><trkpt lat="40.90618646578665" lon="19.734721409877338"><ele>16.0</ele><time>2026-04-27T08:58:51.999Z</time></trkpt><trkpt lat="40.90601435398231" lon="19.734779151191237"><ele>16.0</ele><time>2026-04-27T08:58:52.999Z</time></trkpt><trkpt lat="40.90585513002777" lon="19.734867802698332"><ele>16.0</ele><time>2026-04-27T08:58:53.999Z</time></trkpt><trkpt lat="40.90569969779074" lon="19.73497560067302"><ele>16.0</ele><time>2026-04-27T08:58:54.999Z</time></trkpt><trkpt lat="40.90554549084818" lon="19.73510250317192"><ele>16.0</ele><time>2026-04-27T08:58:55.999Z</time></trkpt><trkpt lat="40.90539403721803" lon="19.73524088130035"><ele>16.0</ele><time>2026-04-27T08:58:56.999Z</time></trkpt><trkpt lat="40.90525502168006" lon="19.735407880091103"><ele>16.0</ele><time>2026-04-27T08:58:57.999Z</time></trkpt><trkpt lat="40.90511553025911" lon="19.735593734766333"><ele>16.0</ele><time>2026-04-27T08:58:58.999Z</time></trkpt><trkpt lat="40.904972206772776" lon="19.735789247141906"><ele>15.333333333333332</ele><time>2026-04-27T08:58:59.999Z</time></trkpt><trkpt lat="40.90482009483659" lon="19.735989748388146"><ele>14.666666666666668</ele><time>2026-04-27T08:59:00.999Z</time></trkpt><trkpt lat="40.90466516880487" lon="19.736191435050785"><ele>14.0</ele><time>2026-04-27T08:59:01.999Z</time></trkpt><trkpt lat="40.90451325788724" lon="19.736391747261713"><ele>13.666666666666668</ele><time>2026-04-27T08:59:02.999Z</time></trkpt><trkpt lat="40.904373359634285" lon="19.736579241211057"><ele>13.333333333333332</ele><time>2026-04-27T08:59:03.999Z</time></trkpt><trkpt lat="40.9042304816556" lon="19.73676628678635"><ele>13.0</ele><time>2026-04-27T08:59:04.999Z</time></trkpt><trkpt lat="40.90408620660443" lon="19.736954151536892"><ele>15.333333333333332</ele><time>2026-04-27T08:59:05.999Z</time></trkpt><trkpt lat="40.90394363837883" lon="19.73714712692124"><ele>17.666666666666668</ele><time>2026-04-27T08:59:06.999Z</time></trkpt><trkpt lat="40.903814683850634" lon="19.737344982124746"><ele>20.0</ele><time>2026-04-27T08:59:07.999Z</time></trkpt><trkpt lat="40.90371207922478" lon="19.73754428608272"><ele>22.0</ele><time>2026-04-27T08:59:08.999Z</time></trkpt><trkpt lat="40.90361962162373" lon="19.737761130922177"><ele>24.0</ele><time>2026-04-27T08:59:09.999Z</time></trkpt><trkpt lat="40.90353617393288" lon="19.737974744580654"><ele>26.0</ele><time>2026-04-27T08:59:10.999Z</time></trkpt><trkpt lat="40.903469090042535" lon="19.738173360261857"><ele>26.0</ele><time>2026-04-27T08:59:11.999Z</time></trkpt><trkpt lat="40.90341892103951" lon="19.738360399513628"><ele>26.0</ele><time>2026-04-27T08:59:12.999Z</time></trkpt><trkpt lat="40.90338465575381" lon="19.738529192241693"><ele>26.0</ele><time>2026-04-27T08:59:13.999Z</time></trkpt><trkpt lat="40.90337235364925" lon="19.738638870955608"><ele>26.0</ele><time>2026-04-27T08:59:14.999Z</time></trkpt><trkpt lat="40.90336845405761" lon="19.73880447998776"><ele>25.0</ele><time>2026-04-27T08:59:16.999Z</time></trkpt><trkpt lat="40.903348916972405" lon="19.738980067938087"><ele>24.0</ele><time>2026-04-27T08:59:18.999Z</time></trkpt><trkpt lat="40.903339117834065" lon="19.739097929501416"><ele>23.0</ele><time>2026-04-27T08:59:19.999Z</time></trkpt><trkpt lat="40.903327055743446" lon="19.739224545668307"><ele>22.0</ele><time>2026-04-27T08:59:20.999Z</time></trkpt><trkpt lat="40.903321974304035" lon="19.739357427536653"><ele>21.0</ele><time>2026-04-27T08:59:21.999Z</time></trkpt><trkpt lat="40.90331964255343" lon="19.739505552201123"><ele>21.0</ele><time>2026-04-27T08:59:22.999Z</time></trkpt><trkpt lat="40.90331664352237" lon="19.73963525108476"><ele>21.0</ele><time>2026-04-27T08:59:23.999Z</time></trkpt><trkpt lat="40.90331781218608" lon="19.73976833421088"><ele>21.0</ele><time>2026-04-27T08:59:24.999Z</time></trkpt><trkpt lat="40.903309440518846" lon="19.73989810899395"><ele>21.0</ele><time>2026-04-27T08:59:25.999Z</time></trkpt><trkpt lat="40.90329970206732" lon="19.740048935099264"><ele>21.0</ele><time>2026-04-27T08:59:26.999Z</time></trkpt><trkpt lat="40.90327751597046" lon="19.74020494910531"><ele>21.25</ele><time>2026-04-27T08:59:27.999Z</time></trkpt><trkpt lat="40.903242531925066" lon="19.74036555939054"><ele>21.5</ele><time>2026-04-27T08:59:28.999Z</time></trkpt><trkpt lat="40.903188721728846" lon="19.740534940857255"><ele>21.75</ele><time>2026-04-27T08:59:29.999Z</time></trkpt><trkpt lat="40.90313460028396" lon="19.740710168937724"><ele>22.0</ele><time>2026-04-27T08:59:30.999Z</time></trkpt><trkpt lat="40.90307300834807" lon="19.74090329424184"><ele>22.333333333333332</ele><time>2026-04-27T08:59:31.999Z</time></trkpt><trkpt lat="40.90301306385247" lon="19.741097666748278"><ele>22.666666666666668</ele><time>2026-04-27T08:59:32.999Z</time></trkpt><trkpt lat="40.90294424177148" lon="19.741301237388758"><ele>23.0</ele><time>2026-04-27T08:59:34Z</time></trkpt><trkpt lat="40.90288050076773" lon="19.741515472383984"><ele>23.0</ele><time>2026-04-27T08:59:35Z</time></trkpt><trkpt lat="40.902816549380034" lon="19.74172850282205"><ele>23.0</ele><time>2026-04-27T08:59:36Z</time></trkpt><trkpt lat="40.90275317089461" lon="19.741910571093374"><ele>23.0</ele><time>2026-04-27T08:59:37Z</time></trkpt><trkpt lat="40.90267142399102" lon="19.742087231886014"><ele>22.0</ele><time>2026-04-27T08:59:38Z</time></trkpt><trkpt lat="40.902569704269524" lon="19.742259035398103"><ele>21.0</ele><time>2026-04-27T08:59:39Z</time></trkpt><trkpt lat="40.90246535240739" lon="19.742434962996256"><ele>20.0</ele><time>2026-04-27T08:59:40Z</time></trkpt><trkpt lat="40.90236506733561" lon="19.74262262640351"><ele>21.333333333333336</ele><time>2026-04-27T08:59:41Z</time></trkpt><trkpt lat="40.90226586949799" lon="19.742818447272903"><ele>22.666666666666668</ele><time>2026-04-27T08:59:42Z</time></trkpt><trkpt lat="40.902162308081174" lon="19.743019303773078"><ele>24.0</ele><time>2026-04-27T08:59:43Z</time></trkpt><trkpt lat="40.902055123633836" lon="19.743219790757824"><ele>24.0</ele><time>2026-04-27T08:59:44Z</time></trkpt><trkpt lat="40.901954264019196" lon="19.74340401857922"><ele>24.0</ele><time>2026-04-27T08:59:45Z</time></trkpt><trkpt lat="40.90185908634057" lon="19.743584819919764"><ele>24.0</ele><time>2026-04-27T08:59:46Z</time></trkpt><trkpt lat="40.901760734912806" lon="19.74376852709312"><ele>23.0</ele><time>2026-04-27T08:59:47Z</time></trkpt><trkpt lat="40.901660838384764" lon="19.743954591243213"><ele>22.0</ele><time>2026-04-27T08:59:48Z</time></trkpt><trkpt lat="40.90156547224351" lon="19.74414568545487"><ele>21.0</ele><time>2026-04-27T08:59:49Z</time></trkpt><trkpt lat="40.901481674740744" lon="19.744328209339926"><ele>21.0</ele><time>2026-04-27T08:59:50Z</time></trkpt><trkpt lat="40.90140878985431" lon="19.74451105857143"><ele>21.0</ele><time>2026-04-27T08:59:51Z</time></trkpt><trkpt lat="40.901338050075566" lon="19.74470131141962"><ele>21.0</ele><time>2026-04-27T08:59:52Z</time></trkpt><trkpt lat="40.90126975395823" lon="19.74489658974017"><ele>21.0</ele><time>2026-04-27T08:59:53Z</time></trkpt><trkpt lat="40.90120684625056" lon="19.745075168662453"><ele>21.0</ele><time>2026-04-27T08:59:54Z</time></trkpt><trkpt lat="40.90114182426108" lon="19.74525784359484"><ele>21.0</ele><time>2026-04-27T08:59:55Z</time></trkpt><trkpt lat="40.90107841237871" lon="19.74543781385699"><ele>20.75</ele><time>2026-04-27T08:59:56Z</time></trkpt><trkpt lat="40.901023671573945" lon="19.745597122326775"><ele>20.5</ele><time>2026-04-27T08:59:57Z</time></trkpt><trkpt lat="40.9009717972914" lon="19.74574630146872"><ele>20.25</ele><time>2026-04-27T08:59:58Z</time></trkpt><trkpt lat="40.90091924330861" lon="19.745898149728983"><ele>20.0</ele><time>2026-04-27T08:59:59Z</time></trkpt><trkpt lat="40.90086838503893" lon="19.746048139418203"><ele>20.0</ele><time>2026-04-27T09:00:00Z</time></trkpt><trkpt lat="40.90082129467109" lon="19.746185045687394"><ele>20.0</ele><time>2026-04-27T09:00:01Z</time></trkpt><trkpt lat="40.90077809708748" lon="19.74631703811905"><ele>20.0</ele><time>2026-04-27T09:00:02Z</time></trkpt><trkpt lat="40.900740118489324" lon="19.746436915510227"><ele>20.0</ele><time>2026-04-27T09:00:03Z</time></trkpt><trkpt lat="40.9007025357082" lon="19.746543228351996"><ele>20.0</ele><time>2026-04-27T09:00:04Z</time></trkpt><trkpt lat="40.900655814174534" lon="19.746647802112555"><ele>20.0</ele><time>2026-04-27T09:00:05Z</time></trkpt><trkpt lat="40.90060669434141" lon="19.746768034782402"><ele>20.0</ele><time>2026-04-27T09:00:06Z</time></trkpt><trkpt lat="40.900557096560185" lon="19.74690688917288"><ele>20.0</ele><time>2026-04-27T09:00:07Z</time></trkpt><trkpt lat="40.900516024463634" lon="19.747035857455174"><ele>20.0</ele><time>2026-04-27T09:00:08Z</time></trkpt><trkpt lat="40.90048200983729" lon="19.747145397698784"><ele>20.0</ele><time>2026-04-27T09:00:09Z</time></trkpt><trkpt lat="40.90042299125694" lon="19.74725067289875"><ele>20.2</ele><time>2026-04-27T09:00:11Z</time></trkpt><trkpt lat="40.90029940309641" lon="19.747138340560234"><ele>20.4</ele><time>2026-04-27T09:00:14Z</time></trkpt><trkpt lat="40.90022811522696" lon="19.747086034948104"><ele>20.6</ele><time>2026-04-27T09:00:15Z</time></trkpt><trkpt lat="40.90013608444324" lon="19.747032345830082"><ele>20.8</ele><time>2026-04-27T09:00:16Z</time></trkpt><trkpt lat="40.90003872293348" lon="19.74695429869826"><ele>21.0</ele><time>2026-04-27T09:00:17Z</time></trkpt><trkpt lat="40.89993827643852" lon="19.746886119692686"><ele>20.5</ele><time>2026-04-27T09:00:18Z</time></trkpt><trkpt lat="40.899847348911905" lon="19.74681611713753"><ele>20.0</ele><time>2026-04-27T09:00:19Z</time></trkpt><trkpt lat="40.899752811024555" lon="19.74673918883856"><ele>19.5</ele><time>2026-04-27T09:00:20Z</time></trkpt><trkpt lat="40.89964786239585" lon="19.746649252121365"><ele>19.0</ele><time>2026-04-27T09:00:21Z</time></trkpt><trkpt lat="40.89953856205629" lon="19.746556755544578"><ele>19.0</ele><time>2026-04-27T09:00:22Z</time></trkpt><trkpt lat="40.89942548152055" lon="19.74646712703074"><ele>19.0</ele><time>2026-04-27T09:00:23Z</time></trkpt><trkpt lat="40.899320909320494" lon="19.746383884102368"><ele>19.0</ele><time>2026-04-27T09:00:24Z</time></trkpt><trkpt lat="40.8992229999941" lon="19.746280356588485"><ele>19.0</ele><time>2026-04-27T09:00:25Z</time></trkpt><trkpt lat="40.899115324872426" lon="19.746192202951082"><ele>18.25</ele><time>2026-04-27T09:00:26Z</time></trkpt><trkpt lat="40.8990132349682" lon="19.74610851061498"><ele>17.5</ele><time>2026-04-27T09:00:27Z</time></trkpt><trkpt lat="40.89890558029079" lon="19.746044912220622"><ele>16.75</ele><time>2026-04-27T09:00:28Z</time></trkpt><trkpt lat="40.89880091799372" lon="19.745960985348006"><ele>16.0</ele><time>2026-04-27T09:00:29Z</time></trkpt><trkpt lat="40.898697929693924" lon="19.74585252263485"><ele>16.0</ele><time>2026-04-27T09:00:29.999Z</time></trkpt><trkpt lat="40.89858299532574" lon="19.745759945685997"><ele>16.0</ele><time>2026-04-27T09:00:30.999Z</time></trkpt><trkpt lat="40.89847164658379" lon="19.745694922295563"><ele>16.0</ele><time>2026-04-27T09:00:31.999Z</time></trkpt><trkpt lat="40.898376565933944" lon="19.745612086707553"><ele>16.0</ele><time>2026-04-27T09:00:32.999Z</time></trkpt><trkpt lat="40.89828277802913" lon="19.745536697302548"><ele>15.600000000000001</ele><time>2026-04-27T09:00:33.999Z</time></trkpt><trkpt lat="40.898185509211444" lon="19.74546176781772"><ele>15.200000000000001</ele><time>2026-04-27T09:00:34.999Z</time></trkpt><trkpt lat="40.898087286964845" lon="19.74538161067582"><ele>14.799999999999999</ele><time>2026-04-27T09:00:35.999Z</time></trkpt><trkpt lat="40.897993886826484" lon="19.745303668062235"><ele>14.399999999999999</ele><time>2026-04-27T09:00:36.999Z</time></trkpt><trkpt lat="40.89790274818515" lon="19.745230640268304"><ele>14.0</ele><time>2026-04-27T09:00:37.999Z</time></trkpt><trkpt lat="40.89781491496947" lon="19.74516139029011"><ele>14.000000000000002</ele><time>2026-04-27T09:00:38.999Z</time></trkpt><trkpt lat="40.89773653144896" lon="19.745096031290498"><ele>14.0</ele><time>2026-04-27T09:00:39.999Z</time></trkpt><trkpt lat="40.89766611804062" lon="19.745037603480508"><ele>14.0</ele><time>2026-04-27T09:00:40.999Z</time></trkpt><trkpt lat="40.89760735986065" lon="19.74498929961232"><ele>14.0</ele><time>2026-04-27T09:00:41.999Z</time></trkpt><trkpt lat="40.89753803795687" lon="19.744929862518973"><ele>14.000000000000002</ele><time>2026-04-27T09:00:43.999Z</time></trkpt><trkpt lat="40.897479894819384" lon="19.744881074711472"><ele>14.0</ele><time>2026-04-27T09:01:01.999Z</time></trkpt><trkpt lat="40.897413830349564" lon="19.74483431073267"><ele>13.333333333333334</ele><time>2026-04-27T09:01:02.999Z</time></trkpt><trkpt lat="40.897301241476704" lon="19.744749459930468"><ele>12.666666666666668</ele><time>2026-04-27T09:01:03.999Z</time></trkpt><trkpt lat="40.897136079542086" lon="19.74461101711009"><ele>12.0</ele><time>2026-04-27T09:01:04.999Z</time></trkpt><trkpt lat="40.896940259182884" lon="19.74444057602277"><ele>12.5</ele><time>2026-04-27T09:01:05.999Z</time></trkpt><trkpt lat="40.896725584628186" lon="19.744257217798637"><ele>13.0</ele><time>2026-04-27T09:01:06.999Z</time></trkpt><trkpt lat="40.89646483603248" lon="19.744048661758967"><ele>13.0</ele><time>2026-04-27T09:01:07.999Z</time></trkpt><trkpt lat="40.89618303268138" lon="19.743817835652862"><ele>13.0</ele><time>2026-04-27T09:01:08.999Z</time></trkpt><trkpt lat="40.89588657494193" lon="19.74357665921184"><ele>12.0</ele><time>2026-04-27T09:01:09.999Z</time></trkpt><trkpt lat="40.89560555928828" lon="19.743346228205738"><ele>11.0</ele><time>2026-04-27T09:01:10.999Z</time></trkpt><trkpt lat="40.895354056622104" lon="19.74314259542792"><ele>11.0</ele><time>2026-04-27T09:01:11.999Z</time></trkpt><trkpt lat="40.895125604318665" lon="19.742958143567378"><ele>11.0</ele><time>2026-04-27T09:01:12.999Z</time></trkpt><trkpt lat="40.89491944148864" lon="19.74279319409252"><ele>11.0</ele><time>2026-04-27T09:01:13.999Z</time></trkpt><trkpt lat="40.894765765377144" lon="19.742670603960008"><ele>11.0</ele><time>2026-04-27T09:01:14.999Z</time></trkpt><trkpt lat="40.89464135478343" lon="19.742572138559854"><ele>11.0</ele><time>2026-04-27T09:01:15.999Z</time></trkpt><trkpt lat="40.8945238625222" lon="19.742476077454583"><ele>11.0</ele><time>2026-04-27T09:01:16.999Z</time></trkpt><trkpt lat="40.894412410846186" lon="19.742384165473435"><ele>11.0</ele><time>2026-04-27T09:01:17.999Z</time></trkpt><trkpt lat="40.894296425776645" lon="19.742285972331366"><ele>11.0</ele><time>2026-04-27T09:01:18.999Z</time></trkpt><trkpt lat="40.89417069182506" lon="19.742180447663937"><ele>11.0</ele><time>2026-04-27T09:01:19.999Z</time></trkpt><trkpt lat="40.89403524049663" lon="19.742068433372822"><ele>11.333333333333332</ele><time>2026-04-27T09:01:20.999Z</time></trkpt><trkpt lat="40.893893018475715" lon="19.741950631682087"><ele>11.666666666666666</ele><time>2026-04-27T09:01:21.999Z</time></trkpt><trkpt lat="40.89374821354134" lon="19.74182883256224"><ele>12.0</ele><time>2026-04-27T09:01:22.999Z</time></trkpt><trkpt lat="40.89359682535381" lon="19.74169886002736"><ele>12.0</ele><time>2026-04-27T09:01:23.999Z</time></trkpt><trkpt lat="40.89344139926919" lon="19.741572953748694"><ele>12.0</ele><time>2026-04-27T09:01:24.999Z</time></trkpt><trkpt lat="40.89328050056612" lon="19.74144299699965"><ele>12.0</ele><time>2026-04-27T09:01:25.999Z</time></trkpt><trkpt lat="40.893115975211394" lon="19.741311076346697"><ele>12.0</ele><time>2026-04-27T09:01:26.999Z</time></trkpt><trkpt lat="40.892947952751875" lon="19.741172452626827"><ele>12.0</ele><time>2026-04-27T09:01:27.999Z</time></trkpt><trkpt lat="40.892778278652905" lon="19.74103410958832"><ele>12.0</ele><time>2026-04-27T09:01:28.999Z</time></trkpt><trkpt lat="40.89260462031675" lon="19.740895107296357"><ele>11.333333333333334</ele><time>2026-04-27T09:01:29.999Z</time></trkpt><trkpt lat="40.892428698334214" lon="19.7407536882949"><ele>10.666666666666668</ele><time>2026-04-27T09:01:30.999Z</time></trkpt><trkpt lat="40.892251307653545" lon="19.7406093805323"><ele>10.0</ele><time>2026-04-27T09:01:31.999Z</time></trkpt><trkpt lat="40.892070447996964" lon="19.7404612396428"><ele>10.0</ele><time>2026-04-27T09:01:32.999Z</time></trkpt><trkpt lat="40.89188746929706" lon="19.740311643747706"><ele>10.0</ele><time>2026-04-27T09:01:33.999Z</time></trkpt><trkpt lat="40.891702947394535" lon="19.74016054415018"><ele>10.0</ele><time>2026-04-27T09:01:34.999Z</time></trkpt><trkpt lat="40.891523631444294" lon="19.740013432823012"><ele>10.666666666666668</ele><time>2026-04-27T09:01:35.999Z</time></trkpt><trkpt lat="40.891357011709296" lon="19.73987875674294"><ele>11.333333333333334</ele><time>2026-04-27T09:01:36.999Z</time></trkpt><trkpt lat="40.891190255398946" lon="19.73974355824991"><ele>12.0</ele><time>2026-04-27T09:01:37.999Z</time></trkpt><trkpt lat="40.89104601600032" lon="19.73962787416423"><ele>12.0</ele><time>2026-04-27T09:01:38.999Z</time></trkpt><trkpt lat="40.890957307183065" lon="19.739553740505936"><ele>12.0</ele><time>2026-04-27T09:01:40Z</time></trkpt><trkpt lat="40.89090323542169" lon="19.739510105904063"><ele>12.0</ele><time>2026-04-27T09:01:41Z</time></trkpt><trkpt lat="40.89085097384495" lon="19.73943130978486"><ele>12.0</ele><time>2026-04-27T09:01:43Z</time></trkpt><trkpt lat="40.89083771705478" lon="19.739529692521906"><ele>12.0</ele><time>2026-04-27T09:01:50Z</time></trkpt><trkpt lat="40.890905640221625" lon="19.73956471352325"><ele>12.0</ele><time>2026-04-27T09:01:51Z</time></trkpt><trkpt lat="40.890973467665376" lon="19.739629629191217"><ele>12.25</ele><time>2026-04-27T09:01:53Z</time></trkpt><trkpt lat="40.890915969396204" lon="19.73981559801852"><ele>12.5</ele><time>2026-04-27T09:01:54Z</time></trkpt><trkpt lat="40.89081819897031" lon="19.73994543628259"><ele>12.75</ele><time>2026-04-27T09:01:57Z</time></trkpt><trkpt lat="40.890760527010215" lon="19.740071377283552"><ele>13.0</ele><time>2026-04-27T09:01:58Z</time></trkpt><trkpt lat="40.89070666720594" lon="19.740198324840375"><ele>13.2</ele><time>2026-04-27T09:01:59Z</time></trkpt><trkpt lat="40.89065797703188" lon="19.740308879966133"><ele>13.4</ele><time>2026-04-27T09:02:00Z</time></trkpt><trkpt lat="40.89060831595039" lon="19.740414770933857"><ele>13.599999999999998</ele><time>2026-04-27T09:02:01Z</time></trkpt><trkpt lat="40.89056061480911" lon="19.74052650427375"><ele>13.799999999999999</ele><time>2026-04-27T09:02:02Z</time></trkpt><trkpt lat="40.890516269677796" lon="19.74062581203394"><ele>14.0</ele><time>2026-04-27T09:02:03Z</time></trkpt><trkpt lat="40.89047460202345" lon="19.740717861220606"><ele>14.000000000000002</ele><time>2026-04-27T09:02:04Z</time></trkpt><trkpt lat="40.890434135859834" lon="19.740809491622414"><ele>14.0</ele><time>2026-04-27T09:02:05Z</time></trkpt><trkpt lat="40.89039539255332" lon="19.740901905542817"><ele>14.0</ele><time>2026-04-27T09:02:06Z</time></trkpt><trkpt lat="40.89034901349453" lon="19.74099624094601"><ele>14.0</ele><time>2026-04-27T09:02:07Z</time></trkpt><trkpt lat="40.890305118097146" lon="19.74108456103607"><ele>14.000000000000002</ele><time>2026-04-27T09:02:08Z</time></trkpt><trkpt lat="40.89026341814663" lon="19.741180004974815"><ele>14.0</ele><time>2026-04-27T09:02:09Z</time></trkpt><trkpt lat="40.89021711340575" lon="19.7412736304074"><ele>14.000000000000002</ele><time>2026-04-27T09:02:10Z</time></trkpt><trkpt lat="40.89017385890489" lon="19.741369329558246"><ele>14.0</ele><time>2026-04-27T09:02:11Z</time></trkpt><trkpt lat="40.890124054646016" lon="19.741470297733283"><ele>14.0</ele><time>2026-04-27T09:02:12Z</time></trkpt><trkpt lat="40.890078925145495" lon="19.74156661776309"><ele>14.0</ele><time>2026-04-27T09:02:13Z</time></trkpt><trkpt lat="40.89003742716263" lon="19.74166205854598"><ele>14.000000000000002</ele><time>2026-04-27T09:02:14Z</time></trkpt><trkpt lat="40.889996761093855" lon="19.7417494314925"><ele>14.0</ele><time>2026-04-27T09:02:15Z</time></trkpt><trkpt lat="40.88994884051381" lon="19.741846169231845"><ele>13.399999999999999</ele><time>2026-04-27T09:02:16Z</time></trkpt><trkpt lat="40.88989758385396" lon="19.741959324190198"><ele>12.799999999999999</ele><time>2026-04-27T09:02:17Z</time></trkpt><trkpt lat="40.88984226410953" lon="19.74208387974279"><ele>12.2</ele><time>2026-04-27T09:02:18Z</time></trkpt><trkpt lat="40.88979604507953" lon="19.742185624794942"><ele>11.600000000000001</ele><time>2026-04-27T09:02:19Z</time></trkpt><trkpt lat="40.889748862593244" lon="19.742284916467522"><ele>11.0</ele><time>2026-04-27T09:02:20Z</time></trkpt><trkpt lat="40.88970197968459" lon="19.7423859676473"><ele>11.0</ele><time>2026-04-27T09:02:21Z</time></trkpt><trkpt lat="40.889652818112694" lon="19.742487731817633"><ele>11.0</ele><time>2026-04-27T09:02:22Z</time></trkpt><trkpt lat="40.88960354855345" lon="19.742595870794176"><ele>11.0</ele><time>2026-04-27T09:02:22.999Z</time></trkpt><trkpt lat="40.88954975194395" lon="19.742707679024424"><ele>11.0</ele><time>2026-04-27T09:02:23.999Z</time></trkpt><trkpt lat="40.889494579994455" lon="19.742837792611965"><ele>11.0</ele><time>2026-04-27T09:02:24.999Z</time></trkpt><trkpt lat="40.88943662555173" lon="19.74296802362265"><ele>11.0</ele><time>2026-04-27T09:02:25.999Z</time></trkpt><trkpt lat="40.88936211771057" lon="19.743090597031063"><ele>11.0</ele><time>2026-04-27T09:02:26.999Z</time></trkpt><trkpt lat="40.88931226306958" lon="19.743240533084485"><ele>11.0</ele><time>2026-04-27T09:02:27.999Z</time></trkpt><trkpt lat="40.88924738003223" lon="19.743366563827447"><ele>11.0</ele><time>2026-04-27T09:02:28.999Z</time></trkpt><trkpt lat="40.88917916079167" lon="19.74347341164588"><ele>11.25</ele><time>2026-04-27T09:02:29.999Z</time></trkpt><trkpt lat="40.889084428592795" lon="19.74355748070616"><ele>11.5</ele><time>2026-04-27T09:02:30.999Z</time></trkpt><trkpt lat="40.88896648201831" lon="19.74360208528006"><ele>11.75</ele><time>2026-04-27T09:02:31.999Z</time></trkpt><trkpt lat="40.888835149537165" lon="19.74368565734196"><ele>12.0</ele><time>2026-04-27T09:02:32.999Z</time></trkpt><trkpt lat="40.88868765829577" lon="19.74373660012787"><ele>12.0</ele><time>2026-04-27T09:02:33.999Z</time></trkpt><trkpt lat="40.88854557167542" lon="19.743806586974856"><ele>12.0</ele><time>2026-04-27T09:02:34.999Z</time></trkpt><trkpt lat="40.88840123216507" lon="19.74388023825374"><ele>12.0</ele><time>2026-04-27T09:02:35.999Z</time></trkpt><trkpt lat="40.88824784650787" lon="19.743955690866716"><ele>12.0</ele><time>2026-04-27T09:02:36.999Z</time></trkpt><trkpt lat="40.88808021983289" lon="19.74404198954209"><ele>12.0</ele><time>2026-04-27T09:02:37.999Z</time></trkpt><trkpt lat="40.88792395922107" lon="19.74411735450767"><ele>12.0</ele><time>2026-04-27T09:02:38.999Z</time></trkpt><trkpt lat="40.8877713310591" lon="19.74419262111265"><ele>12.0</ele><time>2026-04-27T09:02:39.999Z</time></trkpt><trkpt lat="40.887610781381866" lon="19.744273179809397"><ele>12.0</ele><time>2026-04-27T09:02:40.999Z</time></trkpt><trkpt lat="40.88746559206142" lon="19.744348681307184"><ele>12.0</ele><time>2026-04-27T09:02:41.999Z</time></trkpt><trkpt lat="40.88734633653944" lon="19.744415747038662"><ele>12.2</ele><time>2026-04-27T09:02:42.999Z</time></trkpt><trkpt lat="40.887241550724056" lon="19.744470039469935"><ele>12.399999999999999</ele><time>2026-04-27T09:02:43.999Z</time></trkpt><trkpt lat="40.88714642895045" lon="19.74452130002841"><ele>12.600000000000001</ele><time>2026-04-27T09:02:44.999Z</time></trkpt><trkpt lat="40.88704371516519" lon="19.7445869844309"><ele>12.8</ele><time>2026-04-27T09:02:45.999Z</time></trkpt><trkpt lat="40.886941871336454" lon="19.744629971060075"><ele>13.0</ele><time>2026-04-27T09:02:46.999Z</time></trkpt><trkpt lat="40.88687146873587" lon="19.74469290310116"><ele>12.999999999999998</ele><time>2026-04-27T09:02:47.999Z</time></trkpt><trkpt lat="40.88681382210179" lon="19.744737151204315"><ele>13.0</ele><time>2026-04-27T09:02:48.999Z</time></trkpt><trkpt lat="40.886781980843146" lon="19.74480939186436"><ele>13.0</ele><time>2026-04-27T09:02:49.999Z</time></trkpt><trkpt lat="40.88677463014897" lon="19.744908957336033"><ele>13.0</ele><time>2026-04-27T09:02:50.999Z</time></trkpt><trkpt lat="40.886778664536905" lon="19.74504883166034"><ele>12.999999999999998</ele><time>2026-04-27T09:02:51.999Z</time></trkpt><trkpt lat="40.88676295943304" lon="19.745222994872215"><ele>13.0</ele><time>2026-04-27T09:02:52.999Z</time></trkpt><trkpt lat="40.88672329623102" lon="19.74540036319667"><ele>12.75</ele><time>2026-04-27T09:02:53.999Z</time></trkpt><trkpt lat="40.88666395135533" lon="19.745573315519735"><ele>12.5</ele><time>2026-04-27T09:02:54.999Z</time></trkpt><trkpt lat="40.88659770766628" lon="19.74571725597601"><ele>12.25</ele><time>2026-04-27T09:02:55.999Z</time></trkpt><trkpt lat="40.88653599704008" lon="19.745834307584186"><ele>12.0</ele><time>2026-04-27T09:02:56.999Z</time></trkpt><trkpt lat="40.88647322355777" lon="19.74595642931958"><ele>12.25</ele><time>2026-04-27T09:02:57.999Z</time></trkpt><trkpt lat="40.88640860286" lon="19.746095012983613"><ele>12.5</ele><time>2026-04-27T09:02:58.999Z</time></trkpt><trkpt lat="40.886343445348174" lon="19.746246212403104"><ele>12.75</ele><time>2026-04-27T09:02:59.999Z</time></trkpt><trkpt lat="40.88627697689257" lon="19.746406921061038"><ele>13.0</ele><time>2026-04-27T09:03:00.999Z</time></trkpt><trkpt lat="40.88619563072202" lon="19.746595089939014"><ele>13.0</ele><time>2026-04-27T09:03:01.999Z</time></trkpt><trkpt lat="40.886093276425896" lon="19.746828695978806"><ele>13.0</ele><time>2026-04-27T09:03:02.999Z</time></trkpt><trkpt lat="40.88599838601923" lon="19.747050105387576"><ele>13.0</ele><time>2026-04-27T09:03:03.999Z</time></trkpt><trkpt lat="40.88591889254602" lon="19.74723442366491"><ele>13.0</ele><time>2026-04-27T09:03:04.999Z</time></trkpt><trkpt lat="40.88583680301184" lon="19.747422593006828"><ele>13.0</ele><time>2026-04-27T09:03:05.999Z</time></trkpt><trkpt lat="40.885747591439774" lon="19.747630010642418"><ele>13.0</ele><time>2026-04-27T09:03:06.999Z</time></trkpt><trkpt lat="40.885653705916745" lon="19.747842519236354"><ele>13.25</ele><time>2026-04-27T09:03:07.999Z</time></trkpt><trkpt lat="40.88556468425656" lon="19.748041464585516"><ele>13.5</ele><time>2026-04-27T09:03:08.999Z</time></trkpt><trkpt lat="40.885492308382254" lon="19.748194665468386"><ele>13.75</ele><time>2026-04-27T09:03:09.999Z</time></trkpt><trkpt lat="40.88543930360946" lon="19.748317821408783"><ele>14.0</ele><time>2026-04-27T09:03:10.999Z</time></trkpt><trkpt lat="40.88538184925142" lon="19.748455404315628"><ele>14.0</ele><time>2026-04-27T09:03:11.999Z</time></trkpt><trkpt lat="40.885319984348364" lon="19.748584965435455"><ele>13.999999999999998</ele><time>2026-04-27T09:03:12.999Z</time></trkpt><trkpt lat="40.88525402854976" lon="19.748674690103293"><ele>13.999999999999998</ele><time>2026-04-27T09:03:13.999Z</time></trkpt><trkpt lat="40.88516943170676" lon="19.748709751818737"><ele>14.0</ele><time>2026-04-27T09:03:14.999Z</time></trkpt><trkpt lat="40.88508514021615" lon="19.748741742482437"><ele>14.0</ele><time>2026-04-27T09:03:15.999Z</time></trkpt><trkpt lat="40.88501047182324" lon="19.748782959939415"><ele>14.0</ele><time>2026-04-27T09:03:16.999Z</time></trkpt><trkpt lat="40.88496641541179" lon="19.748855926816123"><ele>13.999999999999998</ele><time>2026-04-27T09:03:17.999Z</time></trkpt><trkpt lat="40.884984235676285" lon="19.74898905128781"><ele>13.999999999999998</ele><time>2026-04-27T09:03:18.999Z</time></trkpt><trkpt lat="40.88497389963092" lon="19.749138489983554"><ele>14.0</ele><time>2026-04-27T09:03:19.999Z</time></trkpt><trkpt lat="40.88490776889249" lon="19.749290908146264"><ele>14.0</ele><time>2026-04-27T09:03:20.999Z</time></trkpt><trkpt lat="40.88483394145196" lon="19.749474156334543"><ele>13.0</ele><time>2026-04-27T09:03:21.999Z</time></trkpt><trkpt lat="40.884770408393535" lon="19.749668213745117"><ele>12.0</ele><time>2026-04-27T09:03:22.999Z</time></trkpt><trkpt lat="40.88469331531661" lon="19.74983346932953"><ele>11.0</ele><time>2026-04-27T09:03:23.999Z</time></trkpt><trkpt lat="40.88461443524618" lon="19.74999611584858"><ele>11.0</ele><time>2026-04-27T09:03:24.999Z</time></trkpt><trkpt lat="40.88453590079192" lon="19.750158794099445"><ele>11.0</ele><time>2026-04-27T09:03:25.999Z</time></trkpt><trkpt lat="40.884456406106565" lon="19.75033079177701"><ele>11.0</ele><time>2026-04-27T09:03:26.999Z</time></trkpt><trkpt lat="40.88437602537906" lon="19.75051187410107"><ele>11.333333333333332</ele><time>2026-04-27T09:03:27.999Z</time></trkpt><trkpt lat="40.88429267023597" lon="19.750694208170373"><ele>11.666666666666666</ele><time>2026-04-27T09:03:28.999Z</time></trkpt><trkpt lat="40.88421543131185" lon="19.750857328395366"><ele>12.0</ele><time>2026-04-27T09:03:29.999Z</time></trkpt><trkpt lat="40.88414151549357" lon="19.751019923959934"><ele>12.166666666666666</ele><time>2026-04-27T09:03:30.999Z</time></trkpt><trkpt lat="40.8840788981218" lon="19.751153938724656"><ele>12.333333333333332</ele><time>2026-04-27T09:03:31.999Z</time></trkpt><trkpt lat="40.8840238610884" lon="19.751249044775065"><ele>12.5</ele><time>2026-04-27T09:03:32.999Z</time></trkpt><trkpt lat="40.88394533389935" lon="19.751277320091674"><ele>12.666666666666666</ele><time>2026-04-27T09:03:33.999Z</time></trkpt><trkpt lat="40.88387685896639" lon="19.7512514894755"><ele>12.833333333333332</ele><time>2026-04-27T09:03:34.999Z</time></trkpt><trkpt lat="40.88379734232502" lon="19.75123033909213"><ele>13.0</ele><time>2026-04-27T09:03:35.999Z</time></trkpt><trkpt lat="40.88373994094221" lon="19.751179859239645"><ele>12.999999999999998</ele><time>2026-04-27T09:03:36.999Z</time></trkpt><trkpt lat="40.883671994455995" lon="19.751130696846143"><ele>13.0</ele><time>2026-04-27T09:03:38.999Z</time></trkpt><trkpt lat="40.883595314067485" lon="19.75123572072792"><ele>13.0</ele><time>2026-04-27T09:03:55.999Z</time></trkpt><trkpt lat="40.88351449459708" lon="19.75126715952013"><ele>13.0</ele><time>2026-04-27T09:03:57.999Z</time></trkpt><trkpt lat="40.883436622623314" lon="19.75130950849071"><ele>12.999999999999998</ele><time>2026-04-27T09:03:59.999Z</time></trkpt><trkpt lat="40.88351615939478" lon="19.751277352538686"><ele>13.0</ele><time>2026-04-27T09:04:28.999Z</time></trkpt><trkpt lat="40.88369087580101" lon="19.75116470083213"><ele>12.999999999999998</ele><time>2026-04-27T09:04:29.999Z</time></trkpt><trkpt lat="40.88363694063526" lon="19.751225715154987"><ele>13.0</ele><time>2026-04-27T09:04:30.999Z</time></trkpt><trkpt lat="40.88370766866363" lon="19.751193021448316"><ele>13.0</ele><time>2026-04-27T09:04:32.999Z</time></trkpt><trkpt lat="40.88377469497194" lon="19.751212360409735"><ele>13.0</ele><time>2026-04-27T09:04:42.999Z</time></trkpt><trkpt lat="40.88384827597384" lon="19.751254836941"><ele>12.999999999999998</ele><time>2026-04-27T09:04:44.999Z</time></trkpt><trkpt lat="40.88394829147522" lon="19.75130087351473"><ele>13.0</ele><time>2026-04-27T09:04:46.999Z</time></trkpt><trkpt lat="40.884046583578" lon="19.75126041802988"><ele>12.999999999999998</ele><time>2026-04-27T09:04:48.999Z</time></trkpt><trkpt lat="40.884110191517365" lon="19.751156664439318"><ele>13.0</ele><time>2026-04-27T09:04:50.999Z</time></trkpt><trkpt lat="40.88415186578772" lon="19.751069525435817"><ele>13.0</ele><time>2026-04-27T09:04:52.999Z</time></trkpt><trkpt lat="40.884195469552324" lon="19.750976328249426"><ele>13.0</ele><time>2026-04-27T09:04:54.999Z</time></trkpt><trkpt lat="40.8842355369361" lon="19.75089080441878"><ele>12.999999999999998</ele><time>2026-04-27T09:04:57.999Z</time></trkpt><trkpt lat="40.88428258186415" lon="19.750789281652665"><ele>13.0</ele><time>2026-04-27T09:05:18.999Z</time></trkpt><trkpt lat="40.88431646423401" lon="19.750714192005283"><ele>12.8</ele><time>2026-04-27T09:05:19.999Z</time></trkpt><trkpt lat="40.88435458471073" lon="19.75062971000648"><ele>12.600000000000001</ele><time>2026-04-27T09:05:20.999Z</time></trkpt><trkpt lat="40.88439848337488" lon="19.7505322547891"><ele>12.399999999999999</ele><time>2026-04-27T09:05:21.999Z</time></trkpt><trkpt lat="40.88444753045821" lon="19.75042334746152"><ele>12.2</ele><time>2026-04-27T09:05:22.999Z</time></trkpt><trkpt lat="40.88450060774569" lon="19.750305489142164"><ele>12.0</ele><time>2026-04-27T09:05:23.999Z</time></trkpt><trkpt lat="40.884560048143136" lon="19.750174552377235"><ele>11.833333333333334</ele><time>2026-04-27T09:05:24.999Z</time></trkpt><trkpt lat="40.884621112665805" lon="19.75003879287423"><ele>11.666666666666666</ele><time>2026-04-27T09:05:25.999Z</time></trkpt><trkpt lat="40.88467194887781" lon="19.749925773349013"><ele>11.5</ele><time>2026-04-27T09:05:26.999Z</time></trkpt><trkpt lat="40.88471579135674" lon="19.7498283021953"><ele>11.333333333333332</ele><time>2026-04-27T09:05:27.999Z</time></trkpt><trkpt lat="40.88475445819379" lon="19.74974233766258"><ele>11.166666666666666</ele><time>2026-04-27T09:05:28.999Z</time></trkpt><trkpt lat="40.884787321227975" lon="19.749669276153462"><ele>11.0</ele><time>2026-04-27T09:05:29.999Z</time></trkpt><trkpt lat="40.884822268029936" lon="19.749591582116278"><ele>11.0</ele><time>2026-04-27T09:05:31.999Z</time></trkpt><trkpt lat="40.884912758470044" lon="19.749678620045053"><ele>11.0</ele><time>2026-04-27T09:05:37.999Z</time></trkpt><trkpt lat="40.884894649701366" lon="19.74976579741401"><ele>11.0</ele><time>2026-04-27T09:05:39.999Z</time></trkpt><trkpt lat="40.884827086578525" lon="19.74985516066672"><ele>11.0</ele><time>2026-04-27T09:05:41.999Z</time></trkpt><trkpt lat="40.88476974286113" lon="19.749992282869925"><ele>11.0</ele><time>2026-04-27T09:05:43.999Z</time></trkpt><trkpt lat="40.884733251498396" lon="19.750072986308364"><ele>11.0</ele><time>2026-04-27T09:05:44.999Z</time></trkpt><trkpt lat="40.884687462574895" lon="19.750165924600108"><ele>11.0</ele><time>2026-04-27T09:05:45.999Z</time></trkpt><trkpt lat="40.88465688174626" lon="19.750240164068412"><ele>11.0</ele><time>2026-04-27T09:05:46.999Z</time></trkpt><trkpt lat="40.884608017635166" lon="19.750332410746825"><ele>11.0</ele><time>2026-04-27T09:05:48.999Z</time></trkpt><trkpt lat="40.884560731084726" lon="19.750437209105186"><ele>11.0</ele><time>2026-04-27T09:05:50.999Z</time></trkpt><trkpt lat="40.884521741071055" lon="19.7505201075738"><ele>11.0</ele><time>2026-04-27T09:05:51.999Z</time></trkpt><trkpt lat="40.88447342897074" lon="19.750623767194877"><ele>11.200000000000001</ele><time>2026-04-27T09:05:52.999Z</time></trkpt><trkpt lat="40.884406869434756" lon="19.750731795428774"><ele>11.4</ele><time>2026-04-27T09:05:53.999Z</time></trkpt><trkpt lat="40.88436916887225" lon="19.750851788648127"><ele>11.6</ele><time>2026-04-27T09:05:54.999Z</time></trkpt><trkpt lat="40.88430632756158" lon="19.750956138808426"><ele>11.8</ele><time>2026-04-27T09:05:55.999Z</time></trkpt><trkpt lat="40.88426616064419" lon="19.75104962827806"><ele>12.0</ele><time>2026-04-27T09:05:56.999Z</time></trkpt><trkpt lat="40.88422953567077" lon="19.751138508633343"><ele>12.2</ele><time>2026-04-27T09:05:57.999Z</time></trkpt><trkpt lat="40.884184277789416" lon="19.75124109517468"><ele>12.399999999999999</ele><time>2026-04-27T09:05:58.999Z</time></trkpt><trkpt lat="40.884141723955906" lon="19.75134222450787"><ele>12.600000000000001</ele><time>2026-04-27T09:05:59.999Z</time></trkpt><trkpt lat="40.88409449102633" lon="19.751462836998787"><ele>12.8</ele><time>2026-04-27T09:06:00.999Z</time></trkpt><trkpt lat="40.884041026779556" lon="19.75158392125294"><ele>13.0</ele><time>2026-04-27T09:06:01.999Z</time></trkpt><trkpt lat="40.883985557066275" lon="19.75170048722662"><ele>12.999999999999998</ele><time>2026-04-27T09:06:02.999Z</time></trkpt><trkpt lat="40.88394559288231" lon="19.751796445403155"><ele>13.0</ele><time>2026-04-27T09:06:03.999Z</time></trkpt><trkpt lat="40.88390618215343" lon="19.75188417955602"><ele>13.0</ele><time>2026-04-27T09:06:04.999Z</time></trkpt><trkpt lat="40.88386437213935" lon="19.7519829504889"><ele>13.0</ele><time>2026-04-27T09:06:05.999Z</time></trkpt><trkpt lat="40.88381273315149" lon="19.752084577513216"><ele>12.999999999999998</ele><time>2026-04-27T09:06:06.999Z</time></trkpt><trkpt lat="40.883768518954035" lon="19.752178003922666"><ele>13.0</ele><time>2026-04-27T09:06:07.999Z</time></trkpt><trkpt lat="40.88372841614537" lon="19.752260570976514"><ele>12.999999999999998</ele><time>2026-04-27T09:06:08.999Z</time></trkpt><trkpt lat="40.883688390329034" lon="19.752347159706108"><ele>13.0</ele><time>2026-04-27T09:06:09.999Z</time></trkpt><trkpt lat="40.88364671560549" lon="19.7524396474207"><ele>13.0</ele><time>2026-04-27T09:06:10.999Z</time></trkpt><trkpt lat="40.88360197529547" lon="19.752530077813486"><ele>13.0</ele><time>2026-04-27T09:06:11.999Z</time></trkpt><trkpt lat="40.88356207326298" lon="19.752618185456445"><ele>12.999999999999998</ele><time>2026-04-27T09:06:12.999Z</time></trkpt><trkpt lat="40.883524727868775" lon="19.752697111453106"><ele>13.0</ele><time>2026-04-27T09:06:13.999Z</time></trkpt><trkpt lat="40.88349471209559" lon="19.752773672512447"><ele>12.999999999999998</ele><time>2026-04-27T09:06:14.999Z</time></trkpt><trkpt lat="40.88345771000846" lon="19.752860517228946"><ele>13.0</ele><time>2026-04-27T09:06:15.999Z</time></trkpt><trkpt lat="40.88342294841694" lon="19.75294725520421"><ele>13.0</ele><time>2026-04-27T09:06:16.999Z</time></trkpt><trkpt lat="40.883386499296165" lon="19.753020102930044"><ele>13.0</ele><time>2026-04-27T09:06:17.999Z</time></trkpt><trkpt lat="40.88334829542435" lon="19.753106110372844"><ele>12.999999999999998</ele><time>2026-04-27T09:06:18.999Z</time></trkpt><trkpt lat="40.88330033767832" lon="19.753194757287492"><ele>13.0</ele><time>2026-04-27T09:06:19.999Z</time></trkpt><trkpt lat="40.883254072621824" lon="19.75329095593438"><ele>12.999999999999998</ele><time>2026-04-27T09:06:20.999Z</time></trkpt><trkpt lat="40.88321122666351" lon="19.753383801500604"><ele>13.0</ele><time>2026-04-27T09:06:21.999Z</time></trkpt><trkpt lat="40.88316876297974" lon="19.753474794067916"><ele>13.0</ele><time>2026-04-27T09:06:22.999Z</time></trkpt><trkpt lat="40.88312451572916" lon="19.753571392289892"><ele>13.0</ele><time>2026-04-27T09:06:23.999Z</time></trkpt><trkpt lat="40.88307990676163" lon="19.753665294762065"><ele>12.999999999999998</ele><time>2026-04-27T09:06:24.999Z</time></trkpt><trkpt lat="40.883035650570925" lon="19.753760693785004"><ele>13.0</ele><time>2026-04-27T09:06:25.999Z</time></trkpt><trkpt lat="40.88298903121662" lon="19.753859142337706"><ele>12.999999999999998</ele><time>2026-04-27T09:06:26.999Z</time></trkpt><trkpt lat="40.8829483887551" lon="19.753956317769177"><ele>13.0</ele><time>2026-04-27T09:06:27.999Z</time></trkpt><trkpt lat="40.882914834733924" lon="19.754056152144706"><ele>13.0</ele><time>2026-04-27T09:06:28.999Z</time></trkpt><trkpt lat="40.88289222828474" lon="19.754168846319327"><ele>13.0</ele><time>2026-04-27T09:06:29.999Z</time></trkpt><trkpt lat="40.882880863012204" lon="19.754288971748778"><ele>12.999999999999998</ele><time>2026-04-27T09:06:30.999Z</time></trkpt><trkpt lat="40.882844434936544" lon="19.754401684758843"><ele>13.0</ele><time>2026-04-27T09:06:31.999Z</time></trkpt><trkpt lat="40.88280306049935" lon="19.75448860764685"><ele>12.999999999999998</ele><time>2026-04-27T09:06:32.999Z</time></trkpt><trkpt lat="40.88276561305506" lon="19.754560769935935"><ele>13.0</ele><time>2026-04-27T09:06:33.999Z</time></trkpt><trkpt lat="40.88272382155575" lon="19.754649640703022"><ele>13.0</ele><time>2026-04-27T09:06:34.999Z</time></trkpt><trkpt lat="40.88268726257688" lon="19.754769370968113"><ele>13.0</ele><time>2026-04-27T09:06:35.999Z</time></trkpt><trkpt lat="40.882631349475126" lon="19.75486286886832"><ele>12.999999999999998</ele><time>2026-04-27T09:06:36.999Z</time></trkpt><trkpt lat="40.882563391152516" lon="19.754923982283014"><ele>13.0</ele><time>2026-04-27T09:06:37.999Z</time></trkpt><trkpt lat="40.882503191891495" lon="19.754963471815906"><ele>13.2</ele><time>2026-04-27T09:06:38.999Z</time></trkpt><trkpt lat="40.882393548694495" lon="19.75502315365844"><ele>13.4</ele><time>2026-04-27T09:06:40.999Z</time></trkpt><trkpt lat="40.88237133345684" lon="19.75512887821429"><ele>13.599999999999998</ele><time>2026-04-27T09:06:41.999Z</time></trkpt><trkpt lat="40.88233166115321" lon="19.755222958407217"><ele>13.799999999999999</ele><time>2026-04-27T09:06:42.999Z</time></trkpt><trkpt lat="40.88228341470669" lon="19.755327790907312"><ele>14.0</ele><time>2026-04-27T09:06:43.999Z</time></trkpt><trkpt lat="40.882239177266825" lon="19.755421893152484"><ele>14.0</ele><time>2026-04-27T09:06:44.999Z</time></trkpt><trkpt lat="40.88219188657964" lon="19.755523862395478"><ele>13.999999999999998</ele><time>2026-04-27T09:06:45.999Z</time></trkpt><trkpt lat="40.88212308544849" lon="19.755658216837507"><ele>13.999999999999998</ele><time>2026-04-27T09:06:47.999Z</time></trkpt><trkpt lat="40.88209020126221" lon="19.755742701028097"><ele>14.0</ele><time>2026-04-27T09:06:48.999Z</time></trkpt><trkpt lat="40.88205051249381" lon="19.75583914592774"><ele>14.0</ele><time>2026-04-27T09:06:49.999Z</time></trkpt><trkpt lat="40.88200705582065" lon="19.755934129562426"><ele>14.000000000000002</ele><time>2026-04-27T09:06:50.999Z</time></trkpt><trkpt lat="40.88195101878574" lon="19.75601743351861"><ele>14.0</ele><time>2026-04-27T09:06:51.999Z</time></trkpt><trkpt lat="40.88191286329754" lon="19.756101319501774"><ele>14.0</ele><time>2026-04-27T09:06:52.999Z</time></trkpt><trkpt lat="40.881886162772346" lon="19.756202069222017"><ele>14.0</ele><time>2026-04-27T09:06:53.999Z</time></trkpt><trkpt lat="40.881837792406586" lon="19.75630604152733"><ele>14.000000000000002</ele><time>2026-04-27T09:06:54.999Z</time></trkpt><trkpt lat="40.88179335832577" lon="19.756396323831584"><ele>14.0</ele><time>2026-04-27T09:06:55.999Z</time></trkpt><trkpt lat="40.88174805159301" lon="19.756483316014712"><ele>14.0</ele><time>2026-04-27T09:06:56.999Z</time></trkpt><trkpt lat="40.88170396559558" lon="19.756567538319604"><ele>13.999999999999998</ele><time>2026-04-27T09:06:57.999Z</time></trkpt><trkpt lat="40.881658552399635" lon="19.756672480107614"><ele>13.999999999999998</ele><time>2026-04-27T09:06:58.999Z</time></trkpt><trkpt lat="40.88161346836117" lon="19.756760817742453"><ele>14.0</ele><time>2026-04-27T09:06:59.999Z</time></trkpt><trkpt lat="40.88157271611359" lon="19.756842743652214"><ele>14.0</ele><time>2026-04-27T09:07:00.999Z</time></trkpt><trkpt lat="40.88150917532941" lon="19.756994050385615"><ele>14.000000000000002</ele><time>2026-04-27T09:07:02.999Z</time></trkpt><trkpt lat="40.881469349500435" lon="19.757093016524855"><ele>14.0</ele><time>2026-04-27T09:07:03.999Z</time></trkpt><trkpt lat="40.88143155668117" lon="19.757184812165246"><ele>14.0</ele><time>2026-04-27T09:07:04.999Z</time></trkpt><trkpt lat="40.88138980297968" lon="19.757272381054474"><ele>14.0</ele><time>2026-04-27T09:07:05.999Z</time></trkpt><trkpt lat="40.88133641137827" lon="19.75737612473838"><ele>14.000000000000002</ele><time>2026-04-27T09:07:06.999Z</time></trkpt><trkpt lat="40.88128585625924" lon="19.757485535952007"><ele>14.0</ele><time>2026-04-27T09:07:07.999Z</time></trkpt><trkpt lat="40.88123434700873" lon="19.757595914919655"><ele>14.0</ele><time>2026-04-27T09:07:08.999Z</time></trkpt><trkpt lat="40.88118030580611" lon="19.757706390856175"><ele>13.999999999999998</ele><time>2026-04-27T09:07:09.999Z</time></trkpt><trkpt lat="40.881127285579105" lon="19.757822661469945"><ele>13.999999999999998</ele><time>2026-04-27T09:07:10.999Z</time></trkpt><trkpt lat="40.881076490330656" lon="19.757939190638282"><ele>14.0</ele><time>2026-04-27T09:07:11.999Z</time></trkpt><trkpt lat="40.88102429869553" lon="19.758054529798773"><ele>14.0</ele><time>2026-04-27T09:07:12.999Z</time></trkpt><trkpt lat="40.88096728601416" lon="19.75817099330226"><ele>14.000000000000002</ele><time>2026-04-27T09:07:13.999Z</time></trkpt><trkpt lat="40.880918868684404" lon="19.758272257623723"><ele>14.0</ele><time>2026-04-27T09:07:14.999Z</time></trkpt><trkpt lat="40.880874739273274" lon="19.75837126453195"><ele>14.0</ele><time>2026-04-27T09:07:15.999Z</time></trkpt><trkpt lat="40.88083299631559" lon="19.75846965676658"><ele>14.0</ele><time>2026-04-27T09:07:16.999Z</time></trkpt><trkpt lat="40.880786044763965" lon="19.758565268197284"><ele>14.000000000000002</ele><time>2026-04-27T09:07:17.999Z</time></trkpt><trkpt lat="40.88072602732564" lon="19.758661259191122"><ele>14.0</ele><time>2026-04-27T09:07:18.999Z</time></trkpt><trkpt lat="40.88068092695238" lon="19.758758946208967"><ele>14.0</ele><time>2026-04-27T09:07:19.999Z</time></trkpt><trkpt lat="40.88063467608247" lon="19.758859255785815"><ele>13.999999999999998</ele><time>2026-04-27T09:07:20.999Z</time></trkpt><trkpt lat="40.88059815135746" lon="19.75897682441654"><ele>13.999999999999998</ele><time>2026-04-27T09:07:21.999Z</time></trkpt><trkpt lat="40.88054548033526" lon="19.75909050821812"><ele>14.0</ele><time>2026-04-27T09:07:22.999Z</time></trkpt><trkpt lat="40.88049318008598" lon="19.759204737974272"><ele>14.0</ele><time>2026-04-27T09:07:23.999Z</time></trkpt><trkpt lat="40.880438056231135" lon="19.7593223899001"><ele>14.0</ele><time>2026-04-27T09:07:24.999Z</time></trkpt><trkpt lat="40.880383831761094" lon="19.759427360998735"><ele>13.999999999999998</ele><time>2026-04-27T09:07:25.999Z</time></trkpt><trkpt lat="40.88033371449861" lon="19.75953692165897"><ele>13.999999999999998</ele><time>2026-04-27T09:07:26.999Z</time></trkpt><trkpt lat="40.88027528744419" lon="19.759653134990064"><ele>14.0</ele><time>2026-04-27T09:07:27.999Z</time></trkpt><trkpt lat="40.880212445964524" lon="19.759775288540094"><ele>14.0</ele><time>2026-04-27T09:07:28.999Z</time></trkpt><trkpt lat="40.88014243284181" lon="19.759919184756566"><ele>14.0</ele><time>2026-04-27T09:07:29.999Z</time></trkpt><trkpt lat="40.88005802757708" lon="19.76010614878838"><ele>14.0</ele><time>2026-04-27T09:07:30.999Z</time></trkpt><trkpt lat="40.879985715711406" lon="19.76025959979822"><ele>14.0</ele><time>2026-04-27T09:07:31.999Z</time></trkpt><trkpt lat="40.87992591331366" lon="19.760392790544884"><ele>14.0</ele><time>2026-04-27T09:07:32.999Z</time></trkpt><trkpt lat="40.87986546928915" lon="19.76052213587218"><ele>14.0</ele><time>2026-04-27T09:07:33.999Z</time></trkpt><trkpt lat="40.87980729594588" lon="19.760651363453"><ele>13.999999999999998</ele><time>2026-04-27T09:07:34.999Z</time></trkpt><trkpt lat="40.87974948469748" lon="19.760778446717964"><ele>13.999999999999998</ele><time>2026-04-27T09:07:35.999Z</time></trkpt><trkpt lat="40.87969202942537" lon="19.7609060991044"><ele>14.0</ele><time>2026-04-27T09:07:36.999Z</time></trkpt><trkpt lat="40.879634716205615" lon="19.761030325717222"><ele>14.0</ele><time>2026-04-27T09:07:37.999Z</time></trkpt><trkpt lat="40.87957521161673" lon="19.761162932257843"><ele>13.75</ele><time>2026-04-27T09:07:38.999Z</time></trkpt><trkpt lat="40.87949931728853" lon="19.761284553906115"><ele>13.5</ele><time>2026-04-27T09:07:39.999Z</time></trkpt><trkpt lat="40.87943600842117" lon="19.761417695447204"><ele>13.25</ele><time>2026-04-27T09:07:40.999Z</time></trkpt><trkpt lat="40.879372774644764" lon="19.761550679067906"><ele>13.0</ele><time>2026-04-27T09:07:41.999Z</time></trkpt><trkpt lat="40.879316860809396" lon="19.76166826845182"><ele>13.0</ele><time>2026-04-27T09:07:42.999Z</time></trkpt><trkpt lat="40.8792745898844" lon="19.76179808585344"><ele>13.0</ele><time>2026-04-27T09:07:43.999Z</time></trkpt><trkpt lat="40.8792037164882" lon="19.761908434999793"><ele>13.0</ele><time>2026-04-27T09:07:44.999Z</time></trkpt><trkpt lat="40.879145178270356" lon="19.762031719403225"><ele>13.0</ele><time>2026-04-27T09:07:45.999Z</time></trkpt><trkpt lat="40.87908434417626" lon="19.762161158264373"><ele>13.0</ele><time>2026-04-27T09:07:46.999Z</time></trkpt><trkpt lat="40.87903667116128" lon="19.762306510785177"><ele>13.25</ele><time>2026-04-27T09:07:47.999Z</time></trkpt><trkpt lat="40.87896690263456" lon="19.762416292521564"><ele>13.5</ele><time>2026-04-27T09:07:48.999Z</time></trkpt><trkpt lat="40.87890881843051" lon="19.76254236830117"><ele>13.75</ele><time>2026-04-27T09:07:49.999Z</time></trkpt><trkpt lat="40.87884659644977" lon="19.762677381736303"><ele>14.0</ele><time>2026-04-27T09:07:50.999Z</time></trkpt><trkpt lat="40.878786168665016" lon="19.762808502071994"><ele>14.0</ele><time>2026-04-27T09:07:51.999Z</time></trkpt><trkpt lat="40.87873857578717" lon="19.76295395748065"><ele>14.0</ele><time>2026-04-27T09:07:52.999Z</time></trkpt><trkpt lat="40.87867063589103" lon="19.763081480333476"><ele>14.0</ele><time>2026-04-27T09:07:53.999Z</time></trkpt><trkpt lat="40.8786190760328" lon="19.763208703080917"><ele>14.0</ele><time>2026-04-27T09:07:54.999Z</time></trkpt><trkpt lat="40.878561788574146" lon="19.76333504990157"><ele>14.0</ele><time>2026-04-27T09:07:55.999Z</time></trkpt><trkpt lat="40.878501704799774" lon="19.76346249709869"><ele>13.999999999999998</ele><time>2026-04-27T09:07:56.999Z</time></trkpt><trkpt lat="40.878437776436456" lon="19.763585998021846"><ele>13.999999999999998</ele><time>2026-04-27T09:07:57.999Z</time></trkpt><trkpt lat="40.87837676006125" lon="19.763712628967337"><ele>14.0</ele><time>2026-04-27T09:07:58.999Z</time></trkpt><trkpt lat="40.8783232536623" lon="19.763827118547578"><ele>14.0</ele><time>2026-04-27T09:07:59.999Z</time></trkpt><trkpt lat="40.878270942450534" lon="19.76394774856835"><ele>14.0</ele><time>2026-04-27T09:08:00.999Z</time></trkpt><trkpt lat="40.87820887720523" lon="19.764073065555067"><ele>13.999999999999998</ele><time>2026-04-27T09:08:01.999Z</time></trkpt><trkpt lat="40.87815380217313" lon="19.764185984662266"><ele>13.999999999999998</ele><time>2026-04-27T09:08:02.999Z</time></trkpt><trkpt lat="40.878103633747294" lon="19.764302034504386"><ele>14.0</ele><time>2026-04-27T09:08:03.999Z</time></trkpt><trkpt lat="40.87805216849408" lon="19.764397522327958"><ele>14.0</ele><time>2026-04-27T09:08:04.999Z</time></trkpt><trkpt lat="40.87801538196561" lon="19.764488628269316"><ele>14.000000000000002</ele><time>2026-04-27T09:08:05.999Z</time></trkpt><trkpt lat="40.87798383280466" lon="19.764574682832734"><ele>14.0</ele><time>2026-04-27T09:08:06.999Z</time></trkpt><trkpt lat="40.87795096665403" lon="19.76464598144702"><ele>14.0</ele><time>2026-04-27T09:08:07.999Z</time></trkpt><trkpt lat="40.87790294582524" lon="19.76475330201545"><ele>14.0</ele><time>2026-04-27T09:08:09.999Z</time></trkpt><trkpt lat="40.877844651329475" lon="19.764868980943742"><ele>14.000000000000002</ele><time>2026-04-27T09:08:11.999Z</time></trkpt><trkpt lat="40.87779957705004" lon="19.76494909325084"><ele>14.0</ele><time>2026-04-27T09:08:13.999Z</time></trkpt><trkpt lat="40.87775764054948" lon="19.765048298762395"><ele>14.000000000000002</ele><time>2026-04-27T09:08:15.999Z</time></trkpt><trkpt lat="40.87773707358809" lon="19.765131710988168"><ele>14.0</ele><time>2026-04-27T09:08:16.999Z</time></trkpt><trkpt lat="40.87774532228093" lon="19.76522928652125"><ele>14.0</ele><time>2026-04-27T09:08:17.999Z</time></trkpt><trkpt lat="40.877743290999746" lon="19.765326866554116"><ele>14.0</ele><time>2026-04-27T09:08:18.999Z</time></trkpt><trkpt lat="40.87773590362972" lon="19.765427839606303"><ele>14.000000000000002</ele><time>2026-04-27T09:08:19.999Z</time></trkpt><trkpt lat="40.87770757511513" lon="19.76551824374152"><ele>14.0</ele><time>2026-04-27T09:08:20.999Z</time></trkpt><trkpt lat="40.877637854736356" lon="19.765586540136255"><ele>14.333333333333334</ele><time>2026-04-27T09:08:21.999Z</time></trkpt><trkpt lat="40.87757205115302" lon="19.765658505188718"><ele>14.666666666666668</ele><time>2026-04-27T09:08:22.999Z</time></trkpt><trkpt lat="40.87750021499226" lon="19.765722020674602"><ele>15.0</ele><time>2026-04-27T09:08:23.999Z</time></trkpt><trkpt lat="40.877436888706036" lon="19.76580265526699"><ele>15.333333333333332</ele><time>2026-04-27T09:08:24.999Z</time></trkpt><trkpt lat="40.87736708417211" lon="19.76588637452397"><ele>15.666666666666666</ele><time>2026-04-27T09:08:25.999Z</time></trkpt><trkpt lat="40.877310357697326" lon="19.76597839375794"><ele>16.0</ele><time>2026-04-27T09:08:26.999Z</time></trkpt><trkpt lat="40.87726923502182" lon="19.76607976408062"><ele>16.166666666666664</ele><time>2026-04-27T09:08:27.999Z</time></trkpt><trkpt lat="40.87722427524565" lon="19.766177829437094"><ele>16.333333333333332</ele><time>2026-04-27T09:08:28.999Z</time></trkpt><trkpt lat="40.87717852276264" lon="19.766277450700237"><ele>16.5</ele><time>2026-04-27T09:08:29.999Z</time></trkpt><trkpt lat="40.877133221346554" lon="19.766388103073474"><ele>16.666666666666668</ele><time>2026-04-27T09:08:30.999Z</time></trkpt><trkpt lat="40.87707430714511" lon="19.766471144789236"><ele>16.833333333333336</ele><time>2026-04-27T09:08:31.999Z</time></trkpt><trkpt lat="40.87704347010546" lon="19.766574112230366"><ele>17.0</ele><time>2026-04-27T09:08:33.999Z</time></trkpt><trkpt lat="40.87698107972122" lon="19.766702491992987"><ele>17.0</ele><time>2026-04-27T09:08:37.999Z</time></trkpt><trkpt lat="40.87694411500279" lon="19.766784057817123"><ele>17.0</ele><time>2026-04-27T09:08:38.999Z</time></trkpt><trkpt lat="40.87689237063281" lon="19.766852635540772"><ele>17.0</ele><time>2026-04-27T09:08:39.999Z</time></trkpt><trkpt lat="40.876848691212025" lon="19.766947505133132"><ele>17.0</ele><time>2026-04-27T09:08:40.999Z</time></trkpt><trkpt lat="40.87679964751957" lon="19.767054390738345"><ele>17.0</ele><time>2026-04-27T09:08:41.999Z</time></trkpt><trkpt lat="40.87674481011665" lon="19.767174009475113"><ele>17.0</ele><time>2026-04-27T09:08:42.999Z</time></trkpt><trkpt lat="40.87670317795821" lon="19.76730114769562"><ele>17.0</ele><time>2026-04-27T09:08:43.999Z</time></trkpt><trkpt lat="40.87665563386674" lon="19.767394534799386"><ele>17.0</ele><time>2026-04-27T09:08:44.999Z</time></trkpt><trkpt lat="40.87661566739531" lon="19.767484733080728"><ele>17.0</ele><time>2026-04-27T09:08:45.999Z</time></trkpt><trkpt lat="40.87657145722397" lon="19.767592359271024"><ele>17.0</ele><time>2026-04-27T09:08:46.999Z</time></trkpt><trkpt lat="40.87649912998486" lon="19.767707187596272"><ele>17.0</ele><time>2026-04-27T09:08:47.999Z</time></trkpt><trkpt lat="40.87644763380739" lon="19.767818775192445"><ele>17.0</ele><time>2026-04-27T09:08:48.999Z</time></trkpt><trkpt lat="40.87640261866429" lon="19.767916318906178"><ele>17.0</ele><time>2026-04-27T09:08:49.999Z</time></trkpt><trkpt lat="40.87636522309246" lon="19.768030882761014"><ele>17.0</ele><time>2026-04-27T09:08:50.999Z</time></trkpt><trkpt lat="40.876296957870636" lon="19.768145276395394"><ele>17.0</ele><time>2026-04-27T09:08:51.999Z</time></trkpt><trkpt lat="40.87624251468271" lon="19.768271039951223"><ele>17.0</ele><time>2026-04-27T09:08:52.999Z</time></trkpt><trkpt lat="40.87621503232024" lon="19.768383171918476"><ele>17.0</ele><time>2026-04-27T09:08:53.999Z</time></trkpt><trkpt lat="40.87618983275091" lon="19.76847584507855"><ele>17.0</ele><time>2026-04-27T09:08:54.999Z</time></trkpt><trkpt lat="40.876160801204186" lon="19.76858832116683"><ele>17.0</ele><time>2026-04-27T09:08:55.999Z</time></trkpt><trkpt lat="40.87611352770519" lon="19.76870049989769"><ele>17.0</ele><time>2026-04-27T09:08:56.999Z</time></trkpt><trkpt lat="40.87606559203641" lon="19.768817112410783"><ele>17.0</ele><time>2026-04-27T09:08:57.999Z</time></trkpt><trkpt lat="40.87600066394816" lon="19.768928942236627"><ele>17.0</ele><time>2026-04-27T09:08:58.999Z</time></trkpt><trkpt lat="40.87595572664274" lon="19.769064938065174"><ele>17.0</ele><time>2026-04-27T09:08:59.999Z</time></trkpt><trkpt lat="40.8758776662093" lon="19.76914767857709"><ele>17.0</ele><time>2026-04-27T09:09:00.999Z</time></trkpt><trkpt lat="40.87580595580809" lon="19.76925118980523"><ele>17.0</ele><time>2026-04-27T09:09:01.999Z</time></trkpt><trkpt lat="40.87575174457686" lon="19.76937673560688"><ele>17.0</ele><time>2026-04-27T09:09:02.999Z</time></trkpt><trkpt lat="40.875694104230654" lon="19.76949231062372"><ele>17.0</ele><time>2026-04-27T09:09:03.999Z</time></trkpt><trkpt lat="40.87563252026553" lon="19.76962210157752"><ele>17.0</ele><time>2026-04-27T09:09:04.999Z</time></trkpt><trkpt lat="40.87556939077172" lon="19.76975268448733"><ele>17.0</ele><time>2026-04-27T09:09:05.999Z</time></trkpt><trkpt lat="40.87551315747119" lon="19.76988140605855"><ele>17.0</ele><time>2026-04-27T09:09:06.999Z</time></trkpt><trkpt lat="40.87545633965708" lon="19.77000197200879"><ele>17.0</ele><time>2026-04-27T09:09:07.999Z</time></trkpt><trkpt lat="40.87538569002711" lon="19.770113129568838"><ele>17.0</ele><time>2026-04-27T09:09:08.999Z</time></trkpt><trkpt lat="40.87532695179623" lon="19.770238354169287"><ele>17.0</ele><time>2026-04-27T09:09:09.999Z</time></trkpt><trkpt lat="40.87528109945773" lon="19.770357027682675"><ele>17.0</ele><time>2026-04-27T09:09:10.999Z</time></trkpt><trkpt lat="40.875223777148605" lon="19.77047447247091"><ele>17.0</ele><time>2026-04-27T09:09:11.999Z</time></trkpt><trkpt lat="40.8751598389492" lon="19.770587843399554"><ele>17.0</ele><time>2026-04-27T09:09:12.999Z</time></trkpt><trkpt lat="40.87510007858134" lon="19.770714779143223"><ele>17.0</ele><time>2026-04-27T09:09:13.999Z</time></trkpt><trkpt lat="40.875053639419455" lon="19.770848375817653"><ele>17.0</ele><time>2026-04-27T09:09:14.999Z</time></trkpt><trkpt lat="40.87500341531351" lon="19.7709656870114"><ele>17.0</ele><time>2026-04-27T09:09:15.999Z</time></trkpt><trkpt lat="40.87495432150952" lon="19.77106032543444"><ele>17.0</ele><time>2026-04-27T09:09:16.999Z</time></trkpt><trkpt lat="40.8749182986612" lon="19.771132396676535"><ele>17.0</ele><time>2026-04-27T09:09:17.999Z</time></trkpt><trkpt lat="40.874872519908955" lon="19.771234241708047"><ele>17.0</ele><time>2026-04-27T09:09:19.999Z</time></trkpt><trkpt lat="40.87483610839558" lon="19.771318574347248"><ele>17.0</ele><time>2026-04-27T09:09:20.999Z</time></trkpt><trkpt lat="40.8747791694428" lon="19.771442664257442"><ele>17.0</ele><time>2026-04-27T09:09:21.999Z</time></trkpt><trkpt lat="40.874708462760154" lon="19.77155165388504"><ele>17.0</ele><time>2026-04-27T09:09:22.999Z</time></trkpt><trkpt lat="40.87465551424239" lon="19.771664692568873"><ele>17.0</ele><time>2026-04-27T09:09:23.999Z</time></trkpt><trkpt lat="40.87462307260165" lon="19.77177536526014"><ele>17.0</ele><time>2026-04-27T09:09:24.999Z</time></trkpt><trkpt lat="40.87458440018489" lon="19.77185303417033"><ele>17.0</ele><time>2026-04-27T09:09:25.999Z</time></trkpt><trkpt lat="40.87451631781577" lon="19.771986201408506"><ele>17.0</ele><time>2026-04-27T09:09:27.999Z</time></trkpt><trkpt lat="40.87448238500586" lon="19.772060910292513"><ele>17.0</ele><time>2026-04-27T09:09:28.999Z</time></trkpt><trkpt lat="40.87444923939816" lon="19.772133468366494"><ele>17.0</ele><time>2026-04-27T09:09:29.999Z</time></trkpt><trkpt lat="40.874410427022475" lon="19.772218237910447"><ele>17.0</ele><time>2026-04-27T09:09:30.999Z</time></trkpt><trkpt lat="40.87435928089393" lon="19.772297220733215"><ele>17.0</ele><time>2026-04-27T09:09:31.999Z</time></trkpt><trkpt lat="40.87433557484491" lon="19.772387078405103"><ele>17.0</ele><time>2026-04-27T09:09:32.999Z</time></trkpt><trkpt lat="40.8742742546287" lon="19.77250187527706"><ele>17.0</ele><time>2026-04-27T09:09:34.999Z</time></trkpt><trkpt lat="40.87423859203121" lon="19.772577318585125"><ele>17.0</ele><time>2026-04-27T09:09:35.999Z</time></trkpt><trkpt lat="40.87419979818914" lon="19.772658667027148"><ele>17.0</ele><time>2026-04-27T09:09:36.999Z</time></trkpt><trkpt lat="40.87415786206397" lon="19.77274627107299"><ele>16.8</ele><time>2026-04-27T09:09:37.999Z</time></trkpt><trkpt lat="40.87410670212363" lon="19.772867984388284"><ele>16.6</ele><time>2026-04-27T09:09:39.999Z</time></trkpt><trkpt lat="40.87404604121284" lon="19.772990375456306"><ele>16.400000000000002</ele><time>2026-04-27T09:09:41.999Z</time></trkpt><trkpt lat="40.874000836085216" lon="19.77308828704018"><ele>16.2</ele><time>2026-04-27T09:09:42.999Z</time></trkpt><trkpt lat="40.87395504268748" lon="19.773191621942196"><ele>16.0</ele><time>2026-04-27T09:09:43.999Z</time></trkpt><trkpt lat="40.87391009143009" lon="19.773255176552134"><ele>15.999999999999998</ele><time>2026-04-27T09:09:44.999Z</time></trkpt><trkpt lat="40.87387164307619" lon="19.77333744435248"><ele>16.0</ele><time>2026-04-27T09:09:45.999Z</time></trkpt><trkpt lat="40.87383440151938" lon="19.773417129903972"><ele>16.0</ele><time>2026-04-27T09:09:46.999Z</time></trkpt><trkpt lat="40.873791640295835" lon="19.773508625775854"><ele>16.0</ele><time>2026-04-27T09:09:47.999Z</time></trkpt><trkpt lat="40.87374458611313" lon="19.773609307577114"><ele>15.999999999999998</ele><time>2026-04-27T09:09:48.999Z</time></trkpt><trkpt lat="40.873700421536924" lon="19.773703806262922"><ele>16.0</ele><time>2026-04-27T09:09:49.999Z</time></trkpt><trkpt lat="40.873646442260636" lon="19.77381903635894"><ele>16.166666666666664</ele><time>2026-04-27T09:09:50.999Z</time></trkpt><trkpt lat="40.8735971788634" lon="19.773923953627826"><ele>16.333333333333332</ele><time>2026-04-27T09:09:51.999Z</time></trkpt><trkpt lat="40.87354605222248" lon="19.77403283903826"><ele>16.5</ele><time>2026-04-27T09:09:52.999Z</time></trkpt><trkpt lat="40.87349708949125" lon="19.774137115928063"><ele>16.666666666666668</ele><time>2026-04-27T09:09:53.999Z</time></trkpt><trkpt lat="40.873458800288645" lon="19.774218661199093"><ele>16.833333333333336</ele><time>2026-04-27T09:09:54.999Z</time></trkpt><trkpt lat="40.873416612531685" lon="19.77430850938147"><ele>17.0</ele><time>2026-04-27T09:09:55.999Z</time></trkpt><trkpt lat="40.87336944243343" lon="19.774408968498662"><ele>17.166666666666668</ele><time>2026-04-27T09:09:56.999Z</time></trkpt><trkpt lat="40.87333058565309" lon="19.774491722622255"><ele>17.333333333333336</ele><time>2026-04-27T09:09:57.999Z</time></trkpt><trkpt lat="40.873308043108786" lon="19.77458132002332"><ele>17.5</ele><time>2026-04-27T09:09:58.999Z</time></trkpt><trkpt lat="40.87326243327601" lon="19.7746778324244"><ele>17.666666666666668</ele><time>2026-04-27T09:09:59.999Z</time></trkpt><trkpt lat="40.87320602830057" lon="19.77475699489489"><ele>17.833333333333332</ele><time>2026-04-27T09:10:00.999Z</time></trkpt><trkpt lat="40.87318541858717" lon="19.774841274479773"><ele>18.0</ele><time>2026-04-27T09:10:01.999Z</time></trkpt><trkpt lat="40.87312068996206" lon="19.77495696662856"><ele>18.0</ele><time>2026-04-27T09:10:03.999Z</time></trkpt><trkpt lat="40.873074444192795" lon="19.775069619902055"><ele>18.0</ele><time>2026-04-27T09:10:05.999Z</time></trkpt><trkpt lat="40.87299605403893" lon="19.775205124910634"><ele>18.0</ele><time>2026-04-27T09:10:07.999Z</time></trkpt><trkpt lat="40.87295821734206" lon="19.775286509591492"><ele>18.0</ele><time>2026-04-27T09:10:08.999Z</time></trkpt><trkpt lat="40.87293521108861" lon="19.775375667499294"><ele>18.0</ele><time>2026-04-27T09:10:09.999Z</time></trkpt><trkpt lat="40.87289681188599" lon="19.775448201327745"><ele>18.0</ele><time>2026-04-27T09:10:10.999Z</time></trkpt><trkpt lat="40.87285899885915" lon="19.77552136638381"><ele>18.0</ele><time>2026-04-27T09:10:11.999Z</time></trkpt><trkpt lat="40.87281966649464" lon="19.775608796353918"><ele>18.0</ele><time>2026-04-27T09:10:12.999Z</time></trkpt><trkpt lat="40.87277758997893" lon="19.775700089488367"><ele>18.0</ele><time>2026-04-27T09:10:13.999Z</time></trkpt><trkpt lat="40.87273148563113" lon="19.775799139366903"><ele>18.0</ele><time>2026-04-27T09:10:14.999Z</time></trkpt><trkpt lat="40.87269796811775" lon="19.775870473162378"><ele>18.0</ele><time>2026-04-27T09:10:15.999Z</time></trkpt><trkpt lat="40.8726616560621" lon="19.775949407274833"><ele>18.0</ele><time>2026-04-27T09:10:16.999Z</time></trkpt><trkpt lat="40.872625029207235" lon="19.776036789345525"><ele>17.8</ele><time>2026-04-27T09:10:17.999Z</time></trkpt><trkpt lat="40.87258925344541" lon="19.776110406403276"><ele>17.6</ele><time>2026-04-27T09:10:18.999Z</time></trkpt><trkpt lat="40.872522403205046" lon="19.776253973245378"><ele>17.4</ele><time>2026-04-27T09:10:20.999Z</time></trkpt><trkpt lat="40.87245722310509" lon="19.77638808406314"><ele>17.2</ele><time>2026-04-27T09:10:22.999Z</time></trkpt><trkpt lat="40.87241785403264" lon="19.776474937643627"><ele>17.0</ele><time>2026-04-27T09:10:23.999Z</time></trkpt><trkpt lat="40.87238542978292" lon="19.776546952550405"><ele>17.0</ele><time>2026-04-27T09:10:24.999Z</time></trkpt><trkpt lat="40.87235067836708" lon="19.776618903837676"><ele>17.0</ele><time>2026-04-27T09:10:25.999Z</time></trkpt><trkpt lat="40.872314131336104" lon="19.776697911218847"><ele>17.0</ele><time>2026-04-27T09:10:26.999Z</time></trkpt><trkpt lat="40.87225079198538" lon="19.77683614969777"><ele>17.0</ele><time>2026-04-27T09:10:28.999Z</time></trkpt><trkpt lat="40.87217796923902" lon="19.776978207653205"><ele>17.0</ele><time>2026-04-27T09:10:30.999Z</time></trkpt><trkpt lat="40.87214278336947" lon="19.777054497975126"><ele>17.0</ele><time>2026-04-27T09:10:31.999Z</time></trkpt><trkpt lat="40.872108141988726" lon="19.777127573527142"><ele>17.0</ele><time>2026-04-27T09:10:32.999Z</time></trkpt><trkpt lat="40.872041755114104" lon="19.777266727300002"><ele>17.0</ele><time>2026-04-27T09:10:34.999Z</time></trkpt><trkpt lat="40.87196825055244" lon="19.777398373241102"><ele>17.0</ele><time>2026-04-27T09:10:36.999Z</time></trkpt><trkpt lat="40.871917619392725" lon="19.77753985080072"><ele>17.0</ele><time>2026-04-27T09:10:38.999Z</time></trkpt><trkpt lat="40.871859948799305" lon="19.777641012058734"><ele>17.0</ele><time>2026-04-27T09:10:40.999Z</time></trkpt><trkpt lat="40.871799585942874" lon="19.777771481494216"><ele>17.0</ele><time>2026-04-27T09:10:42.999Z</time></trkpt><trkpt lat="40.871730470670364" lon="19.777907823899092"><ele>17.0</ele><time>2026-04-27T09:10:44.999Z</time></trkpt><trkpt lat="40.87167489325409" lon="19.777959916891135"><ele>17.0</ele><time>2026-04-27T09:10:45.999Z</time></trkpt><trkpt lat="40.87162171718111" lon="19.778018868548703"><ele>17.0</ele><time>2026-04-27T09:10:46.999Z</time></trkpt><trkpt lat="40.87156696698769" lon="19.77807678120711"><ele>17.0</ele><time>2026-04-27T09:10:47.999Z</time></trkpt><trkpt lat="40.87146782299049" lon="19.778174244389064"><ele>17.0</ele><time>2026-04-27T09:10:49.999Z</time></trkpt><trkpt lat="40.871393045020035" lon="19.778225440887713"><ele>17.0</ele><time>2026-04-27T09:10:50.999Z</time></trkpt><trkpt lat="40.87132450675426" lon="19.778290661920963"><ele>17.0</ele><time>2026-04-27T09:10:51.999Z</time></trkpt><trkpt lat="40.87126545545465" lon="19.778346855187365"><ele>17.0</ele><time>2026-04-27T09:10:52.999Z</time></trkpt><trkpt lat="40.871213219509485" lon="19.778414774645135"><ele>17.0</ele><time>2026-04-27T09:10:53.999Z</time></trkpt><trkpt lat="40.87113724663198" lon="19.778468858799087"><ele>17.0</ele><time>2026-04-27T09:10:54.999Z</time></trkpt><trkpt lat="40.87108851956438" lon="19.778542033599436"><ele>17.0</ele><time>2026-04-27T09:10:55.999Z</time></trkpt><trkpt lat="40.870983245142895" lon="19.778640220966313"><ele>17.0</ele><time>2026-04-27T09:10:57.999Z</time></trkpt><trkpt lat="40.87090435569749" lon="19.778713275918598"><ele>17.0</ele><time>2026-04-27T09:10:59.999Z</time></trkpt><trkpt lat="40.87085349169221" lon="19.77876411587199"><ele>17.0</ele><time>2026-04-27T09:11:01.999Z</time></trkpt><trkpt lat="40.87078502882398" lon="19.778830924416866"><ele>17.0</ele><time>2026-04-27T09:11:04.999Z</time></trkpt><trkpt lat="40.87072202522825" lon="19.778861977742725"><ele>17.0</ele><time>2026-04-27T09:11:35.999Z</time></trkpt><trkpt lat="40.87065683345251" lon="19.77890211200842"><ele>17.333333333333336</ele><time>2026-04-27T09:12:17.999Z</time></trkpt><trkpt lat="40.87059879571857" lon="19.77893755912825"><ele>17.666666666666668</ele><time>2026-04-27T09:12:19.999Z</time></trkpt><trkpt lat="40.870511273399" lon="19.77899036679012"><ele>18.0</ele><time>2026-04-27T09:12:21.999Z</time></trkpt><trkpt lat="40.8704005985398" lon="19.77907379748035"><ele>18.333333333333332</ele><time>2026-04-27T09:12:23.999Z</time></trkpt><trkpt lat="40.87032586115048" lon="19.779097470465853"><ele>18.666666666666664</ele><time>2026-04-27T09:12:24.999Z</time></trkpt><trkpt lat="40.87026478925534" lon="19.779131358327923"><ele>19.0</ele><time>2026-04-27T09:12:25.999Z</time></trkpt><trkpt lat="40.87019120735857" lon="19.779172187778897"><ele>19.0</ele><time>2026-04-27T09:12:26.999Z</time></trkpt><trkpt lat="40.87010272619697" lon="19.77922128470573"><ele>19.0</ele><time>2026-04-27T09:12:27.999Z</time></trkpt><trkpt lat="40.87002279623544" lon="19.77926563660703"><ele>19.0</ele><time>2026-04-27T09:12:28.999Z</time></trkpt><trkpt lat="40.869946831479105" lon="19.779308055084673"><ele>19.0</ele><time>2026-04-27T09:12:29.999Z</time></trkpt><trkpt lat="40.869877601471025" lon="19.779347370955644"><ele>19.0</ele><time>2026-04-27T09:12:30.999Z</time></trkpt><trkpt lat="40.86979641810586" lon="19.779394596690803"><ele>19.0</ele><time>2026-04-27T09:12:31.999Z</time></trkpt><trkpt lat="40.8697124034652" lon="19.77945403730003"><ele>20.5</ele><time>2026-04-27T09:12:32.999Z</time></trkpt><trkpt lat="40.869615721936746" lon="19.779481135391688"><ele>22.0</ele><time>2026-04-27T09:12:33.999Z</time></trkpt><trkpt lat="40.869509859573014" lon="19.77954151055145"><ele>23.5</ele><time>2026-04-27T09:12:34.999Z</time></trkpt><trkpt lat="40.8693945409764" lon="19.77959120648938"><ele>25.0</ele><time>2026-04-27T09:12:35.999Z</time></trkpt><trkpt lat="40.86927341779841" lon="19.779643713507618"><ele>25.0</ele><time>2026-04-27T09:12:36.999Z</time></trkpt><trkpt lat="40.869155904518806" lon="19.77969690969382"><ele>25.0</ele><time>2026-04-27T09:12:37.999Z</time></trkpt><trkpt lat="40.86906566297868" lon="19.77975925109061"><ele>25.0</ele><time>2026-04-27T09:12:38.999Z</time></trkpt><trkpt lat="40.86896525334707" lon="19.77979298287989"><ele>25.0</ele><time>2026-04-27T09:12:39.999Z</time></trkpt><trkpt lat="40.86887174427914" lon="19.779833259038966"><ele>25.0</ele><time>2026-04-27T09:12:40.999Z</time></trkpt><trkpt lat="40.86879712855619" lon="19.77986405118313"><ele>25.0</ele><time>2026-04-27T09:12:41.999Z</time></trkpt><trkpt lat="40.868731360648916" lon="19.77987768762119"><ele>25.0</ele><time>2026-04-27T09:12:42.999Z</time></trkpt><trkpt lat="40.86869342188026" lon="19.779955246848505"><ele>25.0</ele><time>2026-04-27T09:12:43.999Z</time></trkpt><trkpt lat="40.86870837204758" lon="19.780052712398298"><ele>25.0</ele><time>2026-04-27T09:12:45.999Z</time></trkpt><trkpt lat="40.86871171746244" lon="19.78020182750214"><ele>25.0</ele><time>2026-04-27T09:12:48.999Z</time></trkpt><trkpt lat="40.86866719154792" lon="19.780361304430752"><ele>26.166666666666668</ele><time>2026-04-27T09:12:50.999Z</time></trkpt><trkpt lat="40.86864563154955" lon="19.78046141663279"><ele>27.333333333333336</ele><time>2026-04-27T09:12:51.999Z</time></trkpt><trkpt lat="40.86863374454007" lon="19.78055651025728"><ele>28.5</ele><time>2026-04-27T09:12:52.999Z</time></trkpt><trkpt lat="40.86861271927565" lon="19.78067551910815"><ele>29.666666666666664</ele><time>2026-04-27T09:12:54.999Z</time></trkpt><trkpt lat="40.86858643318094" lon="19.78079303380994"><ele>30.833333333333332</ele><time>2026-04-27T09:12:56.999Z</time></trkpt><trkpt lat="40.86858272944653" lon="19.780918044986212"><ele>32.0</ele><time>2026-04-27T09:12:58.999Z</time></trkpt><trkpt lat="40.86856793530607" lon="19.781002356023723"><ele>31.0</ele><time>2026-04-27T09:12:59.999Z</time></trkpt><trkpt lat="40.86856996174306" lon="19.781094220457145"><ele>30.000000000000004</ele><time>2026-04-27T09:13:00.999Z</time></trkpt><trkpt lat="40.868584965936144" lon="19.781196491217113"><ele>29.000000000000004</ele><time>2026-04-27T09:13:01.999Z</time></trkpt><trkpt lat="40.86862061244829" lon="19.781319982386233"><ele>28.0</ele><time>2026-04-27T09:13:03.999Z</time></trkpt><trkpt lat="40.868578092171695" lon="19.781157542143582"><ele>27.0</ele><time>2026-04-27T09:13:13.999Z</time></trkpt><trkpt lat="40.868777468202175" lon="19.78115489490196"><ele>28.666666666666664</ele><time>2026-04-27T09:13:14.999Z</time></trkpt><trkpt lat="40.86880788299701" lon="19.781005500429107"><ele>30.333333333333332</ele><time>2026-04-27T09:13:16.999Z</time></trkpt><trkpt lat="40.86882471385971" lon="19.78092283173839"><ele>32.0</ele><time>2026-04-27T09:13:17.999Z</time></trkpt><trkpt lat="40.86827097032212" lon="19.779972726838118"><ele>29.666666666666664</ele><time>2026-04-27T09:13:24.999Z</time></trkpt><trkpt lat="40.86859161146596" lon="19.779922342571542"><ele>27.333333333333336</ele><time>2026-04-27T09:13:30.999Z</time></trkpt><trkpt lat="40.868574321877865" lon="19.780024422419068"><ele>25.0</ele><time>2026-04-27T09:13:31.999Z</time></trkpt><trkpt lat="40.86845113678733" lon="19.78004550392189"><ele>24.166666666666668</ele><time>2026-04-27T09:13:33.999Z</time></trkpt><trkpt lat="40.86838541183734" lon="19.780057625979953"><ele>23.333333333333336</ele><time>2026-04-27T09:13:34.999Z</time></trkpt><trkpt lat="40.86830752546735" lon="19.780147389411376"><ele>22.5</ele><time>2026-04-27T09:13:36.999Z</time></trkpt><trkpt lat="40.868221375331814" lon="19.78015076786037"><ele>21.666666666666668</ele><time>2026-04-27T09:13:39.999Z</time></trkpt><trkpt lat="40.868177264352234" lon="19.78006389539655"><ele>20.833333333333336</ele><time>2026-04-27T09:13:41.999Z</time></trkpt><trkpt lat="40.86812016864363" lon="19.780016727156074"><ele>20.0</ele><time>2026-04-27T09:13:46.999Z</time></trkpt><trkpt lat="40.86804886505997" lon="19.78018423669268"><ele>20.0</ele><time>2026-04-27T09:13:48.999Z</time></trkpt><trkpt lat="40.86801381866316" lon="19.780293329282557"><ele>20.0</ele><time>2026-04-27T09:13:50.999Z</time></trkpt><trkpt lat="40.86795504358898" lon="19.78040497478858"><ele>20.0</ele><time>2026-04-27T09:13:52.999Z</time></trkpt><trkpt lat="40.867916401536284" lon="19.78049450496917"><ele>20.0</ele><time>2026-04-27T09:13:53.999Z</time></trkpt><trkpt lat="40.867873452275724" lon="19.78060102046403"><ele>20.0</ele><time>2026-04-27T09:13:54.999Z</time></trkpt><trkpt lat="40.86782474948594" lon="19.780720172065738"><ele>20.0</ele><time>2026-04-27T09:13:55.999Z</time></trkpt><trkpt lat="40.86776214122531" lon="19.780861401306066"><ele>20.0</ele><time>2026-04-27T09:13:56.999Z</time></trkpt><trkpt lat="40.86769245911624" lon="19.78101741470424"><ele>20.0</ele><time>2026-04-27T09:13:57.999Z</time></trkpt><trkpt lat="40.86762283866865" lon="19.781183062906802"><ele>20.0</ele><time>2026-04-27T09:13:58.999Z</time></trkpt><trkpt lat="40.867547772901915" lon="19.781356289197923"><ele>19.0</ele><time>2026-04-27T09:13:59.999Z</time></trkpt><trkpt lat="40.86747114341775" lon="19.781537450151433"><ele>18.0</ele><time>2026-04-27T09:14:00.999Z</time></trkpt><trkpt lat="40.867393735083695" lon="19.781727847555565"><ele>17.0</ele><time>2026-04-27T09:14:01.999Z</time></trkpt><trkpt lat="40.867310790443454" lon="19.781921172198416"><ele>16.666666666666668</ele><time>2026-04-27T09:14:02.999Z</time></trkpt><trkpt lat="40.86722526966062" lon="19.782118360376966"><ele>16.333333333333332</ele><time>2026-04-27T09:14:03.999Z</time></trkpt><trkpt lat="40.86714237264141" lon="19.782317156132024"><ele>16.0</ele><time>2026-04-27T09:14:04.999Z</time></trkpt><trkpt lat="40.867066290709644" lon="19.78250073911717"><ele>16.0</ele><time>2026-04-27T09:14:05.999Z</time></trkpt><trkpt lat="40.866996173271176" lon="19.782664224932823"><ele>16.0</ele><time>2026-04-27T09:14:06.999Z</time></trkpt><trkpt lat="40.86693670764522" lon="19.782814193127916"><ele>16.0</ele><time>2026-04-27T09:14:07.999Z</time></trkpt><trkpt lat="40.866883768387915" lon="19.782954596916493"><ele>16.0</ele><time>2026-04-27T09:14:08.999Z</time></trkpt><trkpt lat="40.86684457790324" lon="19.783092395388465"><ele>16.25</ele><time>2026-04-27T09:14:09.999Z</time></trkpt><trkpt lat="40.866821101556084" lon="19.783233715193095"><ele>16.5</ele><time>2026-04-27T09:14:10.999Z</time></trkpt><trkpt lat="40.86682413659082" lon="19.783376191018068"><ele>16.75</ele><time>2026-04-27T09:14:11.999Z</time></trkpt><trkpt lat="40.86684525689444" lon="19.78352650962907"><ele>17.0</ele><time>2026-04-27T09:14:12.999Z</time></trkpt><trkpt lat="40.86688508066712" lon="19.78367574505927"><ele>17.333333333333336</ele><time>2026-04-27T09:14:13.999Z</time></trkpt><trkpt lat="40.86692707782957" lon="19.783803150409042"><ele>17.666666666666668</ele><time>2026-04-27T09:14:14.999Z</time></trkpt><trkpt lat="40.866964048783565" lon="19.783901976871714"><ele>18.0</ele><time>2026-04-27T09:14:15.999Z</time></trkpt><trkpt lat="40.866991735066954" lon="19.783978120205575"><ele>18.333333333333332</ele><time>2026-04-27T09:14:16.999Z</time></trkpt><trkpt lat="40.86703557972704" lon="19.784051735859336"><ele>18.666666666666664</ele><time>2026-04-27T09:14:18.999Z</time></trkpt><trkpt lat="40.86715751640884" lon="19.784059017144248"><ele>19.0</ele><time>2026-04-27T09:14:21.999Z</time></trkpt><trkpt lat="40.867259448290426" lon="19.783975064288825"><ele>19.0</ele><time>2026-04-27T09:14:23.999Z</time></trkpt><trkpt lat="40.86736207502345" lon="19.783874755852217"><ele>19.0</ele><time>2026-04-27T09:14:25.999Z</time></trkpt><trkpt lat="40.86743920720232" lon="19.78382279838233"><ele>19.0</ele><time>2026-04-27T09:14:26.999Z</time></trkpt><trkpt lat="40.86753950084997" lon="19.783755355168097"><ele>19.0</ele><time>2026-04-27T09:14:27.999Z</time></trkpt><trkpt lat="40.867643884781344" lon="19.783673204029256"><ele>19.0</ele><time>2026-04-27T09:14:28.999Z</time></trkpt><trkpt lat="40.86773857779116" lon="19.783593988965336"><ele>18.5</ele><time>2026-04-27T09:14:29.999Z</time></trkpt><trkpt lat="40.8678400220034" lon="19.78352000229881"><ele>18.0</ele><time>2026-04-27T09:14:30.999Z</time></trkpt><trkpt lat="40.8679469260732" lon="19.783442328193598"><ele>17.5</ele><time>2026-04-27T09:14:31.999Z</time></trkpt><trkpt lat="40.868056980863216" lon="19.783359522231176"><ele>17.0</ele><time>2026-04-27T09:14:32.999Z</time></trkpt><trkpt lat="40.868157128932765" lon="19.783278825905807"><ele>17.0</ele><time>2026-04-27T09:14:33.999Z</time></trkpt><trkpt lat="40.86824283296096" lon="19.783212342973197"><ele>17.0</ele><time>2026-04-27T09:14:34.999Z</time></trkpt><trkpt lat="40.8683277972497" lon="19.783149812928425"><ele>17.0</ele><time>2026-04-27T09:14:35.999Z</time></trkpt><trkpt lat="40.86841704406654" lon="19.783080382678264"><ele>17.0</ele><time>2026-04-27T09:14:36.999Z</time></trkpt><trkpt lat="40.868508347541066" lon="19.78301129851398"><ele>17.0</ele><time>2026-04-27T09:14:37.999Z</time></trkpt><trkpt lat="40.868599805270925" lon="19.782945329137537"><ele>17.2</ele><time>2026-04-27T09:14:38.999Z</time></trkpt><trkpt lat="40.86869479839948" lon="19.782885673364188"><ele>17.4</ele><time>2026-04-27T09:14:39.999Z</time></trkpt><trkpt lat="40.86879336176408" lon="19.782838830311942"><ele>17.6</ele><time>2026-04-27T09:14:40.999Z</time></trkpt><trkpt lat="40.868896906912134" lon="19.782810942303893"><ele>17.8</ele><time>2026-04-27T09:14:41.999Z</time></trkpt><trkpt lat="40.86900101375131" lon="19.782804148610747"><ele>18.0</ele><time>2026-04-27T09:14:42.999Z</time></trkpt><trkpt lat="40.86907551355566" lon="19.782824160556927"><ele>18.0</ele><time>2026-04-27T09:14:43.999Z</time></trkpt><trkpt lat="40.86913324366426" lon="19.782918231630504"><ele>18.0</ele><time>2026-04-27T09:14:45.999Z</time></trkpt><trkpt lat="40.86908849674297" lon="19.78300411924821"><ele>18.0</ele><time>2026-04-27T09:14:47.999Z</time></trkpt><trkpt lat="40.869019929797844" lon="19.783123170055294"><ele>18.0</ele><time>2026-04-27T09:14:49.999Z</time></trkpt><trkpt lat="40.86898995034314" lon="19.783200056405043"><ele>18.0</ele><time>2026-04-27T09:14:50.999Z</time></trkpt><trkpt lat="40.86895934076214" lon="19.783280483480578"><ele>18.0</ele><time>2026-04-27T09:14:51.999Z</time></trkpt><trkpt lat="40.86891364792175" lon="19.78336639192147"><ele>18.0</ele><time>2026-04-27T09:14:52.999Z</time></trkpt><trkpt lat="40.868863847991214" lon="19.783469852084067"><ele>18.0</ele><time>2026-04-27T09:14:53.999Z</time></trkpt><trkpt lat="40.86881423766024" lon="19.78357427342939"><ele>18.0</ele><time>2026-04-27T09:14:54.999Z</time></trkpt><trkpt lat="40.86876317322178" lon="19.78368962772746"><ele>18.0</ele><time>2026-04-27T09:14:55.999Z</time></trkpt><trkpt lat="40.868704380216414" lon="19.78381142633513"><ele>18.0</ele><time>2026-04-27T09:14:56.999Z</time></trkpt><trkpt lat="40.868640043668776" lon="19.783944960733233"><ele>17.666666666666668</ele><time>2026-04-27T09:14:57.999Z</time></trkpt><trkpt lat="40.868562951984785" lon="19.78409899879915"><ele>17.333333333333336</ele><time>2026-04-27T09:14:58.999Z</time></trkpt><trkpt lat="40.86847090324171" lon="19.784272369843855"><ele>17.0</ele><time>2026-04-27T09:14:59.999Z</time></trkpt><trkpt lat="40.86837233998568" lon="19.7844672204582"><ele>17.666666666666668</ele><time>2026-04-27T09:15:00.999Z</time></trkpt><trkpt lat="40.86826702725383" lon="19.78467747248982"><ele>18.333333333333332</ele><time>2026-04-27T09:15:01.999Z</time></trkpt><trkpt lat="40.868175453264804" lon="19.784867851836477"><ele>19.0</ele><time>2026-04-27T09:15:02.999Z</time></trkpt><trkpt lat="40.86809522967092" lon="19.78503761818576"><ele>19.0</ele><time>2026-04-27T09:15:03.999Z</time></trkpt><trkpt lat="40.86802312602977" lon="19.785186815219312"><ele>19.0</ele><time>2026-04-27T09:15:04.999Z</time></trkpt><trkpt lat="40.86796078246629" lon="19.78531610219392"><ele>19.0</ele><time>2026-04-27T09:15:05.999Z</time></trkpt><trkpt lat="40.86791905240666" lon="19.785400410832544"><ele>19.0</ele><time>2026-04-27T09:15:06.999Z</time></trkpt><trkpt lat="40.86788401382304" lon="19.78547380872009"><ele>19.0</ele><time>2026-04-27T09:15:07.999Z</time></trkpt><trkpt lat="40.86784019853994" lon="19.785564780413115"><ele>19.0</ele><time>2026-04-27T09:15:16.999Z</time></trkpt><trkpt lat="40.867788420424276" lon="19.78566726795117"><ele>19.0</ele><time>2026-04-27T09:15:20.999Z</time></trkpt></trkseg><trkseg><trkpt lat="40.867683550751906" lon="19.785904192737352"><ele>19.0</ele><time>2026-04-27T09:25:44.001Z</time></trkpt><trkpt lat="40.867651554038424" lon="19.785994203203803"><ele>19.0</ele><time>2026-04-27T09:25:46.001Z</time></trkpt><trkpt lat="40.86760557261317" lon="19.786091893565086"><ele>19.0</ele><time>2026-04-27T09:25:48.001Z</time></trkpt><trkpt lat="40.867553695289786" lon="19.78619609412828"><ele>19.0</ele><time>2026-04-27T09:25:50.001Z</time></trkpt><trkpt lat="40.86749284127857" lon="19.78630281969475"><ele>19.0</ele><time>2026-04-27T09:25:52.001Z</time></trkpt><trkpt lat="40.86745960987297" lon="19.786375531844094"><ele>19.0</ele><time>2026-04-27T09:25:53.001Z</time></trkpt><trkpt lat="40.86742336781148" lon="19.786464519163573"><ele>19.0</ele><time>2026-04-27T09:25:54.001Z</time></trkpt><trkpt lat="40.86738192713468" lon="19.786551419110893"><ele>19.0</ele><time>2026-04-27T09:25:55.001Z</time></trkpt><trkpt lat="40.867336394400546" lon="19.786645485913734"><ele>19.0</ele><time>2026-04-27T09:25:56.001Z</time></trkpt><trkpt lat="40.86728720322153" lon="19.78673981818602"><ele>19.0</ele><time>2026-04-27T09:25:57.001Z</time></trkpt><trkpt lat="40.86723581311748" lon="19.78684266815107"><ele>19.0</ele><time>2026-04-27T09:25:58.001Z</time></trkpt><trkpt lat="40.86717999658315" lon="19.78696235523988"><ele>19.0</ele><time>2026-04-27T09:25:59.001Z</time></trkpt><trkpt lat="40.86712741839427" lon="19.787092647544178"><ele>18.75</ele><time>2026-04-27T09:26:00.001Z</time></trkpt><trkpt lat="40.86706866461241" lon="19.787227854922037"><ele>18.5</ele><time>2026-04-27T09:26:01.001Z</time></trkpt><trkpt lat="40.86700734864782" lon="19.78737118634272"><ele>18.25</ele><time>2026-04-27T09:26:02.001Z</time></trkpt><trkpt lat="40.866953445302954" lon="19.787529559034525"><ele>18.0</ele><time>2026-04-27T09:26:03.001Z</time></trkpt><trkpt lat="40.86690765509849" lon="19.78770597457309"><ele>18.5</ele><time>2026-04-27T09:26:04.001Z</time></trkpt><trkpt lat="40.86687060094227" lon="19.787886470224286"><ele>19.0</ele><time>2026-04-27T09:26:05.001Z</time></trkpt><trkpt lat="40.86684012894223" lon="19.788075512296814"><ele>19.5</ele><time>2026-04-27T09:26:06.001Z</time></trkpt><trkpt lat="40.86681302057835" lon="19.788252350143292"><ele>20.0</ele><time>2026-04-27T09:26:07.001Z</time></trkpt><trkpt lat="40.86678503506456" lon="19.78842305583545"><ele>19.75</ele><time>2026-04-27T09:26:08.001Z</time></trkpt><trkpt lat="40.86675816655354" lon="19.788599986565703"><ele>19.5</ele><time>2026-04-27T09:26:09.001Z</time></trkpt><trkpt lat="40.86672947956705" lon="19.78878418933555"><ele>19.25</ele><time>2026-04-27T09:26:10.001Z</time></trkpt><trkpt lat="40.866698423696015" lon="19.78897252149475"><ele>19.0</ele><time>2026-04-27T09:26:11.001Z</time></trkpt><trkpt lat="40.86666509079529" lon="19.789169591740396"><ele>19.0</ele><time>2026-04-27T09:26:12.001Z</time></trkpt><trkpt lat="40.866632037431145" lon="19.78937081742425"><ele>19.0</ele><time>2026-04-27T09:26:13.001Z</time></trkpt><trkpt lat="40.866602467658765" lon="19.78957483285888"><ele>19.0</ele><time>2026-04-27T09:26:14.001Z</time></trkpt><trkpt lat="40.86656814628884" lon="19.78979054423168"><ele>19.0</ele><time>2026-04-27T09:26:15.001Z</time></trkpt><trkpt lat="40.86653076416849" lon="19.790008083092385"><ele>19.0</ele><time>2026-04-27T09:26:16.001Z</time></trkpt><trkpt lat="40.866488989224656" lon="19.79023160599995"><ele>19.0</ele><time>2026-04-27T09:26:17.001Z</time></trkpt><trkpt lat="40.866451279766686" lon="19.790462484855034"><ele>19.333333333333332</ele><time>2026-04-27T09:26:18.001Z</time></trkpt><trkpt lat="40.866411325307986" lon="19.790700497086227"><ele>19.666666666666668</ele><time>2026-04-27T09:26:19.001Z</time></trkpt><trkpt lat="40.86637258183966" lon="19.79093662599094"><ele>20.0</ele><time>2026-04-27T09:26:20.001Z</time></trkpt><trkpt lat="40.866334510053505" lon="19.791165692038447"><ele>20.0</ele><time>2026-04-27T09:26:21.001Z</time></trkpt><trkpt lat="40.866299592313744" lon="19.791380695134855"><ele>20.0</ele><time>2026-04-27T09:26:22.001Z</time></trkpt><trkpt lat="40.86626307392047" lon="19.79159963717585"><ele>20.0</ele><time>2026-04-27T09:26:23.001Z</time></trkpt><trkpt lat="40.86622757001067" lon="19.791815497098163"><ele>19.666666666666668</ele><time>2026-04-27T09:26:24.001Z</time></trkpt><trkpt lat="40.866205009816824" lon="19.79203414221989"><ele>19.333333333333332</ele><time>2026-04-27T09:26:25.001Z</time></trkpt><trkpt lat="40.866197924685444" lon="19.7922547417853"><ele>19.0</ele><time>2026-04-27T09:26:26.001Z</time></trkpt><trkpt lat="40.86620080376009" lon="19.792484233235538"><ele>19.333333333333332</ele><time>2026-04-27T09:26:27.001Z</time></trkpt><trkpt lat="40.866207264001204" lon="19.79271572701311"><ele>19.666666666666668</ele><time>2026-04-27T09:26:28.001Z</time></trkpt><trkpt lat="40.86621247267825" lon="19.79295537939928"><ele>20.0</ele><time>2026-04-27T09:26:29.001Z</time></trkpt><trkpt lat="40.8662194694064" lon="19.79319582675825"><ele>20.0</ele><time>2026-04-27T09:26:30.001Z</time></trkpt><trkpt lat="40.866225950976684" lon="19.79344088702135"><ele>20.0</ele><time>2026-04-27T09:26:31.001Z</time></trkpt><trkpt lat="40.866230071606694" lon="19.79369244989473"><ele>20.0</ele><time>2026-04-27T09:26:32.001Z</time></trkpt><trkpt lat="40.8662331196104" lon="19.79394302461042"><ele>20.0</ele><time>2026-04-27T09:26:33.001Z</time></trkpt><trkpt lat="40.86623965925208" lon="19.794194836001534"><ele>20.0</ele><time>2026-04-27T09:26:34.001Z</time></trkpt><trkpt lat="40.866246432963216" lon="19.794451104867626"><ele>20.0</ele><time>2026-04-27T09:26:35.001Z</time></trkpt><trkpt lat="40.86625260119393" lon="19.794708809605744"><ele>19.666666666666668</ele><time>2026-04-27T09:26:36.001Z</time></trkpt><trkpt lat="40.866257303941225" lon="19.794968123678434"><ele>19.333333333333332</ele><time>2026-04-27T09:26:37.001Z</time></trkpt><trkpt lat="40.86626153962988" lon="19.79523047785904"><ele>19.0</ele><time>2026-04-27T09:26:38.001Z</time></trkpt><trkpt lat="40.86626839129514" lon="19.7954909822885"><ele>19.0</ele><time>2026-04-27T09:26:39.001Z</time></trkpt><trkpt lat="40.8662742247126" lon="19.79575303751292"><ele>19.0</ele><time>2026-04-27T09:26:40.001Z</time></trkpt><trkpt lat="40.86628241461383" lon="19.796017585888467"><ele>19.0</ele><time>2026-04-27T09:26:41.001Z</time></trkpt><trkpt lat="40.866290158829955" lon="19.796286484383636"><ele>19.0</ele><time>2026-04-27T09:26:42.001Z</time></trkpt><trkpt lat="40.86629636649901" lon="19.79655487912306"><ele>19.0</ele><time>2026-04-27T09:26:43.001Z</time></trkpt><trkpt lat="40.86630254918194" lon="19.79680138831809"><ele>19.0</ele><time>2026-04-27T09:26:44.001Z</time></trkpt><trkpt lat="40.86630621393449" lon="19.79704106552057"><ele>19.0</ele><time>2026-04-27T09:26:45.001Z</time></trkpt><trkpt lat="40.86631470666792" lon="19.797282898040173"><ele>19.0</ele><time>2026-04-27T09:26:46.001Z</time></trkpt><trkpt lat="40.86631967089161" lon="19.797523416119812"><ele>19.0</ele><time>2026-04-27T09:26:47.001Z</time></trkpt><trkpt lat="40.86632586179613" lon="19.79776815679721"><ele>19.0</ele><time>2026-04-27T09:26:48.001Z</time></trkpt><trkpt lat="40.8663306568332" lon="19.79801343424217"><ele>19.0</ele><time>2026-04-27T09:26:49.001Z</time></trkpt><trkpt lat="40.86633560297209" lon="19.79826215495734"><ele>19.0</ele><time>2026-04-27T09:26:50.001Z</time></trkpt><trkpt lat="40.866338658225956" lon="19.79851000569587"><ele>19.0</ele><time>2026-04-27T09:26:51.001Z</time></trkpt><trkpt lat="40.86634353709247" lon="19.79876156901896"><ele>19.0</ele><time>2026-04-27T09:26:52.001Z</time></trkpt><trkpt lat="40.86634619980136" lon="19.79901539227321"><ele>19.0</ele><time>2026-04-27T09:26:53.001Z</time></trkpt><trkpt lat="40.86635101617869" lon="19.799269609364682"><ele>18.666666666666664</ele><time>2026-04-27T09:26:54.001Z</time></trkpt><trkpt lat="40.866358261760624" lon="19.799529878745066"><ele>18.333333333333332</ele><time>2026-04-27T09:26:55.001Z</time></trkpt><trkpt lat="40.86636382453856" lon="19.7997926765267"><ele>18.0</ele><time>2026-04-27T09:26:56.001Z</time></trkpt><trkpt lat="40.86636943655906" lon="19.80006161084975"><ele>18.0</ele><time>2026-04-27T09:26:57.001Z</time></trkpt><trkpt lat="40.8663746378922" lon="19.80033706181172"><ele>18.0</ele><time>2026-04-27T09:26:58.001Z</time></trkpt><trkpt lat="40.86637838865693" lon="19.800615640927433"><ele>18.0</ele><time>2026-04-27T09:26:59.001Z</time></trkpt><trkpt lat="40.86638375916615" lon="19.80090095946021"><ele>17.333333333333332</ele><time>2026-04-27T09:27:00.001Z</time></trkpt><trkpt lat="40.86638847588524" lon="19.801188749636086"><ele>16.666666666666664</ele><time>2026-04-27T09:27:01.001Z</time></trkpt><trkpt lat="40.86639331466843" lon="19.801483847269843"><ele>16.0</ele><time>2026-04-27T09:27:02.001Z</time></trkpt><trkpt lat="40.86640060794374" lon="19.80177995409427"><ele>17.0</ele><time>2026-04-27T09:27:03.001Z</time></trkpt><trkpt lat="40.86640825975713" lon="19.802081492131723"><ele>18.0</ele><time>2026-04-27T09:27:04.001Z</time></trkpt><trkpt lat="40.86641328163971" lon="19.802386325746625"><ele>17.5</ele><time>2026-04-27T09:27:05.001Z</time></trkpt><trkpt lat="40.86641901501748" lon="19.80268634457857"><ele>17.0</ele><time>2026-04-27T09:27:06.001Z</time></trkpt><trkpt lat="40.86642640182059" lon="19.802991332154953"><ele>17.0</ele><time>2026-04-27T09:27:07.001Z</time></trkpt><trkpt lat="40.86643131034478" lon="19.80329006520011"><ele>17.0</ele><time>2026-04-27T09:27:08.001Z</time></trkpt><trkpt lat="40.86643691729548" lon="19.803582100997005"><ele>17.0</ele><time>2026-04-27T09:27:09.001Z</time></trkpt><trkpt lat="40.866441429297126" lon="19.803875319913118"><ele>17.0</ele><time>2026-04-27T09:27:10.001Z</time></trkpt><trkpt lat="40.8664458616963" lon="19.804172846008463"><ele>17.0</ele><time>2026-04-27T09:27:11.001Z</time></trkpt><trkpt lat="40.86645346252309" lon="19.80447429310988"><ele>17.5</ele><time>2026-04-27T09:27:12.001Z</time></trkpt><trkpt lat="40.86645874349328" lon="19.80477551833235"><ele>18.0</ele><time>2026-04-27T09:27:13.001Z</time></trkpt><trkpt lat="40.866465609829895" lon="19.805076227577885"><ele>17.5</ele><time>2026-04-27T09:27:14.001Z</time></trkpt><trkpt lat="40.866472967504805" lon="19.8053794273691"><ele>17.0</ele><time>2026-04-27T09:27:15.001Z</time></trkpt><trkpt lat="40.86647861327186" lon="19.805681968935822"><ele>17.0</ele><time>2026-04-27T09:27:16.001Z</time></trkpt><trkpt lat="40.866482985288066" lon="19.805984556871746"><ele>17.0</ele><time>2026-04-27T09:27:17.001Z</time></trkpt><trkpt lat="40.86648782051964" lon="19.806283169341675"><ele>17.5</ele><time>2026-04-27T09:27:18Z</time></trkpt><trkpt lat="40.866494329912506" lon="19.806585765807657"><ele>18.0</ele><time>2026-04-27T09:27:19Z</time></trkpt><trkpt lat="40.86649923481352" lon="19.806889146254143"><ele>18.0</ele><time>2026-04-27T09:27:20Z</time></trkpt><trkpt lat="40.86650598522977" lon="19.807185008809363"><ele>18.0</ele><time>2026-04-27T09:27:21Z</time></trkpt><trkpt lat="40.86651109096216" lon="19.807486721087336"><ele>18.0</ele><time>2026-04-27T09:27:22Z</time></trkpt><trkpt lat="40.86651576103367" lon="19.807788608094697"><ele>18.0</ele><time>2026-04-27T09:27:23Z</time></trkpt><trkpt lat="40.866522961868036" lon="19.80808876486082"><ele>18.0</ele><time>2026-04-27T09:27:24Z</time></trkpt><trkpt lat="40.866528431892206" lon="19.80839095290647"><ele>18.0</ele><time>2026-04-27T09:27:25Z</time></trkpt><trkpt lat="40.866534024059035" lon="19.808692275383386"><ele>17.5</ele><time>2026-04-27T09:27:26Z</time></trkpt><trkpt lat="40.86654031094506" lon="19.808993373208402"><ele>17.0</ele><time>2026-04-27T09:27:27Z</time></trkpt><trkpt lat="40.86654432809477" lon="19.80930594677893"><ele>17.0</ele><time>2026-04-27T09:27:28Z</time></trkpt><trkpt lat="40.866550688974684" lon="19.809624740787363"><ele>17.0</ele><time>2026-04-27T09:27:29Z</time></trkpt><trkpt lat="40.866558141001974" lon="19.8099546077913"><ele>17.5</ele><time>2026-04-27T09:27:30Z</time></trkpt><trkpt lat="40.866567436477496" lon="19.81028871449839"><ele>18.0</ele><time>2026-04-27T09:27:31Z</time></trkpt><trkpt lat="40.86657444748616" lon="19.810622833588777"><ele>18.0</ele><time>2026-04-27T09:27:32Z</time></trkpt><trkpt lat="40.86658286679428" lon="19.810953869096718"><ele>18.0</ele><time>2026-04-27T09:27:33Z</time></trkpt><trkpt lat="40.86659318912362" lon="19.811282620768974"><ele>18.0</ele><time>2026-04-27T09:27:34Z</time></trkpt><trkpt lat="40.8665994662887" lon="19.811616054546462"><ele>18.0</ele><time>2026-04-27T09:27:35Z</time></trkpt><trkpt lat="40.866604949640546" lon="19.81194009653404"><ele>18.0</ele><time>2026-04-27T09:27:36Z</time></trkpt><trkpt lat="40.86661146683381" lon="19.812271467557455"><ele>18.0</ele><time>2026-04-27T09:27:37Z</time></trkpt><trkpt lat="40.8666166852292" lon="19.812601872696852"><ele>18.5</ele><time>2026-04-27T09:27:38Z</time></trkpt><trkpt lat="40.86662640978316" lon="19.812931387135094"><ele>19.0</ele><time>2026-04-27T09:27:39Z</time></trkpt><trkpt lat="40.86663338067798" lon="19.8132635888986"><ele>19.0</ele><time>2026-04-27T09:27:40Z</time></trkpt><trkpt lat="40.86664141564767" lon="19.81358983678184"><ele>19.0</ele><time>2026-04-27T09:27:41Z</time></trkpt><trkpt lat="40.866647241750115" lon="19.813919680971367"><ele>19.0</ele><time>2026-04-27T09:27:42Z</time></trkpt><trkpt lat="40.86665764641923" lon="19.81424997451672"><ele>19.0</ele><time>2026-04-27T09:27:43Z</time></trkpt><trkpt lat="40.86666698245145" lon="19.81458093158219"><ele>19.0</ele><time>2026-04-27T09:27:44Z</time></trkpt><trkpt lat="40.86667567219723" lon="19.814907509012812"><ele>19.0</ele><time>2026-04-27T09:27:45Z</time></trkpt><trkpt lat="40.86668491748574" lon="19.815236686092806"><ele>19.5</ele><time>2026-04-27T09:27:46Z</time></trkpt><trkpt lat="40.86669128842357" lon="19.815563454737855"><ele>20.0</ele><time>2026-04-27T09:27:47Z</time></trkpt><trkpt lat="40.86669690371406" lon="19.81586385688593"><ele>19.333333333333336</ele><time>2026-04-27T09:27:48Z</time></trkpt><trkpt lat="40.86670642712579" lon="19.816150297552877"><ele>18.666666666666668</ele><time>2026-04-27T09:27:49Z</time></trkpt><trkpt lat="40.86671105681023" lon="19.816420819450066"><ele>18.0</ele><time>2026-04-27T09:27:50Z</time></trkpt><trkpt lat="40.8667138337503" lon="19.81667513930113"><ele>19.0</ele><time>2026-04-27T09:27:51Z</time></trkpt><trkpt lat="40.86671832606819" lon="19.816927007693156"><ele>20.0</ele><time>2026-04-27T09:27:52Z</time></trkpt><trkpt lat="40.86672302092226" lon="19.81717699291984"><ele>21.0</ele><time>2026-04-27T09:27:53Z</time></trkpt><trkpt lat="40.86672947989458" lon="19.817413493374683"><ele>21.0</ele><time>2026-04-27T09:27:54Z</time></trkpt><trkpt lat="40.86673434709755" lon="19.817643241562575"><ele>21.0</ele><time>2026-04-27T09:27:55Z</time></trkpt><trkpt lat="40.866742991793274" lon="19.81786927274518"><ele>21.0</ele><time>2026-04-27T09:27:56Z</time></trkpt><trkpt lat="40.86674398844367" lon="19.818086794073356"><ele>20.666666666666668</ele><time>2026-04-27T09:27:57Z</time></trkpt><trkpt lat="40.86675115043639" lon="19.818294430626803"><ele>20.333333333333336</ele><time>2026-04-27T09:27:58Z</time></trkpt><trkpt lat="40.866747522064536" lon="19.818497895627775"><ele>20.0</ele><time>2026-04-27T09:27:59Z</time></trkpt><trkpt lat="40.86674184987671" lon="19.818709950706406"><ele>21.0</ele><time>2026-04-27T09:28:00Z</time></trkpt><trkpt lat="40.86671429209469" lon="19.818919496842522"><ele>22.0</ele><time>2026-04-27T09:28:01Z</time></trkpt><trkpt lat="40.86666218736475" lon="19.81911914043802"><ele>23.0</ele><time>2026-04-27T09:28:02Z</time></trkpt><trkpt lat="40.866589059851805" lon="19.81931109997767"><ele>23.666666666666668</ele><time>2026-04-27T09:28:03Z</time></trkpt><trkpt lat="40.866501674138924" lon="19.819502757038084"><ele>24.333333333333336</ele><time>2026-04-27T09:28:04Z</time></trkpt><trkpt lat="40.86642272768169" lon="19.819709739478046"><ele>25.0</ele><time>2026-04-27T09:28:05Z</time></trkpt><trkpt lat="40.866347924218054" lon="19.819912640256298"><ele>25.0</ele><time>2026-04-27T09:28:06Z</time></trkpt><trkpt lat="40.86627145957065" lon="19.82009812291446"><ele>25.0</ele><time>2026-04-27T09:28:07Z</time></trkpt><trkpt lat="40.86619330026785" lon="19.820261697459316"><ele>25.0</ele><time>2026-04-27T09:28:08Z</time></trkpt><trkpt lat="40.86610877614788" lon="19.820418406988274"><ele>25.0</ele><time>2026-04-27T09:28:09Z</time></trkpt><trkpt lat="40.86600188145684" lon="19.820562854718098"><ele>25.0</ele><time>2026-04-27T09:28:10Z</time></trkpt><trkpt lat="40.865876251921364" lon="19.82069072843296"><ele>25.0</ele><time>2026-04-27T09:28:11Z</time></trkpt><trkpt lat="40.86574897401135" lon="19.82082168740971"><ele>24.0</ele><time>2026-04-27T09:28:12Z</time></trkpt><trkpt lat="40.86561922572192" lon="19.82095690356998"><ele>23.0</ele><time>2026-04-27T09:28:13Z</time></trkpt><trkpt lat="40.86548334313379" lon="19.821096942393705"><ele>22.0</ele><time>2026-04-27T09:28:14Z</time></trkpt><trkpt lat="40.86534676786469" lon="19.821240001162714"><ele>22.0</ele><time>2026-04-27T09:28:15Z</time></trkpt><trkpt lat="40.86520180393083" lon="19.82138348739785"><ele>22.0</ele><time>2026-04-27T09:28:16Z</time></trkpt><trkpt lat="40.8650533246506" lon="19.82152324925437"><ele>22.0</ele><time>2026-04-27T09:28:17Z</time></trkpt><trkpt lat="40.86490014874239" lon="19.821650633813732"><ele>22.0</ele><time>2026-04-27T09:28:18Z</time></trkpt><trkpt lat="40.86475096239431" lon="19.821754497495515"><ele>22.0</ele><time>2026-04-27T09:28:19Z</time></trkpt><trkpt lat="40.8646066003749" lon="19.821825059544604"><ele>22.0</ele><time>2026-04-27T09:28:20Z</time></trkpt><trkpt lat="40.864468801947844" lon="19.82188290018973"><ele>22.0</ele><time>2026-04-27T09:28:21Z</time></trkpt><trkpt lat="40.864339785341286" lon="19.821957683228213"><ele>22.0</ele><time>2026-04-27T09:28:22Z</time></trkpt><trkpt lat="40.864220107037724" lon="19.822063243503454"><ele>22.0</ele><time>2026-04-27T09:28:23Z</time></trkpt><trkpt lat="40.86410217221168" lon="19.822189317119637"><ele>22.0</ele><time>2026-04-27T09:28:24Z</time></trkpt><trkpt lat="40.863981859070066" lon="19.822312045389044"><ele>21.666666666666664</ele><time>2026-04-27T09:28:25Z</time></trkpt><trkpt lat="40.863849849694994" lon="19.82242868045103"><ele>21.333333333333332</ele><time>2026-04-27T09:28:26Z</time></trkpt><trkpt lat="40.86371355285196" lon="19.822545076454574"><ele>21.0</ele><time>2026-04-27T09:28:27Z</time></trkpt><trkpt lat="40.863576046008255" lon="19.822665958738998"><ele>21.666666666666668</ele><time>2026-04-27T09:28:28Z</time></trkpt><trkpt lat="40.86344052925025" lon="19.822794213422952"><ele>22.333333333333336</ele><time>2026-04-27T09:28:29Z</time></trkpt><trkpt lat="40.8633075394071" lon="19.822934845067337"><ele>23.0</ele><time>2026-04-27T09:28:30Z</time></trkpt><trkpt lat="40.8631776231401" lon="19.82309101622793"><ele>23.0</ele><time>2026-04-27T09:28:31Z</time></trkpt><trkpt lat="40.86305038230636" lon="19.823252213945068"><ele>23.0</ele><time>2026-04-27T09:28:32Z</time></trkpt><trkpt lat="40.86292578222438" lon="19.82342122148798"><ele>23.0</ele><time>2026-04-27T09:28:33Z</time></trkpt><trkpt lat="40.86279979177676" lon="19.823596474934433"><ele>23.0</ele><time>2026-04-27T09:28:34Z</time></trkpt><trkpt lat="40.86265665957869" lon="19.823761282263497"><ele>23.0</ele><time>2026-04-27T09:28:35Z</time></trkpt><trkpt lat="40.8625201336617" lon="19.823946045429132"><ele>23.0</ele><time>2026-04-27T09:28:36Z</time></trkpt><trkpt lat="40.86237689723628" lon="19.82413969182475"><ele>23.666666666666668</ele><time>2026-04-27T09:28:37Z</time></trkpt><trkpt lat="40.86222889159992" lon="19.82433937680115"><ele>24.333333333333336</ele><time>2026-04-27T09:28:38Z</time></trkpt><trkpt lat="40.862079489934786" lon="19.824540558292384"><ele>25.0</ele><time>2026-04-27T09:28:39Z</time></trkpt><trkpt lat="40.861928255302274" lon="19.82474439144589"><ele>25.0</ele><time>2026-04-27T09:28:40Z</time></trkpt><trkpt lat="40.86177584416104" lon="19.82494865797078"><ele>25.0</ele><time>2026-04-27T09:28:41Z</time></trkpt><trkpt lat="40.861622014273046" lon="19.82515701015349"><ele>25.0</ele><time>2026-04-27T09:28:42Z</time></trkpt><trkpt lat="40.86147613207502" lon="19.82538424235431"><ele>25.0</ele><time>2026-04-27T09:28:43Z</time></trkpt><trkpt lat="40.86131613256908" lon="19.825601601187408"><ele>25.0</ele><time>2026-04-27T09:28:44Z</time></trkpt><trkpt lat="40.86115495233564" lon="19.82582642476903"><ele>24.333333333333336</ele><time>2026-04-27T09:28:45Z</time></trkpt><trkpt lat="40.86100553829411" lon="19.826052634798806"><ele>23.666666666666668</ele><time>2026-04-27T09:28:46Z</time></trkpt><trkpt lat="40.860864506367676" lon="19.82627789757083"><ele>23.0</ele><time>2026-04-27T09:28:47Z</time></trkpt><trkpt lat="40.860720141797735" lon="19.826508988588824"><ele>23.0</ele><time>2026-04-27T09:28:48Z</time></trkpt><trkpt lat="40.86057810444903" lon="19.82673607536739"><ele>23.0</ele><time>2026-04-27T09:28:49Z</time></trkpt><trkpt lat="40.860435988300296" lon="19.82696552671511"><ele>23.0</ele><time>2026-04-27T09:28:50Z</time></trkpt><trkpt lat="40.86029242099492" lon="19.82719436564013"><ele>24.0</ele><time>2026-04-27T09:28:51Z</time></trkpt><trkpt lat="40.86013464363501" lon="19.82741409766718"><ele>25.0</ele><time>2026-04-27T09:28:52Z</time></trkpt><trkpt lat="40.860002109016655" lon="19.827669413650547"><ele>25.0</ele><time>2026-04-27T09:28:53Z</time></trkpt><trkpt lat="40.85985238187101" lon="19.827915060691517"><ele>25.0</ele><time>2026-04-27T09:28:54Z</time></trkpt><trkpt lat="40.859697790036115" lon="19.828164989452535"><ele>25.0</ele><time>2026-04-27T09:28:55Z</time></trkpt><trkpt lat="40.85953997370599" lon="19.828420703263596"><ele>25.0</ele><time>2026-04-27T09:28:56Z</time></trkpt><trkpt lat="40.859379352520904" lon="19.828678699580525"><ele>23.5</ele><time>2026-04-27T09:28:57Z</time></trkpt><trkpt lat="40.85921577207593" lon="19.828939494296936"><ele>22.0</ele><time>2026-04-27T09:28:58Z</time></trkpt><trkpt lat="40.85904866529911" lon="19.829205218150175"><ele>23.5</ele><time>2026-04-27T09:28:59Z</time></trkpt><trkpt lat="40.8588815451085" lon="19.82947314677154"><ele>25.0</ele><time>2026-04-27T09:29:00Z</time></trkpt><trkpt lat="40.85871733742276" lon="19.829742329268225"><ele>25.0</ele><time>2026-04-27T09:29:01Z</time></trkpt><trkpt lat="40.85855233746878" lon="19.830012497378434"><ele>25.0</ele><time>2026-04-27T09:29:02Z</time></trkpt><trkpt lat="40.85838359834433" lon="19.830284884650617"><ele>24.5</ele><time>2026-04-27T09:29:03Z</time></trkpt><trkpt lat="40.85821850739371" lon="19.830552881510172"><ele>24.0</ele><time>2026-04-27T09:29:04Z</time></trkpt><trkpt lat="40.85806331048136" lon="19.830801296808254"><ele>25.0</ele><time>2026-04-27T09:29:05Z</time></trkpt><trkpt lat="40.85791672336121" lon="19.831038246848866"><ele>26.0</ele><time>2026-04-27T09:29:06Z</time></trkpt><trkpt lat="40.857771372631106" lon="19.83127585840163"><ele>26.0</ele><time>2026-04-27T09:29:07Z</time></trkpt><trkpt lat="40.857624071413184" lon="19.83151443507282"><ele>26.0</ele><time>2026-04-27T09:29:08Z</time></trkpt><trkpt lat="40.857477860059966" lon="19.831751254763642"><ele>25.5</ele><time>2026-04-27T09:29:09Z</time></trkpt><trkpt lat="40.85733084415806" lon="19.831990517874655"><ele>25.0</ele><time>2026-04-27T09:29:10Z</time></trkpt><trkpt lat="40.85718178048434" lon="19.83223354145977"><ele>25.0</ele><time>2026-04-27T09:29:11Z</time></trkpt><trkpt lat="40.857029957040126" lon="19.8324803613213"><ele>25.0</ele><time>2026-04-27T09:29:12Z</time></trkpt><trkpt lat="40.856875630403565" lon="19.832733344925504"><ele>23.5</ele><time>2026-04-27T09:29:13Z</time></trkpt><trkpt lat="40.85672034844852" lon="19.832988970406983"><ele>22.0</ele><time>2026-04-27T09:29:14Z</time></trkpt><trkpt lat="40.85656318726984" lon="19.833243983172668"><ele>23.0</ele><time>2026-04-27T09:29:15Z</time></trkpt><trkpt lat="40.85640532942106" lon="19.83349831599949"><ele>24.0</ele><time>2026-04-27T09:29:16Z</time></trkpt><trkpt lat="40.856246645592336" lon="19.833753283575653"><ele>24.0</ele><time>2026-04-27T09:29:17Z</time></trkpt><trkpt lat="40.85608761336261" lon="19.834009049798308"><ele>24.0</ele><time>2026-04-27T09:29:18Z</time></trkpt><trkpt lat="40.85593013464517" lon="19.834268204931522"><ele>24.5</ele><time>2026-04-27T09:29:19Z</time></trkpt><trkpt lat="40.85577175804718" lon="19.834527894024056"><ele>25.0</ele><time>2026-04-27T09:29:20Z</time></trkpt><trkpt lat="40.855615199591114" lon="19.83478420903383"><ele>25.0</ele><time>2026-04-27T09:29:21Z</time></trkpt><trkpt lat="40.855461156693295" lon="19.835039364629797"><ele>25.0</ele><time>2026-04-27T09:29:22Z</time></trkpt><trkpt lat="40.855310030806635" lon="19.835294353619283"><ele>24.5</ele><time>2026-04-27T09:29:23Z</time></trkpt><trkpt lat="40.85516110693747" lon="19.83554769621293"><ele>24.0</ele><time>2026-04-27T09:29:24Z</time></trkpt><trkpt lat="40.85501226140448" lon="19.835798470314717"><ele>25.0</ele><time>2026-04-27T09:29:25Z</time></trkpt><trkpt lat="40.85486299238986" lon="19.83604462725047"><ele>26.0</ele><time>2026-04-27T09:29:26Z</time></trkpt><trkpt lat="40.85471678220842" lon="19.836281869582457"><ele>26.0</ele><time>2026-04-27T09:29:27Z</time></trkpt><trkpt lat="40.85457941350894" lon="19.836507917605"><ele>26.0</ele><time>2026-04-27T09:29:28Z</time></trkpt><trkpt lat="40.85444376107265" lon="19.83673166854657"><ele>26.0</ele><time>2026-04-27T09:29:29Z</time></trkpt><trkpt lat="40.85431099778616" lon="19.836949565389684"><ele>25.666666666666664</ele><time>2026-04-27T09:29:30Z</time></trkpt><trkpt lat="40.8541836269763" lon="19.837165282512334"><ele>25.333333333333336</ele><time>2026-04-27T09:29:31Z</time></trkpt><trkpt lat="40.85405685136949" lon="19.837381159456577"><ele>25.0</ele><time>2026-04-27T09:29:32Z</time></trkpt><trkpt lat="40.85392876724973" lon="19.83759312923137"><ele>25.0</ele><time>2026-04-27T09:29:33Z</time></trkpt><trkpt lat="40.853798166509115" lon="19.837804079566478"><ele>25.0</ele><time>2026-04-27T09:29:34Z</time></trkpt><trkpt lat="40.85367192436108" lon="19.838005525366754"><ele>25.0</ele><time>2026-04-27T09:29:35Z</time></trkpt><trkpt lat="40.85355007593743" lon="19.838205305687364"><ele>24.0</ele><time>2026-04-27T09:29:36Z</time></trkpt><trkpt lat="40.853433464653556" lon="19.838405674119265"><ele>23.0</ele><time>2026-04-27T09:29:37Z</time></trkpt><trkpt lat="40.853314591229726" lon="19.838608320787216"><ele>22.0</ele><time>2026-04-27T09:29:38Z</time></trkpt><trkpt lat="40.853192908922495" lon="19.83880878359974"><ele>21.666666666666664</ele><time>2026-04-27T09:29:39Z</time></trkpt><trkpt lat="40.85307140753094" lon="19.8390050951829"><ele>21.333333333333332</ele><time>2026-04-27T09:29:40Z</time></trkpt><trkpt lat="40.85295209344011" lon="19.839197597783816"><ele>21.0</ele><time>2026-04-27T09:29:41Z</time></trkpt><trkpt lat="40.852843153272545" lon="19.839384384942992"><ele>20.666666666666668</ele><time>2026-04-27T09:29:42Z</time></trkpt><trkpt lat="40.85274480928304" lon="19.839577174523484"><ele>20.333333333333336</ele><time>2026-04-27T09:29:43Z</time></trkpt><trkpt lat="40.85265704409245" lon="19.839769223435763"><ele>20.0</ele><time>2026-04-27T09:29:44Z</time></trkpt><trkpt lat="40.85258710440418" lon="19.83997601674311"><ele>19.666666666666668</ele><time>2026-04-27T09:29:45Z</time></trkpt><trkpt lat="40.85255410875299" lon="19.84020127720385"><ele>19.333333333333332</ele><time>2026-04-27T09:29:46Z</time></trkpt><trkpt lat="40.85254904297407" lon="19.84045568468012"><ele>19.0</ele><time>2026-04-27T09:29:47Z</time></trkpt><trkpt lat="40.85254930273728" lon="19.840730630215905"><ele>19.333333333333332</ele><time>2026-04-27T09:29:48Z</time></trkpt><trkpt lat="40.8525523000632" lon="19.841017986564083"><ele>19.666666666666668</ele><time>2026-04-27T09:29:49Z</time></trkpt><trkpt lat="40.8525579197241" lon="19.841321454592265"><ele>20.0</ele><time>2026-04-27T09:29:50Z</time></trkpt><trkpt lat="40.852562149198285" lon="19.84163926569581"><ele>20.5</ele><time>2026-04-27T09:29:51Z</time></trkpt><trkpt lat="40.85256334743178" lon="19.841971594570257"><ele>21.0</ele><time>2026-04-27T09:29:52Z</time></trkpt><trkpt lat="40.85256527398414" lon="19.842313891459167"><ele>21.5</ele><time>2026-04-27T09:29:53Z</time></trkpt><trkpt lat="40.852568550581225" lon="19.842643098415586"><ele>22.0</ele><time>2026-04-27T09:29:54Z</time></trkpt><trkpt lat="40.85257341781718" lon="19.84294762867917"><ele>22.0</ele><time>2026-04-27T09:29:55Z</time></trkpt><trkpt lat="40.85257629599282" lon="19.84324301612174"><ele>22.0</ele><time>2026-04-27T09:29:56Z</time></trkpt><trkpt lat="40.85257653953968" lon="19.843539433944493"><ele>22.0</ele><time>2026-04-27T09:29:57Z</time></trkpt><trkpt lat="40.85258046010941" lon="19.843828776763846"><ele>22.333333333333332</ele><time>2026-04-27T09:29:58Z</time></trkpt><trkpt lat="40.85258623027153" lon="19.84409741664891"><ele>22.666666666666668</ele><time>2026-04-27T09:29:59Z</time></trkpt><trkpt lat="40.85258604303501" lon="19.84434015910906"><ele>23.0</ele><time>2026-04-27T09:30:00Z</time></trkpt><trkpt lat="40.852575040546746" lon="19.8445583229831"><ele>23.0</ele><time>2026-04-27T09:30:01Z</time></trkpt><trkpt lat="40.85252469495743" lon="19.84478615357807"><ele>23.0</ele><time>2026-04-27T09:30:02Z</time></trkpt><trkpt lat="40.85242267147301" lon="19.845039028190733"><ele>23.0</ele><time>2026-04-27T09:30:03Z</time></trkpt><trkpt lat="40.852288745835104" lon="19.845306876682244"><ele>24.0</ele><time>2026-04-27T09:30:04Z</time></trkpt><trkpt lat="40.85216564796587" lon="19.84558429090335"><ele>25.0</ele><time>2026-04-27T09:30:05Z</time></trkpt><trkpt lat="40.85205504318207" lon="19.845913302842128"><ele>25.0</ele><time>2026-04-27T09:30:06Z</time></trkpt><trkpt lat="40.85196271208644" lon="19.84625943548474"><ele>25.0</ele><time>2026-04-27T09:30:07Z</time></trkpt><trkpt lat="40.851879241760585" lon="19.846561572681285"><ele>24.0</ele><time>2026-04-27T09:30:08Z</time></trkpt><trkpt lat="40.85177866790932" lon="19.84685191323394"><ele>23.0</ele><time>2026-04-27T09:30:09Z</time></trkpt><trkpt lat="40.8516714049012" lon="19.847148352751592"><ele>23.0</ele><time>2026-04-27T09:30:10Z</time></trkpt><trkpt lat="40.85154904012578" lon="19.847468321715862"><ele>23.0</ele><time>2026-04-27T09:30:11Z</time></trkpt><trkpt lat="40.851397864176036" lon="19.847818098169114"><ele>23.0</ele><time>2026-04-27T09:30:12Z</time></trkpt><trkpt lat="40.85122102668899" lon="19.848181763568196"><ele>23.0</ele><time>2026-04-27T09:30:13Z</time></trkpt><trkpt lat="40.851022904136336" lon="19.848563314115424"><ele>23.0</ele><time>2026-04-27T09:30:14Z</time></trkpt><trkpt lat="40.85083174084569" lon="19.84896729443428"><ele>23.0</ele><time>2026-04-27T09:30:15Z</time></trkpt><trkpt lat="40.85066100357246" lon="19.849351709607262"><ele>23.0</ele><time>2026-04-27T09:30:16Z</time></trkpt><trkpt lat="40.85051179512993" lon="19.849684161692704"><ele>23.0</ele><time>2026-04-27T09:30:17Z</time></trkpt><trkpt lat="40.85037852424064" lon="19.849995998214215"><ele>22.5</ele><time>2026-04-27T09:30:18Z</time></trkpt><trkpt lat="40.8502653859028" lon="19.850298146913115"><ele>22.0</ele><time>2026-04-27T09:30:19Z</time></trkpt><trkpt lat="40.85017064432972" lon="19.850594232759843"><ele>23.0</ele><time>2026-04-27T09:30:20Z</time></trkpt><trkpt lat="40.85010448289179" lon="19.85089663211934"><ele>24.0</ele><time>2026-04-27T09:30:21Z</time></trkpt><trkpt lat="40.85004732262543" lon="19.851172352494334"><ele>24.333333333333336</ele><time>2026-04-27T09:30:22Z</time></trkpt><trkpt lat="40.84997667624652" lon="19.851419677935578"><ele>24.666666666666668</ele><time>2026-04-27T09:30:23Z</time></trkpt><trkpt lat="40.84989355644977" lon="19.851638410480195"><ele>25.0</ele><time>2026-04-27T09:30:24Z</time></trkpt><trkpt lat="40.849813001663165" lon="19.851821153095575"><ele>25.666666666666668</ele><time>2026-04-27T09:30:25Z</time></trkpt><trkpt lat="40.84973495122146" lon="19.851941528872306"><ele>26.333333333333336</ele><time>2026-04-27T09:30:26Z</time></trkpt><trkpt lat="40.84967522193974" lon="19.851987290202192"><ele>27.0</ele><time>2026-04-27T09:30:27Z</time></trkpt><trkpt lat="40.84959820652725" lon="19.852031944290836"><ele>27.666666666666664</ele><time>2026-04-27T09:30:29Z</time></trkpt><trkpt lat="40.84953828115699" lon="19.852094140539926"><ele>28.333333333333332</ele><time>2026-04-27T09:30:30Z</time></trkpt><trkpt lat="40.849465787065995" lon="19.852168424896867"><ele>29.0</ele><time>2026-04-27T09:30:31Z</time></trkpt><trkpt lat="40.849419265684965" lon="19.852247971953165"><ele>29.0</ele><time>2026-04-27T09:30:32Z</time></trkpt><trkpt lat="40.84939275395573" lon="19.852327396731305"><ele>29.0</ele><time>2026-04-27T09:30:33Z</time></trkpt><trkpt lat="40.84942568927602" lon="19.852448580965426"><ele>29.0</ele><time>2026-04-27T09:30:34Z</time></trkpt><trkpt lat="40.849453155544765" lon="19.852590311266795"><ele>29.0</ele><time>2026-04-27T09:30:35Z</time></trkpt><trkpt lat="40.84948413330892" lon="19.852743815470436"><ele>29.0</ele><time>2026-04-27T09:30:36Z</time></trkpt><trkpt lat="40.849522704693186" lon="19.85291075125766"><ele>30.25</ele><time>2026-04-27T09:30:37Z</time></trkpt><trkpt lat="40.8495619495812" lon="19.853090919318838"><ele>31.5</ele><time>2026-04-27T09:30:38Z</time></trkpt><trkpt lat="40.84960177974597" lon="19.853274271902663"><ele>32.75</ele><time>2026-04-27T09:30:39Z</time></trkpt><trkpt lat="40.849638504536465" lon="19.85346007500188"><ele>34.0</ele><time>2026-04-27T09:30:40Z</time></trkpt><trkpt lat="40.849682504017935" lon="19.85364315227212"><ele>34.333333333333336</ele><time>2026-04-27T09:30:41Z</time></trkpt><trkpt lat="40.849722462026605" lon="19.85383179968599"><ele>34.666666666666664</ele><time>2026-04-27T09:30:42Z</time></trkpt><trkpt lat="40.84974657381607" lon="19.854030698627998"><ele>35.0</ele><time>2026-04-27T09:30:43Z</time></trkpt><trkpt lat="40.849762918888075" lon="19.85424031267162"><ele>36.666666666666664</ele><time>2026-04-27T09:30:44Z</time></trkpt><trkpt lat="40.84975600346261" lon="19.854471439947645"><ele>38.333333333333336</ele><time>2026-04-27T09:30:45Z</time></trkpt><trkpt lat="40.84975121270352" lon="19.854709946074422"><ele>40.0</ele><time>2026-04-27T09:30:46Z</time></trkpt><trkpt lat="40.8497556511622" lon="19.85493760037812"><ele>41.25</ele><time>2026-04-27T09:30:47Z</time></trkpt><trkpt lat="40.84979709155849" lon="19.855150812610876"><ele>42.5</ele><time>2026-04-27T09:30:48Z</time></trkpt><trkpt lat="40.849833614935605" lon="19.855331541596456"><ele>43.75</ele><time>2026-04-27T09:30:49Z</time></trkpt><trkpt lat="40.84983651791719" lon="19.85550062852771"><ele>45.0</ele><time>2026-04-27T09:30:50Z</time></trkpt><trkpt lat="40.84982386685412" lon="19.855676140476604"><ele>45.0</ele><time>2026-04-27T09:30:51Z</time></trkpt><trkpt lat="40.8498080376943" lon="19.855869643000965"><ele>45.0</ele><time>2026-04-27T09:30:52Z</time></trkpt><trkpt lat="40.84978203074066" lon="19.856086267643782"><ele>45.0</ele><time>2026-04-27T09:30:53Z</time></trkpt><trkpt lat="40.84974031743986" lon="19.85631335299972"><ele>45.333333333333336</ele><time>2026-04-27T09:30:54Z</time></trkpt><trkpt lat="40.849682013739546" lon="19.856546153028926"><ele>45.66666666666667</ele><time>2026-04-27T09:30:55Z</time></trkpt><trkpt lat="40.849604800685285" lon="19.856779499218074"><ele>46.0</ele><time>2026-04-27T09:30:56Z</time></trkpt><trkpt lat="40.84951023155023" lon="19.857010505834335"><ele>46.0</ele><time>2026-04-27T09:30:57Z</time></trkpt><trkpt lat="40.84943119989719" lon="19.857210149437677"><ele>46.0</ele><time>2026-04-27T09:30:58Z</time></trkpt><trkpt lat="40.84936535538826" lon="19.85739496274974"><ele>46.0</ele><time>2026-04-27T09:30:59Z</time></trkpt><trkpt lat="40.849293322682904" lon="19.85757865208152"><ele>48.5</ele><time>2026-04-27T09:31:00Z</time></trkpt><trkpt lat="40.84921259876122" lon="19.857746221580246"><ele>51.0</ele><time>2026-04-27T09:31:01Z</time></trkpt><trkpt lat="40.84910444089013" lon="19.857871229048744"><ele>53.5</ele><time>2026-04-27T09:31:02Z</time></trkpt><trkpt lat="40.849007755011364" lon="19.858023186132787"><ele>56.0</ele><time>2026-04-27T09:31:03Z</time></trkpt><trkpt lat="40.848887886173614" lon="19.85815423790018"><ele>56.0</ele><time>2026-04-27T09:31:04Z</time></trkpt><trkpt lat="40.8487672910675" lon="19.858292674167103"><ele>56.0</ele><time>2026-04-27T09:31:05Z</time></trkpt><trkpt lat="40.848627958256166" lon="19.85839990427383"><ele>56.0</ele><time>2026-04-27T09:31:06Z</time></trkpt><trkpt lat="40.8484977889284" lon="19.858526733947667"><ele>57.333333333333336</ele><time>2026-04-27T09:31:07Z</time></trkpt><trkpt lat="40.84836547222348" lon="19.85865134289158"><ele>58.66666666666667</ele><time>2026-04-27T09:31:08Z</time></trkpt><trkpt lat="40.84824782767095" lon="19.858795951408013"><ele>60.0</ele><time>2026-04-27T09:31:09Z</time></trkpt><trkpt lat="40.84811735255993" lon="19.858914727486244"><ele>60.0</ele><time>2026-04-27T09:31:10Z</time></trkpt><trkpt lat="40.84799124621991" lon="19.85899746726099"><ele>60.0</ele><time>2026-04-27T09:31:11Z</time></trkpt><trkpt lat="40.84790886294061" lon="19.85914187434202"><ele>60.0</ele><time>2026-04-27T09:31:12Z</time></trkpt><trkpt lat="40.84785590142046" lon="19.85927561417624"><ele>60.0</ele><time>2026-04-27T09:31:13Z</time></trkpt><trkpt lat="40.8478401496095" lon="19.859411714706596"><ele>59.75</ele><time>2026-04-27T09:31:14Z</time></trkpt><trkpt lat="40.84784453006108" lon="19.859558003805493"><ele>59.5</ele><time>2026-04-27T09:31:15Z</time></trkpt><trkpt lat="40.84785876286536" lon="19.859729767241674"><ele>59.25</ele><time>2026-04-27T09:31:16Z</time></trkpt><trkpt lat="40.84787850695935" lon="19.85992658104781"><ele>59.0</ele><time>2026-04-27T09:31:17Z</time></trkpt><trkpt lat="40.84789114282668" lon="19.86014373110624"><ele>58.75</ele><time>2026-04-27T09:31:18Z</time></trkpt><trkpt lat="40.84788969248774" lon="19.860346238443174"><ele>58.5</ele><time>2026-04-27T09:31:19Z</time></trkpt><trkpt lat="40.8478501638832" lon="19.8605085467506"><ele>58.25</ele><time>2026-04-27T09:31:20Z</time></trkpt><trkpt lat="40.847785622362906" lon="19.860663387005406"><ele>58.0</ele><time>2026-04-27T09:31:21Z</time></trkpt><trkpt lat="40.84768585116962" lon="19.860834498159914"><ele>58.5</ele><time>2026-04-27T09:31:22Z</time></trkpt><trkpt lat="40.84762568887494" lon="19.861020845698558"><ele>59.0</ele><time>2026-04-27T09:31:23Z</time></trkpt><trkpt lat="40.847595866134995" lon="19.861196155936952"><ele>59.5</ele><time>2026-04-27T09:31:24Z</time></trkpt><trkpt lat="40.84759577104848" lon="19.861388004783485"><ele>60.0</ele><time>2026-04-27T09:31:25Z</time></trkpt><trkpt lat="40.847627060338354" lon="19.86158869636712"><ele>63.0</ele><time>2026-04-27T09:31:26Z</time></trkpt><trkpt lat="40.84768675987548" lon="19.86179117438303"><ele>66.0</ele><time>2026-04-27T09:31:27Z</time></trkpt><trkpt lat="40.84779136480692" lon="19.862018652445997"><ele>69.0</ele><time>2026-04-27T09:31:28Z</time></trkpt><trkpt lat="40.847875720375825" lon="19.862239304778978"><ele>69.0</ele><time>2026-04-27T09:31:29Z</time></trkpt><trkpt lat="40.84792941450891" lon="19.862424107714403"><ele>69.0</ele><time>2026-04-27T09:31:30Z</time></trkpt><trkpt lat="40.847943024013766" lon="19.86260034324864"><ele>69.0</ele><time>2026-04-27T09:31:31Z</time></trkpt><trkpt lat="40.847918390297835" lon="19.8627748290509"><ele>69.0</ele><time>2026-04-27T09:31:32Z</time></trkpt><trkpt lat="40.84791565999752" lon="19.86296166852373"><ele>69.5</ele><time>2026-04-27T09:31:33Z</time></trkpt><trkpt lat="40.84789254547955" lon="19.863142952714682"><ele>70.0</ele><time>2026-04-27T09:31:34Z</time></trkpt><trkpt lat="40.8478886172504" lon="19.863301825267342"><ele>70.5</ele><time>2026-04-27T09:31:35Z</time></trkpt><trkpt lat="40.8479088032298" lon="19.863457723727723"><ele>71.0</ele><time>2026-04-27T09:31:36Z</time></trkpt><trkpt lat="40.84796000976648" lon="19.863612253462534"><ele>71.75</ele><time>2026-04-27T09:31:37Z</time></trkpt><trkpt lat="40.84803167954192" lon="19.863766310550027"><ele>72.5</ele><time>2026-04-27T09:31:38Z</time></trkpt><trkpt lat="40.848108812849325" lon="19.863934966787586"><ele>73.25</ele><time>2026-04-27T09:31:39Z</time></trkpt><trkpt lat="40.848163758444024" lon="19.86413516600475"><ele>74.0</ele><time>2026-04-27T09:31:40Z</time></trkpt><trkpt lat="40.84823488220851" lon="19.864348842267415"><ele>74.0</ele><time>2026-04-27T09:31:41Z</time></trkpt><trkpt lat="40.84833245459373" lon="19.864561426317223"><ele>74.0</ele><time>2026-04-27T09:31:42Z</time></trkpt><trkpt lat="40.84840933329274" lon="19.864752717900235"><ele>74.0</ele><time>2026-04-27T09:31:43Z</time></trkpt><trkpt lat="40.848476449394326" lon="19.86493318319225"><ele>73.25</ele><time>2026-04-27T09:31:44Z</time></trkpt><trkpt lat="40.84853206274094" lon="19.865107731181904"><ele>72.5</ele><time>2026-04-27T09:31:45Z</time></trkpt><trkpt lat="40.84857616968652" lon="19.86526400794179"><ele>71.75</ele><time>2026-04-27T09:31:46Z</time></trkpt><trkpt lat="40.848592155691435" lon="19.8654146026163"><ele>71.0</ele><time>2026-04-27T09:31:47Z</time></trkpt><trkpt lat="40.848605742457806" lon="19.8655295947164"><ele>71.0</ele><time>2026-04-27T09:31:48Z</time></trkpt><trkpt lat="40.84856455519021" lon="19.86563593732768"><ele>71.0</ele><time>2026-04-27T09:31:49Z</time></trkpt><trkpt lat="40.84849415347802" lon="19.865753652371627"><ele>71.0</ele><time>2026-04-27T09:31:50Z</time></trkpt><trkpt lat="40.84844489619035" lon="19.86591998247577"><ele>71.0</ele><time>2026-04-27T09:31:51Z</time></trkpt><trkpt lat="40.84840199224415" lon="19.866120016453593"><ele>74.0</ele><time>2026-04-27T09:31:52Z</time></trkpt><trkpt lat="40.848338508000154" lon="19.866312391037376"><ele>77.0</ele><time>2026-04-27T09:31:53Z</time></trkpt><trkpt lat="40.84827693080273" lon="19.866510810779218"><ele>80.0</ele><time>2026-04-27T09:31:54Z</time></trkpt><trkpt lat="40.84821074458767" lon="19.866724998469"><ele>80.33333333333334</ele><time>2026-04-27T09:31:55Z</time></trkpt><trkpt lat="40.84811353457403" lon="19.866949966616836"><ele>80.66666666666667</ele><time>2026-04-27T09:31:56Z</time></trkpt><trkpt lat="40.84803104031605" lon="19.867158177407287"><ele>81.0</ele><time>2026-04-27T09:31:57Z</time></trkpt><trkpt lat="40.847960881339205" lon="19.86738238969491"><ele>81.0</ele><time>2026-04-27T09:31:58Z</time></trkpt><trkpt lat="40.84788883727312" lon="19.867563737336614"><ele>81.0</ele><time>2026-04-27T09:31:59Z</time></trkpt><trkpt lat="40.84783605943964" lon="19.867726575599605"><ele>81.0</ele><time>2026-04-27T09:32:00Z</time></trkpt><trkpt lat="40.847791013233184" lon="19.867909438715238"><ele>81.0</ele><time>2026-04-27T09:32:01Z</time></trkpt><trkpt lat="40.847770140822675" lon="19.86810773230643"><ele>81.66666666666667</ele><time>2026-04-27T09:32:02Z</time></trkpt><trkpt lat="40.84776271729607" lon="19.868337021804685"><ele>82.33333333333334</ele><time>2026-04-27T09:32:03Z</time></trkpt><trkpt lat="40.847759301751736" lon="19.868584479713007"><ele>83.0</ele><time>2026-04-27T09:32:04Z</time></trkpt><trkpt lat="40.84775271427454" lon="19.86883251202771"><ele>83.0</ele><time>2026-04-27T09:32:05Z</time></trkpt><trkpt lat="40.84774639125547" lon="19.869083536470665"><ele>83.0</ele><time>2026-04-27T09:32:06Z</time></trkpt><trkpt lat="40.847740777937126" lon="19.869341113106294"><ele>83.0</ele><time>2026-04-27T09:32:07Z</time></trkpt><trkpt lat="40.84773439297048" lon="19.86957208854497"><ele>83.0</ele><time>2026-04-27T09:32:08Z</time></trkpt><trkpt lat="40.84770361716581" lon="19.869737549747796"><ele>83.0</ele><time>2026-04-27T09:32:09Z</time></trkpt><trkpt lat="40.84768558222467" lon="19.869896561255427"><ele>83.0</ele><time>2026-04-27T09:32:10Z</time></trkpt><trkpt lat="40.847665370287814" lon="19.87005927416976"><ele>83.0</ele><time>2026-04-27T09:32:11Z</time></trkpt><trkpt lat="40.84764499477053" lon="19.870251337850565"><ele>83.0</ele><time>2026-04-27T09:32:12Z</time></trkpt><trkpt lat="40.84763408249447" lon="19.870455426703888"><ele>83.0</ele><time>2026-04-27T09:32:13Z</time></trkpt><trkpt lat="40.84762265091871" lon="19.87065741133543"><ele>83.0</ele><time>2026-04-27T09:32:14Z</time></trkpt><trkpt lat="40.84763059887377" lon="19.87084349542285"><ele>83.0</ele><time>2026-04-27T09:32:15Z</time></trkpt><trkpt lat="40.847613773312425" lon="19.87103099418905"><ele>85.5</ele><time>2026-04-27T09:32:16Z</time></trkpt><trkpt lat="40.84759536816103" lon="19.87122029626614"><ele>88.0</ele><time>2026-04-27T09:32:17Z</time></trkpt><trkpt lat="40.84757266805251" lon="19.871416551901337"><ele>90.5</ele><time>2026-04-27T09:32:18Z</time></trkpt><trkpt lat="40.84755511007749" lon="19.871602627301787"><ele>93.0</ele><time>2026-04-27T09:32:19Z</time></trkpt><trkpt lat="40.84750764254039" lon="19.871788410702326"><ele>95.66666666666666</ele><time>2026-04-27T09:32:20Z</time></trkpt><trkpt lat="40.84746385212683" lon="19.871992613781533"><ele>98.33333333333333</ele><time>2026-04-27T09:32:21Z</time></trkpt><trkpt lat="40.84741132783518" lon="19.87221378512761"><ele>101.0</ele><time>2026-04-27T09:32:22Z</time></trkpt><trkpt lat="40.84736395456261" lon="19.872452697672074"><ele>101.75</ele><time>2026-04-27T09:32:23Z</time></trkpt><trkpt lat="40.84729164032593" lon="19.87266225114576"><ele>102.5</ele><time>2026-04-27T09:32:24Z</time></trkpt><trkpt lat="40.847238127821456" lon="19.87282988658436"><ele>103.25</ele><time>2026-04-27T09:32:25Z</time></trkpt><trkpt lat="40.847189756837295" lon="19.872985639438788"><ele>104.0</ele><time>2026-04-27T09:32:26Z</time></trkpt><trkpt lat="40.847142275018655" lon="19.873169458665963"><ele>104.0</ele><time>2026-04-27T09:32:27Z</time></trkpt><trkpt lat="40.84710281192733" lon="19.873350309508346"><ele>104.0</ele><time>2026-04-27T09:32:28Z</time></trkpt><trkpt lat="40.84707426197764" lon="19.873504998560424"><ele>104.0</ele><time>2026-04-27T09:32:29Z</time></trkpt><trkpt lat="40.84704890100372" lon="19.873633719951638"><ele>104.0</ele><time>2026-04-27T09:32:30Z</time></trkpt><trkpt lat="40.84699846710524" lon="19.873742032986268"><ele>103.5</ele><time>2026-04-27T09:32:31Z</time></trkpt><trkpt lat="40.84695477349216" lon="19.873876029914634"><ele>103.0</ele><time>2026-04-27T09:32:32Z</time></trkpt><trkpt lat="40.846905851362735" lon="19.874024516495417"><ele>102.5</ele><time>2026-04-27T09:32:33Z</time></trkpt><trkpt lat="40.846860310864415" lon="19.874172765112593"><ele>102.0</ele><time>2026-04-27T09:32:34Z</time></trkpt><trkpt lat="40.84683717903233" lon="19.874303014171513"><ele>101.25</ele><time>2026-04-27T09:32:35Z</time></trkpt><trkpt lat="40.84679472085336" lon="19.87442754174279"><ele>100.5</ele><time>2026-04-27T09:32:36Z</time></trkpt><trkpt lat="40.84676156514397" lon="19.87457510507246"><ele>99.75</ele><time>2026-04-27T09:32:37Z</time></trkpt><trkpt lat="40.846733024850224" lon="19.874738343176986"><ele>99.0</ele><time>2026-04-27T09:32:38Z</time></trkpt><trkpt lat="40.84671285179498" lon="19.87488231107727"><ele>101.25</ele><time>2026-04-27T09:32:39Z</time></trkpt><trkpt lat="40.84669716991146" lon="19.875011875468104"><ele>103.5</ele><time>2026-04-27T09:32:40Z</time></trkpt><trkpt lat="40.84668078055482" lon="19.875157375170712"><ele>105.75</ele><time>2026-04-27T09:32:41Z</time></trkpt><trkpt lat="40.84665029729016" lon="19.87532179027215"><ele>108.0</ele><time>2026-04-27T09:32:42Z</time></trkpt><trkpt lat="40.84663304548954" lon="19.875477597039044"><ele>109.4</ele><time>2026-04-27T09:32:43Z</time></trkpt><trkpt lat="40.84663463119541" lon="19.875619123325066"><ele>110.80000000000001</ele><time>2026-04-27T09:32:44Z</time></trkpt><trkpt lat="40.84660935428555" lon="19.87575620589755"><ele>112.2</ele><time>2026-04-27T09:32:45Z</time></trkpt><trkpt lat="40.84655488096278" lon="19.8758934207213"><ele>113.6</ele><time>2026-04-27T09:32:46Z</time></trkpt><trkpt lat="40.84650659851953" lon="19.876023849739575"><ele>115.0</ele><time>2026-04-27T09:32:47Z</time></trkpt><trkpt lat="40.84645303343461" lon="19.87614674849457"><ele>115.25</ele><time>2026-04-27T09:32:48Z</time></trkpt><trkpt lat="40.84638994092876" lon="19.876274116869144"><ele>115.5</ele><time>2026-04-27T09:32:49Z</time></trkpt><trkpt lat="40.8463237085913" lon="19.87640488546642"><ele>115.75</ele><time>2026-04-27T09:32:50Z</time></trkpt><trkpt lat="40.846254224070144" lon="19.876543658580264"><ele>116.0</ele><time>2026-04-27T09:32:51Z</time></trkpt><trkpt lat="40.84620093157586" lon="19.876684531090092"><ele>117.0</ele><time>2026-04-27T09:32:52Z</time></trkpt><trkpt lat="40.84614274841318" lon="19.87680408708615"><ele>118.0</ele><time>2026-04-27T09:32:53Z</time></trkpt><trkpt lat="40.84609417132686" lon="19.876911220548777"><ele>119.0</ele><time>2026-04-27T09:32:54Z</time></trkpt><trkpt lat="40.84605087143926" lon="19.877012462619838"><ele>120.0</ele><time>2026-04-27T09:32:55Z</time></trkpt><trkpt lat="40.845998573268055" lon="19.877134192212132"><ele>121.0</ele><time>2026-04-27T09:32:56Z</time></trkpt><trkpt lat="40.845938448162855" lon="19.877260577943122"><ele>121.0</ele><time>2026-04-27T09:32:57Z</time></trkpt><trkpt lat="40.84591283791489" lon="19.87739662883477"><ele>121.0</ele><time>2026-04-27T09:32:58Z</time></trkpt><trkpt lat="40.845875240535186" lon="19.877519513846774"><ele>121.0</ele><time>2026-04-27T09:32:59Z</time></trkpt><trkpt lat="40.84584312869597" lon="19.87763784213833"><ele>121.0</ele><time>2026-04-27T09:33:00Z</time></trkpt><trkpt lat="40.84581699471045" lon="19.877744939093603"><ele>121.0</ele><time>2026-04-27T09:33:01Z</time></trkpt><trkpt lat="40.84578748321079" lon="19.877845843377855"><ele>119.6</ele><time>2026-04-27T09:33:02Z</time></trkpt><trkpt lat="40.84575598411591" lon="19.877977705734054"><ele>118.19999999999999</ele><time>2026-04-27T09:33:03Z</time></trkpt><trkpt lat="40.845708585457345" lon="19.87809131760296"><ele>116.80000000000001</ele><time>2026-04-27T09:33:04Z</time></trkpt><trkpt lat="40.845686715605254" lon="19.878225950756846"><ele>115.4</ele><time>2026-04-27T09:33:05Z</time></trkpt><trkpt lat="40.845649709529674" lon="19.878360092564403"><ele>114.0</ele><time>2026-04-27T09:33:06Z</time></trkpt><trkpt lat="40.845607017110304" lon="19.8784933485945"><ele>113.66666666666667</ele><time>2026-04-27T09:33:07Z</time></trkpt><trkpt lat="40.84558121631301" lon="19.87861312898121"><ele>113.33333333333334</ele><time>2026-04-27T09:33:08Z</time></trkpt><trkpt lat="40.8455527786276" lon="19.878710674913112"><ele>113.0</ele><time>2026-04-27T09:33:09Z</time></trkpt><trkpt lat="40.84552332386733" lon="19.87880107628978"><ele>112.66666666666667</ele><time>2026-04-27T09:33:10Z</time></trkpt><trkpt lat="40.845494008482525" lon="19.87891293666472"><ele>112.33333333333334</ele><time>2026-04-27T09:33:11Z</time></trkpt><trkpt lat="40.84546048306621" lon="19.879039034806187"><ele>112.0</ele><time>2026-04-27T09:33:12Z</time></trkpt><trkpt lat="40.84541411174795" lon="19.879164779535483"><ele>112.19999999999999</ele><time>2026-04-27T09:33:13Z</time></trkpt><trkpt lat="40.845360251088124" lon="19.8792952034243"><ele>112.39999999999999</ele><time>2026-04-27T09:33:14Z</time></trkpt><trkpt lat="40.845310729265314" lon="19.87942410328101"><ele>112.60000000000001</ele><time>2026-04-27T09:33:15Z</time></trkpt><trkpt lat="40.845260461377364" lon="19.879544588382725"><ele>112.80000000000001</ele><time>2026-04-27T09:33:16Z</time></trkpt><trkpt lat="40.84521408433151" lon="19.87963542080717"><ele>113.0</ele><time>2026-04-27T09:33:17Z</time></trkpt><trkpt lat="40.84518301203104" lon="19.87971589740431"><ele>112.99999999999999</ele><time>2026-04-27T09:33:18Z</time></trkpt><trkpt lat="40.84520047832912" lon="19.87981503700429"><ele>113.0</ele><time>2026-04-27T09:33:19Z</time></trkpt><trkpt lat="40.84519228919351" lon="19.879905999340345"><ele>113.0</ele><time>2026-04-27T09:33:20Z</time></trkpt><trkpt lat="40.845194093440874" lon="19.88000043282714"><ele>113.0</ele><time>2026-04-27T09:33:21Z</time></trkpt><trkpt lat="40.845201961966595" lon="19.880096778697503"><ele>112.99999999999999</ele><time>2026-04-27T09:33:22Z</time></trkpt><trkpt lat="40.84521045697888" lon="19.880183268330843"><ele>113.0</ele><time>2026-04-27T09:33:23Z</time></trkpt><trkpt lat="40.84520889479173" lon="19.880333607625555"><ele>111.99999999999999</ele><time>2026-04-27T09:33:25Z</time></trkpt><trkpt lat="40.84521571596243" lon="19.88046316331576"><ele>111.0</ele><time>2026-04-27T09:33:27Z</time></trkpt><trkpt lat="40.845222682995924" lon="19.88059108675842"><ele>110.0</ele><time>2026-04-27T09:33:29Z</time></trkpt><trkpt lat="40.84522768999807" lon="19.880677568770505"><ele>109.0</ele><time>2026-04-27T09:33:30Z</time></trkpt><trkpt lat="40.84523234916051" lon="19.880761129906524"><ele>107.99999999999999</ele><time>2026-04-27T09:33:31Z</time></trkpt><trkpt lat="40.84523484852998" lon="19.88090502987804"><ele>107.0</ele><time>2026-04-27T09:33:33Z</time></trkpt><trkpt lat="40.84523607745081" lon="19.88105547597548"><ele>104.99999999999999</ele><time>2026-04-27T09:33:35Z</time></trkpt><trkpt lat="40.845236655210876" lon="19.881149247215287"><ele>103.0</ele><time>2026-04-27T09:33:36Z</time></trkpt><trkpt lat="40.84524559944107" lon="19.8812380162747"><ele>101.0</ele><time>2026-04-27T09:33:37Z</time></trkpt><trkpt lat="40.845245558186285" lon="19.88132312082547"><ele>99.0</ele><time>2026-04-27T09:33:38Z</time></trkpt><trkpt lat="40.84522453491435" lon="19.88147489141757"><ele>97.0</ele><time>2026-04-27T09:33:40Z</time></trkpt><trkpt lat="40.845170669049466" lon="19.881603019087063"><ele>95.0</ele><time>2026-04-27T09:33:42Z</time></trkpt><trkpt lat="40.84513494955567" lon="19.881681647585896"><ele>95.4</ele><time>2026-04-27T09:33:43Z</time></trkpt><trkpt lat="40.84510357399522" lon="19.881774393468472"><ele>95.8</ele><time>2026-04-27T09:33:44Z</time></trkpt><trkpt lat="40.84503283006811" lon="19.88186001532852"><ele>96.19999999999999</ele><time>2026-04-27T09:33:45Z</time></trkpt><trkpt lat="40.84495515572785" lon="19.881957877428206"><ele>96.6</ele><time>2026-04-27T09:33:46Z</time></trkpt><trkpt lat="40.84488004948732" lon="19.882070957283894"><ele>97.0</ele><time>2026-04-27T09:33:47Z</time></trkpt><trkpt lat="40.84481821727701" lon="19.88218139331499"><ele>97.0</ele><time>2026-04-27T09:33:48Z</time></trkpt><trkpt lat="40.84476666330153" lon="19.882273875866552"><ele>97.0</ele><time>2026-04-27T09:33:49Z</time></trkpt><trkpt lat="40.84470688749536" lon="19.882351369200954"><ele>97.0</ele><time>2026-04-27T09:33:50Z</time></trkpt><trkpt lat="40.84469169999074" lon="19.88245880475028"><ele>97.0</ele><time>2026-04-27T09:33:51Z</time></trkpt><trkpt lat="40.84465221514518" lon="19.882571792350564"><ele>97.0</ele><time>2026-04-27T09:33:52Z</time></trkpt><trkpt lat="40.84458892993872" lon="19.88269651970561"><ele>97.25</ele><time>2026-04-27T09:33:53Z</time></trkpt><trkpt lat="40.844547171050486" lon="19.88287285852311"><ele>97.5</ele><time>2026-04-27T09:33:54Z</time></trkpt><trkpt lat="40.844489483515325" lon="19.883034765132948"><ele>97.75</ele><time>2026-04-27T09:33:55Z</time></trkpt><trkpt lat="40.844449436855754" lon="19.883200571368924"><ele>98.0</ele><time>2026-04-27T09:33:56Z</time></trkpt><trkpt lat="40.84441062020347" lon="19.883378377354777"><ele>98.0</ele><time>2026-04-27T09:33:57Z</time></trkpt><trkpt lat="40.84436356602154" lon="19.883585754502786"><ele>98.0</ele><time>2026-04-27T09:33:58Z</time></trkpt><trkpt lat="40.844314535038045" lon="19.88375551876474"><ele>98.0</ele><time>2026-04-27T09:33:59Z</time></trkpt><trkpt lat="40.84427737794049" lon="19.88390940813125"><ele>98.0</ele><time>2026-04-27T09:34:00Z</time></trkpt><trkpt lat="40.84422384614738" lon="19.884025456819522"><ele>99.80000000000001</ele><time>2026-04-27T09:34:01Z</time></trkpt><trkpt lat="40.84419295741343" lon="19.88412076361732"><ele>101.6</ele><time>2026-04-27T09:34:02Z</time></trkpt><trkpt lat="40.84413117271108" lon="19.884163451826282"><ele>103.39999999999999</ele><time>2026-04-27T09:34:03Z</time></trkpt><trkpt lat="40.84404577320891" lon="19.884258224049475"><ele>105.19999999999999</ele><time>2026-04-27T09:34:04Z</time></trkpt><trkpt lat="40.84394439293808" lon="19.884358007735624"><ele>107.0</ele><time>2026-04-27T09:34:05Z</time></trkpt><trkpt lat="40.84384618814745" lon="19.88448219216375"><ele>107.75</ele><time>2026-04-27T09:34:06Z</time></trkpt><trkpt lat="40.843721987016956" lon="19.884585864538128"><ele>108.5</ele><time>2026-04-27T09:34:07Z</time></trkpt><trkpt lat="40.84360920188891" lon="19.884706330263114"><ele>109.25</ele><time>2026-04-27T09:34:08Z</time></trkpt><trkpt lat="40.84351085779623" lon="19.884828135308652"><ele>110.0</ele><time>2026-04-27T09:34:09Z</time></trkpt><trkpt lat="40.843407075865905" lon="19.884932768097695"><ele>110.0</ele><time>2026-04-27T09:34:10Z</time></trkpt><trkpt lat="40.843329736035486" lon="19.885027187892405"><ele>110.0</ele><time>2026-04-27T09:34:11Z</time></trkpt><trkpt lat="40.84325811125054" lon="19.885091914489774"><ele>110.0</ele><time>2026-04-27T09:34:12Z</time></trkpt><trkpt lat="40.843191782843014" lon="19.885150388909057"><ele>110.0</ele><time>2026-04-27T09:34:13Z</time></trkpt><trkpt lat="40.843046979196295" lon="19.8851539970579"><ele>110.0</ele><time>2026-04-27T09:34:15Z</time></trkpt><trkpt lat="40.84292847484042" lon="19.885155388578497"><ele>110.0</ele><time>2026-04-27T09:34:16Z</time></trkpt><trkpt lat="40.84278354000317" lon="19.885116462631057"><ele>110.0</ele><time>2026-04-27T09:34:17Z</time></trkpt><trkpt lat="40.84264471935003" lon="19.885068862401603"><ele>110.0</ele><time>2026-04-27T09:34:18Z</time></trkpt><trkpt lat="40.8425037563608" lon="19.88504109081405"><ele>110.0</ele><time>2026-04-27T09:34:19Z</time></trkpt><trkpt lat="40.84236601280089" lon="19.88501836486527"><ele>109.8</ele><time>2026-04-27T09:34:20Z</time></trkpt><trkpt lat="40.842258323886114" lon="19.88500085124774"><ele>109.6</ele><time>2026-04-27T09:34:21Z</time></trkpt><trkpt lat="40.84217563019391" lon="19.88498748557726"><ele>109.4</ele><time>2026-04-27T09:34:22Z</time></trkpt><trkpt lat="40.84210262177976" lon="19.88497520490348"><ele>109.2</ele><time>2026-04-27T09:34:23Z</time></trkpt><trkpt lat="40.84201783150881" lon="19.88496094238562"><ele>109.0</ele><time>2026-04-27T09:34:24Z</time></trkpt><trkpt lat="40.84191068647707" lon="19.884988085735724"><ele>108.0</ele><time>2026-04-27T09:34:25Z</time></trkpt><trkpt lat="40.84178919827058" lon="19.885007040960364"><ele>107.0</ele><time>2026-04-27T09:34:26Z</time></trkpt><trkpt lat="40.84163849592044" lon="19.88503003925346"><ele>106.0</ele><time>2026-04-27T09:34:27Z</time></trkpt><trkpt lat="40.84149532195021" lon="19.88504414003386"><ele>105.0</ele><time>2026-04-27T09:34:28Z</time></trkpt><trkpt lat="40.84137139257505" lon="19.88505161371597"><ele>105.0</ele><time>2026-04-27T09:34:29Z</time></trkpt><trkpt lat="40.84125380739817" lon="19.885059576673935"><ele>105.0</ele><time>2026-04-27T09:34:30Z</time></trkpt><trkpt lat="40.84113452301382" lon="19.885076597545698"><ele>105.0</ele><time>2026-04-27T09:34:31Z</time></trkpt><trkpt lat="40.84101507970635" lon="19.88509893014093"><ele>105.0</ele><time>2026-04-27T09:34:32Z</time></trkpt><trkpt lat="40.840913822741975" lon="19.885159251242996"><ele>102.8</ele><time>2026-04-27T09:34:33Z</time></trkpt><trkpt lat="40.840818256685424" lon="19.885186061794837"><ele>100.6</ele><time>2026-04-27T09:34:34Z</time></trkpt><trkpt lat="40.840715393536314" lon="19.885196041234305"><ele>98.4</ele><time>2026-04-27T09:34:35Z</time></trkpt><trkpt lat="40.84061066684456" lon="19.885156479294505"><ele>96.2</ele><time>2026-04-27T09:34:36Z</time></trkpt><trkpt lat="40.84049953994423" lon="19.885117946289302"><ele>94.0</ele><time>2026-04-27T09:34:37Z</time></trkpt><trkpt lat="40.84035703470716" lon="19.88508869451811"><ele>94.0</ele><time>2026-04-27T09:34:38Z</time></trkpt><trkpt lat="40.84021990852009" lon="19.8850301095015"><ele>94.0</ele><time>2026-04-27T09:34:39Z</time></trkpt><trkpt lat="40.840094368537315" lon="19.884978458444095"><ele>94.0</ele><time>2026-04-27T09:34:40Z</time></trkpt><trkpt lat="40.83997630184418" lon="19.884894142864447"><ele>94.0</ele><time>2026-04-27T09:34:41Z</time></trkpt><trkpt lat="40.839848799968685" lon="19.88481081017598"><ele>93.75</ele><time>2026-04-27T09:34:42Z</time></trkpt><trkpt lat="40.83972220250329" lon="19.884758940037155"><ele>93.5</ele><time>2026-04-27T09:34:43Z</time></trkpt><trkpt lat="40.83960278532262" lon="19.88469942126446"><ele>93.25</ele><time>2026-04-27T09:34:44Z</time></trkpt><trkpt lat="40.83948189454105" lon="19.88465972630782"><ele>93.0</ele><time>2026-04-27T09:34:45Z</time></trkpt><trkpt lat="40.83935100460801" lon="19.884630629448655"><ele>94.25</ele><time>2026-04-27T09:34:46Z</time></trkpt><trkpt lat="40.83923359171339" lon="19.884533392687608"><ele>95.5</ele><time>2026-04-27T09:34:47Z</time></trkpt><trkpt lat="40.83911511679188" lon="19.884495223161128"><ele>96.75</ele><time>2026-04-27T09:34:48Z</time></trkpt><trkpt lat="40.839009637262045" lon="19.884461240358213"><ele>98.0</ele><time>2026-04-27T09:34:49Z</time></trkpt><trkpt lat="40.83889217693688" lon="19.884473586244535"><ele>98.0</ele><time>2026-04-27T09:34:50Z</time></trkpt><trkpt lat="40.83878883324178" lon="19.88444499959797"><ele>98.0</ele><time>2026-04-27T09:34:51Z</time></trkpt><trkpt lat="40.83868075145547" lon="19.884431468696352"><ele>98.0</ele><time>2026-04-27T09:34:52Z</time></trkpt><trkpt lat="40.838566552696705" lon="19.884438122834034"><ele>98.0</ele><time>2026-04-27T09:34:53Z</time></trkpt><trkpt lat="40.83845389259161" lon="19.884413071217743"><ele>98.0</ele><time>2026-04-27T09:34:54Z</time></trkpt><trkpt lat="40.838361378800634" lon="19.884407162296732"><ele>99.80000000000001</ele><time>2026-04-27T09:34:55Z</time></trkpt><trkpt lat="40.83824684515113" lon="19.884394649823616"><ele>101.6</ele><time>2026-04-27T09:34:56Z</time></trkpt><trkpt lat="40.838136162836534" lon="19.88439452136055"><ele>103.39999999999999</ele><time>2026-04-27T09:34:57Z</time></trkpt><trkpt lat="40.83805084951457" lon="19.884380936315292"><ele>105.19999999999999</ele><time>2026-04-27T09:34:58Z</time></trkpt><trkpt lat="40.83798143354399" lon="19.88436388543808"><ele>107.0</ele><time>2026-04-27T09:34:59Z</time></trkpt><trkpt lat="40.83790017239374" lon="19.88435085427686"><ele>107.0</ele><time>2026-04-27T09:35:00Z</time></trkpt><trkpt lat="40.8378116240068" lon="19.884349618481817"><ele>106.99999999999999</ele><time>2026-04-27T09:35:01Z</time></trkpt><trkpt lat="40.83772543885866" lon="19.8843168375928"><ele>106.99999999999999</ele><time>2026-04-27T09:35:02Z</time></trkpt><trkpt lat="40.83762427788686" lon="19.884299110132385"><ele>107.0</ele><time>2026-04-27T09:35:03Z</time></trkpt><trkpt lat="40.83752446731988" lon="19.884237617726814"><ele>107.0</ele><time>2026-04-27T09:35:04Z</time></trkpt><trkpt lat="40.83739914752499" lon="19.88418383948803"><ele>104.75</ele><time>2026-04-27T09:35:05Z</time></trkpt><trkpt lat="40.837266239482446" lon="19.884126692762475"><ele>102.5</ele><time>2026-04-27T09:35:06Z</time></trkpt><trkpt lat="40.837138681881164" lon="19.884065931055503"><ele>100.25</ele><time>2026-04-27T09:35:07Z</time></trkpt><trkpt lat="40.83702927576272" lon="19.884013548584498"><ele>98.0</ele><time>2026-04-27T09:35:08Z</time></trkpt><trkpt lat="40.83693859150881" lon="19.88397012987056"><ele>97.99999999999999</ele><time>2026-04-27T09:35:09Z</time></trkpt><trkpt lat="40.83684982251941" lon="19.883927628233767"><ele>98.0</ele><time>2026-04-27T09:35:10Z</time></trkpt><trkpt lat="40.83676655155409" lon="19.883880260607413"><ele>98.0</ele><time>2026-04-27T09:35:11Z</time></trkpt><trkpt lat="40.83668736626978" lon="19.883830144736184"><ele>98.0</ele><time>2026-04-27T09:35:12Z</time></trkpt><trkpt lat="40.836606662627354" lon="19.88380016008015"><ele>97.99999999999999</ele><time>2026-04-27T09:35:13Z</time></trkpt><trkpt lat="40.836521814994" lon="19.88379282268237"><ele>98.0</ele><time>2026-04-27T09:35:14Z</time></trkpt><trkpt lat="40.83644244219033" lon="19.883794500395187"><ele>96.33333333333333</ele><time>2026-04-27T09:35:15Z</time></trkpt><trkpt lat="40.83637855032483" lon="19.883808145623828"><ele>94.66666666666666</ele><time>2026-04-27T09:35:16Z</time></trkpt><trkpt lat="40.83631552153913" lon="19.8838494082669"><ele>93.0</ele><time>2026-04-27T09:35:17Z</time></trkpt><trkpt lat="40.836239158550214" lon="19.883901205866728"><ele>91.33333333333333</ele><time>2026-04-27T09:35:18Z</time></trkpt><trkpt lat="40.83614958854093" lon="19.883945392503087"><ele>89.66666666666666</ele><time>2026-04-27T09:35:19Z</time></trkpt><trkpt lat="40.83605523300781" lon="19.883973126076626"><ele>88.0</ele><time>2026-04-27T09:35:20Z</time></trkpt><trkpt lat="40.835979894701026" lon="19.88398654962142"><ele>87.16666666666666</ele><time>2026-04-27T09:35:21Z</time></trkpt><trkpt lat="40.83590764222331" lon="19.883992829709797"><ele>86.33333333333333</ele><time>2026-04-27T09:35:22Z</time></trkpt><trkpt lat="40.835792821416064" lon="19.88395991917385"><ele>85.5</ele><time>2026-04-27T09:35:24Z</time></trkpt><trkpt lat="40.83572710669105" lon="19.88384995313508"><ele>84.66666666666667</ele><time>2026-04-27T09:35:26Z</time></trkpt><trkpt lat="40.835668151741785" lon="19.88380148135146"><ele>83.83333333333334</ele><time>2026-04-27T09:35:28Z</time></trkpt><trkpt lat="40.835602019090416" lon="19.88374235076687"><ele>83.0</ele><time>2026-04-27T09:35:31Z</time></trkpt><trkpt lat="40.83553845606506" lon="19.883704302112154"><ele>83.0</ele><time>2026-04-27T09:35:53Z</time></trkpt><trkpt lat="40.83546734481423" lon="19.883721293141203"><ele>83.0</ele><time>2026-04-27T09:35:55Z</time></trkpt><trkpt lat="40.83537998575503" lon="19.883744531777914"><ele>83.0</ele><time>2026-04-27T09:35:58Z</time></trkpt><trkpt lat="40.83536549874664" lon="19.88390491416204"><ele>83.0</ele><time>2026-04-27T09:35:59Z</time></trkpt><trkpt lat="40.83530836834261" lon="19.8840314335809"><ele>83.0</ele><time>2026-04-27T09:36:01Z</time></trkpt><trkpt lat="40.83525387092676" lon="19.88410989966536"><ele>83.0</ele><time>2026-04-27T09:36:13Z</time></trkpt><trkpt lat="40.835144459880055" lon="19.88401907388883"><ele>83.0</ele><time>2026-04-27T09:36:15Z</time></trkpt><trkpt lat="40.83504898893922" lon="19.883995594403512"><ele>83.0</ele><time>2026-04-27T09:36:17Z</time></trkpt><trkpt lat="40.834978257906464" lon="19.883993354108668"><ele>83.0</ele><time>2026-04-27T09:36:19Z</time></trkpt><trkpt lat="40.83490849786564" lon="19.883989203310076"><ele>83.0</ele><time>2026-04-27T09:36:21Z</time></trkpt><trkpt lat="40.83482198158421" lon="19.883984055793814"><ele>84.0</ele><time>2026-04-27T09:36:24Z</time></trkpt><trkpt lat="40.83479575470333" lon="19.88411660910592"><ele>85.0</ele><time>2026-04-27T09:38:50Z</time></trkpt><trkpt lat="40.83471742692989" lon="19.88408815083611"><ele>86.0</ele><time>2026-04-27T09:39:17Z</time></trkpt><trkpt lat="40.83470221652404" lon="19.88399688048351"><ele>87.0</ele><time>2026-04-27T09:39:20Z</time></trkpt><trkpt lat="40.83476318949384" lon="19.883962386017014"><ele>88.0</ele><time>2026-04-27T09:39:25Z</time></trkpt><trkpt lat="40.83483301381767" lon="19.88399163649313"><ele>89.0</ele><time>2026-04-27T09:39:51Z</time></trkpt><trkpt lat="40.83490677289462" lon="19.884034905001286"><ele>89.0</ele><time>2026-04-27T09:39:54Z</time></trkpt><trkpt lat="40.834975581904104" lon="19.884066656502316"><ele>89.0</ele><time>2026-04-27T09:39:56Z</time></trkpt><trkpt lat="40.835037590021926" lon="19.884040796166566"><ele>89.0</ele><time>2026-04-27T09:39:58Z</time></trkpt><trkpt lat="40.83512497250068" lon="19.88407198203209"><ele>89.0</ele><time>2026-04-27T09:40:01Z</time></trkpt><trkpt lat="40.835200276392705" lon="19.884100888484987"><ele>89.0</ele><time>2026-04-27T09:40:04Z</time></trkpt><trkpt lat="40.83526551861182" lon="19.884109754305182"><ele>89.0</ele><time>2026-04-27T09:40:07Z</time></trkpt><trkpt lat="40.83523858162921" lon="19.884305531377585"><ele>87.16666666666667</ele><time>2026-04-27T09:41:14Z</time></trkpt><trkpt lat="40.8351890219255" lon="19.884366306036544"><ele>85.33333333333334</ele><time>2026-04-27T09:41:16Z</time></trkpt><trkpt lat="40.83512359435378" lon="19.884405938500205"><ele>83.5</ele><time>2026-04-27T09:41:18Z</time></trkpt><trkpt lat="40.83507463892135" lon="19.88449129090205"><ele>81.66666666666667</ele><time>2026-04-27T09:41:20Z</time></trkpt><trkpt lat="40.83501591968698" lon="19.88456623043512"><ele>79.83333333333333</ele><time>2026-04-27T09:41:22Z</time></trkpt><trkpt lat="40.83495031251174" lon="19.884679021935725"><ele>78.0</ele><time>2026-04-27T09:41:24Z</time></trkpt><trkpt lat="40.83490519480986" lon="19.884766372652784"><ele>78.0</ele><time>2026-04-27T09:41:26Z</time></trkpt><trkpt lat="40.83487800945645" lon="19.88484402069525"><ele>78.0</ele><time>2026-04-27T09:41:28Z</time></trkpt><trkpt lat="40.834826711537154" lon="19.88493207144924"><ele>78.0</ele><time>2026-04-27T09:41:30Z</time></trkpt><trkpt lat="40.83480677601647" lon="19.88506691117764"><ele>78.0</ele><time>2026-04-27T09:41:32Z</time></trkpt><trkpt lat="40.83477380529267" lon="19.885168373222246"><ele>78.0</ele><time>2026-04-27T09:41:34Z</time></trkpt><trkpt lat="40.834761946202306" lon="19.885278874982298"><ele>78.0</ele><time>2026-04-27T09:41:36Z</time></trkpt><trkpt lat="40.83475244922704" lon="19.885379606307207"><ele>76.5</ele><time>2026-04-27T09:41:38Z</time></trkpt><trkpt lat="40.834736664895786" lon="19.88547151605053"><ele>75.0</ele><time>2026-04-27T09:41:40Z</time></trkpt><trkpt lat="40.834737807118415" lon="19.885565635306065"><ele>73.5</ele><time>2026-04-27T09:41:42Z</time></trkpt><trkpt lat="40.834749663753065" lon="19.885687733543392"><ele>72.0</ele><time>2026-04-27T09:41:44Z</time></trkpt><trkpt lat="40.83477738481304" lon="19.885838617232995"><ele>70.5</ele><time>2026-04-27T09:41:46Z</time></trkpt><trkpt lat="40.83479408534796" lon="19.885930283137565"><ele>69.0</ele><time>2026-04-27T09:41:47Z</time></trkpt><trkpt lat="40.83480057250579" lon="19.886013684276637"><ele>68.2</ele><time>2026-04-27T09:41:48Z</time></trkpt><trkpt lat="40.83479314190309" lon="19.886115739543076"><ele>67.4</ele><time>2026-04-27T09:41:49Z</time></trkpt><trkpt lat="40.83478955570462" lon="19.886218163792044"><ele>66.6</ele><time>2026-04-27T09:41:50Z</time></trkpt><trkpt lat="40.83479236584315" lon="19.886304243503115"><ele>65.8</ele><time>2026-04-27T09:41:51Z</time></trkpt><trkpt lat="40.83483424662507" lon="19.8864353851326"><ele>65.0</ele><time>2026-04-27T09:41:53Z</time></trkpt><trkpt lat="40.83488842800998" lon="19.88658153678916"><ele>65.0</ele><time>2026-04-27T09:41:55Z</time></trkpt><trkpt lat="40.83491066101617" lon="19.88666103938216"><ele>65.0</ele><time>2026-04-27T09:41:56Z</time></trkpt><trkpt lat="40.83493798904042" lon="19.886742239407734"><ele>65.0</ele><time>2026-04-27T09:41:57Z</time></trkpt><trkpt lat="40.83496397037053" lon="19.886831386399678"><ele>65.0</ele><time>2026-04-27T09:41:58Z</time></trkpt><trkpt lat="40.83498650799887" lon="19.88692024992438"><ele>65.0</ele><time>2026-04-27T09:41:59Z</time></trkpt><trkpt lat="40.835007532833885" lon="19.88699954430702"><ele>65.0</ele><time>2026-04-27T09:42:00Z</time></trkpt><trkpt lat="40.835054306800025" lon="19.88715130326458"><ele>65.0</ele><time>2026-04-27T09:42:02Z</time></trkpt><trkpt lat="40.835079665804145" lon="19.887233227407883"><ele>65.0</ele><time>2026-04-27T09:42:03Z</time></trkpt><trkpt lat="40.835101434863276" lon="19.88731668832994"><ele>65.0</ele><time>2026-04-27T09:42:04Z</time></trkpt><trkpt lat="40.83515134083627" lon="19.88743938677466"><ele>65.0</ele><time>2026-04-27T09:42:06Z</time></trkpt><trkpt lat="40.83520406112132" lon="19.887587386249717"><ele>65.0</ele><time>2026-04-27T09:42:08Z</time></trkpt><trkpt lat="40.83525646379848" lon="19.887722271681096"><ele>62.28571428571429</ele><time>2026-04-27T09:42:10Z</time></trkpt><trkpt lat="40.83527748381084" lon="19.887819057462824"><ele>59.57142857142857</ele><time>2026-04-27T09:42:11Z</time></trkpt><trkpt lat="40.83528622381437" lon="19.887909064222256"><ele>56.85714285714286</ele><time>2026-04-27T09:42:12Z</time></trkpt><trkpt lat="40.83529438475003" lon="19.887992730990547"><ele>54.142857142857146</ele><time>2026-04-27T09:42:13Z</time></trkpt><trkpt lat="40.835310115477405" lon="19.888076562924276"><ele>51.42857142857143</ele><time>2026-04-27T09:42:14Z</time></trkpt><trkpt lat="40.83533188233081" lon="19.88815865059499"><ele>48.714285714285715</ele><time>2026-04-27T09:42:15Z</time></trkpt><trkpt lat="40.835357877036145" lon="19.88824356156075"><ele>46.0</ele><time>2026-04-27T09:42:16Z</time></trkpt><trkpt lat="40.83538131499065" lon="19.888335071247287"><ele>45.4</ele><time>2026-04-27T09:42:17Z</time></trkpt><trkpt lat="40.83541737799922" lon="19.888495913433772"><ele>44.8</ele><time>2026-04-27T09:42:19Z</time></trkpt><trkpt lat="40.835439821341446" lon="19.888580707741546"><ele>44.199999999999996</ele><time>2026-04-27T09:42:20Z</time></trkpt><trkpt lat="40.835500518282245" lon="19.88870801998878"><ele>43.599999999999994</ele><time>2026-04-27T09:42:22Z</time></trkpt><trkpt lat="40.83557259136828" lon="19.88882376162138"><ele>43.0</ele><time>2026-04-27T09:42:24Z</time></trkpt><trkpt lat="40.83561041924629" lon="19.888904169217682"><ele>43.0</ele><time>2026-04-27T09:42:25Z</time></trkpt><trkpt lat="40.835640432597856" lon="19.88898119073027"><ele>43.0</ele><time>2026-04-27T09:42:26Z</time></trkpt><trkpt lat="40.83567180794531" lon="19.889058541009383"><ele>43.0</ele><time>2026-04-27T09:42:27Z</time></trkpt><trkpt lat="40.83573095262715" lon="19.88919369281764"><ele>43.0</ele><time>2026-04-27T09:42:29Z</time></trkpt><trkpt lat="40.83579858448139" lon="19.88933471004528"><ele>43.0</ele><time>2026-04-27T09:42:31Z</time></trkpt><trkpt lat="40.83583932410561" lon="19.889415436100776"><ele>43.333333333333336</ele><time>2026-04-27T09:42:32Z</time></trkpt><trkpt lat="40.835902983097306" lon="19.88950259500007"><ele>43.66666666666667</ele><time>2026-04-27T09:42:33Z</time></trkpt><trkpt lat="40.835953539107905" lon="19.88960522461154"><ele>44.0</ele><time>2026-04-27T09:42:34Z</time></trkpt><trkpt lat="40.836018512002894" lon="19.889680782629597"><ele>44.333333333333336</ele><time>2026-04-27T09:42:35Z</time></trkpt><trkpt lat="40.83607386891517" lon="19.889739975776994"><ele>44.666666666666664</ele><time>2026-04-27T09:42:36Z</time></trkpt><trkpt lat="40.83612284395435" lon="19.88982358481981"><ele>45.0</ele><time>2026-04-27T09:42:37Z</time></trkpt><trkpt lat="40.836172977530936" lon="19.889917807482437"><ele>43.6</ele><time>2026-04-27T09:42:38Z</time></trkpt><trkpt lat="40.836206344876345" lon="19.890015526650934"><ele>42.2</ele><time>2026-04-27T09:42:39Z</time></trkpt><trkpt lat="40.83620676070456" lon="19.89012072139833"><ele>40.8</ele><time>2026-04-27T09:42:40Z</time></trkpt><trkpt lat="40.836194869897746" lon="19.89021313782756"><ele>39.4</ele><time>2026-04-27T09:42:41Z</time></trkpt><trkpt lat="40.83618199482423" lon="19.890339596582557"><ele>38.0</ele><time>2026-04-27T09:42:42Z</time></trkpt><trkpt lat="40.83617218766664" lon="19.890509863839235"><ele>37.6</ele><time>2026-04-27T09:42:43Z</time></trkpt><trkpt lat="40.83614422345515" lon="19.890684571848062"><ele>37.199999999999996</ele><time>2026-04-27T09:42:44Z</time></trkpt><trkpt lat="40.836133974259006" lon="19.890822560066546"><ele>36.8</ele><time>2026-04-27T09:42:45Z</time></trkpt><trkpt lat="40.83614210065807" lon="19.89091614118072"><ele>36.4</ele><time>2026-04-27T09:42:46Z</time></trkpt><trkpt lat="40.836158351801245" lon="19.89101002089535"><ele>36.0</ele><time>2026-04-27T09:42:47Z</time></trkpt><trkpt lat="40.836150431514156" lon="19.891112112924976"><ele>35.666666666666664</ele><time>2026-04-27T09:42:48Z</time></trkpt><trkpt lat="40.836165926314095" lon="19.891215778915107"><ele>35.333333333333336</ele><time>2026-04-27T09:42:49Z</time></trkpt><trkpt lat="40.83615624838709" lon="19.891322080832257"><ele>35.0</ele><time>2026-04-27T09:42:50Z</time></trkpt><trkpt lat="40.83615013728166" lon="19.8914400202284"><ele>34.66666666666667</ele><time>2026-04-27T09:42:51Z</time></trkpt><trkpt lat="40.836144188823305" lon="19.891551768427647"><ele>34.333333333333336</ele><time>2026-04-27T09:42:52Z</time></trkpt><trkpt lat="40.83614008954446" lon="19.891657487431125"><ele>34.0</ele><time>2026-04-27T09:42:53Z</time></trkpt><trkpt lat="40.836121966913126" lon="19.891767465907357"><ele>33.833333333333336</ele><time>2026-04-27T09:42:54Z</time></trkpt><trkpt lat="40.83609599145113" lon="19.891890051850236"><ele>33.66666666666667</ele><time>2026-04-27T09:42:55Z</time></trkpt><trkpt lat="40.836074878883124" lon="19.8920037812366"><ele>33.5</ele><time>2026-04-27T09:42:56Z</time></trkpt><trkpt lat="40.83605386437536" lon="19.892103073536695"><ele>33.333333333333336</ele><time>2026-04-27T09:42:57Z</time></trkpt><trkpt lat="40.8360297701044" lon="19.892194684194493"><ele>33.166666666666664</ele><time>2026-04-27T09:42:58Z</time></trkpt><trkpt lat="40.83600521468764" lon="19.892307673772464"><ele>33.0</ele><time>2026-04-27T09:42:59Z</time></trkpt><trkpt lat="40.83598074921174" lon="19.89242004003028"><ele>33.199999999999996</ele><time>2026-04-27T09:43:00Z</time></trkpt><trkpt lat="40.83596534783915" lon="19.892551925135248"><ele>33.4</ele><time>2026-04-27T09:43:01Z</time></trkpt><trkpt lat="40.83595550578924" lon="19.892707063626936"><ele>33.599999999999994</ele><time>2026-04-27T09:43:02Z</time></trkpt><trkpt lat="40.83595169384911" lon="19.89284867569268"><ele>33.8</ele><time>2026-04-27T09:43:03Z</time></trkpt><trkpt lat="40.8359471874233" lon="19.892988985483132"><ele>34.0</ele><time>2026-04-27T09:43:04Z</time></trkpt><trkpt lat="40.83593763515934" lon="19.893131671273803"><ele>34.0</ele><time>2026-04-27T09:43:05Z</time></trkpt><trkpt lat="40.835908470069114" lon="19.893279788052666"><ele>34.0</ele><time>2026-04-27T09:43:06Z</time></trkpt><trkpt lat="40.835903697184165" lon="19.893441198908196"><ele>34.0</ele><time>2026-04-27T09:43:07Z</time></trkpt><trkpt lat="40.83586671050964" lon="19.893598194224705"><ele>34.0</ele><time>2026-04-27T09:43:08Z</time></trkpt><trkpt lat="40.83582433784827" lon="19.893780439373042"><ele>33.5</ele><time>2026-04-27T09:43:09Z</time></trkpt><trkpt lat="40.83579755234835" lon="19.89394415276769"><ele>33.0</ele><time>2026-04-27T09:43:10Z</time></trkpt><trkpt lat="40.83576279262218" lon="19.894078627654736"><ele>32.5</ele><time>2026-04-27T09:43:11Z</time></trkpt><trkpt lat="40.83572547672049" lon="19.894211449654478"><ele>32.0</ele><time>2026-04-27T09:43:12Z</time></trkpt><trkpt lat="40.8356914003891" lon="19.894365081039837"><ele>31.6</ele><time>2026-04-27T09:43:13Z</time></trkpt><trkpt lat="40.83563434418755" lon="19.894495516939326"><ele>31.200000000000003</ele><time>2026-04-27T09:43:14Z</time></trkpt><trkpt lat="40.83558637950398" lon="19.894608009100196"><ele>30.8</ele><time>2026-04-27T09:43:15Z</time></trkpt><trkpt lat="40.835548796777715" lon="19.894696111821936"><ele>30.4</ele><time>2026-04-27T09:43:16Z</time></trkpt><trkpt lat="40.83552020976871" lon="19.894772618454294"><ele>30.0</ele><time>2026-04-27T09:43:17Z</time></trkpt><trkpt lat="40.83547490378178" lon="19.894926822735233"><ele>30.0</ele><time>2026-04-27T09:43:19Z</time></trkpt><trkpt lat="40.835483373582" lon="19.895054963516976"><ele>30.0</ele><time>2026-04-27T09:43:20Z</time></trkpt><trkpt lat="40.835475105664635" lon="19.895182005152424"><ele>30.0</ele><time>2026-04-27T09:43:21Z</time></trkpt><trkpt lat="40.8354755994793" lon="19.895314076429617"><ele>30.0</ele><time>2026-04-27T09:43:22Z</time></trkpt><trkpt lat="40.83546739452566" lon="19.895440687894556"><ele>30.0</ele><time>2026-04-27T09:43:23Z</time></trkpt><trkpt lat="40.835455855835136" lon="19.89556661089034"><ele>29.6</ele><time>2026-04-27T09:43:24Z</time></trkpt><trkpt lat="40.835440051534405" lon="19.895691380314002"><ele>29.2</ele><time>2026-04-27T09:43:25Z</time></trkpt><trkpt lat="40.83541404757452" lon="19.89581049559856"><ele>28.799999999999997</ele><time>2026-04-27T09:43:26Z</time></trkpt><trkpt lat="40.83538751691579" lon="19.895932057594305"><ele>28.4</ele><time>2026-04-27T09:43:27Z</time></trkpt><trkpt lat="40.83536779757034" lon="19.896059267961455"><ele>28.0</ele><time>2026-04-27T09:43:28Z</time></trkpt><trkpt lat="40.835345353539054" lon="19.896184926788006"><ele>27.799999999999997</ele><time>2026-04-27T09:43:29Z</time></trkpt><trkpt lat="40.83532091552893" lon="19.896313990262673"><ele>27.599999999999998</ele><time>2026-04-27T09:43:30Z</time></trkpt><trkpt lat="40.83530178906782" lon="19.896439096949514"><ele>27.400000000000002</ele><time>2026-04-27T09:43:31Z</time></trkpt><trkpt lat="40.83528124166392" lon="19.89656060227233"><ele>27.200000000000003</ele><time>2026-04-27T09:43:32Z</time></trkpt><trkpt lat="40.8352612220481" lon="19.89667936718697"><ele>27.0</ele><time>2026-04-27T09:43:33Z</time></trkpt><trkpt lat="40.8352457913874" lon="19.89679150872712"><ele>27.333333333333332</ele><time>2026-04-27T09:43:34Z</time></trkpt><trkpt lat="40.835227419628545" lon="19.89690850590802"><ele>27.666666666666664</ele><time>2026-04-27T09:43:35Z</time></trkpt><trkpt lat="40.83521039721588" lon="19.897015741695892"><ele>28.0</ele><time>2026-04-27T09:43:35.999Z</time></trkpt><trkpt lat="40.835193537069415" lon="19.89711528631497"><ele>28.333333333333332</ele><time>2026-04-27T09:43:36.999Z</time></trkpt><trkpt lat="40.83517456307431" lon="19.897218227768"><ele>28.666666666666664</ele><time>2026-04-27T09:43:37.999Z</time></trkpt><trkpt lat="40.83515302256783" lon="19.89732689798739"><ele>29.0</ele><time>2026-04-27T09:43:38.999Z</time></trkpt><trkpt lat="40.83513154182116" lon="19.897434959222487"><ele>28.999999999999996</ele><time>2026-04-27T09:43:39.999Z</time></trkpt><trkpt lat="40.83511346934114" lon="19.897542922274408"><ele>29.0</ele><time>2026-04-27T09:43:40.999Z</time></trkpt><trkpt lat="40.835096178801074" lon="19.897651971044443"><ele>29.0</ele><time>2026-04-27T09:43:41.999Z</time></trkpt><trkpt lat="40.835081418605625" lon="19.897745191405797"><ele>29.0</ele><time>2026-04-27T09:43:42.999Z</time></trkpt><trkpt lat="40.835055358379286" lon="19.897907844293744"><ele>28.999999999999996</ele><time>2026-04-27T09:43:44.999Z</time></trkpt><trkpt lat="40.835041080255706" lon="19.897992113963745"><ele>29.0</ele><time>2026-04-27T09:43:45.999Z</time></trkpt><trkpt lat="40.83501903605433" lon="19.898149945992508"><ele>29.000000000000004</ele><time>2026-04-27T09:43:47.999Z</time></trkpt><trkpt lat="40.835012650917044" lon="19.898234618270983"><ele>29.0</ele><time>2026-04-27T09:43:48.999Z</time></trkpt><trkpt lat="40.834996391609636" lon="19.898325845084937"><ele>29.000000000000004</ele><time>2026-04-27T09:43:49.999Z</time></trkpt><trkpt lat="40.834974587059385" lon="19.898414820589128"><ele>29.000000000000004</ele><time>2026-04-27T09:43:50.999Z</time></trkpt><trkpt lat="40.834955182720385" lon="19.898516899459587"><ele>29.0</ele><time>2026-04-27T09:43:52Z</time></trkpt><trkpt lat="40.834936939100125" lon="19.898618973915763"><ele>29.000000000000004</ele><time>2026-04-27T09:43:53Z</time></trkpt><trkpt lat="40.83492781584121" lon="19.89871309629214"><ele>29.000000000000004</ele><time>2026-04-27T09:43:54Z</time></trkpt><trkpt lat="40.83491566060095" lon="19.898810977126306"><ele>29.166666666666664</ele><time>2026-04-27T09:43:55Z</time></trkpt><trkpt lat="40.83490045265958" lon="19.8989135668342"><ele>29.333333333333332</ele><time>2026-04-27T09:43:56Z</time></trkpt><trkpt lat="40.83488786093971" lon="19.899018083013832"><ele>29.5</ele><time>2026-04-27T09:43:57Z</time></trkpt><trkpt lat="40.83488049675533" lon="19.89910825839095"><ele>29.666666666666664</ele><time>2026-04-27T09:43:58Z</time></trkpt><trkpt lat="40.83486515530927" lon="19.89924919757856"><ele>29.833333333333332</ele><time>2026-04-27T09:44:00Z</time></trkpt><trkpt lat="40.83485024245846" lon="19.89938009125698"><ele>30.0</ele><time>2026-04-27T09:44:02Z</time></trkpt><trkpt lat="40.83484031646606" lon="19.89952606760316"><ele>30.0</ele><time>2026-04-27T09:44:04Z</time></trkpt><trkpt lat="40.83482464888533" lon="19.899685945401483"><ele>30.0</ele><time>2026-04-27T09:44:06Z</time></trkpt><trkpt lat="40.834816573135846" lon="19.899772012134726"><ele>30.0</ele><time>2026-04-27T09:44:07Z</time></trkpt><trkpt lat="40.83480838517889" lon="19.8998613874331"><ele>30.0</ele><time>2026-04-27T09:44:08Z</time></trkpt><trkpt lat="40.83480065609954" lon="19.899950947599187"><ele>30.0</ele><time>2026-04-27T09:44:09Z</time></trkpt><trkpt lat="40.83479392646806" lon="19.900040727046648"><ele>30.0</ele><time>2026-04-27T09:44:10Z</time></trkpt><trkpt lat="40.834783900767015" lon="19.90012537926079"><ele>29.5</ele><time>2026-04-27T09:44:11Z</time></trkpt><trkpt lat="40.834774289441334" lon="19.90022527856925"><ele>29.0</ele><time>2026-04-27T09:44:13Z</time></trkpt><trkpt lat="40.834755872922074" lon="19.900320353616866"><ele>28.5</ele><time>2026-04-27T09:44:16Z</time></trkpt><trkpt lat="40.83474719447162" lon="19.900414830646607"><ele>28.0</ele><time>2026-04-27T09:44:18Z</time></trkpt><trkpt lat="40.83473400008426" lon="19.90054834155584"><ele>27.5</ele><time>2026-04-27T09:44:20Z</time></trkpt><trkpt lat="40.83473651753276" lon="19.900633413774184"><ele>27.0</ele><time>2026-04-27T09:44:21Z</time></trkpt><trkpt lat="40.834716404672015" lon="19.900718951691186"><ele>27.0</ele><time>2026-04-27T09:44:22Z</time></trkpt><trkpt lat="40.83470722482426" lon="19.900812213657115"><ele>27.0</ele><time>2026-04-27T09:44:23Z</time></trkpt><trkpt lat="40.83469659455987" lon="19.900909167440318"><ele>27.0</ele><time>2026-04-27T09:44:24Z</time></trkpt><trkpt lat="40.834684703711176" lon="19.901011217389584"><ele>27.0</ele><time>2026-04-27T09:44:25Z</time></trkpt><trkpt lat="40.834669881343885" lon="19.901124356752078"><ele>27.0</ele><time>2026-04-27T09:44:26Z</time></trkpt><trkpt lat="40.834658766216286" lon="19.901239227388825"><ele>27.0</ele><time>2026-04-27T09:44:27Z</time></trkpt><trkpt lat="40.83465114686142" lon="19.901353593770303"><ele>27.0</ele><time>2026-04-27T09:44:28Z</time></trkpt><trkpt lat="40.83464165953838" lon="19.901458620268514"><ele>27.0</ele><time>2026-04-27T09:44:29Z</time></trkpt><trkpt lat="40.83463553998479" lon="19.901558909298114"><ele>27.0</ele><time>2026-04-27T09:44:30Z</time></trkpt><trkpt lat="40.83463156172009" lon="19.901675248235787"><ele>27.0</ele><time>2026-04-27T09:44:31Z</time></trkpt><trkpt lat="40.83461649924935" lon="19.9017942588333"><ele>27.0</ele><time>2026-04-27T09:44:32Z</time></trkpt><trkpt lat="40.83458538799592" lon="19.901899713925168"><ele>27.0</ele><time>2026-04-27T09:44:33Z</time></trkpt><trkpt lat="40.834567352668024" lon="19.90200031379884"><ele>27.166666666666668</ele><time>2026-04-27T09:44:34Z</time></trkpt><trkpt lat="40.83457727629839" lon="19.902106049812982"><ele>27.333333333333336</ele><time>2026-04-27T09:44:35Z</time></trkpt><trkpt lat="40.83457383703745" lon="19.90219602368278"><ele>27.5</ele><time>2026-04-27T09:44:36Z</time></trkpt><trkpt lat="40.83455557503087" lon="19.902278438473175"><ele>27.666666666666668</ele><time>2026-04-27T09:44:37Z</time></trkpt><trkpt lat="40.83454113431995" lon="19.902425933064517"><ele>27.833333333333336</ele><time>2026-04-27T09:44:39Z</time></trkpt><trkpt lat="40.83454193756383" lon="19.902524342144734"><ele>28.0</ele><time>2026-04-27T09:44:41Z</time></trkpt><trkpt lat="40.83450108090276" lon="19.902605812390462"><ele>28.0</ele><time>2026-04-27T09:44:44Z</time></trkpt><trkpt lat="40.83439790177231" lon="19.902536009744765"><ele>27.999999999999996</ele><time>2026-04-27T09:44:45Z</time></trkpt><trkpt lat="40.83426966886556" lon="19.902544959770754"><ele>27.999999999999996</ele><time>2026-04-27T09:44:47Z</time></trkpt><trkpt lat="40.83419314009446" lon="19.902549223746107"><ele>28.0</ele><time>2026-04-27T09:44:48Z</time></trkpt><trkpt lat="40.83409503113427" lon="19.902554690111373"><ele>28.0</ele><time>2026-04-27T09:44:49Z</time></trkpt><trkpt lat="40.83398630756251" lon="19.90255120661549"><ele>28.2</ele><time>2026-04-27T09:44:50Z</time></trkpt><trkpt lat="40.83387824310282" lon="19.902551647770448"><ele>28.4</ele><time>2026-04-27T09:44:51Z</time></trkpt><trkpt lat="40.83379703640444" lon="19.902572801374948"><ele>28.599999999999998</ele><time>2026-04-27T09:44:52Z</time></trkpt><trkpt lat="40.833715217329974" lon="19.902516488452722"><ele>28.799999999999997</ele><time>2026-04-27T09:44:53Z</time></trkpt><trkpt lat="40.833611329473705" lon="19.902475180157623"><ele>29.0</ele><time>2026-04-27T09:44:55Z</time></trkpt><trkpt lat="40.83357270687927" lon="19.9026179288756"><ele>29.0</ele><time>2026-04-27T09:44:57Z</time></trkpt><trkpt lat="40.83354673840389" lon="19.90270391308638"><ele>29.0</ele><time>2026-04-27T09:44:58Z</time></trkpt><trkpt lat="40.833480458465594" lon="19.902774637958423"><ele>29.0</ele><time>2026-04-27T09:44:59Z</time></trkpt><trkpt lat="40.83339223766289" lon="19.902849234706505"><ele>29.0</ele><time>2026-04-27T09:45:00Z</time></trkpt><trkpt lat="40.83330090620548" lon="19.902938227215714"><ele>29.0</ele><time>2026-04-27T09:45:01Z</time></trkpt><trkpt lat="40.83319826102354" lon="19.903040307658117"><ele>28.75</ele><time>2026-04-27T09:45:02Z</time></trkpt><trkpt lat="40.833090307872574" lon="19.903151788758535"><ele>28.5</ele><time>2026-04-27T09:45:03Z</time></trkpt><trkpt lat="40.83297398997727" lon="19.90326841472628"><ele>28.25</ele><time>2026-04-27T09:45:04Z</time></trkpt><trkpt lat="40.83284815878883" lon="19.903384809499386"><ele>28.0</ele><time>2026-04-27T09:45:05Z</time></trkpt><trkpt lat="40.83271166178154" lon="19.903513841047623"><ele>28.0</ele><time>2026-04-27T09:45:06Z</time></trkpt><trkpt lat="40.83257317054194" lon="19.903658140576606"><ele>28.0</ele><time>2026-04-27T09:45:07Z</time></trkpt><trkpt lat="40.8324283468373" lon="19.903806360006897"><ele>28.0</ele><time>2026-04-27T09:45:08Z</time></trkpt><trkpt lat="40.83228160777501" lon="19.903949958999316"><ele>28.0</ele><time>2026-04-27T09:45:09Z</time></trkpt><trkpt lat="40.832132351973996" lon="19.904097192765537"><ele>28.0</ele><time>2026-04-27T09:45:10Z</time></trkpt><trkpt lat="40.83198186492122" lon="19.90424712700904"><ele>28.0</ele><time>2026-04-27T09:45:11Z</time></trkpt><trkpt lat="40.831831835013844" lon="19.904397553411737"><ele>27.666666666666668</ele><time>2026-04-27T09:45:12Z</time></trkpt><trkpt lat="40.831694164990225" lon="19.904534792228002"><ele>27.333333333333336</ele><time>2026-04-27T09:45:13Z</time></trkpt><trkpt lat="40.8315702635856" lon="19.904661502429736"><ele>27.0</ele><time>2026-04-27T09:45:14Z</time></trkpt><trkpt lat="40.831456384986524" lon="19.90478092631417"><ele>27.0</ele><time>2026-04-27T09:45:15Z</time></trkpt><trkpt lat="40.83134126914194" lon="19.904905110551752"><ele>27.0</ele><time>2026-04-27T09:45:16Z</time></trkpt><trkpt lat="40.831225661369544" lon="19.90503521866113"><ele>27.0</ele><time>2026-04-27T09:45:17Z</time></trkpt><trkpt lat="40.83111781109814" lon="19.905180347989937"><ele>27.0</ele><time>2026-04-27T09:45:18Z</time></trkpt><trkpt lat="40.831023880046715" lon="19.90535102975639"><ele>27.0</ele><time>2026-04-27T09:45:19Z</time></trkpt><trkpt lat="40.830945047216396" lon="19.905539716388233"><ele>27.0</ele><time>2026-04-27T09:45:20Z</time></trkpt><trkpt lat="40.830878154740496" lon="19.90573231803088"><ele>27.0</ele><time>2026-04-27T09:45:21Z</time></trkpt><trkpt lat="40.83082483068984" lon="19.905907155510004"><ele>27.0</ele><time>2026-04-27T09:45:22Z</time></trkpt><trkpt lat="40.83078193564066" lon="19.906070885895307"><ele>27.0</ele><time>2026-04-27T09:45:23Z</time></trkpt><trkpt lat="40.830742631058584" lon="19.90624302963649"><ele>27.0</ele><time>2026-04-27T09:45:24Z</time></trkpt><trkpt lat="40.83070432883128" lon="19.90642765887886"><ele>27.333333333333336</ele><time>2026-04-27T09:45:25Z</time></trkpt><trkpt lat="40.830665680115295" lon="19.906620504257404"><ele>27.666666666666668</ele><time>2026-04-27T09:45:26Z</time></trkpt><trkpt lat="40.83062767999911" lon="19.906824513363485"><ele>28.0</ele><time>2026-04-27T09:45:27Z</time></trkpt><trkpt lat="40.830595597897336" lon="19.907047619830717"><ele>27.333333333333336</ele><time>2026-04-27T09:45:28Z</time></trkpt><trkpt lat="40.830541817883834" lon="19.907297809643104"><ele>26.666666666666664</ele><time>2026-04-27T09:45:29Z</time></trkpt><trkpt lat="40.83049727449392" lon="19.907586419148497"><ele>26.0</ele><time>2026-04-27T09:45:30Z</time></trkpt><trkpt lat="40.83046423930085" lon="19.907885728340215"><ele>26.0</ele><time>2026-04-27T09:45:31Z</time></trkpt><trkpt lat="40.83040566761486" lon="19.908169774915066"><ele>26.0</ele><time>2026-04-27T09:45:32Z</time></trkpt><trkpt lat="40.83034584553829" lon="19.908421839560162"><ele>26.0</ele><time>2026-04-27T09:45:33Z</time></trkpt><trkpt lat="40.83026694256585" lon="19.90866821323051"><ele>26.333333333333332</ele><time>2026-04-27T09:45:34Z</time></trkpt><trkpt lat="40.83015845837517" lon="19.908911321365167"><ele>26.666666666666664</ele><time>2026-04-27T09:45:35Z</time></trkpt><trkpt lat="40.830040840654235" lon="19.90913167764367"><ele>27.0</ele><time>2026-04-27T09:45:36Z</time></trkpt><trkpt lat="40.82991845704541" lon="19.909349900462747"><ele>26.0</ele><time>2026-04-27T09:45:37Z</time></trkpt><trkpt lat="40.82979376233366" lon="19.909566753762586"><ele>25.0</ele><time>2026-04-27T09:45:38Z</time></trkpt><trkpt lat="40.82966275548238" lon="19.90978079777675"><ele>24.0</ele><time>2026-04-27T09:45:39Z</time></trkpt><trkpt lat="40.82953093627621" lon="19.909996131757968"><ele>24.0</ele><time>2026-04-27T09:45:40Z</time></trkpt><trkpt lat="40.82939835628538" lon="19.910222593086136"><ele>24.0</ele><time>2026-04-27T09:45:41Z</time></trkpt><trkpt lat="40.8292627204259" lon="19.910453610478957"><ele>24.0</ele><time>2026-04-27T09:45:42Z</time></trkpt><trkpt lat="40.82912729684996" lon="19.91068504282579"><ele>24.333333333333336</ele><time>2026-04-27T09:45:43Z</time></trkpt><trkpt lat="40.82899783537332" lon="19.910909986931514"><ele>24.666666666666668</ele><time>2026-04-27T09:45:44Z</time></trkpt><trkpt lat="40.82887980890609" lon="19.91111385848789"><ele>25.0</ele><time>2026-04-27T09:45:45Z</time></trkpt><trkpt lat="40.82876648693859" lon="19.911302063406254"><ele>25.0</ele><time>2026-04-27T09:45:46Z</time></trkpt><trkpt lat="40.82865024510353" lon="19.911492607140776"><ele>25.0</ele><time>2026-04-27T09:45:47Z</time></trkpt><trkpt lat="40.82852974973522" lon="19.911691461376623"><ele>25.0</ele><time>2026-04-27T09:45:48Z</time></trkpt><trkpt lat="40.8284071484789" lon="19.911893778832525"><ele>25.666666666666668</ele><time>2026-04-27T09:45:49Z</time></trkpt><trkpt lat="40.82828265461181" lon="19.912100733685293"><ele>26.333333333333336</ele><time>2026-04-27T09:45:50Z</time></trkpt><trkpt lat="40.8281609427989" lon="19.91230655028674"><ele>27.0</ele><time>2026-04-27T09:45:51Z</time></trkpt><trkpt lat="40.828046762601254" lon="19.912505187751883"><ele>28.333333333333336</ele><time>2026-04-27T09:45:52Z</time></trkpt><trkpt lat="40.82793155461674" lon="19.9127037944422"><ele>29.666666666666668</ele><time>2026-04-27T09:45:53Z</time></trkpt><trkpt lat="40.82783402098208" lon="19.912870930465736"><ele>31.0</ele><time>2026-04-27T09:45:54Z</time></trkpt><trkpt lat="40.82775368932344" lon="19.91300883795171"><ele>31.0</ele><time>2026-04-27T09:45:55Z</time></trkpt><trkpt lat="40.827682132661" lon="19.913128016872164"><ele>31.0</ele><time>2026-04-27T09:45:56Z</time></trkpt><trkpt lat="40.82761415868483" lon="19.91322583100754"><ele>31.0</ele><time>2026-04-27T09:45:57Z</time></trkpt><trkpt lat="40.82752676592185" lon="19.913280205382506"><ele>31.0</ele><time>2026-04-27T09:45:58Z</time></trkpt><trkpt lat="40.82742687792137" lon="19.91331253863565"><ele>31.0</ele><time>2026-04-27T09:45:59Z</time></trkpt><trkpt lat="40.827288889145606" lon="19.913236397225575"><ele>31.5</ele><time>2026-04-27T09:46:00Z</time></trkpt><trkpt lat="40.82717645326235" lon="19.91309992132026"><ele>32.0</ele><time>2026-04-27T09:46:01Z</time></trkpt><trkpt lat="40.82705456499625" lon="19.913045977070713"><ele>32.5</ele><time>2026-04-27T09:46:02Z</time></trkpt><trkpt lat="40.82694888872585" lon="19.913020844675515"><ele>33.0</ele><time>2026-04-27T09:46:03Z</time></trkpt><trkpt lat="40.82683502373162" lon="19.91300333878886"><ele>32.666666666666664</ele><time>2026-04-27T09:46:04Z</time></trkpt><trkpt lat="40.82670446059464" lon="19.91298551853202"><ele>32.33333333333333</ele><time>2026-04-27T09:46:05Z</time></trkpt><trkpt lat="40.82655306770926" lon="19.912947000130544"><ele>32.0</ele><time>2026-04-27T09:46:06Z</time></trkpt><trkpt lat="40.82638747781538" lon="19.912890026858122"><ele>32.0</ele><time>2026-04-27T09:46:07Z</time></trkpt><trkpt lat="40.826214822496304" lon="19.912812158689114"><ele>32.0</ele><time>2026-04-27T09:46:08Z</time></trkpt><trkpt lat="40.82603242008679" lon="19.912736691820584"><ele>32.0</ele><time>2026-04-27T09:46:09Z</time></trkpt><trkpt lat="40.825847689955744" lon="19.912659930994433"><ele>31.333333333333332</ele><time>2026-04-27T09:46:10Z</time></trkpt><trkpt lat="40.82566019992311" lon="19.912582023337485"><ele>30.666666666666664</ele><time>2026-04-27T09:46:11Z</time></trkpt><trkpt lat="40.825464580880514" lon="19.91252165276831"><ele>30.0</ele><time>2026-04-27T09:46:12Z</time></trkpt><trkpt lat="40.82526996956082" lon="19.912433691783647"><ele>28.666666666666664</ele><time>2026-04-27T09:46:13Z</time></trkpt><trkpt lat="40.82507192436003" lon="19.912342784704425"><ele>27.333333333333332</ele><time>2026-04-27T09:46:14Z</time></trkpt><trkpt lat="40.824870253256364" lon="19.912242905678657"><ele>26.0</ele><time>2026-04-27T09:46:15Z</time></trkpt><trkpt lat="40.82466928858342" lon="19.912137788443584"><ele>26.0</ele><time>2026-04-27T09:46:16Z</time></trkpt><trkpt lat="40.824465535473614" lon="19.912019933224965"><ele>26.0</ele><time>2026-04-27T09:46:17Z</time></trkpt><trkpt lat="40.82426327950161" lon="19.911890220120934"><ele>26.0</ele><time>2026-04-27T09:46:18Z</time></trkpt><trkpt lat="40.82406653327803" lon="19.91173451755278"><ele>26.333333333333332</ele><time>2026-04-27T09:46:19Z</time></trkpt><trkpt lat="40.823876557421315" lon="19.911600096446776"><ele>26.666666666666664</ele><time>2026-04-27T09:46:20Z</time></trkpt><trkpt lat="40.8237034240406" lon="19.91147759254661"><ele>27.0</ele><time>2026-04-27T09:46:21Z</time></trkpt><trkpt lat="40.82354240923151" lon="19.911364023561557"><ele>27.666666666666664</ele><time>2026-04-27T09:46:22Z</time></trkpt><trkpt lat="40.823379787300276" lon="19.911250679913643"><ele>28.333333333333332</ele><time>2026-04-27T09:46:23Z</time></trkpt><trkpt lat="40.823216919915446" lon="19.911137060903307"><ele>29.0</ele><time>2026-04-27T09:46:24Z</time></trkpt><trkpt lat="40.82305075840774" lon="19.911022835576382"><ele>29.333333333333332</ele><time>2026-04-27T09:46:25Z</time></trkpt><trkpt lat="40.82288380676196" lon="19.910907137838816"><ele>29.666666666666664</ele><time>2026-04-27T09:46:26Z</time></trkpt><trkpt lat="40.82271315448126" lon="19.910789279800053"><ele>30.0</ele><time>2026-04-27T09:46:27Z</time></trkpt><trkpt lat="40.82254278547643" lon="19.910669752784056"><ele>29.333333333333336</ele><time>2026-04-27T09:46:28Z</time></trkpt><trkpt lat="40.822372078369874" lon="19.910548973192913"><ele>28.666666666666668</ele><time>2026-04-27T09:46:29Z</time></trkpt><trkpt lat="40.82219934987602" lon="19.910425398526595"><ele>28.0</ele><time>2026-04-27T09:46:30Z</time></trkpt><trkpt lat="40.82202432317654" lon="19.9103002156923"><ele>28.0</ele><time>2026-04-27T09:46:31Z</time></trkpt><trkpt lat="40.821845056639596" lon="19.910174481088628"><ele>28.0</ele><time>2026-04-27T09:46:32Z</time></trkpt><trkpt lat="40.82165636495187" lon="19.910054875362874"><ele>28.0</ele><time>2026-04-27T09:46:33Z</time></trkpt><trkpt lat="40.82146676338429" lon="19.90994628867087"><ele>28.0</ele><time>2026-04-27T09:46:34Z</time></trkpt><trkpt lat="40.821274796971295" lon="19.90982854540382"><ele>28.0</ele><time>2026-04-27T09:46:35Z</time></trkpt><trkpt lat="40.82107890066787" lon="19.909717868614337"><ele>28.0</ele><time>2026-04-27T09:46:36Z</time></trkpt><trkpt lat="40.82088170373514" lon="19.909604473923824"><ele>28.0</ele><time>2026-04-27T09:46:37Z</time></trkpt><trkpt lat="40.8206845035067" lon="19.90948539966577"><ele>28.0</ele><time>2026-04-27T09:46:38Z</time></trkpt><trkpt lat="40.82047811214261" lon="19.9093833896822"><ele>28.0</ele><time>2026-04-27T09:46:39Z</time></trkpt><trkpt lat="40.82027128197761" lon="19.909259726487697"><ele>27.5</ele><time>2026-04-27T09:46:40Z</time></trkpt><trkpt lat="40.82006777507696" lon="19.909137220345073"><ele>27.0</ele><time>2026-04-27T09:46:41Z</time></trkpt><trkpt lat="40.81986102144778" lon="19.909013042472893"><ele>27.0</ele><time>2026-04-27T09:46:42Z</time></trkpt><trkpt lat="40.8196502800054" lon="19.908883660098514"><ele>27.0</ele><time>2026-04-27T09:46:43Z</time></trkpt><trkpt lat="40.81944096932353" lon="19.908756890612555"><ele>27.0</ele><time>2026-04-27T09:46:44Z</time></trkpt><trkpt lat="40.81922864924882" lon="19.908633471262938"><ele>27.0</ele><time>2026-04-27T09:46:45Z</time></trkpt><trkpt lat="40.81902072278723" lon="19.908489688766608"><ele>26.5</ele><time>2026-04-27T09:46:46Z</time></trkpt><trkpt lat="40.81880744390135" lon="19.90839755216485"><ele>26.0</ele><time>2026-04-27T09:46:47Z</time></trkpt><trkpt lat="40.818605016379294" lon="19.908265286856313"><ele>26.5</ele><time>2026-04-27T09:46:48Z</time></trkpt><trkpt lat="40.818393405081764" lon="19.908158754634798"><ele>27.0</ele><time>2026-04-27T09:46:49Z</time></trkpt><trkpt lat="40.8181747868571" lon="19.90805495473391"><ele>27.0</ele><time>2026-04-27T09:46:50Z</time></trkpt><trkpt lat="40.81794825117026" lon="19.907958012396254"><ele>27.0</ele><time>2026-04-27T09:46:51Z</time></trkpt><trkpt lat="40.81771947708217" lon="19.907859949960443"><ele>30.0</ele><time>2026-04-27T09:46:52Z</time></trkpt><trkpt lat="40.817475634001696" lon="19.907762974345484"><ele>33.0</ele><time>2026-04-27T09:46:53Z</time></trkpt><trkpt lat="40.81720398436983" lon="19.907677824542436"><ele>33.0</ele><time>2026-04-27T09:46:54Z</time></trkpt><trkpt lat="40.816919488013006" lon="19.90760691541527"><ele>33.0</ele><time>2026-04-27T09:46:55Z</time></trkpt><trkpt lat="40.81662652518236" lon="19.907533166135796"><ele>29.5</ele><time>2026-04-27T09:46:56Z</time></trkpt><trkpt lat="40.81632497320427" lon="19.90744208614919"><ele>26.0</ele><time>2026-04-27T09:46:57Z</time></trkpt><trkpt lat="40.816026829105795" lon="19.907374862500756"><ele>26.5</ele><time>2026-04-27T09:46:58Z</time></trkpt><trkpt lat="40.81576187767732" lon="19.907279409717237"><ele>27.0</ele><time>2026-04-27T09:46:59Z</time></trkpt><trkpt lat="40.81552611559826" lon="19.907184663611247"><ele>27.0</ele><time>2026-04-27T09:47:00Z</time></trkpt><trkpt lat="40.815308955532906" lon="19.907086354277396"><ele>27.0</ele><time>2026-04-27T09:47:01Z</time></trkpt><trkpt lat="40.815112786938606" lon="19.90694269916108"><ele>26.0</ele><time>2026-04-27T09:47:02Z</time></trkpt><trkpt lat="40.814909136054496" lon="19.906823271861814"><ele>25.0</ele><time>2026-04-27T09:47:03Z</time></trkpt><trkpt lat="40.814705795367296" lon="19.906694966329397"><ele>24.0</ele><time>2026-04-27T09:47:04Z</time></trkpt><trkpt lat="40.81452946440668" lon="19.906497465232"><ele>24.0</ele><time>2026-04-27T09:47:05Z</time></trkpt><trkpt lat="40.81434268763455" lon="19.90630932403167"><ele>24.0</ele><time>2026-04-27T09:47:06Z</time></trkpt><trkpt lat="40.81416041749735" lon="19.90612546079357"><ele>24.5</ele><time>2026-04-27T09:47:07Z</time></trkpt><trkpt lat="40.81398252399914" lon="19.905946484911976"><ele>25.0</ele><time>2026-04-27T09:47:08Z</time></trkpt><trkpt lat="40.81379882059081" lon="19.90576289319687"><ele>25.0</ele><time>2026-04-27T09:47:09Z</time></trkpt><trkpt lat="40.81362032940318" lon="19.90555641780437"><ele>25.0</ele><time>2026-04-27T09:47:10Z</time></trkpt><trkpt lat="40.81346652753456" lon="19.905301276050427"><ele>25.5</ele><time>2026-04-27T09:47:11Z</time></trkpt><trkpt lat="40.81332636247098" lon="19.9050168931079"><ele>26.0</ele><time>2026-04-27T09:47:12Z</time></trkpt><trkpt lat="40.81319218733795" lon="19.90471798192624"><ele>26.0</ele><time>2026-04-27T09:47:13Z</time></trkpt><trkpt lat="40.81304933678302" lon="19.90442159293806"><ele>26.0</ele><time>2026-04-27T09:47:14Z</time></trkpt><trkpt lat="40.81290004209887" lon="19.90411727693547"><ele>26.0</ele><time>2026-04-27T09:47:15Z</time></trkpt><trkpt lat="40.812754160245056" lon="19.903806484786067"><ele>26.0</ele><time>2026-04-27T09:47:16Z</time></trkpt><trkpt lat="40.81260969466701" lon="19.903504990926805"><ele>26.5</ele><time>2026-04-27T09:47:17Z</time></trkpt><trkpt lat="40.81247628331133" lon="19.90323660674532"><ele>27.0</ele><time>2026-04-27T09:47:18Z</time></trkpt><trkpt lat="40.81234708076125" lon="19.90298425334817"><ele>27.0</ele><time>2026-04-27T09:47:19Z</time></trkpt><trkpt lat="40.812215544005454" lon="19.902762429241726"><ele>27.0</ele><time>2026-04-27T09:47:20Z</time></trkpt><trkpt lat="40.81207322209093" lon="19.902566559100343"><ele>27.0</ele><time>2026-04-27T09:47:21Z</time></trkpt><trkpt lat="40.811914749731606" lon="19.902385054205666"><ele>27.333333333333336</ele><time>2026-04-27T09:47:22Z</time></trkpt><trkpt lat="40.811745716463854" lon="19.902229396700406"><ele>27.666666666666668</ele><time>2026-04-27T09:47:23Z</time></trkpt><trkpt lat="40.811569116270995" lon="19.902098262882436"><ele>28.0</ele><time>2026-04-27T09:47:24Z</time></trkpt><trkpt lat="40.81139258919884" lon="19.90199629531059"><ele>28.0</ele><time>2026-04-27T09:47:25Z</time></trkpt><trkpt lat="40.8112148497468" lon="19.90192480042707"><ele>28.0</ele><time>2026-04-27T09:47:26Z</time></trkpt><trkpt lat="40.81102642432589" lon="19.90187340778388"><ele>28.0</ele><time>2026-04-27T09:47:27Z</time></trkpt><trkpt lat="40.81083054344906" lon="19.901848364123122"><ele>27.666666666666668</ele><time>2026-04-27T09:47:28Z</time></trkpt><trkpt lat="40.810629925674505" lon="19.901830367157874"><ele>27.333333333333336</ele><time>2026-04-27T09:47:29Z</time></trkpt><trkpt lat="40.81042455325443" lon="19.901811865268737"><ele>27.0</ele><time>2026-04-27T09:47:30Z</time></trkpt><trkpt lat="40.81021421315374" lon="19.90178224147478"><ele>27.0</ele><time>2026-04-27T09:47:31Z</time></trkpt><trkpt lat="40.810004289753" lon="19.90173329841868"><ele>27.0</ele><time>2026-04-27T09:47:32Z</time></trkpt><trkpt lat="40.80979932348942" lon="19.90165621495723"><ele>27.0</ele><time>2026-04-27T09:47:33Z</time></trkpt><trkpt lat="40.809601175994246" lon="19.901552883143594"><ele>27.0</ele><time>2026-04-27T09:47:34Z</time></trkpt><trkpt lat="40.80940946974375" lon="19.901417326749364"><ele>27.0</ele><time>2026-04-27T09:47:35Z</time></trkpt><trkpt lat="40.80922214353172" lon="19.901271915620516"><ele>27.0</ele><time>2026-04-27T09:47:36Z</time></trkpt><trkpt lat="40.80902610218005" lon="19.901113165354253"><ele>26.0</ele><time>2026-04-27T09:47:37Z</time></trkpt><trkpt lat="40.80882612195974" lon="19.900955661986732"><ele>25.0</ele><time>2026-04-27T09:47:38Z</time></trkpt><trkpt lat="40.80862034228286" lon="19.900794508107445"><ele>25.333333333333336</ele><time>2026-04-27T09:47:39Z</time></trkpt><trkpt lat="40.80843099243344" lon="19.900642038194032"><ele>25.666666666666664</ele><time>2026-04-27T09:47:40Z</time></trkpt><trkpt lat="40.80825753788189" lon="19.9005027191212"><ele>26.0</ele><time>2026-04-27T09:47:41Z</time></trkpt><trkpt lat="40.808096046514" lon="19.900378083616932"><ele>26.0</ele><time>2026-04-27T09:47:42Z</time></trkpt><trkpt lat="40.80794078606953" lon="19.900265988513784"><ele>26.0</ele><time>2026-04-27T09:47:43Z</time></trkpt><trkpt lat="40.807778722868555" lon="19.90017322403009"><ele>26.0</ele><time>2026-04-27T09:47:44Z</time></trkpt><trkpt lat="40.807612544958864" lon="19.90009788245798"><ele>26.75</ele><time>2026-04-27T09:47:45Z</time></trkpt><trkpt lat="40.80746257631913" lon="19.90005357459646"><ele>27.5</ele><time>2026-04-27T09:47:46.001Z</time></trkpt><trkpt lat="40.807321427657804" lon="19.900036702293164"><ele>28.25</ele><time>2026-04-27T09:47:47.001Z</time></trkpt><trkpt lat="40.807190910018925" lon="19.900055438917107"><ele>29.0</ele><time>2026-04-27T09:47:48Z</time></trkpt><trkpt lat="40.80706837558716" lon="19.900100890215086"><ele>29.25</ele><time>2026-04-27T09:47:49Z</time></trkpt><trkpt lat="40.80695190672391" lon="19.900175882800305"><ele>29.5</ele><time>2026-04-27T09:47:50Z</time></trkpt><trkpt lat="40.80683286828534" lon="19.900286158473236"><ele>29.75</ele><time>2026-04-27T09:47:51Z</time></trkpt><trkpt lat="40.806697337100026" lon="19.900407980927103"><ele>30.0</ele><time>2026-04-27T09:47:52Z</time></trkpt><trkpt lat="40.80654734068912" lon="19.900531628623526"><ele>30.333333333333336</ele><time>2026-04-27T09:47:53Z</time></trkpt><trkpt lat="40.80638833243536" lon="19.90066451651139"><ele>30.666666666666668</ele><time>2026-04-27T09:47:54Z</time></trkpt><trkpt lat="40.80622631935445" lon="19.900803758251946"><ele>31.0</ele><time>2026-04-27T09:47:55Z</time></trkpt><trkpt lat="40.806054919413" lon="19.9009437868"><ele>32.66666666666667</ele><time>2026-04-27T09:47:56Z</time></trkpt><trkpt lat="40.805891040211776" lon="19.901054349602347"><ele>34.333333333333336</ele><time>2026-04-27T09:47:57Z</time></trkpt><trkpt lat="40.80571578990855" lon="19.901144805714807"><ele>36.0</ele><time>2026-04-27T09:47:58Z</time></trkpt><trkpt lat="40.80553000960574" lon="19.901212934202164"><ele>36.0</ele><time>2026-04-27T09:47:59Z</time></trkpt><trkpt lat="40.80533322762333" lon="19.90127608414789"><ele>36.0</ele><time>2026-04-27T09:48:00Z</time></trkpt><trkpt lat="40.8051290463387" lon="19.90135185538333"><ele>36.0</ele><time>2026-04-27T09:48:01Z</time></trkpt><trkpt lat="40.80493141092986" lon="19.901433575977098"><ele>34.333333333333336</ele><time>2026-04-27T09:48:02Z</time></trkpt><trkpt lat="40.804752109792794" lon="19.901512968622583"><ele>32.66666666666667</ele><time>2026-04-27T09:48:03Z</time></trkpt><trkpt lat="40.80458641241322" lon="19.90159256781587"><ele>31.0</ele><time>2026-04-27T09:48:04Z</time></trkpt><trkpt lat="40.80442381686354" lon="19.90168648694808"><ele>31.333333333333336</ele><time>2026-04-27T09:48:05Z</time></trkpt><trkpt lat="40.804261069831924" lon="19.901801242545172"><ele>31.666666666666664</ele><time>2026-04-27T09:48:06Z</time></trkpt><trkpt lat="40.80409512760984" lon="19.90194017161222"><ele>32.0</ele><time>2026-04-27T09:48:07Z</time></trkpt><trkpt lat="40.803935591879736" lon="19.902101306112"><ele>32.0</ele><time>2026-04-27T09:48:08Z</time></trkpt><trkpt lat="40.803802477871145" lon="19.90226383465387"><ele>32.0</ele><time>2026-04-27T09:48:09Z</time></trkpt><trkpt lat="40.803690894859024" lon="19.902431623365985"><ele>32.0</ele><time>2026-04-27T09:48:10Z</time></trkpt><trkpt lat="40.80359707274776" lon="19.902606858595988"><ele>31.333333333333332</ele><time>2026-04-27T09:48:11Z</time></trkpt><trkpt lat="40.80351694055208" lon="19.902796786229747"><ele>30.666666666666664</ele><time>2026-04-27T09:48:12Z</time></trkpt><trkpt lat="40.803450758568864" lon="19.903010948459414"><ele>30.0</ele><time>2026-04-27T09:48:13Z</time></trkpt><trkpt lat="40.803404044648765" lon="19.903233414049467"><ele>30.333333333333336</ele><time>2026-04-27T09:48:14Z</time></trkpt><trkpt lat="40.80337622593791" lon="19.903447959805895"><ele>30.666666666666668</ele><time>2026-04-27T09:48:15Z</time></trkpt><trkpt lat="40.80333375195782" lon="19.903641778191982"><ele>31.0</ele><time>2026-04-27T09:48:16Z</time></trkpt><trkpt lat="40.80326207143045" lon="19.90382354595191"><ele>31.0</ele><time>2026-04-27T09:48:17Z</time></trkpt><trkpt lat="40.803171023126374" lon="19.903959969555295"><ele>31.0</ele><time>2026-04-27T09:48:18Z</time></trkpt><trkpt lat="40.80306508549255" lon="19.904038652774084"><ele>31.0</ele><time>2026-04-27T09:48:19Z</time></trkpt><trkpt lat="40.80295019816762" lon="19.90408572938557"><ele>31.0</ele><time>2026-04-27T09:48:20Z</time></trkpt><trkpt lat="40.802830296618446" lon="19.904071661513036"><ele>31.0</ele><time>2026-04-27T09:48:21Z</time></trkpt><trkpt lat="40.80269688894575" lon="19.90408182913012"><ele>31.0</ele><time>2026-04-27T09:48:22Z</time></trkpt><trkpt lat="40.80256299673822" lon="19.90412351928486"><ele>31.0</ele><time>2026-04-27T09:48:23Z</time></trkpt><trkpt lat="40.802451341985254" lon="19.904181093580583"><ele>31.0</ele><time>2026-04-27T09:48:24Z</time></trkpt><trkpt lat="40.80234701870037" lon="19.904225273943684"><ele>30.8</ele><time>2026-04-27T09:48:25Z</time></trkpt><trkpt lat="40.8022752926087" lon="19.90423086647224"><ele>30.6</ele><time>2026-04-27T09:48:26Z</time></trkpt><trkpt lat="40.80219340138176" lon="19.904179166705887"><ele>30.4</ele><time>2026-04-27T09:48:28Z</time></trkpt><trkpt lat="40.80212887908977" lon="19.904132130260354"><ele>30.2</ele><time>2026-04-27T09:48:30Z</time></trkpt><trkpt lat="40.802042885308055" lon="19.904013816150904"><ele>30.0</ele><time>2026-04-27T09:48:32Z</time></trkpt><trkpt lat="40.8019871709549" lon="19.90390980484513"><ele>30.0</ele><time>2026-04-27T09:48:33.001Z</time></trkpt><trkpt lat="40.801942770173525" lon="19.903759392835617"><ele>30.0</ele><time>2026-04-27T09:48:34.001Z</time></trkpt><trkpt lat="40.80183087245139" lon="19.903632988199455"><ele>30.0</ele><time>2026-04-27T09:48:35.001Z</time></trkpt><trkpt lat="40.801719228867185" lon="19.90349789426614"><ele>30.0</ele><time>2026-04-27T09:48:36.001Z</time></trkpt><trkpt lat="40.80158251434443" lon="19.9033618849058"><ele>29.333333333333336</ele><time>2026-04-27T09:48:37.001Z</time></trkpt><trkpt lat="40.801427502072265" lon="19.903227606403764"><ele>28.666666666666668</ele><time>2026-04-27T09:48:38.001Z</time></trkpt><trkpt lat="40.80126378121857" lon="19.90309084341639"><ele>28.0</ele><time>2026-04-27T09:48:39.001Z</time></trkpt><trkpt lat="40.80109589010238" lon="19.90293992062449"><ele>28.0</ele><time>2026-04-27T09:48:40.001Z</time></trkpt><trkpt lat="40.80092537319112" lon="19.902785513187986"><ele>28.0</ele><time>2026-04-27T09:48:41.001Z</time></trkpt><trkpt lat="40.80076915854497" lon="19.902651757675372"><ele>28.0</ele><time>2026-04-27T09:48:42.001Z</time></trkpt><trkpt lat="40.80063094047716" lon="19.90253458657681"><ele>27.666666666666668</ele><time>2026-04-27T09:48:43.001Z</time></trkpt><trkpt lat="40.800499884319194" lon="19.902421686840096"><ele>27.333333333333336</ele><time>2026-04-27T09:48:44.001Z</time></trkpt><trkpt lat="40.8003642878715" lon="19.90230596953339"><ele>27.0</ele><time>2026-04-27T09:48:45.001Z</time></trkpt><trkpt lat="40.800231173842256" lon="19.902190817373743"><ele>27.333333333333336</ele><time>2026-04-27T09:48:46.001Z</time></trkpt><trkpt lat="40.80009591432032" lon="19.902070963999257"><ele>27.666666666666668</ele><time>2026-04-27T09:48:47.001Z</time></trkpt><trkpt lat="40.799963082374695" lon="19.901955433727203"><ele>28.0</ele><time>2026-04-27T09:48:48.001Z</time></trkpt><trkpt lat="40.799826061234704" lon="19.90183367405613"><ele>28.0</ele><time>2026-04-27T09:48:49.001Z</time></trkpt><trkpt lat="40.799683889284225" lon="19.901711400154475"><ele>28.0</ele><time>2026-04-27T09:48:50.001Z</time></trkpt><trkpt lat="40.799533432389175" lon="19.901583545259555"><ele>28.0</ele><time>2026-04-27T09:48:51.001Z</time></trkpt><trkpt lat="40.799376286685444" lon="19.90144811239819"><ele>28.666666666666668</ele><time>2026-04-27T09:48:52.001Z</time></trkpt><trkpt lat="40.799214057256805" lon="19.90130655180361"><ele>29.333333333333336</ele><time>2026-04-27T09:48:53.001Z</time></trkpt><trkpt lat="40.79903063805007" lon="19.901143949878655"><ele>30.0</ele><time>2026-04-27T09:48:54.001Z</time></trkpt><trkpt lat="40.79884219471169" lon="19.90097750152419"><ele>30.0</ele><time>2026-04-27T09:48:55.001Z</time></trkpt><trkpt lat="40.79866134274359" lon="19.90079036297393"><ele>30.0</ele><time>2026-04-27T09:48:56.001Z</time></trkpt><trkpt lat="40.79847388885511" lon="19.900627179275514"><ele>30.0</ele><time>2026-04-27T09:48:57.001Z</time></trkpt><trkpt lat="40.79830009055072" lon="19.90047765129053"><ele>30.0</ele><time>2026-04-27T09:48:58.001Z</time></trkpt><trkpt lat="40.79812486461241" lon="19.900326255881897"><ele>30.0</ele><time>2026-04-27T09:48:59.001Z</time></trkpt><trkpt lat="40.79795244945894" lon="19.900175867788036"><ele>30.0</ele><time>2026-04-27T09:49:00.001Z</time></trkpt><trkpt lat="40.79777732901716" lon="19.900022877511834"><ele>30.0</ele><time>2026-04-27T09:49:01.001Z</time></trkpt><trkpt lat="40.79760463305144" lon="19.899872005266285"><ele>30.0</ele><time>2026-04-27T09:49:02.001Z</time></trkpt><trkpt lat="40.797430298139126" lon="19.899720284364257"><ele>30.0</ele><time>2026-04-27T09:49:03.001Z</time></trkpt><trkpt lat="40.7972559725815" lon="19.899568447591086"><ele>30.0</ele><time>2026-04-27T09:49:04.001Z</time></trkpt><trkpt lat="40.79707987147049" lon="19.89941522686156"><ele>30.0</ele><time>2026-04-27T09:49:05.001Z</time></trkpt><trkpt lat="40.79690109260659" lon="19.899259783579584"><ele>29.666666666666664</ele><time>2026-04-27T09:49:06.001Z</time></trkpt><trkpt lat="40.79671882129674" lon="19.89910130371202"><ele>29.333333333333332</ele><time>2026-04-27T09:49:07.001Z</time></trkpt><trkpt lat="40.79654700433996" lon="19.898951913622952"><ele>29.0</ele><time>2026-04-27T09:49:08.001Z</time></trkpt><trkpt lat="40.79638987808949" lon="19.898815296681565"><ele>29.0</ele><time>2026-04-27T09:49:09.001Z</time></trkpt><trkpt lat="40.79624319619425" lon="19.898690033680943"><ele>29.0</ele><time>2026-04-27T09:49:10.001Z</time></trkpt><trkpt lat="40.79608808027677" lon="19.89855525682572"><ele>29.0</ele><time>2026-04-27T09:49:11.001Z</time></trkpt><trkpt lat="40.795906953012135" lon="19.898400204627396"><ele>29.666666666666664</ele><time>2026-04-27T09:49:12.001Z</time></trkpt><trkpt lat="40.79571727138568" lon="19.898237317712525"><ele>30.333333333333336</ele><time>2026-04-27T09:49:13.001Z</time></trkpt><trkpt lat="40.79553515129731" lon="19.89808092343081"><ele>31.0</ele><time>2026-04-27T09:49:14.001Z</time></trkpt><trkpt lat="40.79537382597567" lon="19.89794202820068"><ele>31.0</ele><time>2026-04-27T09:49:15.001Z</time></trkpt><trkpt lat="40.79521570795722" lon="19.897832054229323"><ele>31.0</ele><time>2026-04-27T09:49:16.001Z</time></trkpt><trkpt lat="40.79506742578305" lon="19.897678299299667"><ele>31.0</ele><time>2026-04-27T09:49:17.001Z</time></trkpt><trkpt lat="40.7948922215596" lon="19.897527522290336"><ele>31.0</ele><time>2026-04-27T09:49:18.001Z</time></trkpt><trkpt lat="40.79470082062408" lon="19.89736295620057"><ele>31.0</ele><time>2026-04-27T09:49:19.001Z</time></trkpt><trkpt lat="40.79450067266879" lon="19.897190869440397"><ele>31.0</ele><time>2026-04-27T09:49:20.001Z</time></trkpt><trkpt lat="40.79428829343552" lon="19.897026690289803"><ele>31.0</ele><time>2026-04-27T09:49:21.001Z</time></trkpt><trkpt lat="40.79408880884343" lon="19.896841703626322"><ele>30.0</ele><time>2026-04-27T09:49:22.001Z</time></trkpt><trkpt lat="40.79388482981096" lon="19.89666406263196"><ele>29.0</ele><time>2026-04-27T09:49:23.001Z</time></trkpt><trkpt lat="40.793694145108816" lon="19.89650167703488"><ele>29.0</ele><time>2026-04-27T09:49:24.001Z</time></trkpt><trkpt lat="40.79351909959362" lon="19.896348741032295"><ele>29.0</ele><time>2026-04-27T09:49:25.001Z</time></trkpt><trkpt lat="40.793358222203885" lon="19.896206575817722"><ele>29.0</ele><time>2026-04-27T09:49:26.001Z</time></trkpt><trkpt lat="40.793202033221874" lon="19.89607018061684"><ele>28.666666666666664</ele><time>2026-04-27T09:49:27.001Z</time></trkpt><trkpt lat="40.79304618992524" lon="19.895929163589802"><ele>28.333333333333336</ele><time>2026-04-27T09:49:28.001Z</time></trkpt><trkpt lat="40.792879208685164" lon="19.895778808720205"><ele>28.0</ele><time>2026-04-27T09:49:29.001Z</time></trkpt><trkpt lat="40.79269766766874" lon="19.895626406412322"><ele>28.0</ele><time>2026-04-27T09:49:30.001Z</time></trkpt><trkpt lat="40.792510103729484" lon="19.89546794908617"><ele>28.0</ele><time>2026-04-27T09:49:31.001Z</time></trkpt><trkpt lat="40.79231910684097" lon="19.89529981217312"><ele>28.0</ele><time>2026-04-27T09:49:32.001Z</time></trkpt><trkpt lat="40.792124219859865" lon="19.89512862667392"><ele>28.0</ele><time>2026-04-27T09:49:33.001Z</time></trkpt><trkpt lat="40.79192562125175" lon="19.89495455737695"><ele>27.666666666666668</ele><time>2026-04-27T09:49:34.001Z</time></trkpt><trkpt lat="40.79173486102303" lon="19.8947860373533"><ele>27.333333333333336</ele><time>2026-04-27T09:49:35.001Z</time></trkpt><trkpt lat="40.79156298821493" lon="19.89463303893128"><ele>27.0</ele><time>2026-04-27T09:49:36.001Z</time></trkpt><trkpt lat="40.79140164499523" lon="19.894489856990013"><ele>27.0</ele><time>2026-04-27T09:49:37.001Z</time></trkpt><trkpt lat="40.79124893691698" lon="19.894356603437135"><ele>27.0</ele><time>2026-04-27T09:49:38.001Z</time></trkpt><trkpt lat="40.7911062433336" lon="19.89422985076666"><ele>27.0</ele><time>2026-04-27T09:49:39.001Z</time></trkpt><trkpt lat="40.790969002357656" lon="19.894105664134262"><ele>27.333333333333336</ele><time>2026-04-27T09:49:40.001Z</time></trkpt><trkpt lat="40.790830697264326" lon="19.893977355818354"><ele>27.666666666666668</ele><time>2026-04-27T09:49:41.001Z</time></trkpt><trkpt lat="40.79068840877121" lon="19.893849396917496"><ele>28.0</ele><time>2026-04-27T09:49:42.001Z</time></trkpt><trkpt lat="40.79054404532562" lon="19.893724498576233"><ele>28.0</ele><time>2026-04-27T09:49:43.001Z</time></trkpt><trkpt lat="40.79039934454584" lon="19.893598343976024"><ele>28.0</ele><time>2026-04-27T09:49:44.001Z</time></trkpt><trkpt lat="40.79025472651284" lon="19.8934703607424"><ele>28.0</ele><time>2026-04-27T09:49:45.001Z</time></trkpt><trkpt lat="40.79011183978639" lon="19.893344944078763"><ele>28.666666666666668</ele><time>2026-04-27T09:49:46.001Z</time></trkpt><trkpt lat="40.789973543799846" lon="19.893222077488872"><ele>29.333333333333336</ele><time>2026-04-27T09:49:47.001Z</time></trkpt><trkpt lat="40.789846529930344" lon="19.893108234724764"><ele>30.0</ele><time>2026-04-27T09:49:48.001Z</time></trkpt><trkpt lat="40.789727436608125" lon="19.89299530352371"><ele>30.0</ele><time>2026-04-27T09:49:49.001Z</time></trkpt><trkpt lat="40.78960287890358" lon="19.892882339560735"><ele>30.0</ele><time>2026-04-27T09:49:50.001Z</time></trkpt><trkpt lat="40.78947730470365" lon="19.89277182281752"><ele>30.0</ele><time>2026-04-27T09:49:51.001Z</time></trkpt><trkpt lat="40.7893590224535" lon="19.89266905498016"><ele>30.0</ele><time>2026-04-27T09:49:52.001Z</time></trkpt><trkpt lat="40.78925196641755" lon="19.89257102563786"><ele>29.75</ele><time>2026-04-27T09:49:53.001Z</time></trkpt><trkpt lat="40.789149306181656" lon="19.89247967921722"><ele>29.5</ele><time>2026-04-27T09:49:54.001Z</time></trkpt><trkpt lat="40.78904825195108" lon="19.892390243214255"><ele>29.25</ele><time>2026-04-27T09:49:55.001Z</time></trkpt><trkpt lat="40.788945607056384" lon="19.892299626260566"><ele>29.0</ele><time>2026-04-27T09:49:56.001Z</time></trkpt><trkpt lat="40.7888418852407" lon="19.892210559327737"><ele>29.0</ele><time>2026-04-27T09:49:57.001Z</time></trkpt><trkpt lat="40.7887391708718" lon="19.892121153145244"><ele>29.0</ele><time>2026-04-27T09:49:58.001Z</time></trkpt><trkpt lat="40.78863520648066" lon="19.89202763657838"><ele>29.0</ele><time>2026-04-27T09:49:59.001Z</time></trkpt><trkpt lat="40.78852631539484" lon="19.89193245150917"><ele>29.0</ele><time>2026-04-27T09:50:00.001Z</time></trkpt><trkpt lat="40.7884225019635" lon="19.891848158187194"><ele>29.25</ele><time>2026-04-27T09:50:01.001Z</time></trkpt><trkpt lat="40.788324177563396" lon="19.89176676547403"><ele>29.5</ele><time>2026-04-27T09:50:02.001Z</time></trkpt><trkpt lat="40.788229030452655" lon="19.891680732922218"><ele>29.75</ele><time>2026-04-27T09:50:03.001Z</time></trkpt><trkpt lat="40.788131391827726" lon="19.89159169992065"><ele>30.0</ele><time>2026-04-27T09:50:04.001Z</time></trkpt><trkpt lat="40.78802987795824" lon="19.89150383603712"><ele>30.0</ele><time>2026-04-27T09:50:05.001Z</time></trkpt><trkpt lat="40.787923653074635" lon="19.891414340835276"><ele>30.0</ele><time>2026-04-27T09:50:06.001Z</time></trkpt><trkpt lat="40.787816522614904" lon="19.89131960960886"><ele>30.0</ele><time>2026-04-27T09:50:07.001Z</time></trkpt><trkpt lat="40.78770697485649" lon="19.891222497626167"><ele>30.0</ele><time>2026-04-27T09:50:08.001Z</time></trkpt><trkpt lat="40.78759224652082" lon="19.891123590203975"><ele>30.0</ele><time>2026-04-27T09:50:09.001Z</time></trkpt><trkpt lat="40.787476998105426" lon="19.891024421206314"><ele>30.0</ele><time>2026-04-27T09:50:10.001Z</time></trkpt><trkpt lat="40.78736171963004" lon="19.890923716189423"><ele>30.0</ele><time>2026-04-27T09:50:11.001Z</time></trkpt><trkpt lat="40.787244032104496" lon="19.89081684344451"><ele>30.0</ele><time>2026-04-27T09:50:12.001Z</time></trkpt><trkpt lat="40.787122125039815" lon="19.890709411879225"><ele>30.0</ele><time>2026-04-27T09:50:13.001Z</time></trkpt><trkpt lat="40.78700103733122" lon="19.890607604501778"><ele>30.0</ele><time>2026-04-27T09:50:14.001Z</time></trkpt><trkpt lat="40.78688601016112" lon="19.890512271695467"><ele>30.0</ele><time>2026-04-27T09:50:15.001Z</time></trkpt><trkpt lat="40.78677568437672" lon="19.890415544970136"><ele>30.0</ele><time>2026-04-27T09:50:16.001Z</time></trkpt><trkpt lat="40.78666072002158" lon="19.890313484022617"><ele>30.0</ele><time>2026-04-27T09:50:17.001Z</time></trkpt><trkpt lat="40.78653700868098" lon="19.89020512907281"><ele>30.0</ele><time>2026-04-27T09:50:18.001Z</time></trkpt><trkpt lat="40.786411071914216" lon="19.8900943885103"><ele>30.0</ele><time>2026-04-27T09:50:19.001Z</time></trkpt><trkpt lat="40.78628030247653" lon="19.889975432336815"><ele>30.0</ele><time>2026-04-27T09:50:20.001Z</time></trkpt><trkpt lat="40.7861488927029" lon="19.88986211289587"><ele>30.0</ele><time>2026-04-27T09:50:21.001Z</time></trkpt><trkpt lat="40.78602028987127" lon="19.889756879189157"><ele>30.0</ele><time>2026-04-27T09:50:22.001Z</time></trkpt><trkpt lat="40.78588994522809" lon="19.889649546677234"><ele>29.666666666666664</ele><time>2026-04-27T09:50:23.001Z</time></trkpt><trkpt lat="40.78575493800334" lon="19.88953828671875"><ele>29.333333333333332</ele><time>2026-04-27T09:50:24.001Z</time></trkpt><trkpt lat="40.7856152040905" lon="19.889425039776544"><ele>29.0</ele><time>2026-04-27T09:50:25.001Z</time></trkpt><trkpt lat="40.78546425456943" lon="19.889303876957523"><ele>29.0</ele><time>2026-04-27T09:50:26.001Z</time></trkpt><trkpt lat="40.7853003854841" lon="19.889172043316115"><ele>29.0</ele><time>2026-04-27T09:50:27.001Z</time></trkpt><trkpt lat="40.78513114078838" lon="19.889024042711956"><ele>29.0</ele><time>2026-04-27T09:50:28.001Z</time></trkpt><trkpt lat="40.78495164852354" lon="19.888868121126137"><ele>29.333333333333332</ele><time>2026-04-27T09:50:29.001Z</time></trkpt><trkpt lat="40.7847664873621" lon="19.888707123532228"><ele>29.666666666666664</ele><time>2026-04-27T09:50:30.001Z</time></trkpt><trkpt lat="40.78457807650786" lon="19.88854100542089"><ele>30.0</ele><time>2026-04-27T09:50:31.001Z</time></trkpt><trkpt lat="40.78439470964492" lon="19.888377929523507"><ele>30.666666666666664</ele><time>2026-04-27T09:50:32.001Z</time></trkpt><trkpt lat="40.78421513892793" lon="19.888217035459082"><ele>31.333333333333332</ele><time>2026-04-27T09:50:33.001Z</time></trkpt><trkpt lat="40.78404056131888" lon="19.888062912513213"><ele>32.0</ele><time>2026-04-27T09:50:34.001Z</time></trkpt><trkpt lat="40.78387835868935" lon="19.887919704327572"><ele>32.0</ele><time>2026-04-27T09:50:35.001Z</time></trkpt><trkpt lat="40.78372012487359" lon="19.887781731560565"><ele>32.0</ele><time>2026-04-27T09:50:36.001Z</time></trkpt><trkpt lat="40.7835679278987" lon="19.887646210797037"><ele>32.0</ele><time>2026-04-27T09:50:37.001Z</time></trkpt><trkpt lat="40.78342167877669" lon="19.887519105067398"><ele>32.0</ele><time>2026-04-27T09:50:38.001Z</time></trkpt><trkpt lat="40.783267944736096" lon="19.88739007698841"><ele>32.0</ele><time>2026-04-27T09:50:39.001Z</time></trkpt><trkpt lat="40.78310039138169" lon="19.88725435484594"><ele>32.0</ele><time>2026-04-27T09:50:40.001Z</time></trkpt><trkpt lat="40.78291845827087" lon="19.887106999684157"><ele>32.0</ele><time>2026-04-27T09:50:41.001Z</time></trkpt><trkpt lat="40.78273693709527" lon="19.886942944083447"><ele>32.0</ele><time>2026-04-27T09:50:42.001Z</time></trkpt><trkpt lat="40.78256867718615" lon="19.886772581287"><ele>32.0</ele><time>2026-04-27T09:50:43.001Z</time></trkpt><trkpt lat="40.78240056160329" lon="19.886605856378043"><ele>31.666666666666664</ele><time>2026-04-27T09:50:44.001Z</time></trkpt><trkpt lat="40.7822404066448" lon="19.88646078269209"><ele>31.333333333333336</ele><time>2026-04-27T09:50:45.001Z</time></trkpt><trkpt lat="40.782088532149885" lon="19.886330591394657"><ele>31.0</ele><time>2026-04-27T09:50:46.001Z</time></trkpt><trkpt lat="40.781942896969234" lon="19.886205369214746"><ele>31.0</ele><time>2026-04-27T09:50:47.001Z</time></trkpt><trkpt lat="40.78179340923506" lon="19.8860739614685"><ele>31.0</ele><time>2026-04-27T09:50:48.001Z</time></trkpt><trkpt lat="40.781643842554075" lon="19.88594424102794"><ele>31.0</ele><time>2026-04-27T09:50:49.001Z</time></trkpt><trkpt lat="40.78150505296271" lon="19.885820112556164"><ele>31.25</ele><time>2026-04-27T09:50:50.001Z</time></trkpt><trkpt lat="40.78138506111455" lon="19.885706972285558"><ele>31.5</ele><time>2026-04-27T09:50:51.001Z</time></trkpt><trkpt lat="40.78127329297502" lon="19.88560761612742"><ele>31.75</ele><time>2026-04-27T09:50:52.001Z</time></trkpt><trkpt lat="40.78116571813897" lon="19.885511401458174"><ele>32.0</ele><time>2026-04-27T09:50:53.001Z</time></trkpt><trkpt lat="40.78106271531991" lon="19.885420240155934"><ele>32.0</ele><time>2026-04-27T09:50:54.001Z</time></trkpt><trkpt lat="40.78096458021144" lon="19.885333771231693"><ele>32.0</ele><time>2026-04-27T09:50:55.001Z</time></trkpt><trkpt lat="40.780860485656234" lon="19.885246848933278"><ele>32.0</ele><time>2026-04-27T09:50:56.001Z</time></trkpt><trkpt lat="40.780754661175" lon="19.88516351980379"><ele>32.0</ele><time>2026-04-27T09:50:57.001Z</time></trkpt><trkpt lat="40.78066590874573" lon="19.885063038397405"><ele>31.75</ele><time>2026-04-27T09:50:58.001Z</time></trkpt><trkpt lat="40.780563712251976" lon="19.88497466715013"><ele>31.5</ele><time>2026-04-27T09:50:59.001Z</time></trkpt><trkpt lat="40.780454347560045" lon="19.884879797575657"><ele>31.25</ele><time>2026-04-27T09:51:00.001Z</time></trkpt><trkpt lat="40.78033657804091" lon="19.884777592943358"><ele>31.0</ele><time>2026-04-27T09:51:01.001Z</time></trkpt><trkpt lat="40.78021343307576" lon="19.884671639515744"><ele>31.333333333333336</ele><time>2026-04-27T09:51:02.001Z</time></trkpt><trkpt lat="40.7800822845972" lon="19.884559564111672"><ele>31.666666666666664</ele><time>2026-04-27T09:51:03.001Z</time></trkpt><trkpt lat="40.7799506872604" lon="19.884443054842652"><ele>32.0</ele><time>2026-04-27T09:51:04.001Z</time></trkpt><trkpt lat="40.7798337780481" lon="19.88433729442813"><ele>32.0</ele><time>2026-04-27T09:51:05.001Z</time></trkpt><trkpt lat="40.77971640418239" lon="19.88423176930594"><ele>32.0</ele><time>2026-04-27T09:51:06.001Z</time></trkpt><trkpt lat="40.779594498131914" lon="19.884122022637033"><ele>32.0</ele><time>2026-04-27T09:51:07.001Z</time></trkpt><trkpt lat="40.779481089871844" lon="19.884022233995548"><ele>32.0</ele><time>2026-04-27T09:51:08.001Z</time></trkpt><trkpt lat="40.77937542396437" lon="19.88392810655305"><ele>32.5</ele><time>2026-04-27T09:51:09.001Z</time></trkpt><trkpt lat="40.779266271778724" lon="19.883830418928323"><ele>33.0</ele><time>2026-04-27T09:51:10.001Z</time></trkpt><trkpt lat="40.77915228917328" lon="19.883729320353225"><ele>33.5</ele><time>2026-04-27T09:51:11.001Z</time></trkpt><trkpt lat="40.779035145792655" lon="19.88362524879795"><ele>34.0</ele><time>2026-04-27T09:51:12.001Z</time></trkpt><trkpt lat="40.778926050037605" lon="19.883528821213964"><ele>34.0</ele><time>2026-04-27T09:51:13.001Z</time></trkpt><trkpt lat="40.778822952608444" lon="19.883435818805378"><ele>34.0</ele><time>2026-04-27T09:51:14.001Z</time></trkpt><trkpt lat="40.77871698712132" lon="19.883332334113188"><ele>34.0</ele><time>2026-04-27T09:51:15.001Z</time></trkpt><trkpt lat="40.77861634814404" lon="19.883234051234307"><ele>34.0</ele><time>2026-04-27T09:51:16.001Z</time></trkpt><trkpt lat="40.77852460978676" lon="19.883144493738577"><ele>33.66666666666667</ele><time>2026-04-27T09:51:17.001Z</time></trkpt><trkpt lat="40.77844156619787" lon="19.883063449009708"><ele>33.333333333333336</ele><time>2026-04-27T09:51:18.001Z</time></trkpt><trkpt lat="40.77837162439385" lon="19.882995242154493"><ele>33.0</ele><time>2026-04-27T09:51:19.001Z</time></trkpt><trkpt lat="40.77830029314381" lon="19.882925806920255"><ele>32.666666666666664</ele><time>2026-04-27T09:51:21.001Z</time></trkpt><trkpt lat="40.77824940099496" lon="19.882876267504724"><ele>32.33333333333333</ele><time>2026-04-27T09:51:25.001Z</time></trkpt><trkpt lat="40.77819145709215" lon="19.882792088463425"><ele>32.0</ele><time>2026-04-27T09:51:32.001Z</time></trkpt><trkpt lat="40.77815703363314" lon="19.882721167226126"><ele>32.0</ele><time>2026-04-27T09:51:33.001Z</time></trkpt><trkpt lat="40.77810135014915" lon="19.882667438646024"><ele>32.0</ele><time>2026-04-27T09:51:34.001Z</time></trkpt><trkpt lat="40.77805306036264" lon="19.882584541222275"><ele>32.0</ele><time>2026-04-27T09:51:35.001Z</time></trkpt><trkpt lat="40.777936259709115" lon="19.88260698728413"><ele>32.0</ele><time>2026-04-27T09:51:36.001Z</time></trkpt><trkpt lat="40.777844305367985" lon="19.882558840081046"><ele>32.0</ele><time>2026-04-27T09:51:37.001Z</time></trkpt><trkpt lat="40.777753961532305" lon="19.882504670656175"><ele>31.75</ele><time>2026-04-27T09:51:38.001Z</time></trkpt><trkpt lat="40.777662361443156" lon="19.882398780167822"><ele>31.5</ele><time>2026-04-27T09:51:39.001Z</time></trkpt><trkpt lat="40.77754328873193" lon="19.882294486239093"><ele>31.25</ele><time>2026-04-27T09:51:40.001Z</time></trkpt><trkpt lat="40.77738862966492" lon="19.88216401222957"><ele>31.0</ele><time>2026-04-27T09:51:41.001Z</time></trkpt><trkpt lat="40.777233236998356" lon="19.882035171790108"><ele>31.0</ele><time>2026-04-27T09:51:42.001Z</time></trkpt><trkpt lat="40.777101480181685" lon="19.88192607725125"><ele>31.0</ele><time>2026-04-27T09:51:43.001Z</time></trkpt><trkpt lat="40.77696075569552" lon="19.88180987300803"><ele>31.0</ele><time>2026-04-27T09:51:44.001Z</time></trkpt><trkpt lat="40.77681814293046" lon="19.881689488719502"><ele>31.333333333333336</ele><time>2026-04-27T09:51:45.001Z</time></trkpt><trkpt lat="40.776675769984344" lon="19.881568720445184"><ele>31.666666666666664</ele><time>2026-04-27T09:51:46.001Z</time></trkpt><trkpt lat="40.776530055897915" lon="19.881445590602155"><ele>32.0</ele><time>2026-04-27T09:51:47.001Z</time></trkpt><trkpt lat="40.77639556176235" lon="19.881354767428675"><ele>32.0</ele><time>2026-04-27T09:51:48.001Z</time></trkpt><trkpt lat="40.77626840729135" lon="19.881254828312677"><ele>32.0</ele><time>2026-04-27T09:51:49.001Z</time></trkpt><trkpt lat="40.7761421632769" lon="19.881152874263698"><ele>32.0</ele><time>2026-04-27T09:51:50.001Z</time></trkpt><trkpt lat="40.776004810990166" lon="19.88105914283364"><ele>32.0</ele><time>2026-04-27T09:51:51.001Z</time></trkpt><trkpt lat="40.77585489735937" lon="19.880972771079158"><ele>32.0</ele><time>2026-04-27T09:51:52.001Z</time></trkpt><trkpt lat="40.77569809185596" lon="19.880899818843798"><ele>32.0</ele><time>2026-04-27T09:51:53.001Z</time></trkpt><trkpt lat="40.7755360833038" lon="19.880828404836052"><ele>31.75</ele><time>2026-04-27T09:51:54.001Z</time></trkpt><trkpt lat="40.775395863574545" lon="19.880761249714514"><ele>31.5</ele><time>2026-04-27T09:51:55.001Z</time></trkpt><trkpt lat="40.775269577942865" lon="19.880695804139123"><ele>31.25</ele><time>2026-04-27T09:51:56.001Z</time></trkpt><trkpt lat="40.77513835524791" lon="19.88061227370869"><ele>31.0</ele><time>2026-04-27T09:51:57.001Z</time></trkpt><trkpt lat="40.77500625426487" lon="19.880511865990343"><ele>31.200000000000003</ele><time>2026-04-27T09:51:58.001Z</time></trkpt><trkpt lat="40.7748990794847" lon="19.8804117604334"><ele>31.400000000000002</ele><time>2026-04-27T09:51:59.001Z</time></trkpt><trkpt lat="40.774841874803556" lon="19.88029044902557"><ele>31.6</ele><time>2026-04-27T09:52:00.001Z</time></trkpt><trkpt lat="40.77476985490462" lon="19.8801832108855"><ele>31.8</ele><time>2026-04-27T09:52:02.001Z</time></trkpt><trkpt lat="40.77470611219204" lon="19.88008727932842"><ele>32.0</ele><time>2026-04-27T09:52:04.001Z</time></trkpt><trkpt lat="40.77465302994359" lon="19.88002552833588"><ele>32.0</ele><time>2026-04-27T09:52:05.001Z</time></trkpt><trkpt lat="40.77460340141064" lon="19.879936327013347"><ele>32.0</ele><time>2026-04-27T09:52:06.001Z</time></trkpt><trkpt lat="40.774543630504574" lon="19.87984058074877"><ele>32.0</ele><time>2026-04-27T09:52:07.001Z</time></trkpt><trkpt lat="40.774478198720416" lon="19.879740782997875"><ele>32.0</ele><time>2026-04-27T09:52:08.001Z</time></trkpt><trkpt lat="40.77441112141282" lon="19.87963751798983"><ele>32.0</ele><time>2026-04-27T09:52:09.001Z</time></trkpt><trkpt lat="40.77434955969837" lon="19.879550870744982"><ele>32.166666666666664</ele><time>2026-04-27T09:52:10.001Z</time></trkpt><trkpt lat="40.77429461160134" lon="19.87947508354147"><ele>32.33333333333333</ele><time>2026-04-27T09:52:11.001Z</time></trkpt><trkpt lat="40.774233696847496" lon="19.87939351660428"><ele>32.5</ele><time>2026-04-27T09:52:12.001Z</time></trkpt><trkpt lat="40.774175579030576" lon="19.87930498923393"><ele>32.666666666666664</ele><time>2026-04-27T09:52:13.001Z</time></trkpt><trkpt lat="40.77412269365198" lon="19.879212590931758"><ele>32.833333333333336</ele><time>2026-04-27T09:52:14.001Z</time></trkpt><trkpt lat="40.77406273145212" lon="19.8791270562457"><ele>33.0</ele><time>2026-04-27T09:52:15.001Z</time></trkpt><trkpt lat="40.77400117368305" lon="19.8790514149963"><ele>33.0</ele><time>2026-04-27T09:52:16.001Z</time></trkpt><trkpt lat="40.773938566217346" lon="19.87897810133242"><ele>33.0</ele><time>2026-04-27T09:52:17.001Z</time></trkpt><trkpt lat="40.77390269236821" lon="19.87889384217504"><ele>33.0</ele><time>2026-04-27T09:52:18.001Z</time></trkpt><trkpt lat="40.77385303179641" lon="19.878840352398942"><ele>33.0</ele><time>2026-04-27T09:52:19.001Z</time></trkpt><trkpt lat="40.77381356035186" lon="19.878767284602045"><ele>33.0</ele><time>2026-04-27T09:52:20.001Z</time></trkpt><trkpt lat="40.773764836704096" lon="19.878688960182718"><ele>33.0</ele><time>2026-04-27T09:52:21.001Z</time></trkpt><trkpt lat="40.773720488036275" lon="19.878605282673643"><ele>33.0</ele><time>2026-04-27T09:52:22.001Z</time></trkpt><trkpt lat="40.7736846411084" lon="19.87852094962289"><ele>33.0</ele><time>2026-04-27T09:52:23.001Z</time></trkpt><trkpt lat="40.773661179034185" lon="19.87844164698962"><ele>33.0</ele><time>2026-04-27T09:52:24.001Z</time></trkpt><trkpt lat="40.77365266668015" lon="19.87829138769736"><ele>33.0</ele><time>2026-04-27T09:52:26.001Z</time></trkpt><trkpt lat="40.77366550207819" lon="19.87820833505896"><ele>33.0</ele><time>2026-04-27T09:52:27.001Z</time></trkpt><trkpt lat="40.77371364722306" lon="19.87812640259477"><ele>33.0</ele><time>2026-04-27T09:52:28.001Z</time></trkpt><trkpt lat="40.77374837676358" lon="19.878021123602796"><ele>33.0</ele><time>2026-04-27T09:52:29.001Z</time></trkpt><trkpt lat="40.77378114772034" lon="19.877897558797162"><ele>32.25</ele><time>2026-04-27T09:52:30.001Z</time></trkpt><trkpt lat="40.77383842526273" lon="19.8777713464002"><ele>31.5</ele><time>2026-04-27T09:52:31.001Z</time></trkpt><trkpt lat="40.773894711749485" lon="19.8776268001665"><ele>30.75</ele><time>2026-04-27T09:52:32.001Z</time></trkpt><trkpt lat="40.773956636796555" lon="19.877462690042424"><ele>30.0</ele><time>2026-04-27T09:52:33.001Z</time></trkpt><trkpt lat="40.774023009872025" lon="19.877281645225143"><ele>29.666666666666664</ele><time>2026-04-27T09:52:34.001Z</time></trkpt><trkpt lat="40.774094865049136" lon="19.87708178798572"><ele>29.333333333333332</ele><time>2026-04-27T09:52:35.001Z</time></trkpt><trkpt lat="40.7741636952854" lon="19.876880404376404"><ele>29.0</ele><time>2026-04-27T09:52:36.001Z</time></trkpt><trkpt lat="40.7742314444691" lon="19.87667678875223"><ele>29.0</ele><time>2026-04-27T09:52:37.001Z</time></trkpt><trkpt lat="40.77429023724815" lon="19.87649298577637"><ele>29.0</ele><time>2026-04-27T09:52:38.001Z</time></trkpt><trkpt lat="40.77436056835302" lon="19.876327631561935"><ele>29.0</ele><time>2026-04-27T09:52:39.001Z</time></trkpt><trkpt lat="40.7744081355944" lon="19.876159056028577"><ele>29.0</ele><time>2026-04-27T09:52:40.001Z</time></trkpt><trkpt lat="40.77444180841534" lon="19.876006917703965"><ele>28.75</ele><time>2026-04-27T09:52:41.001Z</time></trkpt><trkpt lat="40.77445720523787" lon="19.87586001064293"><ele>28.5</ele><time>2026-04-27T09:52:42.001Z</time></trkpt><trkpt lat="40.774465478908255" lon="19.875724721996296"><ele>28.25</ele><time>2026-04-27T09:52:43.001Z</time></trkpt><trkpt lat="40.77441796227994" lon="19.87557804690012"><ele>28.0</ele><time>2026-04-27T09:52:44.001Z</time></trkpt><trkpt lat="40.77434728956517" lon="19.875440870247537"><ele>28.0</ele><time>2026-04-27T09:52:45.001Z</time></trkpt><trkpt lat="40.77428974305339" lon="19.875296338887253"><ele>28.0</ele><time>2026-04-27T09:52:46.001Z</time></trkpt><trkpt lat="40.77423125179723" lon="19.875143861636467"><ele>28.0</ele><time>2026-04-27T09:52:47.001Z</time></trkpt><trkpt lat="40.774172911217555" lon="19.874981509143677"><ele>28.0</ele><time>2026-04-27T09:52:48.001Z</time></trkpt><trkpt lat="40.77411672254627" lon="19.874832730306448"><ele>28.0</ele><time>2026-04-27T09:52:49.001Z</time></trkpt><trkpt lat="40.77406993825979" lon="19.874705163647548"><ele>27.999999999999996</ele><time>2026-04-27T09:52:50.001Z</time></trkpt><trkpt lat="40.77402673056952" lon="19.874579032627313"><ele>27.999999999999996</ele><time>2026-04-27T09:52:51.001Z</time></trkpt><trkpt lat="40.77398186662862" lon="19.874453105475588"><ele>28.0</ele><time>2026-04-27T09:52:52.001Z</time></trkpt><trkpt lat="40.7739405130913" lon="19.87433942144725"><ele>28.0</ele><time>2026-04-27T09:52:53.001Z</time></trkpt><trkpt lat="40.77391995548201" lon="19.874226796730895"><ele>28.0</ele><time>2026-04-27T09:52:54.001Z</time></trkpt><trkpt lat="40.773888484905775" lon="19.874107691888646"><ele>27.999999999999996</ele><time>2026-04-27T09:52:56.001Z</time></trkpt><trkpt lat="40.77385907371134" lon="19.873996148772626"><ele>27.999999999999996</ele><time>2026-04-27T09:52:58.001Z</time></trkpt><trkpt lat="40.77380424835285" lon="19.873854236103895"><ele>28.0</ele><time>2026-04-27T09:53:00.001Z</time></trkpt><trkpt lat="40.77379888431737" lon="19.873723338483487"><ele>28.0</ele><time>2026-04-27T09:53:02.001Z</time></trkpt><trkpt lat="40.77382985527855" lon="19.87361703559949"><ele>28.000000000000004</ele><time>2026-04-27T09:53:04.001Z</time></trkpt><trkpt lat="40.77391247834208" lon="19.87359740532269"><ele>28.0</ele><time>2026-04-27T09:53:05.001Z</time></trkpt><trkpt lat="40.77397673158547" lon="19.873559974436237"><ele>28.0</ele><time>2026-04-27T09:53:06.001Z</time></trkpt><trkpt lat="40.774029086222576" lon="19.87349192237801"><ele>28.0</ele><time>2026-04-27T09:53:07.001Z</time></trkpt><trkpt lat="40.77405177327683" lon="19.873406886269283"><ele>28.000000000000004</ele><time>2026-04-27T09:53:08.001Z</time></trkpt><trkpt lat="40.77402816697422" lon="19.87325071137298"><ele>28.0</ele><time>2026-04-27T09:53:10.001Z</time></trkpt><trkpt lat="40.77398243057517" lon="19.87315973671836"><ele>28.0</ele><time>2026-04-27T09:53:12.001Z</time></trkpt><trkpt lat="40.773825392541085" lon="19.873224829609107"><ele>28.0</ele><time>2026-04-27T09:53:25.001Z</time></trkpt><trkpt lat="40.77378006021713" lon="19.873395276481673"><ele>28.0</ele><time>2026-04-27T09:53:27.001Z</time></trkpt><trkpt lat="40.77375859017861" lon="19.873500991381363"><ele>28.0</ele><time>2026-04-27T09:53:28.001Z</time></trkpt><trkpt lat="40.77374199335795" lon="19.87361874831311"><ele>28.0</ele><time>2026-04-27T09:53:29.001Z</time></trkpt><trkpt lat="40.77373851532542" lon="19.87374778446361"><ele>27.999999999999996</ele><time>2026-04-27T09:53:30.001Z</time></trkpt><trkpt lat="40.77375773830595" lon="19.87387912704962"><ele>27.999999999999996</ele><time>2026-04-27T09:53:31.001Z</time></trkpt><trkpt lat="40.77379721837829" lon="19.873991333233988"><ele>28.0</ele><time>2026-04-27T09:53:32.001Z</time></trkpt><trkpt lat="40.7738351534572" lon="19.874090386346406"><ele>28.0</ele><time>2026-04-27T09:53:33.001Z</time></trkpt><trkpt lat="40.77386877035449" lon="19.874181175722022"><ele>27.799999999999997</ele><time>2026-04-27T09:53:34.001Z</time></trkpt><trkpt lat="40.773875839988" lon="19.87431754920267"><ele>27.599999999999998</ele><time>2026-04-27T09:53:36.001Z</time></trkpt><trkpt lat="40.77378616892583" lon="19.874441508563418"><ele>27.400000000000002</ele><time>2026-04-27T09:53:38.001Z</time></trkpt><trkpt lat="40.77370114725349" lon="19.874510729243532"><ele>27.200000000000003</ele><time>2026-04-27T09:53:39.001Z</time></trkpt><trkpt lat="40.77360832209966" lon="19.87459228841003"><ele>27.0</ele><time>2026-04-27T09:53:40.001Z</time></trkpt><trkpt lat="40.7735042738202" lon="19.87468096622807"><ele>27.400000000000002</ele><time>2026-04-27T09:53:41.001Z</time></trkpt><trkpt lat="40.773398335422044" lon="19.874773641068593"><ele>27.800000000000004</ele><time>2026-04-27T09:53:42.001Z</time></trkpt><trkpt lat="40.773305058799934" lon="19.874855909107183"><ele>28.2</ele><time>2026-04-27T09:53:43.001Z</time></trkpt><trkpt lat="40.77322575987519" lon="19.874920527951044"><ele>28.6</ele><time>2026-04-27T09:53:44.001Z</time></trkpt><trkpt lat="40.77314207488383" lon="19.87495518436314"><ele>29.0</ele><time>2026-04-27T09:53:45.001Z</time></trkpt><trkpt lat="40.77304320950243" lon="19.874911888920806"><ele>29.0</ele><time>2026-04-27T09:53:46.001Z</time></trkpt><trkpt lat="40.772933124626206" lon="19.874916392393715"><ele>29.0</ele><time>2026-04-27T09:53:47.001Z</time></trkpt><trkpt lat="40.77283716034436" lon="19.87498228075113"><ele>29.0</ele><time>2026-04-27T09:53:48.001Z</time></trkpt><trkpt lat="40.77274347456258" lon="19.87502257222192"><ele>29.0</ele><time>2026-04-27T09:53:49.001Z</time></trkpt><trkpt lat="40.77267118233619" lon="19.87513463093089"><ele>29.0</ele><time>2026-04-27T09:53:50.001Z</time></trkpt><trkpt lat="40.77259088158823" lon="19.875237211422714"><ele>29.5</ele><time>2026-04-27T09:53:51.001Z</time></trkpt><trkpt lat="40.77250855687931" lon="19.875342639263046"><ele>30.0</ele><time>2026-04-27T09:53:52.001Z</time></trkpt><trkpt lat="40.772422783175415" lon="19.87546592386095"><ele>30.5</ele><time>2026-04-27T09:53:53.001Z</time></trkpt><trkpt lat="40.77233692320303" lon="19.875596658574455"><ele>31.0</ele><time>2026-04-27T09:53:54.001Z</time></trkpt><trkpt lat="40.7722515816918" lon="19.875738810609697"><ele>31.0</ele><time>2026-04-27T09:53:55.001Z</time></trkpt><trkpt lat="40.77215829111819" lon="19.875896822629237"><ele>31.0</ele><time>2026-04-27T09:53:56.001Z</time></trkpt><trkpt lat="40.77206738380528" lon="19.876058817736446"><ele>31.0</ele><time>2026-04-27T09:53:57.001Z</time></trkpt><trkpt lat="40.77199099951926" lon="19.87619565818271"><ele>31.0</ele><time>2026-04-27T09:53:58.001Z</time></trkpt><trkpt lat="40.77191449141201" lon="19.876338031926846"><ele>31.0</ele><time>2026-04-27T09:53:59.001Z</time></trkpt><trkpt lat="40.77184021974131" lon="19.87648467516241"><ele>31.0</ele><time>2026-04-27T09:54:00.001Z</time></trkpt><trkpt lat="40.771777910006996" lon="19.876612654573435"><ele>31.0</ele><time>2026-04-27T09:54:01.001Z</time></trkpt><trkpt lat="40.77172408928436" lon="19.87672920153383"><ele>31.0</ele><time>2026-04-27T09:54:02.001Z</time></trkpt><trkpt lat="40.77167956114025" lon="19.876828700923404"><ele>31.0</ele><time>2026-04-27T09:54:03.001Z</time></trkpt><trkpt lat="40.77162932758938" lon="19.876926832148538"><ele>31.0</ele><time>2026-04-27T09:54:04.001Z</time></trkpt><trkpt lat="40.7715718130661" lon="19.877044043287306"><ele>31.0</ele><time>2026-04-27T09:54:05.001Z</time></trkpt><trkpt lat="40.77151168363358" lon="19.8771722450621"><ele>31.0</ele><time>2026-04-27T09:54:06.001Z</time></trkpt><trkpt lat="40.77145110947469" lon="19.877308007888725"><ele>31.0</ele><time>2026-04-27T09:54:07.001Z</time></trkpt><trkpt lat="40.77139544330557" lon="19.87744066697418"><ele>31.0</ele><time>2026-04-27T09:54:08.001Z</time></trkpt><trkpt lat="40.771344581476015" lon="19.877557129140992"><ele>31.0</ele><time>2026-04-27T09:54:09.001Z</time></trkpt><trkpt lat="40.77128668230505" lon="19.87766554529582"><ele>31.0</ele><time>2026-04-27T09:54:10.001Z</time></trkpt><trkpt lat="40.77121835377385" lon="19.877785794443813"><ele>31.0</ele><time>2026-04-27T09:54:11.001Z</time></trkpt><trkpt lat="40.771140939933694" lon="19.877856676431513"><ele>31.0</ele><time>2026-04-27T09:54:12.001Z</time></trkpt><trkpt lat="40.77110295416943" lon="19.87792590541961"><ele>30.4</ele><time>2026-04-27T09:54:13.001Z</time></trkpt><trkpt lat="40.771042990382675" lon="19.877964336066075"><ele>29.8</ele><time>2026-04-27T09:54:14.001Z</time></trkpt><trkpt lat="40.770969200967805" lon="19.87801161855058"><ele>29.199999999999996</ele><time>2026-04-27T09:54:15.001Z</time></trkpt><trkpt lat="40.77088226025528" lon="19.878073603639134"><ele>28.599999999999998</ele><time>2026-04-27T09:54:16.001Z</time></trkpt><trkpt lat="40.77079073120115" lon="19.878135036332463"><ele>28.0</ele><time>2026-04-27T09:54:17.001Z</time></trkpt><trkpt lat="40.77069078487768" lon="19.87819592031185"><ele>28.4</ele><time>2026-04-27T09:54:18.001Z</time></trkpt><trkpt lat="40.77059765284669" lon="19.87823125627219"><ele>28.799999999999997</ele><time>2026-04-27T09:54:19.001Z</time></trkpt><trkpt lat="40.77051399137471" lon="19.87828638613189"><ele>29.2</ele><time>2026-04-27T09:54:20.001Z</time></trkpt><trkpt lat="40.770461256393205" lon="19.878442590133663"><ele>29.6</ele><time>2026-04-27T09:54:21.001Z</time></trkpt><trkpt lat="40.77038993631991" lon="19.878560569649594"><ele>30.0</ele><time>2026-04-27T09:54:22.001Z</time></trkpt><trkpt lat="40.7703187845533" lon="19.878663276614073"><ele>30.0</ele><time>2026-04-27T09:54:23.001Z</time></trkpt><trkpt lat="40.77022647390483" lon="19.878710177074744"><ele>30.0</ele><time>2026-04-27T09:54:24.001Z</time></trkpt><trkpt lat="40.77014615177359" lon="19.878799275125765"><ele>30.0</ele><time>2026-04-27T09:54:25.001Z</time></trkpt><trkpt lat="40.77004453991022" lon="19.878885510764185"><ele>30.0</ele><time>2026-04-27T09:54:26.001Z</time></trkpt><trkpt lat="40.76994639881871" lon="19.878983549521543"><ele>30.0</ele><time>2026-04-27T09:54:27.001Z</time></trkpt><trkpt lat="40.76986070165153" lon="19.879074738649305"><ele>30.8</ele><time>2026-04-27T09:54:28.001Z</time></trkpt><trkpt lat="40.7697840709768" lon="19.879148188734735"><ele>31.6</ele><time>2026-04-27T09:54:29.001Z</time></trkpt><trkpt lat="40.76971143952782" lon="19.879209345473747"><ele>32.4</ele><time>2026-04-27T09:54:30.001Z</time></trkpt><trkpt lat="40.769642992817" lon="19.879260184712102"><ele>33.2</ele><time>2026-04-27T09:54:31.001Z</time></trkpt><trkpt lat="40.7695762591616" lon="19.879298870434305"><ele>34.0</ele><time>2026-04-27T09:54:32.001Z</time></trkpt><trkpt lat="40.76946729762902" lon="19.879358549398486"><ele>34.2</ele><time>2026-04-27T09:54:34.001Z</time></trkpt><trkpt lat="40.76941248664544" lon="19.87943589858002"><ele>34.4</ele><time>2026-04-27T09:54:36.001Z</time></trkpt><trkpt lat="40.769430082398635" lon="19.87954776721864"><ele>34.6</ele><time>2026-04-27T09:54:38.001Z</time></trkpt><trkpt lat="40.76949020420035" lon="19.879716715431286"><ele>34.8</ele><time>2026-04-27T09:54:40.001Z</time></trkpt><trkpt lat="40.769528673485105" lon="19.879839640162754"><ele>35.0</ele><time>2026-04-27T09:54:41.001Z</time></trkpt><trkpt lat="40.769571434187995" lon="19.87998320353521"><ele>35.2</ele><time>2026-04-27T09:54:42.001Z</time></trkpt><trkpt lat="40.76962403356198" lon="19.880115975471256"><ele>35.4</ele><time>2026-04-27T09:54:43.001Z</time></trkpt><trkpt lat="40.76968069097017" lon="19.88023571093152"><ele>35.6</ele><time>2026-04-27T09:54:44.001Z</time></trkpt><trkpt lat="40.7697368168712" lon="19.88035392131902"><ele>35.8</ele><time>2026-04-27T09:54:45.001Z</time></trkpt><trkpt lat="40.76978365314109" lon="19.880460793123383"><ele>36.0</ele><time>2026-04-27T09:54:46.001Z</time></trkpt><trkpt lat="40.769826787519804" lon="19.880561652134684"><ele>36.0</ele><time>2026-04-27T09:54:47.001Z</time></trkpt><trkpt lat="40.76987699084209" lon="19.880677555657677"><ele>36.0</ele><time>2026-04-27T09:54:48.001Z</time></trkpt><trkpt lat="40.769917411132084" lon="19.88079717371957"><ele>36.0</ele><time>2026-04-27T09:54:49.001Z</time></trkpt><trkpt lat="40.76993906311949" lon="19.880926870316948"><ele>36.0</ele><time>2026-04-27T09:54:50.001Z</time></trkpt><trkpt lat="40.76995169371932" lon="19.88106951765142"><ele>36.0</ele><time>2026-04-27T09:54:51.001Z</time></trkpt><trkpt lat="40.76995606065223" lon="19.881215746492348"><ele>35.8</ele><time>2026-04-27T09:54:52.001Z</time></trkpt><trkpt lat="40.76996249253175" lon="19.881361905079242"><ele>35.6</ele><time>2026-04-27T09:54:53.001Z</time></trkpt><trkpt lat="40.76997188644818" lon="19.881493388050124"><ele>35.4</ele><time>2026-04-27T09:54:54.001Z</time></trkpt><trkpt lat="40.76997732277146" lon="19.881610972039724"><ele>35.2</ele><time>2026-04-27T09:54:55.001Z</time></trkpt><trkpt lat="40.76997533545353" lon="19.881724328683568"><ele>35.0</ele><time>2026-04-27T09:54:56.001Z</time></trkpt><trkpt lat="40.769949237145966" lon="19.881851340072167"><ele>35.0</ele><time>2026-04-27T09:54:57.001Z</time></trkpt><trkpt lat="40.76993007675593" lon="19.881977959215252"><ele>35.0</ele><time>2026-04-27T09:54:58.001Z</time></trkpt><trkpt lat="40.76991463675553" lon="19.882101630765632"><ele>35.0</ele><time>2026-04-27T09:54:59.001Z</time></trkpt><trkpt lat="40.769869336548844" lon="19.882218272543458"><ele>35.0</ele><time>2026-04-27T09:55:00.001Z</time></trkpt><trkpt lat="40.76979360552196" lon="19.88230417545598"><ele>35.0</ele><time>2026-04-27T09:55:01.001Z</time></trkpt><trkpt lat="40.76972396516046" lon="19.88241370400065"><ele>35.0</ele><time>2026-04-27T09:55:02.001Z</time></trkpt><trkpt lat="40.76965198976318" lon="19.88253605904125"><ele>35.0</ele><time>2026-04-27T09:55:03.001Z</time></trkpt><trkpt lat="40.769565968039494" lon="19.88264111605887"><ele>35.0</ele><time>2026-04-27T09:55:04.001Z</time></trkpt><trkpt lat="40.769485359028025" lon="19.882740692962866"><ele>35.0</ele><time>2026-04-27T09:55:05.001Z</time></trkpt><trkpt lat="40.76941438061852" lon="19.88285107983296"><ele>34.75</ele><time>2026-04-27T09:55:06.001Z</time></trkpt><trkpt lat="40.76932094785708" lon="19.882959000136555"><ele>34.5</ele><time>2026-04-27T09:55:07.001Z</time></trkpt><trkpt lat="40.769240861450655" lon="19.883084434499494"><ele>34.25</ele><time>2026-04-27T09:55:08.001Z</time></trkpt><trkpt lat="40.769171220902294" lon="19.8831892741494"><ele>34.0</ele><time>2026-04-27T09:55:09.001Z</time></trkpt><trkpt lat="40.769105364911695" lon="19.88328961434349"><ele>34.0</ele><time>2026-04-27T09:55:10.001Z</time></trkpt><trkpt lat="40.76902269187315" lon="19.883357555895387"><ele>34.0</ele><time>2026-04-27T09:55:11.001Z</time></trkpt><trkpt lat="40.768941662790574" lon="19.883400196725283"><ele>34.0</ele><time>2026-04-27T09:55:12.001Z</time></trkpt><trkpt lat="40.768869741582655" lon="19.883406122928534"><ele>34.0</ele><time>2026-04-27T09:55:13.001Z</time></trkpt><trkpt lat="40.76880266814967" lon="19.883383846310792"><ele>34.0</ele><time>2026-04-27T09:55:14.001Z</time></trkpt><trkpt lat="40.76874550864239" lon="19.883312784845856"><ele>34.0</ele><time>2026-04-27T09:55:15.001Z</time></trkpt><trkpt lat="40.76866189251963" lon="19.88325650109219"><ele>34.0</ele><time>2026-04-27T09:55:16.001Z</time></trkpt><trkpt lat="40.768574176275166" lon="19.883195897005702"><ele>34.0</ele><time>2026-04-27T09:55:17.001Z</time></trkpt><trkpt lat="40.76846629108441" lon="19.88316770550091"><ele>34.0</ele><time>2026-04-27T09:55:18.001Z</time></trkpt><trkpt lat="40.768382700403656" lon="19.883138510969765"><ele>34.0</ele><time>2026-04-27T09:55:19.001Z</time></trkpt><trkpt lat="40.76830903554868" lon="19.883125003208736"><ele>34.0</ele><time>2026-04-27T09:55:20.001Z</time></trkpt><trkpt lat="40.768229064942" lon="19.88312579537928"><ele>34.2</ele><time>2026-04-27T09:55:21.001Z</time></trkpt><trkpt lat="40.76813792110509" lon="19.883102691284307"><ele>34.4</ele><time>2026-04-27T09:55:22.001Z</time></trkpt><trkpt lat="40.76802870290841" lon="19.883117254773772"><ele>34.6</ele><time>2026-04-27T09:55:23.001Z</time></trkpt><trkpt lat="40.767914271279935" lon="19.88314098188025"><ele>34.8</ele><time>2026-04-27T09:55:24.001Z</time></trkpt><trkpt lat="40.767803595181256" lon="19.883178063656693"><ele>35.0</ele><time>2026-04-27T09:55:25.001Z</time></trkpt><trkpt lat="40.76770148470653" lon="19.883233714052775"><ele>34.166666666666664</ele><time>2026-04-27T09:55:26.001Z</time></trkpt><trkpt lat="40.767617477831195" lon="19.88331537083542"><ele>33.33333333333333</ele><time>2026-04-27T09:55:27.001Z</time></trkpt><trkpt lat="40.76755465536447" lon="19.88339031524572"><ele>32.5</ele><time>2026-04-27T09:55:28.001Z</time></trkpt><trkpt lat="40.76749720639123" lon="19.88344802948423"><ele>31.666666666666664</ele><time>2026-04-27T09:55:29.001Z</time></trkpt><trkpt lat="40.76743872802913" lon="19.883507699781124"><ele>30.833333333333332</ele><time>2026-04-27T09:55:30.001Z</time></trkpt><trkpt lat="40.76738077311637" lon="19.883570381402343"><ele>30.0</ele><time>2026-04-27T09:55:31.001Z</time></trkpt><trkpt lat="40.76732493079917" lon="19.883628333208623"><ele>30.0</ele><time>2026-04-27T09:55:32.001Z</time></trkpt><trkpt lat="40.76725373479476" lon="19.883638377962132"><ele>30.0</ele><time>2026-04-27T09:55:33.001Z</time></trkpt><trkpt lat="40.76718308210694" lon="19.883642850970357"><ele>30.0</ele><time>2026-04-27T09:55:34.001Z</time></trkpt><trkpt lat="40.767102411667835" lon="19.883672483380213"><ele>30.0</ele><time>2026-04-27T09:55:35.001Z</time></trkpt><trkpt lat="40.76702474263488" lon="19.88360061262645"><ele>30.0</ele><time>2026-04-27T09:55:36.001Z</time></trkpt><trkpt lat="40.76694736567643" lon="19.88355663460021"><ele>30.0</ele><time>2026-04-27T09:55:37.001Z</time></trkpt><trkpt lat="40.76685856743142" lon="19.88351444960427"><ele>30.2</ele><time>2026-04-27T09:55:38.001Z</time></trkpt><trkpt lat="40.76677376692603" lon="19.88345721627793"><ele>30.4</ele><time>2026-04-27T09:55:39.001Z</time></trkpt><trkpt lat="40.76668240823843" lon="19.88338893392516"><ele>30.6</ele><time>2026-04-27T09:55:40.001Z</time></trkpt><trkpt lat="40.7665866279256" lon="19.88331805465676"><ele>30.8</ele><time>2026-04-27T09:55:41.001Z</time></trkpt><trkpt lat="40.7665087487799" lon="19.883208719402123"><ele>31.0</ele><time>2026-04-27T09:55:42.001Z</time></trkpt><trkpt lat="40.766447087031764" lon="19.883089672485582"><ele>32.8</ele><time>2026-04-27T09:55:43.001Z</time></trkpt><trkpt lat="40.766383656721544" lon="19.882988077891245"><ele>34.6</ele><time>2026-04-27T09:55:44.001Z</time></trkpt><trkpt lat="40.76631433466266" lon="19.882912018629465"><ele>36.4</ele><time>2026-04-27T09:55:45.001Z</time></trkpt><trkpt lat="40.76623840709432" lon="19.88285120850956"><ele>38.2</ele><time>2026-04-27T09:55:46.001Z</time></trkpt><trkpt lat="40.766144479548615" lon="19.882806859986943"><ele>40.0</ele><time>2026-04-27T09:55:47.001Z</time></trkpt><trkpt lat="40.76606035384645" lon="19.882772910132832"><ele>39.4</ele><time>2026-04-27T09:55:48.001Z</time></trkpt><trkpt lat="40.76594290313619" lon="19.882848729944065"><ele>38.8</ele><time>2026-04-27T09:55:49.001Z</time></trkpt><trkpt lat="40.765851767203316" lon="19.882888576792876"><ele>38.2</ele><time>2026-04-27T09:55:50.001Z</time></trkpt><trkpt lat="40.7657571470664" lon="19.88293846916507"><ele>37.6</ele><time>2026-04-27T09:55:51.001Z</time></trkpt><trkpt lat="40.76565657251986" lon="19.882997072872364"><ele>37.0</ele><time>2026-04-27T09:55:52.001Z</time></trkpt><trkpt lat="40.765555701940116" lon="19.88307101035026"><ele>37.0</ele><time>2026-04-27T09:55:53.001Z</time></trkpt><trkpt lat="40.76545642425226" lon="19.88315913840747"><ele>37.0</ele><time>2026-04-27T09:55:54.001Z</time></trkpt><trkpt lat="40.7653730976625" lon="19.88326761007533"><ele>37.0</ele><time>2026-04-27T09:55:55.001Z</time></trkpt><trkpt lat="40.765300922432665" lon="19.883392479844094"><ele>37.0</ele><time>2026-04-27T09:55:56.001Z</time></trkpt><trkpt lat="40.76524449254302" lon="19.883498986283595"><ele>36.4</ele><time>2026-04-27T09:55:57.001Z</time></trkpt><trkpt lat="40.7651833455965" lon="19.88357137172497"><ele>35.800000000000004</ele><time>2026-04-27T09:55:58.001Z</time></trkpt><trkpt lat="40.76510375519227" lon="19.883622581234746"><ele>35.2</ele><time>2026-04-27T09:55:59.001Z</time></trkpt><trkpt lat="40.765013075236546" lon="19.883672318998997"><ele>34.6</ele><time>2026-04-27T09:56:00.001Z</time></trkpt><trkpt lat="40.76491313182064" lon="19.883732825384488"><ele>34.0</ele><time>2026-04-27T09:56:01.001Z</time></trkpt><trkpt lat="40.76480851677998" lon="19.883789274097296"><ele>34.0</ele><time>2026-04-27T09:56:02.001Z</time></trkpt><trkpt lat="40.764700017296484" lon="19.883839968156025"><ele>34.0</ele><time>2026-04-27T09:56:03.001Z</time></trkpt><trkpt lat="40.76458486238005" lon="19.88389431226568"><ele>34.0</ele><time>2026-04-27T09:56:04.001Z</time></trkpt><trkpt lat="40.76446779308809" lon="19.88394198493091"><ele>34.0</ele><time>2026-04-27T09:56:05.001Z</time></trkpt><trkpt lat="40.76434609787805" lon="19.883986937449745"><ele>35.6</ele><time>2026-04-27T09:56:06.001Z</time></trkpt><trkpt lat="40.764226646959656" lon="19.884047091765733"><ele>37.2</ele><time>2026-04-27T09:56:07.001Z</time></trkpt><trkpt lat="40.76411893555897" lon="19.88410268117159"><ele>38.800000000000004</ele><time>2026-04-27T09:56:08.001Z</time></trkpt><trkpt lat="40.76402763392315" lon="19.88411799008012"><ele>40.4</ele><time>2026-04-27T09:56:09.001Z</time></trkpt><trkpt lat="40.763958837953034" lon="19.884130832886946"><ele>42.0</ele><time>2026-04-27T09:56:10.001Z</time></trkpt><trkpt lat="40.763895417332506" lon="19.88414184467964"><ele>42.0</ele><time>2026-04-27T09:56:11.001Z</time></trkpt><trkpt lat="40.76382705302322" lon="19.88412409178212"><ele>42.0</ele><time>2026-04-27T09:56:12.001Z</time></trkpt><trkpt lat="40.763758018898706" lon="19.88409827981785"><ele>42.0</ele><time>2026-04-27T09:56:13.001Z</time></trkpt><trkpt lat="40.76368925673874" lon="19.884000480167458"><ele>42.0</ele><time>2026-04-27T09:56:14.001Z</time></trkpt><trkpt lat="40.76361124446338" lon="19.883916730504748"><ele>42.0</ele><time>2026-04-27T09:56:15.001Z</time></trkpt><trkpt lat="40.76351583661272" lon="19.88384106354627"><ele>42.0</ele><time>2026-04-27T09:56:16.001Z</time></trkpt><trkpt lat="40.76343860033775" lon="19.883787949351102"><ele>42.0</ele><time>2026-04-27T09:56:17.001Z</time></trkpt><trkpt lat="40.76336409823117" lon="19.88373657422888"><ele>42.0</ele><time>2026-04-27T09:56:18.001Z</time></trkpt><trkpt lat="40.76329150164901" lon="19.883686446212312"><ele>42.0</ele><time>2026-04-27T09:56:19.001Z</time></trkpt><trkpt lat="40.76320436609991" lon="19.883644457984413"><ele>42.0</ele><time>2026-04-27T09:56:20.001Z</time></trkpt><trkpt lat="40.76312511593063" lon="19.883581228460294"><ele>42.0</ele><time>2026-04-27T09:56:21.001Z</time></trkpt><trkpt lat="40.76304720139253" lon="19.883542734411726"><ele>42.0</ele><time>2026-04-27T09:56:22.001Z</time></trkpt><trkpt lat="40.7629720088692" lon="19.883509376261237"><ele>42.0</ele><time>2026-04-27T09:56:23.001Z</time></trkpt><trkpt lat="40.762876721297395" lon="19.883502704771928"><ele>42.0</ele><time>2026-04-27T09:56:24.001Z</time></trkpt><trkpt lat="40.76276243857566" lon="19.883527751348993"><ele>42.0</ele><time>2026-04-27T09:56:25.001Z</time></trkpt><trkpt lat="40.76263890979066" lon="19.883586210658397"><ele>42.0</ele><time>2026-04-27T09:56:26.001Z</time></trkpt><trkpt lat="40.762524660805276" lon="19.883634587460932"><ele>42.400000000000006</ele><time>2026-04-27T09:56:27.001Z</time></trkpt><trkpt lat="40.76241532004032" lon="19.88370051336537"><ele>42.800000000000004</ele><time>2026-04-27T09:56:28.001Z</time></trkpt><trkpt lat="40.76230390029365" lon="19.883742763319862"><ele>43.2</ele><time>2026-04-27T09:56:29.001Z</time></trkpt><trkpt lat="40.76220155352778" lon="19.883784516982367"><ele>43.6</ele><time>2026-04-27T09:56:30.001Z</time></trkpt><trkpt lat="40.76211198517525" lon="19.88380886489357"><ele>44.0</ele><time>2026-04-27T09:56:31.001Z</time></trkpt><trkpt lat="40.76203770189256" lon="19.88385154833904"><ele>44.0</ele><time>2026-04-27T09:56:32.001Z</time></trkpt><trkpt lat="40.76195519199005" lon="19.883851474111328"><ele>44.0</ele><time>2026-04-27T09:56:33.001Z</time></trkpt><trkpt lat="40.76186795803963" lon="19.88387234715748"><ele>44.0</ele><time>2026-04-27T09:56:34.001Z</time></trkpt><trkpt lat="40.76177460845133" lon="19.883848145518133"><ele>44.0</ele><time>2026-04-27T09:56:35.001Z</time></trkpt><trkpt lat="40.761691145044985" lon="19.883807630739632"><ele>44.0</ele><time>2026-04-27T09:56:36.001Z</time></trkpt><trkpt lat="40.76162235392041" lon="19.883777471810664"><ele>44.0</ele><time>2026-04-27T09:56:37.001Z</time></trkpt><trkpt lat="40.76155427526312" lon="19.883769016141333"><ele>44.83333333333333</ele><time>2026-04-27T09:56:38.001Z</time></trkpt><trkpt lat="40.76145428668667" lon="19.883763739657503"><ele>45.666666666666664</ele><time>2026-04-27T09:56:40.001Z</time></trkpt><trkpt lat="40.761398177880814" lon="19.88382451924318"><ele>46.5</ele><time>2026-04-27T09:56:42.001Z</time></trkpt><trkpt lat="40.761336109551564" lon="19.883904936321155"><ele>47.33333333333333</ele><time>2026-04-27T09:56:45.001Z</time></trkpt><trkpt lat="40.76127791916745" lon="19.883953492202323"><ele>48.166666666666664</ele><time>2026-04-27T09:56:47.001Z</time></trkpt><trkpt lat="40.76123362773084" lon="19.884051982283406"><ele>49.0</ele><time>2026-04-27T09:56:49.001Z</time></trkpt><trkpt lat="40.761190520368096" lon="19.8841572851963"><ele>48.800000000000004</ele><time>2026-04-27T09:56:51.001Z</time></trkpt><trkpt lat="40.76114540796155" lon="19.884296165674872"><ele>48.6</ele><time>2026-04-27T09:56:53.001Z</time></trkpt><trkpt lat="40.76111740344075" lon="19.884448972129327"><ele>48.4</ele><time>2026-04-27T09:56:55.001Z</time></trkpt><trkpt lat="40.76107952384541" lon="19.884596293155095"><ele>48.2</ele><time>2026-04-27T09:56:57.001Z</time></trkpt><trkpt lat="40.7610533314102" lon="19.884674749295723"><ele>48.0</ele><time>2026-04-27T09:56:58.001Z</time></trkpt><trkpt lat="40.761025821847014" lon="19.884759176425796"><ele>48.0</ele><time>2026-04-27T09:56:59.001Z</time></trkpt><trkpt lat="40.7609881212817" lon="19.88485078269459"><ele>48.0</ele><time>2026-04-27T09:57:00.001Z</time></trkpt><trkpt lat="40.76094354082604" lon="19.884942438639694"><ele>48.0</ele><time>2026-04-27T09:57:01.001Z</time></trkpt><trkpt lat="40.760897101454745" lon="19.885035874005325"><ele>48.0</ele><time>2026-04-27T09:57:02.001Z</time></trkpt><trkpt lat="40.760825840088735" lon="19.885086698544857"><ele>48.0</ele><time>2026-04-27T09:57:03.001Z</time></trkpt><trkpt lat="40.76076848037834" lon="19.885153556411403"><ele>48.0</ele><time>2026-04-27T09:57:04.001Z</time></trkpt><trkpt lat="40.76064623229976" lon="19.885133612830206"><ele>46.199999999999996</ele><time>2026-04-27T09:57:05.001Z</time></trkpt><trkpt lat="40.76055298045107" lon="19.885154077356837"><ele>44.4</ele><time>2026-04-27T09:57:06.001Z</time></trkpt><trkpt lat="40.7604550149171" lon="19.885207992974074"><ele>42.599999999999994</ele><time>2026-04-27T09:57:07.001Z</time></trkpt><trkpt lat="40.760353999820076" lon="19.88523702617297"><ele>40.8</ele><time>2026-04-27T09:57:08.001Z</time></trkpt><trkpt lat="40.760243501019914" lon="19.88527479744942"><ele>39.0</ele><time>2026-04-27T09:57:09.001Z</time></trkpt><trkpt lat="40.760127371037534" lon="19.88528454480959"><ele>39.0</ele><time>2026-04-27T09:57:10.001Z</time></trkpt><trkpt lat="40.76000679323304" lon="19.885306588345525"><ele>39.0</ele><time>2026-04-27T09:57:11.001Z</time></trkpt><trkpt lat="40.75988428300989" lon="19.88532541224357"><ele>39.0</ele><time>2026-04-27T09:57:12.001Z</time></trkpt><trkpt lat="40.75977389624411" lon="19.88538410355159"><ele>39.0</ele><time>2026-04-27T09:57:13.001Z</time></trkpt><trkpt lat="40.759654404040695" lon="19.885428677446836"><ele>39.0</ele><time>2026-04-27T09:57:14.001Z</time></trkpt><trkpt lat="40.759533387090045" lon="19.885492777263668"><ele>39.0</ele><time>2026-04-27T09:57:15.001Z</time></trkpt><trkpt lat="40.75941875567155" lon="19.885564196149186"><ele>39.0</ele><time>2026-04-27T09:57:16.001Z</time></trkpt><trkpt lat="40.75930430029987" lon="19.885644746661303"><ele>39.0</ele><time>2026-04-27T09:57:17.001Z</time></trkpt><trkpt lat="40.7592057373365" lon="19.885712510999145"><ele>40.8</ele><time>2026-04-27T09:57:18.001Z</time></trkpt><trkpt lat="40.75910949566329" lon="19.885757815591436"><ele>42.599999999999994</ele><time>2026-04-27T09:57:19.001Z</time></trkpt><trkpt lat="40.7590088064825" lon="19.88571316010627"><ele>44.4</ele><time>2026-04-27T09:57:20.001Z</time></trkpt><trkpt lat="40.75889080994876" lon="19.88572067400759"><ele>46.199999999999996</ele><time>2026-04-27T09:57:21.001Z</time></trkpt><trkpt lat="40.75876984860837" lon="19.885726809079507"><ele>48.0</ele><time>2026-04-27T09:57:22.001Z</time></trkpt><trkpt lat="40.7586493060351" lon="19.885785299359718"><ele>49.75</ele><time>2026-04-27T09:57:23.001Z</time></trkpt><trkpt lat="40.758520712603016" lon="19.885858389484238"><ele>51.5</ele><time>2026-04-27T09:57:24.001Z</time></trkpt><trkpt lat="40.758384766580214" lon="19.88592837183583"><ele>53.25</ele><time>2026-04-27T09:57:25.001Z</time></trkpt><trkpt lat="40.75824397797592" lon="19.885930963017618"><ele>55.0</ele><time>2026-04-27T09:57:26.001Z</time></trkpt><trkpt lat="40.758106422877916" lon="19.88597371063494"><ele>51.0</ele><time>2026-04-27T09:57:27.001Z</time></trkpt><trkpt lat="40.75798021566896" lon="19.8859846193318"><ele>47.0</ele><time>2026-04-27T09:57:28.001Z</time></trkpt><trkpt lat="40.75785959329421" lon="19.88601036832957"><ele>43.0</ele><time>2026-04-27T09:57:29.001Z</time></trkpt><trkpt lat="40.757736292215384" lon="19.886098485650702"><ele>39.0</ele><time>2026-04-27T09:57:30.001Z</time></trkpt><trkpt lat="40.75760187596473" lon="19.8861510969878"><ele>39.0</ele><time>2026-04-27T09:57:31.001Z</time></trkpt><trkpt lat="40.75748669085157" lon="19.88621972874278"><ele>39.0</ele><time>2026-04-27T09:57:32.001Z</time></trkpt><trkpt lat="40.75738138478877" lon="19.88629104339002"><ele>39.0</ele><time>2026-04-27T09:57:33.001Z</time></trkpt><trkpt lat="40.75727512654243" lon="19.886387254040184"><ele>39.0</ele><time>2026-04-27T09:57:34.001Z</time></trkpt><trkpt lat="40.75716795348586" lon="19.88651096754387"><ele>39.0</ele><time>2026-04-27T09:57:35.001Z</time></trkpt><trkpt lat="40.75703653618478" lon="19.886651213844655"><ele>39.0</ele><time>2026-04-27T09:57:36.001Z</time></trkpt><trkpt lat="40.756905319784735" lon="19.886815202470174"><ele>39.0</ele><time>2026-04-27T09:57:37.001Z</time></trkpt><trkpt lat="40.75678495015903" lon="19.88697337665682"><ele>38.333333333333336</ele><time>2026-04-27T09:57:38.001Z</time></trkpt><trkpt lat="40.756685024112166" lon="19.887130187181953"><ele>37.66666666666667</ele><time>2026-04-27T09:57:39.001Z</time></trkpt><trkpt lat="40.7565686206819" lon="19.88726593026944"><ele>37.0</ele><time>2026-04-27T09:57:40.001Z</time></trkpt><trkpt lat="40.75643018013736" lon="19.88738240137305"><ele>37.0</ele><time>2026-04-27T09:57:41.001Z</time></trkpt><trkpt lat="40.75628892793542" lon="19.887497878753738"><ele>37.0</ele><time>2026-04-27T09:57:42.001Z</time></trkpt><trkpt lat="40.756158845909546" lon="19.88764111811694"><ele>37.0</ele><time>2026-04-27T09:57:43.001Z</time></trkpt><trkpt lat="40.75605176645127" lon="19.88776220579023"><ele>36.5</ele><time>2026-04-27T09:57:44.001Z</time></trkpt><trkpt lat="40.75597765758313" lon="19.88787732943713"><ele>36.0</ele><time>2026-04-27T09:57:45.001Z</time></trkpt><trkpt lat="40.755890474342024" lon="19.88797668255511"><ele>35.5</ele><time>2026-04-27T09:57:46.001Z</time></trkpt><trkpt lat="40.755764362800946" lon="19.888047716784502"><ele>35.0</ele><time>2026-04-27T09:57:47.001Z</time></trkpt><trkpt lat="40.75559998326456" lon="19.888119935477643"><ele>35.0</ele><time>2026-04-27T09:57:48.001Z</time></trkpt><trkpt lat="40.75544545061836" lon="19.888191384458526"><ele>35.0</ele><time>2026-04-27T09:57:49.001Z</time></trkpt><trkpt lat="40.755306918528746" lon="19.888242177412977"><ele>35.0</ele><time>2026-04-27T09:57:50.001Z</time></trkpt><trkpt lat="40.755167929157246" lon="19.888311027853952"><ele>34.666666666666664</ele><time>2026-04-27T09:57:51.001Z</time></trkpt><trkpt lat="40.75503218712132" lon="19.888412259639015"><ele>34.333333333333336</ele><time>2026-04-27T09:57:52.001Z</time></trkpt><trkpt lat="40.75488554464765" lon="19.88850684538136"><ele>34.0</ele><time>2026-04-27T09:57:53.001Z</time></trkpt><trkpt lat="40.75474401808123" lon="19.888588512078677"><ele>34.0</ele><time>2026-04-27T09:57:54.001Z</time></trkpt><trkpt lat="40.75461333571618" lon="19.888664656922277"><ele>34.0</ele><time>2026-04-27T09:57:55.001Z</time></trkpt><trkpt lat="40.75449709140443" lon="19.888713684674084"><ele>34.0</ele><time>2026-04-27T09:57:56.001Z</time></trkpt><trkpt lat="40.75439477238932" lon="19.888780797127666"><ele>34.0</ele><time>2026-04-27T09:57:57.001Z</time></trkpt><trkpt lat="40.7542928108026" lon="19.888831156320467"><ele>34.6</ele><time>2026-04-27T09:57:58.001Z</time></trkpt><trkpt lat="40.75421019533387" lon="19.8888992164935"><ele>35.2</ele><time>2026-04-27T09:57:59.001Z</time></trkpt><trkpt lat="40.75413920857068" lon="19.889002715771817"><ele>35.800000000000004</ele><time>2026-04-27T09:58:00.001Z</time></trkpt><trkpt lat="40.75409454167614" lon="19.8891268446399"><ele>36.4</ele><time>2026-04-27T09:58:01.001Z</time></trkpt><trkpt lat="40.75406411180396" lon="19.88924914607785"><ele>37.0</ele><time>2026-04-27T09:58:02.001Z</time></trkpt><trkpt lat="40.75403815097354" lon="19.889368492056725"><ele>37.0</ele><time>2026-04-27T09:58:03.001Z</time></trkpt><trkpt lat="40.754014885599446" lon="19.88948666109477"><ele>37.0</ele><time>2026-04-27T09:58:04.001Z</time></trkpt><trkpt lat="40.753989309643096" lon="19.889601618968282"><ele>37.0</ele><time>2026-04-27T09:58:05.001Z</time></trkpt><trkpt lat="40.753944437236335" lon="19.88970990358912"><ele>37.0</ele><time>2026-04-27T09:58:06.001Z</time></trkpt><trkpt lat="40.75384310194265" lon="19.88976883250205"><ele>37.0</ele><time>2026-04-27T09:58:07.001Z</time></trkpt><trkpt lat="40.75372580564554" lon="19.88984162766896"><ele>37.0</ele><time>2026-04-27T09:58:08.001Z</time></trkpt><trkpt lat="40.75361839265096" lon="19.889930545056146"><ele>37.0</ele><time>2026-04-27T09:58:09.001Z</time></trkpt><trkpt lat="40.75352023326425" lon="19.890001117980727"><ele>37.0</ele><time>2026-04-27T09:58:10.001Z</time></trkpt><trkpt lat="40.75341573225561" lon="19.89011622810762"><ele>37.0</ele><time>2026-04-27T09:58:11.001Z</time></trkpt><trkpt lat="40.753317061890506" lon="19.890264625374172"><ele>37.0</ele><time>2026-04-27T09:58:12.001Z</time></trkpt><trkpt lat="40.753242931208256" lon="19.890404881026015"><ele>37.0</ele><time>2026-04-27T09:58:13.001Z</time></trkpt><trkpt lat="40.75318822567049" lon="19.890554199765045"><ele>37.0</ele><time>2026-04-27T09:58:14.001Z</time></trkpt><trkpt lat="40.753154211895364" lon="19.890733027206654"><ele>37.0</ele><time>2026-04-27T09:58:15.001Z</time></trkpt><trkpt lat="40.75313660982355" lon="19.8909276196351"><ele>37.0</ele><time>2026-04-27T09:58:16.001Z</time></trkpt><trkpt lat="40.75313070223583" lon="19.891107731602844"><ele>37.0</ele><time>2026-04-27T09:58:17.001Z</time></trkpt><trkpt lat="40.75309537750778" lon="19.891276662686032"><ele>37.0</ele><time>2026-04-27T09:58:18.001Z</time></trkpt><trkpt lat="40.75302638318771" lon="19.891445761411948"><ele>37.0</ele><time>2026-04-27T09:58:19.001Z</time></trkpt><trkpt lat="40.75293732289591" lon="19.89160062529568"><ele>37.0</ele><time>2026-04-27T09:58:20.001Z</time></trkpt><trkpt lat="40.752873481442116" lon="19.891724709425564"><ele>37.0</ele><time>2026-04-27T09:58:21.001Z</time></trkpt><trkpt lat="40.75281467247385" lon="19.891824252125126"><ele>37.0</ele><time>2026-04-27T09:58:22.001Z</time></trkpt><trkpt lat="40.752699744952615" lon="19.891885904474055"><ele>37.0</ele><time>2026-04-27T09:58:23.001Z</time></trkpt><trkpt lat="40.7525635493368" lon="19.89198368040254"><ele>37.66666666666667</ele><time>2026-04-27T09:58:24.001Z</time></trkpt><trkpt lat="40.752437520010595" lon="19.8921315418115"><ele>38.333333333333336</ele><time>2026-04-27T09:58:25.001Z</time></trkpt><trkpt lat="40.752310720185655" lon="19.892283213758198"><ele>39.0</ele><time>2026-04-27T09:58:26.001Z</time></trkpt><trkpt lat="40.752210300864625" lon="19.892468023263046"><ele>36.666666666666664</ele><time>2026-04-27T09:58:27.001Z</time></trkpt><trkpt lat="40.75212938546336" lon="19.892667083179077"><ele>34.33333333333333</ele><time>2026-04-27T09:58:28.001Z</time></trkpt><trkpt lat="40.75206506188798" lon="19.892843727433565"><ele>32.0</ele><time>2026-04-27T09:58:29.001Z</time></trkpt><trkpt lat="40.75200129935689" lon="19.89299992156958"><ele>32.0</ele><time>2026-04-27T09:58:30.001Z</time></trkpt><trkpt lat="40.751932121514095" lon="19.893158217302087"><ele>32.0</ele><time>2026-04-27T09:58:31.001Z</time></trkpt><trkpt lat="40.751836063128515" lon="19.89330297287556"><ele>32.0</ele><time>2026-04-27T09:58:32.001Z</time></trkpt><trkpt lat="40.75175917183633" lon="19.893482556617762"><ele>32.0</ele><time>2026-04-27T09:58:33.001Z</time></trkpt><trkpt lat="40.751684732199884" lon="19.893666631470357"><ele>35.33333333333333</ele><time>2026-04-27T09:58:34.001Z</time></trkpt><trkpt lat="40.75164037981918" lon="19.893875325493795"><ele>38.666666666666664</ele><time>2026-04-27T09:58:35.001Z</time></trkpt><trkpt lat="40.751596913702656" lon="19.894084117065155"><ele>42.0</ele><time>2026-04-27T09:58:36.001Z</time></trkpt><trkpt lat="40.75154026933963" lon="19.89428731515443"><ele>42.0</ele><time>2026-04-27T09:58:37.001Z</time></trkpt><trkpt lat="40.75147647391396" lon="19.894488279722264"><ele>42.0</ele><time>2026-04-27T09:58:38.001Z</time></trkpt><trkpt lat="40.75141663949777" lon="19.894690885164003"><ele>42.0</ele><time>2026-04-27T09:58:39.001Z</time></trkpt><trkpt lat="40.751367149001844" lon="19.894902047051442"><ele>41.0</ele><time>2026-04-27T09:58:40.001Z</time></trkpt><trkpt lat="40.75132969903653" lon="19.895106380758754"><ele>40.0</ele><time>2026-04-27T09:58:41.001Z</time></trkpt><trkpt lat="40.751297480568475" lon="19.89528707211707"><ele>39.0</ele><time>2026-04-27T09:58:42.001Z</time></trkpt><trkpt lat="40.75128036876156" lon="19.895452710184372"><ele>38.0</ele><time>2026-04-27T09:58:43.001Z</time></trkpt><trkpt lat="40.75128723804653" lon="19.89563221658546"><ele>38.0</ele><time>2026-04-27T09:58:44.001Z</time></trkpt><trkpt lat="40.75131236432184" lon="19.895828360567453"><ele>38.0</ele><time>2026-04-27T09:58:45.001Z</time></trkpt><trkpt lat="40.75133747392205" lon="19.89602745894456"><ele>38.0</ele><time>2026-04-27T09:58:46.001Z</time></trkpt><trkpt lat="40.75136142208749" lon="19.896221301995745"><ele>38.0</ele><time>2026-04-27T09:58:47.001Z</time></trkpt><trkpt lat="40.751388478954034" lon="19.896393856256246"><ele>38.0</ele><time>2026-04-27T09:58:48.001Z</time></trkpt><trkpt lat="40.75141406398454" lon="19.896536745203147"><ele>38.0</ele><time>2026-04-27T09:58:49.001Z</time></trkpt><trkpt lat="40.751438357207306" lon="19.896653980066823"><ele>38.0</ele><time>2026-04-27T09:58:50.001Z</time></trkpt><trkpt lat="40.751456584700954" lon="19.89676053491834"><ele>38.0</ele><time>2026-04-27T09:58:51.001Z</time></trkpt><trkpt lat="40.75147769204717" lon="19.896858981204563"><ele>37.8</ele><time>2026-04-27T09:58:52.001Z</time></trkpt><trkpt lat="40.75146633407361" lon="19.897025169595835"><ele>37.599999999999994</ele><time>2026-04-27T09:58:54.001Z</time></trkpt><trkpt lat="40.75142317246311" lon="19.897116434508163"><ele>37.400000000000006</ele><time>2026-04-27T09:58:55.001Z</time></trkpt><trkpt lat="40.75131662757379" lon="19.89716855411964"><ele>37.2</ele><time>2026-04-27T09:58:56.001Z</time></trkpt><trkpt lat="40.75122399589509" lon="19.89727603533371"><ele>37.0</ele><time>2026-04-27T09:58:57.001Z</time></trkpt><trkpt lat="40.751137626507585" lon="19.89740134522049"><ele>37.0</ele><time>2026-04-27T09:58:58.001Z</time></trkpt><trkpt lat="40.75106795475647" lon="19.897557208907546"><ele>37.0</ele><time>2026-04-27T09:58:59.001Z</time></trkpt><trkpt lat="40.750995063706895" lon="19.89769395568744"><ele>37.0</ele><time>2026-04-27T09:59:00.001Z</time></trkpt><trkpt lat="40.75094967686752" lon="19.897829558104345"><ele>37.0</ele><time>2026-04-27T09:59:01.001Z</time></trkpt><trkpt lat="40.75089670089421" lon="19.897973711377837"><ele>38.400000000000006</ele><time>2026-04-27T09:59:02.001Z</time></trkpt><trkpt lat="40.75086414735931" lon="19.898092217020743"><ele>39.800000000000004</ele><time>2026-04-27T09:59:03.001Z</time></trkpt><trkpt lat="40.75081005957758" lon="19.8981806645875"><ele>41.2</ele><time>2026-04-27T09:59:04.001Z</time></trkpt><trkpt lat="40.75068485374809" lon="19.89820949101607"><ele>42.6</ele><time>2026-04-27T09:59:05.001Z</time></trkpt><trkpt lat="40.750573386378136" lon="19.898287280220792"><ele>44.0</ele><time>2026-04-27T09:59:06.001Z</time></trkpt><trkpt lat="40.75047079551813" lon="19.898358930240477"><ele>42.0</ele><time>2026-04-27T09:59:07.001Z</time></trkpt><trkpt lat="40.75040505515897" lon="19.898537146251027"><ele>40.0</ele><time>2026-04-27T09:59:08.001Z</time></trkpt><trkpt lat="40.7503154198509" lon="19.898714405512138"><ele>38.0</ele><time>2026-04-27T09:59:09.001Z</time></trkpt><trkpt lat="40.75022960443982" lon="19.898877367416166"><ele>39.5</ele><time>2026-04-27T09:59:10.001Z</time></trkpt><trkpt lat="40.75016923544952" lon="19.89901526437686"><ele>41.0</ele><time>2026-04-27T09:59:11.001Z</time></trkpt><trkpt lat="40.75011351313607" lon="19.89912729899225"><ele>42.5</ele><time>2026-04-27T09:59:12.001Z</time></trkpt><trkpt lat="40.75004358408329" lon="19.899249967986304"><ele>44.0</ele><time>2026-04-27T09:59:13.001Z</time></trkpt><trkpt lat="40.74996987631077" lon="19.899388843288758"><ele>44.0</ele><time>2026-04-27T09:59:14.001Z</time></trkpt><trkpt lat="40.74988436738546" lon="19.899505708579333"><ele>44.0</ele><time>2026-04-27T09:59:15.001Z</time></trkpt><trkpt lat="40.74981466728128" lon="19.899652488400985"><ele>44.0</ele><time>2026-04-27T09:59:16.001Z</time></trkpt><trkpt lat="40.749764768185116" lon="19.899815289469274"><ele>44.0</ele><time>2026-04-27T09:59:17.001Z</time></trkpt><trkpt lat="40.74972068217601" lon="19.899985112164615"><ele>42.5</ele><time>2026-04-27T09:59:18.001Z</time></trkpt><trkpt lat="40.74967329085221" lon="19.90012972538695"><ele>41.0</ele><time>2026-04-27T09:59:19.001Z</time></trkpt><trkpt lat="40.749555282572516" lon="19.900221634449967"><ele>39.5</ele><time>2026-04-27T09:59:20.001Z</time></trkpt><trkpt lat="40.749485749601746" lon="19.90037364231145"><ele>38.0</ele><time>2026-04-27T09:59:21.001Z</time></trkpt><trkpt lat="40.74940916208506" lon="19.900524046405277"><ele>37.0</ele><time>2026-04-27T09:59:22.001Z</time></trkpt><trkpt lat="40.74936092087438" lon="19.9007278915503"><ele>36.0</ele><time>2026-04-27T09:59:23.001Z</time></trkpt><trkpt lat="40.74933434480931" lon="19.900919771676197"><ele>35.0</ele><time>2026-04-27T09:59:24.001Z</time></trkpt><trkpt lat="40.74934657031879" lon="19.90109831017297"><ele>34.0</ele><time>2026-04-27T09:59:25.001Z</time></trkpt><trkpt lat="40.74937980708806" lon="19.901271687228704"><ele>34.0</ele><time>2026-04-27T09:59:26.001Z</time></trkpt><trkpt lat="40.749417277806316" lon="19.901401691760253"><ele>34.0</ele><time>2026-04-27T09:59:27.001Z</time></trkpt><trkpt lat="40.74943178643924" lon="19.90150245402868"><ele>34.0</ele><time>2026-04-27T09:59:28.001Z</time></trkpt><trkpt lat="40.749367875053885" lon="19.901609763743156"><ele>34.0</ele><time>2026-04-27T09:59:29.001Z</time></trkpt><trkpt lat="40.749319112952385" lon="19.901785947331042"><ele>34.0</ele><time>2026-04-27T09:59:30.001Z</time></trkpt><trkpt lat="40.749264980881684" lon="19.901994690412852"><ele>35.333333333333336</ele><time>2026-04-27T09:59:31.001Z</time></trkpt><trkpt lat="40.74919944742944" lon="19.902214834543496"><ele>36.666666666666664</ele><time>2026-04-27T09:59:32.001Z</time></trkpt><trkpt lat="40.74913252157244" lon="19.90245453440725"><ele>38.0</ele><time>2026-04-27T09:59:33.001Z</time></trkpt><trkpt lat="40.74907068707176" lon="19.902691417970424"><ele>38.0</ele><time>2026-04-27T09:59:34.001Z</time></trkpt><trkpt lat="40.74903134643432" lon="19.902910380266015"><ele>38.0</ele><time>2026-04-27T09:59:35.001Z</time></trkpt><trkpt lat="40.74897746837997" lon="19.903123941318537"><ele>38.0</ele><time>2026-04-27T09:59:36.001Z</time></trkpt><trkpt lat="40.74891586773903" lon="19.903322235164996"><ele>37.25</ele><time>2026-04-27T09:59:37.001Z</time></trkpt><trkpt lat="40.74885579641537" lon="19.903501575312042"><ele>36.5</ele><time>2026-04-27T09:59:38.001Z</time></trkpt><trkpt lat="40.74884608965235" lon="19.90368072598235"><ele>35.75</ele><time>2026-04-27T09:59:39.001Z</time></trkpt><trkpt lat="40.748826655780896" lon="19.903857572687308"><ele>35.0</ele><time>2026-04-27T09:59:40.001Z</time></trkpt><trkpt lat="40.74879191562938" lon="19.904035826307247"><ele>35.0</ele><time>2026-04-27T09:59:41.001Z</time></trkpt><trkpt lat="40.74873843559416" lon="19.904182650948158"><ele>35.0</ele><time>2026-04-27T09:59:42.001Z</time></trkpt><trkpt lat="40.7486715453181" lon="19.90432721927584"><ele>35.0</ele><time>2026-04-27T09:59:43.001Z</time></trkpt><trkpt lat="40.74856548813659" lon="19.904423419952813"><ele>35.0</ele><time>2026-04-27T09:59:44.001Z</time></trkpt><trkpt lat="40.748480323912275" lon="19.90451128417338"><ele>35.6</ele><time>2026-04-27T09:59:45.001Z</time></trkpt><trkpt lat="40.74837258670335" lon="19.904510148645418"><ele>36.2</ele><time>2026-04-27T09:59:46.001Z</time></trkpt><trkpt lat="40.74824511190458" lon="19.904529251679232"><ele>36.8</ele><time>2026-04-27T09:59:47.001Z</time></trkpt><trkpt lat="40.74814638402673" lon="19.904548681969636"><ele>37.4</ele><time>2026-04-27T09:59:48.001Z</time></trkpt><trkpt lat="40.74807241715627" lon="19.904611290888223"><ele>38.0</ele><time>2026-04-27T09:59:49.001Z</time></trkpt><trkpt lat="40.74803246141641" lon="19.90471273635393"><ele>38.0</ele><time>2026-04-27T09:59:50.001Z</time></trkpt><trkpt lat="40.747995831869375" lon="19.904809230549862"><ele>38.0</ele><time>2026-04-27T09:59:51.001Z</time></trkpt><trkpt lat="40.747967612623796" lon="19.904925173426744"><ele>38.0</ele><time>2026-04-27T09:59:52.001Z</time></trkpt><trkpt lat="40.74794011309805" lon="19.905049004695314"><ele>38.0</ele><time>2026-04-27T09:59:53.001Z</time></trkpt><trkpt lat="40.74791562713858" lon="19.905183257105573"><ele>38.0</ele><time>2026-04-27T09:59:54.001Z</time></trkpt><trkpt lat="40.74790442078367" lon="19.90532385333185"><ele>37.8</ele><time>2026-04-27T09:59:55.001Z</time></trkpt><trkpt lat="40.74791274543752" lon="19.905466303990472"><ele>37.599999999999994</ele><time>2026-04-27T09:59:56.001Z</time></trkpt><trkpt lat="40.74793827055303" lon="19.905589635133175"><ele>37.400000000000006</ele><time>2026-04-27T09:59:57.001Z</time></trkpt><trkpt lat="40.74793697134547" lon="19.90571027719717"><ele>37.2</ele><time>2026-04-27T09:59:58.001Z</time></trkpt><trkpt lat="40.74791486193413" lon="19.905861933804"><ele>37.0</ele><time>2026-04-27T09:59:59.001Z</time></trkpt><trkpt lat="40.74785895147526" lon="19.906006603905297"><ele>37.0</ele><time>2026-04-27T10:00:00.001Z</time></trkpt><trkpt lat="40.747789635044526" lon="19.906149461071752"><ele>37.0</ele><time>2026-04-27T10:00:01.001Z</time></trkpt><trkpt lat="40.74770713763091" lon="19.906240280620015"><ele>37.0</ele><time>2026-04-27T10:00:02.001Z</time></trkpt><trkpt lat="40.74761152413888" lon="19.906323016612777"><ele>37.0</ele><time>2026-04-27T10:00:03.001Z</time></trkpt><trkpt lat="40.74750744819018" lon="19.906387201327586"><ele>37.0</ele><time>2026-04-27T10:00:04.001Z</time></trkpt><trkpt lat="40.74740814400876" lon="19.90639778356321"><ele>37.0</ele><time>2026-04-27T10:00:05.001Z</time></trkpt><trkpt lat="40.747296621192504" lon="19.90638509428419"><ele>37.0</ele><time>2026-04-27T10:00:06.001Z</time></trkpt><trkpt lat="40.747189638507" lon="19.90638200869586"><ele>37.0</ele><time>2026-04-27T10:00:07.001Z</time></trkpt><trkpt lat="40.74708261419749" lon="19.906365190203378"><ele>37.0</ele><time>2026-04-27T10:00:08.001Z</time></trkpt><trkpt lat="40.74698848427386" lon="19.90628789356175"><ele>37.0</ele><time>2026-04-27T10:00:09.001Z</time></trkpt><trkpt lat="40.7469050121392" lon="19.90616106840433"><ele>37.0</ele><time>2026-04-27T10:00:10.001Z</time></trkpt><trkpt lat="40.74682280313893" lon="19.9060372015544"><ele>37.0</ele><time>2026-04-27T10:00:11.001Z</time></trkpt><trkpt lat="40.746738448015186" lon="19.905930770157276"><ele>37.0</ele><time>2026-04-27T10:00:12.001Z</time></trkpt><trkpt lat="40.74664896670217" lon="19.9058647450947"><ele>37.0</ele><time>2026-04-27T10:00:13.001Z</time></trkpt><trkpt lat="40.746541129593304" lon="19.905856100696393"><ele>37.0</ele><time>2026-04-27T10:00:14.001Z</time></trkpt><trkpt lat="40.746454298118955" lon="19.905860449962805"><ele>37.0</ele><time>2026-04-27T10:00:15.001Z</time></trkpt><trkpt lat="40.74637359079511" lon="19.905890785476235"><ele>37.0</ele><time>2026-04-27T10:00:16.001Z</time></trkpt><trkpt lat="40.74629439921067" lon="19.905954803470358"><ele>37.0</ele><time>2026-04-27T10:00:17.001Z</time></trkpt><trkpt lat="40.74620300573089" lon="19.90601475386972"><ele>37.0</ele><time>2026-04-27T10:00:18.001Z</time></trkpt><trkpt lat="40.74610387466057" lon="19.906072669519784"><ele>37.0</ele><time>2026-04-27T10:00:19.001Z</time></trkpt><trkpt lat="40.74600234133484" lon="19.906131210943446"><ele>37.0</ele><time>2026-04-27T10:00:20.001Z</time></trkpt><trkpt lat="40.74591035445895" lon="19.906246987373105"><ele>37.0</ele><time>2026-04-27T10:00:21.001Z</time></trkpt><trkpt lat="40.745830651215734" lon="19.9063344637001"><ele>37.0</ele><time>2026-04-27T10:00:22.001Z</time></trkpt><trkpt lat="40.74577477416681" lon="19.90639579357131"><ele>37.0</ele><time>2026-04-27T10:00:23.001Z</time></trkpt><trkpt lat="40.745708175501576" lon="19.906391920561347"><ele>37.0</ele><time>2026-04-27T10:00:24.001Z</time></trkpt><trkpt lat="40.745612214295775" lon="19.906419742402093"><ele>37.0</ele><time>2026-04-27T10:00:25.001Z</time></trkpt><trkpt lat="40.74549488173184" lon="19.906445823385724"><ele>37.0</ele><time>2026-04-27T10:00:26.001Z</time></trkpt><trkpt lat="40.74539382398122" lon="19.906484809875227"><ele>37.0</ele><time>2026-04-27T10:00:27.001Z</time></trkpt><trkpt lat="40.74530752693535" lon="19.90651883305879"><ele>37.0</ele><time>2026-04-27T10:00:28.001Z</time></trkpt><trkpt lat="40.745213464009645" lon="19.906569052231934"><ele>37.0</ele><time>2026-04-27T10:00:29.001Z</time></trkpt><trkpt lat="40.74511678801112" lon="19.90664358413155"><ele>37.0</ele><time>2026-04-27T10:00:30.001Z</time></trkpt><trkpt lat="40.745020160161324" lon="19.906731260864944"><ele>37.0</ele><time>2026-04-27T10:00:31.001Z</time></trkpt><trkpt lat="40.74492275423332" lon="19.906845879000883"><ele>36.5</ele><time>2026-04-27T10:00:32.001Z</time></trkpt><trkpt lat="40.74484998563866" lon="19.906955155915444"><ele>36.0</ele><time>2026-04-27T10:00:33.001Z</time></trkpt><trkpt lat="40.744791527278984" lon="19.907062565321663"><ele>35.5</ele><time>2026-04-27T10:00:34.001Z</time></trkpt><trkpt lat="40.74474921004912" lon="19.90720384531063"><ele>35.0</ele><time>2026-04-27T10:00:35.001Z</time></trkpt><trkpt lat="40.74472355501545" lon="19.907364104715572"><ele>35.0</ele><time>2026-04-27T10:00:36.001Z</time></trkpt><trkpt lat="40.74467306685146" lon="19.90751329585775"><ele>35.0</ele><time>2026-04-27T10:00:37.001Z</time></trkpt><trkpt lat="40.74462006421729" lon="19.907639195437614"><ele>35.0</ele><time>2026-04-27T10:00:38.001Z</time></trkpt><trkpt lat="40.74455070656576" lon="19.90772648485944"><ele>35.0</ele><time>2026-04-27T10:00:39.001Z</time></trkpt><trkpt lat="40.74446926640632" lon="19.907779412011703"><ele>35.0</ele><time>2026-04-27T10:00:40.001Z</time></trkpt><trkpt lat="40.744369893967" lon="19.907807962803474"><ele>34.75</ele><time>2026-04-27T10:00:41.001Z</time></trkpt><trkpt lat="40.74426795479151" lon="19.907796332136513"><ele>34.5</ele><time>2026-04-27T10:00:42.001Z</time></trkpt><trkpt lat="40.744143893387545" lon="19.90779749588529"><ele>34.25</ele><time>2026-04-27T10:00:43.001Z</time></trkpt><trkpt lat="40.743985622274955" lon="19.907824961619063"><ele>34.0</ele><time>2026-04-27T10:00:44.001Z</time></trkpt><trkpt lat="40.74387545830069" lon="19.907891486077915"><ele>34.0</ele><time>2026-04-27T10:00:45.001Z</time></trkpt><trkpt lat="40.74375014739506" lon="19.90794932023634"><ele>34.0</ele><time>2026-04-27T10:00:46.001Z</time></trkpt><trkpt lat="40.743625474943265" lon="19.90802466914869"><ele>34.0</ele><time>2026-04-27T10:00:47.001Z</time></trkpt><trkpt lat="40.74352612438515" lon="19.908089704245032"><ele>34.0</ele><time>2026-04-27T10:00:48.001Z</time></trkpt><trkpt lat="40.743438127897655" lon="19.908122476135485"><ele>35.5</ele><time>2026-04-27T10:00:49.001Z</time></trkpt><trkpt lat="40.743359644888706" lon="19.908125599519682"><ele>37.0</ele><time>2026-04-27T10:00:50.001Z</time></trkpt><trkpt lat="40.74326894950511" lon="19.908103669597956"><ele>38.5</ele><time>2026-04-27T10:00:51.001Z</time></trkpt><trkpt lat="40.74313516200628" lon="19.9080881256222"><ele>40.0</ele><time>2026-04-27T10:00:52.001Z</time></trkpt><trkpt lat="40.742982081053846" lon="19.908100178449903"><ele>40.0</ele><time>2026-04-27T10:00:53.001Z</time></trkpt><trkpt lat="40.74282926272674" lon="19.908107610423606"><ele>40.0</ele><time>2026-04-27T10:00:54.001Z</time></trkpt><trkpt lat="40.74269238840172" lon="19.908114141139563"><ele>40.0</ele><time>2026-04-27T10:00:55.001Z</time></trkpt><trkpt lat="40.74257523647683" lon="19.908120154064708"><ele>40.0</ele><time>2026-04-27T10:00:56.001Z</time></trkpt><trkpt lat="40.742461244699854" lon="19.90813386649736"><ele>40.0</ele><time>2026-04-27T10:00:57.001Z</time></trkpt><trkpt lat="40.742357531932086" lon="19.908203204093294"><ele>40.0</ele><time>2026-04-27T10:00:58.001Z</time></trkpt><trkpt lat="40.74225263308595" lon="19.90828742592812"><ele>40.0</ele><time>2026-04-27T10:00:59.001Z</time></trkpt><trkpt lat="40.742146218382985" lon="19.908398562102864"><ele>40.0</ele><time>2026-04-27T10:01:00.001Z</time></trkpt><trkpt lat="40.742032079065865" lon="19.908525419429253"><ele>40.75</ele><time>2026-04-27T10:01:01.001Z</time></trkpt><trkpt lat="40.74193180270478" lon="19.90863848579673"><ele>41.5</ele><time>2026-04-27T10:01:02.001Z</time></trkpt><trkpt lat="40.74185559009631" lon="19.908765891661332"><ele>42.25</ele><time>2026-04-27T10:01:03.001Z</time></trkpt><trkpt lat="40.741786334082626" lon="19.908921292429415"><ele>43.0</ele><time>2026-04-27T10:01:04.001Z</time></trkpt><trkpt lat="40.74171023545195" lon="19.909088876764276"><ele>43.0</ele><time>2026-04-27T10:01:05.001Z</time></trkpt><trkpt lat="40.741593304068864" lon="19.909224357345547"><ele>43.0</ele><time>2026-04-27T10:01:06.001Z</time></trkpt><trkpt lat="40.74147402915677" lon="19.90937514968721"><ele>43.0</ele><time>2026-04-27T10:01:07.001Z</time></trkpt><trkpt lat="40.741349743849206" lon="19.909532884519265"><ele>43.75</ele><time>2026-04-27T10:01:08.001Z</time></trkpt><trkpt lat="40.741242485866316" lon="19.90966873484161"><ele>44.5</ele><time>2026-04-27T10:01:09.001Z</time></trkpt><trkpt lat="40.74115460606394" lon="19.90976050295969"><ele>45.25</ele><time>2026-04-27T10:01:10.001Z</time></trkpt><trkpt lat="40.74106008641481" lon="19.909845641441073"><ele>46.0</ele><time>2026-04-27T10:01:11.001Z</time></trkpt><trkpt lat="40.74094788461772" lon="19.909897474868202"><ele>46.0</ele><time>2026-04-27T10:01:12.001Z</time></trkpt><trkpt lat="40.74082659749701" lon="19.909969602015977"><ele>46.0</ele><time>2026-04-27T10:01:13.001Z</time></trkpt><trkpt lat="40.74069653798602" lon="19.910046946842375"><ele>46.0</ele><time>2026-04-27T10:01:14.001Z</time></trkpt><trkpt lat="40.7405645090367" lon="19.910077451320234"><ele>46.0</ele><time>2026-04-27T10:01:15.001Z</time></trkpt><trkpt lat="40.740442511366425" lon="19.910052270936646"><ele>46.0</ele><time>2026-04-27T10:01:16.001Z</time></trkpt><trkpt lat="40.740335166831024" lon="19.910052197474958"><ele>46.0</ele><time>2026-04-27T10:01:17.001Z</time></trkpt><trkpt lat="40.74024749770731" lon="19.9100521974751"><ele>46.0</ele><time>2026-04-27T10:01:18.001Z</time></trkpt><trkpt lat="40.740164696270014" lon="19.910103932033113"><ele>46.0</ele><time>2026-04-27T10:01:19.001Z</time></trkpt><trkpt lat="40.7400895642674" lon="19.910243468809277"><ele>46.0</ele><time>2026-04-27T10:01:20.001Z</time></trkpt><trkpt lat="40.739969133192496" lon="19.910348302790442"><ele>43.0</ele><time>2026-04-27T10:01:21.001Z</time></trkpt><trkpt lat="40.73983362210064" lon="19.910487358046982"><ele>40.0</ele><time>2026-04-27T10:01:22.001Z</time></trkpt><trkpt lat="40.73970645283491" lon="19.91061734537629"><ele>37.0</ele><time>2026-04-27T10:01:23.001Z</time></trkpt><trkpt lat="40.73960538729286" lon="19.91071726227117"><ele>37.0</ele><time>2026-04-27T10:01:24.001Z</time></trkpt><trkpt lat="40.73950614074095" lon="19.910778363046504"><ele>37.0</ele><time>2026-04-27T10:01:25.001Z</time></trkpt><trkpt lat="40.73937986839893" lon="19.910814219504665"><ele>37.0</ele><time>2026-04-27T10:01:26.001Z</time></trkpt><trkpt lat="40.73923116337755" lon="19.910855233997655"><ele>37.0</ele><time>2026-04-27T10:01:27.001Z</time></trkpt><trkpt lat="40.7390664452918" lon="19.910900265626264"><ele>36.66666666666667</ele><time>2026-04-27T10:01:28.001Z</time></trkpt><trkpt lat="40.73889037619384" lon="19.91094857037991"><ele>36.333333333333336</ele><time>2026-04-27T10:01:29.001Z</time></trkpt><trkpt lat="40.73872861128779" lon="19.910992523844545"><ele>36.0</ele><time>2026-04-27T10:01:30.001Z</time></trkpt><trkpt lat="40.73856695616496" lon="19.911044125543228"><ele>37.333333333333336</ele><time>2026-04-27T10:01:31.001Z</time></trkpt><trkpt lat="40.73841957252612" lon="19.911108581389335"><ele>38.66666666666667</ele><time>2026-04-27T10:01:32.001Z</time></trkpt><trkpt lat="40.738290795039596" lon="19.91121678486086"><ele>40.0</ele><time>2026-04-27T10:01:33.001Z</time></trkpt><trkpt lat="40.738149877736795" lon="19.91132384642269"><ele>40.0</ele><time>2026-04-27T10:01:34.001Z</time></trkpt><trkpt lat="40.73800489904115" lon="19.91142248974148"><ele>40.0</ele><time>2026-04-27T10:01:35.001Z</time></trkpt><trkpt lat="40.73787319524545" lon="19.9115262050512"><ele>40.0</ele><time>2026-04-27T10:01:36.001Z</time></trkpt><trkpt lat="40.73776356779082" lon="19.911595790951278"><ele>40.0</ele><time>2026-04-27T10:01:37.001Z</time></trkpt><trkpt lat="40.737685172693276" lon="19.9116396592716"><ele>40.66666666666667</ele><time>2026-04-27T10:01:38.001Z</time></trkpt><trkpt lat="40.73761067020399" lon="19.911644568428457"><ele>41.333333333333336</ele><time>2026-04-27T10:01:39.001Z</time></trkpt><trkpt lat="40.7375374243652" lon="19.911630449549047"><ele>42.0</ele><time>2026-04-27T10:01:40.001Z</time></trkpt><trkpt lat="40.737457099834074" lon="19.911569951062837"><ele>42.666666666666664</ele><time>2026-04-27T10:01:41.001Z</time></trkpt><trkpt lat="40.73736548555041" lon="19.911517475208917"><ele>43.33333333333333</ele><time>2026-04-27T10:01:42.001Z</time></trkpt><trkpt lat="40.737287489669995" lon="19.911522852549087"><ele>44.0</ele><time>2026-04-27T10:01:43.001Z</time></trkpt><trkpt lat="40.73721224491682" lon="19.911492811118283"><ele>44.0</ele><time>2026-04-27T10:01:44.001Z</time></trkpt><trkpt lat="40.73710559925433" lon="19.91158051102582"><ele>44.0</ele><time>2026-04-27T10:01:45.001Z</time></trkpt><trkpt lat="40.736992886139035" lon="19.911606425645196"><ele>44.0</ele><time>2026-04-27T10:01:46.001Z</time></trkpt><trkpt lat="40.736877952979775" lon="19.911654107169415"><ele>44.0</ele><time>2026-04-27T10:01:47.001Z</time></trkpt><trkpt lat="40.73674986977365" lon="19.911661142745423"><ele>44.25</ele><time>2026-04-27T10:01:48.001Z</time></trkpt><trkpt lat="40.7366159148808" lon="19.91165952181646"><ele>44.5</ele><time>2026-04-27T10:01:49.001Z</time></trkpt><trkpt lat="40.7364738766668" lon="19.91164863125345"><ele>44.75</ele><time>2026-04-27T10:01:50.001Z</time></trkpt><trkpt lat="40.73632182904363" lon="19.911642771244303"><ele>45.0</ele><time>2026-04-27T10:01:51.001Z</time></trkpt><trkpt lat="40.73617278959259" lon="19.911641493473095"><ele>45.0</ele><time>2026-04-27T10:01:52.001Z</time></trkpt><trkpt lat="40.736060320658574" lon="19.911637649738125"><ele>45.0</ele><time>2026-04-27T10:01:53.001Z</time></trkpt><trkpt lat="40.735963993349664" lon="19.911630007407638"><ele>45.0</ele><time>2026-04-27T10:01:54.001Z</time></trkpt><trkpt lat="40.735880498334716" lon="19.911619399964756"><ele>45.0</ele><time>2026-04-27T10:01:55.001Z</time></trkpt><trkpt lat="40.735803220439635" lon="19.911608884467952"><ele>45.0</ele><time>2026-04-27T10:01:56.001Z</time></trkpt><trkpt lat="40.73572873227986" lon="19.911600668683366"><ele>45.0</ele><time>2026-04-27T10:01:57.001Z</time></trkpt><trkpt lat="40.73566044345166" lon="19.91160398368817"><ele>45.166666666666664</ele><time>2026-04-27T10:01:58.001Z</time></trkpt><trkpt lat="40.73559129232102" lon="19.911620929097474"><ele>45.333333333333336</ele><time>2026-04-27T10:01:59.001Z</time></trkpt><trkpt lat="40.73551606758262" lon="19.911641696983697"><ele>45.5</ele><time>2026-04-27T10:02:00.001Z</time></trkpt><trkpt lat="40.73543660852525" lon="19.911670747912773"><ele>45.66666666666667</ele><time>2026-04-27T10:02:01.001Z</time></trkpt><trkpt lat="40.73535430116232" lon="19.911710258814374"><ele>45.833333333333336</ele><time>2026-04-27T10:02:02.001Z</time></trkpt><trkpt lat="40.73525784346099" lon="19.91175520975984"><ele>46.0</ele><time>2026-04-27T10:02:03.001Z</time></trkpt><trkpt lat="40.735154305625656" lon="19.911804183021815"><ele>44.75</ele><time>2026-04-27T10:02:04.001Z</time></trkpt><trkpt lat="40.73504141915195" lon="19.911831296933897"><ele>43.5</ele><time>2026-04-27T10:02:05.001Z</time></trkpt><trkpt lat="40.73492340176456" lon="19.911874686722097"><ele>42.25</ele><time>2026-04-27T10:02:06.001Z</time></trkpt><trkpt lat="40.73479097835407" lon="19.911906045289154"><ele>41.0</ele><time>2026-04-27T10:02:07.001Z</time></trkpt><trkpt lat="40.734642775355894" lon="19.91191563915144"><ele>41.0</ele><time>2026-04-27T10:02:08.001Z</time></trkpt><trkpt lat="40.73448200692847" lon="19.911929977262385"><ele>41.0</ele><time>2026-04-27T10:02:09.001Z</time></trkpt><trkpt lat="40.73432424087202" lon="19.911967658760453"><ele>41.0</ele><time>2026-04-27T10:02:10.001Z</time></trkpt><trkpt lat="40.73418243430639" lon="19.91201299747794"><ele>42.0</ele><time>2026-04-27T10:02:11.001Z</time></trkpt><trkpt lat="40.734050663354296" lon="19.91206943100962"><ele>43.0</ele><time>2026-04-27T10:02:12.001Z</time></trkpt><trkpt lat="40.73392058428051" lon="19.912089237499252"><ele>44.0</ele><time>2026-04-27T10:02:13.001Z</time></trkpt><trkpt lat="40.7337757236053" lon="19.912116413354653"><ele>45.0</ele><time>2026-04-27T10:02:14.001Z</time></trkpt><trkpt lat="40.73362765338504" lon="19.912173749240115"><ele>46.0</ele><time>2026-04-27T10:02:15.001Z</time></trkpt><trkpt lat="40.73347049922695" lon="19.912228982246745"><ele>47.0</ele><time>2026-04-27T10:02:16.001Z</time></trkpt><trkpt lat="40.733315833282695" lon="19.91230379745098"><ele>48.0</ele><time>2026-04-27T10:02:17.001Z</time></trkpt><trkpt lat="40.733178308844586" lon="19.91238387018486"><ele>48.0</ele><time>2026-04-27T10:02:18.001Z</time></trkpt><trkpt lat="40.73303583119622" lon="19.91246765410397"><ele>48.0</ele><time>2026-04-27T10:02:19.001Z</time></trkpt><trkpt lat="40.73288430885044" lon="19.91256663460767"><ele>48.0</ele><time>2026-04-27T10:02:20.001Z</time></trkpt><trkpt lat="40.73273859572402" lon="19.912694360104215"><ele>46.666666666666664</ele><time>2026-04-27T10:02:21.001Z</time></trkpt><trkpt lat="40.73260642173307" lon="19.91283549193485"><ele>45.33333333333333</ele><time>2026-04-27T10:02:22.001Z</time></trkpt><trkpt lat="40.73248735187337" lon="19.91296714494787"><ele>44.0</ele><time>2026-04-27T10:02:23.001Z</time></trkpt><trkpt lat="40.732376246479085" lon="19.913098028175042"><ele>44.0</ele><time>2026-04-27T10:02:24.001Z</time></trkpt><trkpt lat="40.732277928133634" lon="19.91322619830263"><ele>44.0</ele><time>2026-04-27T10:02:25.001Z</time></trkpt><trkpt lat="40.73218974839305" lon="19.91334479227437"><ele>44.0</ele><time>2026-04-27T10:02:26.001Z</time></trkpt><trkpt lat="40.73210970481284" lon="19.913462995012434"><ele>44.0</ele><time>2026-04-27T10:02:27.001Z</time></trkpt><trkpt lat="40.7320298500676" lon="19.91359060620939"><ele>43.75</ele><time>2026-04-27T10:02:28.001Z</time></trkpt><trkpt lat="40.73195513392561" lon="19.913728811511305"><ele>43.5</ele><time>2026-04-27T10:02:29.001Z</time></trkpt><trkpt lat="40.731880920919906" lon="19.913858271615016"><ele>43.25</ele><time>2026-04-27T10:02:30.001Z</time></trkpt><trkpt lat="40.73180037366562" lon="19.91396068915654"><ele>43.0</ele><time>2026-04-27T10:02:31.001Z</time></trkpt><trkpt lat="40.731695569984154" lon="19.91405805570554"><ele>43.0</ele><time>2026-04-27T10:02:32.001Z</time></trkpt><trkpt lat="40.73156167280488" lon="19.91412634229901"><ele>43.0</ele><time>2026-04-27T10:02:33.001Z</time></trkpt><trkpt lat="40.73142892105957" lon="19.914217358403093"><ele>43.0</ele><time>2026-04-27T10:02:34.001Z</time></trkpt><trkpt lat="40.731294586891934" lon="19.914312658053852"><ele>43.0</ele><time>2026-04-27T10:02:35.001Z</time></trkpt><trkpt lat="40.73115142540848" lon="19.914413201170568"><ele>42.333333333333336</ele><time>2026-04-27T10:02:36.001Z</time></trkpt><trkpt lat="40.73100405562554" lon="19.91451841628617"><ele>41.666666666666664</ele><time>2026-04-27T10:02:37.001Z</time></trkpt><trkpt lat="40.73084923274911" lon="19.914627148125337"><ele>41.0</ele><time>2026-04-27T10:02:38.001Z</time></trkpt><trkpt lat="40.730697130132654" lon="19.9147345867448"><ele>41.0</ele><time>2026-04-27T10:02:39.001Z</time></trkpt><trkpt lat="40.73056012156777" lon="19.914830883434913"><ele>41.0</ele><time>2026-04-27T10:02:40.001Z</time></trkpt><trkpt lat="40.73044294722749" lon="19.914957231419855"><ele>41.0</ele><time>2026-04-27T10:02:41.001Z</time></trkpt><trkpt lat="40.730339401467525" lon="19.915095763791822"><ele>40.666666666666664</ele><time>2026-04-27T10:02:42.001Z</time></trkpt><trkpt lat="40.730245235813285" lon="19.915249533864017"><ele>40.333333333333336</ele><time>2026-04-27T10:02:43Z</time></trkpt><trkpt lat="40.730148426289524" lon="19.915407621191687"><ele>40.0</ele><time>2026-04-27T10:02:44Z</time></trkpt><trkpt lat="40.73002978788163" lon="19.915532952400703"><ele>40.0</ele><time>2026-04-27T10:02:45Z</time></trkpt><trkpt lat="40.72988880570052" lon="19.915653939203136"><ele>40.0</ele><time>2026-04-27T10:02:46Z</time></trkpt><trkpt lat="40.72973754248256" lon="19.9157892271237"><ele>40.0</ele><time>2026-04-27T10:02:47Z</time></trkpt><trkpt lat="40.7295772090329" lon="19.915933538682953"><ele>40.0</ele><time>2026-04-27T10:02:48Z</time></trkpt><trkpt lat="40.72940820304986" lon="19.91608458825463"><ele>40.0</ele><time>2026-04-27T10:02:49Z</time></trkpt><trkpt lat="40.72924626976663" lon="19.9162293166295"><ele>40.0</ele><time>2026-04-27T10:02:50Z</time></trkpt><trkpt lat="40.72910035546151" lon="19.91636044659524"><ele>40.0</ele><time>2026-04-27T10:02:51Z</time></trkpt><trkpt lat="40.72896422278429" lon="19.916481699162148"><ele>40.0</ele><time>2026-04-27T10:02:52Z</time></trkpt><trkpt lat="40.7288199586598" lon="19.916581282066353"><ele>40.0</ele><time>2026-04-27T10:02:53Z</time></trkpt><trkpt lat="40.72866085352943" lon="19.916677770995147"><ele>40.66666666666667</ele><time>2026-04-27T10:02:54Z</time></trkpt><trkpt lat="40.72850493910824" lon="19.916772324917545"><ele>41.333333333333336</ele><time>2026-04-27T10:02:55Z</time></trkpt><trkpt lat="40.728369153086796" lon="19.91687404941035"><ele>42.0</ele><time>2026-04-27T10:02:56Z</time></trkpt><trkpt lat="40.72823491040181" lon="19.91694545970232"><ele>42.0</ele><time>2026-04-27T10:02:57Z</time></trkpt><trkpt lat="40.728114662439644" lon="19.91700675101474"><ele>42.0</ele><time>2026-04-27T10:02:58Z</time></trkpt><trkpt lat="40.72800324821239" lon="19.917069536168835"><ele>42.0</ele><time>2026-04-27T10:02:59Z</time></trkpt><trkpt lat="40.72788556494221" lon="19.91714226361945"><ele>42.0</ele><time>2026-04-27T10:03:00Z</time></trkpt><trkpt lat="40.72776555556689" lon="19.917226754563966"><ele>42.5</ele><time>2026-04-27T10:03:01Z</time></trkpt><trkpt lat="40.72763702986428" lon="19.917297322402053"><ele>43.0</ele><time>2026-04-27T10:03:02Z</time></trkpt><trkpt lat="40.72751087487036" lon="19.91738424582022"><ele>43.5</ele><time>2026-04-27T10:03:03Z</time></trkpt><trkpt lat="40.72738763657874" lon="19.917492510828797"><ele>44.0</ele><time>2026-04-27T10:03:04Z</time></trkpt><trkpt lat="40.727256484436914" lon="19.917582198560556"><ele>44.0</ele><time>2026-04-27T10:03:05Z</time></trkpt><trkpt lat="40.72714186331069" lon="19.917658713330695"><ele>44.0</ele><time>2026-04-27T10:03:06Z</time></trkpt><trkpt lat="40.72704311798239" lon="19.917733084630406"><ele>44.0</ele><time>2026-04-27T10:03:07Z</time></trkpt><trkpt lat="40.72693369454984" lon="19.91778951706149"><ele>44.0</ele><time>2026-04-27T10:03:08Z</time></trkpt><trkpt lat="40.72681925221882" lon="19.91787119905104"><ele>44.0</ele><time>2026-04-27T10:03:09Z</time></trkpt><trkpt lat="40.72670208999773" lon="19.9179540769894"><ele>44.0</ele><time>2026-04-27T10:03:10Z</time></trkpt><trkpt lat="40.72657850794339" lon="19.91804204997935"><ele>44.0</ele><time>2026-04-27T10:03:11Z</time></trkpt><trkpt lat="40.726450859095436" lon="19.91813361133947"><ele>44.0</ele><time>2026-04-27T10:03:12Z</time></trkpt><trkpt lat="40.72631910912087" lon="19.918227900128194"><ele>44.0</ele><time>2026-04-27T10:03:13Z</time></trkpt><trkpt lat="40.72618628679574" lon="19.91834320827179"><ele>44.0</ele><time>2026-04-27T10:03:14Z</time></trkpt><trkpt lat="40.72604858504572" lon="19.918435966797333"><ele>44.0</ele><time>2026-04-27T10:03:15Z</time></trkpt><trkpt lat="40.72592124473511" lon="19.918526060112974"><ele>43.33333333333333</ele><time>2026-04-27T10:03:16Z</time></trkpt><trkpt lat="40.72578806786794" lon="19.918622032061005"><ele>42.666666666666664</ele><time>2026-04-27T10:03:17Z</time></trkpt><trkpt lat="40.72565440587949" lon="19.918719252030883"><ele>42.0</ele><time>2026-04-27T10:03:18Z</time></trkpt><trkpt lat="40.7255173923034" lon="19.918818281885816"><ele>42.0</ele><time>2026-04-27T10:03:19Z</time></trkpt><trkpt lat="40.72537682166693" lon="19.91892067538548"><ele>42.0</ele><time>2026-04-27T10:03:20Z</time></trkpt><trkpt lat="40.725236025252826" lon="19.919000465191978"><ele>42.0</ele><time>2026-04-27T10:03:21Z</time></trkpt><trkpt lat="40.725116661539836" lon="19.919085346056267"><ele>42.0</ele><time>2026-04-27T10:03:22Z</time></trkpt><trkpt lat="40.72500591854233" lon="19.9191640966346"><ele>42.75</ele><time>2026-04-27T10:03:23Z</time></trkpt><trkpt lat="40.72489375390538" lon="19.919243858154307"><ele>43.5</ele><time>2026-04-27T10:03:24Z</time></trkpt><trkpt lat="40.72477549787733" lon="19.91930378471917"><ele>44.25</ele><time>2026-04-27T10:03:25Z</time></trkpt><trkpt lat="40.72466476305654" lon="19.91935762728255"><ele>45.0</ele><time>2026-04-27T10:03:26Z</time></trkpt><trkpt lat="40.72454647374578" lon="19.91930489062717"><ele>45.0</ele><time>2026-04-27T10:03:27Z</time></trkpt><trkpt lat="40.724420022809376" lon="19.91929707787566"><ele>45.0</ele><time>2026-04-27T10:03:28Z</time></trkpt><trkpt lat="40.724283096768815" lon="19.9193054987873"><ele>45.0</ele><time>2026-04-27T10:03:29Z</time></trkpt><trkpt lat="40.724145330307415" lon="19.919343535382477"><ele>45.0</ele><time>2026-04-27T10:03:30Z</time></trkpt><trkpt lat="40.7239908835384" lon="19.919381522673948"><ele>45.75</ele><time>2026-04-27T10:03:31Z</time></trkpt><trkpt lat="40.723847190542" lon="19.919408508084928"><ele>46.5</ele><time>2026-04-27T10:03:32Z</time></trkpt><trkpt lat="40.72371828300847" lon="19.91939764809078"><ele>47.25</ele><time>2026-04-27T10:03:33Z</time></trkpt><trkpt lat="40.72360173545014" lon="19.919385070619878"><ele>48.0</ele><time>2026-04-27T10:03:34Z</time></trkpt><trkpt lat="40.7234705133775" lon="19.91936065769737"><ele>49.0</ele><time>2026-04-27T10:03:35Z</time></trkpt><trkpt lat="40.723327343794054" lon="19.919326842905516"><ele>50.0</ele><time>2026-04-27T10:03:36Z</time></trkpt><trkpt lat="40.72318894708504" lon="19.919234745090495"><ele>51.0</ele><time>2026-04-27T10:03:37Z</time></trkpt><trkpt lat="40.72302534316179" lon="19.919183652523664"><ele>52.66666666666667</ele><time>2026-04-27T10:03:38Z</time></trkpt><trkpt lat="40.7228608342645" lon="19.919176735617235"><ele>54.333333333333336</ele><time>2026-04-27T10:03:39Z</time></trkpt><trkpt lat="40.722689600112716" lon="19.91917119124387"><ele>56.0</ele><time>2026-04-27T10:03:40Z</time></trkpt><trkpt lat="40.722512696355864" lon="19.91916788384426"><ele>57.333333333333336</ele><time>2026-04-27T10:03:41Z</time></trkpt><trkpt lat="40.72233074001401" lon="19.919170531517377"><ele>58.66666666666667</ele><time>2026-04-27T10:03:42Z</time></trkpt><trkpt lat="40.72214898232896" lon="19.919167454775735"><ele>60.0</ele><time>2026-04-27T10:03:43Z</time></trkpt><trkpt lat="40.72196366618447" lon="19.919160635887813"><ele>60.66666666666667</ele><time>2026-04-27T10:03:44Z</time></trkpt><trkpt lat="40.721777176865174" lon="19.919153897822603"><ele>61.333333333333336</ele><time>2026-04-27T10:03:45Z</time></trkpt><trkpt lat="40.72158452489611" lon="19.91914734614064"><ele>62.0</ele><time>2026-04-27T10:03:46Z</time></trkpt><trkpt lat="40.721390401364516" lon="19.919140307106517"><ele>62.0</ele><time>2026-04-27T10:03:47Z</time></trkpt><trkpt lat="40.721209309864236" lon="19.91913309918873"><ele>62.0</ele><time>2026-04-27T10:03:48Z</time></trkpt><trkpt lat="40.72104617543662" lon="19.919126607982683"><ele>62.0</ele><time>2026-04-27T10:03:49Z</time></trkpt><trkpt lat="40.720892163534245" lon="19.919121411217937"><ele>62.333333333333336</ele><time>2026-04-27T10:03:50Z</time></trkpt><trkpt lat="40.72073069499811" lon="19.91911557478476"><ele>62.66666666666667</ele><time>2026-04-27T10:03:51Z</time></trkpt><trkpt lat="40.72057397663123" lon="19.919109945762056"><ele>63.0</ele><time>2026-04-27T10:03:52Z</time></trkpt><trkpt lat="40.720405126847155" lon="19.9191144317992"><ele>63.0</ele><time>2026-04-27T10:03:53Z</time></trkpt><trkpt lat="40.72023454216702" lon="19.919124249525648"><ele>63.0</ele><time>2026-04-27T10:03:54Z</time></trkpt><trkpt lat="40.72005477981405" lon="19.919151785473964"><ele>63.0</ele><time>2026-04-27T10:03:55Z</time></trkpt><trkpt lat="40.71987079299479" lon="19.919176293426702"><ele>63.33333333333333</ele><time>2026-04-27T10:03:56Z</time></trkpt><trkpt lat="40.719705666178164" lon="19.919188943148765"><ele>63.666666666666664</ele><time>2026-04-27T10:03:57Z</time></trkpt><trkpt lat="40.719556622863806" lon="19.91919181940243"><ele>64.0</ele><time>2026-04-27T10:03:58Z</time></trkpt><trkpt lat="40.71941653435777" lon="19.919193536481448"><ele>64.75</ele><time>2026-04-27T10:03:59Z</time></trkpt><trkpt lat="40.71928387508612" lon="19.919194850403272"><ele>65.5</ele><time>2026-04-27T10:04:00Z</time></trkpt><trkpt lat="40.71913722815923" lon="19.91919599402291"><ele>66.25</ele><time>2026-04-27T10:04:01Z</time></trkpt><trkpt lat="40.71898793502488" lon="19.91917129041801"><ele>67.0</ele><time>2026-04-27T10:04:02Z</time></trkpt><trkpt lat="40.71883499139576" lon="19.919152872343773"><ele>67.0</ele><time>2026-04-27T10:04:03Z</time></trkpt><trkpt lat="40.71869882011939" lon="19.919136987772255"><ele>67.0</ele><time>2026-04-27T10:04:04Z</time></trkpt><trkpt lat="40.71857429292164" lon="19.919122389705624"><ele>67.0</ele><time>2026-04-27T10:04:05Z</time></trkpt><trkpt lat="40.71846152400408" lon="19.91909846254767"><ele>67.0</ele><time>2026-04-27T10:04:06Z</time></trkpt><trkpt lat="40.718353773173305" lon="19.919067968411547"><ele>67.2</ele><time>2026-04-27T10:04:07Z</time></trkpt><trkpt lat="40.718267000194395" lon="19.9190004117785"><ele>67.4</ele><time>2026-04-27T10:04:08Z</time></trkpt><trkpt lat="40.71817926483401" lon="19.918944036529602"><ele>67.6</ele><time>2026-04-27T10:04:09Z</time></trkpt><trkpt lat="40.71811189482205" lon="19.918843801561696"><ele>67.8</ele><time>2026-04-27T10:04:10Z</time></trkpt><trkpt lat="40.71802388634836" lon="19.91875675486945"><ele>68.0</ele><time>2026-04-27T10:04:11Z</time></trkpt><trkpt lat="40.7179156431437" lon="19.918691401479506"><ele>68.0</ele><time>2026-04-27T10:04:12Z</time></trkpt><trkpt lat="40.71781085707534" lon="19.91862886100705"><ele>68.0</ele><time>2026-04-27T10:04:13Z</time></trkpt><trkpt lat="40.717711912172774" lon="19.918571589108232"><ele>68.0</ele><time>2026-04-27T10:04:14Z</time></trkpt><trkpt lat="40.717626626686524" lon="19.918520174878847"><ele>68.0</ele><time>2026-04-27T10:04:15Z</time></trkpt><trkpt lat="40.717536851404695" lon="19.918471712884863"><ele>68.0</ele><time>2026-04-27T10:04:16Z</time></trkpt><trkpt lat="40.717451697752495" lon="19.91842972456514"><ele>68.2</ele><time>2026-04-27T10:04:17Z</time></trkpt><trkpt lat="40.71735891804232" lon="19.918438518273195"><ele>68.4</ele><time>2026-04-27T10:04:18Z</time></trkpt><trkpt lat="40.71726933327433" lon="19.918464468375625"><ele>68.60000000000001</ele><time>2026-04-27T10:04:19Z</time></trkpt><trkpt lat="40.71719108953033" lon="19.918476494862006"><ele>68.8</ele><time>2026-04-27T10:04:20Z</time></trkpt><trkpt lat="40.717125816263945" lon="19.918486527766316"><ele>69.0</ele><time>2026-04-27T10:04:21Z</time></trkpt><trkpt lat="40.717082759416456" lon="19.918646611874802"><ele>69.0</ele><time>2026-04-27T10:04:22Z</time></trkpt><trkpt lat="40.71704132047928" lon="19.91875269569199"><ele>69.0</ele><time>2026-04-27T10:04:23Z</time></trkpt><trkpt lat="40.71701215665643" lon="19.918867894532436"><ele>69.0</ele><time>2026-04-27T10:04:24Z</time></trkpt><trkpt lat="40.71698216694613" lon="19.91899091292315"><ele>69.0</ele><time>2026-04-27T10:04:25Z</time></trkpt><trkpt lat="40.716951509423794" lon="19.919103324255545"><ele>69.0</ele><time>2026-04-27T10:04:26Z</time></trkpt><trkpt lat="40.71692392543346" lon="19.91920673094091"><ele>68.66666666666667</ele><time>2026-04-27T10:04:27Z</time></trkpt><trkpt lat="40.716881513544116" lon="19.919294231218537"><ele>68.33333333333333</ele><time>2026-04-27T10:04:28Z</time></trkpt><trkpt lat="40.716852115366066" lon="19.919390033126938"><ele>68.0</ele><time>2026-04-27T10:04:29Z</time></trkpt><trkpt lat="40.71681769537076" lon="19.919473930184584"><ele>67.66666666666666</ele><time>2026-04-27T10:04:30Z</time></trkpt><trkpt lat="40.71679599846586" lon="19.919566224343843"><ele>67.33333333333333</ele><time>2026-04-27T10:04:31Z</time></trkpt><trkpt lat="40.716726132325405" lon="19.91962140950391"><ele>67.0</ele><time>2026-04-27T10:04:32Z</time></trkpt><trkpt lat="40.71665765122559" lon="19.91969220979456"><ele>67.0</ele><time>2026-04-27T10:04:33Z</time></trkpt><trkpt lat="40.716571434779105" lon="19.91977040443515"><ele>67.0</ele><time>2026-04-27T10:04:34Z</time></trkpt><trkpt lat="40.71647738041712" lon="19.91985570768798"><ele>67.0</ele><time>2026-04-27T10:04:35Z</time></trkpt><trkpt lat="40.716396731590756" lon="19.91992885274686"><ele>67.0</ele><time>2026-04-27T10:04:36Z</time></trkpt><trkpt lat="40.716319653630535" lon="19.919998823716742"><ele>67.0</ele><time>2026-04-27T10:04:37Z</time></trkpt><trkpt lat="40.71624229856814" lon="19.920094169789564"><ele>66.4</ele><time>2026-04-27T10:04:38Z</time></trkpt><trkpt lat="40.71613452810432" lon="19.920143338209677"><ele>65.80000000000001</ele><time>2026-04-27T10:04:39Z</time></trkpt><trkpt lat="40.71604175319288" lon="19.92022892901897"><ele>65.2</ele><time>2026-04-27T10:04:40Z</time></trkpt><trkpt lat="40.71594220128601" lon="19.920284025675794"><ele>64.60000000000001</ele><time>2026-04-27T10:04:41Z</time></trkpt><trkpt lat="40.715844310386835" lon="19.92033138551512"><ele>64.0</ele><time>2026-04-27T10:04:42Z</time></trkpt><trkpt lat="40.71574363348166" lon="19.92034407003303"><ele>63.99999999999999</ele><time>2026-04-27T10:04:43Z</time></trkpt><trkpt lat="40.71565935351876" lon="19.920369458133194"><ele>64.0</ele><time>2026-04-27T10:04:44Z</time></trkpt><trkpt lat="40.715589509358054" lon="19.920390663274926"><ele>64.0</ele><time>2026-04-27T10:04:45Z</time></trkpt><trkpt lat="40.7155131154202" lon="19.920413856982954"><ele>64.0</ele><time>2026-04-27T10:04:46Z</time></trkpt><trkpt lat="40.71541667008027" lon="19.92044306384887"><ele>63.99999999999999</ele><time>2026-04-27T10:04:47Z</time></trkpt><trkpt lat="40.71531126339986" lon="19.920474355545533"><ele>64.0</ele><time>2026-04-27T10:04:48Z</time></trkpt><trkpt lat="40.71519657552858" lon="19.92050899917114"><ele>65.33333333333333</ele><time>2026-04-27T10:04:49Z</time></trkpt><trkpt lat="40.715060947447455" lon="19.920547612263373"><ele>66.66666666666667</ele><time>2026-04-27T10:04:50Z</time></trkpt><trkpt lat="40.71490547667522" lon="19.920589537731477"><ele>68.0</ele><time>2026-04-27T10:04:51Z</time></trkpt><trkpt lat="40.71473955700147" lon="19.9206282145967"><ele>68.0</ele><time>2026-04-27T10:04:52Z</time></trkpt><trkpt lat="40.714582996395926" lon="19.920652417874244"><ele>68.0</ele><time>2026-04-27T10:04:53Z</time></trkpt><trkpt lat="40.71443933882544" lon="19.920668648438962"><ele>68.0</ele><time>2026-04-27T10:04:54Z</time></trkpt><trkpt lat="40.71430448261626" lon="19.920670887058204"><ele>68.0</ele><time>2026-04-27T10:04:55Z</time></trkpt><trkpt lat="40.71417565629616" lon="19.920673025583316"><ele>68.0</ele><time>2026-04-27T10:04:56Z</time></trkpt><trkpt lat="40.71405476379247" lon="19.920656984584223"><ele>68.0</ele><time>2026-04-27T10:04:57Z</time></trkpt><trkpt lat="40.71395209083468" lon="19.92061415374159"><ele>68.0</ele><time>2026-04-27T10:04:58Z</time></trkpt><trkpt lat="40.71386016024032" lon="19.920550202442353"><ele>68.0</ele><time>2026-04-27T10:04:59Z</time></trkpt><trkpt lat="40.71376322298144" lon="19.92045937746821"><ele>68.0</ele><time>2026-04-27T10:05:00Z</time></trkpt><trkpt lat="40.713673925260714" lon="19.920345846970932"><ele>68.0</ele><time>2026-04-27T10:05:01Z</time></trkpt><trkpt lat="40.71360006900899" lon="19.920240184650385"><ele>68.0</ele><time>2026-04-27T10:05:02Z</time></trkpt><trkpt lat="40.71355274608027" lon="19.92013566478923"><ele>68.0</ele><time>2026-04-27T10:05:03Z</time></trkpt><trkpt lat="40.713491231047875" lon="19.920017979064195"><ele>68.0</ele><time>2026-04-27T10:05:04Z</time></trkpt><trkpt lat="40.71341360396502" lon="19.919893425566585"><ele>67.6</ele><time>2026-04-27T10:05:05Z</time></trkpt><trkpt lat="40.71330493905757" lon="19.919790556988243"><ele>67.19999999999999</ele><time>2026-04-27T10:05:06Z</time></trkpt><trkpt lat="40.71321421127892" lon="19.91969761787529"><ele>66.8</ele><time>2026-04-27T10:05:07Z</time></trkpt><trkpt lat="40.71312949334335" lon="19.919634693885577"><ele>66.39999999999999</ele><time>2026-04-27T10:05:08Z</time></trkpt><trkpt lat="40.71303013885269" lon="19.919626260504277"><ele>66.0</ele><time>2026-04-27T10:05:09Z</time></trkpt><trkpt lat="40.71296577409104" lon="19.919612964933446"><ele>66.0</ele><time>2026-04-27T10:05:10Z</time></trkpt><trkpt lat="40.712907613905756" lon="19.919775503646527"><ele>66.0</ele><time>2026-04-27T10:05:11Z</time></trkpt><trkpt lat="40.71286149058725" lon="19.919902709168195"><ele>66.0</ele><time>2026-04-27T10:05:12Z</time></trkpt><trkpt lat="40.712804584250975" lon="19.920061471717858"><ele>66.0</ele><time>2026-04-27T10:05:13Z</time></trkpt><trkpt lat="40.71272691179973" lon="19.920237239025486"><ele>65.75</ele><time>2026-04-27T10:05:14Z</time></trkpt><trkpt lat="40.712648668193566" lon="19.92039197776363"><ele>65.5</ele><time>2026-04-27T10:05:15Z</time></trkpt><trkpt lat="40.71258006302776" lon="19.92052070085512"><ele>65.25</ele><time>2026-04-27T10:05:16Z</time></trkpt><trkpt lat="40.71252454503787" lon="19.920627675105212"><ele>65.0</ele><time>2026-04-27T10:05:17Z</time></trkpt><trkpt lat="40.71246073545789" lon="19.920715094313657"><ele>65.0</ele><time>2026-04-27T10:05:18Z</time></trkpt><trkpt lat="40.71236145678927" lon="19.920750728186867"><ele>65.0</ele><time>2026-04-27T10:05:19Z</time></trkpt><trkpt lat="40.71226940636724" lon="19.920828984703363"><ele>65.0</ele><time>2026-04-27T10:05:20Z</time></trkpt><trkpt lat="40.71213257039941" lon="19.920827881200797"><ele>65.0</ele><time>2026-04-27T10:05:21Z</time></trkpt><trkpt lat="40.711997462632546" lon="19.920898424113517"><ele>64.0</ele><time>2026-04-27T10:05:22Z</time></trkpt><trkpt lat="40.711853370422155" lon="19.920943510281646"><ele>63.0</ele><time>2026-04-27T10:05:23Z</time></trkpt><trkpt lat="40.71170961503625" lon="19.920996936807708"><ele>62.0</ele><time>2026-04-27T10:05:24Z</time></trkpt><trkpt lat="40.711558767277154" lon="19.921038752953834"><ele>62.0</ele><time>2026-04-27T10:05:25Z</time></trkpt><trkpt lat="40.71141501197031" lon="19.921079510618746"><ele>62.0</ele><time>2026-04-27T10:05:26Z</time></trkpt><trkpt lat="40.71127748414669" lon="19.921112327684884"><ele>62.0</ele><time>2026-04-27T10:05:27Z</time></trkpt><trkpt lat="40.71113677079059" lon="19.92114245808954"><ele>62.0</ele><time>2026-04-27T10:05:28Z</time></trkpt><trkpt lat="40.71099627961453" lon="19.92118302820302"><ele>62.75</ele><time>2026-04-27T10:05:29Z</time></trkpt><trkpt lat="40.71084831655944" lon="19.921202482397163"><ele>63.5</ele><time>2026-04-27T10:05:30Z</time></trkpt><trkpt lat="40.710712456532576" lon="19.921244940568453"><ele>64.25</ele><time>2026-04-27T10:05:31Z</time></trkpt><trkpt lat="40.71058560555379" lon="19.921286612205588"><ele>65.0</ele><time>2026-04-27T10:05:32Z</time></trkpt><trkpt lat="40.71046670579406" lon="19.921362581306308"><ele>65.0</ele><time>2026-04-27T10:05:33Z</time></trkpt><trkpt lat="40.710356927209446" lon="19.921473585639866"><ele>65.0</ele><time>2026-04-27T10:05:34Z</time></trkpt><trkpt lat="40.71024187933284" lon="19.92158485090021"><ele>65.0</ele><time>2026-04-27T10:05:35Z</time></trkpt><trkpt lat="40.710128858889796" lon="19.92171949267833"><ele>65.0</ele><time>2026-04-27T10:05:36Z</time></trkpt><trkpt lat="40.71002003997272" lon="19.92186725000285"><ele>64.75</ele><time>2026-04-27T10:05:37Z</time></trkpt><trkpt lat="40.7099156521744" lon="19.922027554454562"><ele>64.5</ele><time>2026-04-27T10:05:38Z</time></trkpt><trkpt lat="40.7098278354413" lon="19.92217081791503"><ele>64.25</ele><time>2026-04-27T10:05:39Z</time></trkpt><trkpt lat="40.70975017807646" lon="19.92228511663465"><ele>64.0</ele><time>2026-04-27T10:05:40Z</time></trkpt><trkpt lat="40.70966152022008" lon="19.922396441228265"><ele>64.0</ele><time>2026-04-27T10:05:41Z</time></trkpt><trkpt lat="40.70956539397778" lon="19.92251938740079"><ele>64.0</ele><time>2026-04-27T10:05:42Z</time></trkpt><trkpt lat="40.7094653712821" lon="19.922653700046776"><ele>64.0</ele><time>2026-04-27T10:05:43Z</time></trkpt><trkpt lat="40.70936359219006" lon="19.9227980659998"><ele>64.0</ele><time>2026-04-27T10:05:44Z</time></trkpt><trkpt lat="40.70923829364662" lon="19.922929900834873"><ele>63.666666666666664</ele><time>2026-04-27T10:05:45Z</time></trkpt><trkpt lat="40.70912055608616" lon="19.923081846290522"><ele>63.33333333333333</ele><time>2026-04-27T10:05:46Z</time></trkpt><trkpt lat="40.70902163889417" lon="19.923239674023492"><ele>63.0</ele><time>2026-04-27T10:05:47Z</time></trkpt><trkpt lat="40.7088918084391" lon="19.923377449924992"><ele>62.5</ele><time>2026-04-27T10:05:48Z</time></trkpt><trkpt lat="40.708776919350235" lon="19.923525228097485"><ele>62.0</ele><time>2026-04-27T10:05:49Z</time></trkpt><trkpt lat="40.708676983925464" lon="19.923672244982676"><ele>61.5</ele><time>2026-04-27T10:05:50Z</time></trkpt><trkpt lat="40.70856866426673" lon="19.92378510711512"><ele>61.0</ele><time>2026-04-27T10:05:51Z</time></trkpt><trkpt lat="40.70846849192632" lon="19.92389296773525"><ele>61.0</ele><time>2026-04-27T10:05:52Z</time></trkpt><trkpt lat="40.70838211778126" lon="19.924002210481945"><ele>61.0</ele><time>2026-04-27T10:05:53Z</time></trkpt><trkpt lat="40.70830776543472" lon="19.92411655327473"><ele>61.0</ele><time>2026-04-27T10:05:54Z</time></trkpt><trkpt lat="40.70823419182651" lon="19.924246921171623"><ele>61.0</ele><time>2026-04-27T10:05:55Z</time></trkpt><trkpt lat="40.70816731221471" lon="19.92439836534298"><ele>60.5</ele><time>2026-04-27T10:05:56Z</time></trkpt><trkpt lat="40.70811322492294" lon="19.92456751062989"><ele>60.0</ele><time>2026-04-27T10:05:57Z</time></trkpt><trkpt lat="40.70806791341979" lon="19.924748351514832"><ele>59.5</ele><time>2026-04-27T10:05:58Z</time></trkpt><trkpt lat="40.70801990025265" lon="19.924932792023295"><ele>59.0</ele><time>2026-04-27T10:05:59Z</time></trkpt><trkpt lat="40.70796372980653" lon="19.925103178796697"><ele>59.25</ele><time>2026-04-27T10:06:00Z</time></trkpt><trkpt lat="40.70789693272679" lon="19.925249374274824"><ele>59.5</ele><time>2026-04-27T10:06:01Z</time></trkpt><trkpt lat="40.707828880897495" lon="19.925400079757008"><ele>59.75</ele><time>2026-04-27T10:06:02Z</time></trkpt><trkpt lat="40.70776516105519" lon="19.92554375958055"><ele>60.0</ele><time>2026-04-27T10:06:03Z</time></trkpt><trkpt lat="40.707695226979325" lon="19.9256755746962"><ele>60.0</ele><time>2026-04-27T10:06:04Z</time></trkpt><trkpt lat="40.707623272628005" lon="19.925808359316505"><ele>60.0</ele><time>2026-04-27T10:06:05Z</time></trkpt><trkpt lat="40.70754648596075" lon="19.9259443335392"><ele>60.0</ele><time>2026-04-27T10:06:06Z</time></trkpt><trkpt lat="40.707460489635004" lon="19.92607388208626"><ele>60.0</ele><time>2026-04-27T10:06:07Z</time></trkpt><trkpt lat="40.70738043705671" lon="19.92618831510962"><ele>58.6</ele><time>2026-04-27T10:06:08Z</time></trkpt><trkpt lat="40.707300087982546" lon="19.926295390797794"><ele>57.2</ele><time>2026-04-27T10:06:09Z</time></trkpt><trkpt lat="40.70722638945176" lon="19.92638662141901"><ele>55.8</ele><time>2026-04-27T10:06:10Z</time></trkpt><trkpt lat="40.707148304358405" lon="19.926466702589877"><ele>54.4</ele><time>2026-04-27T10:06:11Z</time></trkpt><trkpt lat="40.70705459215135" lon="19.92654769782457"><ele>53.0</ele><time>2026-04-27T10:06:12Z</time></trkpt><trkpt lat="40.70694923918767" lon="19.926635501857618"><ele>54.0</ele><time>2026-04-27T10:06:13Z</time></trkpt><trkpt lat="40.70686919575301" lon="19.92672854251869"><ele>55.0</ele><time>2026-04-27T10:06:14Z</time></trkpt><trkpt lat="40.70680523032885" lon="19.926828630985575"><ele>56.0</ele><time>2026-04-27T10:06:15Z</time></trkpt><trkpt lat="40.706743631048475" lon="19.926939560655825"><ele>57.0</ele><time>2026-04-27T10:06:16Z</time></trkpt><trkpt lat="40.70672113024419" lon="19.927095228426268"><ele>58.0</ele><time>2026-04-27T10:06:17Z</time></trkpt><trkpt lat="40.706686753625455" lon="19.927259477453457"><ele>58.0</ele><time>2026-04-27T10:06:18Z</time></trkpt><trkpt lat="40.706653037339485" lon="19.92740654322982"><ele>58.0</ele><time>2026-04-27T10:06:19Z</time></trkpt><trkpt lat="40.706596314798716" lon="19.927543783885465"><ele>58.0</ele><time>2026-04-27T10:06:20Z</time></trkpt><trkpt lat="40.706541150479964" lon="19.92766871136011"><ele>58.0</ele><time>2026-04-27T10:06:21Z</time></trkpt><trkpt lat="40.706463436238764" lon="19.927778751334515"><ele>55.666666666666664</ele><time>2026-04-27T10:06:22Z</time></trkpt><trkpt lat="40.70638295520359" lon="19.927925268319147"><ele>53.33333333333333</ele><time>2026-04-27T10:06:23Z</time></trkpt><trkpt lat="40.70630156651394" lon="19.928094118907293"><ele>51.0</ele><time>2026-04-27T10:06:24Z</time></trkpt><trkpt lat="40.70618559265566" lon="19.928244798832"><ele>51.25</ele><time>2026-04-27T10:06:25Z</time></trkpt><trkpt lat="40.70609691464209" lon="19.928407432770214"><ele>51.5</ele><time>2026-04-27T10:06:26.001Z</time></trkpt><trkpt lat="40.70600347638993" lon="19.92854115193061"><ele>51.75</ele><time>2026-04-27T10:06:27.001Z</time></trkpt><trkpt lat="40.70589151620973" lon="19.928625941015543"><ele>52.0</ele><time>2026-04-27T10:06:28.001Z</time></trkpt><trkpt lat="40.705766820591265" lon="19.928701813128225"><ele>52.0</ele><time>2026-04-27T10:06:29.001Z</time></trkpt><trkpt lat="40.7056462695811" lon="19.92875875509357"><ele>52.0</ele><time>2026-04-27T10:06:30.001Z</time></trkpt><trkpt lat="40.70552936564956" lon="19.92882426534797"><ele>52.0</ele><time>2026-04-27T10:06:31.001Z</time></trkpt><trkpt lat="40.70543663425439" lon="19.92890196672477"><ele>52.0</ele><time>2026-04-27T10:06:32.001Z</time></trkpt><trkpt lat="40.705353481145266" lon="19.92897164684126"><ele>52.0</ele><time>2026-04-27T10:06:33.001Z</time></trkpt><trkpt lat="40.70530348472651" lon="19.92908946597408"><ele>52.0</ele><time>2026-04-27T10:06:34.001Z</time></trkpt><trkpt lat="40.70525278712452" lon="19.929179517625734"><ele>52.0</ele><time>2026-04-27T10:06:35.001Z</time></trkpt><trkpt lat="40.70520807359585" lon="19.929252351593004"><ele>52.0</ele><time>2026-04-27T10:06:36.001Z</time></trkpt><trkpt lat="40.70515998093784" lon="19.929310317022114"><ele>52.0</ele><time>2026-04-27T10:06:37.001Z</time></trkpt><trkpt lat="40.70506543359406" lon="19.929427099047928"><ele>51.8</ele><time>2026-04-27T10:06:39.001Z</time></trkpt><trkpt lat="40.705001318023356" lon="19.92949799460947"><ele>51.6</ele><time>2026-04-27T10:06:40.001Z</time></trkpt><trkpt lat="40.70493098769199" lon="19.92957207723348"><ele>51.4</ele><time>2026-04-27T10:06:41.001Z</time></trkpt><trkpt lat="40.70485353785945" lon="19.929653082283057"><ele>51.199999999999996</ele><time>2026-04-27T10:06:42Z</time></trkpt><trkpt lat="40.70476958241812" lon="19.929736013008924"><ele>51.0</ele><time>2026-04-27T10:06:43Z</time></trkpt><trkpt lat="40.704682936881355" lon="19.929826895906228"><ele>51.0</ele><time>2026-04-27T10:06:44Z</time></trkpt><trkpt lat="40.70459019284724" lon="19.92990671147323"><ele>51.0</ele><time>2026-04-27T10:06:45Z</time></trkpt><trkpt lat="40.70449098896816" lon="19.92999106642281"><ele>51.0</ele><time>2026-04-27T10:06:46Z</time></trkpt><trkpt lat="40.70438901493689" lon="19.93009246616528"><ele>51.0</ele><time>2026-04-27T10:06:47Z</time></trkpt><trkpt lat="40.7042836940264" lon="19.93020374886165"><ele>52.199999999999996</ele><time>2026-04-27T10:06:48Z</time></trkpt><trkpt lat="40.704188120193535" lon="19.930331493599073"><ele>53.4</ele><time>2026-04-27T10:06:49Z</time></trkpt><trkpt lat="40.70410827228933" lon="19.930441166587283"><ele>54.6</ele><time>2026-04-27T10:06:50Z</time></trkpt><trkpt lat="40.704045849082384" lon="19.930527170043273"><ele>55.8</ele><time>2026-04-27T10:06:51Z</time></trkpt><trkpt lat="40.70400506052526" lon="19.930601424480646"><ele>57.0</ele><time>2026-04-27T10:06:52Z</time></trkpt><trkpt lat="40.70395177745026" lon="19.93068145286928"><ele>57.0</ele><time>2026-04-27T10:06:53Z</time></trkpt><trkpt lat="40.70386904920811" lon="19.9307225475593"><ele>57.0</ele><time>2026-04-27T10:06:54Z</time></trkpt><trkpt lat="40.70377064516978" lon="19.93079185189323"><ele>57.0</ele><time>2026-04-27T10:06:55Z</time></trkpt><trkpt lat="40.70366370053752" lon="19.930873061829097"><ele>57.0</ele><time>2026-04-27T10:06:56Z</time></trkpt><trkpt lat="40.70359064126087" lon="19.93097446127922"><ele>57.0</ele><time>2026-04-27T10:06:57Z</time></trkpt><trkpt lat="40.70352064041375" lon="19.931073728061094"><ele>56.75</ele><time>2026-04-27T10:06:58Z</time></trkpt><trkpt lat="40.703461706752634" lon="19.931192451018273"><ele>56.5</ele><time>2026-04-27T10:06:59Z</time></trkpt><trkpt lat="40.703409970425724" lon="19.93132836247368"><ele>56.25</ele><time>2026-04-27T10:07:00Z</time></trkpt><trkpt lat="40.70335246753817" lon="19.931468159530112"><ele>56.0</ele><time>2026-04-27T10:07:01Z</time></trkpt><trkpt lat="40.703278142619304" lon="19.931602180248635"><ele>54.5</ele><time>2026-04-27T10:07:02Z</time></trkpt><trkpt lat="40.70318607929641" lon="19.93173584287182"><ele>53.0</ele><time>2026-04-27T10:07:03Z</time></trkpt><trkpt lat="40.70308209710463" lon="19.931837077568645"><ele>51.5</ele><time>2026-04-27T10:07:04Z</time></trkpt><trkpt lat="40.70299827357598" lon="19.93194489406454"><ele>50.0</ele><time>2026-04-27T10:07:05Z</time></trkpt><trkpt lat="40.70293476259131" lon="19.932064020633458"><ele>50.0</ele><time>2026-04-27T10:07:06Z</time></trkpt><trkpt lat="40.70286679410262" lon="19.932169628772996"><ele>50.0</ele><time>2026-04-27T10:07:07Z</time></trkpt><trkpt lat="40.70280817322251" lon="19.932275052170578"><ele>50.0</ele><time>2026-04-27T10:07:08Z</time></trkpt><trkpt lat="40.70276705501887" lon="19.932389595676284"><ele>50.0</ele><time>2026-04-27T10:07:09Z</time></trkpt><trkpt lat="40.70273506741801" lon="19.932500124858834"><ele>50.0</ele><time>2026-04-27T10:07:10Z</time></trkpt><trkpt lat="40.702702529752145" lon="19.932603041161588"><ele>49.833333333333336</ele><time>2026-04-27T10:07:11Z</time></trkpt><trkpt lat="40.702669817546074" lon="19.93270181571655"><ele>49.66666666666667</ele><time>2026-04-27T10:07:12Z</time></trkpt><trkpt lat="40.702636546900195" lon="19.932802045508833"><ele>49.5</ele><time>2026-04-27T10:07:13Z</time></trkpt><trkpt lat="40.70258753698556" lon="19.932892732382243"><ele>49.33333333333333</ele><time>2026-04-27T10:07:14Z</time></trkpt><trkpt lat="40.70251859110197" lon="19.932975522573543"><ele>49.166666666666664</ele><time>2026-04-27T10:07:15Z</time></trkpt><trkpt lat="40.7024250843732" lon="19.93304427491924"><ele>49.0</ele><time>2026-04-27T10:07:16Z</time></trkpt><trkpt lat="40.70231496302904" lon="19.933099415343662"><ele>49.0</ele><time>2026-04-27T10:07:17Z</time></trkpt><trkpt lat="40.702208532132445" lon="19.93315568112774"><ele>49.0</ele><time>2026-04-27T10:07:18Z</time></trkpt><trkpt lat="40.70212644098787" lon="19.933219104597033"><ele>49.0</ele><time>2026-04-27T10:07:19Z</time></trkpt><trkpt lat="40.702057174902265" lon="19.93332005770031"><ele>49.0</ele><time>2026-04-27T10:07:20Z</time></trkpt><trkpt lat="40.70198716908604" lon="19.933416990552065"><ele>49.0</ele><time>2026-04-27T10:07:21Z</time></trkpt><trkpt lat="40.701925578030895" lon="19.93350294315885"><ele>50.0</ele><time>2026-04-27T10:07:22Z</time></trkpt><trkpt lat="40.70186034838894" lon="19.933592309862856"><ele>51.0</ele><time>2026-04-27T10:07:23Z</time></trkpt><trkpt lat="40.70179157716336" lon="19.933681228160264"><ele>52.00000000000001</ele><time>2026-04-27T10:07:24Z</time></trkpt><trkpt lat="40.70171951612996" lon="19.93377243090935"><ele>53.0</ele><time>2026-04-27T10:07:25Z</time></trkpt><trkpt lat="40.70162827640089" lon="19.93382258036645"><ele>54.0</ele><time>2026-04-27T10:07:26Z</time></trkpt><trkpt lat="40.70153708342757" lon="19.93388437254905"><ele>54.0</ele><time>2026-04-27T10:07:27Z</time></trkpt><trkpt lat="40.701452643055376" lon="19.93392255866759"><ele>54.00000000000001</ele><time>2026-04-27T10:07:28Z</time></trkpt><trkpt lat="40.70137338520459" lon="19.933940714506342"><ele>54.00000000000001</ele><time>2026-04-27T10:07:31Z</time></trkpt><trkpt lat="40.701312415401674" lon="19.93386040642218"><ele>54.0</ele><time>2026-04-27T10:07:33Z</time></trkpt><trkpt lat="40.70122278820754" lon="19.93373200810441"><ele>54.0</ele><time>2026-04-27T10:07:35Z</time></trkpt><trkpt lat="40.70114188701376" lon="19.933681880331765"><ele>54.0</ele><time>2026-04-27T10:07:36Z</time></trkpt><trkpt lat="40.70106076027221" lon="19.933651639096432"><ele>54.00000000000001</ele><time>2026-04-27T10:07:37Z</time></trkpt><trkpt lat="40.70100213870903" lon="19.933616682114025"><ele>54.00000000000001</ele><time>2026-04-27T10:07:38Z</time></trkpt><trkpt lat="40.70093548382557" lon="19.93353012510372"><ele>54.0</ele><time>2026-04-27T10:07:40Z</time></trkpt><trkpt lat="40.70084530626963" lon="19.93363296903496"><ele>54.0</ele><time>2026-04-27T10:07:42Z</time></trkpt><trkpt lat="40.70077760738907" lon="19.933785197394418"><ele>54.0</ele><time>2026-04-27T10:07:44Z</time></trkpt><trkpt lat="40.70073301165114" lon="19.933897903232772"><ele>54.00000000000001</ele><time>2026-04-27T10:07:45Z</time></trkpt><trkpt lat="40.70068506250496" lon="19.934019083585795"><ele>54.00000000000001</ele><time>2026-04-27T10:07:46Z</time></trkpt><trkpt lat="40.70063634674441" lon="19.934150266200238"><ele>54.0</ele><time>2026-04-27T10:07:47Z</time></trkpt><trkpt lat="40.700586600904266" lon="19.934292436189995"><ele>54.0</ele><time>2026-04-27T10:07:48Z</time></trkpt><trkpt lat="40.70053395871674" lon="19.934442883241022"><ele>53.75</ele><time>2026-04-27T10:07:49Z</time></trkpt><trkpt lat="40.70049500616778" lon="19.93461237276958"><ele>53.5</ele><time>2026-04-27T10:07:50Z</time></trkpt><trkpt lat="40.700472642232505" lon="19.934791590233544"><ele>53.25</ele><time>2026-04-27T10:07:51Z</time></trkpt><trkpt lat="40.70044850108992" lon="19.93497184816102"><ele>53.0</ele><time>2026-04-27T10:07:52Z</time></trkpt><trkpt lat="40.700430992248975" lon="19.935158730055925"><ele>52.5</ele><time>2026-04-27T10:07:53Z</time></trkpt><trkpt lat="40.70042290856641" lon="19.93535260917232"><ele>52.0</ele><time>2026-04-27T10:07:54Z</time></trkpt><trkpt lat="40.70039730961319" lon="19.935548134726982"><ele>51.5</ele><time>2026-04-27T10:07:55Z</time></trkpt><trkpt lat="40.70038796430864" lon="19.93573363411241"><ele>51.0</ele><time>2026-04-27T10:07:56Z</time></trkpt><trkpt lat="40.70037962743443" lon="19.935899116698806"><ele>51.0</ele><time>2026-04-27T10:07:57Z</time></trkpt><trkpt lat="40.700371119110926" lon="19.936068002599892"><ele>51.0</ele><time>2026-04-27T10:07:58Z</time></trkpt><trkpt lat="40.70036204103851" lon="19.93624819754448"><ele>51.0</ele><time>2026-04-27T10:07:59Z</time></trkpt><trkpt lat="40.70035348008501" lon="19.93641812801951"><ele>51.0</ele><time>2026-04-27T10:08:00Z</time></trkpt><trkpt lat="40.70034621535911" lon="19.93656586547793"><ele>51.0</ele><time>2026-04-27T10:08:01Z</time></trkpt><trkpt lat="40.70034026285352" lon="19.936703944162698"><ele>51.0</ele><time>2026-04-27T10:08:02Z</time></trkpt><trkpt lat="40.70033481893755" lon="19.936833169878387"><ele>51.0</ele><time>2026-04-27T10:08:03Z</time></trkpt><trkpt lat="40.70033178294905" lon="19.93694096882105"><ele>51.0</ele><time>2026-04-27T10:08:04Z</time></trkpt><trkpt lat="40.70032892503269" lon="19.9370424449344"><ele>51.0</ele><time>2026-04-27T10:08:05Z</time></trkpt><trkpt lat="40.700326459824254" lon="19.9371299782887"><ele>51.0</ele><time>2026-04-27T10:08:06Z</time></trkpt><trkpt lat="40.70037125825593" lon="19.937249199238288"><ele>53.0</ele><time>2026-04-27T10:08:08Z</time></trkpt><trkpt lat="40.70045955051762" lon="19.937312225865462"><ele>55.0</ele><time>2026-04-27T10:08:10Z</time></trkpt><trkpt lat="40.70053132036607" lon="19.937319544719795"><ele>56.99999999999999</ele><time>2026-04-27T10:08:11Z</time></trkpt><trkpt lat="40.70062859676119" lon="19.937330041566184"><ele>59.0</ele><time>2026-04-27T10:08:12Z</time></trkpt><trkpt lat="40.700724663242724" lon="19.937341666108487"><ele>61.0</ele><time>2026-04-27T10:08:13Z</time></trkpt><trkpt lat="40.700830502963974" lon="19.93733806385126"><ele>61.0</ele><time>2026-04-27T10:08:14Z</time></trkpt><trkpt lat="40.70094236070873" lon="19.93735105189229"><ele>61.0</ele><time>2026-04-27T10:08:15Z</time></trkpt><trkpt lat="40.70105892496084" lon="19.937372094621647"><ele>61.0</ele><time>2026-04-27T10:08:16Z</time></trkpt><trkpt lat="40.70118131263525" lon="19.93738191267686"><ele>61.0</ele><time>2026-04-27T10:08:17Z</time></trkpt><trkpt lat="40.70129606421378" lon="19.937411130722445"><ele>60.199999999999996</ele><time>2026-04-27T10:08:18Z</time></trkpt><trkpt lat="40.701390823641084" lon="19.937422224940676"><ele>59.39999999999999</ele><time>2026-04-27T10:08:19Z</time></trkpt><trkpt lat="40.70147485901546" lon="19.937413936339098"><ele>58.6</ele><time>2026-04-27T10:08:20Z</time></trkpt><trkpt lat="40.70155870430393" lon="19.937429221795803"><ele>57.8</ele><time>2026-04-27T10:08:21Z</time></trkpt><trkpt lat="40.70165165756919" lon="19.937432704823873"><ele>57.0</ele><time>2026-04-27T10:08:22Z</time></trkpt><trkpt lat="40.70175589436391" lon="19.937418709139244"><ele>57.0</ele><time>2026-04-27T10:08:23Z</time></trkpt><trkpt lat="40.70186097009162" lon="19.93741311169876"><ele>57.0</ele><time>2026-04-27T10:08:24Z</time></trkpt><trkpt lat="40.70195095467332" lon="19.937424009451487"><ele>57.0</ele><time>2026-04-27T10:08:25Z</time></trkpt><trkpt lat="40.70202481829579" lon="19.937423611278575"><ele>57.0</ele><time>2026-04-27T10:08:26Z</time></trkpt><trkpt lat="40.70208718910495" lon="19.93743791283133"><ele>57.0</ele><time>2026-04-27T10:08:27Z</time></trkpt><trkpt lat="40.70217931090456" lon="19.937520448748835"><ele>57.0</ele><time>2026-04-27T10:08:29Z</time></trkpt><trkpt lat="40.70222797217434" lon="19.937617973598737"><ele>55.2</ele><time>2026-04-27T10:08:31Z</time></trkpt><trkpt lat="40.70222195923892" lon="19.937779062826632"><ele>53.400000000000006</ele><time>2026-04-27T10:08:33Z</time></trkpt><trkpt lat="40.70221940905256" lon="19.93788765662466"><ele>51.599999999999994</ele><time>2026-04-27T10:08:34Z</time></trkpt><trkpt lat="40.70222203080883" lon="19.938011158933953"><ele>49.8</ele><time>2026-04-27T10:08:35Z</time></trkpt><trkpt lat="40.70222279183524" lon="19.938143666594087"><ele>48.0</ele><time>2026-04-27T10:08:36Z</time></trkpt><trkpt lat="40.70222493033869" lon="19.93828705501279"><ele>48.25</ele><time>2026-04-27T10:08:37Z</time></trkpt><trkpt lat="40.70220718464662" lon="19.938440929279675"><ele>48.5</ele><time>2026-04-27T10:08:38Z</time></trkpt><trkpt lat="40.702204847077276" lon="19.938605049362994"><ele>48.75</ele><time>2026-04-27T10:08:39Z</time></trkpt><trkpt lat="40.70220264772448" lon="19.93877508923375"><ele>49.0</ele><time>2026-04-27T10:08:40Z</time></trkpt><trkpt lat="40.702199976873025" lon="19.938945723939486"><ele>49.0</ele><time>2026-04-27T10:08:41Z</time></trkpt><trkpt lat="40.702213261293885" lon="19.939101147525115"><ele>49.0</ele><time>2026-04-27T10:08:42Z</time></trkpt><trkpt lat="40.702195704777395" lon="19.93925385587105"><ele>49.0</ele><time>2026-04-27T10:08:43Z</time></trkpt><trkpt lat="40.70219357262846" lon="19.9394015380665"><ele>49.0</ele><time>2026-04-27T10:08:44Z</time></trkpt><trkpt lat="40.70219148246499" lon="19.939546660945705"><ele>49.25</ele><time>2026-04-27T10:08:45Z</time></trkpt><trkpt lat="40.702189272552886" lon="19.939703455353502"><ele>49.5</ele><time>2026-04-27T10:08:46Z</time></trkpt><trkpt lat="40.70218712066146" lon="19.93986820625092"><ele>49.75</ele><time>2026-04-27T10:08:47Z</time></trkpt><trkpt lat="40.70220150025261" lon="19.940040265501217"><ele>50.0</ele><time>2026-04-27T10:08:48Z</time></trkpt><trkpt lat="40.70219865638462" lon="19.94021525379196"><ele>50.6</ele><time>2026-04-27T10:08:49Z</time></trkpt><trkpt lat="40.70219542734588" lon="19.940385335193504"><ele>51.2</ele><time>2026-04-27T10:08:50Z</time></trkpt><trkpt lat="40.70219387290979" lon="19.940529801705956"><ele>51.8</ele><time>2026-04-27T10:08:51Z</time></trkpt><trkpt lat="40.702193535982424" lon="19.94065063305784"><ele>52.4</ele><time>2026-04-27T10:08:52Z</time></trkpt><trkpt lat="40.702192121706254" lon="19.940760895041386"><ele>53.0</ele><time>2026-04-27T10:08:53Z</time></trkpt><trkpt lat="40.70218957492284" lon="19.940871542503082"><ele>53.0</ele><time>2026-04-27T10:08:54Z</time></trkpt><trkpt lat="40.70219509311808" lon="19.940993523557758"><ele>53.0</ele><time>2026-04-27T10:08:55Z</time></trkpt><trkpt lat="40.70220457449483" lon="19.94112492061652"><ele>53.0</ele><time>2026-04-27T10:08:56Z</time></trkpt><trkpt lat="40.70221032736599" lon="19.941252485826478"><ele>53.0</ele><time>2026-04-27T10:08:57Z</time></trkpt><trkpt lat="40.70221504546078" lon="19.94137658365605"><ele>53.0</ele><time>2026-04-27T10:08:58Z</time></trkpt><trkpt lat="40.70221918107776" lon="19.9415029689649"><ele>53.0</ele><time>2026-04-27T10:08:59Z</time></trkpt><trkpt lat="40.702234171097345" lon="19.9416294547642"><ele>53.0</ele><time>2026-04-27T10:09:00Z</time></trkpt><trkpt lat="40.7022543841785" lon="19.94175705008435"><ele>53.0</ele><time>2026-04-27T10:09:01Z</time></trkpt><trkpt lat="40.70228343367872" lon="19.941864788646317"><ele>53.0</ele><time>2026-04-27T10:09:02Z</time></trkpt><trkpt lat="40.702315660019565" lon="19.941964485553928"><ele>53.0</ele><time>2026-04-27T10:09:03Z</time></trkpt><trkpt lat="40.70235716522763" lon="19.942068685409364"><ele>53.599999999999994</ele><time>2026-04-27T10:09:04Z</time></trkpt><trkpt lat="40.702395546433166" lon="19.9421790107391"><ele>54.199999999999996</ele><time>2026-04-27T10:09:05Z</time></trkpt><trkpt lat="40.7024201059211" lon="19.94229873820041"><ele>54.8</ele><time>2026-04-27T10:09:06Z</time></trkpt><trkpt lat="40.70243272883507" lon="19.94242410592569"><ele>55.4</ele><time>2026-04-27T10:09:07Z</time></trkpt><trkpt lat="40.70240862440517" lon="19.94254149734211"><ele>56.0</ele><time>2026-04-27T10:09:08Z</time></trkpt><trkpt lat="40.70238240440928" lon="19.94266326680784"><ele>56.0</ele><time>2026-04-27T10:09:09Z</time></trkpt><trkpt lat="40.70235503515104" lon="19.942793023842583"><ele>55.99999999999999</ele><time>2026-04-27T10:09:10Z</time></trkpt><trkpt lat="40.702325775529005" lon="19.94293446848786"><ele>55.99999999999999</ele><time>2026-04-27T10:09:11Z</time></trkpt><trkpt lat="40.702296393637205" lon="19.943075846403552"><ele>56.0</ele><time>2026-04-27T10:09:12Z</time></trkpt><trkpt lat="40.702271386787835" lon="19.943222719749755"><ele>56.0</ele><time>2026-04-27T10:09:13Z</time></trkpt><trkpt lat="40.70225898553727" lon="19.94337713371134"><ele>55.8</ele><time>2026-04-27T10:09:14Z</time></trkpt><trkpt lat="40.70226245215511" lon="19.943526819621944"><ele>55.599999999999994</ele><time>2026-04-27T10:09:15Z</time></trkpt><trkpt lat="40.70227477551598" lon="19.943667205088694"><ele>55.4</ele><time>2026-04-27T10:09:16Z</time></trkpt><trkpt lat="40.7022843218095" lon="19.94379260987329"><ele>55.2</ele><time>2026-04-27T10:09:17Z</time></trkpt><trkpt lat="40.70229349060784" lon="19.94390529068474"><ele>55.0</ele><time>2026-04-27T10:09:18Z</time></trkpt><trkpt lat="40.70230550937176" lon="19.94400161261069"><ele>55.0</ele><time>2026-04-27T10:09:19Z</time></trkpt><trkpt lat="40.702332663944716" lon="19.94414746053174"><ele>55.0</ele><time>2026-04-27T10:09:21Z</time></trkpt><trkpt lat="40.70239210954903" lon="19.944203439665717"><ele>55.0</ele><time>2026-04-27T10:09:22Z</time></trkpt><trkpt lat="40.70243094910043" lon="19.944331139868574"><ele>55.0</ele><time>2026-04-27T10:09:24Z</time></trkpt><trkpt lat="40.70246034013493" lon="19.94446027142369"><ele>55.0</ele><time>2026-04-27T10:09:26Z</time></trkpt><trkpt lat="40.70248158858579" lon="19.94455063789497"><ele>55.166666666666664</ele><time>2026-04-27T10:09:28Z</time></trkpt><trkpt lat="40.702499930179926" lon="19.944632843561013"><ele>55.33333333333333</ele><time>2026-04-27T10:09:30Z</time></trkpt><trkpt lat="40.70253779153325" lon="19.944752493290594"><ele>55.5</ele><time>2026-04-27T10:09:42Z</time></trkpt><trkpt lat="40.70256180936052" lon="19.94488565801216"><ele>55.66666666666667</ele><time>2026-04-27T10:09:44Z</time></trkpt><trkpt lat="40.70258643731611" lon="19.944982421139077"><ele>55.833333333333336</ele><time>2026-04-27T10:09:46Z</time></trkpt><trkpt lat="40.70263299204565" lon="19.945091621965464"><ele>56.0</ele><time>2026-04-27T10:09:49Z</time></trkpt><trkpt lat="40.70267313144215" lon="19.945155759196716"><ele>56.199999999999996</ele><time>2026-04-27T10:09:52Z</time></trkpt><trkpt lat="40.70269164964799" lon="19.94525159690215"><ele>56.39999999999999</ele><time>2026-04-27T10:09:56Z</time></trkpt><trkpt lat="40.70274773077988" lon="19.945381974452275"><ele>56.6</ele><time>2026-04-27T10:09:58Z</time></trkpt><trkpt lat="40.70278307409636" lon="19.945464617739972"><ele>56.8</ele><time>2026-04-27T10:09:59Z</time></trkpt><trkpt lat="40.70281448646094" lon="19.94553806938356"><ele>57.0</ele><time>2026-04-27T10:10:00Z</time></trkpt><trkpt lat="40.70287583336277" lon="19.945682063148524"><ele>57.0</ele><time>2026-04-27T10:10:02Z</time></trkpt><trkpt lat="40.70291213053543" lon="19.945768161818354"><ele>57.0</ele><time>2026-04-27T10:10:03Z</time></trkpt><trkpt lat="40.70294752251145" lon="19.945852547090492"><ele>57.0</ele><time>2026-04-27T10:10:04Z</time></trkpt><trkpt lat="40.702983707295736" lon="19.945938822723384"><ele>57.0</ele><time>2026-04-27T10:10:05Z</time></trkpt><trkpt lat="40.703021621664774" lon="19.94602783737255"><ele>57.0</ele><time>2026-04-27T10:10:06Z</time></trkpt><trkpt lat="40.7030607252947" lon="19.94611941053489"><ele>57.0</ele><time>2026-04-27T10:10:07Z</time></trkpt><trkpt lat="40.70310263341572" lon="19.94621755086647"><ele>57.0</ele><time>2026-04-27T10:10:08Z</time></trkpt><trkpt lat="40.70314240288653" lon="19.946311359999974"><ele>57.0</ele><time>2026-04-27T10:10:09Z</time></trkpt><trkpt lat="40.703185133574756" lon="19.94641233631813"><ele>57.0</ele><time>2026-04-27T10:10:10Z</time></trkpt><trkpt lat="40.70322590137245" lon="19.946508096673377"><ele>57.0</ele><time>2026-04-27T10:10:11Z</time></trkpt><trkpt lat="40.703259869674056" lon="19.94658788534951"><ele>57.0</ele><time>2026-04-27T10:10:12Z</time></trkpt><trkpt lat="40.70330553692652" lon="19.94669517185796"><ele>57.0</ele><time>2026-04-27T10:10:14Z</time></trkpt><trkpt lat="40.70335337189247" lon="19.946807554590343"><ele>56.42857142857142</ele><time>2026-04-27T10:10:16Z</time></trkpt><trkpt lat="40.70338444959714" lon="19.946880565370634"><ele>55.85714285714285</ele><time>2026-04-27T10:10:17Z</time></trkpt><trkpt lat="40.703414926632426" lon="19.946960093848514"><ele>55.285714285714285</ele><time>2026-04-27T10:10:18Z</time></trkpt><trkpt lat="40.703439143726506" lon="19.947043629206004"><ele>54.71428571428571</ele><time>2026-04-27T10:10:19Z</time></trkpt><trkpt lat="40.70345280552703" lon="19.947135624177495"><ele>54.14285714285714</ele><time>2026-04-27T10:10:20Z</time></trkpt><trkpt lat="40.703467025264786" lon="19.94723290360252"><ele>53.57142857142857</ele><time>2026-04-27T10:10:21Z</time></trkpt><trkpt lat="40.70347946553021" lon="19.947318009529674"><ele>53.0</ele><time>2026-04-27T10:10:22Z</time></trkpt><trkpt lat="40.70349458209598" lon="19.947423426063054"><ele>53.0</ele><time>2026-04-27T10:10:24Z</time></trkpt></trkseg><trkseg><trkpt lat="40.70330249871248" lon="19.94748503092207"><ele>53.00000000000001</ele><time>2026-04-27T11:40:25Z</time></trkpt><trkpt lat="40.70339383513933" lon="19.947449723950182"><ele>53.0</ele><time>2026-04-27T11:40:27Z</time></trkpt><trkpt lat="40.70346657492969" lon="19.947436163653723"><ele>53.0</ele><time>2026-04-27T11:40:28.999Z</time></trkpt><trkpt lat="40.70355379722419" lon="19.947531237855145"><ele>53.0</ele><time>2026-04-27T11:40:33.999Z</time></trkpt><trkpt lat="40.70357859922251" lon="19.947607605651772"><ele>53.00000000000001</ele><time>2026-04-27T11:40:34.999Z</time></trkpt><trkpt lat="40.703540406511316" lon="19.94772111075017"><ele>53.0</ele><time>2026-04-27T11:40:36.999Z</time></trkpt><trkpt lat="40.70357452080569" lon="19.94784653515258"><ele>53.57142857142857</ele><time>2026-04-27T11:40:38.999Z</time></trkpt><trkpt lat="40.70357459692" lon="19.94793412062996"><ele>54.14285714285714</ele><time>2026-04-27T11:40:39.999Z</time></trkpt><trkpt lat="40.703593812874786" lon="19.948044626082805"><ele>54.71428571428571</ele><time>2026-04-27T11:40:41.999Z</time></trkpt><trkpt lat="40.70359868622838" lon="19.94813927874373"><ele>55.285714285714285</ele><time>2026-04-27T11:40:43.999Z</time></trkpt><trkpt lat="40.70360437214948" lon="19.94823186404176"><ele>55.85714285714285</ele><time>2026-04-27T11:40:45.999Z</time></trkpt><trkpt lat="40.70358652822181" lon="19.948318129025505"><ele>56.42857142857142</ele><time>2026-04-27T11:40:55.999Z</time></trkpt><trkpt lat="40.70359557995442" lon="19.94841721408477"><ele>57.0</ele><time>2026-04-27T11:40:57.999Z</time></trkpt><trkpt lat="40.703592376527325" lon="19.948501218141878"><ele>57.0</ele><time>2026-04-27T11:40:58.999Z</time></trkpt><trkpt lat="40.70358364681229" lon="19.948651145787416"><ele>57.0</ele><time>2026-04-27T11:41:00.999Z</time></trkpt><trkpt lat="40.70355566377853" lon="19.948741576224396"><ele>57.0</ele><time>2026-04-27T11:41:02.999Z</time></trkpt><trkpt lat="40.70353389736123" lon="19.948859388263962"><ele>57.0</ele><time>2026-04-27T11:41:04.999Z</time></trkpt><trkpt lat="40.703509827669926" lon="19.948979736137748"><ele>57.0</ele><time>2026-04-27T11:41:06.999Z</time></trkpt><trkpt lat="40.70348231476135" lon="19.949097240460315"><ele>57.14285714285714</ele><time>2026-04-27T11:41:08.999Z</time></trkpt><trkpt lat="40.70346565622964" lon="19.949204884694343"><ele>57.28571428571428</ele><time>2026-04-27T11:41:10.999Z</time></trkpt><trkpt lat="40.703414287785485" lon="19.949329322696087"><ele>57.42857142857143</ele><time>2026-04-27T11:41:12.999Z</time></trkpt><trkpt lat="40.7033773955562" lon="19.949398328215768"><ele>57.57142857142857</ele><time>2026-04-27T11:41:13.999Z</time></trkpt><trkpt lat="40.703337257092585" lon="19.949468277352388"><ele>57.714285714285715</ele><time>2026-04-27T11:41:14.999Z</time></trkpt><trkpt lat="40.7033068149139" lon="19.94954347685517"><ele>57.85714285714286</ele><time>2026-04-27T11:41:15.999Z</time></trkpt><trkpt lat="40.70327536489793" lon="19.949615623109217"><ele>58.00000000000001</ele><time>2026-04-27T11:41:16.999Z</time></trkpt><trkpt lat="40.703237093944196" lon="19.949687371758927"><ele>57.99999999999999</ele><time>2026-04-27T11:41:17.999Z</time></trkpt><trkpt lat="40.70319739702383" lon="19.94975937087084"><ele>58.0</ele><time>2026-04-27T11:41:18.999Z</time></trkpt><trkpt lat="40.70315342272766" lon="19.949832412501962"><ele>58.0</ele><time>2026-04-27T11:41:19.999Z</time></trkpt><trkpt lat="40.70310129326413" lon="19.949914247223024"><ele>58.0</ele><time>2026-04-27T11:41:20.999Z</time></trkpt><trkpt lat="40.70304622719167" lon="19.949996430782846"><ele>57.99999999999999</ele><time>2026-04-27T11:41:21.999Z</time></trkpt><trkpt lat="40.7029867496586" lon="19.950076579069588"><ele>58.0</ele><time>2026-04-27T11:41:22.999Z</time></trkpt><trkpt lat="40.70293046322824" lon="19.9501555208267"><ele>57.42857142857144</ele><time>2026-04-27T11:41:23.999Z</time></trkpt><trkpt lat="40.702857331282175" lon="19.95020492524026"><ele>56.85714285714286</ele><time>2026-04-27T11:41:24.999Z</time></trkpt><trkpt lat="40.70279343690468" lon="19.95025387523826"><ele>56.28571428571429</ele><time>2026-04-27T11:41:25.999Z</time></trkpt><trkpt lat="40.70273500192518" lon="19.950295250797055"><ele>55.71428571428572</ele><time>2026-04-27T11:41:26.999Z</time></trkpt><trkpt lat="40.702680764692275" lon="19.950341548340255"><ele>55.14285714285714</ele><time>2026-04-27T11:41:27.999Z</time></trkpt><trkpt lat="40.702612057334846" lon="19.950366606352805"><ele>54.57142857142857</ele><time>2026-04-27T11:41:28.999Z</time></trkpt><trkpt lat="40.70253302807865" lon="19.950377567410904"><ele>54.0</ele><time>2026-04-27T11:41:29.999Z</time></trkpt><trkpt lat="40.70245987277467" lon="19.950425427230684"><ele>55.57142857142857</ele><time>2026-04-27T11:41:30.999Z</time></trkpt><trkpt lat="40.70240591470778" lon="19.950516691622884"><ele>57.14285714285714</ele><time>2026-04-27T11:41:31.999Z</time></trkpt><trkpt lat="40.70234062947094" lon="19.9505823117665"><ele>58.71428571428572</ele><time>2026-04-27T11:41:32.999Z</time></trkpt><trkpt lat="40.70227982406837" lon="19.950641646547005"><ele>60.28571428571429</ele><time>2026-04-27T11:41:33.999Z</time></trkpt><trkpt lat="40.702223800068964" lon="19.95069183406642"><ele>61.85714285714286</ele><time>2026-04-27T11:41:34.999Z</time></trkpt><trkpt lat="40.70216904124166" lon="19.950743777371823"><ele>63.42857142857144</ele><time>2026-04-27T11:41:35.999Z</time></trkpt><trkpt lat="40.70211724753087" lon="19.950798883468522"><ele>65.0</ele><time>2026-04-27T11:41:36.999Z</time></trkpt><trkpt lat="40.70206257540815" lon="19.950850826179206"><ele>65.16666666666667</ele><time>2026-04-27T11:41:37.998Z</time></trkpt><trkpt lat="40.702003306954026" lon="19.950910754872833"><ele>65.33333333333334</ele><time>2026-04-27T11:41:38.998Z</time></trkpt><trkpt lat="40.701941683129185" lon="19.950973875481395"><ele>65.5</ele><time>2026-04-27T11:41:39.998Z</time></trkpt><trkpt lat="40.70187493530681" lon="19.951039601218035"><ele>65.66666666666667</ele><time>2026-04-27T11:41:40.998Z</time></trkpt><trkpt lat="40.7018079920298" lon="19.95111612517203"><ele>65.83333333333333</ele><time>2026-04-27T11:41:41.998Z</time></trkpt><trkpt lat="40.70173835354958" lon="19.95119466746341"><ele>66.0</ele><time>2026-04-27T11:41:42.998Z</time></trkpt><trkpt lat="40.701665893683646" lon="19.95127120947849"><ele>66.0</ele><time>2026-04-27T11:41:43.998Z</time></trkpt><trkpt lat="40.70158931719033" lon="19.951343147013326"><ele>66.0</ele><time>2026-04-27T11:41:44.998Z</time></trkpt><trkpt lat="40.701513008100086" lon="19.95140944207295"><ele>66.0</ele><time>2026-04-27T11:41:45.998Z</time></trkpt><trkpt lat="40.70143865876458" lon="19.95146955409621"><ele>66.0</ele><time>2026-04-27T11:41:46.998Z</time></trkpt><trkpt lat="40.7013640589641" lon="19.951529867363064"><ele>66.0</ele><time>2026-04-27T11:41:47.999Z</time></trkpt><trkpt lat="40.70128426612554" lon="19.95159449990107"><ele>66.0</ele><time>2026-04-27T11:41:48.999Z</time></trkpt><trkpt lat="40.70120123966081" lon="19.951660266664064"><ele>66.0</ele><time>2026-04-27T11:41:49.999Z</time></trkpt><trkpt lat="40.701115720887394" lon="19.951722580398474"><ele>66.0</ele><time>2026-04-27T11:41:50.999Z</time></trkpt><trkpt lat="40.70102657343058" lon="19.951776325775906"><ele>66.0</ele><time>2026-04-27T11:41:51.999Z</time></trkpt><trkpt lat="40.70093933699155" lon="19.95182546037974"><ele>66.0</ele><time>2026-04-27T11:41:52.999Z</time></trkpt><trkpt lat="40.70085059008293" lon="19.951872646703986"><ele>63.8</ele><time>2026-04-27T11:41:53.999Z</time></trkpt><trkpt lat="40.70076085296848" lon="19.951925841063744"><ele>61.599999999999994</ele><time>2026-04-27T11:41:54.999Z</time></trkpt><trkpt lat="40.70066436511089" lon="19.951985276710204"><ele>59.4</ele><time>2026-04-27T11:41:55.999Z</time></trkpt><trkpt lat="40.700562985897164" lon="19.952048266078073"><ele>57.2</ele><time>2026-04-27T11:41:56.999Z</time></trkpt><trkpt lat="40.70045693989386" lon="19.952110900493377"><ele>55.0</ele><time>2026-04-27T11:41:57.999Z</time></trkpt><trkpt lat="40.70034965293362" lon="19.952177799555006"><ele>61.25</ele><time>2026-04-27T11:41:58.999Z</time></trkpt><trkpt lat="40.700242419134646" lon="19.952249064356845"><ele>67.5</ele><time>2026-04-27T11:41:59.999Z</time></trkpt><trkpt lat="40.70013487120514" lon="19.952323342583213"><ele>73.75</ele><time>2026-04-27T11:42:00.999Z</time></trkpt><trkpt lat="40.70002836490671" lon="19.952389306511005"><ele>80.0</ele><time>2026-04-27T11:42:01.999Z</time></trkpt><trkpt lat="40.69992164299704" lon="19.95245126828184"><ele>80.0</ele><time>2026-04-27T11:42:02.999Z</time></trkpt><trkpt lat="40.6998137020837" lon="19.952504003063098"><ele>80.0</ele><time>2026-04-27T11:42:03.999Z</time></trkpt><trkpt lat="40.69970591091399" lon="19.952548927176615"><ele>80.0</ele><time>2026-04-27T11:42:04.999Z</time></trkpt><trkpt lat="40.69959644583766" lon="19.952594446983984"><ele>80.0</ele><time>2026-04-27T11:42:05.999Z</time></trkpt><trkpt lat="40.69948801577904" lon="19.952633169816"><ele>79.5</ele><time>2026-04-27T11:42:06.999Z</time></trkpt><trkpt lat="40.69938185012064" lon="19.95268334010132"><ele>79.0</ele><time>2026-04-27T11:42:07.999Z</time></trkpt><trkpt lat="40.699273793448505" lon="19.95273211667075"><ele>78.5</ele><time>2026-04-27T11:42:08.999Z</time></trkpt><trkpt lat="40.699165318231785" lon="19.952793358279205"><ele>78.0</ele><time>2026-04-27T11:42:09.999Z</time></trkpt><trkpt lat="40.69905330083511" lon="19.952858738356557"><ele>78.0</ele><time>2026-04-27T11:42:10.999Z</time></trkpt><trkpt lat="40.698939562716326" lon="19.952925584133574"><ele>78.0</ele><time>2026-04-27T11:42:11.999Z</time></trkpt><trkpt lat="40.69881938975845" lon="19.952988620493098"><ele>78.0</ele><time>2026-04-27T11:42:12.999Z</time></trkpt><trkpt lat="40.69869350945888" lon="19.953060130766588"><ele>78.0</ele><time>2026-04-27T11:42:13.999Z</time></trkpt><trkpt lat="40.698570314351045" lon="19.953126267374838"><ele>83.4</ele><time>2026-04-27T11:42:14.999Z</time></trkpt><trkpt lat="40.698460056107784" lon="19.953176813387156"><ele>88.8</ele><time>2026-04-27T11:42:15.999Z</time></trkpt><trkpt lat="40.6983586708139" lon="19.953202617295272"><ele>94.2</ele><time>2026-04-27T11:42:16.999Z</time></trkpt><trkpt lat="40.698252844250256" lon="19.953238020590245"><ele>99.6</ele><time>2026-04-27T11:42:17.999Z</time></trkpt><trkpt lat="40.69814194829955" lon="19.953284522972456"><ele>105.0</ele><time>2026-04-27T11:42:18.999Z</time></trkpt><trkpt lat="40.69802627458363" lon="19.953314473191522"><ele>105.0</ele><time>2026-04-27T11:42:19.999Z</time></trkpt><trkpt lat="40.69791457305815" lon="19.953337919578036"><ele>105.0</ele><time>2026-04-27T11:42:20.999Z</time></trkpt><trkpt lat="40.69780686350667" lon="19.9533604975209"><ele>105.0</ele><time>2026-04-27T11:42:21.999Z</time></trkpt><trkpt lat="40.697694123199966" lon="19.953370061835006"><ele>105.0</ele><time>2026-04-27T11:42:22.999Z</time></trkpt><trkpt lat="40.697576069745956" lon="19.95339897375325"><ele>100.0</ele><time>2026-04-27T11:42:23.999Z</time></trkpt><trkpt lat="40.69746472767008" lon="19.95343305887354"><ele>95.0</ele><time>2026-04-27T11:42:24.999Z</time></trkpt><trkpt lat="40.6973514729863" lon="19.95346821798634"><ele>90.0</ele><time>2026-04-27T11:42:25.999Z</time></trkpt><trkpt lat="40.69723806160266" lon="19.953507376260394"><ele>85.0</ele><time>2026-04-27T11:42:26.999Z</time></trkpt><trkpt lat="40.697126889730235" lon="19.953551852586077"><ele>85.0</ele><time>2026-04-27T11:42:27.999Z</time></trkpt><trkpt lat="40.69701304589331" lon="19.95359612798824"><ele>85.0</ele><time>2026-04-27T11:42:28.999Z</time></trkpt><trkpt lat="40.696901092780514" lon="19.953639741174296"><ele>85.0</ele><time>2026-04-27T11:42:29.999Z</time></trkpt><trkpt lat="40.69678944049897" lon="19.953694041564958"><ele>85.0</ele><time>2026-04-27T11:42:30.999Z</time></trkpt><trkpt lat="40.6966835041604" lon="19.953745830649492"><ele>90.75</ele><time>2026-04-27T11:42:31.999Z</time></trkpt><trkpt lat="40.696579015839916" lon="19.953797713949033"><ele>96.5</ele><time>2026-04-27T11:42:32.999Z</time></trkpt><trkpt lat="40.69647050212327" lon="19.95385169936138"><ele>102.25</ele><time>2026-04-27T11:42:33.999Z</time></trkpt><trkpt lat="40.6963620121782" lon="19.953905388149444"><ele>108.0</ele><time>2026-04-27T11:42:34.999Z</time></trkpt><trkpt lat="40.69625690022055" lon="19.953957186934506"><ele>108.0</ele><time>2026-04-27T11:42:35.999Z</time></trkpt><trkpt lat="40.69614915813044" lon="19.9540102711402"><ele>108.0</ele><time>2026-04-27T11:42:36.999Z</time></trkpt><trkpt lat="40.69603914288705" lon="19.954064585319788"><ele>108.0</ele><time>2026-04-27T11:42:37.999Z</time></trkpt><trkpt lat="40.695932237602726" lon="19.954116210173655"><ele>108.0</ele><time>2026-04-27T11:42:38.999Z</time></trkpt><trkpt lat="40.69582456677789" lon="19.954168547451836"><ele>104.0</ele><time>2026-04-27T11:42:39.999Z</time></trkpt><trkpt lat="40.69571874064504" lon="19.954220730280603"><ele>100.0</ele><time>2026-04-27T11:42:40.999Z</time></trkpt><trkpt lat="40.695610423574095" lon="19.9542683145176"><ele>96.0</ele><time>2026-04-27T11:42:41.999Z</time></trkpt><trkpt lat="40.69550203576712" lon="19.954315357372494"><ele>92.0</ele><time>2026-04-27T11:42:42.999Z</time></trkpt><trkpt lat="40.695392324221004" lon="19.95436281782225"><ele>92.0</ele><time>2026-04-27T11:42:43.999Z</time></trkpt><trkpt lat="40.695282686461205" lon="19.954410392028212"><ele>92.0</ele><time>2026-04-27T11:42:44.999Z</time></trkpt><trkpt lat="40.695177317313224" lon="19.954451698747953"><ele>92.0</ele><time>2026-04-27T11:42:45.999Z</time></trkpt><trkpt lat="40.69506422390331" lon="19.95449272341603"><ele>92.0</ele><time>2026-04-27T11:42:46.999Z</time></trkpt><trkpt lat="40.694956104521644" lon="19.95453195319474"><ele>97.75</ele><time>2026-04-27T11:42:47.999Z</time></trkpt><trkpt lat="40.6948413730191" lon="19.95457403708115"><ele>103.5</ele><time>2026-04-27T11:42:48.999Z</time></trkpt><trkpt lat="40.69473194021" lon="19.954629722468837"><ele>109.25</ele><time>2026-04-27T11:42:49.999Z</time></trkpt><trkpt lat="40.69462936885996" lon="19.954702029310198"><ele>115.0</ele><time>2026-04-27T11:42:50.999Z</time></trkpt><trkpt lat="40.69452106625827" lon="19.954761533332366"><ele>123.5</ele><time>2026-04-27T11:42:51.999Z</time></trkpt><trkpt lat="40.69440784571572" lon="19.954804700570197"><ele>132.0</ele><time>2026-04-27T11:42:52.999Z</time></trkpt><trkpt lat="40.69430285666187" lon="19.954869286608268"><ele>140.5</ele><time>2026-04-27T11:42:53.999Z</time></trkpt><trkpt lat="40.694204448061605" lon="19.954952254407686"><ele>149.0</ele><time>2026-04-27T11:42:54.999Z</time></trkpt><trkpt lat="40.69410131124003" lon="19.955011905615102"><ele>140.0</ele><time>2026-04-27T11:42:55.999Z</time></trkpt><trkpt lat="40.69399765893536" lon="19.955063530269133"><ele>131.0</ele><time>2026-04-27T11:42:56.999Z</time></trkpt><trkpt lat="40.69391939050494" lon="19.955121793745406"><ele>122.0</ele><time>2026-04-27T11:42:57.999Z</time></trkpt><trkpt lat="40.69382824763366" lon="19.955189486409783"><ele>113.0</ele><time>2026-04-27T11:42:59.999Z</time></trkpt><trkpt lat="40.69375107844195" lon="19.955262229692394"><ele>104.0</ele><time>2026-04-27T11:43:01.999Z</time></trkpt><trkpt lat="40.693651803198314" lon="19.955330047781555"><ele>111.0</ele><time>2026-04-27T11:43:03.999Z</time></trkpt><trkpt lat="40.69355688619315" lon="19.95540769759147"><ele>118.0</ele><time>2026-04-27T11:43:05.999Z</time></trkpt><trkpt lat="40.693462324911614" lon="19.95547508458781"><ele>125.0</ele><time>2026-04-27T11:43:07.999Z</time></trkpt><trkpt lat="40.69334460935984" lon="19.955538254439126"><ele>132.0</ele><time>2026-04-27T11:43:09.999Z</time></trkpt><trkpt lat="40.693279478250766" lon="19.955582520854968"><ele>139.0</ele><time>2026-04-27T11:43:10.999Z</time></trkpt><trkpt lat="40.69321863566161" lon="19.955645749855183"><ele>139.0</ele><time>2026-04-27T11:43:11.999Z</time></trkpt><trkpt lat="40.693146880311986" lon="19.955686807006987"><ele>139.0</ele><time>2026-04-27T11:43:12.999Z</time></trkpt><trkpt lat="40.69306998072446" lon="19.955721581506168"><ele>139.0</ele><time>2026-04-27T11:43:13.999Z</time></trkpt><trkpt lat="40.692987546307926" lon="19.955772498335747"><ele>139.0</ele><time>2026-04-27T11:43:14.999Z</time></trkpt><trkpt lat="40.69288913746642" lon="19.955805819915135"><ele>139.0</ele><time>2026-04-27T11:43:15.999Z</time></trkpt><trkpt lat="40.69279043582419" lon="19.955850256856458"><ele>136.0</ele><time>2026-04-27T11:43:16.999Z</time></trkpt><trkpt lat="40.692686178891364" lon="19.955893600915136"><ele>133.0</ele><time>2026-04-27T11:43:17.999Z</time></trkpt><trkpt lat="40.69257388899701" lon="19.955940415373707"><ele>130.0</ele><time>2026-04-27T11:43:18.999Z</time></trkpt><trkpt lat="40.6924613985902" lon="19.955987104353028"><ele>127.0</ele><time>2026-04-27T11:43:19.999Z</time></trkpt><trkpt lat="40.69235336175941" lon="19.956031872809834"><ele>127.00000000000001</ele><time>2026-04-27T11:43:20.999Z</time></trkpt><trkpt lat="40.692271629238036" lon="19.95605892579336"><ele>127.0</ele><time>2026-04-27T11:43:21.999Z</time></trkpt><trkpt lat="40.69219464040913" lon="19.956083021098962"><ele>127.0</ele><time>2026-04-27T11:43:22.999Z</time></trkpt><trkpt lat="40.69212151028796" lon="19.95608433951044"><ele>127.0</ele><time>2026-04-27T11:43:23.999Z</time></trkpt><trkpt lat="40.69205106771979" lon="19.95608248711703"><ele>127.00000000000001</ele><time>2026-04-27T11:43:24.999Z</time></trkpt><trkpt lat="40.691977790616285" lon="19.95608102304347"><ele>127.0</ele><time>2026-04-27T11:43:25.999Z</time></trkpt><trkpt lat="40.691908693690685" lon="19.956118314179367"><ele>129.66666666666669</ele><time>2026-04-27T11:43:26.999Z</time></trkpt><trkpt lat="40.69185044327961" lon="19.956222198211147"><ele>132.33333333333334</ele><time>2026-04-27T11:43:27.999Z</time></trkpt><trkpt lat="40.691778048535724" lon="19.956251549589396"><ele>135.0</ele><time>2026-04-27T11:43:28.999Z</time></trkpt><trkpt lat="40.691702437606516" lon="19.956279006551675"><ele>137.66666666666666</ele><time>2026-04-27T11:43:29.999Z</time></trkpt><trkpt lat="40.691621946212" lon="19.9562992972903"><ele>140.33333333333331</ele><time>2026-04-27T11:43:30.999Z</time></trkpt><trkpt lat="40.69155352909949" lon="19.95628090667261"><ele>143.0</ele><time>2026-04-27T11:43:31.999Z</time></trkpt><trkpt lat="40.691443195257634" lon="19.95627235569365"><ele>143.0</ele><time>2026-04-27T11:43:33.999Z</time></trkpt><trkpt lat="40.691345318300954" lon="19.956179679094415"><ele>143.0</ele><time>2026-04-27T11:43:35.999Z</time></trkpt><trkpt lat="40.69127127547049" lon="19.956202268305454"><ele>143.0</ele><time>2026-04-27T11:43:36.999Z</time></trkpt><trkpt lat="40.69121839195171" lon="19.956155674960744"><ele>143.0</ele><time>2026-04-27T11:43:37.999Z</time></trkpt><trkpt lat="40.69115689400732" lon="19.956117506940615"><ele>143.0</ele><time>2026-04-27T11:43:38.999Z</time></trkpt><trkpt lat="40.69108271762099" lon="19.956080070516816"><ele>143.0</ele><time>2026-04-27T11:43:39.999Z</time></trkpt><trkpt lat="40.691014828914724" lon="19.955985796209458"><ele>145.20000000000002</ele><time>2026-04-27T11:43:40.999Z</time></trkpt><trkpt lat="40.69091236417751" lon="19.956034874255767"><ele>147.4</ele><time>2026-04-27T11:43:41.999Z</time></trkpt><trkpt lat="40.69083175753476" lon="19.95602906230642"><ele>149.60000000000002</ele><time>2026-04-27T11:43:42.999Z</time></trkpt><trkpt lat="40.69074139170879" lon="19.956095840572505"><ele>151.8</ele><time>2026-04-27T11:43:43.997Z</time></trkpt><trkpt lat="40.6906078571151" lon="19.956171151662225"><ele>154.0</ele><time>2026-04-27T11:43:44.997Z</time></trkpt><trkpt lat="40.69044409029635" lon="19.956255689587763"><ele>154.0</ele><time>2026-04-27T11:43:45.997Z</time></trkpt><trkpt lat="40.69028576311606" lon="19.95629991084853"><ele>154.0</ele><time>2026-04-27T11:43:46.997Z</time></trkpt><trkpt lat="40.69015140119817" lon="19.956294497013317"><ele>154.0</ele><time>2026-04-27T11:43:47.997Z</time></trkpt><trkpt lat="40.69001821565611" lon="19.9562236448836"><ele>154.0</ele><time>2026-04-27T11:43:48.997Z</time></trkpt><trkpt lat="40.68986612425006" lon="19.956110966201393"><ele>156.5</ele><time>2026-04-27T11:43:49.997Z</time></trkpt><trkpt lat="40.68973404562728" lon="19.95601811258255"><ele>159.0</ele><time>2026-04-27T11:43:50.997Z</time></trkpt><trkpt lat="40.68962760193164" lon="19.955953232307852"><ele>161.5</ele><time>2026-04-27T11:43:51.997Z</time></trkpt><trkpt lat="40.68953892277129" lon="19.955900344152973"><ele>164.0</ele><time>2026-04-27T11:43:52.997Z</time></trkpt><trkpt lat="40.689447940418134" lon="19.95589605495292"><ele>170.79999999999998</ele><time>2026-04-27T11:43:53.998Z</time></trkpt><trkpt lat="40.68937855943178" lon="19.95589057431933"><ele>177.6</ele><time>2026-04-27T11:43:54.998Z</time></trkpt><trkpt lat="40.68929085840899" lon="19.955984468832966"><ele>184.4</ele><time>2026-04-27T11:43:55.998Z</time></trkpt><trkpt lat="40.68924901693537" lon="19.95612028189198"><ele>191.2</ele><time>2026-04-27T11:43:56.998Z</time></trkpt><trkpt lat="40.68927492656939" lon="19.956255414546497"><ele>198.0</ele><time>2026-04-27T11:43:57.998Z</time></trkpt><trkpt lat="40.689303358233595" lon="19.95637877635465"><ele>198.0</ele><time>2026-04-27T11:43:58.998Z</time></trkpt><trkpt lat="40.68935396558886" lon="19.95649462162388"><ele>198.0</ele><time>2026-04-27T11:43:59.998Z</time></trkpt><trkpt lat="40.6894078947498" lon="19.956606007519177"><ele>198.0</ele><time>2026-04-27T11:44:00.998Z</time></trkpt><trkpt lat="40.68945189870318" lon="19.956743044429796"><ele>198.0</ele><time>2026-04-27T11:44:01.998Z</time></trkpt><trkpt lat="40.689496991037025" lon="19.9568929517797"><ele>198.0</ele><time>2026-04-27T11:44:02.998Z</time></trkpt><trkpt lat="40.68955019988369" lon="19.9570548812826"><ele>191.8</ele><time>2026-04-27T11:44:03.998Z</time></trkpt><trkpt lat="40.68958802545696" lon="19.957230724924127"><ele>185.60000000000002</ele><time>2026-04-27T11:44:04.998Z</time></trkpt><trkpt lat="40.68963604236043" lon="19.95738391893234"><ele>179.39999999999998</ele><time>2026-04-27T11:44:05.998Z</time></trkpt><trkpt lat="40.689676174609275" lon="19.957502171990175"><ele>173.2</ele><time>2026-04-27T11:44:06.998Z</time></trkpt><trkpt lat="40.68969999867939" lon="19.957585550783858"><ele>167.0</ele><time>2026-04-27T11:44:07.998Z</time></trkpt><trkpt lat="40.68972275546065" lon="19.957697141351073"><ele>167.0</ele><time>2026-04-27T11:44:09.998Z</time></trkpt><trkpt lat="40.68973876700778" lon="19.957801999970215"><ele>167.0</ele><time>2026-04-27T11:44:12.998Z</time></trkpt><trkpt lat="40.68972634101884" lon="19.957889886608"><ele>167.0</ele><time>2026-04-27T11:44:14.998Z</time></trkpt><trkpt lat="40.689698144015324" lon="19.957970487168925"><ele>167.0</ele><time>2026-04-27T11:44:23.998Z</time></trkpt><trkpt lat="40.68963931686641" lon="19.95805066385019"><ele>167.0</ele><time>2026-04-27T11:44:26.998Z</time></trkpt><trkpt lat="40.689576693847975" lon="19.958093900344373"><ele>167.0</ele><time>2026-04-27T11:44:29.998Z</time></trkpt><trkpt lat="40.68947474073452" lon="19.95814118577909"><ele>171.8</ele><time>2026-04-27T11:46:10.999Z</time></trkpt><trkpt lat="40.68941657839743" lon="19.958182706694263"><ele>176.6</ele><time>2026-04-27T11:46:11.999Z</time></trkpt><trkpt lat="40.689314687659206" lon="19.95828733599598"><ele>181.4</ele><time>2026-04-27T11:46:13.999Z</time></trkpt><trkpt lat="40.689281695796005" lon="19.958398307192233"><ele>186.20000000000002</ele><time>2026-04-27T11:46:14.999Z</time></trkpt><trkpt lat="40.689238866260496" lon="19.958496693712934"><ele>191.0</ele><time>2026-04-27T11:46:15.999Z</time></trkpt><trkpt lat="40.68920786969954" lon="19.958617957990565"><ele>191.0</ele><time>2026-04-27T11:46:16.999Z</time></trkpt><trkpt lat="40.68917631343335" lon="19.958781855589415"><ele>191.0</ele><time>2026-04-27T11:46:17.999Z</time></trkpt><trkpt lat="40.68912885255109" lon="19.958998425180514"><ele>191.0</ele><time>2026-04-27T11:46:18.999Z</time></trkpt><trkpt lat="40.68907194540607" lon="19.95923259727744"><ele>189.0</ele><time>2026-04-27T11:46:19.999Z</time></trkpt><trkpt lat="40.68902693354519" lon="19.959426500217766"><ele>187.0</ele><time>2026-04-27T11:46:20.999Z</time></trkpt><trkpt lat="40.68898642802181" lon="19.959600632859924"><ele>185.0</ele><time>2026-04-27T11:46:21.999Z</time></trkpt><trkpt lat="40.68896341645587" lon="19.959785432234618"><ele>183.0</ele><time>2026-04-27T11:46:22.999Z</time></trkpt><trkpt lat="40.68899964905252" lon="19.959967053334612"><ele>181.0</ele><time>2026-04-27T11:46:23.999Z</time></trkpt><trkpt lat="40.68900538581659" lon="19.960090782007644"><ele>179.0</ele><time>2026-04-27T11:46:24.999Z</time></trkpt><trkpt lat="40.68897944094272" lon="19.96018950971383"><ele>177.0</ele><time>2026-04-27T11:46:25.999Z</time></trkpt><trkpt lat="40.68894497989961" lon="19.96027711952597"><ele>175.0</ele><time>2026-04-27T11:46:26.999Z</time></trkpt><trkpt lat="40.6889174739084" lon="19.96036056129467"><ele>173.0</ele><time>2026-04-27T11:46:27.999Z</time></trkpt><trkpt lat="40.68885134176606" lon="19.960405872328664"><ele>171.0</ele><time>2026-04-27T11:46:28.999Z</time></trkpt><trkpt lat="40.6887766942962" lon="19.96041882075661"><ele>171.0</ele><time>2026-04-27T11:46:29.999Z</time></trkpt><trkpt lat="40.68863863469687" lon="19.960501034105032"><ele>171.0</ele><time>2026-04-27T11:46:31.999Z</time></trkpt><trkpt lat="40.68850966324415" lon="19.960285821045645"><ele>171.0</ele><time>2026-04-27T11:46:32.999Z</time></trkpt><trkpt lat="40.68842129463496" lon="19.960260972158437"><ele>173.0</ele><time>2026-04-27T11:46:33.999Z</time></trkpt><trkpt lat="40.68833002277625" lon="19.960222203742614"><ele>175.0</ele><time>2026-04-27T11:46:34.999Z</time></trkpt><trkpt lat="40.688228372410634" lon="19.96019472089701"><ele>177.0</ele><time>2026-04-27T11:46:35.999Z</time></trkpt><trkpt lat="40.68811505785056" lon="19.96018556515935"><ele>179.0</ele><time>2026-04-27T11:46:36.999Z</time></trkpt><trkpt lat="40.68799489609828" lon="19.960186868032007"><ele>181.0</ele><time>2026-04-27T11:46:37.999Z</time></trkpt><trkpt lat="40.687867434045735" lon="19.960202643736135"><ele>183.0</ele><time>2026-04-27T11:46:38.999Z</time></trkpt><trkpt lat="40.68772794580304" lon="19.960251027331037"><ele>185.0</ele><time>2026-04-27T11:46:39.999Z</time></trkpt><trkpt lat="40.68759481571016" lon="19.9603045945222"><ele>187.0</ele><time>2026-04-27T11:46:40.999Z</time></trkpt><trkpt lat="40.68744901719361" lon="19.960365033262253"><ele>189.0</ele><time>2026-04-27T11:46:41.999Z</time></trkpt><trkpt lat="40.68729689184974" lon="19.96042241693891"><ele>189.0</ele><time>2026-04-27T11:46:42.999Z</time></trkpt><trkpt lat="40.687167493005965" lon="19.960459894523296"><ele>189.0</ele><time>2026-04-27T11:46:43.999Z</time></trkpt><trkpt lat="40.68704650900427" lon="19.960464186848238"><ele>189.0</ele><time>2026-04-27T11:46:44.999Z</time></trkpt><trkpt lat="40.68694145307087" lon="19.960426050566937"><ele>189.0</ele><time>2026-04-27T11:46:45.999Z</time></trkpt><trkpt lat="40.686850187349286" lon="19.96034247517616"><ele>189.25</ele><time>2026-04-27T11:46:46.999Z</time></trkpt><trkpt lat="40.68677753098747" lon="19.960188612625497"><ele>189.5</ele><time>2026-04-27T11:46:47.999Z</time></trkpt><trkpt lat="40.68668240992632" lon="19.960037155109728"><ele>189.75</ele><time>2026-04-27T11:46:48.999Z</time></trkpt><trkpt lat="40.68655475186598" lon="19.959913627718635"><ele>190.0</ele><time>2026-04-27T11:46:49.999Z</time></trkpt><trkpt lat="40.68640743055543" lon="19.959818817630957"><ele>195.25</ele><time>2026-04-27T11:46:50.999Z</time></trkpt><trkpt lat="40.68624828229093" lon="19.959743502438734"><ele>200.5</ele><time>2026-04-27T11:46:51.999Z</time></trkpt><trkpt lat="40.686122027820296" lon="19.95967309560663"><ele>205.75</ele><time>2026-04-27T11:46:52.999Z</time></trkpt><trkpt lat="40.68602160873273" lon="19.959619346686527"><ele>211.0</ele><time>2026-04-27T11:46:53.999Z</time></trkpt><trkpt lat="40.685944487044566" lon="19.959562707957183"><ele>211.25</ele><time>2026-04-27T11:46:54.999Z</time></trkpt><trkpt lat="40.685835683091994" lon="19.959616075649006"><ele>211.5</ele><time>2026-04-27T11:46:55.999Z</time></trkpt><trkpt lat="40.685739715716224" lon="19.959681800272946"><ele>211.75</ele><time>2026-04-27T11:46:56.999Z</time></trkpt><trkpt lat="40.685699626451274" lon="19.959850456207484"><ele>212.0</ele><time>2026-04-27T11:46:57.999Z</time></trkpt><trkpt lat="40.685611450237765" lon="19.959963458219356"><ele>210.39999999999998</ele><time>2026-04-27T11:46:58.999Z</time></trkpt><trkpt lat="40.6855024634248" lon="19.960045202278433"><ele>208.79999999999998</ele><time>2026-04-27T11:46:59.999Z</time></trkpt><trkpt lat="40.68543002607965" lon="19.960119867057784"><ele>207.2</ele><time>2026-04-27T11:47:00.999Z</time></trkpt><trkpt lat="40.6853934744697" lon="19.96021963298781"><ele>205.6</ele><time>2026-04-27T11:47:01.999Z</time></trkpt><trkpt lat="40.685372914967566" lon="19.960334005698463"><ele>204.0</ele><time>2026-04-27T11:47:02.999Z</time></trkpt><trkpt lat="40.685372778533136" lon="19.960444436450334"><ele>204.0</ele><time>2026-04-27T11:47:03.999Z</time></trkpt><trkpt lat="40.685387900158" lon="19.960557961219273"><ele>204.0</ele><time>2026-04-27T11:47:04.999Z</time></trkpt><trkpt lat="40.68542517924728" lon="19.96067297139239"><ele>204.0</ele><time>2026-04-27T11:47:05.999Z</time></trkpt><trkpt lat="40.685443343229856" lon="19.96079877723769"><ele>204.0</ele><time>2026-04-27T11:47:06.999Z</time></trkpt><trkpt lat="40.68544198066348" lon="19.96092763265822"><ele>204.0</ele><time>2026-04-27T11:47:07.999Z</time></trkpt><trkpt lat="40.68547092561626" lon="19.961059349278027"><ele>205.2</ele><time>2026-04-27T11:47:08.999Z</time></trkpt><trkpt lat="40.68551854198529" lon="19.961183139397907"><ele>206.39999999999998</ele><time>2026-04-27T11:47:09.999Z</time></trkpt><trkpt lat="40.68555851097857" lon="19.961298577436004"><ele>207.6</ele><time>2026-04-27T11:47:10.999Z</time></trkpt><trkpt lat="40.68562003436501" lon="19.961392577888244"><ele>208.8</ele><time>2026-04-27T11:47:11.999Z</time></trkpt><trkpt lat="40.68565490636677" lon="19.961519538287213"><ele>210.0</ele><time>2026-04-27T11:47:12.999Z</time></trkpt><trkpt lat="40.685664150345076" lon="19.96164192457536"><ele>210.0</ele><time>2026-04-27T11:47:13.999Z</time></trkpt><trkpt lat="40.68565198939712" lon="19.961763039572975"><ele>210.0</ele><time>2026-04-27T11:47:14.999Z</time></trkpt><trkpt lat="40.685610744507116" lon="19.9618849488339"><ele>210.0</ele><time>2026-04-27T11:47:15.999Z</time></trkpt><trkpt lat="40.68555008811453" lon="19.961993445730904"><ele>210.0</ele><time>2026-04-27T11:47:16.999Z</time></trkpt><trkpt lat="40.685478880599824" lon="19.962095539821913"><ele>210.0</ele><time>2026-04-27T11:47:17.999Z</time></trkpt><trkpt lat="40.68540943540149" lon="19.96220454046169"><ele>210.0</ele><time>2026-04-27T11:47:18.999Z</time></trkpt><trkpt lat="40.685332311614864" lon="19.962305077705825"><ele>210.0</ele><time>2026-04-27T11:47:19.999Z</time></trkpt><trkpt lat="40.685238761760125" lon="19.9624029800835"><ele>210.0</ele><time>2026-04-27T11:47:20.999Z</time></trkpt><trkpt lat="40.68509238412011" lon="19.96246087327443"><ele>210.0</ele><time>2026-04-27T11:47:21.999Z</time></trkpt><trkpt lat="40.684898295492836" lon="19.962502890254292"><ele>219.0</ele><time>2026-04-27T11:47:22.999Z</time></trkpt><trkpt lat="40.68466928845888" lon="19.962519853834433"><ele>228.0</ele><time>2026-04-27T11:47:23.999Z</time></trkpt><trkpt lat="40.68443484581587" lon="19.962496698096235"><ele>232.33333333333331</ele><time>2026-04-27T11:47:24.999Z</time></trkpt><trkpt lat="40.68424463697961" lon="19.962451613497823"><ele>236.66666666666666</ele><time>2026-04-27T11:47:25.999Z</time></trkpt><trkpt lat="40.68408572977885" lon="19.9624421516225"><ele>241.0</ele><time>2026-04-27T11:47:26.999Z</time></trkpt><trkpt lat="40.683935327927045" lon="19.962461764815515"><ele>241.0</ele><time>2026-04-27T11:47:27.999Z</time></trkpt><trkpt lat="40.68380191633431" lon="19.9625072360635"><ele>241.0</ele><time>2026-04-27T11:47:28.999Z</time></trkpt><trkpt lat="40.683677269714494" lon="19.962557340369422"><ele>241.0</ele><time>2026-04-27T11:47:29.999Z</time></trkpt><trkpt lat="40.68354920004517" lon="19.962596678656585"><ele>241.0</ele><time>2026-04-27T11:47:30.999Z</time></trkpt><trkpt lat="40.683422531228345" lon="19.96264733391929"><ele>239.75</ele><time>2026-04-27T11:47:31.999Z</time></trkpt><trkpt lat="40.683304173979344" lon="19.962711071333526"><ele>238.5</ele><time>2026-04-27T11:47:32.999Z</time></trkpt><trkpt lat="40.68318724093885" lon="19.962781798338145"><ele>237.25</ele><time>2026-04-27T11:47:33.999Z</time></trkpt><trkpt lat="40.68306581264172" lon="19.9628552753196"><ele>236.0</ele><time>2026-04-27T11:47:34.999Z</time></trkpt><trkpt lat="40.68295472702613" lon="19.96294646526422"><ele>236.0</ele><time>2026-04-27T11:47:35.999Z</time></trkpt><trkpt lat="40.682819786925585" lon="19.962951130441482"><ele>236.0</ele><time>2026-04-27T11:47:36.999Z</time></trkpt><trkpt lat="40.682716451919354" lon="19.96287185998003"><ele>236.0</ele><time>2026-04-27T11:47:37.999Z</time></trkpt><trkpt lat="40.68262589061315" lon="19.962901293604713"><ele>236.0</ele><time>2026-04-27T11:47:38.999Z</time></trkpt><trkpt lat="40.68253377442267" lon="19.962961244585596"><ele>239.0</ele><time>2026-04-27T11:47:39.999Z</time></trkpt><trkpt lat="40.6824541927635" lon="19.963084525085254"><ele>242.0</ele><time>2026-04-27T11:47:40.999Z</time></trkpt><trkpt lat="40.68247707798455" lon="19.96327941885029"><ele>245.0</ele><time>2026-04-27T11:47:41.999Z</time></trkpt><trkpt lat="40.68247305135973" lon="19.963460042257264"><ele>248.0</ele><time>2026-04-27T11:47:42.999Z</time></trkpt><trkpt lat="40.68244412508087" lon="19.963633157563727"><ele>248.0</ele><time>2026-04-27T11:47:43.999Z</time></trkpt><trkpt lat="40.682378897953875" lon="19.963809442964557"><ele>248.0</ele><time>2026-04-27T11:47:44.999Z</time></trkpt><trkpt lat="40.6823393383144" lon="19.96400537144378"><ele>248.0</ele><time>2026-04-27T11:47:45.999Z</time></trkpt><trkpt lat="40.68228231670951" lon="19.96418109219578"><ele>248.0</ele><time>2026-04-27T11:47:46.999Z</time></trkpt><trkpt lat="40.682229582576625" lon="19.964327563351603"><ele>247.0</ele><time>2026-04-27T11:47:47.999Z</time></trkpt><trkpt lat="40.68216677701814" lon="19.96444898524206"><ele>246.0</ele><time>2026-04-27T11:47:48.999Z</time></trkpt><trkpt lat="40.6820701760617" lon="19.964529755094294"><ele>245.0</ele><time>2026-04-27T11:47:49.999Z</time></trkpt><trkpt lat="40.68195785790135" lon="19.964594921635673"><ele>244.0</ele><time>2026-04-27T11:47:50.999Z</time></trkpt><trkpt lat="40.6818611419642" lon="19.964670821923665"><ele>249.25</ele><time>2026-04-27T11:47:51.999Z</time></trkpt><trkpt lat="40.681781091078534" lon="19.964754333738576"><ele>254.5</ele><time>2026-04-27T11:47:52.999Z</time></trkpt><trkpt lat="40.681735448124655" lon="19.96490282354871"><ele>259.75</ele><time>2026-04-27T11:47:53.999Z</time></trkpt><trkpt lat="40.681773760169094" lon="19.965096862307792"><ele>265.0</ele><time>2026-04-27T11:47:54.999Z</time></trkpt><trkpt lat="40.6818113888219" lon="19.965259735105693"><ele>265.0</ele><time>2026-04-27T11:47:55.998Z</time></trkpt><trkpt lat="40.681832317272224" lon="19.965441288756235"><ele>265.0</ele><time>2026-04-27T11:47:56.998Z</time></trkpt><trkpt lat="40.681851087650166" lon="19.965628371391972"><ele>265.0</ele><time>2026-04-27T11:47:57.998Z</time></trkpt><trkpt lat="40.6818488338256" lon="19.96577998299573"><ele>265.0</ele><time>2026-04-27T11:47:58.998Z</time></trkpt><trkpt lat="40.681813800397364" lon="19.965901113909887"><ele>262.6</ele><time>2026-04-27T11:47:59.998Z</time></trkpt><trkpt lat="40.68177158459571" lon="19.966019359275702"><ele>260.2</ele><time>2026-04-27T11:48:00.999Z</time></trkpt><trkpt lat="40.68165109332644" lon="19.966067272408218"><ele>257.8</ele><time>2026-04-27T11:48:01.999Z</time></trkpt><trkpt lat="40.68154989069638" lon="19.966075106348924"><ele>255.4</ele><time>2026-04-27T11:48:02.999Z</time></trkpt><trkpt lat="40.68145394648043" lon="19.966029518558408"><ele>253.0</ele><time>2026-04-27T11:48:03.999Z</time></trkpt><trkpt lat="40.68138592625399" lon="19.96592952626674"><ele>256.0</ele><time>2026-04-27T11:48:04.999Z</time></trkpt><trkpt lat="40.68136165724128" lon="19.96580272184163"><ele>259.0</ele><time>2026-04-27T11:48:05.999Z</time></trkpt><trkpt lat="40.68142815724622" lon="19.96567988850157"><ele>262.0</ele><time>2026-04-27T11:48:06.999Z</time></trkpt><trkpt lat="40.68146466804297" lon="19.96554487807865"><ele>265.0</ele><time>2026-04-27T11:48:07.999Z</time></trkpt><trkpt lat="40.68148946122206" lon="19.965371706271075"><ele>265.0</ele><time>2026-04-27T11:48:08.999Z</time></trkpt><trkpt lat="40.68149888501009" lon="19.965203191989957"><ele>265.0</ele><time>2026-04-27T11:48:09.999Z</time></trkpt><trkpt lat="40.681437933375115" lon="19.965002443020722"><ele>265.0</ele><time>2026-04-27T11:48:10.999Z</time></trkpt><trkpt lat="40.68138998247547" lon="19.9647805939674"><ele>266.0</ele><time>2026-04-27T11:48:11.999Z</time></trkpt><trkpt lat="40.681327287818874" lon="19.964535280160575"><ele>267.0</ele><time>2026-04-27T11:48:12.999Z</time></trkpt><trkpt lat="40.68129888357778" lon="19.964314483480706"><ele>268.0</ele><time>2026-04-27T11:48:13.999Z</time></trkpt><trkpt lat="40.681293430356305" lon="19.96414796577426"><ele>269.75</ele><time>2026-04-27T11:48:14.999Z</time></trkpt><trkpt lat="40.68129445556206" lon="19.963996377528673"><ele>271.5</ele><time>2026-04-27T11:48:15.999Z</time></trkpt><trkpt lat="40.68133164625178" lon="19.96387231599159"><ele>273.25</ele><time>2026-04-27T11:48:16.999Z</time></trkpt><trkpt lat="40.68140777139323" lon="19.96376564291475"><ele>275.0</ele><time>2026-04-27T11:48:17.999Z</time></trkpt><trkpt lat="40.68152775695696" lon="19.963728078442486"><ele>275.0</ele><time>2026-04-27T11:48:18.999Z</time></trkpt><trkpt lat="40.68162467281563" lon="19.963640609024786"><ele>275.0</ele><time>2026-04-27T11:48:19.999Z</time></trkpt><trkpt lat="40.68172498321829" lon="19.96355091494662"><ele>275.0</ele><time>2026-04-27T11:48:20.999Z</time></trkpt><trkpt lat="40.68180820625945" lon="19.96347859901831"><ele>275.0</ele><time>2026-04-27T11:48:21.999Z</time></trkpt><trkpt lat="40.681882900636396" lon="19.96335774673803"><ele>277.6666666666667</ele><time>2026-04-27T11:48:22.999Z</time></trkpt><trkpt lat="40.681914882150714" lon="19.963200667134753"><ele>280.3333333333333</ele><time>2026-04-27T11:48:23.999Z</time></trkpt><trkpt lat="40.681802817063925" lon="19.96298500953727"><ele>283.0</ele><time>2026-04-27T11:48:24.999Z</time></trkpt><trkpt lat="40.68166643831136" lon="19.962948187816753"><ele>283.0</ele><time>2026-04-27T11:48:25.999Z</time></trkpt><trkpt lat="40.681582583876" lon="19.962888488201628"><ele>283.0</ele><time>2026-04-27T11:48:26.999Z</time></trkpt><trkpt lat="40.681494733041106" lon="19.962825855792683"><ele>283.0</ele><time>2026-04-27T11:48:27.999Z</time></trkpt><trkpt lat="40.68143081090958" lon="19.962711966356324"><ele>283.0</ele><time>2026-04-27T11:48:28.999Z</time></trkpt><trkpt lat="40.681386177542365" lon="19.96257108776425"><ele>283.0</ele><time>2026-04-27T11:48:29.999Z</time></trkpt><trkpt lat="40.68135811088123" lon="19.962411868246893"><ele>283.2</ele><time>2026-04-27T11:48:30.999Z</time></trkpt><trkpt lat="40.681344046159495" lon="19.962243072831953"><ele>283.4</ele><time>2026-04-27T11:48:31.999Z</time></trkpt><trkpt lat="40.68134458093478" lon="19.962099344830218"><ele>283.59999999999997</ele><time>2026-04-27T11:48:32.999Z</time></trkpt><trkpt lat="40.681334882895115" lon="19.96198034957727"><ele>283.8</ele><time>2026-04-27T11:48:33.999Z</time></trkpt><trkpt lat="40.68140633116081" lon="19.961868401243205"><ele>284.0</ele><time>2026-04-27T11:48:34.999Z</time></trkpt><trkpt lat="40.68147733384383" lon="19.96180204907428"><ele>284.0</ele><time>2026-04-27T11:48:35.999Z</time></trkpt><trkpt lat="40.68156571008549" lon="19.961885393484213"><ele>284.0</ele><time>2026-04-27T11:48:36.999Z</time></trkpt><trkpt lat="40.68167998062872" lon="19.961874493116152"><ele>284.0</ele><time>2026-04-27T11:48:37.999Z</time></trkpt><trkpt lat="40.681785786693226" lon="19.961809416849977"><ele>284.0</ele><time>2026-04-27T11:48:38.999Z</time></trkpt><trkpt lat="40.68185243594946" lon="19.961681051047726"><ele>282.6666666666667</ele><time>2026-04-27T11:48:39.999Z</time></trkpt><trkpt lat="40.68190701065334" lon="19.961530187227364"><ele>281.3333333333333</ele><time>2026-04-27T11:48:40.999Z</time></trkpt><trkpt lat="40.68196325756434" lon="19.961332864797136"><ele>280.0</ele><time>2026-04-27T11:48:41.999Z</time></trkpt><trkpt lat="40.68203177960389" lon="19.96109131136809"><ele>280.0</ele><time>2026-04-27T11:48:42.999Z</time></trkpt><trkpt lat="40.682097818474055" lon="19.960946176182848"><ele>280.0</ele><time>2026-04-27T11:48:43.999Z</time></trkpt><trkpt lat="40.68212989083337" lon="19.960837387690994"><ele>280.0</ele><time>2026-04-27T11:48:44.999Z</time></trkpt><trkpt lat="40.68211615066534" lon="19.96072492603141"><ele>280.0</ele><time>2026-04-27T11:48:45.999Z</time></trkpt><trkpt lat="40.682092539467135" lon="19.96062345802137"><ele>280.0</ele><time>2026-04-27T11:48:46.999Z</time></trkpt><trkpt lat="40.68200131176182" lon="19.960546963301997"><ele>282.8</ele><time>2026-04-27T11:48:47.999Z</time></trkpt><trkpt lat="40.68189817886116" lon="19.96056071085534"><ele>285.6</ele><time>2026-04-27T11:48:48.999Z</time></trkpt><trkpt lat="40.68182850165742" lon="19.96062782900394"><ele>288.4</ele><time>2026-04-27T11:48:49.999Z</time></trkpt><trkpt lat="40.681755460976035" lon="19.960735379686216"><ele>291.2</ele><time>2026-04-27T11:48:50.999Z</time></trkpt><trkpt lat="40.68169396881601" lon="19.960816367089755"><ele>294.0</ele><time>2026-04-27T11:48:51.999Z</time></trkpt><trkpt lat="40.68161591932245" lon="19.960948597778575"><ele>294.0</ele><time>2026-04-27T11:48:52.999Z</time></trkpt><trkpt lat="40.68152776581988" lon="19.961087442856073"><ele>294.0</ele><time>2026-04-27T11:48:53.999Z</time></trkpt><trkpt lat="40.68143202189765" lon="19.96117774028253"><ele>294.0</ele><time>2026-04-27T11:48:54.999Z</time></trkpt><trkpt lat="40.68133778909885" lon="19.961211974041746"><ele>294.0</ele><time>2026-04-27T11:48:55.999Z</time></trkpt><trkpt lat="40.68124437699752" lon="19.961172051891204"><ele>294.0</ele><time>2026-04-27T11:48:56.999Z</time></trkpt><trkpt lat="40.68115497353528" lon="19.96109268567884"><ele>294.0</ele><time>2026-04-27T11:48:57.999Z</time></trkpt><trkpt lat="40.68106889303552" lon="19.960990552247814"><ele>294.0</ele><time>2026-04-27T11:48:58.999Z</time></trkpt><trkpt lat="40.680977137433" lon="19.960882816324084"><ele>294.0</ele><time>2026-04-27T11:48:59.999Z</time></trkpt><trkpt lat="40.68089168997325" lon="19.960804705625545"><ele>297.0</ele><time>2026-04-27T11:49:00.999Z</time></trkpt><trkpt lat="40.68081078306451" lon="19.96077823569654"><ele>300.0</ele><time>2026-04-27T11:49:01.999Z</time></trkpt><trkpt lat="40.6807335774981" lon="19.960801818644242"><ele>303.0</ele><time>2026-04-27T11:49:02.999Z</time></trkpt><trkpt lat="40.680658919576516" lon="19.96084152330632"><ele>306.0</ele><time>2026-04-27T11:49:03.999Z</time></trkpt><trkpt lat="40.68060512186086" lon="19.960904872050023"><ele>309.0</ele><time>2026-04-27T11:49:04.999Z</time></trkpt><trkpt lat="40.68060366090787" lon="19.961058426706543"><ele>312.0</ele><time>2026-04-27T11:49:06Z</time></trkpt><trkpt lat="40.68066426151817" lon="19.961173954416488"><ele>312.0</ele><time>2026-04-27T11:49:07Z</time></trkpt><trkpt lat="40.68068211628879" lon="19.96130577995582"><ele>312.0</ele><time>2026-04-27T11:49:08Z</time></trkpt><trkpt lat="40.680679865264004" lon="19.96145420182292"><ele>312.0</ele><time>2026-04-27T11:49:09Z</time></trkpt><trkpt lat="40.68065031075674" lon="19.96160328987775"><ele>312.0</ele><time>2026-04-27T11:49:10Z</time></trkpt><trkpt lat="40.680593237952905" lon="19.96174853659937"><ele>311.0</ele><time>2026-04-27T11:49:11Z</time></trkpt><trkpt lat="40.680534311046884" lon="19.961899027931594"><ele>310.0</ele><time>2026-04-27T11:49:12Z</time></trkpt><trkpt lat="40.680480956765344" lon="19.962057444212586"><ele>309.0</ele><time>2026-04-27T11:49:13Z</time></trkpt><trkpt lat="40.680430619868744" lon="19.96222399276219"><ele>308.0</ele><time>2026-04-27T11:49:14Z</time></trkpt><trkpt lat="40.68038432150302" lon="19.96236988937087"><ele>308.0</ele><time>2026-04-27T11:49:15Z</time></trkpt><trkpt lat="40.68033525401934" lon="19.962498740450894"><ele>308.0</ele><time>2026-04-27T11:49:16Z</time></trkpt><trkpt lat="40.68026425871546" lon="19.962579851526684"><ele>308.0</ele><time>2026-04-27T11:49:17Z</time></trkpt><trkpt lat="40.68019094121718" lon="19.962613562638285"><ele>308.0</ele><time>2026-04-27T11:49:18Z</time></trkpt><trkpt lat="40.680116957175606" lon="19.962622833275375"><ele>308.0</ele><time>2026-04-27T11:49:19Z</time></trkpt><trkpt lat="40.68003761225126" lon="19.962591792176255"><ele>308.0</ele><time>2026-04-27T11:49:20Z</time></trkpt><trkpt lat="40.67997697764027" lon="19.962508765785596"><ele>311.4</ele><time>2026-04-27T11:49:21Z</time></trkpt><trkpt lat="40.679959270800005" lon="19.9624021068497"><ele>314.8</ele><time>2026-04-27T11:49:22Z</time></trkpt><trkpt lat="40.680059832681515" lon="19.962307365421864"><ele>318.2</ele><time>2026-04-27T11:49:23Z</time></trkpt><trkpt lat="40.68008156437194" lon="19.9621677786569"><ele>321.6</ele><time>2026-04-27T11:49:24Z</time></trkpt><trkpt lat="40.6800838900287" lon="19.96199385038856"><ele>325.0</ele><time>2026-04-27T11:49:25Z</time></trkpt><trkpt lat="40.68005015269288" lon="19.961814790536508"><ele>326.75</ele><time>2026-04-27T11:49:26Z</time></trkpt><trkpt lat="40.68001921025749" lon="19.961627368928287"><ele>328.5</ele><time>2026-04-27T11:49:27Z</time></trkpt><trkpt lat="40.67997634627407" lon="19.96146085170349"><ele>330.25</ele><time>2026-04-27T11:49:28Z</time></trkpt><trkpt lat="40.67991031423921" lon="19.961325395398646"><ele>332.0</ele><time>2026-04-27T11:49:29Z</time></trkpt><trkpt lat="40.67981377201078" lon="19.961206054028004"><ele>332.0</ele><time>2026-04-27T11:49:30Z</time></trkpt><trkpt lat="40.67969456110353" lon="19.961104222683247"><ele>332.0</ele><time>2026-04-27T11:49:31Z</time></trkpt><trkpt lat="40.67956585073864" lon="19.96101043462717"><ele>332.0</ele><time>2026-04-27T11:49:32Z</time></trkpt><trkpt lat="40.67947486960661" lon="19.960905078024513"><ele>332.0</ele><time>2026-04-27T11:49:33Z</time></trkpt><trkpt lat="40.679443495100955" lon="19.96077740507978"><ele>332.40000000000003</ele><time>2026-04-27T11:49:34Z</time></trkpt><trkpt lat="40.67949081779315" lon="19.96061762115799"><ele>332.8</ele><time>2026-04-27T11:49:35Z</time></trkpt><trkpt lat="40.679499999278306" lon="19.960449103765853"><ele>333.2</ele><time>2026-04-27T11:49:36Z</time></trkpt><trkpt lat="40.679518107879744" lon="19.96032090683314"><ele>333.6</ele><time>2026-04-27T11:49:37Z</time></trkpt><trkpt lat="40.67954917475776" lon="19.960243137913178"><ele>334.0</ele><time>2026-04-27T11:49:38Z</time></trkpt><trkpt lat="40.67946219190657" lon="19.960133383738995"><ele>338.25</ele><time>2026-04-27T11:49:39Z</time></trkpt><trkpt lat="40.679369067453656" lon="19.960084835146073"><ele>342.5</ele><time>2026-04-27T11:49:40Z</time></trkpt><trkpt lat="40.67924843878739" lon="19.960145917598297"><ele>346.75</ele><time>2026-04-27T11:49:41Z</time></trkpt><trkpt lat="40.6791515203235" lon="19.960276129171124"><ele>351.0</ele><time>2026-04-27T11:49:42Z</time></trkpt><trkpt lat="40.6790201962324" lon="19.960352504220086"><ele>351.0</ele><time>2026-04-27T11:49:43Z</time></trkpt><trkpt lat="40.6789019961278" lon="19.96042882844577"><ele>351.0</ele><time>2026-04-27T11:49:44Z</time></trkpt><trkpt lat="40.678772280966406" lon="19.960452288417223"><ele>351.0</ele><time>2026-04-27T11:49:45Z</time></trkpt><trkpt lat="40.678650522478684" lon="19.96048615402132"><ele>351.0</ele><time>2026-04-27T11:49:46Z</time></trkpt><trkpt lat="40.67848350442693" lon="19.960492577798117"><ele>353.0</ele><time>2026-04-27T11:49:47Z</time></trkpt><trkpt lat="40.67829277556474" lon="19.960475718555312"><ele>355.0</ele><time>2026-04-27T11:49:48Z</time></trkpt><trkpt lat="40.678105885015256" lon="19.96044476391382"><ele>357.0</ele><time>2026-04-27T11:49:49Z</time></trkpt><trkpt lat="40.677947325329484" lon="19.96038244418364"><ele>357.0</ele><time>2026-04-27T11:49:50Z</time></trkpt><trkpt lat="40.67783645313071" lon="19.960260151542805"><ele>357.0</ele><time>2026-04-27T11:49:51Z</time></trkpt><trkpt lat="40.677738288075695" lon="19.96013031783287"><ele>357.0</ele><time>2026-04-27T11:49:52Z</time></trkpt><trkpt lat="40.67768246963643" lon="19.95999150623343"><ele>357.0</ele><time>2026-04-27T11:49:53Z</time></trkpt><trkpt lat="40.67761080618508" lon="19.959852824853204"><ele>359.75</ele><time>2026-04-27T11:49:54Z</time></trkpt><trkpt lat="40.67755729504912" lon="19.95970739121202"><ele>362.5</ele><time>2026-04-27T11:49:55Z</time></trkpt><trkpt lat="40.67750137517255" lon="19.959557195248525"><ele>365.25</ele><time>2026-04-27T11:49:56Z</time></trkpt><trkpt lat="40.6774493011993" lon="19.959398708019073"><ele>368.0</ele><time>2026-04-27T11:49:57Z</time></trkpt><trkpt lat="40.677413587855604" lon="19.959220403336204"><ele>371.0</ele><time>2026-04-27T11:49:58Z</time></trkpt><trkpt lat="40.67735385371005" lon="19.959071575041513"><ele>374.0</ele><time>2026-04-27T11:49:59Z</time></trkpt><trkpt lat="40.67729340213446" lon="19.958923733053076"><ele>377.0</ele><time>2026-04-27T11:50:00Z</time></trkpt><trkpt lat="40.677217532551005" lon="19.958787830546488"><ele>380.0</ele><time>2026-04-27T11:50:01Z</time></trkpt><trkpt lat="40.6771662205814" lon="19.958644176071488"><ele>380.0</ele><time>2026-04-27T11:50:01.999Z</time></trkpt><trkpt lat="40.67714198194042" lon="19.958491303426605"><ele>380.0</ele><time>2026-04-27T11:50:02.999Z</time></trkpt><trkpt lat="40.677138376585546" lon="19.958329010489816"><ele>380.0</ele><time>2026-04-27T11:50:03.999Z</time></trkpt><trkpt lat="40.67713543299258" lon="19.95813752972604"><ele>380.0</ele><time>2026-04-27T11:50:04.999Z</time></trkpt><trkpt lat="40.67713358148249" lon="19.957942037554453"><ele>382.0</ele><time>2026-04-27T11:50:05.999Z</time></trkpt><trkpt lat="40.67712746261097" lon="19.957772245563934"><ele>384.0</ele><time>2026-04-27T11:50:06.999Z</time></trkpt><trkpt lat="40.67709560240075" lon="19.957625622681572"><ele>386.0</ele><time>2026-04-27T11:50:07.999Z</time></trkpt><trkpt lat="40.67705729530188" lon="19.95750664840059"><ele>388.0</ele><time>2026-04-27T11:50:08.999Z</time></trkpt><trkpt lat="40.67693741393796" lon="19.95744133508622"><ele>388.25</ele><time>2026-04-27T11:50:09.999Z</time></trkpt><trkpt lat="40.67682108041532" lon="19.957451764602922"><ele>388.5</ele><time>2026-04-27T11:50:10.999Z</time></trkpt><trkpt lat="40.67670014482005" lon="19.95748935420421"><ele>388.75</ele><time>2026-04-27T11:50:11.999Z</time></trkpt><trkpt lat="40.67656465750887" lon="19.957549299445326"><ele>389.0</ele><time>2026-04-27T11:50:12.999Z</time></trkpt><trkpt lat="40.6764168804141" lon="19.957608068099525"><ele>388.5</ele><time>2026-04-27T11:50:13.999Z</time></trkpt><trkpt lat="40.67628390033771" lon="19.95763082017043"><ele>388.0</ele><time>2026-04-27T11:50:14.999Z</time></trkpt><trkpt lat="40.67614376664124" lon="19.95761745385071"><ele>387.5</ele><time>2026-04-27T11:50:15.999Z</time></trkpt><trkpt lat="40.67600694132915" lon="19.95757307473356"><ele>387.0</ele><time>2026-04-27T11:50:16.999Z</time></trkpt><trkpt lat="40.67585951695502" lon="19.957498851760725"><ele>390.33333333333337</ele><time>2026-04-27T11:50:17.999Z</time></trkpt><trkpt lat="40.675697315562225" lon="19.957411732755002"><ele>393.6666666666667</ele><time>2026-04-27T11:50:18.999Z</time></trkpt><trkpt lat="40.67551141587539" lon="19.957311204316877"><ele>397.0</ele><time>2026-04-27T11:50:19.999Z</time></trkpt><trkpt lat="40.6753111476814" lon="19.95720224782872"><ele>397.0</ele><time>2026-04-27T11:50:20.999Z</time></trkpt><trkpt lat="40.67514211631427" lon="19.957081593151166"><ele>397.0</ele><time>2026-04-27T11:50:21.999Z</time></trkpt><trkpt lat="40.67497440982667" lon="19.9570274821036"><ele>397.0</ele><time>2026-04-27T11:50:22.999Z</time></trkpt><trkpt lat="40.67482244589084" lon="19.95698127780393"><ele>397.0</ele><time>2026-04-27T11:50:23.999Z</time></trkpt><trkpt lat="40.67467537173969" lon="19.956978493096415"><ele>397.0</ele><time>2026-04-27T11:50:24.999Z</time></trkpt><trkpt lat="40.67453617900216" lon="19.957020756581514"><ele>397.0</ele><time>2026-04-27T11:50:25.999Z</time></trkpt><trkpt lat="40.67440182478827" lon="19.95709304902632"><ele>397.0</ele><time>2026-04-27T11:50:26.999Z</time></trkpt><trkpt lat="40.67429571410652" lon="19.957138976497486"><ele>395.5</ele><time>2026-04-27T11:50:27.999Z</time></trkpt><trkpt lat="40.67417680739633" lon="19.957071786190003"><ele>394.0</ele><time>2026-04-27T11:50:28.999Z</time></trkpt><trkpt lat="40.67410004620285" lon="19.956981856168042"><ele>392.5</ele><time>2026-04-27T11:50:29.999Z</time></trkpt><trkpt lat="40.67401964801803" lon="19.956890399982957"><ele>391.0</ele><time>2026-04-27T11:50:30.999Z</time></trkpt><trkpt lat="40.67389866934366" lon="19.95678274689879"><ele>391.0</ele><time>2026-04-27T11:50:31.999Z</time></trkpt><trkpt lat="40.67375052478216" lon="19.956729848896277"><ele>391.0</ele><time>2026-04-27T11:50:32.999Z</time></trkpt><trkpt lat="40.67358003234346" lon="19.956722192277155"><ele>391.0</ele><time>2026-04-27T11:50:33.999Z</time></trkpt><trkpt lat="40.67341435860429" lon="19.95666254168306"><ele>390.25</ele><time>2026-04-27T11:50:34.999Z</time></trkpt><trkpt lat="40.67326028862271" lon="19.956662186954045"><ele>389.5</ele><time>2026-04-27T11:50:35.999Z</time></trkpt><trkpt lat="40.673124087171956" lon="19.956690797262972"><ele>388.75</ele><time>2026-04-27T11:50:36.999Z</time></trkpt><trkpt lat="40.67300062456021" lon="19.956761654526492"><ele>388.0</ele><time>2026-04-27T11:50:37.999Z</time></trkpt><trkpt lat="40.67288535024319" lon="19.956878303111527"><ele>388.0</ele><time>2026-04-27T11:50:38.999Z</time></trkpt><trkpt lat="40.67278927341096" lon="19.957028009236428"><ele>388.0</ele><time>2026-04-27T11:50:39.999Z</time></trkpt><trkpt lat="40.67268979106192" lon="19.95717559692953"><ele>388.0</ele><time>2026-04-27T11:50:40.999Z</time></trkpt><trkpt lat="40.67256485387737" lon="19.957267939491267"><ele>388.0</ele><time>2026-04-27T11:50:41.999Z</time></trkpt><trkpt lat="40.67242380022341" lon="19.957289368950615"><ele>391.5</ele><time>2026-04-27T11:50:42.999Z</time></trkpt><trkpt lat="40.67227151977659" lon="19.957244022297854"><ele>395.0</ele><time>2026-04-27T11:50:43.999Z</time></trkpt><trkpt lat="40.67212384808314" lon="19.957232084793745"><ele>398.5</ele><time>2026-04-27T11:50:44.999Z</time></trkpt><trkpt lat="40.6719817690028" lon="19.95721254494964"><ele>402.0</ele><time>2026-04-27T11:50:45.999Z</time></trkpt><trkpt lat="40.671877015444785" lon="19.957265861336346"><ele>406.0</ele><time>2026-04-27T11:50:46.999Z</time></trkpt><trkpt lat="40.671777948287506" lon="19.957376704565984"><ele>410.0</ele><time>2026-04-27T11:50:47.999Z</time></trkpt><trkpt lat="40.671683304269536" lon="19.957530891201312"><ele>414.0</ele><time>2026-04-27T11:50:48.999Z</time></trkpt><trkpt lat="40.671585072961676" lon="19.957720294812056"><ele>414.0</ele><time>2026-04-27T11:50:49.999Z</time></trkpt><trkpt lat="40.67149341028165" lon="19.957941341082993"><ele>414.0</ele><time>2026-04-27T11:50:50.999Z</time></trkpt><trkpt lat="40.67139568467113" lon="19.95818025477091"><ele>414.0</ele><time>2026-04-27T11:50:51.999Z</time></trkpt><trkpt lat="40.67127427268024" lon="19.958427500509917"><ele>420.5</ele><time>2026-04-27T11:50:53Z</time></trkpt><trkpt lat="40.67109279334067" lon="19.958655266848183"><ele>427.0</ele><time>2026-04-27T11:50:54Z</time></trkpt><trkpt lat="40.67092589589047" lon="19.958911017347248"><ele>427.0</ele><time>2026-04-27T11:50:55Z</time></trkpt><trkpt lat="40.67076812882084" lon="19.95910207452645"><ele>427.0</ele><time>2026-04-27T11:50:56Z</time></trkpt><trkpt lat="40.67064063867001" lon="19.959263788064522"><ele>427.0</ele><time>2026-04-27T11:50:57Z</time></trkpt><trkpt lat="40.670523075716986" lon="19.959404781134406"><ele>424.75</ele><time>2026-04-27T11:50:58Z</time></trkpt><trkpt lat="40.67042750371781" lon="19.959547592812292"><ele>422.5</ele><time>2026-04-27T11:50:59Z</time></trkpt><trkpt lat="40.67036694419035" lon="19.959700105071217"><ele>420.25</ele><time>2026-04-27T11:51:00Z</time></trkpt><trkpt lat="40.670329162629734" lon="19.95985196289113"><ele>418.0</ele><time>2026-04-27T11:51:01Z</time></trkpt><trkpt lat="40.67026402765212" lon="19.959978739813213"><ele>419.0</ele><time>2026-04-27T11:51:02Z</time></trkpt><trkpt lat="40.670219207343116" lon="19.960144389759865"><ele>420.0</ele><time>2026-04-27T11:51:03Z</time></trkpt><trkpt lat="40.67018530187079" lon="19.96029421536956"><ele>421.0</ele><time>2026-04-27T11:51:04Z</time></trkpt><trkpt lat="40.67027100466101" lon="19.960489097998362"><ele>422.0</ele><time>2026-04-27T11:51:05Z</time></trkpt><trkpt lat="40.67033005257328" lon="19.960681609702313"><ele>423.0</ele><time>2026-04-27T11:51:06Z</time></trkpt><trkpt lat="40.670408516314765" lon="19.960908022157895"><ele>424.0</ele><time>2026-04-27T11:51:07Z</time></trkpt><trkpt lat="40.67047411231036" lon="19.961152124198343"><ele>425.0</ele><time>2026-04-27T11:51:08Z</time></trkpt><trkpt lat="40.67048893699668" lon="19.961354480699157"><ele>425.0</ele><time>2026-04-27T11:51:09Z</time></trkpt><trkpt lat="40.670475445617434" lon="19.961535618773354"><ele>425.0</ele><time>2026-04-27T11:51:10Z</time></trkpt><trkpt lat="40.670459214543705" lon="19.961665724801396"><ele>425.0</ele><time>2026-04-27T11:51:11Z</time></trkpt><trkpt lat="40.67037287160065" lon="19.96172067478199"><ele>425.0</ele><time>2026-04-27T11:51:12Z</time></trkpt><trkpt lat="40.67028391901018" lon="19.96171811574563"><ele>425.0</ele><time>2026-04-27T11:51:13Z</time></trkpt><trkpt lat="40.67022242703339" lon="19.961568683984755"><ele>426.25</ele><time>2026-04-27T11:51:14Z</time></trkpt><trkpt lat="40.670274404150184" lon="19.961467576120867"><ele>427.5</ele><time>2026-04-27T11:51:15Z</time></trkpt><trkpt lat="40.67024394829782" lon="19.96131397215946"><ele>428.75</ele><time>2026-04-27T11:51:16Z</time></trkpt><trkpt lat="40.67020774614094" lon="19.96111798646233"><ele>430.0</ele><time>2026-04-27T11:51:17Z</time></trkpt><trkpt lat="40.67016227239897" lon="19.960912241047613"><ele>432.5</ele><time>2026-04-27T11:51:18Z</time></trkpt><trkpt lat="40.670111088509465" lon="19.960746073786378"><ele>435.0</ele><time>2026-04-27T11:51:19Z</time></trkpt><trkpt lat="40.66999874707802" lon="19.96060665458523"><ele>437.5</ele><time>2026-04-27T11:51:20Z</time></trkpt><trkpt lat="40.66986135372345" lon="19.96053720546189"><ele>440.0</ele><time>2026-04-27T11:51:21Z</time></trkpt><trkpt lat="40.6697354420996" lon="19.960467015417137"><ele>440.0</ele><time>2026-04-27T11:51:22Z</time></trkpt><trkpt lat="40.669648246307155" lon="19.96033934587525"><ele>440.0</ele><time>2026-04-27T11:51:23Z</time></trkpt><trkpt lat="40.669634223893624" lon="19.960219518004614"><ele>440.0</ele><time>2026-04-27T11:51:24Z</time></trkpt><trkpt lat="40.66966014684936" lon="19.96005712918824"><ele>440.0</ele><time>2026-04-27T11:51:25Z</time></trkpt><trkpt lat="40.669652996160686" lon="19.959890044430495"><ele>442.25</ele><time>2026-04-27T11:51:26Z</time></trkpt><trkpt lat="40.669651158337544" lon="19.95970367509641"><ele>444.5</ele><time>2026-04-27T11:51:27Z</time></trkpt><trkpt lat="40.66963724367505" lon="19.959519403406645"><ele>446.75</ele><time>2026-04-27T11:51:28Z</time></trkpt><trkpt lat="40.66955047538369" lon="19.959359939235174"><ele>449.0</ele><time>2026-04-27T11:51:29Z</time></trkpt><trkpt lat="40.6694727624057" lon="19.95922880739918"><ele>451.75</ele><time>2026-04-27T11:51:30Z</time></trkpt><trkpt lat="40.66936559896981" lon="19.95913212435833"><ele>454.5</ele><time>2026-04-27T11:51:31Z</time></trkpt><trkpt lat="40.6692382148338" lon="19.959075379642524"><ele>457.25</ele><time>2026-04-27T11:51:32Z</time></trkpt><trkpt lat="40.669118419212396" lon="19.95906934508227"><ele>460.0</ele><time>2026-04-27T11:51:33Z</time></trkpt><trkpt lat="40.6690103838604" lon="19.959117206139823"><ele>455.6666666666667</ele><time>2026-04-27T11:51:34Z</time></trkpt><trkpt lat="40.66888685553151" lon="19.95920904415646"><ele>451.33333333333337</ele><time>2026-04-27T11:51:35Z</time></trkpt><trkpt lat="40.66872899053279" lon="19.959326396111496"><ele>447.0</ele><time>2026-04-27T11:51:36Z</time></trkpt><trkpt lat="40.66858531796323" lon="19.95943353282995"><ele>446.5</ele><time>2026-04-27T11:51:37Z</time></trkpt><trkpt lat="40.66845626830544" lon="19.95950777368618"><ele>446.0</ele><time>2026-04-27T11:51:38Z</time></trkpt><trkpt lat="40.66831680585558" lon="19.959559025060788"><ele>445.5</ele><time>2026-04-27T11:51:39Z</time></trkpt><trkpt lat="40.668174386880494" lon="19.95956866697159"><ele>445.0</ele><time>2026-04-27T11:51:40Z</time></trkpt><trkpt lat="40.668026763423015" lon="19.959523348655228"><ele>445.0</ele><time>2026-04-27T11:51:41Z</time></trkpt><trkpt lat="40.66785614918421" lon="19.959438352948915"><ele>445.0</ele><time>2026-04-27T11:51:42Z</time></trkpt><trkpt lat="40.66766336581875" lon="19.959360204085836"><ele>445.0</ele><time>2026-04-27T11:51:43Z</time></trkpt><trkpt lat="40.66746433760426" lon="19.959326544600792"><ele>446.0</ele><time>2026-04-27T11:51:44Z</time></trkpt><trkpt lat="40.667294411212396" lon="19.95929719695057"><ele>447.0</ele><time>2026-04-27T11:51:45Z</time></trkpt><trkpt lat="40.66719810084891" lon="19.95911721855413"><ele>448.0</ele><time>2026-04-27T11:51:46Z</time></trkpt><trkpt lat="40.66708063460493" lon="19.959039930112315"><ele>451.75</ele><time>2026-04-27T11:51:47Z</time></trkpt><trkpt lat="40.66697653333975" lon="19.958971436362845"><ele>455.5</ele><time>2026-04-27T11:51:48Z</time></trkpt><trkpt lat="40.66682544149064" lon="19.959044031707258"><ele>459.25</ele><time>2026-04-27T11:51:49Z</time></trkpt><trkpt lat="40.666672605724415" lon="19.959107135411926"><ele>463.0</ele><time>2026-04-27T11:51:50Z</time></trkpt><trkpt lat="40.66651758201" lon="19.95918217940884"><ele>460.33333333333337</ele><time>2026-04-27T11:51:51Z</time></trkpt><trkpt lat="40.66632146156158" lon="19.959247433668434"><ele>457.66666666666663</ele><time>2026-04-27T11:51:52Z</time></trkpt><trkpt lat="40.66614550013778" lon="19.959283579474146"><ele>455.0</ele><time>2026-04-27T11:51:53Z</time></trkpt><trkpt lat="40.66599306164396" lon="19.95930455226824"><ele>455.0</ele><time>2026-04-27T11:51:54Z</time></trkpt><trkpt lat="40.66584045062113" lon="19.959384807083982"><ele>455.0</ele><time>2026-04-27T11:51:55Z</time></trkpt><trkpt lat="40.66568965384797" lon="19.95951751807648"><ele>455.0</ele><time>2026-04-27T11:51:56Z</time></trkpt><trkpt lat="40.66555186291486" lon="19.959643315037106"><ele>455.0</ele><time>2026-04-27T11:51:57Z</time></trkpt><trkpt lat="40.665458012123565" lon="19.959743162788005"><ele>455.0</ele><time>2026-04-27T11:51:58Z</time></trkpt><trkpt lat="40.665381091792995" lon="19.95990521941806"><ele>455.0</ele><time>2026-04-27T11:51:59Z</time></trkpt><trkpt lat="40.6653142895249" lon="19.96013572745478"><ele>460.66666666666663</ele><time>2026-04-27T11:52:00Z</time></trkpt><trkpt lat="40.665250415051645" lon="19.960387963357967"><ele>466.33333333333337</ele><time>2026-04-27T11:52:01Z</time></trkpt><trkpt lat="40.665177346486686" lon="19.960581160782876"><ele>472.0</ele><time>2026-04-27T11:52:02Z</time></trkpt><trkpt lat="40.66513597860972" lon="19.960757868144036"><ele>473.0</ele><time>2026-04-27T11:52:03Z</time></trkpt><trkpt lat="40.66513234168137" lon="19.96095108673322"><ele>474.0</ele><time>2026-04-27T11:52:04Z</time></trkpt><trkpt lat="40.66517960007994" lon="19.961153973002485"><ele>475.0</ele><time>2026-04-27T11:52:05Z</time></trkpt><trkpt lat="40.665291792653825" lon="19.961330883728497"><ele>467.75</ele><time>2026-04-27T11:52:06Z</time></trkpt><trkpt lat="40.66539407901003" lon="19.96146782178055"><ele>460.5</ele><time>2026-04-27T11:52:07Z</time></trkpt><trkpt lat="40.66542038530853" lon="19.961637516042796"><ele>453.25</ele><time>2026-04-27T11:52:07.999Z</time></trkpt><trkpt lat="40.66540249870153" lon="19.961810276192054"><ele>446.0</ele><time>2026-04-27T11:52:08.999Z</time></trkpt><trkpt lat="40.66534233772353" lon="19.96197971772937"><ele>454.3333333333333</ele><time>2026-04-27T11:52:09.999Z</time></trkpt><trkpt lat="40.66525412365489" lon="19.962140432529566"><ele>462.66666666666663</ele><time>2026-04-27T11:52:10.999Z</time></trkpt><trkpt lat="40.66516073521506" lon="19.962300227384066"><ele>471.0</ele><time>2026-04-27T11:52:11.999Z</time></trkpt><trkpt lat="40.66507314974549" lon="19.962475231109714"><ele>465.33333333333337</ele><time>2026-04-27T11:52:12.999Z</time></trkpt><trkpt lat="40.664991435493505" lon="19.962659401390017"><ele>459.6666666666667</ele><time>2026-04-27T11:52:13.999Z</time></trkpt><trkpt lat="40.6648998596236" lon="19.962843948631818"><ele>454.0</ele><time>2026-04-27T11:52:14.999Z</time></trkpt><trkpt lat="40.66479775001193" lon="19.96302255000061"><ele>454.0</ele><time>2026-04-27T11:52:15.999Z</time></trkpt><trkpt lat="40.664680660624626" lon="19.963199044284234"><ele>454.0</ele><time>2026-04-27T11:52:16.999Z</time></trkpt><trkpt lat="40.66456543507776" lon="19.963368869826763"><ele>454.0</ele><time>2026-04-27T11:52:17.999Z</time></trkpt><trkpt lat="40.66446688106263" lon="19.96351851384192"><ele>459.0</ele><time>2026-04-27T11:52:18.999Z</time></trkpt><trkpt lat="40.6643805760769" lon="19.963657816385787"><ele>464.0</ele><time>2026-04-27T11:52:19.999Z</time></trkpt><trkpt lat="40.66430174885688" lon="19.96378443184561"><ele>469.0</ele><time>2026-04-27T11:52:20.999Z</time></trkpt><trkpt lat="40.66427951538477" lon="19.963947334235822"><ele>474.0</ele><time>2026-04-27T11:52:21.999Z</time></trkpt><trkpt lat="40.664299024200425" lon="19.96413257612353"><ele>473.5</ele><time>2026-04-27T11:52:22.999Z</time></trkpt><trkpt lat="40.66433141016903" lon="19.964312047432305"><ele>473.0</ele><time>2026-04-27T11:52:23.999Z</time></trkpt><trkpt lat="40.66433352209396" lon="19.964464047337117"><ele>472.5</ele><time>2026-04-27T11:52:24.999Z</time></trkpt><trkpt lat="40.66426439379899" lon="19.964615329425918"><ele>472.0</ele><time>2026-04-27T11:52:25.999Z</time></trkpt><trkpt lat="40.66414208696118" lon="19.96472588506568"><ele>472.0</ele><time>2026-04-27T11:52:26.999Z</time></trkpt><trkpt lat="40.664050767560006" lon="19.964885275954874"><ele>472.0</ele><time>2026-04-27T11:52:27.999Z</time></trkpt><trkpt lat="40.66398251175139" lon="19.965019775238236"><ele>472.0</ele><time>2026-04-27T11:52:28.999Z</time></trkpt><trkpt lat="40.66396604484274" lon="19.965157117109914"><ele>472.0</ele><time>2026-04-27T11:52:29.999Z</time></trkpt><trkpt lat="40.663944599048556" lon="19.965305918778483"><ele>472.25</ele><time>2026-04-27T11:52:30.999Z</time></trkpt><trkpt lat="40.66389643889881" lon="19.965449350847337"><ele>472.5</ele><time>2026-04-27T11:52:31.999Z</time></trkpt><trkpt lat="40.66381864555239" lon="19.965543875308143"><ele>472.75</ele><time>2026-04-27T11:52:32.999Z</time></trkpt><trkpt lat="40.663711574510565" lon="19.96558941168495"><ele>473.0</ele><time>2026-04-27T11:52:33.999Z</time></trkpt><trkpt lat="40.663582490567904" lon="19.96561973243471"><ele>473.0</ele><time>2026-04-27T11:52:34.999Z</time></trkpt><trkpt lat="40.66343784842005" lon="19.96566306003439"><ele>473.0</ele><time>2026-04-27T11:52:35.999Z</time></trkpt><trkpt lat="40.66327928185317" lon="19.965719727675886"><ele>473.0</ele><time>2026-04-27T11:52:36.999Z</time></trkpt><trkpt lat="40.66311407477127" lon="19.965765384632668"><ele>473.0</ele><time>2026-04-27T11:52:38Z</time></trkpt><trkpt lat="40.66295540822132" lon="19.965780200172617"><ele>473.0</ele><time>2026-04-27T11:52:39Z</time></trkpt><trkpt lat="40.66281526148467" lon="19.96578056944298"><ele>473.0</ele><time>2026-04-27T11:52:40Z</time></trkpt><trkpt lat="40.66269637644461" lon="19.96579449760412"><ele>473.0</ele><time>2026-04-27T11:52:41Z</time></trkpt><trkpt lat="40.662598451970375" lon="19.965853769587575"><ele>472.75</ele><time>2026-04-27T11:52:42Z</time></trkpt><trkpt lat="40.66252331224017" lon="19.96595814242681"><ele>472.5</ele><time>2026-04-27T11:52:43Z</time></trkpt><trkpt lat="40.662466693879" lon="19.96609978985633"><ele>472.25</ele><time>2026-04-27T11:52:44Z</time></trkpt><trkpt lat="40.662418978691754" lon="19.966273269097407"><ele>472.0</ele><time>2026-04-27T11:52:45Z</time></trkpt><trkpt lat="40.662355987412255" lon="19.966442920515515"><ele>472.0</ele><time>2026-04-27T11:52:46Z</time></trkpt><trkpt lat="40.662279223803544" lon="19.966567603869986"><ele>472.0</ele><time>2026-04-27T11:52:47Z</time></trkpt><trkpt lat="40.66219038145644" lon="19.966649192804653"><ele>472.0</ele><time>2026-04-27T11:52:48Z</time></trkpt><trkpt lat="40.66209187368215" lon="19.966703884224607"><ele>472.0</ele><time>2026-04-27T11:52:49Z</time></trkpt><trkpt lat="40.66195370944825" lon="19.96673237372016"><ele>475.0</ele><time>2026-04-27T11:52:50Z</time></trkpt><trkpt lat="40.66180311861947" lon="19.966769311618943"><ele>478.0</ele><time>2026-04-27T11:52:51Z</time></trkpt><trkpt lat="40.66167449393911" lon="19.966829713146726"><ele>481.0</ele><time>2026-04-27T11:52:52Z</time></trkpt><trkpt lat="40.66158664806867" lon="19.96692516807907"><ele>484.0</ele><time>2026-04-27T11:52:53Z</time></trkpt><trkpt lat="40.66154375820584" lon="19.967072224350964"><ele>484.0</ele><time>2026-04-27T11:52:54Z</time></trkpt><trkpt lat="40.66152911182042" lon="19.967232283985158"><ele>484.0</ele><time>2026-04-27T11:52:55Z</time></trkpt><trkpt lat="40.661558175741014" lon="19.9673998347741"><ele>484.0</ele><time>2026-04-27T11:52:56Z</time></trkpt><trkpt lat="40.66162966265252" lon="19.96757884967094"><ele>484.0</ele><time>2026-04-27T11:52:57Z</time></trkpt><trkpt lat="40.66170750786271" lon="19.96776900262246"><ele>484.4</ele><time>2026-04-27T11:52:58Z</time></trkpt><trkpt lat="40.661732306055036" lon="19.967937621728105"><ele>484.79999999999995</ele><time>2026-04-27T11:52:59Z</time></trkpt><trkpt lat="40.661701367873576" lon="19.96806357204619"><ele>485.20000000000005</ele><time>2026-04-27T11:53:00Z</time></trkpt><trkpt lat="40.661635747423034" lon="19.96811707464194"><ele>485.6</ele><time>2026-04-27T11:53:01Z</time></trkpt><trkpt lat="40.661558769220676" lon="19.968059082106237"><ele>486.0</ele><time>2026-04-27T11:53:02Z</time></trkpt><trkpt lat="40.661528432840086" lon="19.967948234718552"><ele>486.0</ele><time>2026-04-27T11:53:03Z</time></trkpt><trkpt lat="40.66148792152086" lon="19.967830764490298"><ele>486.0</ele><time>2026-04-27T11:53:04Z</time></trkpt><trkpt lat="40.66141172559609" lon="19.96767245993649"><ele>486.0</ele><time>2026-04-27T11:53:05Z</time></trkpt><trkpt lat="40.66132935353351" lon="19.96751152495627"><ele>486.0</ele><time>2026-04-27T11:53:06Z</time></trkpt><trkpt lat="40.661226087799115" lon="19.967394518311718"><ele>488.0</ele><time>2026-04-27T11:53:07Z</time></trkpt><trkpt lat="40.6611018465452" lon="19.96732994222352"><ele>490.0</ele><time>2026-04-27T11:53:08Z</time></trkpt><trkpt lat="40.66096357342074" lon="19.96728080066873"><ele>492.0</ele><time>2026-04-27T11:53:09Z</time></trkpt><trkpt lat="40.66080686153324" lon="19.96726594232587"><ele>494.0</ele><time>2026-04-27T11:53:10Z</time></trkpt><trkpt lat="40.66064861644898" lon="19.967296932729564"><ele>494.0</ele><time>2026-04-27T11:53:11Z</time></trkpt><trkpt lat="40.66050135498906" lon="19.967378228100177"><ele>494.0</ele><time>2026-04-27T11:53:12Z</time></trkpt><trkpt lat="40.66034692178123" lon="19.967465631283158"><ele>494.0</ele><time>2026-04-27T11:53:13Z</time></trkpt><trkpt lat="40.660183765698356" lon="19.967539050721637"><ele>496.66666666666663</ele><time>2026-04-27T11:53:14Z</time></trkpt><trkpt lat="40.65999324398525" lon="19.9675554314346"><ele>499.33333333333337</ele><time>2026-04-27T11:53:15Z</time></trkpt><trkpt lat="40.659791452137476" lon="19.96752632163002"><ele>502.0</ele><time>2026-04-27T11:53:16Z</time></trkpt><trkpt lat="40.659585811780715" lon="19.96747876111658"><ele>500.0</ele><time>2026-04-27T11:53:17Z</time></trkpt><trkpt lat="40.65939220324426" lon="19.96736447664341"><ele>498.0</ele><time>2026-04-27T11:53:18Z</time></trkpt><trkpt lat="40.65921629335726" lon="19.967266639155948"><ele>496.0</ele><time>2026-04-27T11:53:19Z</time></trkpt><trkpt lat="40.659048538263704" lon="19.96719279760838"><ele>496.0</ele><time>2026-04-27T11:53:20Z</time></trkpt><trkpt lat="40.65889951199112" lon="19.967102991031304"><ele>496.0</ele><time>2026-04-27T11:53:21Z</time></trkpt><trkpt lat="40.65876150291626" lon="19.96703836385622"><ele>496.0</ele><time>2026-04-27T11:53:22Z</time></trkpt><trkpt lat="40.65862857136446" lon="19.967021475723488"><ele>496.0</ele><time>2026-04-27T11:53:23Z</time></trkpt><trkpt lat="40.65849337349521" lon="19.96706102994232"><ele>498.0</ele><time>2026-04-27T11:53:24Z</time></trkpt><trkpt lat="40.65837197408765" lon="19.967153580178497"><ele>500.0</ele><time>2026-04-27T11:53:25Z</time></trkpt><trkpt lat="40.658255305065516" lon="19.96729166188331"><ele>502.0</ele><time>2026-04-27T11:53:26Z</time></trkpt><trkpt lat="40.658132541192614" lon="19.96744197835058"><ele>498.0</ele><time>2026-04-27T11:53:27Z</time></trkpt><trkpt lat="40.65802002978448" lon="19.967600037341967"><ele>494.0</ele><time>2026-04-27T11:53:28Z</time></trkpt><trkpt lat="40.65792287471468" lon="19.967755701550487"><ele>490.0</ele><time>2026-04-27T11:53:29Z</time></trkpt><trkpt lat="40.65787987085722" lon="19.967976948929188"><ele>490.0</ele><time>2026-04-27T11:53:30Z</time></trkpt><trkpt lat="40.657822632191596" lon="19.96819084658343"><ele>490.0</ele><time>2026-04-27T11:53:31Z</time></trkpt><trkpt lat="40.65777320201897" lon="19.96839397435994"><ele>490.0</ele><time>2026-04-27T11:53:32Z</time></trkpt><trkpt lat="40.65772765191502" lon="19.96857454574484"><ele>493.75</ele><time>2026-04-27T11:53:33Z</time></trkpt><trkpt lat="40.65768218257895" lon="19.96873524386441"><ele>497.5</ele><time>2026-04-27T11:53:34Z</time></trkpt><trkpt lat="40.65762425754931" lon="19.968878777226656"><ele>501.25</ele><time>2026-04-27T11:53:35Z</time></trkpt><trkpt lat="40.65754004961063" lon="19.96900608482612"><ele>505.0</ele><time>2026-04-27T11:53:36Z</time></trkpt><trkpt lat="40.657434199955965" lon="19.969105807822526"><ele>505.0</ele><time>2026-04-27T11:53:37Z</time></trkpt><trkpt lat="40.6573204012216" lon="19.969163551511404"><ele>505.0</ele><time>2026-04-27T11:53:38Z</time></trkpt><trkpt lat="40.65719419790663" lon="19.969187874298584"><ele>505.0</ele><time>2026-04-27T11:53:39Z</time></trkpt><trkpt lat="40.65705775896693" lon="19.969213654105165"><ele>505.0</ele><time>2026-04-27T11:53:40Z</time></trkpt><trkpt lat="40.65692504170524" lon="19.96926410730228"><ele>501.6666666666667</ele><time>2026-04-27T11:53:41Z</time></trkpt><trkpt lat="40.656789963419214" lon="19.969326314532413"><ele>498.33333333333337</ele><time>2026-04-27T11:53:42Z</time></trkpt><trkpt lat="40.65663043841598" lon="19.969363854891032"><ele>495.0</ele><time>2026-04-27T11:53:43Z</time></trkpt><trkpt lat="40.65645630975669" lon="19.969404809508944"><ele>495.0</ele><time>2026-04-27T11:53:44Z</time></trkpt><trkpt lat="40.656264434372275" lon="19.969459596601094"><ele>495.0</ele><time>2026-04-27T11:53:45Z</time></trkpt><trkpt lat="40.65609743722438" lon="19.969519936831627"><ele>495.0</ele><time>2026-04-27T11:53:46Z</time></trkpt><trkpt lat="40.65595728801074" lon="19.969562857494306"><ele>496.25</ele><time>2026-04-27T11:53:47Z</time></trkpt><trkpt lat="40.65583560854276" lon="19.96957496753674"><ele>497.5</ele><time>2026-04-27T11:53:48Z</time></trkpt><trkpt lat="40.65571070615453" lon="19.969479900668812"><ele>498.75</ele><time>2026-04-27T11:53:49Z</time></trkpt><trkpt lat="40.65563949331415" lon="19.969319196269694"><ele>500.0</ele><time>2026-04-27T11:53:50Z</time></trkpt><trkpt lat="40.655537441145476" lon="19.969175964293086"><ele>504.0</ele><time>2026-04-27T11:53:51Z</time></trkpt><trkpt lat="40.65537482935894" lon="19.96909472713477"><ele>508.0</ele><time>2026-04-27T11:53:52Z</time></trkpt><trkpt lat="40.6552180897188" lon="19.96900020147619"><ele>512.0</ele><time>2026-04-27T11:53:53Z</time></trkpt><trkpt lat="40.65504385285343" lon="19.96893584188014"><ele>513.3333333333333</ele><time>2026-04-27T11:53:54Z</time></trkpt><trkpt lat="40.65488790105073" lon="19.968917708205556"><ele>514.6666666666666</ele><time>2026-04-27T11:53:55Z</time></trkpt><trkpt lat="40.65473557018676" lon="19.968941408345888"><ele>516.0</ele><time>2026-04-27T11:53:56Z</time></trkpt><trkpt lat="40.654568542408015" lon="19.969007536207773"><ele>513.3333333333334</ele><time>2026-04-27T11:53:57Z</time></trkpt><trkpt lat="40.65438691740734" lon="19.969108350897503"><ele>510.6666666666667</ele><time>2026-04-27T11:53:58Z</time></trkpt><trkpt lat="40.65416372581551" lon="19.969238419519908"><ele>508.0</ele><time>2026-04-27T11:53:59Z</time></trkpt><trkpt lat="40.65390992174637" lon="19.969374070967064"><ele>508.0</ele><time>2026-04-27T11:54:00Z</time></trkpt><trkpt lat="40.65363592170717" lon="19.969516106482363"><ele>508.0</ele><time>2026-04-27T11:54:01Z</time></trkpt><trkpt lat="40.65334367484437" lon="19.969669413541247"><ele>514.0</ele><time>2026-04-27T11:54:02Z</time></trkpt><trkpt lat="40.65304527922523" lon="19.969829102634378"><ele>520.0</ele><time>2026-04-27T11:54:03Z</time></trkpt><trkpt lat="40.652781606555074" lon="19.96997304489798"><ele>524.5</ele><time>2026-04-27T11:54:04Z</time></trkpt><trkpt lat="40.6525415927302" lon="19.9701079249617"><ele>529.0</ele><time>2026-04-27T11:54:05Z</time></trkpt><trkpt lat="40.65232257415856" lon="19.970230233329747"><ele>529.0</ele><time>2026-04-27T11:54:06Z</time></trkpt><trkpt lat="40.65212682406463" lon="19.970332973015694"><ele>529.0</ele><time>2026-04-27T11:54:07Z</time></trkpt><trkpt lat="40.65196405171464" lon="19.970421224950655"><ele>529.0</ele><time>2026-04-27T11:54:08Z</time></trkpt><trkpt lat="40.651822649424645" lon="19.970494802203316"><ele>533.3333333333334</ele><time>2026-04-27T11:54:09Z</time></trkpt><trkpt lat="40.65168119564586" lon="19.970546551560375"><ele>537.6666666666666</ele><time>2026-04-27T11:54:10Z</time></trkpt><trkpt lat="40.65153410191448" lon="19.970558872306764"><ele>542.0</ele><time>2026-04-27T11:54:11Z</time></trkpt><trkpt lat="40.65138041499024" lon="19.970523929458803"><ele>542.0</ele><time>2026-04-27T11:54:12Z</time></trkpt><trkpt lat="40.651228502595984" lon="19.970464145271265"><ele>542.0</ele><time>2026-04-27T11:54:13Z</time></trkpt><trkpt lat="40.651069275668576" lon="19.970422941320333"><ele>542.0</ele><time>2026-04-27T11:54:14Z</time></trkpt><trkpt lat="40.650907307156" lon="19.970426400242108"><ele>543.5</ele><time>2026-04-27T11:54:15Z</time></trkpt><trkpt lat="40.65076491976548" lon="19.970472765461764"><ele>545.0</ele><time>2026-04-27T11:54:16Z</time></trkpt><trkpt lat="40.6506347437922" lon="19.970559886985622"><ele>546.5</ele><time>2026-04-27T11:54:16.999Z</time></trkpt><trkpt lat="40.65052747772582" lon="19.970684646874904"><ele>548.0</ele><time>2026-04-27T11:54:17.999Z</time></trkpt><trkpt lat="40.650442398736764" lon="19.970835395262075"><ele>548.75</ele><time>2026-04-27T11:54:18.999Z</time></trkpt><trkpt lat="40.650366226159676" lon="19.970993568093547"><ele>549.5</ele><time>2026-04-27T11:54:19.999Z</time></trkpt><trkpt lat="40.65028321931294" lon="19.97113856924487"><ele>550.25</ele><time>2026-04-27T11:54:20.999Z</time></trkpt><trkpt lat="40.65018370069232" lon="19.971227789218283"><ele>551.0</ele><time>2026-04-27T11:54:21.999Z</time></trkpt><trkpt lat="40.65010281763284" lon="19.97131103784027"><ele>551.0</ele><time>2026-04-27T11:54:22.999Z</time></trkpt><trkpt lat="40.650003251793" lon="19.971298996268686"><ele>551.0</ele><time>2026-04-27T11:54:23.999Z</time></trkpt><trkpt lat="40.64992593743167" lon="19.971166715615873"><ele>551.0</ele><time>2026-04-27T11:54:24.999Z</time></trkpt><trkpt lat="40.64987718680409" lon="19.971042153981823"><ele>551.0</ele><time>2026-04-27T11:54:25.999Z</time></trkpt><trkpt lat="40.64977735498424" lon="19.970942463277243"><ele>553.0</ele><time>2026-04-27T11:54:27Z</time></trkpt><trkpt lat="40.64964968495815" lon="19.97084336010555"><ele>555.0</ele><time>2026-04-27T11:54:28Z</time></trkpt><trkpt lat="40.649504497407236" lon="19.970769880509494"><ele>557.0</ele><time>2026-04-27T11:54:29Z</time></trkpt><trkpt lat="40.64936140403097" lon="19.97069429452402"><ele>557.3333333333333</ele><time>2026-04-27T11:54:30Z</time></trkpt><trkpt lat="40.64919050976866" lon="19.970710897050946"><ele>557.6666666666666</ele><time>2026-04-27T11:54:31Z</time></trkpt><trkpt lat="40.64902913633003" lon="19.970676634774197"><ele>558.0</ele><time>2026-04-27T11:54:32Z</time></trkpt><trkpt lat="40.64886514148457" lon="19.970653254880908"><ele>558.0</ele><time>2026-04-27T11:54:33Z</time></trkpt><trkpt lat="40.64869427211" lon="19.97063641883479"><ele>558.0</ele><time>2026-04-27T11:54:34Z</time></trkpt><trkpt lat="40.64851295935908" lon="19.97060356229618"><ele>558.0</ele><time>2026-04-27T11:54:35Z</time></trkpt><trkpt lat="40.648326657292095" lon="19.970556422401014"><ele>560.3333333333334</ele><time>2026-04-27T11:54:36Z</time></trkpt><trkpt lat="40.64813939666717" lon="19.97049464288925"><ele>562.6666666666667</ele><time>2026-04-27T11:54:37Z</time></trkpt><trkpt lat="40.64795133526168" lon="19.970422648521822"><ele>565.0</ele><time>2026-04-27T11:54:38Z</time></trkpt><trkpt lat="40.64775515149271" lon="19.97036634136922"><ele>565.6666666666667</ele><time>2026-04-27T11:54:39Z</time></trkpt><trkpt lat="40.64754392339754" lon="19.97034987345957"><ele>566.3333333333334</ele><time>2026-04-27T11:54:40Z</time></trkpt><trkpt lat="40.64733010513537" lon="19.970364286018107"><ele>567.0</ele><time>2026-04-27T11:54:41Z</time></trkpt><trkpt lat="40.647140576282936" lon="19.970386604212344"><ele>567.0</ele><time>2026-04-27T11:54:42Z</time></trkpt><trkpt lat="40.646980107913166" lon="19.97043711790481"><ele>567.0</ele><time>2026-04-27T11:54:43Z</time></trkpt><trkpt lat="40.64683303949401" lon="19.97054441751479"><ele>567.0</ele><time>2026-04-27T11:54:44Z</time></trkpt><trkpt lat="40.64669289977876" lon="19.97067114815834"><ele>571.3333333333334</ele><time>2026-04-27T11:54:45Z</time></trkpt><trkpt lat="40.6465334870667" lon="19.97075105676887"><ele>575.6666666666667</ele><time>2026-04-27T11:54:46Z</time></trkpt><trkpt lat="40.64635309775945" lon="19.97077238546405"><ele>580.0</ele><time>2026-04-27T11:54:47Z</time></trkpt><trkpt lat="40.64615738382375" lon="19.970781779382353"><ele>583.0</ele><time>2026-04-27T11:54:48Z</time></trkpt><trkpt lat="40.64597593547626" lon="19.970782252989245"><ele>586.0</ele><time>2026-04-27T11:54:49Z</time></trkpt><trkpt lat="40.64583004292234" lon="19.97076655935278"><ele>589.0</ele><time>2026-04-27T11:54:50Z</time></trkpt><trkpt lat="40.64571033885645" lon="19.970771626455004"><ele>592.0</ele><time>2026-04-27T11:54:51Z</time></trkpt><trkpt lat="40.64559665783186" lon="19.97082708954711"><ele>590.25</ele><time>2026-04-27T11:54:52Z</time></trkpt><trkpt lat="40.645485482987006" lon="19.970931305263683"><ele>588.5</ele><time>2026-04-27T11:54:53Z</time></trkpt><trkpt lat="40.64538460471073" lon="19.971079126341028"><ele>586.75</ele><time>2026-04-27T11:54:54Z</time></trkpt><trkpt lat="40.645308364403824" lon="19.971224924714416"><ele>585.0</ele><time>2026-04-27T11:54:55Z</time></trkpt><trkpt lat="40.64526908112557" lon="19.97136259937191"><ele>584.75</ele><time>2026-04-27T11:54:56Z</time></trkpt><trkpt lat="40.645263293884504" lon="19.971517921169937"><ele>584.5</ele><time>2026-04-27T11:54:57Z</time></trkpt><trkpt lat="40.64529047883469" lon="19.971682374979423"><ele>584.25</ele><time>2026-04-27T11:54:58Z</time></trkpt><trkpt lat="40.64534248304975" lon="19.971847014685718"><ele>584.0</ele><time>2026-04-27T11:54:59Z</time></trkpt><trkpt lat="40.64538987092544" lon="19.97200705392534"><ele>584.0</ele><time>2026-04-27T11:55:00Z</time></trkpt><trkpt lat="40.64540160059556" lon="19.97214377505712"><ele>584.0</ele><time>2026-04-27T11:55:01Z</time></trkpt><trkpt lat="40.64540822003159" lon="19.97225453335258"><ele>584.0</ele><time>2026-04-27T11:55:02Z</time></trkpt><trkpt lat="40.64531608439266" lon="19.972368782479297"><ele>584.0</ele><time>2026-04-27T11:55:03Z</time></trkpt><trkpt lat="40.64522521215204" lon="19.972448650055227"><ele>584.0</ele><time>2026-04-27T11:55:04Z</time></trkpt><trkpt lat="40.645129503224375" lon="19.972528466351037"><ele>586.5</ele><time>2026-04-27T11:55:05Z</time></trkpt><trkpt lat="40.64503213249343" lon="19.972632718407418"><ele>589.0</ele><time>2026-04-27T11:55:06Z</time></trkpt><trkpt lat="40.64494093111306" lon="19.972757777709578"><ele>591.5</ele><time>2026-04-27T11:55:07Z</time></trkpt><trkpt lat="40.64484246032846" lon="19.972890649163006"><ele>594.0</ele><time>2026-04-27T11:55:08Z</time></trkpt><trkpt lat="40.644724561064336" lon="19.973010472927637"><ele>594.0</ele><time>2026-04-27T11:55:09Z</time></trkpt><trkpt lat="40.644578676551944" lon="19.97307969324382"><ele>594.0</ele><time>2026-04-27T11:55:10Z</time></trkpt><trkpt lat="40.64444420477575" lon="19.973188450903415"><ele>594.0</ele><time>2026-04-27T11:55:11Z</time></trkpt><trkpt lat="40.644309328212294" lon="19.973269742737976"><ele>593.25</ele><time>2026-04-27T11:55:12Z</time></trkpt><trkpt lat="40.64417542940713" lon="19.973372927449205"><ele>592.5</ele><time>2026-04-27T11:55:13Z</time></trkpt><trkpt lat="40.644062243761624" lon="19.97348908121464"><ele>591.75</ele><time>2026-04-27T11:55:14Z</time></trkpt><trkpt lat="40.64397485875745" lon="19.973627414252114"><ele>591.0</ele><time>2026-04-27T11:55:15Z</time></trkpt><trkpt lat="40.643911526709324" lon="19.973778094105658"><ele>591.0</ele><time>2026-04-27T11:55:16Z</time></trkpt><trkpt lat="40.64383371156725" lon="19.97391196104353"><ele>591.0</ele><time>2026-04-27T11:55:17Z</time></trkpt><trkpt lat="40.64374766064533" lon="19.974008333126914"><ele>591.0</ele><time>2026-04-27T11:55:18Z</time></trkpt><trkpt lat="40.64368437577672" lon="19.974107487267545"><ele>591.0</ele><time>2026-04-27T11:55:19Z</time></trkpt><trkpt lat="40.643640486937514" lon="19.974203230505914"><ele>591.0</ele><time>2026-04-27T11:55:20Z</time></trkpt><trkpt lat="40.643661053719136" lon="19.974359572849355"><ele>589.0</ele><time>2026-04-27T11:55:21Z</time></trkpt><trkpt lat="40.64372684491037" lon="19.9744749871875"><ele>587.0</ele><time>2026-04-27T11:55:22Z</time></trkpt><trkpt lat="40.64379902664378" lon="19.97457869273817"><ele>585.0</ele><time>2026-04-27T11:55:23Z</time></trkpt><trkpt lat="40.64388642519726" lon="19.974689373134545"><ele>583.0</ele><time>2026-04-27T11:55:24Z</time></trkpt><trkpt lat="40.64394849272024" lon="19.974805930420644"><ele>581.0</ele><time>2026-04-27T11:55:25Z</time></trkpt><trkpt lat="40.64397722767543" lon="19.974947276165597"><ele>578.75</ele><time>2026-04-27T11:55:26Z</time></trkpt><trkpt lat="40.643979582485386" lon="19.97510656045443"><ele>576.5</ele><time>2026-04-27T11:55:27Z</time></trkpt><trkpt lat="40.64394703432101" lon="19.97526633065121"><ele>574.25</ele><time>2026-04-27T11:55:28Z</time></trkpt><trkpt lat="40.643883989444355" lon="19.975426519194635"><ele>572.0</ele><time>2026-04-27T11:55:29Z</time></trkpt><trkpt lat="40.64379022802234" lon="19.97559944844424"><ele>572.0</ele><time>2026-04-27T11:55:30Z</time></trkpt><trkpt lat="40.64368074786899" lon="19.975775131985227"><ele>572.0</ele><time>2026-04-27T11:55:31Z</time></trkpt><trkpt lat="40.64354257645752" lon="19.97593243712115"><ele>572.0</ele><time>2026-04-27T11:55:32Z</time></trkpt><trkpt lat="40.64338438810759" lon="19.976076474973784"><ele>572.6666666666666</ele><time>2026-04-27T11:55:33Z</time></trkpt><trkpt lat="40.64321913612261" lon="19.976225370448088"><ele>573.3333333333334</ele><time>2026-04-27T11:55:34Z</time></trkpt><trkpt lat="40.64302113446871" lon="19.976399980321368"><ele>574.0</ele><time>2026-04-27T11:55:35Z</time></trkpt><trkpt lat="40.64284415161242" lon="19.97655131920565"><ele>571.0</ele><time>2026-04-27T11:55:36Z</time></trkpt><trkpt lat="40.64267128043506" lon="19.976704579716774"><ele>568.0</ele><time>2026-04-27T11:55:37Z</time></trkpt><trkpt lat="40.64250288124962" lon="19.976865231254422"><ele>565.0</ele><time>2026-04-27T11:55:38Z</time></trkpt><trkpt lat="40.64234619553754" lon="19.977019794180816"><ele>565.0</ele><time>2026-04-27T11:55:39Z</time></trkpt><trkpt lat="40.64218836570207" lon="19.97715483992121"><ele>565.0</ele><time>2026-04-27T11:55:40Z</time></trkpt><trkpt lat="40.64201502948615" lon="19.977267768412094"><ele>565.0</ele><time>2026-04-27T11:55:41Z</time></trkpt><trkpt lat="40.6418302298647" lon="19.977377887098545"><ele>565.0</ele><time>2026-04-27T11:55:42Z</time></trkpt><trkpt lat="40.64164595304555" lon="19.977486478462385"><ele>565.0</ele><time>2026-04-27T11:55:43Z</time></trkpt><trkpt lat="40.64147487291281" lon="19.977572493890225"><ele>565.0</ele><time>2026-04-27T11:55:44Z</time></trkpt><trkpt lat="40.64131308562729" lon="19.977630515231755"><ele>564.6666666666667</ele><time>2026-04-27T11:55:45Z</time></trkpt><trkpt lat="40.64116155879312" lon="19.977674019777602"><ele>564.3333333333334</ele><time>2026-04-27T11:55:46.001Z</time></trkpt><trkpt lat="40.64101785638045" lon="19.977744864027926"><ele>564.0</ele><time>2026-04-27T11:55:47.001Z</time></trkpt><trkpt lat="40.64088017008794" lon="19.97787311908297"><ele>564.0</ele><time>2026-04-27T11:55:48.001Z</time></trkpt><trkpt lat="40.640740372175095" lon="19.978053248693104"><ele>564.0</ele><time>2026-04-27T11:55:49.001Z</time></trkpt><trkpt lat="40.64059099958351" lon="19.978263549273276"><ele>564.0</ele><time>2026-04-27T11:55:50.001Z</time></trkpt><trkpt lat="40.640433023070464" lon="19.97847183652338"><ele>568.0</ele><time>2026-04-27T11:55:51.001Z</time></trkpt><trkpt lat="40.64029750718199" lon="19.978661522484032"><ele>572.0</ele><time>2026-04-27T11:55:52.001Z</time></trkpt><trkpt lat="40.64018889070764" lon="19.97886626944607"><ele>576.0</ele><time>2026-04-27T11:55:53.001Z</time></trkpt><trkpt lat="40.640099196844695" lon="19.97910725873916"><ele>572.3333333333334</ele><time>2026-04-27T11:55:54.001Z</time></trkpt><trkpt lat="40.640026538189666" lon="19.97933821963534"><ele>568.6666666666667</ele><time>2026-04-27T11:55:55.001Z</time></trkpt><trkpt lat="40.63995192193725" lon="19.97956750002663"><ele>565.0</ele><time>2026-04-27T11:55:56.001Z</time></trkpt><trkpt lat="40.639857407530116" lon="19.979792461134288"><ele>565.0</ele><time>2026-04-27T11:55:57.001Z</time></trkpt><trkpt lat="40.6397536687492" lon="19.980002477504303"><ele>565.0</ele><time>2026-04-27T11:55:58.001Z</time></trkpt><trkpt lat="40.63964318189506" lon="19.980177974067647"><ele>565.0</ele><time>2026-04-27T11:55:59.001Z</time></trkpt><trkpt lat="40.639518198768414" lon="19.980332150003637"><ele>568.0</ele><time>2026-04-27T11:56:00.001Z</time></trkpt><trkpt lat="40.63938666173171" lon="19.98048374224727"><ele>571.0</ele><time>2026-04-27T11:56:01.001Z</time></trkpt><trkpt lat="40.63927558917953" lon="19.980634090843374"><ele>574.0</ele><time>2026-04-27T11:56:02.001Z</time></trkpt><trkpt lat="40.63918669238776" lon="19.980774352546558"><ele>570.0</ele><time>2026-04-27T11:56:03.001Z</time></trkpt><trkpt lat="40.639101496047864" lon="19.980905147780597"><ele>566.0</ele><time>2026-04-27T11:56:04.001Z</time></trkpt><trkpt lat="40.6390206749626" lon="19.981036799112868"><ele>562.0</ele><time>2026-04-27T11:56:05.001Z</time></trkpt><trkpt lat="40.63894171022149" lon="19.98118483196803"><ele>558.0</ele><time>2026-04-27T11:56:06.001Z</time></trkpt><trkpt lat="40.63886227724035" lon="19.98137404035583"><ele>558.0</ele><time>2026-04-27T11:56:07.001Z</time></trkpt><trkpt lat="40.63877023740934" lon="19.981620503191316"><ele>558.0</ele><time>2026-04-27T11:56:08.001Z</time></trkpt><trkpt lat="40.63864411936353" lon="19.98191356949722"><ele>557.5</ele><time>2026-04-27T11:56:09.001Z</time></trkpt><trkpt lat="40.638505249546625" lon="19.982191447539137"><ele>557.0</ele><time>2026-04-27T11:56:10.001Z</time></trkpt><trkpt lat="40.638398160005096" lon="19.982431382137268"><ele>557.6666666666666</ele><time>2026-04-27T11:56:11.001Z</time></trkpt><trkpt lat="40.6383293056629" lon="19.98265411611895"><ele>558.3333333333334</ele><time>2026-04-27T11:56:12.001Z</time></trkpt><trkpt lat="40.63828211825257" lon="19.982860822765176"><ele>559.0</ele><time>2026-04-27T11:56:13.001Z</time></trkpt><trkpt lat="40.638247860687116" lon="19.98303820780998"><ele>559.0</ele><time>2026-04-27T11:56:14.001Z</time></trkpt><trkpt lat="40.63822292437784" lon="19.98318475368491"><ele>559.0</ele><time>2026-04-27T11:56:15.001Z</time></trkpt><trkpt lat="40.63818842274434" lon="19.9833075181657"><ele>559.0</ele><time>2026-04-27T11:56:16.001Z</time></trkpt><trkpt lat="40.63812131681131" lon="19.983421476529855"><ele>559.0</ele><time>2026-04-27T11:56:17.001Z</time></trkpt><trkpt lat="40.63802155417568" lon="19.983518475094954"><ele>559.0</ele><time>2026-04-27T11:56:18.001Z</time></trkpt><trkpt lat="40.63790707874424" lon="19.983600179011162"><ele>560.0</ele><time>2026-04-27T11:56:19.001Z</time></trkpt><trkpt lat="40.63780315852203" lon="19.983702831786623"><ele>561.0</ele><time>2026-04-27T11:56:20Z</time></trkpt><trkpt lat="40.63772182874111" lon="19.983856419978444"><ele>562.0</ele><time>2026-04-27T11:56:21Z</time></trkpt><trkpt lat="40.63761555569729" lon="19.984078437746305"><ele>563.3333333333334</ele><time>2026-04-27T11:56:22Z</time></trkpt><trkpt lat="40.6374847369712" lon="19.98431164195125"><ele>564.6666666666666</ele><time>2026-04-27T11:56:23Z</time></trkpt><trkpt lat="40.637382610165844" lon="19.984483840137816"><ele>566.0</ele><time>2026-04-27T11:56:24Z</time></trkpt><trkpt lat="40.637278618078916" lon="19.984608865224565"><ele>566.0</ele><time>2026-04-27T11:56:25Z</time></trkpt><trkpt lat="40.63714140316592" lon="19.984700835947216"><ele>566.0</ele><time>2026-04-27T11:56:26Z</time></trkpt><trkpt lat="40.636977224131726" lon="19.984783000599418"><ele>566.0</ele><time>2026-04-27T11:56:27Z</time></trkpt><trkpt lat="40.636807915595874" lon="19.98485610153641"><ele>565.5</ele><time>2026-04-27T11:56:28Z</time></trkpt><trkpt lat="40.63667360667796" lon="19.98492068620345"><ele>565.0</ele><time>2026-04-27T11:56:29Z</time></trkpt><trkpt lat="40.63656863575202" lon="19.98500638366462"><ele>564.5</ele><time>2026-04-27T11:56:30Z</time></trkpt><trkpt lat="40.636468898574165" lon="19.985140063165712"><ele>564.0</ele><time>2026-04-27T11:56:31Z</time></trkpt><trkpt lat="40.63638167351728" lon="19.98532868702103"><ele>564.0</ele><time>2026-04-27T11:56:32Z</time></trkpt><trkpt lat="40.636293960407535" lon="19.985561569623282"><ele>564.0</ele><time>2026-04-27T11:56:33Z</time></trkpt><trkpt lat="40.6362032227764" lon="19.98582265750815"><ele>564.0</ele><time>2026-04-27T11:56:34Z</time></trkpt><trkpt lat="40.63610344997953" lon="19.98606881367216"><ele>559.6666666666666</ele><time>2026-04-27T11:56:35Z</time></trkpt><trkpt lat="40.63600215261182" lon="19.986288979648762"><ele>555.3333333333333</ele><time>2026-04-27T11:56:36Z</time></trkpt><trkpt lat="40.63590465264468" lon="19.986485638055864"><ele>551.0</ele><time>2026-04-27T11:56:37Z</time></trkpt><trkpt lat="40.63582306184624" lon="19.986652161242034"><ele>550.25</ele><time>2026-04-27T11:56:38Z</time></trkpt><trkpt lat="40.63576088189795" lon="19.9867896886601"><ele>549.5</ele><time>2026-04-27T11:56:39Z</time></trkpt><trkpt lat="40.63571464649752" lon="19.98692522986884"><ele>548.75</ele><time>2026-04-27T11:56:40Z</time></trkpt><trkpt lat="40.63568935680609" lon="19.987076418720914"><ele>548.0</ele><time>2026-04-27T11:56:41Z</time></trkpt><trkpt lat="40.63569318745329" lon="19.987248477045142"><ele>548.0</ele><time>2026-04-27T11:56:42Z</time></trkpt><trkpt lat="40.63574910454836" lon="19.98743712113029"><ele>548.0</ele><time>2026-04-27T11:56:43Z</time></trkpt><trkpt lat="40.63582529526294" lon="19.987613824086143"><ele>548.0</ele><time>2026-04-27T11:56:44Z</time></trkpt><trkpt lat="40.635895383471954" lon="19.987770559451967"><ele>548.0</ele><time>2026-04-27T11:56:45Z</time></trkpt><trkpt lat="40.63594074975387" lon="19.987928941484117"><ele>546.5</ele><time>2026-04-27T11:56:46Z</time></trkpt><trkpt lat="40.63594808390577" lon="19.988091006322193"><ele>545.0</ele><time>2026-04-27T11:56:47Z</time></trkpt><trkpt lat="40.635918162324124" lon="19.988260355356964"><ele>543.5</ele><time>2026-04-27T11:56:48Z</time></trkpt><trkpt lat="40.635852987836024" lon="19.98842730477258"><ele>542.0</ele><time>2026-04-27T11:56:49Z</time></trkpt><trkpt lat="40.635753547219444" lon="19.988589395294564"><ele>540.6666666666666</ele><time>2026-04-27T11:56:50Z</time></trkpt><trkpt lat="40.635641948555005" lon="19.98876350640678"><ele>539.3333333333334</ele><time>2026-04-27T11:56:51Z</time></trkpt><trkpt lat="40.635551095297934" lon="19.988960990284195"><ele>538.0</ele><time>2026-04-27T11:56:52Z</time></trkpt><trkpt lat="40.63548591339004" lon="19.989188904497794"><ele>539.3333333333334</ele><time>2026-04-27T11:56:53Z</time></trkpt><trkpt lat="40.635425204958" lon="19.98945132031024"><ele>540.6666666666666</ele><time>2026-04-27T11:56:54Z</time></trkpt><trkpt lat="40.635339465591116" lon="19.989721168413805"><ele>542.0</ele><time>2026-04-27T11:56:55Z</time></trkpt><trkpt lat="40.63520936046372" lon="19.98997519277488"><ele>546.0</ele><time>2026-04-27T11:56:56Z</time></trkpt><trkpt lat="40.635029340582655" lon="19.990245533850967"><ele>550.0</ele><time>2026-04-27T11:56:57Z</time></trkpt><trkpt lat="40.634845018941554" lon="19.99053211143464"><ele>550.0</ele><time>2026-04-27T11:56:58Z</time></trkpt><trkpt lat="40.63469794233022" lon="19.990772523476704"><ele>550.0</ele><time>2026-04-27T11:56:59Z</time></trkpt><trkpt lat="40.634567056712534" lon="19.991004082083624"><ele>553.0</ele><time>2026-04-27T11:57:00Z</time></trkpt><trkpt lat="40.634452726526945" lon="19.99124055056332"><ele>556.0</ele><time>2026-04-27T11:57:01Z</time></trkpt><trkpt lat="40.634375120349056" lon="19.99146135640547"><ele>559.0</ele><time>2026-04-27T11:57:02Z</time></trkpt><trkpt lat="40.634302127311166" lon="19.991654250870326"><ele>556.6666666666667</ele><time>2026-04-27T11:57:03Z</time></trkpt><trkpt lat="40.63420505144151" lon="19.991814436245903"><ele>554.3333333333334</ele><time>2026-04-27T11:57:04Z</time></trkpt><trkpt lat="40.63405420430596" lon="19.991950313190266"><ele>552.0</ele><time>2026-04-27T11:57:05Z</time></trkpt><trkpt lat="40.633884093596095" lon="19.992099464828506"><ele>552.0</ele><time>2026-04-27T11:57:06Z</time></trkpt><trkpt lat="40.633710644847426" lon="19.99221599783182"><ele>552.0</ele><time>2026-04-27T11:57:07Z</time></trkpt><trkpt lat="40.63357563226949" lon="19.992320828893384"><ele>552.0</ele><time>2026-04-27T11:57:08Z</time></trkpt><trkpt lat="40.63346152093671" lon="19.992389431886664"><ele>555.25</ele><time>2026-04-27T11:57:09Z</time></trkpt><trkpt lat="40.633346319524584" lon="19.99234385177978"><ele>558.5</ele><time>2026-04-27T11:57:10Z</time></trkpt><trkpt lat="40.63323414040319" lon="19.992249425560825"><ele>561.75</ele><time>2026-04-27T11:57:11Z</time></trkpt><trkpt lat="40.6330999017473" lon="19.992124283311536"><ele>565.0</ele><time>2026-04-27T11:57:12Z</time></trkpt><trkpt lat="40.63292116021238" lon="19.992023012334712"><ele>565.3333333333334</ele><time>2026-04-27T11:57:13Z</time></trkpt><trkpt lat="40.632741921840214" lon="19.99193060443335"><ele>565.6666666666666</ele><time>2026-04-27T11:57:14Z</time></trkpt><trkpt lat="40.63256034410051" lon="19.991899948253774"><ele>566.0</ele><time>2026-04-27T11:57:15Z</time></trkpt><trkpt lat="40.63239513470477" lon="19.99190647036507"><ele>566.0</ele><time>2026-04-27T11:57:16Z</time></trkpt><trkpt lat="40.6322497916647" lon="19.991953431984637"><ele>566.0</ele><time>2026-04-27T11:57:17Z</time></trkpt><trkpt lat="40.632103684572826" lon="19.99205503254759"><ele>566.0</ele><time>2026-04-27T11:57:18Z</time></trkpt><trkpt lat="40.63195154735329" lon="19.992168215252857"><ele>568.6666666666666</ele><time>2026-04-27T11:57:19Z</time></trkpt><trkpt lat="40.631817040049256" lon="19.992209942529005"><ele>571.3333333333334</ele><time>2026-04-27T11:57:20Z</time></trkpt><trkpt lat="40.63168355036849" lon="19.992162251415618"><ele>574.0</ele><time>2026-04-27T11:57:21Z</time></trkpt><trkpt lat="40.63160691298885" lon="19.991954555391484"><ele>574.0</ele><time>2026-04-27T11:57:22Z</time></trkpt><trkpt lat="40.63147102656026" lon="19.991775732221736"><ele>574.0</ele><time>2026-04-27T11:57:23Z</time></trkpt><trkpt lat="40.631336069973095" lon="19.991628271924583"><ele>574.0</ele><time>2026-04-27T11:57:24Z</time></trkpt><trkpt lat="40.631252187333224" lon="19.991541172870015"><ele>577.5</ele><time>2026-04-27T11:57:25Z</time></trkpt><trkpt lat="40.631141093087535" lon="19.99149906063805"><ele>581.0</ele><time>2026-04-27T11:57:26Z</time></trkpt><trkpt lat="40.63103607330962" lon="19.99149739374461"><ele>584.5</ele><time>2026-04-27T11:57:27Z</time></trkpt><trkpt lat="40.63091825321477" lon="19.99157177282285"><ele>588.0</ele><time>2026-04-27T11:57:28Z</time></trkpt><trkpt lat="40.6307531282554" lon="19.991647630510915"><ele>588.0</ele><time>2026-04-27T11:57:29Z</time></trkpt><trkpt lat="40.63059032538795" lon="19.991703205190202"><ele>588.0</ele><time>2026-04-27T11:57:30Z</time></trkpt><trkpt lat="40.630433667023894" lon="19.991653880402183"><ele>588.0</ele><time>2026-04-27T11:57:31Z</time></trkpt><trkpt lat="40.63030565148611" lon="19.99138605269966"><ele>588.3333333333334</ele><time>2026-04-27T11:57:32Z</time></trkpt><trkpt lat="40.63012994558843" lon="19.99129863961208"><ele>588.6666666666667</ele><time>2026-04-27T11:57:33Z</time></trkpt><trkpt lat="40.63000481146295" lon="19.991217044588772"><ele>589.0</ele><time>2026-04-27T11:57:34Z</time></trkpt><trkpt lat="40.62985387763524" lon="19.991176065193812"><ele>589.0</ele><time>2026-04-27T11:57:35Z</time></trkpt><trkpt lat="40.629675036803505" lon="19.991162912187416"><ele>589.0</ele><time>2026-04-27T11:57:36Z</time></trkpt><trkpt lat="40.62949585599627" lon="19.99118219670413"><ele>589.0</ele><time>2026-04-27T11:57:37Z</time></trkpt><trkpt lat="40.62935246224348" lon="19.991248716129967"><ele>588.0</ele><time>2026-04-27T11:57:38Z</time></trkpt><trkpt lat="40.62920218884897" lon="19.991364769260386"><ele>587.0</ele><time>2026-04-27T11:57:39Z</time></trkpt><trkpt lat="40.62904098891317" lon="19.99153269660302"><ele>586.0</ele><time>2026-04-27T11:57:40Z</time></trkpt><trkpt lat="40.62887656084853" lon="19.99173723564462"><ele>586.0</ele><time>2026-04-27T11:57:41Z</time></trkpt><trkpt lat="40.62871509207118" lon="19.991906273703627"><ele>586.0</ele><time>2026-04-27T11:57:42Z</time></trkpt><trkpt lat="40.62851920180018" lon="19.992016512508624"><ele>586.0</ele><time>2026-04-27T11:57:43Z</time></trkpt><trkpt lat="40.62828787414402" lon="19.992043988839995"><ele>588.3333333333334</ele><time>2026-04-27T11:57:44Z</time></trkpt><trkpt lat="40.62809852713858" lon="19.992123790978354"><ele>590.6666666666666</ele><time>2026-04-27T11:57:45Z</time></trkpt><trkpt lat="40.627903700091096" lon="19.99222125435802"><ele>593.0</ele><time>2026-04-27T11:57:46Z</time></trkpt><trkpt lat="40.62768062862595" lon="19.992408169048847"><ele>594.0</ele><time>2026-04-27T11:57:47Z</time></trkpt><trkpt lat="40.627479419458616" lon="19.992690005378932"><ele>595.0</ele><time>2026-04-27T11:57:48Z</time></trkpt><trkpt lat="40.627285197479345" lon="19.99284966819571"><ele>595.0</ele><time>2026-04-27T11:57:49Z</time></trkpt><trkpt lat="40.62706124777627" lon="19.99290011412737"><ele>595.0</ele><time>2026-04-27T11:57:50Z</time></trkpt><trkpt lat="40.627043452404756" lon="19.993313198562017"><ele>598.6666666666667</ele><time>2026-04-27T11:57:51Z</time></trkpt><trkpt lat="40.62692801361848" lon="19.993568035307767"><ele>602.3333333333334</ele><time>2026-04-27T11:57:52Z</time></trkpt><trkpt lat="40.62681036351278" lon="19.993809072677177"><ele>606.0</ele><time>2026-04-27T11:57:53Z</time></trkpt><trkpt lat="40.62661945205471" lon="19.99404095049804"><ele>601.0</ele><time>2026-04-27T11:57:54Z</time></trkpt><trkpt lat="40.62638602202912" lon="19.9942683266713"><ele>596.0</ele><time>2026-04-27T11:57:55Z</time></trkpt><trkpt lat="40.62618810906975" lon="19.994477524825083"><ele>600.6666666666666</ele><time>2026-04-27T11:57:56Z</time></trkpt><trkpt lat="40.62601067566576" lon="19.994672912472964"><ele>605.3333333333334</ele><time>2026-04-27T11:57:57Z</time></trkpt><trkpt lat="40.62585390488533" lon="19.994806536900455"><ele>610.0</ele><time>2026-04-27T11:57:58Z</time></trkpt><trkpt lat="40.625670642207766" lon="19.99484267076395"><ele>610.0</ele><time>2026-04-27T11:57:59Z</time></trkpt><trkpt lat="40.6255637477051" lon="19.99496352814389"><ele>610.0</ele><time>2026-04-27T11:58:00.001Z</time></trkpt><trkpt lat="40.62560445838548" lon="19.995280227343827"><ele>610.0</ele><time>2026-04-27T11:58:01.001Z</time></trkpt><trkpt lat="40.62557927581784" lon="19.99550518222679"><ele>610.0</ele><time>2026-04-27T11:58:02.001Z</time></trkpt><trkpt lat="40.625588503937166" lon="19.995741719283043"><ele>610.0</ele><time>2026-04-27T11:58:03.001Z</time></trkpt><trkpt lat="40.62564822584213" lon="19.995991061813623"><ele>610.0</ele><time>2026-04-27T11:58:04.001Z</time></trkpt><trkpt lat="40.62573615017989" lon="19.996256142534925"><ele>609.6666666666667</ele><time>2026-04-27T11:58:05.001Z</time></trkpt><trkpt lat="40.62582556986478" lon="19.996505023521202"><ele>609.3333333333334</ele><time>2026-04-27T11:58:06.001Z</time></trkpt><trkpt lat="40.62587411513113" lon="19.99668532281992"><ele>609.0</ele><time>2026-04-27T11:58:07.001Z</time></trkpt><trkpt lat="40.62586390384965" lon="19.996841929266154"><ele>609.0</ele><time>2026-04-27T11:58:08.001Z</time></trkpt><trkpt lat="40.62578493743401" lon="19.99695885289862"><ele>609.0</ele><time>2026-04-27T11:58:09.001Z</time></trkpt><trkpt lat="40.62568418220643" lon="19.99701765587105"><ele>609.0</ele><time>2026-04-27T11:58:10.001Z</time></trkpt><trkpt lat="40.625577051270064" lon="19.99695491618154"><ele>609.0</ele><time>2026-04-27T11:58:11.001Z</time></trkpt><trkpt lat="40.62541985104161" lon="19.996894318571783"><ele>609.3333333333334</ele><time>2026-04-27T11:58:12.001Z</time></trkpt><trkpt lat="40.62523382055881" lon="19.99682276804528"><ele>609.6666666666667</ele><time>2026-04-27T11:58:13.001Z</time></trkpt><trkpt lat="40.62502240330726" lon="19.996708433202492"><ele>610.0</ele><time>2026-04-27T11:58:14.001Z</time></trkpt><trkpt lat="40.62478340295899" lon="19.996543593458927"><ele>620.0</ele><time>2026-04-27T11:58:15.001Z</time></trkpt><trkpt lat="40.624505720893275" lon="19.996453731825802"><ele>630.0</ele><time>2026-04-27T11:58:16.001Z</time></trkpt><trkpt lat="40.62422478008651" lon="19.99637480440313"><ele>630.0</ele><time>2026-04-27T11:58:17.001Z</time></trkpt><trkpt lat="40.62396093980156" lon="19.99624919477344"><ele>630.0</ele><time>2026-04-27T11:58:18.001Z</time></trkpt><trkpt lat="40.62369064261981" lon="19.996093890982067"><ele>626.0</ele><time>2026-04-27T11:58:19.001Z</time></trkpt><trkpt lat="40.62343213280838" lon="19.99597770067324"><ele>622.0</ele><time>2026-04-27T11:58:20.001Z</time></trkpt><trkpt lat="40.62320358506268" lon="19.995880720370273"><ele>629.3333333333334</ele><time>2026-04-27T11:58:21.001Z</time></trkpt><trkpt lat="40.622999142953866" lon="19.995810811232865"><ele>636.6666666666666</ele><time>2026-04-27T11:58:22.001Z</time></trkpt><trkpt lat="40.622815041389075" lon="19.995682145362274"><ele>644.0</ele><time>2026-04-27T11:58:23.001Z</time></trkpt><trkpt lat="40.62262154599229" lon="19.995474878997612"><ele>644.0</ele><time>2026-04-27T11:58:24.001Z</time></trkpt><trkpt lat="40.622405318930575" lon="19.99528707428629"><ele>644.0</ele><time>2026-04-27T11:58:25.001Z</time></trkpt><trkpt lat="40.62219349781249" lon="19.995180958534366"><ele>644.0</ele><time>2026-04-27T11:58:26Z</time></trkpt><trkpt lat="40.62201419664069" lon="19.99506764832505"><ele>644.0</ele><time>2026-04-27T11:58:27Z</time></trkpt><trkpt lat="40.621870715188194" lon="19.994913563654038"><ele>644.0</ele><time>2026-04-27T11:58:28Z</time></trkpt><trkpt lat="40.62176215786909" lon="19.994705588281334"><ele>647.0</ele><time>2026-04-27T11:58:29Z</time></trkpt><trkpt lat="40.62168564019467" lon="19.994499283498957"><ele>650.0</ele><time>2026-04-27T11:58:30Z</time></trkpt><trkpt lat="40.62157949368839" lon="19.994368066872855"><ele>653.0</ele><time>2026-04-27T11:58:31Z</time></trkpt><trkpt lat="40.621436729648956" lon="19.99429504601855"><ele>653.0</ele><time>2026-04-27T11:58:32Z</time></trkpt><trkpt lat="40.62127261855488" lon="19.99430550091169"><ele>653.0</ele><time>2026-04-27T11:58:33Z</time></trkpt><trkpt lat="40.621115858849464" lon="19.994372689949245"><ele>653.0</ele><time>2026-04-27T11:58:34Z</time></trkpt><trkpt lat="40.62096985916542" lon="19.994519333356916"><ele>653.5</ele><time>2026-04-27T11:58:35Z</time></trkpt><trkpt lat="40.620818857095756" lon="19.99471395555389"><ele>654.0</ele><time>2026-04-27T11:58:36Z</time></trkpt><trkpt lat="40.62063326695865" lon="19.994944761768377"><ele>652.5</ele><time>2026-04-27T11:58:37Z</time></trkpt><trkpt lat="40.620423025664486" lon="19.995039779925325"><ele>651.0</ele><time>2026-04-27T11:58:38Z</time></trkpt><trkpt lat="40.62020603448346" lon="19.9951724096578"><ele>651.0</ele><time>2026-04-27T11:58:39Z</time></trkpt><trkpt lat="40.620047727471984" lon="19.995406123512204"><ele>651.0</ele><time>2026-04-27T11:58:40Z</time></trkpt><trkpt lat="40.61989339858784" lon="19.995674955665415"><ele>648.5</ele><time>2026-04-27T11:58:41Z</time></trkpt><trkpt lat="40.61973788660355" lon="19.99599747547055"><ele>646.0</ele><time>2026-04-27T11:58:42Z</time></trkpt><trkpt lat="40.619604484535415" lon="19.996343765253943"><ele>651.0</ele><time>2026-04-27T11:58:43Z</time></trkpt><trkpt lat="40.61942617819663" lon="19.996623805220295"><ele>656.0</ele><time>2026-04-27T11:58:44Z</time></trkpt><trkpt lat="40.619309526711476" lon="19.996885566729564"><ele>656.6666666666666</ele><time>2026-04-27T11:58:45Z</time></trkpt><trkpt lat="40.61920020135216" lon="19.997126191628578"><ele>657.3333333333334</ele><time>2026-04-27T11:58:46Z</time></trkpt><trkpt lat="40.619092986069624" lon="19.99736185839857"><ele>658.0</ele><time>2026-04-27T11:58:47Z</time></trkpt><trkpt lat="40.618964145311914" lon="19.99759441780059"><ele>656.6666666666667</ele><time>2026-04-27T11:58:48Z</time></trkpt><trkpt lat="40.61883033890258" lon="19.99782372777925"><ele>655.3333333333334</ele><time>2026-04-27T11:58:49Z</time></trkpt><trkpt lat="40.61870578943898" lon="19.998036605824698"><ele>654.0</ele><time>2026-04-27T11:58:50Z</time></trkpt><trkpt lat="40.618602107483305" lon="19.998200986205266"><ele>661.0</ele><time>2026-04-27T11:58:51Z</time></trkpt><trkpt lat="40.61851403695208" lon="19.998378554700615"><ele>668.0</ele><time>2026-04-27T11:58:52Z</time></trkpt><trkpt lat="40.618467155098166" lon="19.99855090030254"><ele>675.0</ele><time>2026-04-27T11:58:53Z</time></trkpt><trkpt lat="40.618494244906024" lon="19.9987522202619"><ele>675.0</ele><time>2026-04-27T11:58:54Z</time></trkpt><trkpt lat="40.61855988225269" lon="19.99894122987072"><ele>675.0</ele><time>2026-04-27T11:58:55Z</time></trkpt><trkpt lat="40.61860592429981" lon="19.999138339709727"><ele>675.0</ele><time>2026-04-27T11:58:56Z</time></trkpt><trkpt lat="40.61858869945069" lon="19.99933077294281"><ele>673.25</ele><time>2026-04-27T11:58:57Z</time></trkpt><trkpt lat="40.61851740243086" lon="19.99948114938848"><ele>671.5</ele><time>2026-04-27T11:58:58Z</time></trkpt><trkpt lat="40.61839546931511" lon="19.999566232784762"><ele>669.75</ele><time>2026-04-27T11:58:59Z</time></trkpt><trkpt lat="40.618252631756874" lon="19.999566094975936"><ele>668.0</ele><time>2026-04-27T11:59:00Z</time></trkpt><trkpt lat="40.61810334738135" lon="19.999546608788354"><ele>668.0</ele><time>2026-04-27T11:59:01Z</time></trkpt><trkpt lat="40.617922487321735" lon="19.999516864382496"><ele>668.0</ele><time>2026-04-27T11:59:02Z</time></trkpt><trkpt lat="40.617717124446706" lon="19.999495987502055"><ele>668.0</ele><time>2026-04-27T11:59:03Z</time></trkpt><trkpt lat="40.617524866762146" lon="19.999534044291703"><ele>672.0</ele><time>2026-04-27T11:59:04Z</time></trkpt><trkpt lat="40.61740674117165" lon="19.99966475265265"><ele>676.0</ele><time>2026-04-27T11:59:05Z</time></trkpt><trkpt lat="40.6172728645852" lon="19.999811993610358"><ele>680.0</ele><time>2026-04-27T11:59:06Z</time></trkpt><trkpt lat="40.61715079317831" lon="19.999992866719452"><ele>680.0</ele><time>2026-04-27T11:59:07Z</time></trkpt><trkpt lat="40.61703234851239" lon="20.00018774608421"><ele>680.0</ele><time>2026-04-27T11:59:08Z</time></trkpt><trkpt lat="40.616919535567725" lon="20.00033618087535"><ele>680.0</ele><time>2026-04-27T11:59:09Z</time></trkpt><trkpt lat="40.61678197032973" lon="20.000415215272927"><ele>684.3333333333333</ele><time>2026-04-27T11:59:10Z</time></trkpt><trkpt lat="40.61662086322387" lon="20.00040814023008"><ele>688.6666666666666</ele><time>2026-04-27T11:59:11Z</time></trkpt><trkpt lat="40.61644010401717" lon="20.000336791971325"><ele>693.0</ele><time>2026-04-27T11:59:12Z</time></trkpt><trkpt lat="40.61622571267804" lon="20.00027556575366"><ele>692.3333333333334</ele><time>2026-04-27T11:59:13Z</time></trkpt><trkpt lat="40.61603172587887" lon="20.000169280506153"><ele>691.6666666666667</ele><time>2026-04-27T11:59:14Z</time></trkpt><trkpt lat="40.615865434285745" lon="20.000113766682844"><ele>691.0</ele><time>2026-04-27T11:59:15Z</time></trkpt><trkpt lat="40.61568403616993" lon="20.000108914801366"><ele>691.0</ele><time>2026-04-27T11:59:16Z</time></trkpt><trkpt lat="40.615485893183255" lon="20.000196202223744"><ele>691.0</ele><time>2026-04-27T11:59:17Z</time></trkpt><trkpt lat="40.615306911334635" lon="20.000322147856558"><ele>691.0</ele><time>2026-04-27T11:59:18Z</time></trkpt><trkpt lat="40.61513024773877" lon="20.000393492325177"><ele>690.0</ele><time>2026-04-27T11:59:19Z</time></trkpt><trkpt lat="40.614994241732006" lon="20.000373824193417"><ele>689.0</ele><time>2026-04-27T11:59:20Z</time></trkpt><trkpt lat="40.61490527177246" lon="20.000223108493586"><ele>688.0</ele><time>2026-04-27T11:59:21Z</time></trkpt><trkpt lat="40.6147653437367" lon="20.000134829037933"><ele>687.0</ele><time>2026-04-27T11:59:22Z</time></trkpt><trkpt lat="40.61463461325685" lon="20.000088263396353"><ele>688.0</ele><time>2026-04-27T11:59:23Z</time></trkpt><trkpt lat="40.61448601648388" lon="20.000091578036468"><ele>689.0</ele><time>2026-04-27T11:59:24Z</time></trkpt><trkpt lat="40.61433815259653" lon="20.00011304483451"><ele>690.0</ele><time>2026-04-27T11:59:25Z</time></trkpt><trkpt lat="40.6142054885971" lon="20.000234826562064"><ele>690.0</ele><time>2026-04-27T11:59:26Z</time></trkpt><trkpt lat="40.614074273346866" lon="20.00037516142755"><ele>690.0</ele><time>2026-04-27T11:59:27Z</time></trkpt><trkpt lat="40.61393863334139" lon="20.000517508369313"><ele>690.0</ele><time>2026-04-27T11:59:28Z</time></trkpt><trkpt lat="40.61378027212286" lon="20.000674329888884"><ele>691.6666666666666</ele><time>2026-04-27T11:59:29Z</time></trkpt><trkpt lat="40.61361610627444" lon="20.000843059198143"><ele>693.3333333333333</ele><time>2026-04-27T11:59:30Z</time></trkpt><trkpt lat="40.613444278265504" lon="20.0010129303252"><ele>695.0</ele><time>2026-04-27T11:59:31Z</time></trkpt><trkpt lat="40.613285400025774" lon="20.001168221356306"><ele>695.0</ele><time>2026-04-27T11:59:32Z</time></trkpt><trkpt lat="40.613105796330295" lon="20.001366217322353"><ele>695.0</ele><time>2026-04-27T11:59:33Z</time></trkpt><trkpt lat="40.612922140820615" lon="20.001548849582186"><ele>696.6666666666666</ele><time>2026-04-27T11:59:34Z</time></trkpt><trkpt lat="40.61271804242195" lon="20.00172586161659"><ele>698.3333333333334</ele><time>2026-04-27T11:59:35Z</time></trkpt><trkpt lat="40.61262426472889" lon="20.00176221339609"><ele>700.0</ele><time>2026-04-27T11:59:36Z</time></trkpt><trkpt lat="40.61243966146188" lon="20.001819595880566"><ele>700.0</ele><time>2026-04-27T11:59:37Z</time></trkpt><trkpt lat="40.61224643065934" lon="20.001857321469693"><ele>700.0</ele><time>2026-04-27T11:59:38Z</time></trkpt><trkpt lat="40.61204555913716" lon="20.00191361485834"><ele>700.0</ele><time>2026-04-27T11:59:39Z</time></trkpt><trkpt lat="40.61186959696075" lon="20.002029626543933"><ele>698.3333333333334</ele><time>2026-04-27T11:59:40Z</time></trkpt><trkpt lat="40.61172695540667" lon="20.002150430408054"><ele>696.6666666666666</ele><time>2026-04-27T11:59:41Z</time></trkpt><trkpt lat="40.61159025907552" lon="20.0022547300161"><ele>695.0</ele><time>2026-04-27T11:59:42Z</time></trkpt><trkpt lat="40.611449761444824" lon="20.002302652227375"><ele>695.0</ele><time>2026-04-27T11:59:43Z</time></trkpt><trkpt lat="40.61127070437258" lon="20.00231945115437"><ele>695.0</ele><time>2026-04-27T11:59:44Z</time></trkpt><trkpt lat="40.61109986177866" lon="20.00240308410035"><ele>695.0</ele><time>2026-04-27T11:59:45Z</time></trkpt><trkpt lat="40.61095137820644" lon="20.002471637965993"><ele>694.75</ele><time>2026-04-27T11:59:46Z</time></trkpt><trkpt lat="40.610810494064495" lon="20.002470673333956"><ele>694.5</ele><time>2026-04-27T11:59:47Z</time></trkpt><trkpt lat="40.61067111040998" lon="20.002427330879133"><ele>694.25</ele><time>2026-04-27T11:59:48Z</time></trkpt><trkpt lat="40.61056618548417" lon="20.002325042105134"><ele>694.0</ele><time>2026-04-27T11:59:49Z</time></trkpt><trkpt lat="40.61052826406555" lon="20.002176913578374"><ele>694.0</ele><time>2026-04-27T11:59:50Z</time></trkpt><trkpt lat="40.61042547805634" lon="20.00201171182648"><ele>694.0</ele><time>2026-04-27T11:59:51Z</time></trkpt><trkpt lat="40.610300142678675" lon="20.00188199448897"><ele>694.0</ele><time>2026-04-27T11:59:52Z</time></trkpt><trkpt lat="40.61012220339808" lon="20.001810684567996"><ele>692.0</ele><time>2026-04-27T11:59:53Z</time></trkpt><trkpt lat="40.60995812884191" lon="20.00175317305028"><ele>690.0</ele><time>2026-04-27T11:59:54Z</time></trkpt><trkpt lat="40.60979463482474" lon="20.00167832835885"><ele>688.0</ele><time>2026-04-27T11:59:55Z</time></trkpt><trkpt lat="40.60963864717855" lon="20.00160524363454"><ele>693.0</ele><time>2026-04-27T11:59:56.001Z</time></trkpt><trkpt lat="40.60947963745764" lon="20.001549854510444"><ele>698.0</ele><time>2026-04-27T11:59:57.001Z</time></trkpt><trkpt lat="40.60934195164817" lon="20.0015166047101"><ele>703.0</ele><time>2026-04-27T11:59:58.001Z</time></trkpt><trkpt lat="40.60921342715602" lon="20.00149366866064"><ele>708.0</ele><time>2026-04-27T11:59:59.001Z</time></trkpt><trkpt lat="40.60908137999899" lon="20.001471578387118"><ele>708.0</ele><time>2026-04-27T12:00:00.001Z</time></trkpt><trkpt lat="40.608943023736344" lon="20.00144920165505"><ele>708.0</ele><time>2026-04-27T12:00:01.001Z</time></trkpt><trkpt lat="40.60881313111728" lon="20.001427473231224"><ele>708.0</ele><time>2026-04-27T12:00:02.001Z</time></trkpt><trkpt lat="40.60869284371911" lon="20.001408224452952"><ele>708.0</ele><time>2026-04-27T12:00:03.001Z</time></trkpt><trkpt lat="40.608575844047905" lon="20.001402415146632"><ele>710.5</ele><time>2026-04-27T12:00:04.001Z</time></trkpt><trkpt lat="40.60844982197464" lon="20.00139589559505"><ele>713.0</ele><time>2026-04-27T12:00:05.001Z</time></trkpt><trkpt lat="40.60833048594978" lon="20.00139802169139"><ele>715.5</ele><time>2026-04-27T12:00:06.001Z</time></trkpt><trkpt lat="40.608207771724516" lon="20.001399618663164"><ele>718.0</ele><time>2026-04-27T12:00:07.001Z</time></trkpt><trkpt lat="40.60807605518424" lon="20.001401666591942"><ele>718.0</ele><time>2026-04-27T12:00:08.001Z</time></trkpt><trkpt lat="40.60792359279041" lon="20.001401432743474"><ele>718.0</ele><time>2026-04-27T12:00:09.001Z</time></trkpt><trkpt lat="40.6077519865324" lon="20.001393626449673"><ele>718.0</ele><time>2026-04-27T12:00:10.001Z</time></trkpt><trkpt lat="40.60758895825757" lon="20.001386175565745"><ele>719.3333333333334</ele><time>2026-04-27T12:00:11.001Z</time></trkpt><trkpt lat="40.60745955416747" lon="20.001329853185958"><ele>720.6666666666666</ele><time>2026-04-27T12:00:12.001Z</time></trkpt><trkpt lat="40.60735180020315" lon="20.001213378513423"><ele>722.0</ele><time>2026-04-27T12:00:13.001Z</time></trkpt><trkpt lat="40.60718803591274" lon="20.001094916531027"><ele>722.0</ele><time>2026-04-27T12:00:14.001Z</time></trkpt><trkpt lat="40.60702271067572" lon="20.001057357363685"><ele>722.0</ele><time>2026-04-27T12:00:15.001Z</time></trkpt><trkpt lat="40.606857694759064" lon="20.001010226154133"><ele>722.0</ele><time>2026-04-27T12:00:16.001Z</time></trkpt><trkpt lat="40.6066635471936" lon="20.000996914607303"><ele>723.3333333333333</ele><time>2026-04-27T12:00:17.001Z</time></trkpt><trkpt lat="40.60647732529818" lon="20.000991016220844"><ele>724.6666666666666</ele><time>2026-04-27T12:00:18.001Z</time></trkpt><trkpt lat="40.60627998554336" lon="20.001033010922466"><ele>726.0</ele><time>2026-04-27T12:00:19.001Z</time></trkpt><trkpt lat="40.606086852999546" lon="20.001089623612767"><ele>726.0</ele><time>2026-04-27T12:00:20.001Z</time></trkpt><trkpt lat="40.605897375460906" lon="20.001172399579037"><ele>726.0</ele><time>2026-04-27T12:00:21.001Z</time></trkpt><trkpt lat="40.60570797046134" lon="20.001241103772546"><ele>726.0</ele><time>2026-04-27T12:00:22.001Z</time></trkpt><trkpt lat="40.605532205704456" lon="20.001271226194977"><ele>726.0</ele><time>2026-04-27T12:00:23.001Z</time></trkpt><trkpt lat="40.605366123240195" lon="20.00131812496555"><ele>726.0</ele><time>2026-04-27T12:00:24.001Z</time></trkpt><trkpt lat="40.60519966554767" lon="20.001373120306422"><ele>726.0</ele><time>2026-04-27T12:00:25.001Z</time></trkpt><trkpt lat="40.60503581634537" lon="20.001425802620247"><ele>727.6666666666666</ele><time>2026-04-27T12:00:26.001Z</time></trkpt><trkpt lat="40.604885255475814" lon="20.00154946753932"><ele>729.3333333333333</ele><time>2026-04-27T12:00:27.001Z</time></trkpt><trkpt lat="40.60472801745994" lon="20.001661491228433"><ele>731.0</ele><time>2026-04-27T12:00:28.001Z</time></trkpt><trkpt lat="40.60456532429954" lon="20.00177146039425"><ele>733.0</ele><time>2026-04-27T12:00:29.001Z</time></trkpt><trkpt lat="40.60442656259615" lon="20.001895522525935"><ele>735.0</ele><time>2026-04-27T12:00:30.001Z</time></trkpt><trkpt lat="40.604295929679516" lon="20.00200778826989"><ele>737.0</ele><time>2026-04-27T12:00:31.001Z</time></trkpt><trkpt lat="40.60416047301314" lon="20.00208796260818"><ele>737.0</ele><time>2026-04-27T12:00:32Z</time></trkpt><trkpt lat="40.60400116989504" lon="20.002128245213754"><ele>737.0</ele><time>2026-04-27T12:00:33Z</time></trkpt><trkpt lat="40.60383166078161" lon="20.00211423430821"><ele>737.0</ele><time>2026-04-27T12:00:34Z</time></trkpt><trkpt lat="40.603643128829276" lon="20.002119254628845"><ele>734.3333333333333</ele><time>2026-04-27T12:00:35Z</time></trkpt><trkpt lat="40.603466833669614" lon="20.002134264066406"><ele>731.6666666666666</ele><time>2026-04-27T12:00:36Z</time></trkpt><trkpt lat="40.60329639335332" lon="20.002159227622077"><ele>729.0</ele><time>2026-04-27T12:00:37Z</time></trkpt><trkpt lat="40.603161973789845" lon="20.002160326276048"><ele>729.0</ele><time>2026-04-27T12:00:38Z</time></trkpt><trkpt lat="40.60302551426948" lon="20.002116730334755"><ele>729.0</ele><time>2026-04-27T12:00:39Z</time></trkpt><trkpt lat="40.602881211915765" lon="20.002058166261502"><ele>729.0</ele><time>2026-04-27T12:00:40Z</time></trkpt><trkpt lat="40.602742531982535" lon="20.002062341131708"><ele>729.0</ele><time>2026-04-27T12:00:41Z</time></trkpt><trkpt lat="40.602595461756614" lon="20.00209109671763"><ele>724.6666666666666</ele><time>2026-04-27T12:00:42Z</time></trkpt><trkpt lat="40.60242670207277" lon="20.00217476034697"><ele>720.3333333333333</ele><time>2026-04-27T12:00:43Z</time></trkpt><trkpt lat="40.60224610136476" lon="20.002263179752344"><ele>716.0</ele><time>2026-04-27T12:00:44Z</time></trkpt><trkpt lat="40.602061397804626" lon="20.002373463371875"><ele>715.3333333333333</ele><time>2026-04-27T12:00:45Z</time></trkpt><trkpt lat="40.601868839286055" lon="20.002512190444893"><ele>714.6666666666666</ele><time>2026-04-27T12:00:46Z</time></trkpt><trkpt lat="40.601679723188695" lon="20.00265747387761"><ele>714.0</ele><time>2026-04-27T12:00:47Z</time></trkpt><trkpt lat="40.60151280065811" lon="20.002809386434546"><ele>714.0</ele><time>2026-04-27T12:00:48Z</time></trkpt><trkpt lat="40.601361433132034" lon="20.002926257213755"><ele>714.0</ele><time>2026-04-27T12:00:49Z</time></trkpt><trkpt lat="40.60123541282327" lon="20.00301740166127"><ele>714.0</ele><time>2026-04-27T12:00:50Z</time></trkpt><trkpt lat="40.60111238944678" lon="20.00312389525603"><ele>713.5</ele><time>2026-04-27T12:00:51Z</time></trkpt><trkpt lat="40.60099816247296" lon="20.003228249427686"><ele>713.0</ele><time>2026-04-27T12:00:52Z</time></trkpt><trkpt lat="40.600893358786806" lon="20.00334319426747"><ele>712.5</ele><time>2026-04-27T12:00:53Z</time></trkpt><trkpt lat="40.60078925521656" lon="20.003446067506413"><ele>712.0</ele><time>2026-04-27T12:00:54Z</time></trkpt><trkpt lat="40.60068629501754" lon="20.003566859589576"><ele>712.0</ele><time>2026-04-27T12:00:55Z</time></trkpt><trkpt lat="40.60057664160462" lon="20.0036970986596"><ele>712.0</ele><time>2026-04-27T12:00:56Z</time></trkpt><trkpt lat="40.60046008550322" lon="20.003830752765698"><ele>712.0</ele><time>2026-04-27T12:00:57Z</time></trkpt><trkpt lat="40.60035124394945" lon="20.00395727107509"><ele>712.0</ele><time>2026-04-27T12:00:58Z</time></trkpt><trkpt lat="40.60026076170958" lon="20.004060630620984"><ele>712.1666666666667</ele><time>2026-04-27T12:00:59Z</time></trkpt><trkpt lat="40.60018726402539" lon="20.004140001138328"><ele>712.3333333333334</ele><time>2026-04-27T12:01:00Z</time></trkpt><trkpt lat="40.600129983309174" lon="20.004201068077233"><ele>712.5</ele><time>2026-04-27T12:01:01Z</time></trkpt><trkpt lat="40.60007782874294" lon="20.004248201898115"><ele>712.6666666666666</ele><time>2026-04-27T12:01:02Z</time></trkpt><trkpt lat="40.60002297932334" lon="20.004293402097936"><ele>712.8333333333333</ele><time>2026-04-27T12:01:03Z</time></trkpt><trkpt lat="40.599954651893505" lon="20.00433288252982"><ele>713.0</ele><time>2026-04-27T12:01:04Z</time></trkpt><trkpt lat="40.59986799590301" lon="20.004349309687452"><ele>713.0</ele><time>2026-04-27T12:01:05Z</time></trkpt><trkpt lat="40.59976979385936" lon="20.0043657857386"><ele>713.0</ele><time>2026-04-27T12:01:06Z</time></trkpt><trkpt lat="40.59969300773246" lon="20.004362784493704"><ele>713.0</ele><time>2026-04-27T12:01:07Z</time></trkpt><trkpt lat="40.59961097662178" lon="20.004306227954796"><ele>713.0</ele><time>2026-04-27T12:01:09Z</time></trkpt><trkpt lat="40.59954216927599" lon="20.00426658459807"><ele>713.0</ele><time>2026-04-27T12:01:11Z</time></trkpt><trkpt lat="40.59947120235717" lon="20.004249118884537"><ele>713.0</ele><time>2026-04-27T12:01:13Z</time></trkpt><trkpt lat="40.599414369777605" lon="20.004186288711903"><ele>713.0</ele><time>2026-04-27T12:01:15Z</time></trkpt><trkpt lat="40.59933478008424" lon="20.00410727959459"><ele>713.0</ele><time>2026-04-27T12:01:17Z</time></trkpt><trkpt lat="40.5992781652462" lon="20.00405322062168"><ele>713.0</ele><time>2026-04-27T12:01:19Z</time></trkpt><trkpt lat="40.59934872002036" lon="20.0042065795383"><ele>713.0</ele><time>2026-04-27T12:01:32.001Z</time></trkpt><trkpt lat="40.5994297364337" lon="20.004243391741156"><ele>713.0</ele><time>2026-04-27T12:01:33.001Z</time></trkpt><trkpt lat="40.59952326364827" lon="20.00430438515681"><ele>713.0</ele><time>2026-04-27T12:01:35.001Z</time></trkpt><trkpt lat="40.59960331711234" lon="20.004344709924116"><ele>713.0</ele><time>2026-04-27T12:01:37.001Z</time></trkpt><trkpt lat="40.59964466648279" lon="20.004447150309066"><ele>713.0</ele><time>2026-04-27T12:01:40.001Z</time></trkpt><trkpt lat="40.59963206794807" lon="20.004539708891585"><ele>713.0</ele><time>2026-04-27T12:01:42.001Z</time></trkpt><trkpt lat="40.59957495623099" lon="20.00457739472814"><ele>713.0</ele><time>2026-04-27T12:01:44.001Z</time></trkpt><trkpt lat="40.59950785062322" lon="20.004571137106023"><ele>713.0</ele><time>2026-04-27T12:01:47.001Z</time></trkpt><trkpt lat="40.59941780764383" lon="20.004608594978865"><ele>713.3333333333333</ele><time>2026-04-27T12:01:49.001Z</time></trkpt><trkpt lat="40.59935752882639" lon="20.004648648080877"><ele>713.6666666666666</ele><time>2026-04-27T12:01:50.001Z</time></trkpt><trkpt lat="40.59928892564166" lon="20.004690623702928"><ele>714.0</ele><time>2026-04-27T12:01:51.001Z</time></trkpt><trkpt lat="40.59921595486795" lon="20.00473282044297"><ele>714.3333333333334</ele><time>2026-04-27T12:01:52.001Z</time></trkpt><trkpt lat="40.599137001866666" lon="20.00477537467391"><ele>714.6666666666667</ele><time>2026-04-27T12:01:53.001Z</time></trkpt><trkpt lat="40.59904993795588" lon="20.004835768997186"><ele>715.0</ele><time>2026-04-27T12:01:54.001Z</time></trkpt><trkpt lat="40.59898080397441" lon="20.00490844363595"><ele>715.0</ele><time>2026-04-27T12:01:55.001Z</time></trkpt><trkpt lat="40.59891718239813" lon="20.00498260510647"><ele>715.0</ele><time>2026-04-27T12:01:56.001Z</time></trkpt><trkpt lat="40.598854258553175" lon="20.00505362430541"><ele>715.0</ele><time>2026-04-27T12:01:57.001Z</time></trkpt><trkpt lat="40.59876844389618" lon="20.005111815759886"><ele>715.0</ele><time>2026-04-27T12:01:58.001Z</time></trkpt><trkpt lat="40.59868195617273" lon="20.00516545465485"><ele>715.0</ele><time>2026-04-27T12:01:59.001Z</time></trkpt><trkpt lat="40.59859816327585" lon="20.005229023352417"><ele>717.0</ele><time>2026-04-27T12:02:00.001Z</time></trkpt><trkpt lat="40.598442741581" lon="20.00532681105276"><ele>719.0</ele><time>2026-04-27T12:02:02.001Z</time></trkpt><trkpt lat="40.59836494561999" lon="20.0053807782695"><ele>721.0</ele><time>2026-04-27T12:02:03.001Z</time></trkpt><trkpt lat="40.59829665745095" lon="20.005429618491828"><ele>723.0</ele><time>2026-04-27T12:02:04.001Z</time></trkpt><trkpt lat="40.59823293071514" lon="20.00546027793379"><ele>725.0</ele><time>2026-04-27T12:02:05.001Z</time></trkpt><trkpt lat="40.5981624293512" lon="20.00548219877856"><ele>725.0</ele><time>2026-04-27T12:02:06.001Z</time></trkpt><trkpt lat="40.59807191655803" lon="20.005498801466562"><ele>725.0</ele><time>2026-04-27T12:02:07.001Z</time></trkpt><trkpt lat="40.597973621239376" lon="20.005523739597116"><ele>725.0</ele><time>2026-04-27T12:02:08.001Z</time></trkpt><trkpt lat="40.59787174496227" lon="20.005547922763853"><ele>725.0</ele><time>2026-04-27T12:02:09.001Z</time></trkpt><trkpt lat="40.59779126596125" lon="20.005550105824586"><ele>725.0</ele><time>2026-04-27T12:02:10.001Z</time></trkpt><trkpt lat="40.59769623151896" lon="20.005536844988058"><ele>726.4</ele><time>2026-04-27T12:02:11.001Z</time></trkpt><trkpt lat="40.59759028772467" lon="20.005523259702677"><ele>727.8</ele><time>2026-04-27T12:02:12.001Z</time></trkpt><trkpt lat="40.59749640691169" lon="20.005504245756615"><ele>729.2</ele><time>2026-04-27T12:02:13.001Z</time></trkpt><trkpt lat="40.59742583245934" lon="20.00547717703015"><ele>730.6</ele><time>2026-04-27T12:02:14.001Z</time></trkpt><trkpt lat="40.597356977449614" lon="20.00545296681047"><ele>732.0</ele><time>2026-04-27T12:02:15.001Z</time></trkpt><trkpt lat="40.59724536423214" lon="20.00541644891571"><ele>732.0</ele><time>2026-04-27T12:02:17.001Z</time></trkpt><trkpt lat="40.5971651101399" lon="20.005370699839176"><ele>732.0</ele><time>2026-04-27T12:02:19.001Z</time></trkpt><trkpt lat="40.59710959484992" lon="20.0052445058345"><ele>732.0</ele><time>2026-04-27T12:02:21.001Z</time></trkpt><trkpt lat="40.59706593897159" lon="20.005150050762836"><ele>732.0</ele><time>2026-04-27T12:02:22.001Z</time></trkpt><trkpt lat="40.59702598654966" lon="20.005076490485486"><ele>732.0</ele><time>2026-04-27T12:02:23.001Z</time></trkpt><trkpt lat="40.59698787936109" lon="20.005009985345673"><ele>732.0</ele><time>2026-04-27T12:02:24.001Z</time></trkpt><trkpt lat="40.59694166582869" lon="20.004942039471594"><ele>731.0</ele><time>2026-04-27T12:02:25.001Z</time></trkpt><trkpt lat="40.5969038609066" lon="20.004871531916116"><ele>730.0</ele><time>2026-04-27T12:02:26.001Z</time></trkpt><trkpt lat="40.596875342113925" lon="20.004774887447656"><ele>729.0</ele><time>2026-04-27T12:02:27.001Z</time></trkpt><trkpt lat="40.59684940289231" lon="20.00467332744893"><ele>728.0</ele><time>2026-04-27T12:02:28.001Z</time></trkpt><trkpt lat="40.59683776284305" lon="20.004574404860136"><ele>727.0</ele><time>2026-04-27T12:02:29.001Z</time></trkpt><trkpt lat="40.59683584417939" lon="20.004481658716518"><ele>726.0</ele><time>2026-04-27T12:02:30.001Z</time></trkpt><trkpt lat="40.596823243295376" lon="20.00439146760828"><ele>725.0</ele><time>2026-04-27T12:02:31.001Z</time></trkpt><trkpt lat="40.59674846319142" lon="20.004256957878408"><ele>725.0</ele><time>2026-04-27T12:02:33.001Z</time></trkpt><trkpt lat="40.59671302413662" lon="20.00416955776798"><ele>725.0</ele><time>2026-04-27T12:02:34.001Z</time></trkpt><trkpt lat="40.59669447457057" lon="20.004087452785413"><ele>725.0</ele><time>2026-04-27T12:02:35.001Z</time></trkpt><trkpt lat="40.596690335803224" lon="20.00392261199809"><ele>725.0</ele><time>2026-04-27T12:02:37.001Z</time></trkpt><trkpt lat="40.5967130325373" lon="20.003778785031216"><ele>725.0</ele><time>2026-04-27T12:02:39.001Z</time></trkpt><trkpt lat="40.59676731137191" lon="20.003633368980715"><ele>723.8</ele><time>2026-04-27T12:02:41.001Z</time></trkpt><trkpt lat="40.59680891300398" lon="20.00347047666071"><ele>722.6</ele><time>2026-04-27T12:02:43.001Z</time></trkpt><trkpt lat="40.596834779620735" lon="20.00337955205408"><ele>721.4000000000001</ele><time>2026-04-27T12:02:44.001Z</time></trkpt><trkpt lat="40.59685914172101" lon="20.003291112469558"><ele>720.2</ele><time>2026-04-27T12:02:45.001Z</time></trkpt><trkpt lat="40.596875261165245" lon="20.003152459310762"><ele>719.0</ele><time>2026-04-27T12:02:47.001Z</time></trkpt><trkpt lat="40.596822620880815" lon="20.003008914888376"><ele>717.3333333333333</ele><time>2026-04-27T12:02:49.001Z</time></trkpt><trkpt lat="40.596784407685284" lon="20.002937183188617"><ele>715.6666666666666</ele><time>2026-04-27T12:02:50.001Z</time></trkpt><trkpt lat="40.596751916819635" lon="20.00285855643483"><ele>714.0</ele><time>2026-04-27T12:02:51.001Z</time></trkpt><trkpt lat="40.59671868303453" lon="20.002770192936385"><ele>712.3333333333334</ele><time>2026-04-27T12:02:52.001Z</time></trkpt><trkpt lat="40.596691493646674" lon="20.002695046378786"><ele>710.6666666666667</ele><time>2026-04-27T12:02:53.001Z</time></trkpt><trkpt lat="40.59666364422109" lon="20.00261807881887"><ele>709.0</ele><time>2026-04-27T12:02:54.001Z</time></trkpt><trkpt lat="40.59660296100813" lon="20.00247894014721"><ele>708.1666666666667</ele><time>2026-04-27T12:02:56.001Z</time></trkpt><trkpt lat="40.596533619824655" lon="20.002370057725425"><ele>707.3333333333334</ele><time>2026-04-27T12:02:58.001Z</time></trkpt><trkpt lat="40.596508217548184" lon="20.002255108096225"><ele>706.5</ele><time>2026-04-27T12:03:01.001Z</time></trkpt><trkpt lat="40.59650491374229" lon="20.002149861878824"><ele>705.6666666666666</ele><time>2026-04-27T12:03:04.001Z</time></trkpt><trkpt lat="40.596490607673786" lon="20.002047788085314"><ele>704.8333333333333</ele><time>2026-04-27T12:03:08.001Z</time></trkpt><trkpt lat="40.59640216186798" lon="20.002070208729496"><ele>704.0</ele><time>2026-04-27T12:03:13.001Z</time></trkpt><trkpt lat="40.596286997180016" lon="20.002091122712194"><ele>704.0</ele><time>2026-04-27T12:03:15.001Z</time></trkpt><trkpt lat="40.59620544390941" lon="20.00210720912532"><ele>704.0</ele><time>2026-04-27T12:03:16.001Z</time></trkpt><trkpt lat="40.59611594518614" lon="20.002124709732115"><ele>704.0</ele><time>2026-04-27T12:03:17.001Z</time></trkpt><trkpt lat="40.59601680978294" lon="20.002138432752698"><ele>704.0</ele><time>2026-04-27T12:03:18.001Z</time></trkpt><trkpt lat="40.59590606827536" lon="20.002143181052375"><ele>704.0</ele><time>2026-04-27T12:03:19.001Z</time></trkpt><trkpt lat="40.59578400373719" lon="20.00215003446363"><ele>703.75</ele><time>2026-04-27T12:03:20.001Z</time></trkpt><trkpt lat="40.595641760869306" lon="20.002135796855246"><ele>703.5</ele><time>2026-04-27T12:03:21.001Z</time></trkpt><trkpt lat="40.595501715322094" lon="20.002117649244255"><ele>703.25</ele><time>2026-04-27T12:03:22.001Z</time></trkpt><trkpt lat="40.59537382728192" lon="20.002093352601037"><ele>703.0</ele><time>2026-04-27T12:03:23.001Z</time></trkpt><trkpt lat="40.595253217683904" lon="20.00206102319684"><ele>703.0</ele><time>2026-04-27T12:03:24.001Z</time></trkpt><trkpt lat="40.595153253480255" lon="20.001989987359416"><ele>703.0</ele><time>2026-04-27T12:03:25.001Z</time></trkpt><trkpt lat="40.59506502693134" lon="20.001884525213736"><ele>703.0</ele><time>2026-04-27T12:03:26.001Z</time></trkpt><trkpt lat="40.59496849362146" lon="20.00175534824177"><ele>703.0</ele><time>2026-04-27T12:03:27.001Z</time></trkpt><trkpt lat="40.59487709546091" lon="20.001607912288147"><ele>703.25</ele><time>2026-04-27T12:03:28.001Z</time></trkpt><trkpt lat="40.594795664808935" lon="20.001471575273687"><ele>703.5</ele><time>2026-04-27T12:03:29.001Z</time></trkpt><trkpt lat="40.59471515962672" lon="20.001346586168847"><ele>703.75</ele><time>2026-04-27T12:03:30.001Z</time></trkpt><trkpt lat="40.594634432281" lon="20.00124001412017"><ele>704.0</ele><time>2026-04-27T12:03:31.001Z</time></trkpt><trkpt lat="40.5945289051925" lon="20.001145906786387"><ele>700.3333333333333</ele><time>2026-04-27T12:03:32.001Z</time></trkpt><trkpt lat="40.594382908136346" lon="20.00109600157451"><ele>696.6666666666666</ele><time>2026-04-27T12:03:33.001Z</time></trkpt><trkpt lat="40.59422637377324" lon="20.001160475926433"><ele>693.0</ele><time>2026-04-27T12:03:34.001Z</time></trkpt><trkpt lat="40.59408513208461" lon="20.001134124329692"><ele>693.0</ele><time>2026-04-27T12:03:35.001Z</time></trkpt><trkpt lat="40.593958888435004" lon="20.001087390680848"><ele>693.0</ele><time>2026-04-27T12:03:36.001Z</time></trkpt><trkpt lat="40.593839131123715" lon="20.00101778309915"><ele>693.0</ele><time>2026-04-27T12:03:37.001Z</time></trkpt><trkpt lat="40.593760173015646" lon="20.000863609222073"><ele>693.0</ele><time>2026-04-27T12:03:38.001Z</time></trkpt><trkpt lat="40.59363986202766" lon="20.00076712964204"><ele>692.5</ele><time>2026-04-27T12:03:39.001Z</time></trkpt><trkpt lat="40.59352835138583" lon="20.000731618569056"><ele>692.0</ele><time>2026-04-27T12:03:40.001Z</time></trkpt><trkpt lat="40.59335618671469" lon="20.000807865396393"><ele>691.5</ele><time>2026-04-27T12:03:41.001Z</time></trkpt><trkpt lat="40.59323425915702" lon="20.00087939873303"><ele>691.0</ele><time>2026-04-27T12:03:42.001Z</time></trkpt><trkpt lat="40.593123140254136" lon="20.000976495592614"><ele>691.0</ele><time>2026-04-27T12:03:43.001Z</time></trkpt><trkpt lat="40.59300316796064" lon="20.001061081091347"><ele>691.0</ele><time>2026-04-27T12:03:44.001Z</time></trkpt><trkpt lat="40.592877257369615" lon="20.001147243188218"><ele>691.0</ele><time>2026-04-27T12:03:45.001Z</time></trkpt><trkpt lat="40.592748127755" lon="20.001222322701185"><ele>691.0</ele><time>2026-04-27T12:03:46.001Z</time></trkpt><trkpt lat="40.59260273254326" lon="20.001300313754975"><ele>687.6666666666667</ele><time>2026-04-27T12:03:47.001Z</time></trkpt><trkpt lat="40.59246005266145" lon="20.001386211846434"><ele>684.3333333333334</ele><time>2026-04-27T12:03:48.001Z</time></trkpt><trkpt lat="40.59231023927136" lon="20.001483638414243"><ele>681.0</ele><time>2026-04-27T12:03:49.001Z</time></trkpt><trkpt lat="40.5921555294302" lon="20.001596343626062"><ele>683.3333333333334</ele><time>2026-04-27T12:03:50.001Z</time></trkpt><trkpt lat="40.5919982552729" lon="20.001711854354703"><ele>685.6666666666667</ele><time>2026-04-27T12:03:51.001Z</time></trkpt><trkpt lat="40.59182226492156" lon="20.001800836657022"><ele>688.0</ele><time>2026-04-27T12:03:52.001Z</time></trkpt><trkpt lat="40.591657453985185" lon="20.001877234468946"><ele>688.0</ele><time>2026-04-27T12:03:53.001Z</time></trkpt><trkpt lat="40.59149779510195" lon="20.00197321254354"><ele>688.0</ele><time>2026-04-27T12:03:54.001Z</time></trkpt><trkpt lat="40.591362963060604" lon="20.002097745759716"><ele>688.0</ele><time>2026-04-27T12:03:55.001Z</time></trkpt><trkpt lat="40.59123221756804" lon="20.002230237774306"><ele>691.0</ele><time>2026-04-27T12:03:56.001Z</time></trkpt><trkpt lat="40.59109910903702" lon="20.002365709163612"><ele>694.0</ele><time>2026-04-27T12:03:57.001Z</time></trkpt><trkpt lat="40.59096259091907" lon="20.002507299276278"><ele>697.0</ele><time>2026-04-27T12:03:58.001Z</time></trkpt><trkpt lat="40.59082280911667" lon="20.002653295978536"><ele>697.0</ele><time>2026-04-27T12:03:59.001Z</time></trkpt><trkpt lat="40.59068224421881" lon="20.00279946226822"><ele>697.0</ele><time>2026-04-27T12:04:00.001Z</time></trkpt><trkpt lat="40.59055429446351" lon="20.00293247393502"><ele>697.0</ele><time>2026-04-27T12:04:01.001Z</time></trkpt><trkpt lat="40.590423357557015" lon="20.003024589310943"><ele>692.0</ele><time>2026-04-27T12:04:02.001Z</time></trkpt><trkpt lat="40.59028590623896" lon="20.003094918655698"><ele>687.0</ele><time>2026-04-27T12:04:03.001Z</time></trkpt><trkpt lat="40.59013500082131" lon="20.003154199691647"><ele>682.0</ele><time>2026-04-27T12:04:04.001Z</time></trkpt><trkpt lat="40.5899785365108" lon="20.00320758479073"><ele>682.0</ele><time>2026-04-27T12:04:05.001Z</time></trkpt><trkpt lat="40.58981897770878" lon="20.003250886242228"><ele>682.0</ele><time>2026-04-27T12:04:06.001Z</time></trkpt><trkpt lat="40.589646567111586" lon="20.00328264174571"><ele>682.0</ele><time>2026-04-27T12:04:07.001Z</time></trkpt><trkpt lat="40.589472256241976" lon="20.003307726895518"><ele>680.3333333333334</ele><time>2026-04-27T12:04:08.001Z</time></trkpt><trkpt lat="40.58931960568805" lon="20.00331754316409"><ele>678.6666666666666</ele><time>2026-04-27T12:04:09.001Z</time></trkpt><trkpt lat="40.58915575207482" lon="20.003336899200363"><ele>677.0</ele><time>2026-04-27T12:04:10.001Z</time></trkpt><trkpt lat="40.58900451000505" lon="20.003396574397026"><ele>680.6666666666666</ele><time>2026-04-27T12:04:11.001Z</time></trkpt><trkpt lat="40.58885352698954" lon="20.003497720428715"><ele>684.3333333333334</ele><time>2026-04-27T12:04:12.001Z</time></trkpt><trkpt lat="40.58873221265458" lon="20.00363778547841"><ele>688.0</ele><time>2026-04-27T12:04:13.001Z</time></trkpt><trkpt lat="40.58862870363818" lon="20.003787670185595"><ele>688.0</ele><time>2026-04-27T12:04:14.001Z</time></trkpt><trkpt lat="40.58853816321589" lon="20.003956976258205"><ele>688.0</ele><time>2026-04-27T12:04:15.001Z</time></trkpt><trkpt lat="40.5884632676328" lon="20.00414086969209"><ele>688.0</ele><time>2026-04-27T12:04:16.001Z</time></trkpt><trkpt lat="40.588401996880144" lon="20.00429410486474"><ele>688.0</ele><time>2026-04-27T12:04:17.001Z</time></trkpt><trkpt lat="40.58834476540841" lon="20.004435898909946"><ele>693.75</ele><time>2026-04-27T12:04:18.001Z</time></trkpt><trkpt lat="40.58827604791776" lon="20.004581048942406"><ele>699.5</ele><time>2026-04-27T12:04:19.001Z</time></trkpt><trkpt lat="40.58815673819531" lon="20.00467062250764"><ele>705.25</ele><time>2026-04-27T12:04:20.001Z</time></trkpt><trkpt lat="40.58801716359788" lon="20.004654198036967"><ele>711.0</ele><time>2026-04-27T12:04:21.001Z</time></trkpt><trkpt lat="40.587871829401486" lon="20.00466306438815"><ele>705.0</ele><time>2026-04-27T12:04:22.001Z</time></trkpt><trkpt lat="40.58770218893967" lon="20.00468035820083"><ele>699.0</ele><time>2026-04-27T12:04:23.001Z</time></trkpt><trkpt lat="40.58752876712208" lon="20.004716780417116"><ele>693.0</ele><time>2026-04-27T12:04:24.001Z</time></trkpt><trkpt lat="40.5873420871367" lon="20.004765893332827"><ele>693.0</ele><time>2026-04-27T12:04:25.001Z</time></trkpt><trkpt lat="40.58715175711707" lon="20.004827073156797"><ele>693.0</ele><time>2026-04-27T12:04:26.001Z</time></trkpt><trkpt lat="40.586984288954305" lon="20.0048974055777"><ele>693.0</ele><time>2026-04-27T12:04:27.001Z</time></trkpt><trkpt lat="40.58681143602986" lon="20.004982642994587"><ele>699.0</ele><time>2026-04-27T12:04:28.001Z</time></trkpt><trkpt lat="40.58664032645061" lon="20.005083364609046"><ele>705.0</ele><time>2026-04-27T12:04:29.001Z</time></trkpt><trkpt lat="40.58647101653391" lon="20.00519153163948"><ele>711.0</ele><time>2026-04-27T12:04:30.001Z</time></trkpt><trkpt lat="40.586297458793375" lon="20.005306062317743"><ele>708.0</ele><time>2026-04-27T12:04:31.001Z</time></trkpt><trkpt lat="40.586129064865204" lon="20.005417345653232"><ele>705.0</ele><time>2026-04-27T12:04:32.001Z</time></trkpt><trkpt lat="40.585983607672944" lon="20.00553256223044"><ele>702.0</ele><time>2026-04-27T12:04:33.001Z</time></trkpt><trkpt lat="40.58583719697367" lon="20.005623970159032"><ele>702.0</ele><time>2026-04-27T12:04:34.001Z</time></trkpt><trkpt lat="40.585669626410166" lon="20.00566629411873"><ele>702.0</ele><time>2026-04-27T12:04:35.001Z</time></trkpt><trkpt lat="40.5855095442881" lon="20.005747489602516"><ele>702.0</ele><time>2026-04-27T12:04:36.001Z</time></trkpt><trkpt lat="40.58534809906011" lon="20.005833972998254"><ele>705.3333333333334</ele><time>2026-04-27T12:04:37.001Z</time></trkpt><trkpt lat="40.585190192127406" lon="20.00592878204795"><ele>708.6666666666667</ele><time>2026-04-27T12:04:38.001Z</time></trkpt><trkpt lat="40.58503060794639" lon="20.006039815767455"><ele>712.0</ele><time>2026-04-27T12:04:39.001Z</time></trkpt><trkpt lat="40.58487647581138" lon="20.00617462699326"><ele>712.0</ele><time>2026-04-27T12:04:40.001Z</time></trkpt><trkpt lat="40.58472742897618" lon="20.006315627526533"><ele>712.0</ele><time>2026-04-27T12:04:41.001Z</time></trkpt><trkpt lat="40.584596688876786" lon="20.00644350273333"><ele>712.0</ele><time>2026-04-27T12:04:42.001Z</time></trkpt><trkpt lat="40.584467231953546" lon="20.00657825610096"><ele>712.0</ele><time>2026-04-27T12:04:43.001Z</time></trkpt><trkpt lat="40.58434146586686" lon="20.00671212049418"><ele>712.0</ele><time>2026-04-27T12:04:44.001Z</time></trkpt><trkpt lat="40.58422696420221" lon="20.006841634172606"><ele>712.0</ele><time>2026-04-27T12:04:45.001Z</time></trkpt><trkpt lat="40.58412966133248" lon="20.00696119422165"><ele>712.0</ele><time>2026-04-27T12:04:46.001Z</time></trkpt><trkpt lat="40.58403235533082" lon="20.007083364968025"><ele>712.0</ele><time>2026-04-27T12:04:47.001Z</time></trkpt><trkpt lat="40.58397059012291" lon="20.007269538427618"><ele>712.0</ele><time>2026-04-27T12:04:48.001Z</time></trkpt><trkpt lat="40.58394250181506" lon="20.007467961482558"><ele>712.0</ele><time>2026-04-27T12:04:49.001Z</time></trkpt><trkpt lat="40.58392106525309" lon="20.00762890204622"><ele>712.0</ele><time>2026-04-27T12:04:50.001Z</time></trkpt><trkpt lat="40.58395733737275" lon="20.00776756498503"><ele>711.5</ele><time>2026-04-27T12:04:51.001Z</time></trkpt><trkpt lat="40.58391856299529" lon="20.007854554029628"><ele>711.0</ele><time>2026-04-27T12:04:52.001Z</time></trkpt><trkpt lat="40.58385380223528" lon="20.00790750996997"><ele>710.5</ele><time>2026-04-27T12:04:53.001Z</time></trkpt><trkpt lat="40.58376518443245" lon="20.007912830659148"><ele>710.0</ele><time>2026-04-27T12:04:54.001Z</time></trkpt><trkpt lat="40.58368729768672" lon="20.00785172170875"><ele>709.5</ele><time>2026-04-27T12:04:55.001Z</time></trkpt><trkpt lat="40.583589515813955" lon="20.00782047286564"><ele>709.0</ele><time>2026-04-27T12:04:56.001Z</time></trkpt><trkpt lat="40.583476904529086" lon="20.007804003216407"><ele>709.0</ele><time>2026-04-27T12:04:57.001Z</time></trkpt><trkpt lat="40.58335618296943" lon="20.007803970076704"><ele>709.0</ele><time>2026-04-27T12:04:58.001Z</time></trkpt><trkpt lat="40.58322889272836" lon="20.007834244617374"><ele>709.0</ele><time>2026-04-27T12:04:59.001Z</time></trkpt><trkpt lat="40.58310219077275" lon="20.007891565676367"><ele>709.0</ele><time>2026-04-27T12:05:00.001Z</time></trkpt><trkpt lat="40.58298020588655" lon="20.007941338207416"><ele>709.0</ele><time>2026-04-27T12:05:01.001Z</time></trkpt><trkpt lat="40.582856296373826" lon="20.007998943331458"><ele>709.0</ele><time>2026-04-27T12:05:02.001Z</time></trkpt><trkpt lat="40.58272895378917" lon="20.008060196135144"><ele>709.0</ele><time>2026-04-27T12:05:03.001Z</time></trkpt><trkpt lat="40.58260430418293" lon="20.008141254441764"><ele>709.0</ele><time>2026-04-27T12:05:04.001Z</time></trkpt><trkpt lat="40.58248165925957" lon="20.008233829599643"><ele>709.5</ele><time>2026-04-27T12:05:05.001Z</time></trkpt><trkpt lat="40.582362610278295" lon="20.008326905186145"><ele>710.0</ele><time>2026-04-27T12:05:06.001Z</time></trkpt><trkpt lat="40.58224190327999" lon="20.008413238315573"><ele>710.5</ele><time>2026-04-27T12:05:07.001Z</time></trkpt><trkpt lat="40.58211363258719" lon="20.00849930717001"><ele>711.0</ele><time>2026-04-27T12:05:08.001Z</time></trkpt><trkpt lat="40.58198682100992" lon="20.008583902349034"><ele>711.0</ele><time>2026-04-27T12:05:09.001Z</time></trkpt><trkpt lat="40.58186152646581" lon="20.008663003993778"><ele>711.0</ele><time>2026-04-27T12:05:10.001Z</time></trkpt><trkpt lat="40.58173505516925" lon="20.008742848551723"><ele>711.0</ele><time>2026-04-27T12:05:11.001Z</time></trkpt><trkpt lat="40.58161745833049" lon="20.0088170903977"><ele>711.0</ele><time>2026-04-27T12:05:12.001Z</time></trkpt><trkpt lat="40.581499428152284" lon="20.00889935119239"><ele>711.0</ele><time>2026-04-27T12:05:13.001Z</time></trkpt><trkpt lat="40.58137788282421" lon="20.00897217453734"><ele>711.0</ele><time>2026-04-27T12:05:14.001Z</time></trkpt><trkpt lat="40.5812446972042" lon="20.00903524146647"><ele>711.0</ele><time>2026-04-27T12:05:15.001Z</time></trkpt><trkpt lat="40.58110599463186" lon="20.00912488981193"><ele>711.0</ele><time>2026-04-27T12:05:16.001Z</time></trkpt><trkpt lat="40.58097422469809" lon="20.009219181725623"><ele>714.0</ele><time>2026-04-27T12:05:17.001Z</time></trkpt><trkpt lat="40.58084056441778" lon="20.009319005887363"><ele>717.0</ele><time>2026-04-27T12:05:18.001Z</time></trkpt><trkpt lat="40.580715320532704" lon="20.00940783211876"><ele>720.0</ele><time>2026-04-27T12:05:19.001Z</time></trkpt><trkpt lat="40.58059668578799" lon="20.009474317783482"><ele>723.0</ele><time>2026-04-27T12:05:20.001Z</time></trkpt><trkpt lat="40.58049285623873" lon="20.00950012452403"><ele>723.0</ele><time>2026-04-27T12:05:21.001Z</time></trkpt><trkpt lat="40.58037344123712" lon="20.009540408943202"><ele>723.0</ele><time>2026-04-27T12:05:22.001Z</time></trkpt><trkpt lat="40.58024638403525" lon="20.009589964230795"><ele>723.0</ele><time>2026-04-27T12:05:23.001Z</time></trkpt><trkpt lat="40.58011240414621" lon="20.00965253021467"><ele>723.0</ele><time>2026-04-27T12:05:24.001Z</time></trkpt><trkpt lat="40.58001077003838" lon="20.009714622127714"><ele>720.8</ele><time>2026-04-27T12:05:25.001Z</time></trkpt><trkpt lat="40.57991487172832" lon="20.00977320985071"><ele>718.5999999999999</ele><time>2026-04-27T12:05:26.001Z</time></trkpt><trkpt lat="40.57982715277205" lon="20.009820043706362"><ele>716.4000000000001</ele><time>2026-04-27T12:05:27.001Z</time></trkpt><trkpt lat="40.57972343622625" lon="20.0098682502271"><ele>714.2</ele><time>2026-04-27T12:05:28.001Z</time></trkpt><trkpt lat="40.57961151653689" lon="20.00992026950766"><ele>712.0</ele><time>2026-04-27T12:05:29.001Z</time></trkpt><trkpt lat="40.57951259744956" lon="20.009966246256997"><ele>713.8</ele><time>2026-04-27T12:05:30.001Z</time></trkpt><trkpt lat="40.57942726396671" lon="20.010005908533486"><ele>715.6</ele><time>2026-04-27T12:05:31.001Z</time></trkpt><trkpt lat="40.57935282774908" lon="20.01004050580191"><ele>717.4</ele><time>2026-04-27T12:05:32.001Z</time></trkpt><trkpt lat="40.57925357967139" lon="20.01011184937256"><ele>719.1999999999999</ele><time>2026-04-27T12:05:34.001Z</time></trkpt><trkpt lat="40.57917823767486" lon="20.010169601530816"><ele>721.0</ele><time>2026-04-27T12:05:36.001Z</time></trkpt><trkpt lat="40.57910878967528" lon="20.010248171174123"><ele>721.0</ele><time>2026-04-27T12:05:38.001Z</time></trkpt><trkpt lat="40.57904734455918" lon="20.010321037646893"><ele>721.0</ele><time>2026-04-27T12:05:40.001Z</time></trkpt><trkpt lat="40.57901359675001" lon="20.010400264016717"><ele>721.0</ele><time>2026-04-27T12:05:42.001Z</time></trkpt><trkpt lat="40.578980567294266" lon="20.010490804898925"><ele>721.0</ele><time>2026-04-27T12:05:45.001Z</time></trkpt><trkpt lat="40.57893632573732" lon="20.010625876583944"><ele>721.0</ele><time>2026-04-27T12:05:48.001Z</time></trkpt><trkpt lat="40.578872972961726" lon="20.01072263064441"><ele>721.0</ele><time>2026-04-27T12:05:50.001Z</time></trkpt><trkpt lat="40.57882397936537" lon="20.01079396487855"><ele>721.0</ele><time>2026-04-27T12:05:52.001Z</time></trkpt><trkpt lat="40.57874570290621" lon="20.0108185035689"><ele>721.0</ele><time>2026-04-27T12:06:44.001Z</time></trkpt><trkpt lat="40.578673993762095" lon="20.010833120568194"><ele>721.0</ele><time>2026-04-27T12:06:46.001Z</time></trkpt><trkpt lat="40.578548804706664" lon="20.010819157320263"><ele>721.0</ele><time>2026-04-27T12:06:48.001Z</time></trkpt><trkpt lat="40.57847203198252" lon="20.010812713895234"><ele>721.0</ele><time>2026-04-27T12:06:49.001Z</time></trkpt><trkpt lat="40.57837951960772" lon="20.01087849053396"><ele>722.0</ele><time>2026-04-27T12:06:50.001Z</time></trkpt><trkpt lat="40.57828638929285" lon="20.010885084766432"><ele>723.0</ele><time>2026-04-27T12:06:51.001Z</time></trkpt><trkpt lat="40.57819815545385" lon="20.01088804195624"><ele>724.0</ele><time>2026-04-27T12:06:52.001Z</time></trkpt><trkpt lat="40.57812464898021" lon="20.010887976276372"><ele>725.0</ele><time>2026-04-27T12:06:53.001Z</time></trkpt><trkpt lat="40.57805392055339" lon="20.010821799598574"><ele>726.0</ele><time>2026-04-27T12:06:54.001Z</time></trkpt><trkpt lat="40.577963328319655" lon="20.010827463378266"><ele>727.0</ele><time>2026-04-27T12:06:56.001Z</time></trkpt><trkpt lat="40.5779010828545" lon="20.010861941362798"><ele>725.4000000000001</ele><time>2026-04-27T12:07:43Z</time></trkpt><trkpt lat="40.57779137488291" lon="20.0108970258115"><ele>723.8000000000001</ele><time>2026-04-27T12:08:12Z</time></trkpt><trkpt lat="40.57769397371038" lon="20.010946831802123"><ele>722.2</ele><time>2026-04-27T12:08:14Z</time></trkpt><trkpt lat="40.57759002844403" lon="20.011009618865703"><ele>720.6</ele><time>2026-04-27T12:08:16Z</time></trkpt><trkpt lat="40.57749241537674" lon="20.011073612767223"><ele>719.0</ele><time>2026-04-27T12:08:18Z</time></trkpt><trkpt lat="40.577443628276725" lon="20.011168823380316"><ele>719.0</ele><time>2026-04-27T12:08:19Z</time></trkpt><trkpt lat="40.57737211972814" lon="20.011281499843054"><ele>719.0</ele><time>2026-04-27T12:08:21Z</time></trkpt><trkpt lat="40.57726604325573" lon="20.011368373272425"><ele>719.0</ele><time>2026-04-27T12:08:23Z</time></trkpt><trkpt lat="40.57715306602335" lon="20.01141974069348"><ele>719.0</ele><time>2026-04-27T12:08:25.001Z</time></trkpt><trkpt lat="40.577046814551714" lon="20.011471146773246"><ele>714.6666666666666</ele><time>2026-04-27T12:08:26.001Z</time></trkpt><trkpt lat="40.57691938905324" lon="20.011504524735294"><ele>710.3333333333334</ele><time>2026-04-27T12:08:27.001Z</time></trkpt><trkpt lat="40.57675440820162" lon="20.011553468879644"><ele>706.0</ele><time>2026-04-27T12:08:28.001Z</time></trkpt><trkpt lat="40.576551057161055" lon="20.011583652069582"><ele>706.0</ele><time>2026-04-27T12:08:29.001Z</time></trkpt><trkpt lat="40.57630417111297" lon="20.011607435294874"><ele>706.0</ele><time>2026-04-27T12:08:30.001Z</time></trkpt><trkpt lat="40.576102409249565" lon="20.011670355149082"><ele>711.0</ele><time>2026-04-27T12:08:31.001Z</time></trkpt><trkpt lat="40.57593454268348" lon="20.011732503980532"><ele>716.0</ele><time>2026-04-27T12:08:32.001Z</time></trkpt><trkpt lat="40.57577749182967" lon="20.01178041553553"><ele>721.0</ele><time>2026-04-27T12:08:33.001Z</time></trkpt><trkpt lat="40.57563400537673" lon="20.01180974816169"><ele>721.0</ele><time>2026-04-27T12:08:34.001Z</time></trkpt><trkpt lat="40.57549833195396" lon="20.011828641934258"><ele>721.0</ele><time>2026-04-27T12:08:35.001Z</time></trkpt><trkpt lat="40.575372281841354" lon="20.011865901550408"><ele>721.0</ele><time>2026-04-27T12:08:36.001Z</time></trkpt><trkpt lat="40.5752399378318" lon="20.01195772392178"><ele>721.0</ele><time>2026-04-27T12:08:37.001Z</time></trkpt><trkpt lat="40.5751524480739" lon="20.012142479886126"><ele>722.75</ele><time>2026-04-27T12:08:38.001Z</time></trkpt><trkpt lat="40.57507091566146" lon="20.01229784373698"><ele>724.5</ele><time>2026-04-27T12:08:39.001Z</time></trkpt><trkpt lat="40.574998880836276" lon="20.01244696539438"><ele>726.25</ele><time>2026-04-27T12:08:40.001Z</time></trkpt><trkpt lat="40.57493693122806" lon="20.012577054064003"><ele>728.0</ele><time>2026-04-27T12:08:41.001Z</time></trkpt><trkpt lat="40.57489029586203" lon="20.012689934240356"><ele>728.0</ele><time>2026-04-27T12:08:42.001Z</time></trkpt><trkpt lat="40.57480547465227" lon="20.012762847680268"><ele>728.0</ele><time>2026-04-27T12:08:43.001Z</time></trkpt><trkpt lat="40.574693917148586" lon="20.012742709424888"><ele>728.0</ele><time>2026-04-27T12:08:44.001Z</time></trkpt><trkpt lat="40.57456713723995" lon="20.01274051153883"><ele>728.0</ele><time>2026-04-27T12:08:45.001Z</time></trkpt><trkpt lat="40.57444685340187" lon="20.012786105883457"><ele>721.0</ele><time>2026-04-27T12:08:46.001Z</time></trkpt><trkpt lat="40.574307694591106" lon="20.012856878494723"><ele>714.0</ele><time>2026-04-27T12:08:47.001Z</time></trkpt><trkpt lat="40.574164361670746" lon="20.01296572944992"><ele>707.0</ele><time>2026-04-27T12:08:48.001Z</time></trkpt><trkpt lat="40.57401664478917" lon="20.013088611407966"><ele>707.0</ele><time>2026-04-27T12:08:49.001Z</time></trkpt><trkpt lat="40.57387648265377" lon="20.013253876445905"><ele>707.0</ele><time>2026-04-27T12:08:50.001Z</time></trkpt><trkpt lat="40.57373589115871" lon="20.01340203181246"><ele>707.0</ele><time>2026-04-27T12:08:51.001Z</time></trkpt><trkpt lat="40.57356797520994" lon="20.013476172944483"><ele>709.3333333333333</ele><time>2026-04-27T12:08:52.001Z</time></trkpt><trkpt lat="40.573382387144775" lon="20.013564935648432"><ele>711.6666666666666</ele><time>2026-04-27T12:08:53.001Z</time></trkpt><trkpt lat="40.57321150395685" lon="20.013683729657117"><ele>714.0</ele><time>2026-04-27T12:08:54.001Z</time></trkpt><trkpt lat="40.57304469622571" lon="20.013807576562918"><ele>714.0</ele><time>2026-04-27T12:08:55.001Z</time></trkpt><trkpt lat="40.57289428338366" lon="20.01391924958613"><ele>714.0</ele><time>2026-04-27T12:08:56.001Z</time></trkpt><trkpt lat="40.57274485945882" lon="20.014030720794878"><ele>714.0</ele><time>2026-04-27T12:08:57.001Z</time></trkpt><trkpt lat="40.5725954843681" lon="20.014141652718262"><ele>719.3333333333334</ele><time>2026-04-27T12:08:58.001Z</time></trkpt><trkpt lat="40.57244396964396" lon="20.014228267985093"><ele>724.6666666666667</ele><time>2026-04-27T12:08:59.001Z</time></trkpt><trkpt lat="40.57228604866872" lon="20.014303188897472"><ele>730.0</ele><time>2026-04-27T12:09:00.001Z</time></trkpt><trkpt lat="40.572146618136614" lon="20.014368839762145"><ele>724.3333333333334</ele><time>2026-04-27T12:09:01.001Z</time></trkpt><trkpt lat="40.5720141115267" lon="20.01446620753734"><ele>718.6666666666666</ele><time>2026-04-27T12:09:02.001Z</time></trkpt><trkpt lat="40.571877434681554" lon="20.014566996590673"><ele>713.0</ele><time>2026-04-27T12:09:03.001Z</time></trkpt><trkpt lat="40.57173921310404" lon="20.01472080583874"><ele>713.0</ele><time>2026-04-27T12:09:04Z</time></trkpt><trkpt lat="40.57159767432827" lon="20.014866335228106"><ele>713.0</ele><time>2026-04-27T12:09:05Z</time></trkpt><trkpt lat="40.571452388643635" lon="20.015018034848627"><ele>713.0</ele><time>2026-04-27T12:09:06Z</time></trkpt><trkpt lat="40.57132201807034" lon="20.015166873902317"><ele>713.3333333333333</ele><time>2026-04-27T12:09:07Z</time></trkpt><trkpt lat="40.57120038629028" lon="20.015317274141253"><ele>713.6666666666666</ele><time>2026-04-27T12:09:08Z</time></trkpt><trkpt lat="40.57108250505176" lon="20.015492044740835"><ele>714.0</ele><time>2026-04-27T12:09:09Z</time></trkpt><trkpt lat="40.570972339318814" lon="20.015690482732676"><ele>719.6666666666666</ele><time>2026-04-27T12:09:10Z</time></trkpt><trkpt lat="40.57087935560392" lon="20.01590480398618"><ele>725.3333333333333</ele><time>2026-04-27T12:09:11Z</time></trkpt><trkpt lat="40.57077643583181" lon="20.01610604522939"><ele>731.0</ele><time>2026-04-27T12:09:12Z</time></trkpt><trkpt lat="40.57066804076774" lon="20.01626244576089"><ele>731.0</ele><time>2026-04-27T12:09:13Z</time></trkpt><trkpt lat="40.57056297873655" lon="20.01641015205771"><ele>731.0</ele><time>2026-04-27T12:09:14Z</time></trkpt><trkpt lat="40.570452628638776" lon="20.016524429031524"><ele>731.0</ele><time>2026-04-27T12:09:15Z</time></trkpt><trkpt lat="40.57033645056947" lon="20.016644189285003"><ele>731.0</ele><time>2026-04-27T12:09:16Z</time></trkpt><trkpt lat="40.57021123792152" lon="20.016746674525294"><ele>730.25</ele><time>2026-04-27T12:09:17Z</time></trkpt><trkpt lat="40.57008131263408" lon="20.01682376716485"><ele>729.5</ele><time>2026-04-27T12:09:18Z</time></trkpt><trkpt lat="40.569956951156406" lon="20.016851786904898"><ele>728.75</ele><time>2026-04-27T12:09:19Z</time></trkpt><trkpt lat="40.56984159374518" lon="20.016910016670032"><ele>728.0</ele><time>2026-04-27T12:09:20Z</time></trkpt><trkpt lat="40.56973030141451" lon="20.016966193281863"><ele>728.0</ele><time>2026-04-27T12:09:21Z</time></trkpt><trkpt lat="40.56962557986894" lon="20.017026478022597"><ele>728.0</ele><time>2026-04-27T12:09:22Z</time></trkpt><trkpt lat="40.56953605742256" lon="20.01708157505035"><ele>728.0</ele><time>2026-04-27T12:09:23Z</time></trkpt><trkpt lat="40.569457836941865" lon="20.017194179594696"><ele>728.0</ele><time>2026-04-27T12:09:24Z</time></trkpt><trkpt lat="40.569399492398034" lon="20.01731138054114"><ele>728.0</ele><time>2026-04-27T12:09:25Z</time></trkpt><trkpt lat="40.569362247563596" lon="20.017454957321526"><ele>727.8</ele><time>2026-04-27T12:09:26Z</time></trkpt><trkpt lat="40.569358955081604" lon="20.017606484620888"><ele>727.5999999999999</ele><time>2026-04-27T12:09:27Z</time></trkpt><trkpt lat="40.56936077062186" lon="20.017745343607686"><ele>727.4000000000001</ele><time>2026-04-27T12:09:28Z</time></trkpt><trkpt lat="40.56936468244934" lon="20.017881759996158"><ele>727.2</ele><time>2026-04-27T12:09:29Z</time></trkpt><trkpt lat="40.56931538730675" lon="20.017986972274443"><ele>727.0</ele><time>2026-04-27T12:09:30Z</time></trkpt><trkpt lat="40.5692405517385" lon="20.018065906369966"><ele>727.0</ele><time>2026-04-27T12:09:31Z</time></trkpt><trkpt lat="40.569131999822304" lon="20.018076151031455"><ele>727.0</ele><time>2026-04-27T12:09:32Z</time></trkpt><trkpt lat="40.56901924909257" lon="20.018065614352963"><ele>727.0</ele><time>2026-04-27T12:09:33Z</time></trkpt><trkpt lat="40.56889467623765" lon="20.018072112844745"><ele>727.0</ele><time>2026-04-27T12:09:34Z</time></trkpt><trkpt lat="40.5687630956894" lon="20.018078631235994"><ele>720.5</ele><time>2026-04-27T12:09:35Z</time></trkpt><trkpt lat="40.56863719738479" lon="20.01810160477434"><ele>714.0</ele><time>2026-04-27T12:09:36Z</time></trkpt><trkpt lat="40.56851563524009" lon="20.018100558006417"><ele>707.5</ele><time>2026-04-27T12:09:37Z</time></trkpt><trkpt lat="40.56839149938772" lon="20.018071603427853"><ele>701.0</ele><time>2026-04-27T12:09:38Z</time></trkpt><trkpt lat="40.56825950395833" lon="20.018079149578178"><ele>701.0</ele><time>2026-04-27T12:09:39Z</time></trkpt><trkpt lat="40.56811690403709" lon="20.01812530049362"><ele>701.0</ele><time>2026-04-27T12:09:40Z</time></trkpt><trkpt lat="40.567975780246385" lon="20.01816539244844"><ele>701.0</ele><time>2026-04-27T12:09:41Z</time></trkpt><trkpt lat="40.56784639136382" lon="20.01819163415414"><ele>701.0</ele><time>2026-04-27T12:09:42Z</time></trkpt><trkpt lat="40.567734870456576" lon="20.018167401826204"><ele>699.75</ele><time>2026-04-27T12:09:43Z</time></trkpt><trkpt lat="40.56762356848421" lon="20.01811237926775"><ele>698.5</ele><time>2026-04-27T12:09:44Z</time></trkpt><trkpt lat="40.56751456066962" lon="20.01804463885006"><ele>697.25</ele><time>2026-04-27T12:09:45Z</time></trkpt><trkpt lat="40.567390832174894" lon="20.01799892732273"><ele>696.0</ele><time>2026-04-27T12:09:46Z</time></trkpt><trkpt lat="40.567262965709766" lon="20.017974288899968"><ele>696.0</ele><time>2026-04-27T12:09:47Z</time></trkpt><trkpt lat="40.567109587175985" lon="20.017990347657285"><ele>696.0</ele><time>2026-04-27T12:09:48Z</time></trkpt><trkpt lat="40.5669554891585" lon="20.01801701834833"><ele>696.0</ele><time>2026-04-27T12:09:49Z</time></trkpt><trkpt lat="40.566806588090316" lon="20.01806417034606"><ele>694.25</ele><time>2026-04-27T12:09:50Z</time></trkpt><trkpt lat="40.56666451955158" lon="20.018108862277646"><ele>692.5</ele><time>2026-04-27T12:09:51Z</time></trkpt><trkpt lat="40.566531594687525" lon="20.018182394450363"><ele>690.75</ele><time>2026-04-27T12:09:52Z</time></trkpt><trkpt lat="40.56641271455559" lon="20.01826690900451"><ele>689.0</ele><time>2026-04-27T12:09:53Z</time></trkpt><trkpt lat="40.56630003690636" lon="20.018398656091083"><ele>690.5</ele><time>2026-04-27T12:09:54Z</time></trkpt><trkpt lat="40.56620013768774" lon="20.0185418943673"><ele>692.0</ele><time>2026-04-27T12:09:55Z</time></trkpt><trkpt lat="40.56610647211926" lon="20.018687306389328"><ele>693.5</ele><time>2026-04-27T12:09:56Z</time></trkpt><trkpt lat="40.56600064325917" lon="20.018835337029135"><ele>695.0</ele><time>2026-04-27T12:09:57Z</time></trkpt><trkpt lat="40.565888396530696" lon="20.018981470470457"><ele>695.0</ele><time>2026-04-27T12:09:58Z</time></trkpt><trkpt lat="40.56575623024609" lon="20.01909671366833"><ele>695.0</ele><time>2026-04-27T12:09:59Z</time></trkpt><trkpt lat="40.565678155520956" lon="20.0192356762908"><ele>695.0</ele><time>2026-04-27T12:10:00Z</time></trkpt><trkpt lat="40.56557338421496" lon="20.01932671225529"><ele>695.0</ele><time>2026-04-27T12:10:01Z</time></trkpt><trkpt lat="40.565461761408585" lon="20.01938862419908"><ele>698.5</ele><time>2026-04-27T12:10:02Z</time></trkpt><trkpt lat="40.5653284329579" lon="20.019410033749985"><ele>702.0</ele><time>2026-04-27T12:10:03Z</time></trkpt><trkpt lat="40.56518282304943" lon="20.01933297378822"><ele>705.5</ele><time>2026-04-27T12:10:04Z</time></trkpt><trkpt lat="40.56505475706805" lon="20.01936310862234"><ele>709.0</ele><time>2026-04-27T12:10:05Z</time></trkpt><trkpt lat="40.56493400236241" lon="20.019427812879638"><ele>709.0</ele><time>2026-04-27T12:10:06Z</time></trkpt><trkpt lat="40.564821853216294" lon="20.019495028785066"><ele>709.0</ele><time>2026-04-27T12:10:07Z</time></trkpt><trkpt lat="40.56473205174269" lon="20.019615645263038"><ele>709.0</ele><time>2026-04-27T12:10:08Z</time></trkpt><trkpt lat="40.56465414996585" lon="20.019680392475543"><ele>709.0</ele><time>2026-04-27T12:10:09Z</time></trkpt><trkpt lat="40.564571255420134" lon="20.019741472907587"><ele>709.0</ele><time>2026-04-27T12:10:10Z</time></trkpt><trkpt lat="40.56448497803925" lon="20.01969852969596"><ele>712.6</ele><time>2026-04-27T12:10:11Z</time></trkpt><trkpt lat="40.564416582105856" lon="20.01971716203181"><ele>716.2</ele><time>2026-04-27T12:10:12Z</time></trkpt><trkpt lat="40.56433747243603" lon="20.019753859455705"><ele>719.8000000000001</ele><time>2026-04-27T12:10:13Z</time></trkpt><trkpt lat="40.5642634716135" lon="20.019792173969808"><ele>723.4000000000001</ele><time>2026-04-27T12:10:14Z</time></trkpt><trkpt lat="40.56418528406367" lon="20.01988694218968"><ele>727.0</ele><time>2026-04-27T12:10:15Z</time></trkpt><trkpt lat="40.564127727063024" lon="20.020024503541215"><ele>727.0</ele><time>2026-04-27T12:10:16Z</time></trkpt><trkpt lat="40.56401506602924" lon="20.02009523396987"><ele>727.0</ele><time>2026-04-27T12:10:17Z</time></trkpt><trkpt lat="40.56387619353591" lon="20.020136573636268"><ele>727.0</ele><time>2026-04-27T12:10:18Z</time></trkpt><trkpt lat="40.56369463545879" lon="20.02019402798891"><ele>720.3333333333334</ele><time>2026-04-27T12:10:19Z</time></trkpt><trkpt lat="40.56351039995929" lon="20.020267223475514"><ele>713.6666666666666</ele><time>2026-04-27T12:10:20Z</time></trkpt><trkpt lat="40.56335405288704" lon="20.02033732298963"><ele>707.0</ele><time>2026-04-27T12:10:21Z</time></trkpt><trkpt lat="40.56320947269348" lon="20.020402335533856"><ele>707.0</ele><time>2026-04-27T12:10:22Z</time></trkpt><trkpt lat="40.56305668734791" lon="20.02048745097367"><ele>707.0</ele><time>2026-04-27T12:10:23Z</time></trkpt><trkpt lat="40.562911188306394" lon="20.020601122825518"><ele>707.0</ele><time>2026-04-27T12:10:24Z</time></trkpt><trkpt lat="40.562776850660896" lon="20.020758722491404"><ele>707.3333333333333</ele><time>2026-04-27T12:10:25Z</time></trkpt><trkpt lat="40.56264914642575" lon="20.020914271486777"><ele>707.6666666666666</ele><time>2026-04-27T12:10:26Z</time></trkpt><trkpt lat="40.562515233630684" lon="20.021078080952815"><ele>708.0</ele><time>2026-04-27T12:10:27Z</time></trkpt><trkpt lat="40.562372911539214" lon="20.021250284034842"><ele>708.0</ele><time>2026-04-27T12:10:28Z</time></trkpt><trkpt lat="40.56221746117983" lon="20.02143748681205"><ele>708.0</ele><time>2026-04-27T12:10:29Z</time></trkpt><trkpt lat="40.56205439100541" lon="20.02163297318826"><ele>708.0</ele><time>2026-04-27T12:10:30Z</time></trkpt><trkpt lat="40.56185259610239" lon="20.02174425499294"><ele>709.0</ele><time>2026-04-27T12:10:31Z</time></trkpt><trkpt lat="40.561629233964624" lon="20.021868592884136"><ele>710.0</ele><time>2026-04-27T12:10:32Z</time></trkpt><trkpt lat="40.561424995028545" lon="20.022018581251753"><ele>710.0</ele><time>2026-04-27T12:10:33Z</time></trkpt><trkpt lat="40.5612340758399" lon="20.022136834122822"><ele>710.0</ele><time>2026-04-27T12:10:34Z</time></trkpt><trkpt lat="40.56104861987673" lon="20.02224518667849"><ele>710.0</ele><time>2026-04-27T12:10:35Z</time></trkpt><trkpt lat="40.56086326388762" lon="20.02235352474199"><ele>707.6666666666666</ele><time>2026-04-27T12:10:36Z</time></trkpt><trkpt lat="40.560678642205744" lon="20.022468503928565"><ele>705.3333333333334</ele><time>2026-04-27T12:10:37Z</time></trkpt><trkpt lat="40.56050740794538" lon="20.02257565258929"><ele>703.0</ele><time>2026-04-27T12:10:38Z</time></trkpt><trkpt lat="40.56034391817515" lon="20.022677916916003"><ele>703.0</ele><time>2026-04-27T12:10:39Z</time></trkpt><trkpt lat="40.56018264215246" lon="20.022778051285663"><ele>703.0</ele><time>2026-04-27T12:10:40Z</time></trkpt><trkpt lat="40.560022095127394" lon="20.02288248691765"><ele>703.0</ele><time>2026-04-27T12:10:41Z</time></trkpt><trkpt lat="40.559869228806704" lon="20.022984742182675"><ele>703.0</ele><time>2026-04-27T12:10:42Z</time></trkpt><trkpt lat="40.55971955863711" lon="20.023089600207875"><ele>703.0</ele><time>2026-04-27T12:10:43Z</time></trkpt><trkpt lat="40.55957956566629" lon="20.023205598300027"><ele>703.0</ele><time>2026-04-27T12:10:44Z</time></trkpt><trkpt lat="40.55944122074475" lon="20.023360979245147"><ele>703.6666666666667</ele><time>2026-04-27T12:10:45Z</time></trkpt><trkpt lat="40.55930891105458" lon="20.023520903322595"><ele>704.3333333333334</ele><time>2026-04-27T12:10:46Z</time></trkpt><trkpt lat="40.55917657346828" lon="20.023720805086487"><ele>705.0</ele><time>2026-04-27T12:10:47Z</time></trkpt><trkpt lat="40.559037739472906" lon="20.023927563701776"><ele>705.0</ele><time>2026-04-27T12:10:48Z</time></trkpt><trkpt lat="40.558894777413954" lon="20.024135743724848"><ele>705.0</ele><time>2026-04-27T12:10:49Z</time></trkpt><trkpt lat="40.558748144537496" lon="20.024332392448947"><ele>705.0</ele><time>2026-04-27T12:10:50Z</time></trkpt><trkpt lat="40.55861401112448" lon="20.024511904613764"><ele>701.6666666666666</ele><time>2026-04-27T12:10:51Z</time></trkpt><trkpt lat="40.55848746877448" lon="20.024680862162704"><ele>698.3333333333333</ele><time>2026-04-27T12:10:52Z</time></trkpt><trkpt lat="40.558370469861586" lon="20.024836540974214"><ele>695.0</ele><time>2026-04-27T12:10:53Z</time></trkpt><trkpt lat="40.558251059900144" lon="20.024968514518722"><ele>696.3333333333333</ele><time>2026-04-27T12:10:54Z</time></trkpt><trkpt lat="40.5581141692813" lon="20.02504266892317"><ele>697.6666666666666</ele><time>2026-04-27T12:10:55Z</time></trkpt><trkpt lat="40.5579466056389" lon="20.02510491937278"><ele>699.0</ele><time>2026-04-27T12:10:56Z</time></trkpt><trkpt lat="40.55777925595816" lon="20.02519008226458"><ele>699.0</ele><time>2026-04-27T12:10:57Z</time></trkpt><trkpt lat="40.55761244731869" lon="20.025312549022573"><ele>699.0</ele><time>2026-04-27T12:10:58Z</time></trkpt><trkpt lat="40.55745433836354" lon="20.025441787520727"><ele>699.0</ele><time>2026-04-27T12:10:59Z</time></trkpt><trkpt lat="40.5573081581344" lon="20.02555316680796"><ele>699.0</ele><time>2026-04-27T12:11:00Z</time></trkpt><trkpt lat="40.55715841635938" lon="20.02565125630295"><ele>699.0</ele><time>2026-04-27T12:11:01Z</time></trkpt><trkpt lat="40.55699721534783" lon="20.02570367625175"><ele>699.0</ele><time>2026-04-27T12:11:02Z</time></trkpt><trkpt lat="40.556832521959656" lon="20.02576869677338"><ele>701.6666666666666</ele><time>2026-04-27T12:11:03Z</time></trkpt><trkpt lat="40.55667970114836" lon="20.025875153417832"><ele>704.3333333333333</ele><time>2026-04-27T12:11:04Z</time></trkpt><trkpt lat="40.556539172580514" lon="20.025988017958152"><ele>707.0</ele><time>2026-04-27T12:11:05Z</time></trkpt><trkpt lat="40.55639380983294" lon="20.02609594056457"><ele>707.0</ele><time>2026-04-27T12:11:06Z</time></trkpt><trkpt lat="40.556246669895124" lon="20.026188914379418"><ele>707.0</ele><time>2026-04-27T12:11:07Z</time></trkpt><trkpt lat="40.556113031910975" lon="20.026273705930226"><ele>707.0</ele><time>2026-04-27T12:11:08Z</time></trkpt><trkpt lat="40.55598163615852" lon="20.026358012115907"><ele>709.6666666666666</ele><time>2026-04-27T12:11:09Z</time></trkpt><trkpt lat="40.55585217267756" lon="20.026455996757637"><ele>712.3333333333334</ele><time>2026-04-27T12:11:10Z</time></trkpt><trkpt lat="40.55572794679793" lon="20.026606100667447"><ele>715.0</ele><time>2026-04-27T12:11:11Z</time></trkpt><trkpt lat="40.55562939977242" lon="20.026736242887534"><ele>715.0</ele><time>2026-04-27T12:11:12Z</time></trkpt><trkpt lat="40.55551718055649" lon="20.02678126604808"><ele>715.0</ele><time>2026-04-27T12:11:13Z</time></trkpt><trkpt lat="40.55540159899978" lon="20.026803657498867"><ele>715.0</ele><time>2026-04-27T12:11:14Z</time></trkpt><trkpt lat="40.55527933425467" lon="20.026817611903326"><ele>715.0</ele><time>2026-04-27T12:11:15Z</time></trkpt><trkpt lat="40.555164121563415" lon="20.02679533147643"><ele>713.25</ele><time>2026-04-27T12:11:16Z</time></trkpt><trkpt lat="40.55503831997874" lon="20.026762423386007"><ele>711.5</ele><time>2026-04-27T12:11:17Z</time></trkpt><trkpt lat="40.55491333590741" lon="20.02674944948422"><ele>709.75</ele><time>2026-04-27T12:11:18Z</time></trkpt><trkpt lat="40.554803682272315" lon="20.026696617093858"><ele>708.0</ele><time>2026-04-27T12:11:19Z</time></trkpt><trkpt lat="40.55471077461355" lon="20.026641940295548"><ele>707.5999999999999</ele><time>2026-04-27T12:11:20Z</time></trkpt><trkpt lat="40.554649788633355" lon="20.026537594630856"><ele>707.1999999999999</ele><time>2026-04-27T12:11:21Z</time></trkpt><trkpt lat="40.55460021956092" lon="20.026452992120312"><ele>706.8</ele><time>2026-04-27T12:11:22Z</time></trkpt><trkpt lat="40.554543141205" lon="20.026360649394697"><ele>706.4</ele><time>2026-04-27T12:11:23Z</time></trkpt><trkpt lat="40.55448012166415" lon="20.02625869558395"><ele>706.0</ele><time>2026-04-27T12:11:24Z</time></trkpt><trkpt lat="40.55441322402561" lon="20.026150644327906"><ele>706.0</ele><time>2026-04-27T12:11:25Z</time></trkpt><trkpt lat="40.55433976844844" lon="20.02603799731785"><ele>706.0</ele><time>2026-04-27T12:11:26Z</time></trkpt><trkpt lat="40.55426604805335" lon="20.025927464887353"><ele>706.0</ele><time>2026-04-27T12:11:27Z</time></trkpt><trkpt lat="40.554188585935194" lon="20.025845863497597"><ele>706.0</ele><time>2026-04-27T12:11:28Z</time></trkpt><trkpt lat="40.554088463700815" lon="20.025780355847722"><ele>706.0</ele><time>2026-04-27T12:11:29Z</time></trkpt><trkpt lat="40.55397094507064" lon="20.0257692321437"><ele>706.0</ele><time>2026-04-27T12:11:30Z</time></trkpt><trkpt lat="40.5538538452822" lon="20.02581154747505"><ele>706.0</ele><time>2026-04-27T12:11:31Z</time></trkpt><trkpt lat="40.55374138186333" lon="20.025843884586944"><ele>706.0</ele><time>2026-04-27T12:11:32Z</time></trkpt><trkpt lat="40.553624956914206" lon="20.025889109564048"><ele>706.0</ele><time>2026-04-27T12:11:33Z</time></trkpt><trkpt lat="40.553500831508295" lon="20.025942177800616"><ele>707.0</ele><time>2026-04-27T12:11:34Z</time></trkpt><trkpt lat="40.55336906087213" lon="20.025986057807124"><ele>708.0</ele><time>2026-04-27T12:11:35Z</time></trkpt><trkpt lat="40.55323368391358" lon="20.026015448558596"><ele>709.0</ele><time>2026-04-27T12:11:36Z</time></trkpt><trkpt lat="40.55310614136617" lon="20.02600828237564"><ele>710.0</ele><time>2026-04-27T12:11:37Z</time></trkpt><trkpt lat="40.552975582563924" lon="20.02595936795049"><ele>709.75</ele><time>2026-04-27T12:11:38Z</time></trkpt><trkpt lat="40.55284634415741" lon="20.025877456406725"><ele>709.5</ele><time>2026-04-27T12:11:39Z</time></trkpt><trkpt lat="40.55272466454744" lon="20.02577536915563"><ele>709.25</ele><time>2026-04-27T12:11:40Z</time></trkpt><trkpt lat="40.55267400242557" lon="20.025645293544972"><ele>709.0</ele><time>2026-04-27T12:11:41Z</time></trkpt><trkpt lat="40.55262568710763" lon="20.02558000321142"><ele>710.6</ele><time>2026-04-27T12:11:42Z</time></trkpt><trkpt lat="40.55257540163732" lon="20.02551454773749"><ele>712.2</ele><time>2026-04-27T12:11:44Z</time></trkpt><trkpt lat="40.55247535976516" lon="20.025422030958186"><ele>713.8000000000001</ele><time>2026-04-27T12:11:46Z</time></trkpt><trkpt lat="40.55241202470714" lon="20.025367249959327"><ele>715.4000000000001</ele><time>2026-04-27T12:11:47Z</time></trkpt><trkpt lat="40.55231903255998" lon="20.025311035690173"><ele>717.0</ele><time>2026-04-27T12:11:48Z</time></trkpt><trkpt lat="40.55222551567714" lon="20.02522221922037"><ele>717.0</ele><time>2026-04-27T12:11:49Z</time></trkpt><trkpt lat="40.55215055407052" lon="20.025158868907464"><ele>717.0</ele><time>2026-04-27T12:11:50Z</time></trkpt><trkpt lat="40.55209119977248" lon="20.025106191352513"><ele>717.0</ele><time>2026-04-27T12:11:51Z</time></trkpt><trkpt lat="40.55202714904805" lon="20.025051473427354"><ele>717.0</ele><time>2026-04-27T12:11:52Z</time></trkpt><trkpt lat="40.55197099605909" lon="20.024963129265263"><ele>717.0</ele><time>2026-04-27T12:11:53Z</time></trkpt><trkpt lat="40.5519066501704" lon="20.02491210119337"><ele>717.0</ele><time>2026-04-27T12:11:54Z</time></trkpt><trkpt lat="40.551885733676954" lon="20.0248221714137"><ele>717.5</ele><time>2026-04-27T12:11:55Z</time></trkpt><trkpt lat="40.551887349378205" lon="20.024719686242257"><ele>718.0</ele><time>2026-04-27T12:11:56Z</time></trkpt><trkpt lat="40.55190412061006" lon="20.024603180081375"><ele>718.5</ele><time>2026-04-27T12:11:57Z</time></trkpt><trkpt lat="40.55193447324907" lon="20.024497000355158"><ele>719.0</ele><time>2026-04-27T12:11:58Z</time></trkpt><trkpt lat="40.55198071466785" lon="20.02439611140917"><ele>719.5</ele><time>2026-04-27T12:11:59Z</time></trkpt><trkpt lat="40.55204234413474" lon="20.02430059146057"><ele>720.0</ele><time>2026-04-27T12:12:00Z</time></trkpt><trkpt lat="40.55208927712574" lon="20.024211254399578"><ele>719.2</ele><time>2026-04-27T12:12:01Z</time></trkpt><trkpt lat="40.552143743182" lon="20.02413196951037"><ele>718.4</ele><time>2026-04-27T12:12:02Z</time></trkpt><trkpt lat="40.55219509471535" lon="20.0240381029689"><ele>717.5999999999999</ele><time>2026-04-27T12:12:03Z</time></trkpt><trkpt lat="40.55222889829083" lon="20.023952885095426"><ele>716.8</ele><time>2026-04-27T12:12:04Z</time></trkpt><trkpt lat="40.552237189426165" lon="20.023794519683836"><ele>716.0</ele><time>2026-04-27T12:12:06Z</time></trkpt><trkpt lat="40.5521892040168" lon="20.023629559875687"><ele>716.0</ele><time>2026-04-27T12:12:08Z</time></trkpt><trkpt lat="40.55209214629752" lon="20.023571115445716"><ele>716.0</ele><time>2026-04-27T12:12:09Z</time></trkpt><trkpt lat="40.55198616744635" lon="20.02354484743429"><ele>716.0</ele><time>2026-04-27T12:12:10Z</time></trkpt><trkpt lat="40.55189004891152" lon="20.023477746268593"><ele>716.0</ele><time>2026-04-27T12:12:11Z</time></trkpt><trkpt lat="40.551797838632396" lon="20.02342639977357"><ele>716.0</ele><time>2026-04-27T12:12:12Z</time></trkpt><trkpt lat="40.55172018451462" lon="20.023358966658858"><ele>710.5</ele><time>2026-04-27T12:12:13Z</time></trkpt><trkpt lat="40.551629031742266" lon="20.023276889463386"><ele>705.0</ele><time>2026-04-27T12:12:14Z</time></trkpt><trkpt lat="40.55156520240884" lon="20.023151821669945"><ele>699.5</ele><time>2026-04-27T12:12:15Z</time></trkpt><trkpt lat="40.551487421976184" lon="20.02303094879565"><ele>694.0</ele><time>2026-04-27T12:12:16Z</time></trkpt><trkpt lat="40.55139048330801" lon="20.02292129403452"><ele>694.0</ele><time>2026-04-27T12:12:17Z</time></trkpt><trkpt lat="40.55131116189085" lon="20.02283799901766"><ele>694.0</ele><time>2026-04-27T12:12:18Z</time></trkpt><trkpt lat="40.55121359914409" lon="20.022778092078397"><ele>694.0</ele><time>2026-04-27T12:12:19Z</time></trkpt><trkpt lat="40.5511237165263" lon="20.022739827844376"><ele>694.0</ele><time>2026-04-27T12:12:20Z</time></trkpt><trkpt lat="40.55104802700261" lon="20.022704011202734"><ele>694.0</ele><time>2026-04-27T12:12:21Z</time></trkpt><trkpt lat="40.5509592051802" lon="20.02269135011574"><ele>693.8000000000001</ele><time>2026-04-27T12:12:22Z</time></trkpt><trkpt lat="40.55086434888531" lon="20.02268006807183"><ele>693.6</ele><time>2026-04-27T12:12:23Z</time></trkpt><trkpt lat="40.55075288842304" lon="20.022696263422986"><ele>693.4</ele><time>2026-04-27T12:12:24Z</time></trkpt><trkpt lat="40.550641997438056" lon="20.0227384904312"><ele>693.2</ele><time>2026-04-27T12:12:25Z</time></trkpt><trkpt lat="40.55054062343077" lon="20.02275587701521"><ele>693.0</ele><time>2026-04-27T12:12:26Z</time></trkpt><trkpt lat="40.55042404252269" lon="20.022777242686583"><ele>692.75</ele><time>2026-04-27T12:12:27Z</time></trkpt><trkpt lat="40.550312029734215" lon="20.02276589441283"><ele>692.5</ele><time>2026-04-27T12:12:28Z</time></trkpt><trkpt lat="40.550186614253995" lon="20.022756806187807"><ele>692.25</ele><time>2026-04-27T12:12:29Z</time></trkpt><trkpt lat="40.55006159394274" lon="20.022752902715474"><ele>692.0</ele><time>2026-04-27T12:12:30Z</time></trkpt><trkpt lat="40.54995445971169" lon="20.022747847891374"><ele>692.0</ele><time>2026-04-27T12:12:31Z</time></trkpt><trkpt lat="40.54984073386114" lon="20.022727963101985"><ele>692.0</ele><time>2026-04-27T12:12:32Z</time></trkpt><trkpt lat="40.549745742574316" lon="20.022666913451605"><ele>692.0</ele><time>2026-04-27T12:12:33Z</time></trkpt><trkpt lat="40.54964646335043" lon="20.022596561951442"><ele>692.0</ele><time>2026-04-27T12:12:34Z</time></trkpt><trkpt lat="40.549549113167316" lon="20.022495635972064"><ele>691.5</ele><time>2026-04-27T12:12:35Z</time></trkpt><trkpt lat="40.54943483125405" lon="20.02237708027821"><ele>691.0</ele><time>2026-04-27T12:12:36Z</time></trkpt><trkpt lat="40.549336821991105" lon="20.02227533775814"><ele>690.5</ele><time>2026-04-27T12:12:37Z</time></trkpt><trkpt lat="40.549285075258524" lon="20.022150601141607"><ele>690.0</ele><time>2026-04-27T12:12:38Z</time></trkpt><trkpt lat="40.54922967191244" lon="20.022054217634945"><ele>690.0</ele><time>2026-04-27T12:12:39Z</time></trkpt><trkpt lat="40.54917956782558" lon="20.02196644480046"><ele>690.0</ele><time>2026-04-27T12:12:40Z</time></trkpt><trkpt lat="40.54908350591447" lon="20.02187713503867"><ele>690.0</ele><time>2026-04-27T12:12:41Z</time></trkpt><trkpt lat="40.54897403608298" lon="20.02180064342128"><ele>690.0</ele><time>2026-04-27T12:12:42Z</time></trkpt><trkpt lat="40.54887240192771" lon="20.021751954926575"><ele>690.0</ele><time>2026-04-27T12:12:43Z</time></trkpt><trkpt lat="40.54878496431965" lon="20.02168838524872"><ele>689.5</ele><time>2026-04-27T12:12:44Z</time></trkpt><trkpt lat="40.54868306753908" lon="20.02161789850058"><ele>689.0</ele><time>2026-04-27T12:12:45Z</time></trkpt><trkpt lat="40.548583230783045" lon="20.02152669408104"><ele>688.5</ele><time>2026-04-27T12:12:46Z</time></trkpt><trkpt lat="40.54847654502867" lon="20.0214503063037"><ele>688.0</ele><time>2026-04-27T12:12:47Z</time></trkpt><trkpt lat="40.54837701219242" lon="20.02139269903676"><ele>688.0</ele><time>2026-04-27T12:12:48Z</time></trkpt><trkpt lat="40.54828918718595" lon="20.021353797239087"><ele>688.0</ele><time>2026-04-27T12:12:49Z</time></trkpt><trkpt lat="40.54818374767484" lon="20.021332212008286"><ele>688.0</ele><time>2026-04-27T12:12:50Z</time></trkpt><trkpt lat="40.54805853057783" lon="20.021311444924386"><ele>688.0</ele><time>2026-04-27T12:12:51Z</time></trkpt><trkpt lat="40.54794743898312" lon="20.021305048313817"><ele>688.0</ele><time>2026-04-27T12:12:52Z</time></trkpt><trkpt lat="40.54785685259279" lon="20.021303762360436"><ele>685.8</ele><time>2026-04-27T12:12:53Z</time></trkpt><trkpt lat="40.547774931001136" lon="20.021320074320617"><ele>683.5999999999999</ele><time>2026-04-27T12:12:54Z</time></trkpt><trkpt lat="40.547704757854284" lon="20.021306722646905"><ele>681.4000000000001</ele><time>2026-04-27T12:12:55Z</time></trkpt><trkpt lat="40.54764537631345" lon="20.021271207359337"><ele>679.2</ele><time>2026-04-27T12:12:56Z</time></trkpt><trkpt lat="40.54753067920577" lon="20.021254229036266"><ele>677.0</ele><time>2026-04-27T12:12:58Z</time></trkpt><trkpt lat="40.54741693850011" lon="20.0212270593061"><ele>677.0</ele><time>2026-04-27T12:12:59Z</time></trkpt><trkpt lat="40.54736413282653" lon="20.021142694859385"><ele>677.0</ele><time>2026-04-27T12:13:00Z</time></trkpt><trkpt lat="40.547354661419305" lon="20.020955625406636"><ele>677.0</ele><time>2026-04-27T12:13:01Z</time></trkpt><trkpt lat="40.54742751292217" lon="20.020834009294962"><ele>677.0</ele><time>2026-04-27T12:13:02Z</time></trkpt><trkpt lat="40.54754161924674" lon="20.020789889614512"><ele>675.4000000000001</ele><time>2026-04-27T12:13:03Z</time></trkpt><trkpt lat="40.54761862166864" lon="20.02076630734908"><ele>673.8000000000001</ele><time>2026-04-27T12:13:04Z</time></trkpt><trkpt lat="40.54771010114758" lon="20.020714778844575"><ele>672.2</ele><time>2026-04-27T12:13:05Z</time></trkpt><trkpt lat="40.54782466043769" lon="20.020641831086408"><ele>670.6</ele><time>2026-04-27T12:13:06Z</time></trkpt><trkpt lat="40.5479183427246" lon="20.020557588298008"><ele>669.0</ele><time>2026-04-27T12:13:06.999Z</time></trkpt><trkpt lat="40.54797573999865" lon="20.020458345749777"><ele>669.0</ele><time>2026-04-27T12:13:07.999Z</time></trkpt><trkpt lat="40.54802687553918" lon="20.020360233570752"><ele>669.0</ele><time>2026-04-27T12:13:08.999Z</time></trkpt><trkpt lat="40.548072802773156" lon="20.02025934109789"><ele>669.0</ele><time>2026-04-27T12:13:09.999Z</time></trkpt><trkpt lat="40.54810806093639" lon="20.02015542278545"><ele>669.0</ele><time>2026-04-27T12:13:10.999Z</time></trkpt><trkpt lat="40.548154785056894" lon="20.02005118057173"><ele>669.0</ele><time>2026-04-27T12:13:11.999Z</time></trkpt><trkpt lat="40.54821348573659" lon="20.01997211842467"><ele>669.0</ele><time>2026-04-27T12:13:12.999Z</time></trkpt><trkpt lat="40.5482854694443" lon="20.01990029158986"><ele>665.5</ele><time>2026-04-27T12:13:13.999Z</time></trkpt><trkpt lat="40.54836096545132" lon="20.01984324134978"><ele>662.0</ele><time>2026-04-27T12:13:14.999Z</time></trkpt><trkpt lat="40.54843166460336" lon="20.019805020575276"><ele>658.5</ele><time>2026-04-27T12:13:15.999Z</time></trkpt><trkpt lat="40.54849327510089" lon="20.01978445296835"><ele>655.0</ele><time>2026-04-27T12:13:16.999Z</time></trkpt><trkpt lat="40.548561376532845" lon="20.019781454350312"><ele>651.5</ele><time>2026-04-27T12:13:17.999Z</time></trkpt><trkpt lat="40.54865053994605" lon="20.019819934103424"><ele>648.0</ele><time>2026-04-27T12:13:18.999Z</time></trkpt><trkpt lat="40.54871313357855" lon="20.01990948722556"><ele>648.0</ele><time>2026-04-27T12:13:19.999Z</time></trkpt><trkpt lat="40.548777222386576" lon="20.019962222323354"><ele>648.0</ele><time>2026-04-27T12:13:20.999Z</time></trkpt><trkpt lat="40.54887766112206" lon="20.02002949716687"><ele>648.0</ele><time>2026-04-27T12:13:22.999Z</time></trkpt><trkpt lat="40.54901548992666" lon="20.020032312201838"><ele>648.0</ele><time>2026-04-27T12:13:24.999Z</time></trkpt><trkpt lat="40.54907812348434" lon="20.019964593881216"><ele>648.0</ele><time>2026-04-27T12:13:25.999Z</time></trkpt><trkpt lat="40.549108915630434" lon="20.019864915325073"><ele>648.0</ele><time>2026-04-27T12:13:26.999Z</time></trkpt><trkpt lat="40.54916423478681" lon="20.019798804419775"><ele>648.0</ele><time>2026-04-27T12:13:27.999Z</time></trkpt><trkpt lat="40.5492121300015" lon="20.019712477332003"><ele>648.0</ele><time>2026-04-27T12:13:28.999Z</time></trkpt><trkpt lat="40.54926060766611" lon="20.01962527647199"><ele>648.0</ele><time>2026-04-27T12:13:29.999Z</time></trkpt><trkpt lat="40.54930554208174" lon="20.01954452536296"><ele>648.0</ele><time>2026-04-27T12:13:30.999Z</time></trkpt><trkpt lat="40.549350850883656" lon="20.019463579229846"><ele>648.0</ele><time>2026-04-27T12:13:31.999Z</time></trkpt><trkpt lat="40.54940181972148" lon="20.01940693129627"><ele>648.0</ele><time>2026-04-27T12:13:32.999Z</time></trkpt><trkpt lat="40.549460807833746" lon="20.019345465930105"><ele>648.0</ele><time>2026-04-27T12:13:33.999Z</time></trkpt><trkpt lat="40.54951995268477" lon="20.019290544854137"><ele>648.0</ele><time>2026-04-27T12:13:34.999Z</time></trkpt><trkpt lat="40.5495920555608" lon="20.01920464251255"><ele>648.0</ele><time>2026-04-27T12:13:35.999Z</time></trkpt><trkpt lat="40.54962687864779" lon="20.01912153764427"><ele>648.0</ele><time>2026-04-27T12:13:36.999Z</time></trkpt><trkpt lat="40.54961045028264" lon="20.018848796747722"><ele>646.1999999999999</ele><time>2026-04-27T12:13:38.999Z</time></trkpt><trkpt lat="40.54959145809893" lon="20.018740832100153"><ele>644.4</ele><time>2026-04-27T12:13:39.999Z</time></trkpt><trkpt lat="40.549431255116886" lon="20.018666436517325"><ele>642.5999999999999</ele><time>2026-04-27T12:13:40.999Z</time></trkpt><trkpt lat="40.54938671157656" lon="20.01857046055966"><ele>640.8</ele><time>2026-04-27T12:13:41.999Z</time></trkpt><trkpt lat="40.549351066318586" lon="20.018463927814988"><ele>639.0</ele><time>2026-04-27T12:13:43Z</time></trkpt><trkpt lat="40.549319619889246" lon="20.018347633420667"><ele>638.8</ele><time>2026-04-27T12:13:44Z</time></trkpt><trkpt lat="40.54928137001086" lon="20.018229241009493"><ele>638.5999999999999</ele><time>2026-04-27T12:13:45Z</time></trkpt><trkpt lat="40.54923078611502" lon="20.01811561905139"><ele>638.4</ele><time>2026-04-27T12:13:46Z</time></trkpt><trkpt lat="40.54917094729047" lon="20.018014661257986"><ele>638.1999999999999</ele><time>2026-04-27T12:13:47Z</time></trkpt><trkpt lat="40.54910911660585" lon="20.017938379155208"><ele>638.0</ele><time>2026-04-27T12:13:48Z</time></trkpt><trkpt lat="40.549069153421215" lon="20.01785512210942"><ele>638.0</ele><time>2026-04-27T12:13:49Z</time></trkpt><trkpt lat="40.54902430797207" lon="20.01778848566065"><ele>638.0</ele><time>2026-04-27T12:13:50Z</time></trkpt><trkpt lat="40.548980231091456" lon="20.017712676134217"><ele>638.0</ele><time>2026-04-27T12:13:51Z</time></trkpt><trkpt lat="40.54895797106812" lon="20.017615463782295"><ele>638.0</ele><time>2026-04-27T12:13:52Z</time></trkpt><trkpt lat="40.54896121263324" lon="20.017518922166715"><ele>638.0</ele><time>2026-04-27T12:13:53Z</time></trkpt><trkpt lat="40.54900847815877" lon="20.017408503795572"><ele>638.0</ele><time>2026-04-27T12:13:54Z</time></trkpt><trkpt lat="40.549027366044875" lon="20.017252774052633"><ele>636.6</ele><time>2026-04-27T12:13:55Z</time></trkpt><trkpt lat="40.54907305329054" lon="20.017094130683564"><ele>635.1999999999999</ele><time>2026-04-27T12:13:56Z</time></trkpt><trkpt lat="40.549106154788745" lon="20.01695685410945"><ele>633.8</ele><time>2026-04-27T12:13:57Z</time></trkpt><trkpt lat="40.54912591537397" lon="20.016832306937314"><ele>632.4</ele><time>2026-04-27T12:13:58Z</time></trkpt><trkpt lat="40.549131826190795" lon="20.016712432191063"><ele>631.0</ele><time>2026-04-27T12:13:59Z</time></trkpt><trkpt lat="40.54912966197688" lon="20.016581988845957"><ele>629.5</ele><time>2026-04-27T12:14:00Z</time></trkpt><trkpt lat="40.549118742843866" lon="20.016441816038324"><ele>628.0</ele><time>2026-04-27T12:14:01Z</time></trkpt><trkpt lat="40.549108037998394" lon="20.016296167988546"><ele>626.5</ele><time>2026-04-27T12:14:02Z</time></trkpt><trkpt lat="40.5490980980397" lon="20.01613458642832"><ele>625.0</ele><time>2026-04-27T12:14:03Z</time></trkpt><trkpt lat="40.54909786554801" lon="20.015967956450567"><ele>623.5</ele><time>2026-04-27T12:14:04Z</time></trkpt><trkpt lat="40.549120490438746" lon="20.015807466249537"><ele>622.0</ele><time>2026-04-27T12:14:05Z</time></trkpt><trkpt lat="40.54915979005707" lon="20.0156402327846"><ele>620.5</ele><time>2026-04-27T12:14:06Z</time></trkpt><trkpt lat="40.549204298011176" lon="20.01548340639723"><ele>619.0</ele><time>2026-04-27T12:14:07Z</time></trkpt><trkpt lat="40.54924930734511" lon="20.01532637310664"><ele>619.0</ele><time>2026-04-27T12:14:08Z</time></trkpt><trkpt lat="40.54928368166345" lon="20.01515998599292"><ele>619.0</ele><time>2026-04-27T12:14:09Z</time></trkpt><trkpt lat="40.549304922872665" lon="20.01498839683334"><ele>619.0</ele><time>2026-04-27T12:14:10Z</time></trkpt><trkpt lat="40.54931188049606" lon="20.014816149909493"><ele>619.0</ele><time>2026-04-27T12:14:11Z</time></trkpt><trkpt lat="40.54932245824176" lon="20.014643073299162"><ele>620.4</ele><time>2026-04-27T12:14:12Z</time></trkpt><trkpt lat="40.54927932382049" lon="20.014480805403135"><ele>621.8</ele><time>2026-04-27T12:14:13Z</time></trkpt><trkpt lat="40.54924122358147" lon="20.01433664774633"><ele>623.2</ele><time>2026-04-27T12:14:14Z</time></trkpt><trkpt lat="40.54919085769763" lon="20.014228970426014"><ele>624.6</ele><time>2026-04-27T12:14:15Z</time></trkpt><trkpt lat="40.549134551050905" lon="20.014132245513846"><ele>626.0</ele><time>2026-04-27T12:14:16Z</time></trkpt><trkpt lat="40.54904706037994" lon="20.014020829483457"><ele>624.5</ele><time>2026-04-27T12:14:17Z</time></trkpt><trkpt lat="40.548950870525665" lon="20.01390622421062"><ele>623.0</ele><time>2026-04-27T12:14:18Z</time></trkpt><trkpt lat="40.54884940548574" lon="20.01380359588403"><ele>621.5</ele><time>2026-04-27T12:14:19Z</time></trkpt><trkpt lat="40.54875098816766" lon="20.01373165485932"><ele>620.0</ele><time>2026-04-27T12:14:20Z</time></trkpt><trkpt lat="40.548674338105194" lon="20.013653142488156"><ele>620.0</ele><time>2026-04-27T12:14:21Z</time></trkpt><trkpt lat="40.548623403787644" lon="20.013562067505397"><ele>620.0</ele><time>2026-04-27T12:14:22Z</time></trkpt><trkpt lat="40.54860224989317" lon="20.01344981483594"><ele>620.0</ele><time>2026-04-27T12:14:23Z</time></trkpt><trkpt lat="40.54859420744943" lon="20.01331845850991"><ele>620.0</ele><time>2026-04-27T12:14:24Z</time></trkpt><trkpt lat="40.548607109879974" lon="20.01319132175128"><ele>620.0</ele><time>2026-04-27T12:14:25Z</time></trkpt><trkpt lat="40.54864641797535" lon="20.013064189791447"><ele>620.25</ele><time>2026-04-27T12:14:26Z</time></trkpt><trkpt lat="40.54870324643261" lon="20.01293180920393"><ele>620.5</ele><time>2026-04-27T12:14:27Z</time></trkpt><trkpt lat="40.54876283313127" lon="20.01278495756767"><ele>620.75</ele><time>2026-04-27T12:14:28Z</time></trkpt><trkpt lat="40.54881558350148" lon="20.012638871891927"><ele>621.0</ele><time>2026-04-27T12:14:29Z</time></trkpt><trkpt lat="40.54884001562702" lon="20.012516767038985"><ele>621.0</ele><time>2026-04-27T12:14:30Z</time></trkpt><trkpt lat="40.548855776220314" lon="20.012393406804456"><ele>621.0</ele><time>2026-04-27T12:14:31Z</time></trkpt><trkpt lat="40.548849829050106" lon="20.012285212556744"><ele>621.0</ele><time>2026-04-27T12:14:32Z</time></trkpt><trkpt lat="40.54883489889291" lon="20.012192104214535"><ele>621.0</ele><time>2026-04-27T12:14:33Z</time></trkpt><trkpt lat="40.5487981895354" lon="20.012113322272814"><ele>621.0</ele><time>2026-04-27T12:14:34Z</time></trkpt><trkpt lat="40.54877913658301" lon="20.01201899423057"><ele>621.0</ele><time>2026-04-27T12:14:35Z</time></trkpt><trkpt lat="40.54866740640542" lon="20.011975749971096"><ele>621.0</ele><time>2026-04-27T12:14:36Z</time></trkpt><trkpt lat="40.54858917778961" lon="20.011919227553296"><ele>621.0</ele><time>2026-04-27T12:14:37Z</time></trkpt><trkpt lat="40.548526449487355" lon="20.011839511521533"><ele>621.0</ele><time>2026-04-27T12:14:38Z</time></trkpt><trkpt lat="40.548449914074105" lon="20.011749224187295"><ele>621.0</ele><time>2026-04-27T12:14:39Z</time></trkpt><trkpt lat="40.54836968424022" lon="20.011640614503776"><ele>621.0</ele><time>2026-04-27T12:14:40Z</time></trkpt><trkpt lat="40.54826173565993" lon="20.01151652555344"><ele>618.0</ele><time>2026-04-27T12:14:41Z</time></trkpt><trkpt lat="40.548145157198725" lon="20.01144905734939"><ele>615.0</ele><time>2026-04-27T12:14:42Z</time></trkpt><trkpt lat="40.548016209260574" lon="20.011414845404946"><ele>612.0</ele><time>2026-04-27T12:14:43Z</time></trkpt><trkpt lat="40.54791114556185" lon="20.011379026194117"><ele>609.0</ele><time>2026-04-27T12:14:44Z</time></trkpt><trkpt lat="40.547823197267356" lon="20.011349190385417"><ele>609.0</ele><time>2026-04-27T12:14:45Z</time></trkpt><trkpt lat="40.54772054215079" lon="20.011312299433357"><ele>609.0</ele><time>2026-04-27T12:14:46Z</time></trkpt><trkpt lat="40.54761836452011" lon="20.011236616900415"><ele>609.0</ele><time>2026-04-27T12:14:47Z</time></trkpt><trkpt lat="40.54750900042178" lon="20.01113865919347"><ele>609.0</ele><time>2026-04-27T12:14:48Z</time></trkpt><trkpt lat="40.54741288036895" lon="20.011026332412413"><ele>609.0</ele><time>2026-04-27T12:14:49Z</time></trkpt><trkpt lat="40.54733924492435" lon="20.01088706534848"><ele>609.0</ele><time>2026-04-27T12:14:50Z</time></trkpt><trkpt lat="40.54723684968472" lon="20.010741261822233"><ele>609.0</ele><time>2026-04-27T12:14:51Z</time></trkpt><trkpt lat="40.54712727408211" lon="20.01064936235758"><ele>609.0</ele><time>2026-04-27T12:14:52Z</time></trkpt><trkpt lat="40.54702193715581" lon="20.010576507805983"><ele>609.8</ele><time>2026-04-27T12:14:53Z</time></trkpt><trkpt lat="40.54691674252763" lon="20.010503256913402"><ele>610.5999999999999</ele><time>2026-04-27T12:14:54Z</time></trkpt><trkpt lat="40.54682195370822" lon="20.010420709188885"><ele>611.4</ele><time>2026-04-27T12:14:55Z</time></trkpt><trkpt lat="40.54675372571825" lon="20.010345537662406"><ele>612.1999999999999</ele><time>2026-04-27T12:14:56Z</time></trkpt><trkpt lat="40.54668857710192" lon="20.010250896340622"><ele>613.0</ele><time>2026-04-27T12:14:57Z</time></trkpt><trkpt lat="40.54662471712161" lon="20.01015386083416"><ele>613.0</ele><time>2026-04-27T12:14:58Z</time></trkpt><trkpt lat="40.54655278497178" lon="20.010060076464352"><ele>613.0</ele><time>2026-04-27T12:14:59Z</time></trkpt><trkpt lat="40.54646127021476" lon="20.009955795010935"><ele>613.0</ele><time>2026-04-27T12:15:00Z</time></trkpt><trkpt lat="40.546368975158735" lon="20.009870067078836"><ele>613.0</ele><time>2026-04-27T12:15:01Z</time></trkpt><trkpt lat="40.54622227978768" lon="20.00982704728332"><ele>609.25</ele><time>2026-04-27T12:15:02Z</time></trkpt><trkpt lat="40.546080397808446" lon="20.009833456610213"><ele>605.5</ele><time>2026-04-27T12:15:03Z</time></trkpt><trkpt lat="40.54593957698487" lon="20.009832807767932"><ele>601.75</ele><time>2026-04-27T12:15:04Z</time></trkpt><trkpt lat="40.54579433177162" lon="20.009822053013714"><ele>598.0</ele><time>2026-04-27T12:15:05Z</time></trkpt><trkpt lat="40.54568750055199" lon="20.009789250755674"><ele>598.0</ele><time>2026-04-27T12:15:06Z</time></trkpt><trkpt lat="40.545594781416106" lon="20.009745378367686"><ele>598.0</ele><time>2026-04-27T12:15:07Z</time></trkpt><trkpt lat="40.54550369038375" lon="20.009700926635386"><ele>598.0</ele><time>2026-04-27T12:15:08Z</time></trkpt><trkpt lat="40.54540754349739" lon="20.009654901953546"><ele>598.0</ele><time>2026-04-27T12:15:09Z</time></trkpt><trkpt lat="40.54527411771684" lon="20.00963784484856"><ele>598.0</ele><time>2026-04-27T12:15:10Z</time></trkpt><trkpt lat="40.545162533569346" lon="20.009653993719564"><ele>600.1999999999999</ele><time>2026-04-27T12:15:11Z</time></trkpt><trkpt lat="40.54504405135361" lon="20.009728596118215"><ele>602.4</ele><time>2026-04-27T12:15:12Z</time></trkpt><trkpt lat="40.54495544643129" lon="20.009770170747476"><ele>604.5999999999999</ele><time>2026-04-27T12:15:12.999Z</time></trkpt><trkpt lat="40.5448666384272" lon="20.009797867367492"><ele>606.8</ele><time>2026-04-27T12:15:13.999Z</time></trkpt><trkpt lat="40.54478294809726" lon="20.0097779443593"><ele>609.0</ele><time>2026-04-27T12:15:14.999Z</time></trkpt><trkpt lat="40.54470712930735" lon="20.00973131991129"><ele>609.0</ele><time>2026-04-27T12:15:15.999Z</time></trkpt><trkpt lat="40.544645369280346" lon="20.009660545438777"><ele>609.0</ele><time>2026-04-27T12:15:16.999Z</time></trkpt><trkpt lat="40.54458826850076" lon="20.009575939458497"><ele>609.0</ele><time>2026-04-27T12:15:17.999Z</time></trkpt><trkpt lat="40.54456330274031" lon="20.009477946183985"><ele>609.0</ele><time>2026-04-27T12:15:18.999Z</time></trkpt><trkpt lat="40.54452509288909" lon="20.009401993636143"><ele>609.0</ele><time>2026-04-27T12:15:19.999Z</time></trkpt><trkpt lat="40.54447145199081" lon="20.00934763620936"><ele>609.0</ele><time>2026-04-27T12:15:20.999Z</time></trkpt><trkpt lat="40.544294772440146" lon="20.009315619931648"><ele>609.1666666666666</ele><time>2026-04-27T12:15:22.999Z</time></trkpt><trkpt lat="40.54421445121361" lon="20.009367444664733"><ele>609.3333333333334</ele><time>2026-04-27T12:15:23.999Z</time></trkpt><trkpt lat="40.54413512680224" lon="20.009395962380637"><ele>609.5</ele><time>2026-04-27T12:15:24.999Z</time></trkpt><trkpt lat="40.54404800841438" lon="20.009432828869677"><ele>609.6666666666667</ele><time>2026-04-27T12:15:25.999Z</time></trkpt><trkpt lat="40.54396536170175" lon="20.00946628051299"><ele>609.8333333333334</ele><time>2026-04-27T12:15:26.999Z</time></trkpt><trkpt lat="40.54389489075091" lon="20.00948800537692"><ele>610.0</ele><time>2026-04-27T12:15:27.999Z</time></trkpt><trkpt lat="40.54378368540054" lon="20.0095244002628"><ele>609.0</ele><time>2026-04-27T12:15:30Z</time></trkpt><trkpt lat="40.54367167946626" lon="20.009545025272608"><ele>608.0</ele><time>2026-04-27T12:15:32Z</time></trkpt><trkpt lat="40.54359263245527" lon="20.009495941085238"><ele>607.0</ele><time>2026-04-27T12:15:33Z</time></trkpt><trkpt lat="40.54351180143102" lon="20.009422598908138"><ele>606.0</ele><time>2026-04-27T12:15:34Z</time></trkpt><trkpt lat="40.543436282067184" lon="20.00933784877819"><ele>605.0</ele><time>2026-04-27T12:15:35Z</time></trkpt><trkpt lat="40.543383379886734" lon="20.00922263291262"><ele>603.0</ele><time>2026-04-27T12:15:36Z</time></trkpt><trkpt lat="40.5433145757845" lon="20.00911146880608"><ele>601.0</ele><time>2026-04-27T12:15:37Z</time></trkpt><trkpt lat="40.54325089909594" lon="20.00900817361271"><ele>599.0</ele><time>2026-04-27T12:15:38Z</time></trkpt><trkpt lat="40.54319040159735" lon="20.00890938069941"><ele>597.0</ele><time>2026-04-27T12:15:39Z</time></trkpt><trkpt lat="40.54312957875654" lon="20.008810058509813"><ele>595.0</ele><time>2026-04-27T12:15:40Z</time></trkpt><trkpt lat="40.543050676686235" lon="20.00867848973129"><ele>595.0</ele><time>2026-04-27T12:15:41Z</time></trkpt><trkpt lat="40.542957619485264" lon="20.008578695780667"><ele>595.0</ele><time>2026-04-27T12:15:42Z</time></trkpt><trkpt lat="40.54281451386582" lon="20.008501462670505"><ele>595.0</ele><time>2026-04-27T12:15:43Z</time></trkpt><trkpt lat="40.542701344414255" lon="20.00844002869099"><ele>595.0</ele><time>2026-04-27T12:15:44Z</time></trkpt><trkpt lat="40.54259216056698" lon="20.008380454826284"><ele>597.6</ele><time>2026-04-27T12:15:45Z</time></trkpt><trkpt lat="40.54249621658633" lon="20.008332295767957"><ele>600.2</ele><time>2026-04-27T12:15:46Z</time></trkpt><trkpt lat="40.54241227679183" lon="20.00824482796436"><ele>602.8</ele><time>2026-04-27T12:15:47Z</time></trkpt><trkpt lat="40.54232825973337" lon="20.008174231325278"><ele>605.4</ele><time>2026-04-27T12:15:48Z</time></trkpt><trkpt lat="40.54226153741786" lon="20.00810900948283"><ele>608.0</ele><time>2026-04-27T12:15:49Z</time></trkpt><trkpt lat="40.542187873328075" lon="20.008075575931567"><ele>608.0</ele><time>2026-04-27T12:15:50Z</time></trkpt><trkpt lat="40.54209833040215" lon="20.008034736755622"><ele>608.0</ele><time>2026-04-27T12:15:51Z</time></trkpt><trkpt lat="40.54200481965036" lon="20.007973332670662"><ele>608.0</ele><time>2026-04-27T12:15:52Z</time></trkpt><trkpt lat="40.541922545162855" lon="20.00788808500826"><ele>608.0</ele><time>2026-04-27T12:15:53Z</time></trkpt><trkpt lat="40.54184279691847" lon="20.007776701326"><ele>608.0</ele><time>2026-04-27T12:15:54Z</time></trkpt><trkpt lat="40.54175391808792" lon="20.007652255366416"><ele>616.6666666666666</ele><time>2026-04-27T12:15:55Z</time></trkpt><trkpt lat="40.541672264712176" lon="20.007514925090774"><ele>625.3333333333334</ele><time>2026-04-27T12:15:56Z</time></trkpt><trkpt lat="40.54172453977471" lon="20.007213971298874"><ele>634.0</ele><time>2026-04-27T12:15:57Z</time></trkpt><trkpt lat="40.541651315435445" lon="20.007107013542512"><ele>635.0</ele><time>2026-04-27T12:15:58Z</time></trkpt><trkpt lat="40.541579195421505" lon="20.006987479978395"><ele>636.0</ele><time>2026-04-27T12:15:59Z</time></trkpt><trkpt lat="40.54150936340851" lon="20.006871421872802"><ele>637.0</ele><time>2026-04-27T12:16:00Z</time></trkpt><trkpt lat="40.54144248372417" lon="20.00676027127843"><ele>638.0</ele><time>2026-04-27T12:16:01Z</time></trkpt><trkpt lat="40.54134799859997" lon="20.006664039669143"><ele>639.5</ele><time>2026-04-27T12:16:02Z</time></trkpt><trkpt lat="40.54128916830292" lon="20.00659707541414"><ele>641.0</ele><time>2026-04-27T12:16:03Z</time></trkpt><trkpt lat="40.541207460522884" lon="20.006508167436948"><ele>642.5</ele><time>2026-04-27T12:16:05Z</time></trkpt><trkpt lat="40.5411940181963" lon="20.006356354533192"><ele>644.0</ele><time>2026-04-27T12:16:07Z</time></trkpt><trkpt lat="40.541114411203026" lon="20.00613715927601"><ele>644.0</ele><time>2026-04-27T12:16:09Z</time></trkpt><trkpt lat="40.54112991096259" lon="20.006026404235932"><ele>644.0</ele><time>2026-04-27T12:16:10Z</time></trkpt><trkpt lat="40.54114445048861" lon="20.00592179204709"><ele>644.0</ele><time>2026-04-27T12:16:11Z</time></trkpt><trkpt lat="40.54130122442689" lon="20.005870673378652"><ele>644.0</ele><time>2026-04-27T12:16:12Z</time></trkpt><trkpt lat="40.54133214361092" lon="20.00579475046343"><ele>644.0</ele><time>2026-04-27T12:16:13Z</time></trkpt><trkpt lat="40.54137738701475" lon="20.005706169706794"><ele>648.0</ele><time>2026-04-27T12:16:14Z</time></trkpt><trkpt lat="40.541420386297354" lon="20.005624083518505"><ele>652.0</ele><time>2026-04-27T12:16:15Z</time></trkpt><trkpt lat="40.54145908421653" lon="20.005555464646562"><ele>656.0</ele><time>2026-04-27T12:16:16Z</time></trkpt><trkpt lat="40.54150683800733" lon="20.00545757075466"><ele>660.0</ele><time>2026-04-27T12:16:18Z</time></trkpt><trkpt lat="40.54157495619094" lon="20.005389419314113"><ele>664.0</ele><time>2026-04-27T12:16:20Z</time></trkpt><trkpt lat="40.54163758063675" lon="20.005348303732127"><ele>668.0</ele><time>2026-04-27T12:16:22Z</time></trkpt><trkpt lat="40.541697054145075" lon="20.00529077712287"><ele>668.0</ele><time>2026-04-27T12:16:24Z</time></trkpt><trkpt lat="40.54174733371392" lon="20.00521873631716"><ele>668.0</ele><time>2026-04-27T12:16:26Z</time></trkpt><trkpt lat="40.5418232799274" lon="20.00513059475898"><ele>668.0</ele><time>2026-04-27T12:16:28Z</time></trkpt><trkpt lat="40.54187260289739" lon="20.005075677512856"><ele>668.0</ele><time>2026-04-27T12:16:29Z</time></trkpt><trkpt lat="40.54193353941809" lon="20.005030341821175"><ele>668.0</ele><time>2026-04-27T12:16:30Z</time></trkpt><trkpt lat="40.54204227589207" lon="20.005151108559183"><ele>666.5999999999999</ele><time>2026-04-27T12:16:31Z</time></trkpt><trkpt lat="40.54215681795093" lon="20.005106528713906"><ele>665.1999999999999</ele><time>2026-04-27T12:16:32Z</time></trkpt><trkpt lat="40.54224270558744" lon="20.005030742888774"><ele>663.8</ele><time>2026-04-27T12:16:33Z</time></trkpt><trkpt lat="40.54231916650715" lon="20.004907109833663"><ele>662.4</ele><time>2026-04-27T12:16:34Z</time></trkpt><trkpt lat="40.54237603832233" lon="20.004803379639366"><ele>661.0</ele><time>2026-04-27T12:16:35Z</time></trkpt><trkpt lat="40.54241997216172" lon="20.004674189380093"><ele>661.0</ele><time>2026-04-27T12:16:36Z</time></trkpt><trkpt lat="40.54246053695673" lon="20.00456153481654"><ele>661.0</ele><time>2026-04-27T12:16:37Z</time></trkpt><trkpt lat="40.5423488751125" lon="20.00434905640251"><ele>661.0</ele><time>2026-04-27T12:16:38Z</time></trkpt><trkpt lat="40.54239202610473" lon="20.00421788268926"><ele>661.0</ele><time>2026-04-27T12:16:39Z</time></trkpt><trkpt lat="40.54242622028506" lon="20.004066962876884"><ele>664.75</ele><time>2026-04-27T12:16:40Z</time></trkpt><trkpt lat="40.54251759836551" lon="20.0039473745701"><ele>668.5</ele><time>2026-04-27T12:16:41Z</time></trkpt><trkpt lat="40.5426051185319" lon="20.003795261692552"><ele>672.25</ele><time>2026-04-27T12:16:42Z</time></trkpt><trkpt lat="40.54269566227345" lon="20.003635868575014"><ele>676.0</ele><time>2026-04-27T12:16:43Z</time></trkpt><trkpt lat="40.542796100829456" lon="20.003460372628105"><ele>670.3333333333334</ele><time>2026-04-27T12:16:44Z</time></trkpt><trkpt lat="40.542897941019014" lon="20.00328242259509"><ele>664.6666666666666</ele><time>2026-04-27T12:16:45Z</time></trkpt><trkpt lat="40.54298833123813" lon="20.003125711644994"><ele>659.0</ele><time>2026-04-27T12:16:46Z</time></trkpt><trkpt lat="40.543074157774285" lon="20.002974547921276"><ele>659.0</ele><time>2026-04-27T12:16:47Z</time></trkpt><trkpt lat="40.54312239426234" lon="20.002813803776228"><ele>659.0</ele><time>2026-04-27T12:16:48Z</time></trkpt><trkpt lat="40.54316493871449" lon="20.00269843503257"><ele>659.0</ele><time>2026-04-27T12:16:49Z</time></trkpt><trkpt lat="40.543194606816" lon="20.002617983631453"><ele>659.0</ele><time>2026-04-27T12:16:50Z</time></trkpt><trkpt lat="40.54324361013085" lon="20.002522944498573"><ele>659.0</ele><time>2026-04-27T12:16:52Z</time></trkpt><trkpt lat="40.54330564350287" lon="20.002416201091975"><ele>662.0</ele><time>2026-04-27T12:18:10Z</time></trkpt><trkpt lat="40.54343016640885" lon="20.002335517741297"><ele>665.0</ele><time>2026-04-27T12:18:12Z</time></trkpt><trkpt lat="40.543485269115415" lon="20.002266552317156"><ele>668.0</ele><time>2026-04-27T12:18:13Z</time></trkpt><trkpt lat="40.543528024460805" lon="20.002145443588827"><ele>671.0</ele><time>2026-04-27T12:18:14Z</time></trkpt><trkpt lat="40.543561707253474" lon="20.00205507272664"><ele>674.0</ele><time>2026-04-27T12:18:15Z</time></trkpt><trkpt lat="40.54357175435885" lon="20.001946810569347"><ele>674.0</ele><time>2026-04-27T12:18:16Z</time></trkpt><trkpt lat="40.54358712841713" lon="20.001837488164476"><ele>674.0</ele><time>2026-04-27T12:18:17Z</time></trkpt><trkpt lat="40.54358462008946" lon="20.00169982938644"><ele>674.0</ele><time>2026-04-27T12:18:18Z</time></trkpt><trkpt lat="40.5435737549888" lon="20.001580492422693"><ele>674.0</ele><time>2026-04-27T12:18:19Z</time></trkpt><trkpt lat="40.54353181634407" lon="20.001480243240653"><ele>674.0</ele><time>2026-04-27T12:18:20Z</time></trkpt><trkpt lat="40.543494698007855" lon="20.00134213505422"><ele>673.8000000000001</ele><time>2026-04-27T12:18:22Z</time></trkpt><trkpt lat="40.543485560722274" lon="20.001209271894183"><ele>673.6</ele><time>2026-04-27T12:18:24Z</time></trkpt><trkpt lat="40.54352434218894" lon="20.001070456109773"><ele>673.4</ele><time>2026-04-27T12:18:26Z</time></trkpt><trkpt lat="40.54359614385673" lon="20.001006428499398"><ele>673.2</ele><time>2026-04-27T12:18:28Z</time></trkpt><trkpt lat="40.543678720523" lon="20.000940666771935"><ele>673.0</ele><time>2026-04-27T12:18:30Z</time></trkpt><trkpt lat="40.54376183185978" lon="20.000931922429913"><ele>673.0</ele><time>2026-04-27T12:18:32Z</time></trkpt><trkpt lat="40.5438209225192" lon="20.000967064332666"><ele>673.0</ele><time>2026-04-27T12:18:34Z</time></trkpt><trkpt lat="40.54389175227174" lon="20.000998565804046"><ele>673.0</ele><time>2026-04-27T12:18:36Z</time></trkpt><trkpt lat="40.54396484387659" lon="20.00105769601817"><ele>673.0</ele><time>2026-04-27T12:18:39Z</time></trkpt><trkpt lat="40.54402957074517" lon="20.001075245552226"><ele>673.0</ele><time>2026-04-27T12:18:41Z</time></trkpt><trkpt lat="40.54413032098191" lon="20.001119946272972"><ele>673.0</ele><time>2026-04-27T12:18:44Z</time></trkpt><trkpt lat="40.54424093321961" lon="20.00112075197241"><ele>673.0</ele><time>2026-04-27T12:18:46Z</time></trkpt><trkpt lat="40.544299369433745" lon="20.001084996114724"><ele>673.0</ele><time>2026-04-27T12:18:47Z</time></trkpt><trkpt lat="40.54442794112043" lon="20.001109181668927"><ele>673.0</ele><time>2026-04-27T12:18:49Z</time></trkpt><trkpt lat="40.54449745020449" lon="20.001144195657997"><ele>673.0</ele><time>2026-04-27T12:18:50Z</time></trkpt><trkpt lat="40.544565729038034" lon="20.00120687210674"><ele>673.0</ele><time>2026-04-27T12:18:51Z</time></trkpt><trkpt lat="40.54461131523124" lon="20.00130308886278"><ele>673.0</ele><time>2026-04-27T12:18:52Z</time></trkpt><trkpt lat="40.544678511043216" lon="20.001374233424578"><ele>673.5999999999999</ele><time>2026-04-27T12:18:53Z</time></trkpt><trkpt lat="40.54476163052642" lon="20.001437431148446"><ele>674.1999999999999</ele><time>2026-04-27T12:18:54Z</time></trkpt><trkpt lat="40.54485036099921" lon="20.001450561770582"><ele>674.8</ele><time>2026-04-27T12:18:55Z</time></trkpt><trkpt lat="40.544915834853406" lon="20.001460526840454"><ele>675.4</ele><time>2026-04-27T12:18:56Z</time></trkpt><trkpt lat="40.545000627615444" lon="20.00138692252668"><ele>676.0</ele><time>2026-04-27T12:18:57Z</time></trkpt><trkpt lat="40.54509692117627" lon="20.0013557648211"><ele>676.0</ele><time>2026-04-27T12:18:58Z</time></trkpt><trkpt lat="40.545213507246444" lon="20.001322061877122"><ele>676.0</ele><time>2026-04-27T12:18:59Z</time></trkpt><trkpt lat="40.54533391808223" lon="20.001334978104232"><ele>676.0</ele><time>2026-04-27T12:19:00Z</time></trkpt><trkpt lat="40.54542480278789" lon="20.001338321243875"><ele>676.0</ele><time>2026-04-27T12:19:01Z</time></trkpt><trkpt lat="40.545513660287924" lon="20.00134158981365"><ele>676.0</ele><time>2026-04-27T12:19:02Z</time></trkpt><trkpt lat="40.5455984921011" lon="20.001236152282825"><ele>677.1999999999999</ele><time>2026-04-27T12:19:03Z</time></trkpt><trkpt lat="40.54566804646805" lon="20.001169274995426"><ele>678.4</ele><time>2026-04-27T12:19:04Z</time></trkpt><trkpt lat="40.54573975031711" lon="20.00110336760146"><ele>679.6</ele><time>2026-04-27T12:19:05Z</time></trkpt><trkpt lat="40.545809103971514" lon="20.001012557350418"><ele>680.8</ele><time>2026-04-27T12:19:06Z</time></trkpt><trkpt lat="40.545863777864376" lon="20.00088449933157"><ele>682.0</ele><time>2026-04-27T12:19:07Z</time></trkpt><trkpt lat="40.54590278115598" lon="20.000742488062706"><ele>682.0</ele><time>2026-04-27T12:19:08Z</time></trkpt><trkpt lat="40.54594533431601" lon="20.000568049045484"><ele>682.0</ele><time>2026-04-27T12:19:09Z</time></trkpt><trkpt lat="40.545977026296676" lon="20.000407274043297"><ele>682.0</ele><time>2026-04-27T12:19:10Z</time></trkpt><trkpt lat="40.5460031707638" lon="20.000245996322544"><ele>682.0</ele><time>2026-04-27T12:19:11Z</time></trkpt><trkpt lat="40.54601601624182" lon="20.000113301676173"><ele>682.0</ele><time>2026-04-27T12:19:12Z</time></trkpt><trkpt lat="40.54600481000076" lon="19.999970732789688"><ele>682.0</ele><time>2026-04-27T12:19:13Z</time></trkpt><trkpt lat="40.54595449227011" lon="19.999845134904753"><ele>682.0</ele><time>2026-04-27T12:19:14Z</time></trkpt><trkpt lat="40.54587455939058" lon="19.999748226543716"><ele>682.0</ele><time>2026-04-27T12:19:15Z</time></trkpt><trkpt lat="40.54581551520375" lon="19.99962251822493"><ele>682.0</ele><time>2026-04-27T12:19:16Z</time></trkpt><trkpt lat="40.545799573830124" lon="19.999494891746576"><ele>682.0</ele><time>2026-04-27T12:19:17Z</time></trkpt><trkpt lat="40.54579835405677" lon="19.999365753219017"><ele>682.0</ele><time>2026-04-27T12:19:18Z</time></trkpt><trkpt lat="40.54582129122286" lon="19.999230960467095"><ele>682.0</ele><time>2026-04-27T12:19:19Z</time></trkpt><trkpt lat="40.545838389110024" lon="19.999057921655094"><ele>682.0</ele><time>2026-04-27T12:19:20Z</time></trkpt><trkpt lat="40.54586173788694" lon="19.998870011479905"><ele>682.0</ele><time>2026-04-27T12:19:21Z</time></trkpt><trkpt lat="40.54588730621109" lon="19.998689395898914"><ele>682.0</ele><time>2026-04-27T12:19:22Z</time></trkpt><trkpt lat="40.54588245147442" lon="19.998498001999966"><ele>682.0</ele><time>2026-04-27T12:19:23Z</time></trkpt><trkpt lat="40.54589741095146" lon="19.998333756293583"><ele>682.0</ele><time>2026-04-27T12:19:24Z</time></trkpt><trkpt lat="40.5459087652076" lon="19.998201635647458"><ele>682.0</ele><time>2026-04-27T12:19:25Z</time></trkpt><trkpt lat="40.545923446660595" lon="19.998096874189965"><ele>682.0</ele><time>2026-04-27T12:19:26Z</time></trkpt><trkpt lat="40.54593860536405" lon="19.99798612716193"><ele>682.0</ele><time>2026-04-27T12:19:27Z</time></trkpt><trkpt lat="40.545946791239" lon="19.99788806840364"><ele>682.0</ele><time>2026-04-27T12:19:28Z</time></trkpt><trkpt lat="40.54595266509145" lon="19.997803238365464"><ele>682.0</ele><time>2026-04-27T12:19:29Z</time></trkpt><trkpt lat="40.5459349613718" lon="19.997681286771495"><ele>682.0</ele><time>2026-04-27T12:19:31Z</time></trkpt><trkpt lat="40.54589213549048" lon="19.997616739959824"><ele>682.0</ele><time>2026-04-27T12:19:33Z</time></trkpt><trkpt lat="40.54584130771334" lon="19.99754968607811"><ele>682.0</ele><time>2026-04-27T12:20:15Z</time></trkpt><trkpt lat="40.545756428789105" lon="19.997576103329045"><ele>682.0</ele><time>2026-04-27T12:20:16Z</time></trkpt><trkpt lat="40.545665296390105" lon="19.997606753907334"><ele>682.0</ele><time>2026-04-27T12:20:18Z</time></trkpt><trkpt lat="40.54555907849944" lon="19.99771182610433"><ele>682.0</ele><time>2026-04-27T12:20:20Z</time></trkpt><trkpt lat="40.545487537676756" lon="19.997797325709247"><ele>682.0</ele><time>2026-04-27T12:20:21Z</time></trkpt><trkpt lat="40.54541619803217" lon="19.997886925185657"><ele>682.0</ele><time>2026-04-27T12:20:22Z</time></trkpt><trkpt lat="40.54536009895495" lon="19.997975163082806"><ele>682.0</ele><time>2026-04-27T12:20:23Z</time></trkpt><trkpt lat="40.545317365712805" lon="19.998072925925495"><ele>682.0</ele><time>2026-04-27T12:20:24Z</time></trkpt><trkpt lat="40.54529421836253" lon="19.99816645158907"><ele>682.0</ele><time>2026-04-27T12:20:25Z</time></trkpt><trkpt lat="40.5452915743717" lon="19.998268944918884"><ele>682.0</ele><time>2026-04-27T12:20:26Z</time></trkpt><trkpt lat="40.545299345865935" lon="19.99838135128669"><ele>681.75</ele><time>2026-04-27T12:20:27Z</time></trkpt><trkpt lat="40.5453147313509" lon="19.998498820232946"><ele>681.5</ele><time>2026-04-27T12:20:28Z</time></trkpt><trkpt lat="40.545333963763035" lon="19.998618845444916"><ele>681.25</ele><time>2026-04-27T12:20:29Z</time></trkpt><trkpt lat="40.54536055716112" lon="19.998790870835574"><ele>681.0</ele><time>2026-04-27T12:20:30Z</time></trkpt><trkpt lat="40.54538631279391" lon="19.99898544743056"><ele>681.25</ele><time>2026-04-27T12:20:31Z</time></trkpt><trkpt lat="40.54539476717501" lon="19.999183256749305"><ele>681.5</ele><time>2026-04-27T12:20:32Z</time></trkpt><trkpt lat="40.545396245033466" lon="19.999372431210457"><ele>681.75</ele><time>2026-04-27T12:20:33Z</time></trkpt><trkpt lat="40.54539850767005" lon="19.999520866856212"><ele>682.0</ele><time>2026-04-27T12:20:34Z</time></trkpt><trkpt lat="40.54539621384378" lon="19.999642109687947"><ele>682.0</ele><time>2026-04-27T12:20:35Z</time></trkpt><trkpt lat="40.545387253262795" lon="19.999737920921177"><ele>682.0</ele><time>2026-04-27T12:20:36Z</time></trkpt><trkpt lat="40.545358896765215" lon="19.999826620682175"><ele>682.0</ele><time>2026-04-27T12:20:37Z</time></trkpt><trkpt lat="40.54532975669753" lon="19.999932652353422"><ele>682.0</ele><time>2026-04-27T12:20:38Z</time></trkpt><trkpt lat="40.54529086478455" lon="20.00000230447984"><ele>682.0</ele><time>2026-04-27T12:20:39Z</time></trkpt><trkpt lat="40.54518775152753" lon="19.99998887889317"><ele>682.0</ele><time>2026-04-27T12:20:40Z</time></trkpt><trkpt lat="40.54510126564318" lon="20.00000413231467"><ele>685.0</ele><time>2026-04-27T12:20:41Z</time></trkpt><trkpt lat="40.54501141085273" lon="19.999961715305265"><ele>688.0</ele><time>2026-04-27T12:20:42Z</time></trkpt><trkpt lat="40.544899213769206" lon="19.999926038104185"><ele>691.0</ele><time>2026-04-27T12:20:43Z</time></trkpt><trkpt lat="40.54477458981963" lon="19.999883055600122"><ele>694.0</ele><time>2026-04-27T12:20:44Z</time></trkpt><trkpt lat="40.54464126249887" lon="19.99984712128434"><ele>693.75</ele><time>2026-04-27T12:20:45Z</time></trkpt><trkpt lat="40.544511556158525" lon="19.999789604866244"><ele>693.5</ele><time>2026-04-27T12:20:46Z</time></trkpt><trkpt lat="40.544392161624074" lon="19.99972450366549"><ele>693.25</ele><time>2026-04-27T12:20:47Z</time></trkpt><trkpt lat="40.544278443821185" lon="19.99963838983261"><ele>693.0</ele><time>2026-04-27T12:20:48Z</time></trkpt><trkpt lat="40.5441729057621" lon="19.999532472334277"><ele>693.0</ele><time>2026-04-27T12:20:49Z</time></trkpt><trkpt lat="40.54407492225715" lon="19.99941513073787"><ele>693.0</ele><time>2026-04-27T12:20:50Z</time></trkpt><trkpt lat="40.54396982313792" lon="19.99929790421915"><ele>693.0</ele><time>2026-04-27T12:20:51Z</time></trkpt><trkpt lat="40.54385741743765" lon="19.999186892276555"><ele>693.0</ele><time>2026-04-27T12:20:52Z</time></trkpt><trkpt lat="40.54373317763232" lon="19.99909233066882"><ele>697.5</ele><time>2026-04-27T12:20:53Z</time></trkpt><trkpt lat="40.54363422236878" lon="19.998995772304855"><ele>702.0</ele><time>2026-04-27T12:20:54Z</time></trkpt><trkpt lat="40.54351260523112" lon="19.998966484009582"><ele>706.5</ele><time>2026-04-27T12:20:55Z</time></trkpt><trkpt lat="40.54338551368564" lon="19.998935533528655"><ele>711.0</ele><time>2026-04-27T12:20:56Z</time></trkpt><trkpt lat="40.54324268112946" lon="19.998917400390592"><ele>711.0</ele><time>2026-04-27T12:20:57Z</time></trkpt><trkpt lat="40.543096890338674" lon="19.998908046701082"><ele>711.0</ele><time>2026-04-27T12:20:58Z</time></trkpt><trkpt lat="40.54296874290418" lon="19.998889107822595"><ele>711.0</ele><time>2026-04-27T12:20:59Z</time></trkpt><trkpt lat="40.54284464681354" lon="19.998863018014664"><ele>711.0</ele><time>2026-04-27T12:21:00Z</time></trkpt><trkpt lat="40.54272996424249" lon="19.998862364870195"><ele>712.1999999999999</ele><time>2026-04-27T12:21:01Z</time></trkpt><trkpt lat="40.54262666090509" lon="19.99889213787788"><ele>713.4</ele><time>2026-04-27T12:21:02Z</time></trkpt><trkpt lat="40.54253476401767" lon="19.998935451021417"><ele>714.6</ele><time>2026-04-27T12:21:03Z</time></trkpt><trkpt lat="40.54245583977784" lon="19.998988775983417"><ele>715.8</ele><time>2026-04-27T12:21:04Z</time></trkpt><trkpt lat="40.542373717852186" lon="19.999067118736395"><ele>717.0</ele><time>2026-04-27T12:21:05Z</time></trkpt><trkpt lat="40.54229999513518" lon="19.999168228079668"><ele>717.0</ele><time>2026-04-27T12:21:06Z</time></trkpt><trkpt lat="40.542232863612085" lon="19.99929029299218"><ele>717.0</ele><time>2026-04-27T12:21:07Z</time></trkpt><trkpt lat="40.54217710899929" lon="19.999406207080145"><ele>717.0</ele><time>2026-04-27T12:21:08Z</time></trkpt><trkpt lat="40.5421450481974" lon="19.99949988549061"><ele>717.0</ele><time>2026-04-27T12:21:09Z</time></trkpt><trkpt lat="40.54213394307216" lon="19.99967399369595"><ele>717.0</ele><time>2026-04-27T12:21:11Z</time></trkpt><trkpt lat="40.542141995018234" lon="19.999780279117143"><ele>717.0</ele><time>2026-04-27T12:21:12Z</time></trkpt><trkpt lat="40.54216347972708" lon="19.99988868287302"><ele>717.0</ele><time>2026-04-27T12:21:13Z</time></trkpt><trkpt lat="40.54220909817291" lon="19.99996701177399"><ele>717.0</ele><time>2026-04-27T12:21:14Z</time></trkpt><trkpt lat="40.542263857477614" lon="20.00002575439964"><ele>717.0</ele><time>2026-04-27T12:21:15Z</time></trkpt><trkpt lat="40.54234542452152" lon="20.00007224461237"><ele>717.0</ele><time>2026-04-27T12:21:16Z</time></trkpt><trkpt lat="40.54240816251688" lon="20.00010864459361"><ele>717.0</ele><time>2026-04-27T12:21:17Z</time></trkpt><trkpt lat="40.54245026825912" lon="20.00024259565825"><ele>717.0</ele><time>2026-04-27T12:21:19Z</time></trkpt><trkpt lat="40.5423787030493" lon="20.00036217697724"><ele>717.0</ele><time>2026-04-27T12:21:21Z</time></trkpt><trkpt lat="40.54228361525088" lon="20.00038818222626"><ele>717.0</ele><time>2026-04-27T12:21:23Z</time></trkpt><trkpt lat="40.54216269129189" lon="20.000374474337985"><ele>717.0</ele><time>2026-04-27T12:21:25Z</time></trkpt><trkpt lat="40.54208431391351" lon="20.00036445418057"><ele>717.0</ele><time>2026-04-27T12:21:26Z</time></trkpt><trkpt lat="40.54201997690104" lon="20.00035134845427"><ele>720.8</ele><time>2026-04-27T12:21:27Z</time></trkpt><trkpt lat="40.54189816331392" lon="20.000430536599872"><ele>724.6</ele><time>2026-04-27T12:21:29Z</time></trkpt><trkpt lat="40.54184246009727" lon="20.00051391021553"><ele>728.4</ele><time>2026-04-27T12:21:30Z</time></trkpt><trkpt lat="40.54178725674333" lon="20.000654915890813"><ele>732.1999999999999</ele><time>2026-04-27T12:21:32.001Z</time></trkpt><trkpt lat="40.54175955192047" lon="20.00074447164162"><ele>736.0</ele><time>2026-04-27T12:21:35.001Z</time></trkpt><trkpt lat="40.541733514407355" lon="20.000851776594075"><ele>736.0</ele><time>2026-04-27T12:21:51Z</time></trkpt><trkpt lat="40.54169464709377" lon="20.000987236812183"><ele>736.0</ele><time>2026-04-27T12:21:53Z</time></trkpt><trkpt lat="40.541606526881814" lon="20.001106029566976"><ele>736.0</ele><time>2026-04-27T12:21:55Z</time></trkpt><trkpt lat="40.54154033222048" lon="20.00116369959409"><ele>736.0</ele><time>2026-04-27T12:21:56Z</time></trkpt><trkpt lat="40.54145767892559" lon="20.001249556387297"><ele>736.0</ele><time>2026-04-27T12:21:57Z</time></trkpt><trkpt lat="40.54139017434344" lon="20.001365207010547"><ele>736.0</ele><time>2026-04-27T12:21:58Z</time></trkpt><trkpt lat="40.54132703168849" lon="20.001497696933516"><ele>736.0</ele><time>2026-04-27T12:21:59Z</time></trkpt><trkpt lat="40.54126402674952" lon="20.001627534536105"><ele>736.0</ele><time>2026-04-27T12:22:00Z</time></trkpt><trkpt lat="40.54123488023536" lon="20.00177203975185"><ele>736.0</ele><time>2026-04-27T12:22:01Z</time></trkpt><trkpt lat="40.54119820909476" lon="20.001904080797402"><ele>743.5</ele><time>2026-04-27T12:22:02Z</time></trkpt><trkpt lat="40.5411619770852" lon="20.002043394672693"><ele>751.0</ele><time>2026-04-27T12:22:03Z</time></trkpt><trkpt lat="40.541135583725115" lon="20.002192604590864"><ele>758.5</ele><time>2026-04-27T12:22:04Z</time></trkpt><trkpt lat="40.54112103570129" lon="20.002349559967502"><ele>766.0</ele><time>2026-04-27T12:22:05Z</time></trkpt><trkpt lat="40.541103882027684" lon="20.002486124610936"><ele>764.0</ele><time>2026-04-27T12:22:06Z</time></trkpt><trkpt lat="40.54107510528844" lon="20.002599350424507"><ele>762.0</ele><time>2026-04-27T12:22:07Z</time></trkpt><trkpt lat="40.54105616045494" lon="20.00270422145466"><ele>760.0</ele><time>2026-04-27T12:22:08Z</time></trkpt><trkpt lat="40.54102608176282" lon="20.002823904855862"><ele>758.0</ele><time>2026-04-27T12:22:09Z</time></trkpt><trkpt lat="40.540975258673924" lon="20.00290726449893"><ele>756.0</ele><time>2026-04-27T12:22:10Z</time></trkpt><trkpt lat="40.540868363933946" lon="20.002918813214475"><ele>756.0</ele><time>2026-04-27T12:22:11Z</time></trkpt><trkpt lat="40.540776084563376" lon="20.00290439096252"><ele>756.0</ele><time>2026-04-27T12:22:12Z</time></trkpt><trkpt lat="40.54068840595159" lon="20.002839050996986"><ele>756.0</ele><time>2026-04-27T12:22:13Z</time></trkpt><trkpt lat="40.54054306516815" lon="20.00284973594146"><ele>756.0</ele><time>2026-04-27T12:22:14Z</time></trkpt><trkpt lat="40.54040197960914" lon="20.002918837827412"><ele>759.5</ele><time>2026-04-27T12:22:15Z</time></trkpt><trkpt lat="40.54029020300467" lon="20.003062438733927"><ele>763.0</ele><time>2026-04-27T12:22:16Z</time></trkpt><trkpt lat="40.540174044536684" lon="20.003102236175785"><ele>766.5</ele><time>2026-04-27T12:22:17Z</time></trkpt><trkpt lat="40.54005747388001" lon="20.003164767319966"><ele>770.0</ele><time>2026-04-27T12:22:18Z</time></trkpt><trkpt lat="40.53992487951388" lon="20.003214445800413"><ele>770.0</ele><time>2026-04-27T12:22:19Z</time></trkpt><trkpt lat="40.53979013025879" lon="20.003212132253456"><ele>770.0</ele><time>2026-04-27T12:22:20Z</time></trkpt><trkpt lat="40.53965431696866" lon="20.003220785448104"><ele>770.0</ele><time>2026-04-27T12:22:21Z</time></trkpt><trkpt lat="40.53951220815594" lon="20.003229886744617"><ele>770.0</ele><time>2026-04-27T12:22:22Z</time></trkpt><trkpt lat="40.53937150964738" lon="20.003238747383694"><ele>770.5</ele><time>2026-04-27T12:22:23Z</time></trkpt><trkpt lat="40.5392367476003" lon="20.003226029549246"><ele>771.0</ele><time>2026-04-27T12:22:24Z</time></trkpt><trkpt lat="40.53909680859102" lon="20.00318529026693"><ele>771.5</ele><time>2026-04-27T12:22:25Z</time></trkpt><trkpt lat="40.53894732855327" lon="20.003186584227215"><ele>772.0</ele><time>2026-04-27T12:22:26Z</time></trkpt><trkpt lat="40.53880960371742" lon="20.00323250476496"><ele>772.25</ele><time>2026-04-27T12:22:27Z</time></trkpt><trkpt lat="40.53868110644802" lon="20.003255554775897"><ele>772.5</ele><time>2026-04-27T12:22:28Z</time></trkpt><trkpt lat="40.538554492467235" lon="20.00327963058385"><ele>772.75</ele><time>2026-04-27T12:22:29Z</time></trkpt><trkpt lat="40.538449691537195" lon="20.003299598291292"><ele>773.0</ele><time>2026-04-27T12:22:30Z</time></trkpt><trkpt lat="40.538346332471846" lon="20.003340816284034"><ele>773.0</ele><time>2026-04-27T12:22:31Z</time></trkpt><trkpt lat="40.53824841193431" lon="20.00336878239845"><ele>773.0</ele><time>2026-04-27T12:22:32Z</time></trkpt><trkpt lat="40.53817119969572" lon="20.003445260218836"><ele>773.0</ele><time>2026-04-27T12:22:33Z</time></trkpt><trkpt lat="40.53810473602235" lon="20.00350158905157"><ele>773.0</ele><time>2026-04-27T12:22:34Z</time></trkpt><trkpt lat="40.53808397938502" lon="20.003679445329936"><ele>773.0</ele><time>2026-04-27T12:22:35Z</time></trkpt><trkpt lat="40.53803645154244" lon="20.003811842200165"><ele>773.0000000000001</ele><time>2026-04-27T12:22:36Z</time></trkpt><trkpt lat="40.537990860377" lon="20.003924759506344"><ele>773.0</ele><time>2026-04-27T12:22:37Z</time></trkpt><trkpt lat="40.537944737654186" lon="20.004007466291796"><ele>773.0</ele><time>2026-04-27T12:22:38Z</time></trkpt><trkpt lat="40.5378336680585" lon="20.004080692873472"><ele>773.0</ele><time>2026-04-27T12:22:40Z</time></trkpt><trkpt lat="40.53776598724764" lon="20.004086153191743"><ele>773.0000000000001</ele><time>2026-04-27T12:22:41Z</time></trkpt><trkpt lat="40.53768893753663" lon="20.00408589496043"><ele>773.0</ele><time>2026-04-27T12:22:42Z</time></trkpt><trkpt lat="40.53760068203408" lon="20.004055354716158"><ele>776.25</ele><time>2026-04-27T12:22:43Z</time></trkpt><trkpt lat="40.537508086429725" lon="20.00403134586628"><ele>779.5</ele><time>2026-04-27T12:22:44Z</time></trkpt><trkpt lat="40.537387786046715" lon="20.003997353634748"><ele>782.75</ele><time>2026-04-27T12:22:45Z</time></trkpt><trkpt lat="40.53727057383812" lon="20.0040026651561"><ele>786.0</ele><time>2026-04-27T12:22:46Z</time></trkpt><trkpt lat="40.53714404854152" lon="20.004037263237244"><ele>789.0</ele><time>2026-04-27T12:22:47Z</time></trkpt><trkpt lat="40.53702443840572" lon="20.004085051728744"><ele>792.0</ele><time>2026-04-27T12:22:48Z</time></trkpt><trkpt lat="40.53688382872197" lon="20.004105402417547"><ele>795.0</ele><time>2026-04-27T12:22:49Z</time></trkpt><trkpt lat="40.536744101678345" lon="20.004081432989246"><ele>798.0</ele><time>2026-04-27T12:22:50Z</time></trkpt><trkpt lat="40.53658066002432" lon="20.0040199383029"><ele>798.0</ele><time>2026-04-27T12:22:51Z</time></trkpt><trkpt lat="40.536455393492275" lon="20.00402146665441"><ele>798.0</ele><time>2026-04-27T12:22:52Z</time></trkpt><trkpt lat="40.53633904034125" lon="20.004078903143515"><ele>798.0</ele><time>2026-04-27T12:22:53Z</time></trkpt><trkpt lat="40.53623930636287" lon="20.00417870126125"><ele>798.0</ele><time>2026-04-27T12:22:54Z</time></trkpt><trkpt lat="40.536126906558394" lon="20.00424741886668"><ele>796.0</ele><time>2026-04-27T12:22:55Z</time></trkpt><trkpt lat="40.53603179277651" lon="20.00427604094875"><ele>794.0</ele><time>2026-04-27T12:22:56Z</time></trkpt><trkpt lat="40.535958672349125" lon="20.004277166868736"><ele>792.0</ele><time>2026-04-27T12:22:57Z</time></trkpt><trkpt lat="40.5358705651639" lon="20.004269315252564"><ele>790.0</ele><time>2026-04-27T12:22:58Z</time></trkpt><trkpt lat="40.53575747599848" lon="20.00426713336573"><ele>788.0</ele><time>2026-04-27T12:22:59Z</time></trkpt><trkpt lat="40.53563947083992" lon="20.004232594429883"><ele>788.0</ele><time>2026-04-27T12:23:00Z</time></trkpt><trkpt lat="40.53552987429193" lon="20.00420027941201"><ele>788.0</ele><time>2026-04-27T12:23:01Z</time></trkpt><trkpt lat="40.535447483218434" lon="20.004154647291177"><ele>788.0</ele><time>2026-04-27T12:23:02Z</time></trkpt><trkpt lat="40.53536188390209" lon="20.0041058321055"><ele>788.0</ele><time>2026-04-27T12:23:03Z</time></trkpt><trkpt lat="40.53529763328885" lon="20.00402890790547"><ele>788.0</ele><time>2026-04-27T12:23:04Z</time></trkpt><trkpt lat="40.5352372133613" lon="20.0039548060947"><ele>790.5000000000001</ele><time>2026-04-27T12:23:05Z</time></trkpt><trkpt lat="40.53518484921299" lon="20.00386872433294"><ele>793.0</ele><time>2026-04-27T12:23:06Z</time></trkpt><trkpt lat="40.53514285307433" lon="20.0037918279876"><ele>795.5</ele><time>2026-04-27T12:23:07Z</time></trkpt><trkpt lat="40.53511288566383" lon="20.00365167813237"><ele>798.0</ele><time>2026-04-27T12:23:09Z</time></trkpt><trkpt lat="40.535134567396646" lon="20.003558179820363"><ele>800.5000000000001</ele><time>2026-04-27T12:23:10Z</time></trkpt><trkpt lat="40.53516533750873" lon="20.00346461563356"><ele>803.0</ele><time>2026-04-27T12:23:11Z</time></trkpt><trkpt lat="40.535244526607" lon="20.00343317944034"><ele>803.0000000000001</ele><time>2026-04-27T12:23:12Z</time></trkpt><trkpt lat="40.535309372789214" lon="20.00343023182288"><ele>803.0</ele><time>2026-04-27T12:23:13Z</time></trkpt><trkpt lat="40.53536807567426" lon="20.003396110897206"><ele>803.0</ele><time>2026-04-27T12:23:14Z</time></trkpt><trkpt lat="40.53547862568378" lon="20.00344062890757"><ele>803.0</ele><time>2026-04-27T12:23:16Z</time></trkpt><trkpt lat="40.535562516026076" lon="20.00344862792203"><ele>803.0000000000001</ele><time>2026-04-27T12:23:17Z</time></trkpt><trkpt lat="40.53567581166384" lon="20.003459856716244"><ele>803.0</ele><time>2026-04-27T12:23:18Z</time></trkpt><trkpt lat="40.53581092757941" lon="20.00348195158361"><ele>802.25</ele><time>2026-04-27T12:23:19Z</time></trkpt><trkpt lat="40.53593030666344" lon="20.00350130031791"><ele>801.5</ele><time>2026-04-27T12:23:20Z</time></trkpt><trkpt lat="40.53604788340623" lon="20.003489670174066"><ele>800.75</ele><time>2026-04-27T12:23:21Z</time></trkpt><trkpt lat="40.53616270196363" lon="20.003433862729825"><ele>800.0</ele><time>2026-04-27T12:23:22Z</time></trkpt><trkpt lat="40.53625833229042" lon="20.003335946932726"><ele>803.4</ele><time>2026-04-27T12:23:23Z</time></trkpt><trkpt lat="40.536357877662745" lon="20.00326504437874"><ele>806.8</ele><time>2026-04-27T12:23:24Z</time></trkpt><trkpt lat="40.53645507526715" lon="20.003185989591916"><ele>810.2</ele><time>2026-04-27T12:23:25Z</time></trkpt><trkpt lat="40.53653363639673" lon="20.003118975290548"><ele>813.6</ele><time>2026-04-27T12:23:26Z</time></trkpt><trkpt lat="40.53660324511843" lon="20.003060179280855"><ele>817.0</ele><time>2026-04-27T12:23:27Z</time></trkpt><trkpt lat="40.53667183346723" lon="20.00302056598279"><ele>816.9999999999999</ele><time>2026-04-27T12:23:28Z</time></trkpt><trkpt lat="40.536734246924624" lon="20.00300343864209"><ele>817.0</ele><time>2026-04-27T12:23:29Z</time></trkpt><trkpt lat="40.536841260179" lon="20.003008616946612"><ele>817.0</ele><time>2026-04-27T12:23:31Z</time></trkpt><trkpt lat="40.53693839113816" lon="20.002970224900977"><ele>817.0</ele><time>2026-04-27T12:23:33Z</time></trkpt><trkpt lat="40.53700343235246" lon="20.002937055509484"><ele>816.9999999999999</ele><time>2026-04-27T12:23:35Z</time></trkpt><trkpt lat="40.53707742666436" lon="20.00290512248875"><ele>817.0</ele><time>2026-04-27T12:23:37Z</time></trkpt><trkpt lat="40.53713080565585" lon="20.002776178408805"><ele>818.6666666666666</ele><time>2026-04-27T12:23:39Z</time></trkpt><trkpt lat="40.53716409637725" lon="20.002687359391214"><ele>820.3333333333333</ele><time>2026-04-27T12:23:40Z</time></trkpt><trkpt lat="40.53721861205368" lon="20.002593303502273"><ele>822.0</ele><time>2026-04-27T12:23:41Z</time></trkpt><trkpt lat="40.53725788029573" lon="20.002493929946006"><ele>823.6666666666667</ele><time>2026-04-27T12:23:42Z</time></trkpt><trkpt lat="40.53729245049764" lon="20.00238833378815"><ele>825.3333333333334</ele><time>2026-04-27T12:23:43Z</time></trkpt><trkpt lat="40.537357936210455" lon="20.002286501676796"><ele>827.0</ele><time>2026-04-27T12:23:44Z</time></trkpt><trkpt lat="40.537437586226886" lon="20.002193696812892"><ele>827.0</ele><time>2026-04-27T12:23:45Z</time></trkpt><trkpt lat="40.53752042261734" lon="20.002084234380902"><ele>827.0</ele><time>2026-04-27T12:23:46Z</time></trkpt><trkpt lat="40.53762269453986" lon="20.001949243280947"><ele>827.0</ele><time>2026-04-27T12:23:47Z</time></trkpt><trkpt lat="40.5377427051344" lon="20.0018006263515"><ele>827.0</ele><time>2026-04-27T12:23:48Z</time></trkpt><trkpt lat="40.537886459703905" lon="20.00166429487921"><ele>826.75</ele><time>2026-04-27T12:23:49Z</time></trkpt><trkpt lat="40.53799078874117" lon="20.001534972628082"><ele>826.5</ele><time>2026-04-27T12:23:50Z</time></trkpt><trkpt lat="40.538076203507856" lon="20.001428132873528"><ele>826.25</ele><time>2026-04-27T12:23:51Z</time></trkpt><trkpt lat="40.538159016724464" lon="20.001325134944988"><ele>826.0</ele><time>2026-04-27T12:23:52Z</time></trkpt><trkpt lat="40.53825050599697" lon="20.00121036915237"><ele>826.0</ele><time>2026-04-27T12:23:53Z</time></trkpt><trkpt lat="40.5383623112497" lon="20.001128257569118"><ele>826.0</ele><time>2026-04-27T12:23:54Z</time></trkpt><trkpt lat="40.538472743215266" lon="20.001020465423842"><ele>826.0</ele><time>2026-04-27T12:23:55Z</time></trkpt><trkpt lat="40.53859277569699" lon="20.000900423985364"><ele>826.0</ele><time>2026-04-27T12:23:56Z</time></trkpt><trkpt lat="40.53870549995292" lon="20.000749762174642"><ele>822.75</ele><time>2026-04-27T12:23:57Z</time></trkpt><trkpt lat="40.53883226717754" lon="20.00063159766717"><ele>819.5</ele><time>2026-04-27T12:23:58Z</time></trkpt><trkpt lat="40.53894108787189" lon="20.00050521379634"><ele>816.25</ele><time>2026-04-27T12:23:59Z</time></trkpt><trkpt lat="40.53904972096503" lon="20.00038217641612"><ele>813.0</ele><time>2026-04-27T12:24:00Z</time></trkpt><trkpt lat="40.53915957835218" lon="20.000258397009233"><ele>813.0</ele><time>2026-04-27T12:24:01Z</time></trkpt><trkpt lat="40.53929197258378" lon="20.000107113235803"><ele>813.0</ele><time>2026-04-27T12:24:02Z</time></trkpt><trkpt lat="40.539431247956415" lon="19.999931454180324"><ele>813.0</ele><time>2026-04-27T12:24:03Z</time></trkpt><trkpt lat="40.53954419552879" lon="19.999779583193067"><ele>805.0</ele><time>2026-04-27T12:24:04Z</time></trkpt><trkpt lat="40.53963863307569" lon="19.999646776124948"><ele>797.0</ele><time>2026-04-27T12:24:05Z</time></trkpt><trkpt lat="40.53973887115195" lon="19.999507482299816"><ele>789.0</ele><time>2026-04-27T12:24:06Z</time></trkpt><trkpt lat="40.539829227883146" lon="19.999359762656233"><ele>781.0</ele><time>2026-04-27T12:24:07Z</time></trkpt><trkpt lat="40.53993693050941" lon="19.999276297060867"><ele>781.0</ele><time>2026-04-27T12:24:08Z</time></trkpt><trkpt lat="40.54003348410402" lon="19.999186121719664"><ele>781.0</ele><time>2026-04-27T12:24:09Z</time></trkpt><trkpt lat="40.54012174568299" lon="19.99910638658548"><ele>781.0</ele><time>2026-04-27T12:24:10Z</time></trkpt><trkpt lat="40.540207957078216" lon="19.999028698732072"><ele>781.0</ele><time>2026-04-27T12:24:11Z</time></trkpt><trkpt lat="40.540286204239194" lon="19.998973816980776"><ele>781.0</ele><time>2026-04-27T12:24:12Z</time></trkpt><trkpt lat="40.540369760972546" lon="19.99892595753221"><ele>782.0</ele><time>2026-04-27T12:24:13Z</time></trkpt><trkpt lat="40.54045365738932" lon="19.998896593327178"><ele>783.0</ele><time>2026-04-27T12:24:14Z</time></trkpt><trkpt lat="40.54056902474305" lon="19.998843498240053"><ele>784.0</ele><time>2026-04-27T12:24:15Z</time></trkpt><trkpt lat="40.540689111303344" lon="19.998771337684186"><ele>785.0</ele><time>2026-04-27T12:24:16Z</time></trkpt><trkpt lat="40.540792396572655" lon="19.998701518182436"><ele>785.0</ele><time>2026-04-27T12:24:17Z</time></trkpt><trkpt lat="40.54090560522513" lon="19.99862518648585"><ele>785.0</ele><time>2026-04-27T12:24:18Z</time></trkpt><trkpt lat="40.54101436046971" lon="19.998483311771356"><ele>785.0</ele><time>2026-04-27T12:24:19Z</time></trkpt><trkpt lat="40.54109754296748" lon="19.998370869948644"><ele>785.0</ele><time>2026-04-27T12:24:20Z</time></trkpt><trkpt lat="40.54117626789063" lon="19.998244705847192"><ele>783.0</ele><time>2026-04-27T12:24:21Z</time></trkpt><trkpt lat="40.54124705505925" lon="19.998118762304134"><ele>781.0</ele><time>2026-04-27T12:24:22Z</time></trkpt><trkpt lat="40.541306871142595" lon="19.997980899114722"><ele>779.0</ele><time>2026-04-27T12:24:23Z</time></trkpt><trkpt lat="40.54133875993715" lon="19.99781708271287"><ele>777.0</ele><time>2026-04-27T12:24:24Z</time></trkpt><trkpt lat="40.54136115634965" lon="19.997676737479686"><ele>777.0</ele><time>2026-04-27T12:24:25Z</time></trkpt><trkpt lat="40.541315548515115" lon="19.99754578187117"><ele>777.0</ele><time>2026-04-27T12:24:26Z</time></trkpt><trkpt lat="40.54130792735701" lon="19.997424965040253"><ele>777.0</ele><time>2026-04-27T12:24:27Z</time></trkpt><trkpt lat="40.54129214089053" lon="19.99728683823762"><ele>777.0</ele><time>2026-04-27T12:24:28Z</time></trkpt><trkpt lat="40.54127721943913" lon="19.99712766224789"><ele>777.0</ele><time>2026-04-27T12:24:29Z</time></trkpt><trkpt lat="40.541261002470755" lon="19.99695923705604"><ele>781.25</ele><time>2026-04-27T12:24:30Z</time></trkpt><trkpt lat="40.5412442192625" lon="19.99677568366576"><ele>785.5</ele><time>2026-04-27T12:24:31Z</time></trkpt><trkpt lat="40.54123117897347" lon="19.99659184181784"><ele>789.75</ele><time>2026-04-27T12:24:32Z</time></trkpt><trkpt lat="40.54122179956262" lon="19.996417912375268"><ele>794.0</ele><time>2026-04-27T12:24:33Z</time></trkpt><trkpt lat="40.54121104999301" lon="19.99626899594216"><ele>799.0000000000001</ele><time>2026-04-27T12:24:34Z</time></trkpt><trkpt lat="40.541205744752375" lon="19.9961221911626"><ele>804.0</ele><time>2026-04-27T12:24:35Z</time></trkpt><trkpt lat="40.541212815414035" lon="19.995996016604114"><ele>809.0</ele><time>2026-04-27T12:24:36Z</time></trkpt><trkpt lat="40.5412131671719" lon="19.99588773328209"><ele>814.0</ele><time>2026-04-27T12:24:37Z</time></trkpt><trkpt lat="40.54121650860267" lon="19.995790261578204"><ele>819.0000000000001</ele><time>2026-04-27T12:24:38Z</time></trkpt><trkpt lat="40.541184028436476" lon="19.995687028366742"><ele>824.0</ele><time>2026-04-27T12:24:39Z</time></trkpt><trkpt lat="40.54114047067282" lon="19.99559078883123"><ele>824.4000000000001</ele><time>2026-04-27T12:24:40Z</time></trkpt><trkpt lat="40.54104351670114" lon="19.995524247461265"><ele>824.8</ele><time>2026-04-27T12:24:41Z</time></trkpt><trkpt lat="40.54097197478019" lon="19.995452724997918"><ele>825.2</ele><time>2026-04-27T12:24:42Z</time></trkpt><trkpt lat="40.54090327179187" lon="19.995393860184258"><ele>825.5999999999999</ele><time>2026-04-27T12:24:43Z</time></trkpt><trkpt lat="40.54083749061244" lon="19.99533960060806"><ele>826.0</ele><time>2026-04-27T12:24:44Z</time></trkpt><trkpt lat="40.54075691609718" lon="19.99527850041038"><ele>826.0</ele><time>2026-04-27T12:24:45Z</time></trkpt><trkpt lat="40.54066829124033" lon="19.9952160789111"><ele>826.0</ele><time>2026-04-27T12:24:46Z</time></trkpt><trkpt lat="40.54058215217506" lon="19.995158786340628"><ele>826.0</ele><time>2026-04-27T12:24:47Z</time></trkpt><trkpt lat="40.54050659495115" lon="19.995117976721993"><ele>826.0</ele><time>2026-04-27T12:24:48Z</time></trkpt><trkpt lat="40.54042439223287" lon="19.995077474605463"><ele>826.0</ele><time>2026-04-27T12:24:49Z</time></trkpt><trkpt lat="40.54032406508077" lon="19.995025770971537"><ele>822.4</ele><time>2026-04-27T12:24:50Z</time></trkpt><trkpt lat="40.540231161563646" lon="19.994981640789025"><ele>818.8</ele><time>2026-04-27T12:24:51Z</time></trkpt><trkpt lat="40.54015108099643" lon="19.9949427179414"><ele>815.1999999999999</ele><time>2026-04-27T12:24:52Z</time></trkpt><trkpt lat="40.540074584748446" lon="19.99490419532003"><ele>811.5999999999999</ele><time>2026-04-27T12:24:53Z</time></trkpt><trkpt lat="40.53999751411929" lon="19.994832847257832"><ele>808.0</ele><time>2026-04-27T12:24:54Z</time></trkpt><trkpt lat="40.53990861645967" lon="19.99480481838119"><ele>808.0</ele><time>2026-04-27T12:24:55Z</time></trkpt><trkpt lat="40.53981373845175" lon="19.994780212225542"><ele>808.0</ele><time>2026-04-27T12:24:56Z</time></trkpt><trkpt lat="40.539707371263894" lon="19.99475895897811"><ele>808.0</ele><time>2026-04-27T12:24:57Z</time></trkpt><trkpt lat="40.53958952173844" lon="19.994756525322668"><ele>808.0</ele><time>2026-04-27T12:24:58Z</time></trkpt><trkpt lat="40.53947359859042" lon="19.994729271158945"><ele>808.0</ele><time>2026-04-27T12:24:59Z</time></trkpt><trkpt lat="40.53936833168684" lon="19.99470641025809"><ele>808.75</ele><time>2026-04-27T12:25:00Z</time></trkpt><trkpt lat="40.53924998515138" lon="19.99469789972591"><ele>809.5</ele><time>2026-04-27T12:25:01Z</time></trkpt><trkpt lat="40.5391285893134" lon="19.994696905979797"><ele>810.25</ele><time>2026-04-27T12:25:02Z</time></trkpt><trkpt lat="40.53902150502859" lon="19.99470085872859"><ele>811.0</ele><time>2026-04-27T12:25:03Z</time></trkpt><trkpt lat="40.53891090667218" lon="19.994699385800068"><ele>811.0</ele><time>2026-04-27T12:25:04Z</time></trkpt><trkpt lat="40.538788522552295" lon="19.994697343883153"><ele>811.0</ele><time>2026-04-27T12:25:05Z</time></trkpt><trkpt lat="40.53867527288868" lon="19.994704707058613"><ele>811.0</ele><time>2026-04-27T12:25:06Z</time></trkpt><trkpt lat="40.53856994955654" lon="19.994717792806956"><ele>811.0</ele><time>2026-04-27T12:25:07Z</time></trkpt><trkpt lat="40.53846614307651" lon="19.994735955512407"><ele>811.0</ele><time>2026-04-27T12:25:08Z</time></trkpt><trkpt lat="40.5383690751389" lon="19.994754987667218"><ele>809.8</ele><time>2026-04-27T12:25:09Z</time></trkpt><trkpt lat="40.53827950582171" lon="19.99477563711586"><ele>808.5999999999999</ele><time>2026-04-27T12:25:10Z</time></trkpt><trkpt lat="40.53818162799262" lon="19.994806252265622"><ele>807.4</ele><time>2026-04-27T12:25:11Z</time></trkpt><trkpt lat="40.53808420850911" lon="19.994841982077254"><ele>806.2</ele><time>2026-04-27T12:25:12Z</time></trkpt><trkpt lat="40.53799890008643" lon="19.994871588676926"><ele>805.0</ele><time>2026-04-27T12:25:13Z</time></trkpt><trkpt lat="40.53792480829748" lon="19.994903268970102"><ele>804.3333333333333</ele><time>2026-04-27T12:25:14Z</time></trkpt><trkpt lat="40.53783840931547" lon="19.994928165542742"><ele>803.6666666666666</ele><time>2026-04-27T12:25:15Z</time></trkpt><trkpt lat="40.5377573681509" lon="19.99493292139016"><ele>803.0</ele><time>2026-04-27T12:25:16Z</time></trkpt><trkpt lat="40.53768793664677" lon="19.99491445437855"><ele>802.3333333333333</ele><time>2026-04-27T12:25:17Z</time></trkpt><trkpt lat="40.53761749084696" lon="19.99487775168816"><ele>801.6666666666666</ele><time>2026-04-27T12:25:18Z</time></trkpt><trkpt lat="40.53753740274628" lon="19.99482758655831"><ele>801.0</ele><time>2026-04-27T12:25:19Z</time></trkpt><trkpt lat="40.53747425894572" lon="19.994777641044156"><ele>801.0</ele><time>2026-04-27T12:25:20Z</time></trkpt><trkpt lat="40.537418230524054" lon="19.994723131213533"><ele>801.0</ele><time>2026-04-27T12:25:21Z</time></trkpt><trkpt lat="40.53736651053085" lon="19.994653191900966"><ele>801.0</ele><time>2026-04-27T12:25:22Z</time></trkpt><trkpt lat="40.53730477518264" lon="19.994592921012693"><ele>801.0</ele><time>2026-04-27T12:25:23Z</time></trkpt><trkpt lat="40.537224270097475" lon="19.994553693230507"><ele>801.0</ele><time>2026-04-27T12:25:24Z</time></trkpt><trkpt lat="40.53713968317877" lon="19.99452140698112"><ele>801.0</ele><time>2026-04-27T12:25:25Z</time></trkpt><trkpt lat="40.53703554732396" lon="19.994495406409737"><ele>802.5</ele><time>2026-04-27T12:25:26Z</time></trkpt><trkpt lat="40.53691826671377" lon="19.994472103330736"><ele>804.0</ele><time>2026-04-27T12:25:27Z</time></trkpt><trkpt lat="40.536791320291776" lon="19.994451780809126"><ele>805.5</ele><time>2026-04-27T12:25:28Z</time></trkpt><trkpt lat="40.536675120237746" lon="19.99443756770864"><ele>807.0</ele><time>2026-04-27T12:25:29Z</time></trkpt><trkpt lat="40.53654819528369" lon="19.994424673859577"><ele>807.0</ele><time>2026-04-27T12:25:30Z</time></trkpt><trkpt lat="40.536410174906486" lon="19.994408350503132"><ele>807.0</ele><time>2026-04-27T12:25:31Z</time></trkpt><trkpt lat="40.536273316213446" lon="19.99438689990022"><ele>807.0</ele><time>2026-04-27T12:25:32Z</time></trkpt><trkpt lat="40.53614786264215" lon="19.994367004973498"><ele>807.0</ele><time>2026-04-27T12:25:33Z</time></trkpt><trkpt lat="40.5360310332584" lon="19.994345257220786"><ele>806.4000000000001</ele><time>2026-04-27T12:25:34Z</time></trkpt><trkpt lat="40.53592182936383" lon="19.994333128619243"><ele>805.8000000000001</ele><time>2026-04-27T12:25:35Z</time></trkpt><trkpt lat="40.53581208631411" lon="19.99432778956516"><ele>805.2</ele><time>2026-04-27T12:25:36Z</time></trkpt><trkpt lat="40.535709998112246" lon="19.994326110642294"><ele>804.6</ele><time>2026-04-27T12:25:37Z</time></trkpt><trkpt lat="40.535612058756705" lon="19.994321140720363"><ele>804.0</ele><time>2026-04-27T12:25:38Z</time></trkpt><trkpt lat="40.535495465676874" lon="19.994306640714107"><ele>802.75</ele><time>2026-04-27T12:25:39Z</time></trkpt><trkpt lat="40.53537719509801" lon="19.99429676658116"><ele>801.5</ele><time>2026-04-27T12:25:40Z</time></trkpt><trkpt lat="40.53526302874945" lon="19.99429201214691"><ele>800.25</ele><time>2026-04-27T12:25:41Z</time></trkpt><trkpt lat="40.535136391428196" lon="19.99429306060272"><ele>799.0</ele><time>2026-04-27T12:25:42Z</time></trkpt><trkpt lat="40.53499812493346" lon="19.994301882642013"><ele>799.0</ele><time>2026-04-27T12:25:43Z</time></trkpt><trkpt lat="40.53485643344137" lon="19.994313743060548"><ele>799.0</ele><time>2026-04-27T12:25:44Z</time></trkpt><trkpt lat="40.534710187894696" lon="19.994334894162147"><ele>799.0</ele><time>2026-04-27T12:25:45Z</time></trkpt><trkpt lat="40.53456037148934" lon="19.994357960453087"><ele>799.0</ele><time>2026-04-27T12:25:46Z</time></trkpt><trkpt lat="40.53441641612549" lon="19.99437756454075"><ele>796.5</ele><time>2026-04-27T12:25:47Z</time></trkpt><trkpt lat="40.534267087146915" lon="19.994389711859665"><ele>794.0</ele><time>2026-04-27T12:25:48Z</time></trkpt><trkpt lat="40.53412884044646" lon="19.994391206822623"><ele>791.5</ele><time>2026-04-27T12:25:49Z</time></trkpt><trkpt lat="40.533993949500164" lon="19.99439408146841"><ele>789.0</ele><time>2026-04-27T12:25:50Z</time></trkpt><trkpt lat="40.53386114437272" lon="19.994393451212783"><ele>789.0</ele><time>2026-04-27T12:25:51Z</time></trkpt><trkpt lat="40.5337279550144" lon="19.9943921218081"><ele>789.0</ele><time>2026-04-27T12:25:52Z</time></trkpt><trkpt lat="40.53359877817429" lon="19.994373589996396"><ele>789.0</ele><time>2026-04-27T12:25:53Z</time></trkpt><trkpt lat="40.53348038967181" lon="19.99440090127276"><ele>789.0</ele><time>2026-04-27T12:25:54Z</time></trkpt><trkpt lat="40.533367965662244" lon="19.994411049918586"><ele>786.4000000000001</ele><time>2026-04-27T12:25:55Z</time></trkpt><trkpt lat="40.53325629313326" lon="19.994438192343384"><ele>783.8</ele><time>2026-04-27T12:25:56Z</time></trkpt><trkpt lat="40.53314362058036" lon="19.994474276921856"><ele>781.2</ele><time>2026-04-27T12:25:57Z</time></trkpt><trkpt lat="40.53303853596856" lon="19.994486823113238"><ele>778.5999999999999</ele><time>2026-04-27T12:25:58Z</time></trkpt><trkpt lat="40.53293032012764" lon="19.99449801240864"><ele>776.0</ele><time>2026-04-27T12:25:59Z</time></trkpt><trkpt lat="40.53280571614176" lon="19.994503334464987"><ele>774.75</ele><time>2026-04-27T12:26:00Z</time></trkpt><trkpt lat="40.53266721786438" lon="19.994492556679667"><ele>773.5</ele><time>2026-04-27T12:26:01Z</time></trkpt><trkpt lat="40.53251898277538" lon="19.994491360982853"><ele>772.25</ele><time>2026-04-27T12:26:02Z</time></trkpt><trkpt lat="40.53238747928531" lon="19.99450049949424"><ele>771.0</ele><time>2026-04-27T12:26:03Z</time></trkpt><trkpt lat="40.53226234610407" lon="19.994516013300736"><ele>771.0</ele><time>2026-04-27T12:26:04Z</time></trkpt><trkpt lat="40.532151614096506" lon="19.9945284697935"><ele>771.0</ele><time>2026-04-27T12:26:05Z</time></trkpt><trkpt lat="40.53206051366732" lon="19.994544264684187"><ele>771.0</ele><time>2026-04-27T12:26:06Z</time></trkpt><trkpt lat="40.53197998482774" lon="19.99455400667991"><ele>771.0</ele><time>2026-04-27T12:26:07Z</time></trkpt><trkpt lat="40.53190828548975" lon="19.994547284168465"><ele>771.0</ele><time>2026-04-27T12:26:08Z</time></trkpt><trkpt lat="40.531814766076074" lon="19.99453719869457"><ele>770.0</ele><time>2026-04-27T12:26:09Z</time></trkpt><trkpt lat="40.53171724765914" lon="19.994524612357385"><ele>769.0</ele><time>2026-04-27T12:26:10Z</time></trkpt><trkpt lat="40.53161780684909" lon="19.99450763061084"><ele>768.0</ele><time>2026-04-27T12:26:11Z</time></trkpt><trkpt lat="40.531506865801056" lon="19.994431420091377"><ele>767.0</ele><time>2026-04-27T12:26:12Z</time></trkpt><trkpt lat="40.53138585880229" lon="19.994407313220613"><ele>766.0</ele><time>2026-04-27T12:26:13Z</time></trkpt><trkpt lat="40.53126909987155" lon="19.994393257771517"><ele>765.1999999999999</ele><time>2026-04-27T12:26:14Z</time></trkpt><trkpt lat="40.531161433592" lon="19.99438883649325"><ele>764.4</ele><time>2026-04-27T12:26:15Z</time></trkpt><trkpt lat="40.5310568924754" lon="19.994399851611348"><ele>763.6</ele><time>2026-04-27T12:26:16Z</time></trkpt><trkpt lat="40.530966994778694" lon="19.994431683428"><ele>762.8</ele><time>2026-04-27T12:26:17Z</time></trkpt><trkpt lat="40.530875206056486" lon="19.99443333254692"><ele>762.0</ele><time>2026-04-27T12:26:18Z</time></trkpt><trkpt lat="40.530781534934896" lon="19.9944401021815"><ele>762.0</ele><time>2026-04-27T12:26:19Z</time></trkpt><trkpt lat="40.53067519689354" lon="19.99445051775466"><ele>762.0</ele><time>2026-04-27T12:26:20Z</time></trkpt><trkpt lat="40.53056200839084" lon="19.99444909434808"><ele>762.0</ele><time>2026-04-27T12:26:21Z</time></trkpt><trkpt lat="40.53042856203137" lon="19.994443692126346"><ele>762.0</ele><time>2026-04-27T12:26:22Z</time></trkpt><trkpt lat="40.53029452189256" lon="19.994430742050422"><ele>761.4000000000001</ele><time>2026-04-27T12:26:23Z</time></trkpt><trkpt lat="40.5301794574708" lon="19.994409019071846"><ele>760.8000000000001</ele><time>2026-04-27T12:26:24Z</time></trkpt><trkpt lat="40.53007577554885" lon="19.994375312746474"><ele>760.2</ele><time>2026-04-27T12:26:25Z</time></trkpt><trkpt lat="40.52998068890154" lon="19.99434799079961"><ele>759.6</ele><time>2026-04-27T12:26:26Z</time></trkpt><trkpt lat="40.52988332734279" lon="19.994336647898617"><ele>759.0</ele><time>2026-04-27T12:26:27Z</time></trkpt><trkpt lat="40.52978057991616" lon="19.994335326332575"><ele>759.0</ele><time>2026-04-27T12:26:28Z</time></trkpt><trkpt lat="40.529676676565614" lon="19.994344041214298"><ele>759.0</ele><time>2026-04-27T12:26:29Z</time></trkpt><trkpt lat="40.529569604727264" lon="19.994363765603524"><ele>759.0</ele><time>2026-04-27T12:26:30Z</time></trkpt><trkpt lat="40.529458106572115" lon="19.99436256124963"><ele>759.0</ele><time>2026-04-27T12:26:31Z</time></trkpt><trkpt lat="40.529360255603606" lon="19.994379723029635"><ele>759.0</ele><time>2026-04-27T12:26:32Z</time></trkpt><trkpt lat="40.52926362682218" lon="19.994395925796667"><ele>756.75</ele><time>2026-04-27T12:26:33Z</time></trkpt><trkpt lat="40.52914537467694" lon="19.99438124504939"><ele>754.5</ele><time>2026-04-27T12:26:34Z</time></trkpt><trkpt lat="40.52902444145947" lon="19.99439708968282"><ele>752.25</ele><time>2026-04-27T12:26:35Z</time></trkpt><trkpt lat="40.52891226189057" lon="19.994411423818747"><ele>750.0</ele><time>2026-04-27T12:26:36Z</time></trkpt><trkpt lat="40.52879658562256" lon="19.99442654848317"><ele>748.75</ele><time>2026-04-27T12:26:37Z</time></trkpt><trkpt lat="40.528673574499905" lon="19.994432767969393"><ele>747.5</ele><time>2026-04-27T12:26:38Z</time></trkpt><trkpt lat="40.528552318310396" lon="19.994409384240843"><ele>746.25</ele><time>2026-04-27T12:26:39Z</time></trkpt><trkpt lat="40.528426110785624" lon="19.994395199387142"><ele>745.0</ele><time>2026-04-27T12:26:40Z</time></trkpt><trkpt lat="40.528295169241105" lon="19.994383975826153"><ele>745.0</ele><time>2026-04-27T12:26:41Z</time></trkpt><trkpt lat="40.52815500323852" lon="19.994372329152082"><ele>745.0</ele><time>2026-04-27T12:26:42Z</time></trkpt><trkpt lat="40.52803270124161" lon="19.99436426241184"><ele>745.0</ele><time>2026-04-27T12:26:43Z</time></trkpt><trkpt lat="40.527919500702495" lon="19.994358126540003"><ele>745.0</ele><time>2026-04-27T12:26:44Z</time></trkpt><trkpt lat="40.52781316911233" lon="19.994352022272093"><ele>744.3333333333334</ele><time>2026-04-27T12:26:45Z</time></trkpt><trkpt lat="40.52771771643044" lon="19.99434676481908"><ele>743.6666666666667</ele><time>2026-04-27T12:26:46Z</time></trkpt><trkpt lat="40.52763222367812" lon="19.994342678959306"><ele>743.0</ele><time>2026-04-27T12:26:47Z</time></trkpt><trkpt lat="40.527553694222966" lon="19.994355461940295"><ele>742.3333333333334</ele><time>2026-04-27T12:26:48Z</time></trkpt><trkpt lat="40.52747816256602" lon="19.994342766305063"><ele>741.6666666666666</ele><time>2026-04-27T12:26:49Z</time></trkpt><trkpt lat="40.52740797379274" lon="19.99432057094132"><ele>741.0</ele><time>2026-04-27T12:26:50Z</time></trkpt><trkpt lat="40.52734304562677" lon="19.994289749515833"><ele>741.0</ele><time>2026-04-27T12:26:51Z</time></trkpt><trkpt lat="40.52727456669561" lon="19.994240163076547"><ele>741.0</ele><time>2026-04-27T12:26:52Z</time></trkpt><trkpt lat="40.527213357251796" lon="19.99416446974732"><ele>741.0</ele><time>2026-04-27T12:26:53Z</time></trkpt><trkpt lat="40.52715550296115" lon="19.994075843781722"><ele>741.0</ele><time>2026-04-27T12:26:54Z</time></trkpt><trkpt lat="40.52713677046868" lon="19.99397096265758"><ele>741.0</ele><time>2026-04-27T12:26:55Z</time></trkpt><trkpt lat="40.527108034532965" lon="19.993884188345547"><ele>741.0</ele><time>2026-04-27T12:26:56Z</time></trkpt><trkpt lat="40.52709808711181" lon="19.99376788754373"><ele>733.75</ele><time>2026-04-27T12:26:57Z</time></trkpt><trkpt lat="40.527044628852074" lon="19.993653797359855"><ele>726.5</ele><time>2026-04-27T12:26:58Z</time></trkpt><trkpt lat="40.526956917456204" lon="19.9935590324788"><ele>719.25</ele><time>2026-04-27T12:26:59Z</time></trkpt><trkpt lat="40.52680711638795" lon="19.99354684887998"><ele>712.0</ele><time>2026-04-27T12:27:00Z</time></trkpt><trkpt lat="40.52668122938107" lon="19.993619687320866"><ele>712.0</ele><time>2026-04-27T12:27:01Z</time></trkpt><trkpt lat="40.52657553311345" lon="19.99365826890662"><ele>712.0</ele><time>2026-04-27T12:27:02Z</time></trkpt><trkpt lat="40.52647976175789" lon="19.99367948851711"><ele>712.0</ele><time>2026-04-27T12:27:03Z</time></trkpt><trkpt lat="40.52638685415754" lon="19.99370007320914"><ele>712.0</ele><time>2026-04-27T12:27:04Z</time></trkpt><trkpt lat="40.52628690591212" lon="19.993634657241856"><ele>712.0</ele><time>2026-04-27T12:27:05Z</time></trkpt><trkpt lat="40.52618210922582" lon="19.99346182690784"><ele>711.75</ele><time>2026-04-27T12:27:06Z</time></trkpt><trkpt lat="40.52607334493951" lon="19.993442780238656"><ele>711.5</ele><time>2026-04-27T12:27:07Z</time></trkpt><trkpt lat="40.525978647348275" lon="19.99342619699274"><ele>711.25</ele><time>2026-04-27T12:27:08Z</time></trkpt><trkpt lat="40.52583816815149" lon="19.99351941769696"><ele>711.0</ele><time>2026-04-27T12:27:09Z</time></trkpt><trkpt lat="40.525715783781855" lon="19.9935611993046"><ele>711.0</ele><time>2026-04-27T12:27:10Z</time></trkpt><trkpt lat="40.52557588248373" lon="19.993627153950687"><ele>711.0</ele><time>2026-04-27T12:27:11Z</time></trkpt><trkpt lat="40.52544542167282" lon="19.993714150974476"><ele>711.0</ele><time>2026-04-27T12:27:12Z</time></trkpt><trkpt lat="40.52530365357537" lon="19.993732623818367"><ele>711.0</ele><time>2026-04-27T12:27:13Z</time></trkpt><trkpt lat="40.52516522054737" lon="19.993741771834877"><ele>707.6666666666666</ele><time>2026-04-27T12:27:14Z</time></trkpt><trkpt lat="40.525024567153515" lon="19.993747414233802"><ele>704.3333333333333</ele><time>2026-04-27T12:27:15Z</time></trkpt><trkpt lat="40.52486763630966" lon="19.993696808612444"><ele>701.0</ele><time>2026-04-27T12:27:16Z</time></trkpt><trkpt lat="40.524690787706696" lon="19.993780849307417"><ele>699.3333333333333</ele><time>2026-04-27T12:27:17Z</time></trkpt><trkpt lat="40.52452447598563" lon="19.993841237126844"><ele>697.6666666666666</ele><time>2026-04-27T12:27:18Z</time></trkpt><trkpt lat="40.52439291449967" lon="19.993933616881236"><ele>696.0</ele><time>2026-04-27T12:27:19Z</time></trkpt><trkpt lat="40.524247764724095" lon="19.993950880819252"><ele>696.0</ele><time>2026-04-27T12:27:20Z</time></trkpt><trkpt lat="40.524090005748185" lon="19.993900922837796"><ele>696.0</ele><time>2026-04-27T12:27:21Z</time></trkpt><trkpt lat="40.52392518297644" lon="19.993856540227124"><ele>696.0</ele><time>2026-04-27T12:27:22Z</time></trkpt><trkpt lat="40.52377499919738" lon="19.993825488724934"><ele>696.0</ele><time>2026-04-27T12:27:23Z</time></trkpt><trkpt lat="40.52362890866808" lon="19.99380941932397"><ele>696.0</ele><time>2026-04-27T12:27:24Z</time></trkpt><trkpt lat="40.523483030391326" lon="19.99381549229563"><ele>696.0</ele><time>2026-04-27T12:27:25Z</time></trkpt><trkpt lat="40.523324474227735" lon="19.993835501795605"><ele>696.0</ele><time>2026-04-27T12:27:26Z</time></trkpt><trkpt lat="40.52317875138273" lon="19.993972059230703"><ele>696.0</ele><time>2026-04-27T12:27:27Z</time></trkpt><trkpt lat="40.523001933604185" lon="19.994028465497344"><ele>696.0</ele><time>2026-04-27T12:27:28Z</time></trkpt><trkpt lat="40.52280245482354" lon="19.994081713167823"><ele>695.3333333333334</ele><time>2026-04-27T12:27:29Z</time></trkpt><trkpt lat="40.52261578412562" lon="19.994114626541624"><ele>694.6666666666667</ele><time>2026-04-27T12:27:30Z</time></trkpt><trkpt lat="40.52243917039799" lon="19.99413181433465"><ele>694.0</ele><time>2026-04-27T12:27:31Z</time></trkpt><trkpt lat="40.5222873930242" lon="19.994151778892682"><ele>701.5</ele><time>2026-04-27T12:27:32Z</time></trkpt><trkpt lat="40.52213955169782" lon="19.99417527439616"><ele>709.0</ele><time>2026-04-27T12:27:33Z</time></trkpt><trkpt lat="40.521995321234016" lon="19.994191057872808"><ele>716.5</ele><time>2026-04-27T12:27:34Z</time></trkpt><trkpt lat="40.521858636007416" lon="19.994195987990768"><ele>724.0</ele><time>2026-04-27T12:27:35Z</time></trkpt><trkpt lat="40.52171942968299" lon="19.994185871971954"><ele>720.25</ele><time>2026-04-27T12:27:36Z</time></trkpt><trkpt lat="40.52157713282689" lon="19.99416819883025"><ele>716.5</ele><time>2026-04-27T12:27:37Z</time></trkpt><trkpt lat="40.52143946406202" lon="19.994144557445946"><ele>712.75</ele><time>2026-04-27T12:27:38Z</time></trkpt><trkpt lat="40.521301058580384" lon="19.994122579717004"><ele>709.0</ele><time>2026-04-27T12:27:39Z</time></trkpt><trkpt lat="40.52116101138668" lon="19.994110591496412"><ele>709.0</ele><time>2026-04-27T12:27:40Z</time></trkpt><trkpt lat="40.52102204803644" lon="19.994104947109513"><ele>709.0</ele><time>2026-04-27T12:27:41Z</time></trkpt><trkpt lat="40.520899231298365" lon="19.99409493182327"><ele>709.0</ele><time>2026-04-27T12:27:42Z</time></trkpt><trkpt lat="40.5207917597021" lon="19.99407821226797"><ele>709.0</ele><time>2026-04-27T12:27:43Z</time></trkpt><trkpt lat="40.52068864697531" lon="19.9940473693715"><ele>709.0</ele><time>2026-04-27T12:27:44Z</time></trkpt><trkpt lat="40.520581285451215" lon="19.994000125495766"><ele>709.0</ele><time>2026-04-27T12:27:45Z</time></trkpt><trkpt lat="40.520471084760295" lon="19.993935479941"><ele>709.0</ele><time>2026-04-27T12:27:46Z</time></trkpt><trkpt lat="40.52036500616533" lon="19.993851918021555"><ele>709.0</ele><time>2026-04-27T12:27:47Z</time></trkpt><trkpt lat="40.52025819233522" lon="19.993763505391513"><ele>711.75</ele><time>2026-04-27T12:27:48Z</time></trkpt><trkpt lat="40.52014907657796" lon="19.993674452124363"><ele>714.5</ele><time>2026-04-27T12:27:49Z</time></trkpt><trkpt lat="40.52002704396885" lon="19.993574084604255"><ele>717.25</ele><time>2026-04-27T12:27:50Z</time></trkpt><trkpt lat="40.5198991048767" lon="19.993477363156277"><ele>720.0</ele><time>2026-04-27T12:27:51Z</time></trkpt><trkpt lat="40.51978921735586" lon="19.99339152297194"><ele>718.25</ele><time>2026-04-27T12:27:52Z</time></trkpt><trkpt lat="40.51969166455252" lon="19.993300960998234"><ele>716.5</ele><time>2026-04-27T12:27:53Z</time></trkpt><trkpt lat="40.51960839616277" lon="19.99318522144799"><ele>714.75</ele><time>2026-04-27T12:27:54Z</time></trkpt><trkpt lat="40.51952245736685" lon="19.993087173156294"><ele>713.0</ele><time>2026-04-27T12:27:55Z</time></trkpt><trkpt lat="40.51939604068207" lon="19.993042696051983"><ele>713.0</ele><time>2026-04-27T12:27:56Z</time></trkpt><trkpt lat="40.519269418999166" lon="19.993038637739847"><ele>713.0</ele><time>2026-04-27T12:27:57Z</time></trkpt><trkpt lat="40.519145842753765" lon="19.99301765157386"><ele>713.0</ele><time>2026-04-27T12:27:58Z</time></trkpt><trkpt lat="40.51901769857632" lon="19.993006703938484"><ele>713.0</ele><time>2026-04-27T12:27:59Z</time></trkpt><trkpt lat="40.51888715050009" lon="19.992994473492313"><ele>713.0</ele><time>2026-04-27T12:28:00Z</time></trkpt><trkpt lat="40.518755503647874" lon="19.99298315121146"><ele>713.0</ele><time>2026-04-27T12:28:01Z</time></trkpt><trkpt lat="40.518623763430305" lon="19.992990662569866"><ele>713.0</ele><time>2026-04-27T12:28:02Z</time></trkpt><trkpt lat="40.51850230040453" lon="19.992982668277985"><ele>713.0</ele><time>2026-04-27T12:28:03Z</time></trkpt><trkpt lat="40.51840553525208" lon="19.992952487499576"><ele>714.8</ele><time>2026-04-27T12:28:04Z</time></trkpt><trkpt lat="40.51831517012817" lon="19.992899820958154"><ele>716.5999999999999</ele><time>2026-04-27T12:28:05Z</time></trkpt><trkpt lat="40.51823180324932" lon="19.992833806191193"><ele>718.4000000000001</ele><time>2026-04-27T12:28:06Z</time></trkpt><trkpt lat="40.51815641453344" lon="19.992746686725276"><ele>720.2</ele><time>2026-04-27T12:28:07Z</time></trkpt><trkpt lat="40.51808814631358" lon="19.9926329372375"><ele>722.0</ele><time>2026-04-27T12:28:08Z</time></trkpt><trkpt lat="40.5180242921511" lon="19.992504943644605"><ele>721.75</ele><time>2026-04-27T12:28:09Z</time></trkpt><trkpt lat="40.51797731637215" lon="19.992362071717025"><ele>721.5</ele><time>2026-04-27T12:28:10Z</time></trkpt><trkpt lat="40.517915531672905" lon="19.99224922868976"><ele>721.25</ele><time>2026-04-27T12:28:11Z</time></trkpt><trkpt lat="40.51782091673554" lon="19.992145957166496"><ele>721.0</ele><time>2026-04-27T12:28:12Z</time></trkpt><trkpt lat="40.517703776844954" lon="19.992109212700708"><ele>721.0</ele><time>2026-04-27T12:28:13Z</time></trkpt><trkpt lat="40.51759117930952" lon="19.99208497884058"><ele>721.0</ele><time>2026-04-27T12:28:14Z</time></trkpt><trkpt lat="40.51748376799277" lon="19.992008102111846"><ele>721.0</ele><time>2026-04-27T12:28:15Z</time></trkpt><trkpt lat="40.517386107638316" lon="19.991939796029737"><ele>721.0</ele><time>2026-04-27T12:28:16Z</time></trkpt><trkpt lat="40.517293075752036" lon="19.991819970174355"><ele>721.0</ele><time>2026-04-27T12:28:17Z</time></trkpt><trkpt lat="40.517203133421795" lon="19.991797414842615"><ele>721.0</ele><time>2026-04-27T12:28:18Z</time></trkpt><trkpt lat="40.51706281614473" lon="19.99181192380748"><ele>721.0</ele><time>2026-04-27T12:28:19Z</time></trkpt><trkpt lat="40.51695118851257" lon="19.991887786000742"><ele>721.0</ele><time>2026-04-27T12:28:20Z</time></trkpt><trkpt lat="40.51691393375083" lon="19.992122369522257"><ele>720.5999999999999</ele><time>2026-04-27T12:28:21Z</time></trkpt><trkpt lat="40.51686291140483" lon="19.99221914939426"><ele>720.2</ele><time>2026-04-27T12:28:22Z</time></trkpt><trkpt lat="40.51678218753304" lon="19.992282892726465"><ele>719.8</ele><time>2026-04-27T12:28:23Z</time></trkpt><trkpt lat="40.516675505300846" lon="19.992329655718244"><ele>719.4000000000001</ele><time>2026-04-27T12:28:24Z</time></trkpt><trkpt lat="40.51654350689998" lon="19.992384826212927"><ele>719.0</ele><time>2026-04-27T12:28:25Z</time></trkpt><trkpt lat="40.516403413677274" lon="19.992438758029486"><ele>719.0</ele><time>2026-04-27T12:28:26Z</time></trkpt><trkpt lat="40.51626848177842" lon="19.992464883387402"><ele>719.0</ele><time>2026-04-27T12:28:27Z</time></trkpt><trkpt lat="40.51617421707957" lon="19.99244546110283"><ele>719.0</ele><time>2026-04-27T12:28:28Z</time></trkpt><trkpt lat="40.516107776566855" lon="19.992366565283415"><ele>719.0</ele><time>2026-04-27T12:28:29Z</time></trkpt><trkpt lat="40.51602898347837" lon="19.99233474888694"><ele>719.0</ele><time>2026-04-27T12:28:30Z</time></trkpt><trkpt lat="40.515949479514695" lon="19.992302783297745"><ele>718.5</ele><time>2026-04-27T12:28:31Z</time></trkpt><trkpt lat="40.51582222658463" lon="19.99231011144898"><ele>718.0</ele><time>2026-04-27T12:28:32Z</time></trkpt><trkpt lat="40.51569278700139" lon="19.992424867450932"><ele>717.5</ele><time>2026-04-27T12:28:33Z</time></trkpt><trkpt lat="40.51560189692111" lon="19.99256829849779"><ele>717.0</ele><time>2026-04-27T12:28:34Z</time></trkpt><trkpt lat="40.51551269720518" lon="19.992703650114162"><ele>721.5</ele><time>2026-04-27T12:28:35Z</time></trkpt><trkpt lat="40.51539041466154" lon="19.992771844621153"><ele>726.0</ele><time>2026-04-27T12:28:36Z</time></trkpt><trkpt lat="40.51525537638201" lon="19.992768758425655"><ele>730.5</ele><time>2026-04-27T12:28:37Z</time></trkpt><trkpt lat="40.51512989671612" lon="19.992767592579867"><ele>735.0</ele><time>2026-04-27T12:28:38Z</time></trkpt><trkpt lat="40.51500182659592" lon="19.992766321250038"><ele>735.0</ele><time>2026-04-27T12:28:39Z</time></trkpt><trkpt lat="40.51485545716736" lon="19.99276404824466"><ele>735.0</ele><time>2026-04-27T12:28:40Z</time></trkpt><trkpt lat="40.51470175703911" lon="19.992761868774124"><ele>735.0</ele><time>2026-04-27T12:28:41Z</time></trkpt><trkpt lat="40.51453324063839" lon="19.992759586570408"><ele>734.25</ele><time>2026-04-27T12:28:42Z</time></trkpt><trkpt lat="40.51438298633808" lon="19.99284929769192"><ele>733.5</ele><time>2026-04-27T12:28:43Z</time></trkpt><trkpt lat="40.51425565877777" lon="19.992846724461376"><ele>732.75</ele><time>2026-04-27T12:28:44Z</time></trkpt><trkpt lat="40.514137356246756" lon="19.9928435002315"><ele>732.0</ele><time>2026-04-27T12:28:45Z</time></trkpt><trkpt lat="40.514019118287855" lon="19.99283996838173"><ele>732.0</ele><time>2026-04-27T12:28:46Z</time></trkpt><trkpt lat="40.51390518509127" lon="19.99283726433219"><ele>732.0</ele><time>2026-04-27T12:28:47Z</time></trkpt><trkpt lat="40.513771371450105" lon="19.99283959286216"><ele>732.0</ele><time>2026-04-27T12:28:48Z</time></trkpt><trkpt lat="40.5136434229263" lon="19.992884961695914"><ele>732.0</ele><time>2026-04-27T12:28:49Z</time></trkpt><trkpt lat="40.51354881348846" lon="19.992994886966834"><ele>730.5</ele><time>2026-04-27T12:28:50Z</time></trkpt><trkpt lat="40.51348781196837" lon="19.99303775793923"><ele>729.0</ele><time>2026-04-27T12:28:51Z</time></trkpt><trkpt lat="40.51340778884376" lon="19.99306264241539"><ele>727.5</ele><time>2026-04-27T12:28:52Z</time></trkpt><trkpt lat="40.5133476526991" lon="19.99303428200525"><ele>726.0</ele><time>2026-04-27T12:28:53Z</time></trkpt><trkpt lat="40.51327926214556" lon="19.99302232495605"><ele>724.5</ele><time>2026-04-27T12:28:54Z</time></trkpt><trkpt lat="40.51319254599738" lon="19.992983335853037"><ele>723.0</ele><time>2026-04-27T12:28:56Z</time></trkpt><trkpt lat="40.51309403640718" lon="19.992950128026088"><ele>723.0</ele><time>2026-04-27T12:28:58Z</time></trkpt><trkpt lat="40.513078144652525" lon="19.992842007325148"><ele>723.0</ele><time>2026-04-27T12:29:00Z</time></trkpt><trkpt lat="40.51301359639324" lon="19.992739757831515"><ele>723.0</ele><time>2026-04-27T12:29:03Z</time></trkpt><trkpt lat="40.5129737784438" lon="19.99264788719189"><ele>723.0</ele><time>2026-04-27T12:29:05Z</time></trkpt><trkpt lat="40.51294095498761" lon="19.992551715603778"><ele>723.0</ele><time>2026-04-27T12:29:07Z</time></trkpt><trkpt lat="40.51289383021042" lon="19.992415915171748"><ele>721.4</ele><time>2026-04-27T12:29:09Z</time></trkpt><trkpt lat="40.51285138203408" lon="19.992299695840206"><ele>719.8</ele><time>2026-04-27T12:29:11Z</time></trkpt><trkpt lat="40.51279537429307" lon="19.9921483443957"><ele>718.2</ele><time>2026-04-27T12:29:13Z</time></trkpt><trkpt lat="40.51276663017813" lon="19.99207060878754"><ele>716.6</ele><time>2026-04-27T12:29:14Z</time></trkpt><trkpt lat="40.512823307398726" lon="19.99189118971232"><ele>715.0</ele><time>2026-04-27T12:29:16Z</time></trkpt><trkpt lat="40.51280054097344" lon="19.991786798590397"><ele>715.0</ele><time>2026-04-27T12:29:17Z</time></trkpt><trkpt lat="40.51277151056832" lon="19.991642423909756"><ele>715.0</ele><time>2026-04-27T12:29:18Z</time></trkpt><trkpt lat="40.51265702771907" lon="19.991440485681018"><ele>715.0</ele><time>2026-04-27T12:29:19Z</time></trkpt><trkpt lat="40.51256888491229" lon="19.991283492894784"><ele>715.0</ele><time>2026-04-27T12:29:20Z</time></trkpt><trkpt lat="40.51246175312727" lon="19.9910922725238"><ele>715.0</ele><time>2026-04-27T12:29:21Z</time></trkpt><trkpt lat="40.51233905031916" lon="19.990907653609256"><ele>715.0</ele><time>2026-04-27T12:29:22Z</time></trkpt><trkpt lat="40.512249422370985" lon="19.990776594921872"><ele>715.25</ele><time>2026-04-27T12:29:23Z</time></trkpt><trkpt lat="40.51217230000585" lon="19.990663171155074"><ele>715.5</ele><time>2026-04-27T12:29:24Z</time></trkpt><trkpt lat="40.512085209861404" lon="19.990534328465287"><ele>715.75</ele><time>2026-04-27T12:29:25Z</time></trkpt><trkpt lat="40.51199568231387" lon="19.990404250794036"><ele>716.0</ele><time>2026-04-27T12:29:26Z</time></trkpt><trkpt lat="40.51191498889728" lon="19.990247261842775"><ele>719.75</ele><time>2026-04-27T12:29:27Z</time></trkpt><trkpt lat="40.511871999198554" lon="19.99008313859421"><ele>723.5</ele><time>2026-04-27T12:29:28Z</time></trkpt><trkpt lat="40.51184296944806" lon="19.98992976772765"><ele>727.25</ele><time>2026-04-27T12:29:29Z</time></trkpt><trkpt lat="40.511816429748805" lon="19.989789296481888"><ele>731.0</ele><time>2026-04-27T12:29:30Z</time></trkpt><trkpt lat="40.51180049944143" lon="19.98966351771834"><ele>731.0</ele><time>2026-04-27T12:29:31Z</time></trkpt><trkpt lat="40.51178648521484" lon="19.98955280832432"><ele>731.0</ele><time>2026-04-27T12:29:32Z</time></trkpt><trkpt lat="40.511779881368696" lon="19.989458484756163"><ele>731.0</ele><time>2026-04-27T12:29:33Z</time></trkpt><trkpt lat="40.5117760533882" lon="19.98936184701918"><ele>731.0</ele><time>2026-04-27T12:29:34Z</time></trkpt><trkpt lat="40.511772292570406" lon="19.98926689948762"><ele>731.0</ele><time>2026-04-27T12:29:34.999Z</time></trkpt><trkpt lat="40.51175700079366" lon="19.98914228566237"><ele>731.0</ele><time>2026-04-27T12:29:36.999Z</time></trkpt><trkpt lat="40.51179252378651" lon="19.98903500266279"><ele>730.5999999999999</ele><time>2026-04-27T12:29:39.999Z</time></trkpt><trkpt lat="40.511808371693974" lon="19.988952460230596"><ele>730.2</ele><time>2026-04-27T12:30:05Z</time></trkpt><trkpt lat="40.51184402687249" lon="19.988842014210892"><ele>729.8</ele><time>2026-04-27T12:30:28Z</time></trkpt><trkpt lat="40.51191802277473" lon="19.988714359928046"><ele>729.4000000000001</ele><time>2026-04-27T12:30:30Z</time></trkpt><trkpt lat="40.511973050217016" lon="19.988631545811252"><ele>729.0</ele><time>2026-04-27T12:30:31Z</time></trkpt><trkpt lat="40.51204184345292" lon="19.988536473132363"><ele>729.8333333333334</ele><time>2026-04-27T12:30:32Z</time></trkpt><trkpt lat="40.51209890994126" lon="19.988459274594366"><ele>730.6666666666666</ele><time>2026-04-27T12:30:33Z</time></trkpt><trkpt lat="40.51216116692653" lon="19.988385177144888"><ele>731.5</ele><time>2026-04-27T12:30:34Z</time></trkpt><trkpt lat="40.51222737579902" lon="19.988304567219267"><ele>732.3333333333333</ele><time>2026-04-27T12:30:35Z</time></trkpt><trkpt lat="40.51228621865916" lon="19.98821746532101"><ele>733.1666666666666</ele><time>2026-04-27T12:30:36Z</time></trkpt><trkpt lat="40.5123329821986" lon="19.988121038846142"><ele>734.0</ele><time>2026-04-27T12:30:37Z</time></trkpt><trkpt lat="40.512395979581385" lon="19.988030512383524"><ele>734.0</ele><time>2026-04-27T12:30:38Z</time></trkpt><trkpt lat="40.512442009068046" lon="19.98791019834752"><ele>734.0</ele><time>2026-04-27T12:30:39Z</time></trkpt><trkpt lat="40.512474643867925" lon="19.98779343998326"><ele>734.0</ele><time>2026-04-27T12:30:40Z</time></trkpt><trkpt lat="40.512510232661185" lon="19.987678071342387"><ele>734.0</ele><time>2026-04-27T12:30:41Z</time></trkpt><trkpt lat="40.51253568423893" lon="19.98759556462379"><ele>734.0</ele><time>2026-04-27T12:30:42Z</time></trkpt><trkpt lat="40.51251338612666" lon="19.987487093325026"><ele>734.0</ele><time>2026-04-27T12:30:43Z</time></trkpt><trkpt lat="40.51251991135952" lon="19.98733778095367"><ele>734.6666666666666</ele><time>2026-04-27T12:30:45Z</time></trkpt><trkpt lat="40.51252540675868" lon="19.987212033558944"><ele>735.3333333333333</ele><time>2026-04-27T12:30:47Z</time></trkpt><trkpt lat="40.5124705871347" lon="19.987127498068475"><ele>736.0</ele><time>2026-04-27T12:30:49Z</time></trkpt><trkpt lat="40.51246198512423" lon="19.987037691026924"><ele>736.6666666666666</ele><time>2026-04-27T12:31:01.999Z</time></trkpt><trkpt lat="40.51244030729095" lon="19.986946236257953"><ele>737.3333333333334</ele><time>2026-04-27T12:31:03.999Z</time></trkpt><trkpt lat="40.51241905312029" lon="19.9868576955549"><ele>738.0</ele><time>2026-04-27T12:31:05.999Z</time></trkpt><trkpt lat="40.512383363452045" lon="19.98670901922954"><ele>741.5</ele><time>2026-04-27T12:31:07.999Z</time></trkpt><trkpt lat="40.5123521273981" lon="19.986578895850595"><ele>745.0</ele><time>2026-04-27T12:31:09.999Z</time></trkpt><trkpt lat="40.51213580913703" lon="19.985972545574562"><ele>763.0</ele><time>2026-04-27T12:31:11.999Z</time></trkpt><trkpt lat="40.511935736618895" lon="19.986654376120246"><ele>763.0</ele><time>2026-04-27T12:31:12.999Z</time></trkpt><trkpt lat="40.51185899494875" lon="19.986624868418275"><ele>763.0</ele><time>2026-04-27T12:31:13.999Z</time></trkpt><trkpt lat="40.51177740815105" lon="19.986685705166526"><ele>763.0</ele><time>2026-04-27T12:31:15.999Z</time></trkpt><trkpt lat="40.51171102754346" lon="19.98678589827304"><ele>763.0</ele><time>2026-04-27T12:31:17.999Z</time></trkpt><trkpt lat="40.51163613737488" lon="19.986885972227"><ele>763.0</ele><time>2026-04-27T12:31:19.999Z</time></trkpt><trkpt lat="40.51155747000087" lon="19.987004100729678"><ele>763.6666666666667</ele><time>2026-04-27T12:31:21.999Z</time></trkpt><trkpt lat="40.511514505655136" lon="19.987073334868846"><ele>764.3333333333334</ele><time>2026-04-27T12:31:22.999Z</time></trkpt><trkpt lat="40.51146977706032" lon="19.987140308489376"><ele>765.0</ele><time>2026-04-27T12:31:23.999Z</time></trkpt><trkpt lat="40.511412005836114" lon="19.98721218175692"><ele>765.6666666666666</ele><time>2026-04-27T12:31:24.999Z</time></trkpt><trkpt lat="40.51135163650787" lon="19.987283400959374"><ele>766.3333333333333</ele><time>2026-04-27T12:31:25.999Z</time></trkpt><trkpt lat="40.51128981213248" lon="19.987363184960167"><ele>767.0</ele><time>2026-04-27T12:31:26.999Z</time></trkpt><trkpt lat="40.51122248059713" lon="19.987437154435842"><ele>767.0</ele><time>2026-04-27T12:31:27.999Z</time></trkpt><trkpt lat="40.51115074244749" lon="19.98750885289861"><ele>767.0</ele><time>2026-04-27T12:31:28.999Z</time></trkpt><trkpt lat="40.51108040746556" lon="19.987577112915186"><ele>767.0</ele><time>2026-04-27T12:31:29.999Z</time></trkpt><trkpt lat="40.511006182686536" lon="19.98764617411513"><ele>767.0</ele><time>2026-04-27T12:31:30.999Z</time></trkpt><trkpt lat="40.510930724504114" lon="19.98771357399921"><ele>767.0</ele><time>2026-04-27T12:31:31.999Z</time></trkpt><trkpt lat="40.5108520253091" lon="19.98778451022383"><ele>763.8</ele><time>2026-04-27T12:31:32.999Z</time></trkpt><trkpt lat="40.510770330774406" lon="19.987851832300475"><ele>760.6</ele><time>2026-04-27T12:31:33.999Z</time></trkpt><trkpt lat="40.51067816323156" lon="19.987911185472978"><ele>757.4</ele><time>2026-04-27T12:31:34.999Z</time></trkpt><trkpt lat="40.51058468320216" lon="19.987931638222967"><ele>754.1999999999999</ele><time>2026-04-27T12:31:35.999Z</time></trkpt><trkpt lat="40.51050171681026" lon="19.987990052112202"><ele>751.0</ele><time>2026-04-27T12:31:36.999Z</time></trkpt><trkpt lat="40.51041222960533" lon="19.98802670494651"><ele>754.4</ele><time>2026-04-27T12:31:37.999Z</time></trkpt><trkpt lat="40.51031638096385" lon="19.988042685081098"><ele>757.8</ele><time>2026-04-27T12:31:38.999Z</time></trkpt><trkpt lat="40.51022012119007" lon="19.98806766761135"><ele>761.1999999999999</ele><time>2026-04-27T12:31:39.999Z</time></trkpt><trkpt lat="40.51011710573202" lon="19.988102521782082"><ele>764.5999999999999</ele><time>2026-04-27T12:31:40.999Z</time></trkpt><trkpt lat="40.510028131528564" lon="19.988152496305833"><ele>768.0</ele><time>2026-04-27T12:31:41.999Z</time></trkpt><trkpt lat="40.50994364170725" lon="19.98824886436412"><ele>765.4</ele><time>2026-04-27T12:31:42.999Z</time></trkpt><trkpt lat="40.50989576006378" lon="19.988377815365936"><ele>762.8</ele><time>2026-04-27T12:31:43.999Z</time></trkpt><trkpt lat="40.509834542058435" lon="19.988481443955806"><ele>760.2</ele><time>2026-04-27T12:31:44.999Z</time></trkpt><trkpt lat="40.50976959085893" lon="19.98858341429544"><ele>757.6</ele><time>2026-04-27T12:31:45.999Z</time></trkpt><trkpt lat="40.50968981564023" lon="19.98868702951948"><ele>755.0</ele><time>2026-04-27T12:31:46.999Z</time></trkpt><trkpt lat="40.509583074761366" lon="19.988726086591704"><ele>757.6</ele><time>2026-04-27T12:31:47.999Z</time></trkpt><trkpt lat="40.50948691011785" lon="19.98875736067304"><ele>760.2</ele><time>2026-04-27T12:31:48.999Z</time></trkpt><trkpt lat="40.50938662231706" lon="19.988800300335658"><ele>762.8</ele><time>2026-04-27T12:31:49.999Z</time></trkpt><trkpt lat="40.50928818166308" lon="19.98882880072246"><ele>765.4</ele><time>2026-04-27T12:31:50.999Z</time></trkpt><trkpt lat="40.50917953894688" lon="19.988863887953524"><ele>768.0</ele><time>2026-04-27T12:31:51.999Z</time></trkpt><trkpt lat="40.50908747776527" lon="19.98884508442897"><ele>768.0</ele><time>2026-04-27T12:31:52.999Z</time></trkpt><trkpt lat="40.509010399871556" lon="19.988817427029954"><ele>768.0</ele><time>2026-04-27T12:31:53.999Z</time></trkpt><trkpt lat="40.5089060340028" lon="19.988777555945813"><ele>768.0</ele><time>2026-04-27T12:31:54.999Z</time></trkpt><trkpt lat="40.50879184321615" lon="19.988731614374135"><ele>768.0</ele><time>2026-04-27T12:31:55.999Z</time></trkpt><trkpt lat="40.50867810575182" lon="19.98868796577856"><ele>768.0</ele><time>2026-04-27T12:31:56.999Z</time></trkpt><trkpt lat="40.50858871047736" lon="19.988624859456678"><ele>767.4</ele><time>2026-04-27T12:31:57.999Z</time></trkpt><trkpt lat="40.50851269957353" lon="19.98854274996219"><ele>766.8</ele><time>2026-04-27T12:31:58.999Z</time></trkpt><trkpt lat="40.508463639368344" lon="19.98844323378063"><ele>766.2</ele><time>2026-04-27T12:31:59.999Z</time></trkpt><trkpt lat="40.50840561077306" lon="19.98831460355737"><ele>765.6</ele><time>2026-04-27T12:32:01Z</time></trkpt><trkpt lat="40.50835157968963" lon="19.98816903488323"><ele>765.0</ele><time>2026-04-27T12:32:02Z</time></trkpt><trkpt lat="40.50821468617661" lon="19.988059702536052"><ele>768.8</ele><time>2026-04-27T12:32:03Z</time></trkpt><trkpt lat="40.508120326480416" lon="19.988008230334515"><ele>772.6</ele><time>2026-04-27T12:32:04Z</time></trkpt><trkpt lat="40.50804779945529" lon="19.98795417031876"><ele>776.4000000000001</ele><time>2026-04-27T12:32:05Z</time></trkpt><trkpt lat="40.50795512080145" lon="19.987929661184353"><ele>780.2</ele><time>2026-04-27T12:32:06Z</time></trkpt><trkpt lat="40.50784254216201" lon="19.987945775485866"><ele>784.0</ele><time>2026-04-27T12:32:07Z</time></trkpt><trkpt lat="40.50773887381736" lon="19.987947989046823"><ele>784.2</ele><time>2026-04-27T12:32:08Z</time></trkpt><trkpt lat="40.50762494040206" lon="19.987949885979177"><ele>784.4000000000001</ele><time>2026-04-27T12:32:09Z</time></trkpt><trkpt lat="40.50751958760725" lon="19.98796824296053"><ele>784.6</ele><time>2026-04-27T12:32:10Z</time></trkpt><trkpt lat="40.5074210459172" lon="19.988032473192927"><ele>784.8</ele><time>2026-04-27T12:32:11Z</time></trkpt><trkpt lat="40.507357841793464" lon="19.98811583002056"><ele>785.0</ele><time>2026-04-27T12:32:12Z</time></trkpt><trkpt lat="40.50730946479353" lon="19.988198790507507"><ele>785.0000000000001</ele><time>2026-04-27T12:32:13Z</time></trkpt><trkpt lat="40.507255054204094" lon="19.988260593181703"><ele>785.0</ele><time>2026-04-27T12:32:14Z</time></trkpt><trkpt lat="40.50719683426495" lon="19.988326722776964"><ele>785.0</ele><time>2026-04-27T12:32:15Z</time></trkpt><trkpt lat="40.50712639784689" lon="19.988358527169087"><ele>785.0</ele><time>2026-04-27T12:32:16Z</time></trkpt><trkpt lat="40.50705197408264" lon="19.988408497456785"><ele>785.0000000000001</ele><time>2026-04-27T12:32:17Z</time></trkpt><trkpt lat="40.506948084056255" lon="19.988424767682965"><ele>785.0</ele><time>2026-04-27T12:32:19Z</time></trkpt><trkpt lat="40.5068748862874" lon="19.988434898933555"><ele>782.0000000000001</ele><time>2026-04-27T12:32:24Z</time></trkpt><trkpt lat="40.506937516420166" lon="19.988554290286206"><ele>779.0</ele><time>2026-04-27T12:33:40.999Z</time></trkpt><trkpt lat="40.50687372021143" lon="19.98856196216262"><ele>776.0</ele><time>2026-04-27T12:38:51.999Z</time></trkpt><trkpt lat="40.50680190934745" lon="19.988569769335395"><ele>773.0</ele><time>2026-04-27T12:38:52.999Z</time></trkpt><trkpt lat="40.506721680255026" lon="19.988578553816822"><ele>770.0</ele><time>2026-04-27T12:38:53.999Z</time></trkpt><trkpt lat="40.506643543805836" lon="19.988585599248523"><ele>767.0</ele><time>2026-04-27T12:38:54.999Z</time></trkpt><trkpt lat="40.506552743479666" lon="19.988458838642604"><ele>767.0</ele><time>2026-04-27T12:38:55.999Z</time></trkpt><trkpt lat="40.506445747382074" lon="19.98846462494858"><ele>767.0</ele><time>2026-04-27T12:38:56.999Z</time></trkpt><trkpt lat="40.50633871282827" lon="19.988471380322228"><ele>767.0</ele><time>2026-04-27T12:38:57.999Z</time></trkpt><trkpt lat="40.506213703123876" lon="19.988457384100066"><ele>767.0</ele><time>2026-04-27T12:38:58.999Z</time></trkpt><trkpt lat="40.506097592970164" lon="19.988445444041822"><ele>769.0</ele><time>2026-04-27T12:38:59.999Z</time></trkpt><trkpt lat="40.505999864825164" lon="19.988416973921098"><ele>771.0</ele><time>2026-04-27T12:39:00.999Z</time></trkpt><trkpt lat="40.505911172597045" lon="19.988370209702644"><ele>773.0</ele><time>2026-04-27T12:39:01.999Z</time></trkpt><trkpt lat="40.50578604282014" lon="19.98830497692405"><ele>775.0</ele><time>2026-04-27T12:39:02.999Z</time></trkpt><trkpt lat="40.50566484893485" lon="19.988257993370368"><ele>783.25</ele><time>2026-04-27T12:39:03.999Z</time></trkpt><trkpt lat="40.505525118390416" lon="19.988293427158535"><ele>791.5</ele><time>2026-04-27T12:39:04.999Z</time></trkpt><trkpt lat="40.50541580725677" lon="19.988296232695095"><ele>799.75</ele><time>2026-04-27T12:39:05.999Z</time></trkpt><trkpt lat="40.50530680511536" lon="19.98830083536673"><ele>808.0</ele><time>2026-04-27T12:39:06.999Z</time></trkpt><trkpt lat="40.50519348794171" lon="19.98830619365485"><ele>808.0</ele><time>2026-04-27T12:39:07.999Z</time></trkpt><trkpt lat="40.50510618859943" lon="19.988267506500634"><ele>808.0</ele><time>2026-04-27T12:39:08.999Z</time></trkpt><trkpt lat="40.50500808018679" lon="19.988235612029847"><ele>808.0</ele><time>2026-04-27T12:39:09.999Z</time></trkpt><trkpt lat="40.504903340147976" lon="19.988199503086857"><ele>808.0</ele><time>2026-04-27T12:39:10.999Z</time></trkpt><trkpt lat="40.504839381702304" lon="19.98812758479407"><ele>808.0</ele><time>2026-04-27T12:39:11.999Z</time></trkpt><trkpt lat="40.50474780026081" lon="19.988061612058427"><ele>808.0</ele><time>2026-04-27T12:39:12.999Z</time></trkpt><trkpt lat="40.504688484677835" lon="19.987981804327873"><ele>808.0</ele><time>2026-04-27T12:39:13.999Z</time></trkpt><trkpt lat="40.50461105413016" lon="19.98789300587515"><ele>808.0</ele><time>2026-04-27T12:39:14.999Z</time></trkpt><trkpt lat="40.504541047367795" lon="19.987803560830216"><ele>808.0</ele><time>2026-04-27T12:39:15.999Z</time></trkpt><trkpt lat="40.504460235923524" lon="19.987694555382816"><ele>808.0</ele><time>2026-04-27T12:39:16.999Z</time></trkpt><trkpt lat="40.50439268771155" lon="19.987591977340447"><ele>810.2</ele><time>2026-04-27T12:39:17.999Z</time></trkpt><trkpt lat="40.50432833230742" lon="19.987480327366704"><ele>812.4</ele><time>2026-04-27T12:39:18.999Z</time></trkpt><trkpt lat="40.50425502430786" lon="19.98736261549937"><ele>814.6</ele><time>2026-04-27T12:39:19.999Z</time></trkpt><trkpt lat="40.504185719253044" lon="19.98726695964876"><ele>816.8000000000001</ele><time>2026-04-27T12:39:20.999Z</time></trkpt><trkpt lat="40.504118582177625" lon="19.98717523998097"><ele>819.0</ele><time>2026-04-27T12:39:21.999Z</time></trkpt><trkpt lat="40.504048940857075" lon="19.987080099147008"><ele>819.0</ele><time>2026-04-27T12:39:22.999Z</time></trkpt><trkpt lat="40.5039777355339" lon="19.986982821627585"><ele>819.0</ele><time>2026-04-27T12:39:23.999Z</time></trkpt><trkpt lat="40.503911393313665" lon="19.98688410131278"><ele>819.0</ele><time>2026-04-27T12:39:24.999Z</time></trkpt><trkpt lat="40.50384185168826" lon="19.986772452557474"><ele>819.0</ele><time>2026-04-27T12:39:25.999Z</time></trkpt><trkpt lat="40.50379958532147" lon="19.9866612796112"><ele>819.0</ele><time>2026-04-27T12:39:26.999Z</time></trkpt><trkpt lat="40.50375706700014" lon="19.98653676582251"><ele>820.4000000000001</ele><time>2026-04-27T12:39:27.999Z</time></trkpt><trkpt lat="40.503716765400014" lon="19.986403336398457"><ele>821.8</ele><time>2026-04-27T12:39:28.999Z</time></trkpt><trkpt lat="40.503676995917225" lon="19.986270831444987"><ele>823.2</ele><time>2026-04-27T12:39:29.999Z</time></trkpt><trkpt lat="40.50363980070862" lon="19.986147817256487"><ele>824.5999999999999</ele><time>2026-04-27T12:39:30.999Z</time></trkpt><trkpt lat="40.50360035396723" lon="19.986028625947448"><ele>826.0</ele><time>2026-04-27T12:39:31.999Z</time></trkpt><trkpt lat="40.503556204506" lon="19.985919406939637"><ele>830.1999999999999</ele><time>2026-04-27T12:39:32.999Z</time></trkpt><trkpt lat="40.503492288859306" lon="19.9858054364837"><ele>834.4</ele><time>2026-04-27T12:39:33.999Z</time></trkpt><trkpt lat="40.50342141869083" lon="19.98571093942569"><ele>838.6</ele><time>2026-04-27T12:39:34.999Z</time></trkpt><trkpt lat="40.503309051780455" lon="19.985659384257406"><ele>842.8</ele><time>2026-04-27T12:39:35.999Z</time></trkpt><trkpt lat="40.50322617064862" lon="19.985585116439736"><ele>847.0</ele><time>2026-04-27T12:39:36.999Z</time></trkpt><trkpt lat="40.503136660353725" lon="19.98549900904699"><ele>847.0</ele><time>2026-04-27T12:39:37.999Z</time></trkpt><trkpt lat="40.50301552003347" lon="19.985437701964717"><ele>847.0</ele><time>2026-04-27T12:39:38.999Z</time></trkpt><trkpt lat="40.5029200123148" lon="19.985391643011013"><ele>847.0</ele><time>2026-04-27T12:39:39.999Z</time></trkpt><trkpt lat="40.50283229482109" lon="19.985349353793307"><ele>847.0</ele><time>2026-04-27T12:39:40.999Z</time></trkpt><trkpt lat="40.50275396799611" lon="19.985296034138337"><ele>847.0</ele><time>2026-04-27T12:39:41.999Z</time></trkpt><trkpt lat="40.502667644260555" lon="19.985238209594186"><ele>848.4999999999999</ele><time>2026-04-27T12:39:42.999Z</time></trkpt><trkpt lat="40.50259664263076" lon="19.985173930716314"><ele>850.0</ele><time>2026-04-27T12:39:43.999Z</time></trkpt><trkpt lat="40.50252042964855" lon="19.985103140366693"><ele>851.5</ele><time>2026-04-27T12:39:44.999Z</time></trkpt><trkpt lat="40.5024731820965" lon="19.98502113792184"><ele>853.0</ele><time>2026-04-27T12:39:45.999Z</time></trkpt><trkpt lat="40.50242274428248" lon="19.984950370673214"><ele>854.4999999999999</ele><time>2026-04-27T12:39:46.999Z</time></trkpt><trkpt lat="40.50242059948688" lon="19.98485533379794"><ele>856.0</ele><time>2026-04-27T12:39:47.999Z</time></trkpt><trkpt lat="40.50240367405921" lon="19.984760788275334"><ele>856.0</ele><time>2026-04-27T12:39:48.999Z</time></trkpt><trkpt lat="40.50240135562863" lon="19.98465246248723"><ele>855.9999999999999</ele><time>2026-04-27T12:39:49.999Z</time></trkpt><trkpt lat="40.5023924013728" lon="19.984530405744913"><ele>855.9999999999999</ele><time>2026-04-27T12:39:50.999Z</time></trkpt><trkpt lat="40.50236741496369" lon="19.984401449825707"><ele>856.0</ele><time>2026-04-27T12:39:51.999Z</time></trkpt><trkpt lat="40.50233936265656" lon="19.984279348731743"><ele>856.0</ele><time>2026-04-27T12:39:52.999Z</time></trkpt><trkpt lat="40.50229982229777" lon="19.984144274010063"><ele>855.8</ele><time>2026-04-27T12:39:53.999Z</time></trkpt><trkpt lat="40.502257370149586" lon="19.984027577506048"><ele>855.5999999999999</ele><time>2026-04-27T12:39:54.999Z</time></trkpt><trkpt lat="40.50219937837404" lon="19.983892152447"><ele>855.4</ele><time>2026-04-27T12:39:55.999Z</time></trkpt><trkpt lat="40.502134809278495" lon="19.983784853041385"><ele>855.2</ele><time>2026-04-27T12:39:56.999Z</time></trkpt><trkpt lat="40.502056681519434" lon="19.983683092095593"><ele>855.0</ele><time>2026-04-27T12:39:57.999Z</time></trkpt><trkpt lat="40.50198224757937" lon="19.983577213964928"><ele>855.0</ele><time>2026-04-27T12:39:58.999Z</time></trkpt><trkpt lat="40.50190529996834" lon="19.983468554190708"><ele>855.0</ele><time>2026-04-27T12:39:59.999Z</time></trkpt><trkpt lat="40.50182993969096" lon="19.983363569299573"><ele>855.0</ele><time>2026-04-27T12:40:00.999Z</time></trkpt><trkpt lat="40.50169954647969" lon="19.983307149304085"><ele>855.0</ele><time>2026-04-27T12:40:01.999Z</time></trkpt><trkpt lat="40.501599249418604" lon="19.98324122632218"><ele>857.0</ele><time>2026-04-27T12:40:02.999Z</time></trkpt><trkpt lat="40.50149760941616" lon="19.983174420384906"><ele>859.0</ele><time>2026-04-27T12:40:03.999Z</time></trkpt><trkpt lat="40.5014325588256" lon="19.983033185830195"><ele>861.0</ele><time>2026-04-27T12:40:04.999Z</time></trkpt><trkpt lat="40.5013049047237" lon="19.98293454148587"><ele>863.0</ele><time>2026-04-27T12:40:05.999Z</time></trkpt><trkpt lat="40.50118994579417" lon="19.982889817868053"><ele>863.0000000000001</ele><time>2026-04-27T12:40:06.999Z</time></trkpt><trkpt lat="40.50109467368918" lon="19.98285079363976"><ele>863.0</ele><time>2026-04-27T12:40:07.999Z</time></trkpt><trkpt lat="40.50101714348457" lon="19.982813928385834"><ele>863.0</ele><time>2026-04-27T12:40:08.999Z</time></trkpt><trkpt lat="40.50096610759695" lon="19.9827606974962"><ele>863.0</ele><time>2026-04-27T12:40:09.999Z</time></trkpt><trkpt lat="40.50090252856029" lon="19.98268745413424"><ele>863.0000000000001</ele><time>2026-04-27T12:40:10.999Z</time></trkpt><trkpt lat="40.500877485345754" lon="19.98260983212065"><ele>863.0</ele><time>2026-04-27T12:40:11.999Z</time></trkpt><trkpt lat="40.500862399233974" lon="19.982516956067293"><ele>866.4</ele><time>2026-04-27T12:40:12.999Z</time></trkpt><trkpt lat="40.500836969434864" lon="19.982389817059214"><ele>869.8</ele><time>2026-04-27T12:40:13.999Z</time></trkpt><trkpt lat="40.50081159205489" lon="19.98226383791891"><ele>873.2</ele><time>2026-04-27T12:40:14.999Z</time></trkpt><trkpt lat="40.50078929877216" lon="19.98215316894124"><ele>876.6</ele><time>2026-04-27T12:40:15.999Z</time></trkpt><trkpt lat="40.500767548126056" lon="19.982050358275185"><ele>880.0</ele><time>2026-04-27T12:40:16.999Z</time></trkpt><trkpt lat="40.500750401368705" lon="19.98194298889442"><ele>879.9999999999999</ele><time>2026-04-27T12:40:17.999Z</time></trkpt><trkpt lat="40.50074033582911" lon="19.98181990780169"><ele>880.0</ele><time>2026-04-27T12:40:18.999Z</time></trkpt><trkpt lat="40.500728626126254" lon="19.981707073661173"><ele>880.0</ele><time>2026-04-27T12:40:19.999Z</time></trkpt><trkpt lat="40.50071077102316" lon="19.981609506594836"><ele>880.0</ele><time>2026-04-27T12:40:20.999Z</time></trkpt><trkpt lat="40.500689086379026" lon="19.981528068245712"><ele>879.9999999999999</ele><time>2026-04-27T12:40:21.999Z</time></trkpt><trkpt lat="40.50062394448504" lon="19.9814570126545"><ele>880.0</ele><time>2026-04-27T12:40:22.999Z</time></trkpt><trkpt lat="40.50055599622799" lon="19.98139613593017"><ele>878.8333333333333</ele><time>2026-04-27T12:40:23.998Z</time></trkpt><trkpt lat="40.50046108306086" lon="19.981354055618652"><ele>877.6666666666666</ele><time>2026-04-27T12:40:24.998Z</time></trkpt><trkpt lat="40.500384476715006" lon="19.981326871700208"><ele>876.5</ele><time>2026-04-27T12:40:25.998Z</time></trkpt><trkpt lat="40.50030117117091" lon="19.981298292604887"><ele>875.3333333333333</ele><time>2026-04-27T12:40:26.998Z</time></trkpt><trkpt lat="40.50022117016211" lon="19.981270129462615"><ele>874.1666666666666</ele><time>2026-04-27T12:40:27.998Z</time></trkpt><trkpt lat="40.50014119345135" lon="19.98124191741549"><ele>873.0</ele><time>2026-04-27T12:40:28.999Z</time></trkpt><trkpt lat="40.50002733138095" lon="19.98119377276424"><ele>873.0</ele><time>2026-04-27T12:40:30.999Z</time></trkpt><trkpt lat="40.49993710803627" lon="19.98112012461819"><ele>873.0</ele><time>2026-04-27T12:40:32.999Z</time></trkpt><trkpt lat="40.49989868232777" lon="19.980998126991175"><ele>873.0</ele><time>2026-04-27T12:40:34.999Z</time></trkpt><trkpt lat="40.49988315558165" lon="19.980895455865685"><ele>873.0</ele><time>2026-04-27T12:40:35.999Z</time></trkpt><trkpt lat="40.49987105371325" lon="19.9807826200936"><ele>873.0</ele><time>2026-04-27T12:40:36.999Z</time></trkpt><trkpt lat="40.49986428250783" lon="19.980678269854725"><ele>875.4</ele><time>2026-04-27T12:40:37.999Z</time></trkpt><trkpt lat="40.499856971391296" lon="19.980566370491136"><ele>877.8</ele><time>2026-04-27T12:40:38.999Z</time></trkpt><trkpt lat="40.499849391604215" lon="19.980452227844744"><ele>880.2</ele><time>2026-04-27T12:40:39.999Z</time></trkpt><trkpt lat="40.49984106626172" lon="19.98032685791887"><ele>882.6</ele><time>2026-04-27T12:40:40.999Z</time></trkpt><trkpt lat="40.49983185542137" lon="19.98019789469322"><ele>885.0</ele><time>2026-04-27T12:40:41.999Z</time></trkpt><trkpt lat="40.499823105324275" lon="19.980063558014493"><ele>886.0</ele><time>2026-04-27T12:40:42.999Z</time></trkpt><trkpt lat="40.49981417366501" lon="19.97992643355794"><ele>887.0</ele><time>2026-04-27T12:40:43.999Z</time></trkpt><trkpt lat="40.49981700913063" lon="19.979795849178576"><ele>888.0</ele><time>2026-04-27T12:40:44.999Z</time></trkpt><trkpt lat="40.49981903296435" lon="19.979655226927715"><ele>889.0</ele><time>2026-04-27T12:40:45.999Z</time></trkpt><trkpt lat="40.49982148254286" lon="19.979510553589456"><ele>890.0</ele><time>2026-04-27T12:40:46.999Z</time></trkpt><trkpt lat="40.499824057681955" lon="19.979358129417964"><ele>890.0</ele><time>2026-04-27T12:40:47.999Z</time></trkpt><trkpt lat="40.49982610840392" lon="19.979207253237625"><ele>890.0</ele><time>2026-04-27T12:40:48.999Z</time></trkpt><trkpt lat="40.49982978374603" lon="19.979066974697712"><ele>890.0</ele><time>2026-04-27T12:40:49.999Z</time></trkpt><trkpt lat="40.49984530142972" lon="19.978933304777208"><ele>890.0</ele><time>2026-04-27T12:40:50.999Z</time></trkpt><trkpt lat="40.49986159669848" lon="19.978787605856695"><ele>890.0</ele><time>2026-04-27T12:40:51.999Z</time></trkpt><trkpt lat="40.49987790488044" lon="19.978642500892597"><ele>892.0</ele><time>2026-04-27T12:40:52.999Z</time></trkpt><trkpt lat="40.499879117547366" lon="19.97851560033564"><ele>894.0</ele><time>2026-04-27T12:40:53.999Z</time></trkpt><trkpt lat="40.499876888909284" lon="19.978416871607248"><ele>896.0</ele><time>2026-04-27T12:40:54.999Z</time></trkpt><trkpt lat="40.499845700659385" lon="19.97828805246664"><ele>898.0</ele><time>2026-04-27T12:40:55.999Z</time></trkpt><trkpt lat="40.49979468519074" lon="19.978167702203237"><ele>900.0</ele><time>2026-04-27T12:40:56.999Z</time></trkpt><trkpt lat="40.49976411946574" lon="19.97801726346553"><ele>902.0</ele><time>2026-04-27T12:40:57.999Z</time></trkpt><trkpt lat="40.49972457802704" lon="19.97786384473808"><ele>904.0</ele><time>2026-04-27T12:40:58.999Z</time></trkpt><trkpt lat="40.49970170718045" lon="19.97771566815387"><ele>906.0</ele><time>2026-04-27T12:40:59.999Z</time></trkpt><trkpt lat="40.49966449269942" lon="19.977549925510257"><ele>908.0</ele><time>2026-04-27T12:41:00.999Z</time></trkpt><trkpt lat="40.499607084718846" lon="19.977425689916533"><ele>904.8</ele><time>2026-04-27T12:41:01.999Z</time></trkpt><trkpt lat="40.49956927832967" lon="19.97731125138628"><ele>901.5999999999999</ele><time>2026-04-27T12:41:02.999Z</time></trkpt><trkpt lat="40.49954520292575" lon="19.97719958266168"><ele>898.4000000000001</ele><time>2026-04-27T12:41:03.999Z</time></trkpt><trkpt lat="40.499526154677575" lon="19.977055817125468"><ele>895.2</ele><time>2026-04-27T12:41:04.999Z</time></trkpt><trkpt lat="40.49953662341962" lon="19.97688625713796"><ele>892.0</ele><time>2026-04-27T12:41:05.999Z</time></trkpt><trkpt lat="40.49956182972203" lon="19.976703122464123"><ele>902.0</ele><time>2026-04-27T12:41:06.999Z</time></trkpt><trkpt lat="40.49961207619306" lon="19.976531563758073"><ele>912.0</ele><time>2026-04-27T12:41:07.999Z</time></trkpt><trkpt lat="40.49966570354866" lon="19.976369992055943"><ele>922.0</ele><time>2026-04-27T12:41:08.999Z</time></trkpt><trkpt lat="40.49970355291627" lon="19.97622344565796"><ele>932.0</ele><time>2026-04-27T12:41:09.999Z</time></trkpt><trkpt lat="40.49973746896558" lon="19.976087592473217"><ele>932.0000000000001</ele><time>2026-04-27T12:41:10.999Z</time></trkpt><trkpt lat="40.49975506931828" lon="19.97597519846514"><ele>932.0</ele><time>2026-04-27T12:41:11.999Z</time></trkpt><trkpt lat="40.4997569867897" lon="19.97588040255996"><ele>932.0</ele><time>2026-04-27T12:41:12.999Z</time></trkpt><trkpt lat="40.49975070728115" lon="19.975794563702813"><ele>932.0</ele><time>2026-04-27T12:41:13.999Z</time></trkpt><trkpt lat="40.49969299115665" lon="19.97565134117648"><ele>932.0000000000001</ele><time>2026-04-27T12:41:15.999Z</time></trkpt><trkpt lat="40.49963732120893" lon="19.975589582953006"><ele>932.0</ele><time>2026-04-27T12:41:16.999Z</time></trkpt><trkpt lat="40.49956601135841" lon="19.975551477213877"><ele>931.1666666666667</ele><time>2026-04-27T12:41:17.999Z</time></trkpt><trkpt lat="40.49949050952054" lon="19.97554623300363"><ele>930.3333333333334</ele><time>2026-04-27T12:41:18.999Z</time></trkpt><trkpt lat="40.499416523757844" lon="19.97559301141921"><ele>929.5</ele><time>2026-04-27T12:41:19.999Z</time></trkpt><trkpt lat="40.49934126627835" lon="19.97566346005972"><ele>928.6666666666667</ele><time>2026-04-27T12:41:20.999Z</time></trkpt><trkpt lat="40.49926301483919" lon="19.97570817424177"><ele>927.8333333333334</ele><time>2026-04-27T12:41:21.999Z</time></trkpt><trkpt lat="40.49921790461495" lon="19.9758012663396"><ele>927.0</ele><time>2026-04-27T12:41:22.999Z</time></trkpt><trkpt lat="40.4991412658145" lon="19.975899259930234"><ele>924.5</ele><time>2026-04-27T12:41:23.999Z</time></trkpt><trkpt lat="40.49904257739427" lon="19.975986768664868"><ele>922.0</ele><time>2026-04-27T12:41:24.999Z</time></trkpt><trkpt lat="40.498939918541254" lon="19.976079027458145"><ele>919.5</ele><time>2026-04-27T12:41:25.999Z</time></trkpt><trkpt lat="40.498837462577825" lon="19.976170468607783"><ele>917.0</ele><time>2026-04-27T12:41:26.999Z</time></trkpt><trkpt lat="40.49872928501675" lon="19.97623481170038"><ele>917.0</ele><time>2026-04-27T12:41:27.999Z</time></trkpt><trkpt lat="40.4986063077029" lon="19.97630125409394"><ele>917.0</ele><time>2026-04-27T12:41:28.999Z</time></trkpt><trkpt lat="40.498479794163174" lon="19.976369607053915"><ele>917.0</ele><time>2026-04-27T12:41:29.999Z</time></trkpt><trkpt lat="40.49836436737585" lon="19.976432626996967"><ele>917.0</ele><time>2026-04-27T12:41:30.999Z</time></trkpt><trkpt lat="40.498269733691764" lon="19.976476448309256"><ele>917.0</ele><time>2026-04-27T12:41:31.999Z</time></trkpt><trkpt lat="40.49817214105265" lon="19.97652049235782"><ele>917.0</ele><time>2026-04-27T12:41:32.999Z</time></trkpt><trkpt lat="40.49807607986472" lon="19.976520158942144"><ele>917.0</ele><time>2026-04-27T12:41:33.999Z</time></trkpt><trkpt lat="40.49796779022666" lon="19.976516396389925"><ele>917.0</ele><time>2026-04-27T12:41:34.999Z</time></trkpt><trkpt lat="40.497836369958385" lon="19.97651690450773"><ele>917.0</ele><time>2026-04-27T12:41:35.999Z</time></trkpt><trkpt lat="40.49769211265249" lon="19.976517462257608"><ele>918.75</ele><time>2026-04-27T12:41:36.999Z</time></trkpt><trkpt lat="40.49754050473094" lon="19.976539663915727"><ele>920.5</ele><time>2026-04-27T12:41:37.999Z</time></trkpt><trkpt lat="40.49741429304683" lon="19.976556345309717"><ele>922.25</ele><time>2026-04-27T12:41:38.999Z</time></trkpt><trkpt lat="40.49729039977182" lon="19.976572080482224"><ele>924.0</ele><time>2026-04-27T12:41:39.999Z</time></trkpt><trkpt lat="40.49716207334682" lon="19.97658874462185"><ele>926.75</ele><time>2026-04-27T12:41:40.999Z</time></trkpt><trkpt lat="40.49703362906699" lon="19.976605482103817"><ele>929.5</ele><time>2026-04-27T12:41:41.999Z</time></trkpt><trkpt lat="40.49690628456823" lon="19.976621968161343"><ele>932.25</ele><time>2026-04-27T12:41:42.999Z</time></trkpt><trkpt lat="40.49679567515084" lon="19.976594620695256"><ele>935.0</ele><time>2026-04-27T12:41:43.999Z</time></trkpt><trkpt lat="40.49668090271792" lon="19.976559386210393"><ele>935.0</ele><time>2026-04-27T12:41:44.999Z</time></trkpt><trkpt lat="40.49654808456047" lon="19.976529183772694"><ele>935.0</ele><time>2026-04-27T12:41:45.999Z</time></trkpt><trkpt lat="40.49642687872879" lon="19.976517520928628"><ele>935.0</ele><time>2026-04-27T12:41:46.999Z</time></trkpt><trkpt lat="40.49631030408122" lon="19.976550463006777"><ele>935.0</ele><time>2026-04-27T12:41:47.999Z</time></trkpt><trkpt lat="40.496211622554675" lon="19.976571740578752"><ele>937.25</ele><time>2026-04-27T12:41:48.999Z</time></trkpt><trkpt lat="40.496096772206386" lon="19.976596227861187"><ele>939.5</ele><time>2026-04-27T12:41:49.999Z</time></trkpt><trkpt lat="40.4959567244147" lon="19.97662297138398"><ele>941.75</ele><time>2026-04-27T12:41:50.999Z</time></trkpt><trkpt lat="40.495817283642886" lon="19.976650102257857"><ele>944.0</ele><time>2026-04-27T12:41:51.999Z</time></trkpt><trkpt lat="40.49567595116404" lon="19.976679927790617"><ele>937.0</ele><time>2026-04-27T12:41:52.999Z</time></trkpt><trkpt lat="40.495536364691134" lon="19.9767127404624"><ele>930.0</ele><time>2026-04-27T12:41:53.999Z</time></trkpt><trkpt lat="40.495394480492884" lon="19.97674458528009"><ele>923.0</ele><time>2026-04-27T12:41:54.999Z</time></trkpt><trkpt lat="40.49525325506149" lon="19.976777278276487"><ele>916.0</ele><time>2026-04-27T12:41:55.999Z</time></trkpt><trkpt lat="40.49511941768945" lon="19.976740591413755"><ele>916.0</ele><time>2026-04-27T12:41:56.999Z</time></trkpt><trkpt lat="40.494964056307836" lon="19.976718893483273"><ele>916.0</ele><time>2026-04-27T12:41:57.999Z</time></trkpt><trkpt lat="40.4948223787761" lon="19.976734586670375"><ele>916.0</ele><time>2026-04-27T12:41:58.999Z</time></trkpt><trkpt lat="40.49468010380997" lon="19.976827965982892"><ele>919.0</ele><time>2026-04-27T12:41:59.999Z</time></trkpt><trkpt lat="40.494570791044325" lon="19.976891973937647"><ele>921.9999999999999</ele><time>2026-04-27T12:42:00.999Z</time></trkpt><trkpt lat="40.49447102194151" lon="19.976941532569406"><ele>924.9999999999999</ele><time>2026-04-27T12:42:01.999Z</time></trkpt><trkpt lat="40.49437795169699" lon="19.97697127919539"><ele>928.0</ele><time>2026-04-27T12:42:02.999Z</time></trkpt><trkpt lat="40.49428772844247" lon="19.976966779885593"><ele>931.0</ele><time>2026-04-27T12:42:03.999Z</time></trkpt><trkpt lat="40.49419560028249" lon="19.97696677988485"><ele>930.9999999999999</ele><time>2026-04-27T12:42:04.999Z</time></trkpt><trkpt lat="40.4941416625783" lon="19.976903904358693"><ele>931.0</ele><time>2026-04-27T12:42:05.999Z</time></trkpt><trkpt lat="40.49408638435763" lon="19.97685994855148"><ele>931.0</ele><time>2026-04-27T12:42:06.999Z</time></trkpt><trkpt lat="40.49401177657228" lon="19.97680758533219"><ele>931.0</ele><time>2026-04-27T12:42:07.999Z</time></trkpt><trkpt lat="40.4939226901039" lon="19.976745059954922"><ele>930.9999999999999</ele><time>2026-04-27T12:42:08.999Z</time></trkpt><trkpt lat="40.49385938970669" lon="19.97666016641588"><ele>931.0</ele><time>2026-04-27T12:42:09.999Z</time></trkpt><trkpt lat="40.49378704328186" lon="19.976564226824294"><ele>931.5</ele><time>2026-04-27T12:42:10.999Z</time></trkpt><trkpt lat="40.49371090568219" lon="19.976447534067255"><ele>932.0</ele><time>2026-04-27T12:42:11.999Z</time></trkpt><trkpt lat="40.49364547494445" lon="19.97633158120136"><ele>932.5</ele><time>2026-04-27T12:42:12.999Z</time></trkpt><trkpt lat="40.49357758448196" lon="19.976244222696067"><ele>933.0</ele><time>2026-04-27T12:42:13.999Z</time></trkpt><trkpt lat="40.493422921105186" lon="19.976193489294374"><ele>933.0</ele><time>2026-04-27T12:42:14.999Z</time></trkpt><trkpt lat="40.49329421650587" lon="19.97622834850142"><ele>933.0</ele><time>2026-04-27T12:42:15.999Z</time></trkpt><trkpt lat="40.493182651553944" lon="19.976242479865252"><ele>933.0</ele><time>2026-04-27T12:42:16.999Z</time></trkpt><trkpt lat="40.493042867178644" lon="19.976242479860908"><ele>933.0</ele><time>2026-04-27T12:42:17.999Z</time></trkpt><trkpt lat="40.49290010497867" lon="19.976226324975368"><ele>930.0</ele><time>2026-04-27T12:42:18.999Z</time></trkpt><trkpt lat="40.49275371423856" lon="19.976199808347335"><ele>927.0</ele><time>2026-04-27T12:42:19.999Z</time></trkpt><trkpt lat="40.49261167901798" lon="19.976175059150766"><ele>924.0</ele><time>2026-04-27T12:42:20.999Z</time></trkpt><trkpt lat="40.49247176024122" lon="19.97614741350792"><ele>921.0</ele><time>2026-04-27T12:42:21.999Z</time></trkpt><trkpt lat="40.49233880616176" lon="19.976120393337453"><ele>921.0</ele><time>2026-04-27T12:42:22.999Z</time></trkpt><trkpt lat="40.492207793949056" lon="19.976093765363117"><ele>921.0</ele><time>2026-04-27T12:42:23.999Z</time></trkpt><trkpt lat="40.49208041929016" lon="19.97605712540918"><ele>921.0</ele><time>2026-04-27T12:42:24.999Z</time></trkpt><trkpt lat="40.491957033384146" lon="19.9760174796845"><ele>921.0</ele><time>2026-04-27T12:42:25.999Z</time></trkpt><trkpt lat="40.49183276853856" lon="19.975979068082147"><ele>917.25</ele><time>2026-04-27T12:42:26.999Z</time></trkpt><trkpt lat="40.49169888503189" lon="19.97593662343692"><ele>913.5</ele><time>2026-04-27T12:42:27.999Z</time></trkpt><trkpt lat="40.49156738548638" lon="19.97589149133195"><ele>909.75</ele><time>2026-04-27T12:42:28.999Z</time></trkpt><trkpt lat="40.49143712791392" lon="19.97582777170589"><ele>906.0</ele><time>2026-04-27T12:42:29.999Z</time></trkpt><trkpt lat="40.49131191136578" lon="19.975761296727804"><ele>908.3333333333333</ele><time>2026-04-27T12:42:30.999Z</time></trkpt><trkpt lat="40.491172683001615" lon="19.975671320147224"><ele>910.6666666666666</ele><time>2026-04-27T12:42:31.999Z</time></trkpt><trkpt lat="40.49103298407603" lon="19.975579853678983"><ele>913.0</ele><time>2026-04-27T12:42:32.999Z</time></trkpt><trkpt lat="40.49090194448712" lon="19.97548789745889"><ele>913.0</ele><time>2026-04-27T12:42:33.999Z</time></trkpt><trkpt lat="40.490781170300004" lon="19.975402790742425"><ele>913.0</ele><time>2026-04-27T12:42:34.999Z</time></trkpt><trkpt lat="40.49066661266042" lon="19.975327305106426"><ele>913.0</ele><time>2026-04-27T12:42:35.999Z</time></trkpt><trkpt lat="40.49056297189641" lon="19.975260424779275"><ele>913.0</ele><time>2026-04-27T12:42:36.999Z</time></trkpt><trkpt lat="40.49046655448105" lon="19.97519832436428"><ele>913.4</ele><time>2026-04-27T12:42:37.999Z</time></trkpt><trkpt lat="40.49037302130221" lon="19.975138081567792"><ele>913.8</ele><time>2026-04-27T12:42:38.999Z</time></trkpt><trkpt lat="40.49028211727409" lon="19.975079182639575"><ele>914.2</ele><time>2026-04-27T12:42:39.999Z</time></trkpt><trkpt lat="40.49017535129195" lon="19.97500308754458"><ele>914.6</ele><time>2026-04-27T12:42:40.999Z</time></trkpt><trkpt lat="40.490087171854114" lon="19.97496954430053"><ele>915.0</ele><time>2026-04-27T12:42:41.999Z</time></trkpt><trkpt lat="40.49000029363993" lon="19.97493649637843"><ele>915.0</ele><time>2026-04-27T12:42:42.999Z</time></trkpt><trkpt lat="40.48991564277532" lon="19.97491756023322"><ele>915.0</ele><time>2026-04-27T12:42:43.999Z</time></trkpt><trkpt lat="40.48940475069992" lon="19.974893567312034"><ele>908.5</ele><time>2026-04-27T12:42:44.999Z</time></trkpt><trkpt lat="40.4892816844263" lon="19.974992489696575"><ele>902.0</ele><time>2026-04-27T12:42:45.999Z</time></trkpt><trkpt lat="40.48961979454963" lon="19.975788751896772"><ele>901.6666666666667</ele><time>2026-04-27T12:42:46.999Z</time></trkpt><trkpt lat="40.48938064052413" lon="19.975914715153884"><ele>901.3333333333333</ele><time>2026-04-27T12:42:47.999Z</time></trkpt><trkpt lat="40.489219194957165" lon="19.97591640523793"><ele>901.0</ele><time>2026-04-27T12:42:48.999Z</time></trkpt><trkpt lat="40.48907133023928" lon="19.97596362260263"><ele>901.0</ele><time>2026-04-27T12:42:49.999Z</time></trkpt><trkpt lat="40.48891837319759" lon="19.976013315500616"><ele>901.0</ele><time>2026-04-27T12:42:50.999Z</time></trkpt><trkpt lat="40.48875328528405" lon="19.976060267134677"><ele>901.0</ele><time>2026-04-27T12:42:51.999Z</time></trkpt><trkpt lat="40.48858225238291" lon="19.976131497718566"><ele>903.0</ele><time>2026-04-27T12:42:52.999Z</time></trkpt><trkpt lat="40.48840496695689" lon="19.976240206608882"><ele>905.0</ele><time>2026-04-27T12:42:53.999Z</time></trkpt><trkpt lat="40.48820510931303" lon="19.9763470977958"><ele>907.0</ele><time>2026-04-27T12:42:54.999Z</time></trkpt><trkpt lat="40.487995107202565" lon="19.976462150203325"><ele>907.6666666666666</ele><time>2026-04-27T12:42:55.999Z</time></trkpt><trkpt lat="40.48779857983058" lon="19.976572063122546"><ele>908.3333333333333</ele><time>2026-04-27T12:42:56.999Z</time></trkpt><trkpt lat="40.48763355812267" lon="19.97666060966455"><ele>909.0</ele><time>2026-04-27T12:42:57.999Z</time></trkpt><trkpt lat="40.487465147885295" lon="19.976661160121647"><ele>911.75</ele><time>2026-04-27T12:42:58.999Z</time></trkpt><trkpt lat="40.4873248605892" lon="19.976740198547464"><ele>914.5</ele><time>2026-04-27T12:42:59.999Z</time></trkpt><trkpt lat="40.48723126235394" lon="19.976795286154914"><ele>917.25</ele><time>2026-04-27T12:43:00.999Z</time></trkpt><trkpt lat="40.48711061861235" lon="19.976856659445687"><ele>920.0</ele><time>2026-04-27T12:43:01.999Z</time></trkpt><trkpt lat="40.48699635131528" lon="19.97690848830828"><ele>922.0</ele><time>2026-04-27T12:43:02.999Z</time></trkpt><trkpt lat="40.48686727229098" lon="19.97695485766219"><ele>924.0</ele><time>2026-04-27T12:43:03.999Z</time></trkpt><trkpt lat="40.48673346767001" lon="19.976904890410694"><ele>926.0</ele><time>2026-04-27T12:43:04.999Z</time></trkpt><trkpt lat="40.48663246498233" lon="19.97676961274414"><ele>928.0</ele><time>2026-04-27T12:43:05.999Z</time></trkpt><trkpt lat="40.48650975563079" lon="19.97661766343817"><ele>925.75</ele><time>2026-04-27T12:43:06.999Z</time></trkpt><trkpt lat="40.48637127080632" lon="19.976564477802476"><ele>923.5</ele><time>2026-04-27T12:43:07.999Z</time></trkpt><trkpt lat="40.486261526215955" lon="19.97652596154148"><ele>921.25</ele><time>2026-04-27T12:43:08.999Z</time></trkpt><trkpt lat="40.48615761178075" lon="19.976490654746968"><ele>919.0</ele><time>2026-04-27T12:43:09.999Z</time></trkpt><trkpt lat="40.486078092932445" lon="19.976409285778807"><ele>919.0</ele><time>2026-04-27T12:43:10.999Z</time></trkpt><trkpt lat="40.48601240809888" lon="19.97631286587089"><ele>919.0</ele><time>2026-04-27T12:43:11.999Z</time></trkpt><trkpt lat="40.485973287717144" lon="19.976181381304944"><ele>919.0</ele><time>2026-04-27T12:43:12.999Z</time></trkpt><trkpt lat="40.485943374358946" lon="19.97604067556016"><ele>919.0</ele><time>2026-04-27T12:43:13.999Z</time></trkpt><trkpt lat="40.48586970647614" lon="19.975870511246143"><ele>919.0</ele><time>2026-04-27T12:43:14.999Z</time></trkpt><trkpt lat="40.485739002064605" lon="19.97578156459944"><ele>919.0</ele><time>2026-04-27T12:43:15.999Z</time></trkpt><trkpt lat="40.48556288458605" lon="19.975875481975947"><ele>919.0</ele><time>2026-04-27T12:43:16.999Z</time></trkpt><trkpt lat="40.48543703469761" lon="19.975938176041243"><ele>919.3333333333333</ele><time>2026-04-27T12:43:17.999Z</time></trkpt><trkpt lat="40.48528288151439" lon="19.975985350329864"><ele>919.6666666666667</ele><time>2026-04-27T12:43:18.999Z</time></trkpt><trkpt lat="40.48511357104399" lon="19.97604086859076"><ele>920.0</ele><time>2026-04-27T12:43:19.999Z</time></trkpt><trkpt lat="40.48493219410646" lon="19.97610962344559"><ele>920.0</ele><time>2026-04-27T12:43:20.999Z</time></trkpt><trkpt lat="40.48477370987368" lon="19.97617927780238"><ele>920.0</ele><time>2026-04-27T12:43:21.999Z</time></trkpt><trkpt lat="40.48462696425898" lon="19.976227164134635"><ele>920.0</ele><time>2026-04-27T12:43:22.999Z</time></trkpt><trkpt lat="40.48447342764188" lon="19.976194417941407"><ele>920.3333333333334</ele><time>2026-04-27T12:43:23.999Z</time></trkpt><trkpt lat="40.48434292073983" lon="19.976061481569637"><ele>920.6666666666667</ele><time>2026-04-27T12:43:24.999Z</time></trkpt><trkpt lat="40.48422167550046" lon="19.97592407757937"><ele>921.0</ele><time>2026-04-27T12:43:25.999Z</time></trkpt><trkpt lat="40.48413081089184" lon="19.9757515369098"><ele>916.3333333333333</ele><time>2026-04-27T12:43:26.999Z</time></trkpt><trkpt lat="40.48401306872296" lon="19.97558108008929"><ele>911.6666666666666</ele><time>2026-04-27T12:43:27.999Z</time></trkpt><trkpt lat="40.48384025266641" lon="19.975493676462104"><ele>907.0</ele><time>2026-04-27T12:43:28.999Z</time></trkpt><trkpt lat="40.48366915731088" lon="19.97548334044735"><ele>903.3333333333333</ele><time>2026-04-27T12:43:29.999Z</time></trkpt><trkpt lat="40.483503112463865" lon="19.975414423869445"><ele>899.6666666666667</ele><time>2026-04-27T12:43:30.999Z</time></trkpt><trkpt lat="40.48334480911009" lon="19.975335738106942"><ele>896.0</ele><time>2026-04-27T12:43:31.999Z</time></trkpt><trkpt lat="40.483188872426965" lon="19.975254945981565"><ele>896.0</ele><time>2026-04-27T12:43:32.999Z</time></trkpt><trkpt lat="40.48304687029433" lon="19.97521704081442"><ele>896.0</ele><time>2026-04-27T12:43:33.999Z</time></trkpt><trkpt lat="40.48291032702452" lon="19.975182429506283"><ele>896.0</ele><time>2026-04-27T12:43:34.999Z</time></trkpt><trkpt lat="40.48276517627052" lon="19.975163986721142"><ele>896.0</ele><time>2026-04-27T12:43:35.999Z</time></trkpt><trkpt lat="40.48262216538926" lon="19.975170619500396"><ele>892.5</ele><time>2026-04-27T12:43:36.999Z</time></trkpt><trkpt lat="40.48250190160497" lon="19.97526371537811"><ele>889.0</ele><time>2026-04-27T12:43:37.999Z</time></trkpt><trkpt lat="40.48237859737814" lon="19.975284018044643"><ele>885.5</ele><time>2026-04-27T12:43:38.999Z</time></trkpt><trkpt lat="40.48225822011357" lon="19.975313352952956"><ele>882.0</ele><time>2026-04-27T12:43:39.999Z</time></trkpt><trkpt lat="40.48214109126189" lon="19.975344882127768"><ele>881.0</ele><time>2026-04-27T12:43:40.999Z</time></trkpt><trkpt lat="40.4820321277927" lon="19.97537637440946"><ele>880.0</ele><time>2026-04-27T12:43:41.999Z</time></trkpt><trkpt lat="40.481925956240495" lon="19.975404584661415"><ele>879.0</ele><time>2026-04-27T12:43:42.999Z</time></trkpt><trkpt lat="40.481818958808034" lon="19.97540995325523"><ele>878.0</ele><time>2026-04-27T12:43:43.999Z</time></trkpt><trkpt lat="40.48172435071399" lon="19.975441453525224"><ele>877.0</ele><time>2026-04-27T12:43:44.999Z</time></trkpt><trkpt lat="40.48164584913873" lon="19.975486775874906"><ele>877.0</ele><time>2026-04-27T12:43:45.999Z</time></trkpt><trkpt lat="40.48156795543355" lon="19.975510970746303"><ele>877.0</ele><time>2026-04-27T12:43:46.999Z</time></trkpt><trkpt lat="40.48149201923061" lon="19.97553847378376"><ele>877.0</ele><time>2026-04-27T12:43:47.999Z</time></trkpt><trkpt lat="40.48142236946247" lon="19.97567752099389"><ele>877.0</ele><time>2026-04-27T12:43:48.999Z</time></trkpt><trkpt lat="40.48135145161201" lon="19.975759471080256"><ele>877.0</ele><time>2026-04-27T12:43:49.999Z</time></trkpt><trkpt lat="40.48125470617042" lon="19.97581590863475"><ele>873.5</ele><time>2026-04-27T12:43:50.999Z</time></trkpt><trkpt lat="40.48115556347143" lon="19.97590255837075"><ele>870.0</ele><time>2026-04-27T12:43:51.999Z</time></trkpt><trkpt lat="40.48107626826787" lon="19.976055250851005"><ele>866.5</ele><time>2026-04-27T12:43:52.999Z</time></trkpt><trkpt lat="40.48102647510072" lon="19.9761988368921"><ele>863.0</ele><time>2026-04-27T12:43:53.999Z</time></trkpt><trkpt lat="40.48096354178193" lon="19.976303050316268"><ele>863.0000000000001</ele><time>2026-04-27T12:43:54.999Z</time></trkpt><trkpt lat="40.48087973220718" lon="19.97636826618584"><ele>863.0</ele><time>2026-04-27T12:43:55.999Z</time></trkpt><trkpt lat="40.48079976061202" lon="19.976410810569433"><ele>863.0</ele><time>2026-04-27T12:43:56.999Z</time></trkpt><trkpt lat="40.4807268659324" lon="19.976456696755527"><ele>863.0</ele><time>2026-04-27T12:43:57.999Z</time></trkpt><trkpt lat="40.480646188405245" lon="19.97650340666798"><ele>863.0000000000001</ele><time>2026-04-27T12:43:58.999Z</time></trkpt><trkpt lat="40.480560988001514" lon="19.976553196285945"><ele>863.0</ele><time>2026-04-27T12:43:59.999Z</time></trkpt><trkpt lat="40.48046714317176" lon="19.97660837461851"><ele>862.0</ele><time>2026-04-27T12:44:00.999Z</time></trkpt><trkpt lat="40.48036737644033" lon="19.976650774117957"><ele>861.0</ele><time>2026-04-27T12:44:01.999Z</time></trkpt><trkpt lat="40.48025617964371" lon="19.976694952071124"><ele>860.0</ele><time>2026-04-27T12:44:02.999Z</time></trkpt><trkpt lat="40.48013791024384" lon="19.976752170423282"><ele>859.0</ele><time>2026-04-27T12:44:03.999Z</time></trkpt><trkpt lat="40.48001471664953" lon="19.97679225651523"><ele>858.6666666666666</ele><time>2026-04-27T12:44:04.999Z</time></trkpt><trkpt lat="40.47987110088779" lon="19.97682744607228"><ele>858.3333333333333</ele><time>2026-04-27T12:44:05.999Z</time></trkpt><trkpt lat="40.4797193286362" lon="19.97683793724331"><ele>858.0</ele><time>2026-04-27T12:44:06.999Z</time></trkpt><trkpt lat="40.47954535092499" lon="19.97683653985169"><ele>858.0</ele><time>2026-04-27T12:44:07.999Z</time></trkpt><trkpt lat="40.479369854289" lon="19.976817396579392"><ele>858.0</ele><time>2026-04-27T12:44:08.999Z</time></trkpt><trkpt lat="40.47917058382251" lon="19.97676823422434"><ele>858.0</ele><time>2026-04-27T12:44:09.999Z</time></trkpt><trkpt lat="40.4789988416378" lon="19.97669315673096"><ele>857.25</ele><time>2026-04-27T12:44:10.999Z</time></trkpt><trkpt lat="40.478853866771104" lon="19.976633584855087"><ele>856.5</ele><time>2026-04-27T12:44:11.999Z</time></trkpt><trkpt lat="40.47872012256226" lon="19.976585035472684"><ele>855.75</ele><time>2026-04-27T12:44:12.999Z</time></trkpt><trkpt lat="40.4785902655683" lon="19.976537897153186"><ele>855.0</ele><time>2026-04-27T12:44:13.999Z</time></trkpt><trkpt lat="40.4784487498066" lon="19.976512637076443"><ele>856.0</ele><time>2026-04-27T12:44:14.999Z</time></trkpt><trkpt lat="40.478311226329694" lon="19.97649041584895"><ele>857.0</ele><time>2026-04-27T12:44:15.999Z</time></trkpt><trkpt lat="40.47817043965584" lon="19.976495839907095"><ele>858.0</ele><time>2026-04-27T12:44:16.999Z</time></trkpt><trkpt lat="40.47802987544968" lon="19.97658442057769"><ele>859.0</ele><time>2026-04-27T12:44:17.999Z</time></trkpt><trkpt lat="40.47790062163274" lon="19.97666869091938"><ele>856.3333333333333</ele><time>2026-04-27T12:44:18.999Z</time></trkpt><trkpt lat="40.4777594763607" lon="19.976741686570655"><ele>853.6666666666667</ele><time>2026-04-27T12:44:19.999Z</time></trkpt><trkpt lat="40.477613509836296" lon="19.976826724848646"><ele>851.0</ele><time>2026-04-27T12:44:20.999Z</time></trkpt><trkpt lat="40.47746151889951" lon="19.976915666649028"><ele>851.0</ele><time>2026-04-27T12:44:21.999Z</time></trkpt><trkpt lat="40.47730088339902" lon="19.976979726342766"><ele>851.0</ele><time>2026-04-27T12:44:22.999Z</time></trkpt><trkpt lat="40.47714056835985" lon="19.977076316065325"><ele>851.0</ele><time>2026-04-27T12:44:23.999Z</time></trkpt><trkpt lat="40.47698554478027" lon="19.977186609097895"><ele>851.6666666666667</ele><time>2026-04-27T12:44:24.999Z</time></trkpt><trkpt lat="40.47682918082688" lon="19.97726772303131"><ele>852.3333333333333</ele><time>2026-04-27T12:44:25.999Z</time></trkpt><trkpt lat="40.47667168291169" lon="19.97731457814379"><ele>853.0</ele><time>2026-04-27T12:44:26.999Z</time></trkpt><trkpt lat="40.47651812268303" lon="19.97737036407682"><ele>853.0</ele><time>2026-04-27T12:44:27.999Z</time></trkpt><trkpt lat="40.47636412522716" lon="19.977424123007307"><ele>853.0</ele><time>2026-04-27T12:44:28.999Z</time></trkpt><trkpt lat="40.47621949936709" lon="19.977493831864106"><ele>853.0</ele><time>2026-04-27T12:44:29.999Z</time></trkpt><trkpt lat="40.47608743909119" lon="19.977561847262542"><ele>848.0</ele><time>2026-04-27T12:44:30.999Z</time></trkpt><trkpt lat="40.475975949784704" lon="19.97770620205627"><ele>843.0</ele><time>2026-04-27T12:44:31.999Z</time></trkpt><trkpt lat="40.47588496510294" lon="19.97786373016583"><ele>838.0</ele><time>2026-04-27T12:44:32.999Z</time></trkpt><trkpt lat="40.47579352063435" lon="19.978034734403312"><ele>838.0</ele><time>2026-04-27T12:44:33.999Z</time></trkpt><trkpt lat="40.47570892242091" lon="19.978227870670292"><ele>838.0</ele><time>2026-04-27T12:44:34.999Z</time></trkpt><trkpt lat="40.47563308197452" lon="19.978420922222508"><ele>838.0</ele><time>2026-04-27T12:44:35.999Z</time></trkpt><trkpt lat="40.475568131350116" lon="19.978603574903275"><ele>837.25</ele><time>2026-04-27T12:44:36.999Z</time></trkpt><trkpt lat="40.47550562829619" lon="19.978773403482332"><ele>836.5</ele><time>2026-04-27T12:44:37.999Z</time></trkpt><trkpt lat="40.47540394164603" lon="19.978902547520335"><ele>835.75</ele><time>2026-04-27T12:44:38.999Z</time></trkpt><trkpt lat="40.475277538849824" lon="19.979030453709072"><ele>835.0</ele><time>2026-04-27T12:44:39.999Z</time></trkpt><trkpt lat="40.47513791012852" lon="19.97915943375506"><ele>831.6666666666666</ele><time>2026-04-27T12:44:40.999Z</time></trkpt><trkpt lat="40.47497414126632" lon="19.979290010058723"><ele>828.3333333333333</ele><time>2026-04-27T12:44:41.999Z</time></trkpt><trkpt lat="40.47483029135229" lon="19.97948800241755"><ele>825.0</ele><time>2026-04-27T12:44:42.999Z</time></trkpt><trkpt lat="40.47477210044304" lon="19.979881212988612"><ele>823.6666666666667</ele><time>2026-04-27T12:44:43.999Z</time></trkpt><trkpt lat="40.4745468834677" lon="19.979842472866856"><ele>822.3333333333334</ele><time>2026-04-27T12:44:44.999Z</time></trkpt><trkpt lat="40.47440374886781" lon="19.97999364945596"><ele>821.0</ele><time>2026-04-27T12:44:45.999Z</time></trkpt><trkpt lat="40.47430867417855" lon="19.980148805540697"><ele>821.0</ele><time>2026-04-27T12:44:46.999Z</time></trkpt><trkpt lat="40.474211232161004" lon="19.980258108110718"><ele>821.0</ele><time>2026-04-27T12:44:47.999Z</time></trkpt><trkpt lat="40.47409639379152" lon="19.980327765479473"><ele>821.0</ele><time>2026-04-27T12:44:48.999Z</time></trkpt><trkpt lat="40.473988625422024" lon="19.980396870885755"><ele>821.0</ele><time>2026-04-27T12:44:49.999Z</time></trkpt><trkpt lat="40.47388422576818" lon="19.98045153871881"><ele>821.0</ele><time>2026-04-27T12:44:50.999Z</time></trkpt><trkpt lat="40.47377741026169" lon="19.98050415877128"><ele>821.0</ele><time>2026-04-27T12:44:51.999Z</time></trkpt><trkpt lat="40.4736730744837" lon="19.98053483561537"><ele>821.0</ele><time>2026-04-27T12:44:52.999Z</time></trkpt><trkpt lat="40.473552462780304" lon="19.980548097891887"><ele>821.0</ele><time>2026-04-27T12:44:53.999Z</time></trkpt><trkpt lat="40.47343801780168" lon="19.980583298890785"><ele>823.75</ele><time>2026-04-27T12:44:54.999Z</time></trkpt><trkpt lat="40.473319921604805" lon="19.98065356251695"><ele>826.5</ele><time>2026-04-27T12:44:55.999Z</time></trkpt><trkpt lat="40.473207890817804" lon="19.980715244936434"><ele>829.25</ele><time>2026-04-27T12:44:56.999Z</time></trkpt><trkpt lat="40.47309732482938" lon="19.980803434395362"><ele>832.0</ele><time>2026-04-27T12:44:57.999Z</time></trkpt><trkpt lat="40.472994553164106" lon="19.980887872313144"><ele>834.0</ele><time>2026-04-27T12:44:58.999Z</time></trkpt><trkpt lat="40.47289081460781" lon="19.980968965040677"><ele>836.0</ele><time>2026-04-27T12:44:59.999Z</time></trkpt><trkpt lat="40.47278494433843" lon="19.98104944213317"><ele>838.0</ele><time>2026-04-27T12:45:00.999Z</time></trkpt><trkpt lat="40.47267890207054" lon="19.981134316916272"><ele>840.0</ele><time>2026-04-27T12:45:01.999Z</time></trkpt><trkpt lat="40.47257603198227" lon="19.981221475660327"><ele>840.0</ele><time>2026-04-27T12:45:02.999Z</time></trkpt><trkpt lat="40.47247202229811" lon="19.981329560485744"><ele>840.0</ele><time>2026-04-27T12:45:03.999Z</time></trkpt><trkpt lat="40.472378402765216" lon="19.981436876532854"><ele>840.0</ele><time>2026-04-27T12:45:04.999Z</time></trkpt><trkpt lat="40.4722844496822" lon="19.98155975255165"><ele>840.0</ele><time>2026-04-27T12:45:05.999Z</time></trkpt><trkpt lat="40.47219603586072" lon="19.981682177953065"><ele>839.25</ele><time>2026-04-27T12:45:06.999Z</time></trkpt><trkpt lat="40.47209829371917" lon="19.981783492656916"><ele>838.5</ele><time>2026-04-27T12:45:07.999Z</time></trkpt><trkpt lat="40.471984158813484" lon="19.98188622889221"><ele>837.75</ele><time>2026-04-27T12:45:08.999Z</time></trkpt><trkpt lat="40.47185715325411" lon="19.982006739733123"><ele>837.0</ele><time>2026-04-27T12:45:09.999Z</time></trkpt><trkpt lat="40.471746358322825" lon="19.982135841029496"><ele>837.0</ele><time>2026-04-27T12:45:10.999Z</time></trkpt><trkpt lat="40.471672733855705" lon="19.982289803409607"><ele>837.0</ele><time>2026-04-27T12:45:11.999Z</time></trkpt><trkpt lat="40.47156738944742" lon="19.982353368010642"><ele>837.0</ele><time>2026-04-27T12:45:12.999Z</time></trkpt><trkpt lat="40.4714523294424" lon="19.98239019088565"><ele>837.0</ele><time>2026-04-27T12:45:13.999Z</time></trkpt><trkpt lat="40.47134537295953" lon="19.982445196490104"><ele>834.0</ele><time>2026-04-27T12:45:14.999Z</time></trkpt><trkpt lat="40.47123911542417" lon="19.98253151498038"><ele>831.0</ele><time>2026-04-27T12:45:15.999Z</time></trkpt><trkpt lat="40.47115314558622" lon="19.982659646155252"><ele>828.0</ele><time>2026-04-27T12:45:16.999Z</time></trkpt><trkpt lat="40.47108636852627" lon="19.982779904555347"><ele>825.0</ele><time>2026-04-27T12:45:17.999Z</time></trkpt><trkpt lat="40.471138946931944" lon="19.98300901010243"><ele>825.0</ele><time>2026-04-27T12:45:18.999Z</time></trkpt><trkpt lat="40.471125032157154" lon="19.983179684929702"><ele>825.0</ele><time>2026-04-27T12:45:19.999Z</time></trkpt><trkpt lat="40.47109133926107" lon="19.983350661911153"><ele>825.0</ele><time>2026-04-27T12:45:20.999Z</time></trkpt><trkpt lat="40.47100060262501" lon="19.983483980109376"><ele>825.0</ele><time>2026-04-27T12:45:21.999Z</time></trkpt><trkpt lat="40.470896507748705" lon="19.983607697323407"><ele>826.5</ele><time>2026-04-27T12:45:22.999Z</time></trkpt><trkpt lat="40.47079011864637" lon="19.983715361392576"><ele>828.0</ele><time>2026-04-27T12:45:23.999Z</time></trkpt><trkpt lat="40.47068335716513" lon="19.983811354650527"><ele>829.5</ele><time>2026-04-27T12:45:24.999Z</time></trkpt><trkpt lat="40.470590694872584" lon="19.983902226308665"><ele>831.0</ele><time>2026-04-27T12:45:25.999Z</time></trkpt><trkpt lat="40.47050776162852" lon="19.98400879212988"><ele>828.5</ele><time>2026-04-27T12:45:26.999Z</time></trkpt><trkpt lat="40.470434445453755" lon="19.98411703102772"><ele>826.0</ele><time>2026-04-27T12:45:27.999Z</time></trkpt><trkpt lat="40.4703763254473" lon="19.98425243636856"><ele>823.5</ele><time>2026-04-27T12:45:28.999Z</time></trkpt><trkpt lat="40.47032983690625" lon="19.98439993444905"><ele>821.0</ele><time>2026-04-27T12:45:29.999Z</time></trkpt><trkpt lat="40.47029112489278" lon="19.984548520714597"><ele>821.0</ele><time>2026-04-27T12:45:30.999Z</time></trkpt><trkpt lat="40.47025098688603" lon="19.98470760711291"><ele>821.0</ele><time>2026-04-27T12:45:31.999Z</time></trkpt><trkpt lat="40.470238442074866" lon="19.98487877806854"><ele>821.0</ele><time>2026-04-27T12:45:32.999Z</time></trkpt><trkpt lat="40.47024570453134" lon="19.985031165675164"><ele>821.0</ele><time>2026-04-27T12:45:33.999Z</time></trkpt><trkpt lat="40.47032915124627" lon="19.98517657922954"><ele>821.25</ele><time>2026-04-27T12:45:34.999Z</time></trkpt><trkpt lat="40.47034938806856" lon="19.985334989906676"><ele>821.5</ele><time>2026-04-27T12:45:35.999Z</time></trkpt><trkpt lat="40.47033792113523" lon="19.98550463331572"><ele>821.75</ele><time>2026-04-27T12:45:36.999Z</time></trkpt><trkpt lat="40.47026495435494" lon="19.985670473750655"><ele>822.0</ele><time>2026-04-27T12:45:37.999Z</time></trkpt><trkpt lat="40.47020983449366" lon="19.98585621676656"><ele>823.6666666666667</ele><time>2026-04-27T12:45:38.999Z</time></trkpt><trkpt lat="40.47012015869253" lon="19.98602993666076"><ele>825.3333333333334</ele><time>2026-04-27T12:45:39.999Z</time></trkpt><trkpt lat="40.47001240471488" lon="19.986205355293205"><ele>827.0</ele><time>2026-04-27T12:45:40.999Z</time></trkpt><trkpt lat="40.46986500269988" lon="19.98633593487146"><ele>827.0</ele><time>2026-04-27T12:45:41.999Z</time></trkpt><trkpt lat="40.46970304694119" lon="19.98646911268361"><ele>827.0</ele><time>2026-04-27T12:45:42.999Z</time></trkpt><trkpt lat="40.46952524703965" lon="19.98668549768082"><ele>827.0</ele><time>2026-04-27T12:45:43.999Z</time></trkpt><trkpt lat="40.46940269677128" lon="19.98689139333059"><ele>825.3333333333334</ele><time>2026-04-27T12:45:44.999Z</time></trkpt><trkpt lat="40.46924911694044" lon="19.987060401192576"><ele>823.6666666666667</ele><time>2026-04-27T12:45:45.999Z</time></trkpt><trkpt lat="40.469095863244185" lon="19.987299008322992"><ele>822.0</ele><time>2026-04-27T12:45:46.999Z</time></trkpt><trkpt lat="40.468965616282155" lon="19.98754909595693"><ele>818.5</ele><time>2026-04-27T12:45:47.999Z</time></trkpt><trkpt lat="40.46878111328825" lon="19.987790869418408"><ele>815.0</ele><time>2026-04-27T12:45:48.999Z</time></trkpt><trkpt lat="40.46857501988914" lon="19.988024499867983"><ele>815.0</ele><time>2026-04-27T12:45:49.999Z</time></trkpt><trkpt lat="40.46841207074556" lon="19.988281818810325"><ele>815.0</ele><time>2026-04-27T12:45:50.999Z</time></trkpt><trkpt lat="40.46828553840759" lon="19.988543076682628"><ele>816.5</ele><time>2026-04-27T12:45:51.999Z</time></trkpt><trkpt lat="40.46812809311501" lon="19.988784411561205"><ele>818.0</ele><time>2026-04-27T12:45:52.999Z</time></trkpt><trkpt lat="40.46796547353041" lon="19.989037814641712"><ele>818.5</ele><time>2026-04-27T12:45:53.999Z</time></trkpt><trkpt lat="40.46779422725007" lon="19.98929843898468"><ele>819.0</ele><time>2026-04-27T12:45:54.999Z</time></trkpt><trkpt lat="40.46758751635404" lon="19.989517186122583"><ele>819.0</ele><time>2026-04-27T12:45:55.999Z</time></trkpt><trkpt lat="40.46740446653391" lon="19.98974842957716"><ele>819.0</ele><time>2026-04-27T12:45:56.999Z</time></trkpt><trkpt lat="40.46724724031125" lon="19.989976099302982"><ele>815.6666666666667</ele><time>2026-04-27T12:45:57.999Z</time></trkpt><trkpt lat="40.46712033742807" lon="19.990227968989974"><ele>812.3333333333334</ele><time>2026-04-27T12:45:58.999Z</time></trkpt><trkpt lat="40.46697054685472" lon="19.990436887849327"><ele>809.0</ele><time>2026-04-27T12:45:59.999Z</time></trkpt><trkpt lat="40.466831917015575" lon="19.990646390170163"><ele>808.3333333333334</ele><time>2026-04-27T12:46:00.999Z</time></trkpt><trkpt lat="40.46667584003231" lon="19.990855048722516"><ele>807.6666666666667</ele><time>2026-04-27T12:46:01.999Z</time></trkpt><trkpt lat="40.466578686120606" lon="19.991114032099507"><ele>807.0</ele><time>2026-04-27T12:46:02.999Z</time></trkpt><trkpt lat="40.46649037817106" lon="19.991339432583565"><ele>807.0</ele><time>2026-04-27T12:46:03.999Z</time></trkpt><trkpt lat="40.466398659346744" lon="19.991549471587028"><ele>807.0</ele><time>2026-04-27T12:46:04.999Z</time></trkpt><trkpt lat="40.46627286137583" lon="19.99173326321595"><ele>807.0</ele><time>2026-04-27T12:46:05.999Z</time></trkpt><trkpt lat="40.46606380828562" lon="19.991797580989015"><ele>812.6666666666667</ele><time>2026-04-27T12:46:06.999Z</time></trkpt><trkpt lat="40.46593423859723" lon="19.99195498579192"><ele>818.3333333333334</ele><time>2026-04-27T12:46:07.999Z</time></trkpt><trkpt lat="40.46584469701753" lon="19.992193730170484"><ele>824.0</ele><time>2026-04-27T12:46:08.999Z</time></trkpt><trkpt lat="40.46571666330685" lon="19.992427869419558"><ele>827.0</ele><time>2026-04-27T12:46:09.999Z</time></trkpt><trkpt lat="40.46560620359636" lon="19.992699669478526"><ele>830.0</ele><time>2026-04-27T12:46:10.999Z</time></trkpt><trkpt lat="40.465505842616565" lon="19.99293591663268"><ele>833.0</ele><time>2026-04-27T12:46:11.999Z</time></trkpt><trkpt lat="40.46543005395281" lon="19.993110258062785"><ele>833.0</ele><time>2026-04-27T12:46:12.999Z</time></trkpt><trkpt lat="40.465346810149136" lon="19.993187865460595"><ele>833.0</ele><time>2026-04-27T12:46:13.999Z</time></trkpt><trkpt lat="40.465244168549994" lon="19.993246104500045"><ele>833.0</ele><time>2026-04-27T12:46:14.999Z</time></trkpt><trkpt lat="40.4651213475301" lon="19.993274207993906"><ele>833.0</ele><time>2026-04-27T12:46:15.999Z</time></trkpt><trkpt lat="40.46496554413659" lon="19.99330492185641"><ele>834.0</ele><time>2026-04-27T12:46:16.999Z</time></trkpt><trkpt lat="40.464816347271196" lon="19.993365414440298"><ele>835.0</ele><time>2026-04-27T12:46:17.999Z</time></trkpt><trkpt lat="40.464673008123384" lon="19.99349344558127"><ele>836.0</ele><time>2026-04-27T12:46:18.999Z</time></trkpt><trkpt lat="40.46456621343244" lon="19.993663172005533"><ele>836.0</ele><time>2026-04-27T12:46:19.999Z</time></trkpt><trkpt lat="40.464435228035896" lon="19.993799351253784"><ele>836.0</ele><time>2026-04-27T12:46:20.999Z</time></trkpt><trkpt lat="40.46428453065776" lon="19.993917381988137"><ele>836.0</ele><time>2026-04-27T12:46:21.999Z</time></trkpt><trkpt lat="40.464123163959705" lon="19.994012323233772"><ele>836.0</ele><time>2026-04-27T12:46:22.999Z</time></trkpt><trkpt lat="40.463968740740086" lon="19.994142408612316"><ele>836.0</ele><time>2026-04-27T12:46:23.999Z</time></trkpt><trkpt lat="40.46381384636973" lon="19.99429376009777"><ele>836.0</ele><time>2026-04-27T12:46:24.999Z</time></trkpt><trkpt lat="40.46369131450714" lon="19.9944352806716"><ele>835.6666666666667</ele><time>2026-04-27T12:46:25.999Z</time></trkpt><trkpt lat="40.4635794714981" lon="19.994566033077543"><ele>835.3333333333333</ele><time>2026-04-27T12:46:26.999Z</time></trkpt><trkpt lat="40.46353712799225" lon="19.99477308292724"><ele>835.0</ele><time>2026-04-27T12:46:27.999Z</time></trkpt><trkpt lat="40.46349886481821" lon="19.994967814022335"><ele>835.6666666666666</ele><time>2026-04-27T12:46:28.999Z</time></trkpt><trkpt lat="40.46349628956995" lon="19.995165089209213"><ele>836.3333333333333</ele><time>2026-04-27T12:46:29.999Z</time></trkpt><trkpt lat="40.46351167916726" lon="19.99536578440988"><ele>837.0</ele><time>2026-04-27T12:46:30.999Z</time></trkpt><trkpt lat="40.463496733995726" lon="19.99556582227681"><ele>837.0</ele><time>2026-04-27T12:46:31.999Z</time></trkpt><trkpt lat="40.46344624403691" lon="19.99571915852545"><ele>837.0</ele><time>2026-04-27T12:46:32.999Z</time></trkpt><trkpt lat="40.46335780963684" lon="19.995825588756627"><ele>837.0</ele><time>2026-04-27T12:46:33.999Z</time></trkpt><trkpt lat="40.46327941526356" lon="19.99592609551586"><ele>837.0</ele><time>2026-04-27T12:46:34.999Z</time></trkpt><trkpt lat="40.46321281450352" lon="19.99604120008732"><ele>836.75</ele><time>2026-04-27T12:46:35.999Z</time></trkpt><trkpt lat="40.46312528507919" lon="19.996142177746158"><ele>836.5</ele><time>2026-04-27T12:46:36.999Z</time></trkpt><trkpt lat="40.46303592056262" lon="19.9962587384177"><ele>836.25</ele><time>2026-04-27T12:46:37.999Z</time></trkpt><trkpt lat="40.46294692119514" lon="19.99637892303777"><ele>836.0</ele><time>2026-04-27T12:46:38.999Z</time></trkpt><trkpt lat="40.4628454589173" lon="19.996510937353946"><ele>836.0</ele><time>2026-04-27T12:46:39.999Z</time></trkpt><trkpt lat="40.46274274737909" lon="19.996648644667292"><ele>836.0</ele><time>2026-04-27T12:46:40.999Z</time></trkpt><trkpt lat="40.46263416951749" lon="19.996793632347654"><ele>836.0</ele><time>2026-04-27T12:46:41.999Z</time></trkpt><trkpt lat="40.46254358329519" lon="19.996942231585116"><ele>836.0</ele><time>2026-04-27T12:46:42.999Z</time></trkpt><trkpt lat="40.46246099810853" lon="19.997083526824955"><ele>835.0</ele><time>2026-04-27T12:46:43.999Z</time></trkpt><trkpt lat="40.46237093286182" lon="19.997220945512105"><ele>834.0</ele><time>2026-04-27T12:46:44.999Z</time></trkpt><trkpt lat="40.46225814570903" lon="19.99735016830617"><ele>833.0</ele><time>2026-04-27T12:46:45.999Z</time></trkpt><trkpt lat="40.46212390925209" lon="19.997439373113437"><ele>832.0</ele><time>2026-04-27T12:46:46.999Z</time></trkpt><trkpt lat="40.46198437361375" lon="19.997544645019623"><ele>832.0</ele><time>2026-04-27T12:46:47.999Z</time></trkpt><trkpt lat="40.4618358236182" lon="19.997614283982376"><ele>832.0</ele><time>2026-04-27T12:46:48.999Z</time></trkpt><trkpt lat="40.46169231125403" lon="19.99765941293873"><ele>832.0</ele><time>2026-04-27T12:46:49.999Z</time></trkpt><trkpt lat="40.461558600193094" lon="19.997658611778355"><ele>832.0</ele><time>2026-04-27T12:46:50.999Z</time></trkpt><trkpt lat="40.4614123292166" lon="19.997670124545387"><ele>829.3333333333333</ele><time>2026-04-27T12:46:51.999Z</time></trkpt><trkpt lat="40.461262010216885" lon="19.997701290768568"><ele>826.6666666666667</ele><time>2026-04-27T12:46:52.999Z</time></trkpt><trkpt lat="40.46110977377743" lon="19.99773897931885"><ele>824.0</ele><time>2026-04-27T12:46:53.999Z</time></trkpt><trkpt lat="40.460948419854766" lon="19.99778435513864"><ele>824.0</ele><time>2026-04-27T12:46:54.999Z</time></trkpt><trkpt lat="40.460783873765905" lon="19.99783333945561"><ele>824.0</ele><time>2026-04-27T12:46:55.999Z</time></trkpt><trkpt lat="40.460617444861775" lon="19.997899863328872"><ele>824.0</ele><time>2026-04-27T12:46:56.999Z</time></trkpt><trkpt lat="40.460459322214646" lon="19.997977432431234"><ele>824.0</ele><time>2026-04-27T12:46:57.999Z</time></trkpt><trkpt lat="40.46030693576385" lon="19.998008762676022"><ele>824.0</ele><time>2026-04-27T12:46:58.999Z</time></trkpt><trkpt lat="40.460175525350216" lon="19.998049765915578"><ele>824.0</ele><time>2026-04-27T12:46:59.999Z</time></trkpt><trkpt lat="40.46006319284474" lon="19.998084685912065"><ele>824.0</ele><time>2026-04-27T12:47:00.999Z</time></trkpt><trkpt lat="40.45997304006498" lon="19.99811713527559"><ele>824.0000000000001</ele><time>2026-04-27T12:47:01.999Z</time></trkpt><trkpt lat="40.459881385776455" lon="19.998123357570282"><ele>824.0</ele><time>2026-04-27T12:47:02.999Z</time></trkpt><trkpt lat="40.45980169041396" lon="19.9981468622814"><ele>824.0</ele><time>2026-04-27T12:47:04Z</time></trkpt><trkpt lat="40.45973900294572" lon="19.998168250474883"><ele>824.0</ele><time>2026-04-27T12:47:05Z</time></trkpt><trkpt lat="40.45966526545332" lon="19.998193410002077"><ele>824.0000000000001</ele><time>2026-04-27T12:47:07Z</time></trkpt><trkpt lat="40.459633250963996" lon="19.998332497674294"><ele>824.0</ele><time>2026-04-27T12:47:10Z</time></trkpt><trkpt lat="40.45959757772173" lon="19.998408837640888"><ele>826.2</ele><time>2026-04-27T12:47:13Z</time></trkpt><trkpt lat="40.45955751740722" lon="19.998483323972106"><ele>828.4000000000001</ele><time>2026-04-27T12:48:02Z</time></trkpt><trkpt lat="40.459493310714926" lon="19.998515842077605"><ele>830.6</ele><time>2026-04-27T12:49:04Z</time></trkpt><trkpt lat="40.45953429464904" lon="19.998413948952237"><ele>832.8</ele><time>2026-04-27T12:49:09Z</time></trkpt><trkpt lat="40.459558372385025" lon="19.998334073690177"><ele>835.0</ele><time>2026-04-27T12:49:12Z</time></trkpt><trkpt lat="40.45930304166408" lon="19.998168011604122"><ele>834.9999999999999</ele><time>2026-04-27T12:49:38Z</time></trkpt><trkpt lat="40.45917157265615" lon="19.998163536899494"><ele>835.0</ele><time>2026-04-27T12:49:40Z</time></trkpt><trkpt lat="40.45910623290889" lon="19.99816889535976"><ele>835.0</ele><time>2026-04-27T12:49:41Z</time></trkpt><trkpt lat="40.45903904156205" lon="19.99818169411933"><ele>835.0</ele><time>2026-04-27T12:49:42Z</time></trkpt><trkpt lat="40.45897285161221" lon="19.998187115135885"><ele>834.9999999999999</ele><time>2026-04-27T12:49:43Z</time></trkpt><trkpt lat="40.45890349599157" lon="19.998188390508037"><ele>835.0</ele><time>2026-04-27T12:49:44Z</time></trkpt><trkpt lat="40.45882031558516" lon="19.998209389984016"><ele>835.3333333333333</ele><time>2026-04-27T12:49:45Z</time></trkpt><trkpt lat="40.45873620554794" lon="19.998237473643215"><ele>835.6666666666666</ele><time>2026-04-27T12:49:46Z</time></trkpt><trkpt lat="40.45866934691159" lon="19.99822595309997"><ele>836.0</ele><time>2026-04-27T12:49:47Z</time></trkpt><trkpt lat="40.45857677866671" lon="19.998223402609952"><ele>836.3333333333333</ele><time>2026-04-27T12:49:48Z</time></trkpt><trkpt lat="40.4585074534007" lon="19.998189844984637"><ele>836.6666666666666</ele><time>2026-04-27T12:49:49Z</time></trkpt><trkpt lat="40.4584020942546" lon="19.998166710706784"><ele>837.0</ele><time>2026-04-27T12:49:50Z</time></trkpt><trkpt lat="40.45831243121479" lon="19.998147683095844"><ele>837.0</ele><time>2026-04-27T12:49:51Z</time></trkpt><trkpt lat="40.45823972551592" lon="19.99811363476164"><ele>837.0</ele><time>2026-04-27T12:49:52Z</time></trkpt><trkpt lat="40.45815428679683" lon="19.99808587385458"><ele>837.0</ele><time>2026-04-27T12:49:53Z</time></trkpt><trkpt lat="40.45808754442602" lon="19.998060050056914"><ele>837.0</ele><time>2026-04-27T12:49:54Z</time></trkpt><trkpt lat="40.45802565291082" lon="19.99803795116489"><ele>837.0</ele><time>2026-04-27T12:49:55Z</time></trkpt><trkpt lat="40.45818364190232" lon="19.9980624701068"><ele>846.5</ele><time>2026-04-27T12:49:57Z</time></trkpt><trkpt lat="40.45813368137585" lon="19.998487070805332"><ele>856.0</ele><time>2026-04-27T12:52:40Z</time></trkpt><trkpt lat="40.4582595762935" lon="19.998473402698313"><ele>855.9999999999999</ele><time>2026-04-27T12:52:43Z</time></trkpt><trkpt lat="40.458321291522466" lon="19.99844720394353"><ele>856.0</ele><time>2026-04-27T12:52:45Z</time></trkpt><trkpt lat="40.45840122376379" lon="19.998411503796948"><ele>856.0</ele><time>2026-04-27T12:52:47Z</time></trkpt><trkpt lat="40.4584731409754" lon="19.99838789510459"><ele>856.0</ele><time>2026-04-27T12:52:48Z</time></trkpt><trkpt lat="40.458536476101216" lon="19.998373494812355"><ele>855.9999999999999</ele><time>2026-04-27T12:52:49Z</time></trkpt><trkpt lat="40.45865529808228" lon="19.99836053620829"><ele>856.0</ele><time>2026-04-27T12:52:51Z</time></trkpt><trkpt lat="40.45876431598138" lon="19.998332057291137"><ele>852.4999999999999</ele><time>2026-04-27T12:52:53Z</time></trkpt><trkpt lat="40.45883878136056" lon="19.998290470852815"><ele>849.0</ele><time>2026-04-27T12:52:55Z</time></trkpt><trkpt lat="40.45889761864224" lon="19.998255372559857"><ele>845.5</ele><time>2026-04-27T12:52:57Z</time></trkpt><trkpt lat="40.458987550964395" lon="19.99824956063009"><ele>842.0</ele><time>2026-04-27T12:53:16Z</time></trkpt><trkpt lat="40.45907688865858" lon="19.99824211167469"><ele>838.4999999999999</ele><time>2026-04-27T12:53:19Z</time></trkpt><trkpt lat="40.459152096871094" lon="19.99821948271136"><ele>835.0</ele><time>2026-04-27T12:53:21Z</time></trkpt><trkpt lat="40.4592387613653" lon="19.99820590738194"><ele>835.0</ele><time>2026-04-27T12:53:23Z</time></trkpt><trkpt lat="40.45936010449378" lon="19.99822710293313"><ele>835.0</ele><time>2026-04-27T12:53:26Z</time></trkpt><trkpt lat="40.45944416857948" lon="19.998240564713107"><ele>835.0</ele><time>2026-04-27T12:53:29Z</time></trkpt><trkpt lat="40.45953437269657" lon="19.998239015755583"><ele>835.0</ele><time>2026-04-27T12:53:43Z</time></trkpt><trkpt lat="40.45962477376406" lon="19.99823812635383"><ele>835.0</ele><time>2026-04-27T12:53:45Z</time></trkpt><trkpt lat="40.45955799022365" lon="19.998563773670618"><ele>833.1666666666666</ele><time>2026-04-27T12:54:04Z</time></trkpt><trkpt lat="40.45956307742516" lon="19.998664787236745"><ele>831.3333333333333</ele><time>2026-04-27T12:54:05Z</time></trkpt><trkpt lat="40.45957427311342" lon="19.99875717296979"><ele>829.5</ele><time>2026-04-27T12:54:06Z</time></trkpt><trkpt lat="40.45958654342051" lon="19.99885934436065"><ele>827.6666666666667</ele><time>2026-04-27T12:54:07Z</time></trkpt><trkpt lat="40.45961886050154" lon="19.998931250985006"><ele>825.8333333333334</ele><time>2026-04-27T12:54:08Z</time></trkpt><trkpt lat="40.459660916514125" lon="19.999034148974346"><ele>824.0</ele><time>2026-04-27T12:54:10Z</time></trkpt><trkpt lat="40.459670914709925" lon="19.99914358360985"><ele>823.0</ele><time>2026-04-27T12:54:11Z</time></trkpt><trkpt lat="40.459662607347084" lon="19.999252824369258"><ele>822.0</ele><time>2026-04-27T12:54:12Z</time></trkpt><trkpt lat="40.45962618653215" lon="19.999378915585066"><ele>821.0</ele><time>2026-04-27T12:54:13Z</time></trkpt><trkpt lat="40.45955977481419" lon="19.999505202507976"><ele>820.0</ele><time>2026-04-27T12:54:14Z</time></trkpt><trkpt lat="40.45948070406415" lon="19.99956364544494"><ele>819.0</ele><time>2026-04-27T12:54:15Z</time></trkpt><trkpt lat="40.45941364350865" lon="19.9996158551112"><ele>824.5</ele><time>2026-04-27T12:54:16Z</time></trkpt><trkpt lat="40.459317588169064" lon="19.99969196398678"><ele>830.0</ele><time>2026-04-27T12:54:17Z</time></trkpt><trkpt lat="40.4592017932739" lon="19.99980105538625"><ele>835.5</ele><time>2026-04-27T12:54:18Z</time></trkpt><trkpt lat="40.4591162168159" lon="19.999906976009527"><ele>841.0</ele><time>2026-04-27T12:54:19Z</time></trkpt><trkpt lat="40.45903214780596" lon="19.99995951629748"><ele>841.0</ele><time>2026-04-27T12:54:20Z</time></trkpt><trkpt lat="40.458930836710664" lon="20.000000245427703"><ele>841.0</ele><time>2026-04-27T12:54:21Z</time></trkpt><trkpt lat="40.458817980419255" lon="19.999968066742678"><ele>841.0</ele><time>2026-04-27T12:54:22Z</time></trkpt><trkpt lat="40.45872422865542" lon="19.999961128153828"><ele>841.0</ele><time>2026-04-27T12:54:23Z</time></trkpt><trkpt lat="40.45861948840977" lon="19.99996699151607"><ele>841.0</ele><time>2026-04-27T12:54:24Z</time></trkpt><trkpt lat="40.458508663735124" lon="19.99999675821312"><ele>846.3333333333333</ele><time>2026-04-27T12:54:25Z</time></trkpt><trkpt lat="40.458391959125926" lon="20.000083602086207"><ele>851.6666666666667</ele><time>2026-04-27T12:54:26Z</time></trkpt><trkpt lat="40.458296655779684" lon="20.00026105169572"><ele>857.0</ele><time>2026-04-27T12:54:27Z</time></trkpt><trkpt lat="40.45815275243895" lon="20.000421233128627"><ele>857.0</ele><time>2026-04-27T12:54:28Z</time></trkpt><trkpt lat="40.45802687236617" lon="20.000510744377276"><ele>857.0</ele><time>2026-04-27T12:54:29Z</time></trkpt><trkpt lat="40.45790355166266" lon="20.00054891089789"><ele>857.0</ele><time>2026-04-27T12:54:30Z</time></trkpt><trkpt lat="40.45776827437564" lon="20.000569544731004"><ele>857.0</ele><time>2026-04-27T12:54:31Z</time></trkpt><trkpt lat="40.45762054210494" lon="20.0005498564159"><ele>855.6666666666667</ele><time>2026-04-27T12:54:32Z</time></trkpt><trkpt lat="40.457466964049274" lon="20.00050251403335"><ele>854.3333333333333</ele><time>2026-04-27T12:54:33Z</time></trkpt><trkpt lat="40.45729262088233" lon="20.00045164809359"><ele>853.0</ele><time>2026-04-27T12:54:34Z</time></trkpt><trkpt lat="40.457104244108166" lon="20.000400667526566"><ele>853.0</ele><time>2026-04-27T12:54:35Z</time></trkpt><trkpt lat="40.4569302835627" lon="20.00039902638821"><ele>853.0</ele><time>2026-04-27T12:54:36Z</time></trkpt><trkpt lat="40.45677581417656" lon="20.000398063404866"><ele>853.0</ele><time>2026-04-27T12:54:37Z</time></trkpt><trkpt lat="40.45662616613604" lon="20.000402935107783"><ele>853.0</ele><time>2026-04-27T12:54:38Z</time></trkpt><trkpt lat="40.45648133159264" lon="20.00042948982929"><ele>853.0</ele><time>2026-04-27T12:54:39Z</time></trkpt><trkpt lat="40.45631941900543" lon="20.000464652132546"><ele>853.0</ele><time>2026-04-27T12:54:40Z</time></trkpt><trkpt lat="40.45614835316981" lon="20.000512096689704"><ele>851.3333333333333</ele><time>2026-04-27T12:54:41Z</time></trkpt><trkpt lat="40.45598745880486" lon="20.00060057076899"><ele>849.6666666666667</ele><time>2026-04-27T12:54:42Z</time></trkpt><trkpt lat="40.455856168797375" lon="20.000702887890473"><ele>848.0</ele><time>2026-04-27T12:54:43Z</time></trkpt><trkpt lat="40.45573475846067" lon="20.000781388449372"><ele>848.0</ele><time>2026-04-27T12:54:44Z</time></trkpt><trkpt lat="40.45562767743999" lon="20.000788037468826"><ele>848.0</ele><time>2026-04-27T12:54:45Z</time></trkpt><trkpt lat="40.45553916508667" lon="20.000748850042378"><ele>848.0</ele><time>2026-04-27T12:54:46Z</time></trkpt><trkpt lat="40.45543773783259" lon="20.00067595526864"><ele>848.0</ele><time>2026-04-27T12:54:47Z</time></trkpt><trkpt lat="40.455342837909726" lon="20.000561931374605"><ele>848.0</ele><time>2026-04-27T12:54:48Z</time></trkpt><trkpt lat="40.455233368671955" lon="20.000446888371048"><ele>845.75</ele><time>2026-04-27T12:54:49Z</time></trkpt><trkpt lat="40.45511872718353" lon="20.000369470578022"><ele>843.5</ele><time>2026-04-27T12:54:50Z</time></trkpt><trkpt lat="40.45501750623748" lon="20.000303649728714"><ele>841.25</ele><time>2026-04-27T12:54:51Z</time></trkpt><trkpt lat="40.45489999966592" lon="20.000273391764825"><ele>839.0</ele><time>2026-04-27T12:54:52Z</time></trkpt><trkpt lat="40.45478408175252" lon="20.000276177455518"><ele>839.0</ele><time>2026-04-27T12:54:53Z</time></trkpt><trkpt lat="40.454672970431666" lon="20.00036090639508"><ele>839.0</ele><time>2026-04-27T12:54:54Z</time></trkpt><trkpt lat="40.454562025942565" lon="20.000448695432006"><ele>839.0</ele><time>2026-04-27T12:54:55Z</time></trkpt><trkpt lat="40.45444968197512" lon="20.00054008529418"><ele>839.0</ele><time>2026-04-27T12:54:56Z</time></trkpt><trkpt lat="40.45433816773564" lon="20.000608237189148"><ele>833.25</ele><time>2026-04-27T12:54:57Z</time></trkpt><trkpt lat="40.45422368749498" lon="20.000650848096836"><ele>827.5</ele><time>2026-04-27T12:54:58Z</time></trkpt><trkpt lat="40.45409824294416" lon="20.000680999854865"><ele>821.75</ele><time>2026-04-27T12:54:59Z</time></trkpt><trkpt lat="40.453964700957066" lon="20.000715057695572"><ele>816.0</ele><time>2026-04-27T12:54:59.999Z</time></trkpt><trkpt lat="40.453834013728624" lon="20.000753422692952"><ele>818.25</ele><time>2026-04-27T12:55:00.999Z</time></trkpt><trkpt lat="40.453712504838855" lon="20.000791011664354"><ele>820.5</ele><time>2026-04-27T12:55:01.999Z</time></trkpt><trkpt lat="40.453598241328784" lon="20.00082598460642"><ele>822.75</ele><time>2026-04-27T12:55:02.999Z</time></trkpt><trkpt lat="40.45348618823647" lon="20.00084603668125"><ele>825.0</ele><time>2026-04-27T12:55:03.999Z</time></trkpt><trkpt lat="40.453376465543386" lon="20.0008554348399"><ele>825.0</ele><time>2026-04-27T12:55:04.999Z</time></trkpt><trkpt lat="40.45327114498669" lon="20.000845605321434"><ele>825.0</ele><time>2026-04-27T12:55:05.999Z</time></trkpt><trkpt lat="40.45317371523485" lon="20.00077588908278"><ele>825.0</ele><time>2026-04-27T12:55:06.999Z</time></trkpt><trkpt lat="40.45307893571523" lon="20.000784200579705"><ele>825.0</ele><time>2026-04-27T12:55:07.999Z</time></trkpt><trkpt lat="40.45298874935855" lon="20.00075654403371"><ele>825.0</ele><time>2026-04-27T12:55:08.999Z</time></trkpt><trkpt lat="40.45289571260808" lon="20.00076289465772"><ele>821.5</ele><time>2026-04-27T12:55:09.999Z</time></trkpt><trkpt lat="40.45279913355666" lon="20.00080353481154"><ele>818.0</ele><time>2026-04-27T12:55:10.999Z</time></trkpt><trkpt lat="40.45270154212885" lon="20.00085366392292"><ele>814.5</ele><time>2026-04-27T12:55:11.999Z</time></trkpt><trkpt lat="40.45263560838003" lon="20.000991057254048"><ele>811.0</ele><time>2026-04-27T12:55:12.999Z</time></trkpt><trkpt lat="40.452579957445856" lon="20.00113335178279"><ele>811.0</ele><time>2026-04-27T12:55:13.999Z</time></trkpt><trkpt lat="40.45253708541924" lon="20.00131162447591"><ele>811.0</ele><time>2026-04-27T12:55:14.999Z</time></trkpt><trkpt lat="40.4525044338894" lon="20.00150694772912"><ele>811.0</ele><time>2026-04-27T12:55:15.999Z</time></trkpt><trkpt lat="40.45246230429818" lon="20.00166817816297"><ele>811.0</ele><time>2026-04-27T12:55:16.999Z</time></trkpt><trkpt lat="40.452388464592815" lon="20.001812349941684"><ele>811.3333333333333</ele><time>2026-04-27T12:55:17.999Z</time></trkpt><trkpt lat="40.45227693979158" lon="20.001937557716207"><ele>811.6666666666667</ele><time>2026-04-27T12:55:18.999Z</time></trkpt><trkpt lat="40.45213725595877" lon="20.002047821258426"><ele>812.0</ele><time>2026-04-27T12:55:19.999Z</time></trkpt><trkpt lat="40.45198618542134" lon="20.002152015054275"><ele>804.0</ele><time>2026-04-27T12:55:20.999Z</time></trkpt><trkpt lat="40.451827731813154" lon="20.002244800866027"><ele>796.0</ele><time>2026-04-27T12:55:21.999Z</time></trkpt><trkpt lat="40.4516844001319" lon="20.002340077858822"><ele>788.0</ele><time>2026-04-27T12:55:22.999Z</time></trkpt><trkpt lat="40.45154014566367" lon="20.00243486180756"><ele>786.3333333333334</ele><time>2026-04-27T12:55:23.999Z</time></trkpt><trkpt lat="40.45138740061358" lon="20.002536436326555"><ele>784.6666666666667</ele><time>2026-04-27T12:55:24.999Z</time></trkpt><trkpt lat="40.4512229080318" lon="20.002632633424113"><ele>783.0</ele><time>2026-04-27T12:55:25.999Z</time></trkpt><trkpt lat="40.45102622197212" lon="20.002651550863472"><ele>783.0</ele><time>2026-04-27T12:55:26.999Z</time></trkpt><trkpt lat="40.45082356588597" lon="20.002708815572472"><ele>783.0</ele><time>2026-04-27T12:55:27.999Z</time></trkpt><trkpt lat="40.450624480744935" lon="20.0027891489702"><ele>783.0</ele><time>2026-04-27T12:55:28.999Z</time></trkpt><trkpt lat="40.45043464779761" lon="20.00279181727265"><ele>781.0</ele><time>2026-04-27T12:55:29.999Z</time></trkpt><trkpt lat="40.45026556882011" lon="20.002790194487122"><ele>779.0</ele><time>2026-04-27T12:55:30.999Z</time></trkpt><trkpt lat="40.450116689678545" lon="20.00279385835576"><ele>777.0</ele><time>2026-04-27T12:55:31.999Z</time></trkpt><trkpt lat="40.44997030172812" lon="20.002818293890655"><ele>777.0</ele><time>2026-04-27T12:55:32.999Z</time></trkpt><trkpt lat="40.44982732446646" lon="20.00282705781224"><ele>777.0</ele><time>2026-04-27T12:55:33.999Z</time></trkpt><trkpt lat="40.449714870647696" lon="20.002917578346004"><ele>777.0</ele><time>2026-04-27T12:55:34.999Z</time></trkpt><trkpt lat="40.44962722015449" lon="20.00302573125193"><ele>777.0</ele><time>2026-04-27T12:55:35.999Z</time></trkpt><trkpt lat="40.44953493602118" lon="20.003143638324644"><ele>777.0</ele><time>2026-04-27T12:55:36.999Z</time></trkpt><trkpt lat="40.44944902763943" lon="20.00333729888229"><ele>777.0</ele><time>2026-04-27T12:55:37.999Z</time></trkpt><trkpt lat="40.44933636975042" lon="20.003571035477144"><ele>777.0</ele><time>2026-04-27T12:55:38.999Z</time></trkpt><trkpt lat="40.44923519710922" lon="20.003833893600568"><ele>777.0</ele><time>2026-04-27T12:55:39.999Z</time></trkpt><trkpt lat="40.449151016941165" lon="20.004047368840776"><ele>777.0</ele><time>2026-04-27T12:55:40.999Z</time></trkpt><trkpt lat="40.44904157761097" lon="20.004208951302207"><ele>777.0</ele><time>2026-04-27T12:55:41.999Z</time></trkpt><trkpt lat="40.44888729440558" lon="20.004322053163826"><ele>775.3333333333333</ele><time>2026-04-27T12:55:42.999Z</time></trkpt><trkpt lat="40.448727201696286" lon="20.00448763758692"><ele>773.6666666666666</ele><time>2026-04-27T12:55:43.999Z</time></trkpt><trkpt lat="40.44857109323454" lon="20.00466113651179"><ele>772.0</ele><time>2026-04-27T12:55:44.999Z</time></trkpt><trkpt lat="40.44842708655633" lon="20.004819812144806"><ele>772.0</ele><time>2026-04-27T12:55:45.999Z</time></trkpt><trkpt lat="40.44830739020086" lon="20.00495116144876"><ele>772.0</ele><time>2026-04-27T12:55:46.999Z</time></trkpt><trkpt lat="40.44820556868178" lon="20.00506214125794"><ele>772.0</ele><time>2026-04-27T12:55:47.999Z</time></trkpt><trkpt lat="40.448107807657074" lon="20.005168844146162"><ele>772.0</ele><time>2026-04-27T12:55:48.999Z</time></trkpt><trkpt lat="40.44801054406099" lon="20.005275004004048"><ele>771.0</ele><time>2026-04-27T12:55:49.999Z</time></trkpt><trkpt lat="40.447901574286476" lon="20.005393101628666"><ele>770.0</ele><time>2026-04-27T12:55:50.999Z</time></trkpt><trkpt lat="40.44780752442128" lon="20.005556957161225"><ele>769.0</ele><time>2026-04-27T12:55:51.999Z</time></trkpt><trkpt lat="40.44767612340228" lon="20.005682071662168"><ele>769.0</ele><time>2026-04-27T12:55:52.999Z</time></trkpt><trkpt lat="40.44751718549368" lon="20.00574001204279"><ele>769.0</ele><time>2026-04-27T12:55:53.999Z</time></trkpt><trkpt lat="40.44733780871279" lon="20.00583500248732"><ele>769.0</ele><time>2026-04-27T12:55:54.999Z</time></trkpt><trkpt lat="40.447168135031276" lon="20.00599892830086"><ele>767.3333333333333</ele><time>2026-04-27T12:55:55.999Z</time></trkpt><trkpt lat="40.44703456940929" lon="20.00614639674901"><ele>765.6666666666666</ele><time>2026-04-27T12:55:56.999Z</time></trkpt><trkpt lat="40.446900154657385" lon="20.00625206189785"><ele>764.0</ele><time>2026-04-27T12:55:57.999Z</time></trkpt><trkpt lat="40.44676808705507" lon="20.00635236264953"><ele>764.0</ele><time>2026-04-27T12:55:58.999Z</time></trkpt><trkpt lat="40.446600618418366" lon="20.00632480883481"><ele>764.0</ele><time>2026-04-27T12:55:59.999Z</time></trkpt><trkpt lat="40.446435167577455" lon="20.00637418286126"><ele>764.0</ele><time>2026-04-27T12:56:00.999Z</time></trkpt><trkpt lat="40.44626417594282" lon="20.006326966125833"><ele>764.0</ele><time>2026-04-27T12:56:01.999Z</time></trkpt><trkpt lat="40.44611724338845" lon="20.006344872654903"><ele>764.0</ele><time>2026-04-27T12:56:02.999Z</time></trkpt><trkpt lat="40.44598112926967" lon="20.006407870103626"><ele>764.0</ele><time>2026-04-27T12:56:03.999Z</time></trkpt><trkpt lat="40.445869394551465" lon="20.00642764233951"><ele>764.0</ele><time>2026-04-27T12:56:04.999Z</time></trkpt><trkpt lat="40.44576274231388" lon="20.006386232546017"><ele>764.0</ele><time>2026-04-27T12:56:05.999Z</time></trkpt><trkpt lat="40.445721072614816" lon="20.006233758452836"><ele>764.0</ele><time>2026-04-27T12:56:06.999Z</time></trkpt><trkpt lat="40.44564563346421" lon="20.00615155954709"><ele>764.0</ele><time>2026-04-27T12:56:07.999Z</time></trkpt><trkpt lat="40.44555030765387" lon="20.006073972217653"><ele>764.0</ele><time>2026-04-27T12:56:08.999Z</time></trkpt><trkpt lat="40.44542915929823" lon="20.006031038246462"><ele>764.6</ele><time>2026-04-27T12:56:09.999Z</time></trkpt><trkpt lat="40.445305512258344" lon="20.00604931291882"><ele>765.2</ele><time>2026-04-27T12:56:10.999Z</time></trkpt><trkpt lat="40.445203966499534" lon="20.00610106079011"><ele>765.8000000000001</ele><time>2026-04-27T12:56:11.999Z</time></trkpt><trkpt lat="40.44511880184371" lon="20.006184081434355"><ele>766.4000000000001</ele><time>2026-04-27T12:56:12.999Z</time></trkpt><trkpt lat="40.44504515287613" lon="20.006268061734293"><ele>767.0</ele><time>2026-04-27T12:56:13.999Z</time></trkpt><trkpt lat="40.444961735617106" lon="20.006341072371757"><ele>767.0</ele><time>2026-04-27T12:56:14.999Z</time></trkpt><trkpt lat="40.44488075543561" lon="20.006347560321064"><ele>767.0</ele><time>2026-04-27T12:56:15.999Z</time></trkpt><trkpt lat="40.44480074192224" lon="20.006353970579077"><ele>767.0</ele><time>2026-04-27T12:56:16.999Z</time></trkpt><trkpt lat="40.44476911022372" lon="20.006111511407884"><ele>767.0</ele><time>2026-04-27T12:56:17.999Z</time></trkpt><trkpt lat="40.44470546989805" lon="20.006005595806645"><ele>767.0</ele><time>2026-04-27T12:56:18.999Z</time></trkpt><trkpt lat="40.444640553888924" lon="20.005897556879773"><ele>767.0</ele><time>2026-04-27T12:56:19.999Z</time></trkpt><trkpt lat="40.444496059246234" lon="20.0058675025114"><ele>767.0</ele><time>2026-04-27T12:56:20.999Z</time></trkpt><trkpt lat="40.44437115763044" lon="20.005835052036893"><ele>767.0</ele><time>2026-04-27T12:56:21.999Z</time></trkpt><trkpt lat="40.44423344301746" lon="20.005849802581448"><ele>767.6666666666666</ele><time>2026-04-27T12:56:22.999Z</time></trkpt><trkpt lat="40.44407470084955" lon="20.005894720131607"><ele>768.3333333333333</ele><time>2026-04-27T12:56:23.999Z</time></trkpt><trkpt lat="40.443909601486155" lon="20.00589197547066"><ele>769.0</ele><time>2026-04-27T12:56:24.999Z</time></trkpt><trkpt lat="40.44378035742862" lon="20.0058933461779"><ele>769.25</ele><time>2026-04-27T12:56:25.999Z</time></trkpt><trkpt lat="40.44364444184563" lon="20.0058815367055"><ele>769.5</ele><time>2026-04-27T12:56:26.999Z</time></trkpt><trkpt lat="40.44352015788426" lon="20.00587088853093"><ele>769.75</ele><time>2026-04-27T12:56:27.999Z</time></trkpt><trkpt lat="40.44340513148076" lon="20.005862037394238"><ele>770.0</ele><time>2026-04-27T12:56:28.999Z</time></trkpt><trkpt lat="40.443288765933566" lon="20.005854156667446"><ele>764.0</ele><time>2026-04-27T12:56:29.999Z</time></trkpt><trkpt lat="40.44317118311483" lon="20.00581353206816"><ele>758.0</ele><time>2026-04-27T12:56:30.999Z</time></trkpt><trkpt lat="40.443022070116164" lon="20.005765591294114"><ele>752.0</ele><time>2026-04-27T12:56:31.999Z</time></trkpt><trkpt lat="40.442823477805504" lon="20.00577485791791"><ele>752.0</ele><time>2026-04-27T12:56:32.999Z</time></trkpt><trkpt lat="40.44261657788507" lon="20.005858251602522"><ele>752.0</ele><time>2026-04-27T12:56:33.999Z</time></trkpt><trkpt lat="40.44240697504259" lon="20.00581150198827"><ele>752.0</ele><time>2026-04-27T12:56:34.999Z</time></trkpt><trkpt lat="40.44218590512585" lon="20.00583902127996"><ele>750.3333333333333</ele><time>2026-04-27T12:56:35.999Z</time></trkpt><trkpt lat="40.442017837203345" lon="20.005900914190768"><ele>748.6666666666666</ele><time>2026-04-27T12:56:36.999Z</time></trkpt><trkpt lat="40.441857638608035" lon="20.005849514091988"><ele>747.0</ele><time>2026-04-27T12:56:37.999Z</time></trkpt><trkpt lat="40.44171699497943" lon="20.005727772160448"><ele>747.0</ele><time>2026-04-27T12:56:38.999Z</time></trkpt><trkpt lat="40.441586760701014" lon="20.005712787823843"><ele>747.0</ele><time>2026-04-27T12:56:39.999Z</time></trkpt><trkpt lat="40.44144146522316" lon="20.00570254545477"><ele>747.0</ele><time>2026-04-27T12:56:40.999Z</time></trkpt><trkpt lat="40.44129257436545" lon="20.0058942074698"><ele>752.0</ele><time>2026-04-27T12:56:41.999Z</time></trkpt><trkpt lat="40.441162776618086" lon="20.005976690532584"><ele>757.0</ele><time>2026-04-27T12:56:42.999Z</time></trkpt><trkpt lat="40.44106037448506" lon="20.00607013376949"><ele>762.0</ele><time>2026-04-27T12:56:43.999Z</time></trkpt><trkpt lat="40.44097417421075" lon="20.006194853792618"><ele>767.0</ele><time>2026-04-27T12:56:44.999Z</time></trkpt><trkpt lat="40.440905407601" lon="20.006362752227325"><ele>767.0</ele><time>2026-04-27T12:56:45.999Z</time></trkpt><trkpt lat="40.44087097535182" lon="20.00652368033075"><ele>767.0</ele><time>2026-04-27T12:56:46.999Z</time></trkpt><trkpt lat="40.44085045337344" lon="20.006662928970755"><ele>767.0</ele><time>2026-04-27T12:56:47.999Z</time></trkpt><trkpt lat="40.44084681199562" lon="20.00677863179565"><ele>767.0</ele><time>2026-04-27T12:56:48.999Z</time></trkpt><trkpt lat="40.44084349820814" lon="20.006874321022522"><ele>767.0</ele><time>2026-04-27T12:56:49.999Z</time></trkpt><trkpt lat="40.44085017993825" lon="20.00700933801669"><ele>767.0</ele><time>2026-04-27T12:56:51.999Z</time></trkpt><trkpt lat="40.44089134300306" lon="20.00708602818612"><ele>767.0</ele><time>2026-04-27T12:56:56.999Z</time></trkpt><trkpt lat="40.44087143132794" lon="20.00698662203402"><ele>767.0</ele><time>2026-04-27T12:57:01.999Z</time></trkpt><trkpt lat="40.44087621259807" lon="20.006824907484944"><ele>767.0</ele><time>2026-04-27T12:57:03.999Z</time></trkpt><trkpt lat="40.44088267079138" lon="20.006734098013595"><ele>767.0</ele><time>2026-04-27T12:57:04.999Z</time></trkpt><trkpt lat="40.44089990787752" lon="20.006632101993688"><ele>767.0</ele><time>2026-04-27T12:57:05.999Z</time></trkpt><trkpt lat="40.44092478016025" lon="20.006525483608353"><ele>767.0</ele><time>2026-04-27T12:57:06.999Z</time></trkpt><trkpt lat="40.44095503994441" lon="20.006423771120854"><ele>767.0</ele><time>2026-04-27T12:57:07.999Z</time></trkpt><trkpt lat="40.440986185538456" lon="20.006323348235867"><ele>767.0</ele><time>2026-04-27T12:57:08.999Z</time></trkpt><trkpt lat="40.44102148692422" lon="20.006226687652752"><ele>767.0</ele><time>2026-04-27T12:57:09.999Z</time></trkpt><trkpt lat="40.441066243819854" lon="20.00614032319388"><ele>767.0</ele><time>2026-04-27T12:57:10.999Z</time></trkpt><trkpt lat="40.44112265792544" lon="20.00606269688923"><ele>767.0</ele><time>2026-04-27T12:57:11.999Z</time></trkpt><trkpt lat="40.44118799648258" lon="20.006002903905014"><ele>767.0</ele><time>2026-04-27T12:57:12.999Z</time></trkpt><trkpt lat="40.44126023279648" lon="20.00595702683064"><ele>767.0</ele><time>2026-04-27T12:57:13.999Z</time></trkpt><trkpt lat="40.44133307982256" lon="20.005916108187375"><ele>767.0</ele><time>2026-04-27T12:57:14.999Z</time></trkpt><trkpt lat="40.44140767327202" lon="20.00587486964764"><ele>767.0</ele><time>2026-04-27T12:57:15.999Z</time></trkpt><trkpt lat="40.44148202860406" lon="20.00584955537637"><ele>767.0</ele><time>2026-04-27T12:57:16.999Z</time></trkpt><trkpt lat="40.44158220392559" lon="20.005833125500033"><ele>767.0</ele><time>2026-04-27T12:57:18.999Z</time></trkpt><trkpt lat="40.44155379051919" lon="20.005734419194923"><ele>764.0</ele><time>2026-04-27T12:57:21.999Z</time></trkpt><trkpt lat="40.44143293992862" lon="20.005703315508917"><ele>761.0</ele><time>2026-04-27T12:57:23.999Z</time></trkpt><trkpt lat="40.44136935116034" lon="20.005757949205417"><ele>758.0</ele><time>2026-04-27T12:57:24.999Z</time></trkpt><trkpt lat="40.44124604506361" lon="20.005774273666862"><ele>755.0</ele><time>2026-04-27T12:57:26.999Z</time></trkpt><trkpt lat="40.441182533564835" lon="20.005757942963275"><ele>752.0</ele><time>2026-04-27T12:57:27.999Z</time></trkpt><trkpt lat="40.44112845070684" lon="20.005687607437704"><ele>752.0</ele><time>2026-04-27T12:57:28.999Z</time></trkpt><trkpt lat="40.44106108462565" lon="20.00559995260416"><ele>752.0</ele><time>2026-04-27T12:57:30.999Z</time></trkpt><trkpt lat="40.44109316285439" lon="20.00546653932447"><ele>752.0</ele><time>2026-04-27T12:57:31.999Z</time></trkpt><trkpt lat="40.441079104682856" lon="20.00537186012229"><ele>752.0</ele><time>2026-04-27T12:57:32.999Z</time></trkpt><trkpt lat="40.44098529112389" lon="20.00522059671015"><ele>752.0</ele><time>2026-04-27T12:57:34.999Z</time></trkpt><trkpt lat="40.440897623697225" lon="20.00519417749863"><ele>752.0</ele><time>2026-04-27T12:57:35.999Z</time></trkpt><trkpt lat="40.440813216940306" lon="20.005165547964328"><ele>752.0</ele><time>2026-04-27T12:57:36.999Z</time></trkpt><trkpt lat="40.44070924834519" lon="20.00520370294013"><ele>752.0</ele><time>2026-04-27T12:57:37.999Z</time></trkpt><trkpt lat="40.44062945926907" lon="20.005201171450356"><ele>752.0</ele><time>2026-04-27T12:57:38.999Z</time></trkpt><trkpt lat="40.44056156717732" lon="20.005194213756944"><ele>752.0</ele><time>2026-04-27T12:57:39.999Z</time></trkpt><trkpt lat="40.440497650796445" lon="20.00517419481687"><ele>752.0</ele><time>2026-04-27T12:57:40.999Z</time></trkpt><trkpt lat="40.440425115476735" lon="20.005141138316564"><ele>751.8333333333333</ele><time>2026-04-27T12:57:41.999Z</time></trkpt><trkpt lat="40.440353586252826" lon="20.005102759241105"><ele>751.6666666666666</ele><time>2026-04-27T12:57:42.999Z</time></trkpt><trkpt lat="40.44028147011306" lon="20.005064312540416"><ele>751.5</ele><time>2026-04-27T12:57:43.999Z</time></trkpt><trkpt lat="40.44020978384789" lon="20.00502632982668"><ele>751.3333333333334</ele><time>2026-04-27T12:57:44.999Z</time></trkpt><trkpt lat="40.44014464066643" lon="20.004981271463617"><ele>751.1666666666667</ele><time>2026-04-27T12:57:45.999Z</time></trkpt><trkpt lat="40.44007875884599" lon="20.00492166765104"><ele>751.0</ele><time>2026-04-27T12:57:46.999Z</time></trkpt><trkpt lat="40.44001415002249" lon="20.004870823873013"><ele>748.1666666666667</ele><time>2026-04-27T12:57:47.999Z</time></trkpt><trkpt lat="40.440029533052964" lon="20.004757833806273"><ele>745.3333333333334</ele><time>2026-04-27T12:57:48.999Z</time></trkpt><trkpt lat="40.44000843019082" lon="20.00465828099945"><ele>742.5</ele><time>2026-04-27T12:57:49.999Z</time></trkpt><trkpt lat="40.43999403123175" lon="20.004561206086493"><ele>739.6666666666666</ele><time>2026-04-27T12:57:50.999Z</time></trkpt><trkpt lat="40.43996155420786" lon="20.004456933666564"><ele>736.8333333333333</ele><time>2026-04-27T12:57:51.999Z</time></trkpt><trkpt lat="40.43992922667125" lon="20.00435962309236"><ele>734.0</ele><time>2026-04-27T12:57:52.999Z</time></trkpt><trkpt lat="40.43981987913812" lon="20.00427327164854"><ele>734.0</ele><time>2026-04-27T12:57:53.999Z</time></trkpt><trkpt lat="40.439723697395976" lon="20.004205818416345"><ele>734.0</ele><time>2026-04-27T12:57:54.999Z</time></trkpt><trkpt lat="40.43964131806386" lon="20.004130974028985"><ele>734.0</ele><time>2026-04-27T12:57:55.999Z</time></trkpt><trkpt lat="40.439561498128" lon="20.004050693873676"><ele>734.0</ele><time>2026-04-27T12:57:56.999Z</time></trkpt><trkpt lat="40.439485765599905" lon="20.0039734582048"><ele>734.0</ele><time>2026-04-27T12:57:57.999Z</time></trkpt><trkpt lat="40.43941672575468" lon="20.00390296737243"><ele>730.8000000000001</ele><time>2026-04-27T12:57:58.999Z</time></trkpt><trkpt lat="40.43935179982446" lon="20.003836677244806"><ele>727.6</ele><time>2026-04-27T12:57:59.999Z</time></trkpt><trkpt lat="40.4392858561986" lon="20.003769348527435"><ele>724.4</ele><time>2026-04-27T12:58:00.999Z</time></trkpt><trkpt lat="40.43919414151111" lon="20.003722311077528"><ele>721.2</ele><time>2026-04-27T12:58:01.999Z</time></trkpt><trkpt lat="40.439115853797134" lon="20.003676960946688"><ele>718.0</ele><time>2026-04-27T12:58:02.999Z</time></trkpt><trkpt lat="40.43901178516653" lon="20.00368101485693"><ele>718.0</ele><time>2026-04-27T12:58:03.999Z</time></trkpt><trkpt lat="40.4389414436994" lon="20.003682033113606"><ele>718.0</ele><time>2026-04-27T12:58:04.999Z</time></trkpt><trkpt lat="40.43887843228183" lon="20.003766593339098"><ele>718.0</ele><time>2026-04-27T12:58:05.999Z</time></trkpt><trkpt lat="40.43883716015171" lon="20.00389023382631"><ele>718.0</ele><time>2026-04-27T12:58:06.999Z</time></trkpt><trkpt lat="40.438777014121634" lon="20.004008380756613"><ele>718.0</ele><time>2026-04-27T12:58:07.999Z</time></trkpt><trkpt lat="40.43873477898362" lon="20.004140685838713"><ele>717.2</ele><time>2026-04-27T12:58:08.999Z</time></trkpt><trkpt lat="40.43870420837853" lon="20.004271210345916"><ele>716.4</ele><time>2026-04-27T12:58:09.999Z</time></trkpt><trkpt lat="40.43869498222738" lon="20.004390305127604"><ele>715.6</ele><time>2026-04-27T12:58:10.999Z</time></trkpt><trkpt lat="40.438712106552735" lon="20.004502441064165"><ele>714.8000000000001</ele><time>2026-04-27T12:58:11.999Z</time></trkpt><trkpt lat="40.43874514522882" lon="20.004619560015023"><ele>714.0</ele><time>2026-04-27T12:58:12.999Z</time></trkpt><trkpt lat="40.43878822560018" lon="20.00473140057531"><ele>714.0</ele><time>2026-04-27T12:58:13.999Z</time></trkpt><trkpt lat="40.43879974721502" lon="20.004830979518246"><ele>714.0</ele><time>2026-04-27T12:58:14.999Z</time></trkpt><trkpt lat="40.43875291841532" lon="20.00492630084584"><ele>714.0</ele><time>2026-04-27T12:58:15.999Z</time></trkpt><trkpt lat="40.43868210238094" lon="20.004987574464916"><ele>714.0</ele><time>2026-04-27T12:58:16.999Z</time></trkpt><trkpt lat="40.438607646926066" lon="20.005057870619872"><ele>714.0</ele><time>2026-04-27T12:58:17.999Z</time></trkpt><trkpt lat="40.438512825278984" lon="20.00515309980434"><ele>715.0</ele><time>2026-04-27T12:58:18.999Z</time></trkpt><trkpt lat="40.438416915802414" lon="20.00521576708069"><ele>716.0</ele><time>2026-04-27T12:58:19.999Z</time></trkpt><trkpt lat="40.438320352610376" lon="20.00527989742415"><ele>717.0</ele><time>2026-04-27T12:58:20.999Z</time></trkpt><trkpt lat="40.43823016400094" lon="20.005322340746012"><ele>718.0</ele><time>2026-04-27T12:58:21.999Z</time></trkpt><trkpt lat="40.4381385132413" lon="20.00536782714899"><ele>719.0</ele><time>2026-04-27T12:58:22.999Z</time></trkpt><trkpt lat="40.438028251945546" lon="20.005422549910318"><ele>713.75</ele><time>2026-04-27T12:58:23.999Z</time></trkpt><trkpt lat="40.43789935160832" lon="20.005496006208947"><ele>708.5</ele><time>2026-04-27T12:58:24.999Z</time></trkpt><trkpt lat="40.437779519605954" lon="20.005567937534142"><ele>703.25</ele><time>2026-04-27T12:58:25.999Z</time></trkpt><trkpt lat="40.437669153459204" lon="20.00563432291506"><ele>698.0</ele><time>2026-04-27T12:58:26.999Z</time></trkpt><trkpt lat="40.43756721932182" lon="20.005687622083467"><ele>698.0</ele><time>2026-04-27T12:58:27.999Z</time></trkpt><trkpt lat="40.43745862118554" lon="20.005739136665472"><ele>698.0</ele><time>2026-04-27T12:58:28.999Z</time></trkpt><trkpt lat="40.43733568419019" lon="20.00577742721501"><ele>698.0</ele><time>2026-04-27T12:58:29.999Z</time></trkpt><trkpt lat="40.43718972442857" lon="20.005802560378896"><ele>698.0</ele><time>2026-04-27T12:58:30.999Z</time></trkpt><trkpt lat="40.43702148838391" lon="20.005823815150325"><ele>698.6666666666666</ele><time>2026-04-27T12:58:31.999Z</time></trkpt><trkpt lat="40.43682716403079" lon="20.0058597034389"><ele>699.3333333333334</ele><time>2026-04-27T12:58:32.999Z</time></trkpt><trkpt lat="40.436630119153726" lon="20.00591873275258"><ele>700.0</ele><time>2026-04-27T12:58:33.999Z</time></trkpt><trkpt lat="40.43646261233737" lon="20.005916619085735"><ele>700.0</ele><time>2026-04-27T12:58:34.999Z</time></trkpt><trkpt lat="40.43632296342212" lon="20.005949673622325"><ele>700.0</ele><time>2026-04-27T12:58:35.999Z</time></trkpt><trkpt lat="40.43619057020414" lon="20.00594654941376"><ele>700.0</ele><time>2026-04-27T12:58:36.999Z</time></trkpt><trkpt lat="40.43604683247985" lon="20.005949745932654"><ele>700.0</ele><time>2026-04-27T12:58:37.999Z</time></trkpt><trkpt lat="40.435878709587136" lon="20.0059524077642"><ele>702.3333333333334</ele><time>2026-04-27T12:58:38.999Z</time></trkpt><trkpt lat="40.43568976090717" lon="20.005941334019855"><ele>704.6666666666666</ele><time>2026-04-27T12:58:39.999Z</time></trkpt><trkpt lat="40.43551948672693" lon="20.005924468663267"><ele>707.0</ele><time>2026-04-27T12:58:40.999Z</time></trkpt><trkpt lat="40.435372080024734" lon="20.005921340360082"><ele>707.25</ele><time>2026-04-27T12:58:41.999Z</time></trkpt><trkpt lat="40.43524375063996" lon="20.005923913984052"><ele>707.5</ele><time>2026-04-27T12:58:42.999Z</time></trkpt><trkpt lat="40.435126637421554" lon="20.005941196925914"><ele>707.75</ele><time>2026-04-27T12:58:43.999Z</time></trkpt><trkpt lat="40.435013167825254" lon="20.005958138264024"><ele>708.0</ele><time>2026-04-27T12:58:44.999Z</time></trkpt><trkpt lat="40.43489739538641" lon="20.00597850287391"><ele>708.0</ele><time>2026-04-27T12:58:45.999Z</time></trkpt><trkpt lat="40.43475344944784" lon="20.00597174361756"><ele>708.0</ele><time>2026-04-27T12:58:46.999Z</time></trkpt><trkpt lat="40.43461129039215" lon="20.005965617779907"><ele>708.0</ele><time>2026-04-27T12:58:47.999Z</time></trkpt><trkpt lat="40.43448289418151" lon="20.006000491400762"><ele>708.0</ele><time>2026-04-27T12:58:48.999Z</time></trkpt><trkpt lat="40.43434973669471" lon="20.00603130571466"><ele>709.6666666666666</ele><time>2026-04-27T12:58:49.999Z</time></trkpt><trkpt lat="40.43421147545847" lon="20.006024812966018"><ele>711.3333333333333</ele><time>2026-04-27T12:58:50.999Z</time></trkpt><trkpt lat="40.43405369741036" lon="20.006023037216824"><ele>713.0</ele><time>2026-04-27T12:58:51.999Z</time></trkpt><trkpt lat="40.43390205680804" lon="20.00605655262073"><ele>711.2</ele><time>2026-04-27T12:58:52.999Z</time></trkpt><trkpt lat="40.43376387553649" lon="20.006069465241712"><ele>709.4</ele><time>2026-04-27T12:58:53.999Z</time></trkpt><trkpt lat="40.43366162973969" lon="20.006081262654646"><ele>707.6</ele><time>2026-04-27T12:58:54.999Z</time></trkpt><trkpt lat="40.43358222901935" lon="20.00603881835138"><ele>705.8000000000001</ele><time>2026-04-27T12:58:55.999Z</time></trkpt><trkpt lat="40.433499077560825" lon="20.00601308556647"><ele>704.0</ele><time>2026-04-27T12:58:56.999Z</time></trkpt><trkpt lat="40.43339748173935" lon="20.005981738738114"><ele>704.0</ele><time>2026-04-27T12:58:57.999Z</time></trkpt><trkpt lat="40.43328325715" lon="20.005945878490582"><ele>704.0</ele><time>2026-04-27T12:58:58.999Z</time></trkpt><trkpt lat="40.43315461139381" lon="20.005935907272768"><ele>704.0</ele><time>2026-04-27T12:58:59.999Z</time></trkpt><trkpt lat="40.43304874461603" lon="20.005951346993843"><ele>704.0</ele><time>2026-04-27T12:59:00.999Z</time></trkpt><trkpt lat="40.432950768835695" lon="20.00593713841465"><ele>704.25</ele><time>2026-04-27T12:59:01.999Z</time></trkpt><trkpt lat="40.43284304717105" lon="20.006010207666208"><ele>704.5</ele><time>2026-04-27T12:59:02.999Z</time></trkpt><trkpt lat="40.43273416035401" lon="20.006091148119054"><ele>704.75</ele><time>2026-04-27T12:59:03.999Z</time></trkpt><trkpt lat="40.43262067642392" lon="20.006142046969295"><ele>705.0</ele><time>2026-04-27T12:59:04.999Z</time></trkpt><trkpt lat="40.43252577616467" lon="20.006197815131266"><ele>705.0</ele><time>2026-04-27T12:59:05.999Z</time></trkpt><trkpt lat="40.43243325271839" lon="20.00625346937724"><ele>705.0</ele><time>2026-04-27T12:59:06.999Z</time></trkpt><trkpt lat="40.43234792083125" lon="20.00621377816483"><ele>705.0</ele><time>2026-04-27T12:59:07.999Z</time></trkpt><trkpt lat="40.43222457745129" lon="20.006222536298385"><ele>705.0</ele><time>2026-04-27T12:59:08.999Z</time></trkpt><trkpt lat="40.43208713934553" lon="20.006240128006482"><ele>705.25</ele><time>2026-04-27T12:59:09.999Z</time></trkpt><trkpt lat="40.43193863304742" lon="20.00626011341863"><ele>705.5</ele><time>2026-04-27T12:59:10.999Z</time></trkpt><trkpt lat="40.43179296734679" lon="20.00627959249716"><ele>705.75</ele><time>2026-04-27T12:59:11.999Z</time></trkpt><trkpt lat="40.43164839123038" lon="20.00632417502681"><ele>706.0</ele><time>2026-04-27T12:59:12.999Z</time></trkpt><trkpt lat="40.431516077054255" lon="20.00636325539077"><ele>706.0</ele><time>2026-04-27T12:59:13.999Z</time></trkpt><trkpt lat="40.431394287395044" lon="20.00640034340357"><ele>706.0</ele><time>2026-04-27T12:59:14.999Z</time></trkpt><trkpt lat="40.43128278147449" lon="20.006434420366634"><ele>706.0</ele><time>2026-04-27T12:59:15.998Z</time></trkpt><trkpt lat="40.43117562622454" lon="20.006466440913048"><ele>706.0</ele><time>2026-04-27T12:59:16.998Z</time></trkpt><trkpt lat="40.43107952576045" lon="20.006495217730663"><ele>706.0</ele><time>2026-04-27T12:59:17.998Z</time></trkpt><trkpt lat="40.430999422739355" lon="20.00651864940066"><ele>701.8</ele><time>2026-04-27T12:59:18.998Z</time></trkpt><trkpt lat="40.430936214716354" lon="20.006555413519763"><ele>697.5999999999999</ele><time>2026-04-27T12:59:19.998Z</time></trkpt><trkpt lat="40.43095606608453" lon="20.006388446961378"><ele>693.4</ele><time>2026-04-27T12:59:20.998Z</time></trkpt><trkpt lat="40.43090010931529" lon="20.006307473066673"><ele>689.2</ele><time>2026-04-27T12:59:21.998Z</time></trkpt><trkpt lat="40.43093704862164" lon="20.00618690878324"><ele>685.0</ele><time>2026-04-27T12:59:22.998Z</time></trkpt><trkpt lat="40.430965812181476" lon="20.00602633182058"><ele>685.0</ele><time>2026-04-27T12:59:23.998Z</time></trkpt><trkpt lat="40.43100786344131" lon="20.005848648268643"><ele>685.0</ele><time>2026-04-27T12:59:24.998Z</time></trkpt><trkpt lat="40.43107134715748" lon="20.00570118093322"><ele>685.0</ele><time>2026-04-27T12:59:25.998Z</time></trkpt><trkpt lat="40.43111440652591" lon="20.0055820242031"><ele>685.0</ele><time>2026-04-27T12:59:26.998Z</time></trkpt><trkpt lat="40.43114798452871" lon="20.005448332652918"><ele>683.1666666666667</ele><time>2026-04-27T12:59:27.999Z</time></trkpt><trkpt lat="40.43115939155979" lon="20.005326341420545"><ele>681.3333333333334</ele><time>2026-04-27T12:59:28.999Z</time></trkpt><trkpt lat="40.43119117005143" lon="20.005245592562304"><ele>679.5</ele><time>2026-04-27T12:59:29.999Z</time></trkpt><trkpt lat="40.43117056719121" lon="20.00511420308203"><ele>677.6666666666666</ele><time>2026-04-27T12:59:30.999Z</time></trkpt><trkpt lat="40.43114397170967" lon="20.00501484799414"><ele>675.8333333333333</ele><time>2026-04-27T12:59:31.999Z</time></trkpt><trkpt lat="40.43111150457416" lon="20.004892293563337"><ele>674.0</ele><time>2026-04-27T12:59:32.999Z</time></trkpt><trkpt lat="40.43113826910886" lon="20.004749302037713"><ele>675.0</ele><time>2026-04-27T12:59:33.999Z</time></trkpt><trkpt lat="40.431143020382784" lon="20.004588889385847"><ele>676.0</ele><time>2026-04-27T12:59:34.999Z</time></trkpt><trkpt lat="40.43120740348495" lon="20.004466396928546"><ele>677.0</ele><time>2026-04-27T12:59:35.999Z</time></trkpt><trkpt lat="40.431267489195115" lon="20.004320165763193"><ele>678.0</ele><time>2026-04-27T12:59:36.999Z</time></trkpt><trkpt lat="40.43132495893415" lon="20.004179756279573"><ele>671.4</ele><time>2026-04-27T12:59:37.999Z</time></trkpt><trkpt lat="40.431377474529114" lon="20.004073635785264"><ele>664.8</ele><time>2026-04-27T12:59:38.999Z</time></trkpt><trkpt lat="40.43140719937562" lon="20.00399079573732"><ele>658.2</ele><time>2026-04-27T12:59:39.999Z</time></trkpt><trkpt lat="40.43154468382582" lon="20.00397107065719"><ele>651.6</ele><time>2026-04-27T12:59:41.999Z</time></trkpt><trkpt lat="40.43161983537366" lon="20.004067440327923"><ele>645.0</ele><time>2026-04-27T12:59:42.999Z</time></trkpt><trkpt lat="40.4317383311669" lon="20.00412309066278"><ele>650.25</ele><time>2026-04-27T12:59:43.999Z</time></trkpt><trkpt lat="40.431868163511034" lon="20.00416424548961"><ele>655.5</ele><time>2026-04-27T12:59:44.999Z</time></trkpt><trkpt lat="40.43199558288527" lon="20.004212166638336"><ele>660.75</ele><time>2026-04-27T12:59:45.999Z</time></trkpt><trkpt lat="40.43211317396643" lon="20.00423289384449"><ele>666.0</ele><time>2026-04-27T12:59:46.999Z</time></trkpt><trkpt lat="40.43222335861607" lon="20.00422912696347"><ele>666.0</ele><time>2026-04-27T12:59:47.999Z</time></trkpt><trkpt lat="40.43233196145595" lon="20.004224789169278"><ele>666.0</ele><time>2026-04-27T12:59:48.999Z</time></trkpt><trkpt lat="40.43244021229287" lon="20.00421783753529"><ele>666.0</ele><time>2026-04-27T12:59:49.999Z</time></trkpt><trkpt lat="40.43253949457663" lon="20.004211000493783"><ele>666.0</ele><time>2026-04-27T12:59:50.999Z</time></trkpt><trkpt lat="40.432627385854396" lon="20.00421887388932"><ele>666.0</ele><time>2026-04-27T12:59:51.999Z</time></trkpt><trkpt lat="40.43271533867995" lon="20.004255642502283"><ele>666.0</ele><time>2026-04-27T12:59:52.999Z</time></trkpt><trkpt lat="40.43278724089193" lon="20.00432192760864"><ele>666.0</ele><time>2026-04-27T12:59:53.999Z</time></trkpt><trkpt lat="40.43286156703935" lon="20.004387559978046"><ele>666.0</ele><time>2026-04-27T12:59:54.999Z</time></trkpt><trkpt lat="40.43292939702143" lon="20.00440581330866"><ele>666.0</ele><time>2026-04-27T12:59:55.999Z</time></trkpt><trkpt lat="40.43299174777887" lon="20.004431178959816"><ele>666.0</ele><time>2026-04-27T12:59:56.999Z</time></trkpt><trkpt lat="40.43306251014291" lon="20.004350184909338"><ele>666.0</ele><time>2026-04-27T12:59:57.999Z</time></trkpt><trkpt lat="40.433119308423386" lon="20.004297075686544"><ele>666.5999999999999</ele><time>2026-04-27T12:59:58.999Z</time></trkpt><trkpt lat="40.4331898892384" lon="20.00422522167"><ele>667.2</ele><time>2026-04-27T12:59:59.999Z</time></trkpt><trkpt lat="40.43326130674011" lon="20.004135311887694"><ele>667.8</ele><time>2026-04-27T13:00:00.999Z</time></trkpt><trkpt lat="40.43331830676991" lon="20.004039233553527"><ele>668.4000000000001</ele><time>2026-04-27T13:00:01.999Z</time></trkpt><trkpt lat="40.43336546802285" lon="20.00394048749172"><ele>669.0</ele><time>2026-04-27T13:00:02.999Z</time></trkpt><trkpt lat="40.43341915302752" lon="20.003810274719974"><ele>665.0</ele><time>2026-04-27T13:00:03.999Z</time></trkpt><trkpt lat="40.43347422945952" lon="20.00369185385163"><ele>661.0</ele><time>2026-04-27T13:00:04.999Z</time></trkpt><trkpt lat="40.433525905207425" lon="20.003572495926772"><ele>657.0</ele><time>2026-04-27T13:00:05.999Z</time></trkpt><trkpt lat="40.43358263694645" lon="20.00346766984609"><ele>653.0</ele><time>2026-04-27T13:00:06.999Z</time></trkpt><trkpt lat="40.433654079763826" lon="20.003350008547972"><ele>649.0</ele><time>2026-04-27T13:00:07.999Z</time></trkpt><trkpt lat="40.43373565361075" lon="20.00321512349974"><ele>646.8000000000001</ele><time>2026-04-27T13:00:08.999Z</time></trkpt><trkpt lat="40.433813689789936" lon="20.003085503625456"><ele>644.6</ele><time>2026-04-27T13:00:09.999Z</time></trkpt><trkpt lat="40.433880104480714" lon="20.002976149484624"><ele>642.4</ele><time>2026-04-27T13:00:10.999Z</time></trkpt><trkpt lat="40.43394109095062" lon="20.002875348128118"><ele>640.2</ele><time>2026-04-27T13:00:11.999Z</time></trkpt><trkpt lat="40.4339948205838" lon="20.00278616826169"><ele>638.0</ele><time>2026-04-27T13:00:12.999Z</time></trkpt><trkpt lat="40.43406451125876" lon="20.002712906482323"><ele>638.0</ele><time>2026-04-27T13:00:13.999Z</time></trkpt><trkpt lat="40.43416484035422" lon="20.002685092422468"><ele>638.0</ele><time>2026-04-27T13:00:14.999Z</time></trkpt><trkpt lat="40.43426684708872" lon="20.00265087210516"><ele>638.0</ele><time>2026-04-27T13:00:15.999Z</time></trkpt><trkpt lat="40.43437010161422" lon="20.002590813072448"><ele>638.0</ele><time>2026-04-27T13:00:16.999Z</time></trkpt><trkpt lat="40.4344572160235" lon="20.00251709665769"><ele>638.0</ele><time>2026-04-27T13:00:17.999Z</time></trkpt><trkpt lat="40.434535793799725" lon="20.002431172273656"><ele>633.1999999999999</ele><time>2026-04-27T13:00:18.999Z</time></trkpt><trkpt lat="40.43461144130069" lon="20.002353942625298"><ele>628.4</ele><time>2026-04-27T13:00:19.999Z</time></trkpt><trkpt lat="40.43468865100666" lon="20.002298338932132"><ele>623.5999999999999</ele><time>2026-04-27T13:00:20.999Z</time></trkpt><trkpt lat="40.43476363317064" lon="20.002272273095844"><ele>618.8</ele><time>2026-04-27T13:00:21.999Z</time></trkpt><trkpt lat="40.43482452142986" lon="20.002226126479734"><ele>614.0</ele><time>2026-04-27T13:00:22.999Z</time></trkpt><trkpt lat="40.43493700089952" lon="20.002298788881543"><ele>613.6</ele><time>2026-04-27T13:00:23.999Z</time></trkpt><trkpt lat="40.43502633769365" lon="20.00234471370624"><ele>613.2</ele><time>2026-04-27T13:00:24.999Z</time></trkpt><trkpt lat="40.43510836099384" lon="20.002418597321114"><ele>612.8000000000001</ele><time>2026-04-27T13:00:25.999Z</time></trkpt><trkpt lat="40.435155182312826" lon="20.002532259796084"><ele>612.4</ele><time>2026-04-27T13:00:26.999Z</time></trkpt><trkpt lat="40.435196667013386" lon="20.00261533250104"><ele>612.0</ele><time>2026-04-27T13:00:27.999Z</time></trkpt><trkpt lat="40.435258683867715" lon="20.00271942114078"><ele>612.0</ele><time>2026-04-27T13:00:29.999Z</time></trkpt><trkpt lat="40.43534216141225" lon="20.00265756748407"><ele>612.0</ele><time>2026-04-27T13:00:31.999Z</time></trkpt><trkpt lat="40.43533688668462" lon="20.002556377306718"><ele>612.0</ele><time>2026-04-27T13:00:33.999Z</time></trkpt><trkpt lat="40.43531672432914" lon="20.002397931481873"><ele>612.0</ele><time>2026-04-27T13:00:35.999Z</time></trkpt><trkpt lat="40.435321427410884" lon="20.002302577607995"><ele>612.0</ele><time>2026-04-27T13:00:36.999Z</time></trkpt><trkpt lat="40.435317900941385" lon="20.00221818427073"><ele>612.0</ele><time>2026-04-27T13:00:37.999Z</time></trkpt><trkpt lat="40.435231600710345" lon="20.00210641494762"><ele>612.0</ele><time>2026-04-27T13:00:38.999Z</time></trkpt><trkpt lat="40.435165305307095" lon="20.002038504059506"><ele>612.0</ele><time>2026-04-27T13:00:39.999Z</time></trkpt><trkpt lat="40.435083180423916" lon="20.00194958575405"><ele>612.0</ele><time>2026-04-27T13:00:40.999Z</time></trkpt><trkpt lat="40.43500216138792" lon="20.0018548215632"><ele>612.0</ele><time>2026-04-27T13:00:41.999Z</time></trkpt><trkpt lat="40.43493077536798" lon="20.001771575793526"><ele>612.0</ele><time>2026-04-27T13:00:42.999Z</time></trkpt><trkpt lat="40.43486568976076" lon="20.00169533682806"><ele>612.0</ele><time>2026-04-27T13:00:43.999Z</time></trkpt><trkpt lat="40.434714146133224" lon="20.001693757897947"><ele>612.0</ele><time>2026-04-27T13:00:44.999Z</time></trkpt><trkpt lat="40.434609829512425" lon="20.001701279652327"><ele>612.0</ele><time>2026-04-27T13:00:45.999Z</time></trkpt><trkpt lat="40.43448741882383" lon="20.001783625385393"><ele>612.0</ele><time>2026-04-27T13:00:46.999Z</time></trkpt><trkpt lat="40.43436284287361" lon="20.001868517866637"><ele>612.3333333333334</ele><time>2026-04-27T13:00:47.999Z</time></trkpt><trkpt lat="40.434261384261326" lon="20.001938029907414"><ele>612.6666666666666</ele><time>2026-04-27T13:00:48.999Z</time></trkpt><trkpt lat="40.4341856158125" lon="20.001989958956862"><ele>613.0</ele><time>2026-04-27T13:00:49.999Z</time></trkpt><trkpt lat="40.4341094321398" lon="20.001947589414087"><ele>613.3333333333333</ele><time>2026-04-27T13:00:50.999Z</time></trkpt><trkpt lat="40.43402639475112" lon="20.001944334860564"><ele>613.6666666666666</ele><time>2026-04-27T13:00:51.999Z</time></trkpt><trkpt lat="40.43394889846952" lon="20.00193891593484"><ele>614.0</ele><time>2026-04-27T13:00:52.999Z</time></trkpt><trkpt lat="40.4338766695272" lon="20.001848415128762"><ele>614.0</ele><time>2026-04-27T13:00:53.999Z</time></trkpt><trkpt lat="40.433848711548706" lon="20.00167564248868"><ele>614.0</ele><time>2026-04-27T13:00:54.999Z</time></trkpt><trkpt lat="40.433737688477834" lon="20.001550132425535"><ele>614.0</ele><time>2026-04-27T13:00:55.999Z</time></trkpt><trkpt lat="40.433648259684304" lon="20.001473352617282"><ele>614.0</ele><time>2026-04-27T13:00:56.999Z</time></trkpt><trkpt lat="40.433565387077635" lon="20.00140220178866"><ele>613.8</ele><time>2026-04-27T13:00:57.999Z</time></trkpt><trkpt lat="40.43350193184621" lon="20.00133430647601"><ele>613.5999999999999</ele><time>2026-04-27T13:00:58.999Z</time></trkpt><trkpt lat="40.43346055459565" lon="20.001223406209935"><ele>613.4</ele><time>2026-04-27T13:00:59.999Z</time></trkpt><trkpt lat="40.43346821102618" lon="20.001054130337405"><ele>613.1999999999999</ele><time>2026-04-27T13:01:00.999Z</time></trkpt><trkpt lat="40.43342894209795" lon="20.000923499326465"><ele>613.0</ele><time>2026-04-27T13:01:01.999Z</time></trkpt><trkpt lat="40.43341815445789" lon="20.000780760727974"><ele>609.5</ele><time>2026-04-27T13:01:02.999Z</time></trkpt><trkpt lat="40.43339060124917" lon="20.00063258460478"><ele>606.0</ele><time>2026-04-27T13:01:03.999Z</time></trkpt><trkpt lat="40.433290027068495" lon="20.00048741250539"><ele>602.5</ele><time>2026-04-27T13:01:04.999Z</time></trkpt><trkpt lat="40.433215608671226" lon="20.000415853691408"><ele>599.0</ele><time>2026-04-27T13:01:05.999Z</time></trkpt><trkpt lat="40.43313559406784" lon="20.000339110122294"><ele>599.0</ele><time>2026-04-27T13:01:06.999Z</time></trkpt><trkpt lat="40.43304721711861" lon="20.000254359535052"><ele>599.0</ele><time>2026-04-27T13:01:07.999Z</time></trkpt><trkpt lat="40.43288677201216" lon="20.000265888314395"><ele>599.0</ele><time>2026-04-27T13:01:08.999Z</time></trkpt><trkpt lat="40.432801158485184" lon="20.00027751556614"><ele>599.0</ele><time>2026-04-27T13:01:09.999Z</time></trkpt><trkpt lat="40.43269764814292" lon="20.000290626377524"><ele>598.6666666666666</ele><time>2026-04-27T13:01:10.999Z</time></trkpt><trkpt lat="40.43256425539722" lon="20.000308098991503"><ele>598.3333333333334</ele><time>2026-04-27T13:01:11.999Z</time></trkpt><trkpt lat="40.43241442138749" lon="20.000327614505846"><ele>598.0</ele><time>2026-04-27T13:01:12.999Z</time></trkpt><trkpt lat="40.432252799780585" lon="20.000377507453365"><ele>597.8</ele><time>2026-04-27T13:01:13.999Z</time></trkpt><trkpt lat="40.432114171986974" lon="20.00042010317435"><ele>597.5999999999999</ele><time>2026-04-27T13:01:14.999Z</time></trkpt><trkpt lat="40.431998658446396" lon="20.000455712702625"><ele>597.4000000000001</ele><time>2026-04-27T13:01:15.999Z</time></trkpt><trkpt lat="40.431904825502755" lon="20.000484903659412"><ele>597.2</ele><time>2026-04-27T13:01:16.999Z</time></trkpt><trkpt lat="40.43182597450512" lon="20.00050943424893"><ele>597.0</ele><time>2026-04-27T13:01:17.999Z</time></trkpt><trkpt lat="40.43179681883356" lon="20.000396896057495"><ele>597.0</ele><time>2026-04-27T13:01:18.999Z</time></trkpt><trkpt lat="40.43170252162316" lon="20.000315462369038"><ele>597.0</ele><time>2026-04-27T13:01:19.999Z</time></trkpt><trkpt lat="40.43164567865486" lon="20.000192399859433"><ele>597.0</ele><time>2026-04-27T13:01:20.999Z</time></trkpt><trkpt lat="40.431553084699146" lon="20.000052448410187"><ele>597.0</ele><time>2026-04-27T13:01:21.998Z</time></trkpt><trkpt lat="40.431474538147306" lon="19.999933155217533"><ele>597.0</ele><time>2026-04-27T13:01:22.998Z</time></trkpt><trkpt lat="40.43139806774963" lon="19.99981573248209"><ele>597.0</ele><time>2026-04-27T13:01:23.998Z</time></trkpt><trkpt lat="40.431390265576226" lon="19.999711627539007"><ele>597.0</ele><time>2026-04-27T13:01:24.998Z</time></trkpt><trkpt lat="40.43136950146068" lon="19.99956602160253"><ele>597.0</ele><time>2026-04-27T13:01:25.998Z</time></trkpt><trkpt lat="40.431349598210495" lon="19.999443662987986"><ele>597.0</ele><time>2026-04-27T13:01:26.998Z</time></trkpt><trkpt lat="40.43114287836646" lon="19.999380449830685"><ele>594.0</ele><time>2026-04-27T13:01:27.998Z</time></trkpt><trkpt lat="40.43102872896675" lon="19.999296948951976"><ele>591.0</ele><time>2026-04-27T13:01:28.999Z</time></trkpt><trkpt lat="40.43091345020584" lon="19.999233273722204"><ele>588.0</ele><time>2026-04-27T13:01:29.999Z</time></trkpt><trkpt lat="40.430803269360084" lon="19.999206352856863"><ele>585.0</ele><time>2026-04-27T13:01:30.999Z</time></trkpt><trkpt lat="40.430680061382326" lon="19.999200640485117"><ele>585.0</ele><time>2026-04-27T13:01:31.999Z</time></trkpt><trkpt lat="40.43053752982799" lon="19.999181502795608"><ele>585.0</ele><time>2026-04-27T13:01:32.999Z</time></trkpt><trkpt lat="40.430397154935726" lon="19.999229257761716"><ele>585.0</ele><time>2026-04-27T13:01:33.999Z</time></trkpt><trkpt lat="40.43024811471318" lon="19.999279621994784"><ele>585.0</ele><time>2026-04-27T13:01:34.999Z</time></trkpt><trkpt lat="40.43009084110418" lon="19.999315945022424"><ele>582.5</ele><time>2026-04-27T13:01:35.999Z</time></trkpt><trkpt lat="40.429921541704786" lon="19.99935691239931"><ele>580.0</ele><time>2026-04-27T13:01:36.999Z</time></trkpt><trkpt lat="40.42977273502344" lon="19.999392377775877"><ele>577.5</ele><time>2026-04-27T13:01:37.999Z</time></trkpt><trkpt lat="40.429659987947275" lon="19.999388506477537"><ele>575.0</ele><time>2026-04-27T13:01:38.999Z</time></trkpt><trkpt lat="40.429543514157515" lon="19.99937644855172"><ele>572.75</ele><time>2026-04-27T13:01:39.999Z</time></trkpt><trkpt lat="40.429416764230815" lon="19.999363284824817"><ele>570.5</ele><time>2026-04-27T13:01:40.999Z</time></trkpt><trkpt lat="40.429284013543466" lon="19.999349389725698"><ele>568.25</ele><time>2026-04-27T13:01:41.999Z</time></trkpt><trkpt lat="40.42916072481406" lon="19.999335768140117"><ele>566.0</ele><time>2026-04-27T13:01:42.999Z</time></trkpt><trkpt lat="40.42904073032401" lon="19.99932251069868"><ele>566.0</ele><time>2026-04-27T13:01:43.999Z</time></trkpt><trkpt lat="40.42891744713867" lon="19.999330624640592"><ele>566.0</ele><time>2026-04-27T13:01:44.999Z</time></trkpt><trkpt lat="40.42880249700345" lon="19.999334886451745"><ele>566.0</ele><time>2026-04-27T13:01:45.999Z</time></trkpt><trkpt lat="40.42866928560728" lon="19.999339825304258"><ele>566.0</ele><time>2026-04-27T13:01:46.999Z</time></trkpt><trkpt lat="40.4285367772524" lon="19.999344738102415"><ele>564.2</ele><time>2026-04-27T13:01:47.999Z</time></trkpt><trkpt lat="40.428424750639024" lon="19.99934809560481"><ele>562.4000000000001</ele><time>2026-04-27T13:01:48.999Z</time></trkpt><trkpt lat="40.428318538757765" lon="19.999352056389156"><ele>560.6</ele><time>2026-04-27T13:01:49.999Z</time></trkpt><trkpt lat="40.42821387751682" lon="19.99935641464245"><ele>558.8000000000001</ele><time>2026-04-27T13:01:50.999Z</time></trkpt><trkpt lat="40.42812452152342" lon="19.99930647188856"><ele>557.0</ele><time>2026-04-27T13:01:51.999Z</time></trkpt><trkpt lat="40.427994671820215" lon="19.999254825964314"><ele>554.5</ele><time>2026-04-27T13:01:52.999Z</time></trkpt><trkpt lat="40.42785987242203" lon="19.99920089722334"><ele>552.0</ele><time>2026-04-27T13:01:53.999Z</time></trkpt><trkpt lat="40.427736774083236" lon="19.999151100029398"><ele>549.5</ele><time>2026-04-27T13:01:54.999Z</time></trkpt><trkpt lat="40.42762853503707" lon="19.999107813627987"><ele>547.0</ele><time>2026-04-27T13:01:55.999Z</time></trkpt><trkpt lat="40.427519207063455" lon="19.999062352777166"><ele>551.25</ele><time>2026-04-27T13:01:56.999Z</time></trkpt><trkpt lat="40.42737991362689" lon="19.99908139425791"><ele>555.5</ele><time>2026-04-27T13:01:57.999Z</time></trkpt><trkpt lat="40.427260615588345" lon="19.99908302804908"><ele>559.75</ele><time>2026-04-27T13:01:58.999Z</time></trkpt><trkpt lat="40.427143173395265" lon="19.999084508348776"><ele>564.0</ele><time>2026-04-27T13:01:59.999Z</time></trkpt><trkpt lat="40.427038585173705" lon="19.99908539361583"><ele>564.0</ele><time>2026-04-27T13:02:00.999Z</time></trkpt><trkpt lat="40.42694031323886" lon="19.999077542574064"><ele>564.0</ele><time>2026-04-27T13:02:01.999Z</time></trkpt><trkpt lat="40.42683293595195" lon="19.99906361858378"><ele>564.0</ele><time>2026-04-27T13:02:02.999Z</time></trkpt><trkpt lat="40.42671385722146" lon="19.999048177213858"><ele>564.0</ele><time>2026-04-27T13:02:03.999Z</time></trkpt><trkpt lat="40.42659214063538" lon="19.999032393794717"><ele>564.0</ele><time>2026-04-27T13:02:04.999Z</time></trkpt><trkpt lat="40.42647375307271" lon="19.99901704203823"><ele>564.0</ele><time>2026-04-27T13:02:05.999Z</time></trkpt><trkpt lat="40.426347873903346" lon="19.99900019230654"><ele>564.0</ele><time>2026-04-27T13:02:06.999Z</time></trkpt><trkpt lat="40.42618923777822" lon="19.99910661079087"><ele>564.0</ele><time>2026-04-27T13:02:07.999Z</time></trkpt><trkpt lat="40.42605336294517" lon="19.999174203068986"><ele>561.75</ele><time>2026-04-27T13:02:08.999Z</time></trkpt><trkpt lat="40.42591951087972" lon="19.999241226425816"><ele>559.5</ele><time>2026-04-27T13:02:09.999Z</time></trkpt><trkpt lat="40.425802849796675" lon="19.99929942469285"><ele>557.25</ele><time>2026-04-27T13:02:10.999Z</time></trkpt><trkpt lat="40.425694678234116" lon="19.999353269577597"><ele>555.0</ele><time>2026-04-27T13:02:11.999Z</time></trkpt><trkpt lat="40.42558244551473" lon="19.999399100872534"><ele>556.0</ele><time>2026-04-27T13:02:12.999Z</time></trkpt><trkpt lat="40.425467089060845" lon="19.99944434775145"><ele>557.0</ele><time>2026-04-27T13:02:13.999Z</time></trkpt><trkpt lat="40.425350087078435" lon="19.999489547760582"><ele>558.0</ele><time>2026-04-27T13:02:14.999Z</time></trkpt><trkpt lat="40.42522186853576" lon="19.999539082441263"><ele>559.0</ele><time>2026-04-27T13:02:15.999Z</time></trkpt><trkpt lat="40.42509003374691" lon="19.999590012681203"><ele>559.0</ele><time>2026-04-27T13:02:16.999Z</time></trkpt><trkpt lat="40.42495189815913" lon="19.99964337704213"><ele>559.0</ele><time>2026-04-27T13:02:17.999Z</time></trkpt><trkpt lat="40.42481397902988" lon="19.99971493615222"><ele>559.0</ele><time>2026-04-27T13:02:18.999Z</time></trkpt><trkpt lat="40.42467385184785" lon="19.999787730435717"><ele>559.0</ele><time>2026-04-27T13:02:19.999Z</time></trkpt><trkpt lat="40.42452839237635" lon="19.999863294742056"><ele>560.0</ele><time>2026-04-27T13:02:20.999Z</time></trkpt><trkpt lat="40.42436892792562" lon="19.99994676611959"><ele>561.0</ele><time>2026-04-27T13:02:21.999Z</time></trkpt><trkpt lat="40.424190103422156" lon="20.00004016981558"><ele>562.0</ele><time>2026-04-27T13:02:22.999Z</time></trkpt><trkpt lat="40.42402780820322" lon="20.000124940017443"><ele>562.0</ele><time>2026-04-27T13:02:23.999Z</time></trkpt><trkpt lat="40.42388693100791" lon="20.000198523080886"><ele>562.0</ele><time>2026-04-27T13:02:24.999Z</time></trkpt><trkpt lat="40.423749045299076" lon="20.000269762575975"><ele>562.0</ele><time>2026-04-27T13:02:25.999Z</time></trkpt><trkpt lat="40.423621930339195" lon="20.000335603365677"><ele>562.0</ele><time>2026-04-27T13:02:26.999Z</time></trkpt><trkpt lat="40.423509224270944" lon="20.000394426302325"><ele>563.0</ele><time>2026-04-27T13:02:27.999Z</time></trkpt><trkpt lat="40.423410123937956" lon="20.000445898280947"><ele>564.0</ele><time>2026-04-27T13:02:28.999Z</time></trkpt><trkpt lat="40.42331076550163" lon="20.000497021912715"><ele>565.0</ele><time>2026-04-27T13:02:29.999Z</time></trkpt><trkpt lat="40.42320043230004" lon="20.000475160136855"><ele>566.0</ele><time>2026-04-27T13:02:30.999Z</time></trkpt><trkpt lat="40.42305739191504" lon="20.00048253238142"><ele>566.0</ele><time>2026-04-27T13:02:31.999Z</time></trkpt><trkpt lat="40.42293379748525" lon="20.000489754891856"><ele>566.0</ele><time>2026-04-27T13:02:32.999Z</time></trkpt><trkpt lat="40.4228039439979" lon="20.000552294768447"><ele>566.0</ele><time>2026-04-27T13:02:33.999Z</time></trkpt><trkpt lat="40.42269007520771" lon="20.00060280900888"><ele>566.0</ele><time>2026-04-27T13:02:34.999Z</time></trkpt><trkpt lat="40.42257840770818" lon="20.000651879578445"><ele>566.0</ele><time>2026-04-27T13:02:35.999Z</time></trkpt><trkpt lat="40.42245770487063" lon="20.000704788126658"><ele>566.0</ele><time>2026-04-27T13:02:36.999Z</time></trkpt><trkpt lat="40.42236987253529" lon="20.000824598529"><ele>566.0</ele><time>2026-04-27T13:02:37.999Z</time></trkpt><trkpt lat="40.42226788808501" lon="20.000921800215984"><ele>566.0</ele><time>2026-04-27T13:02:38.999Z</time></trkpt><trkpt lat="40.42218045180376" lon="20.00101325220706"><ele>566.25</ele><time>2026-04-27T13:02:39.999Z</time></trkpt><trkpt lat="40.42215744783878" lon="20.001186261946334"><ele>566.5</ele><time>2026-04-27T13:02:40.999Z</time></trkpt><trkpt lat="40.42209903082609" lon="20.00134733741936"><ele>566.75</ele><time>2026-04-27T13:02:41.999Z</time></trkpt><trkpt lat="40.42202837870527" lon="20.00149029119175"><ele>567.0</ele><time>2026-04-27T13:02:42.999Z</time></trkpt><trkpt lat="40.42196470753876" lon="20.001614920397003"><ele>564.6</ele><time>2026-04-27T13:02:43.999Z</time></trkpt><trkpt lat="40.421907845045546" lon="20.0017262068849"><ele>562.2</ele><time>2026-04-27T13:02:44.999Z</time></trkpt><trkpt lat="40.421848807754124" lon="20.001814365081504"><ele>559.8</ele><time>2026-04-27T13:02:45.999Z</time></trkpt><trkpt lat="40.421739239261775" lon="20.001776402733483"><ele>557.4</ele><time>2026-04-27T13:02:46.999Z</time></trkpt><trkpt lat="40.42160935660232" lon="20.001811323493218"><ele>555.0</ele><time>2026-04-27T13:02:47.999Z</time></trkpt><trkpt lat="40.42146753326688" lon="20.00184936331669"><ele>555.0</ele><time>2026-04-27T13:02:48.999Z</time></trkpt><trkpt lat="40.42135701838602" lon="20.001879025314317"><ele>555.0</ele><time>2026-04-27T13:02:49.999Z</time></trkpt><trkpt lat="40.421260871600595" lon="20.001904830970865"><ele>555.0</ele><time>2026-04-27T13:02:50.999Z</time></trkpt><trkpt lat="40.42116152840111" lon="20.001931494999983"><ele>555.0</ele><time>2026-04-27T13:02:51.999Z</time></trkpt><trkpt lat="40.4211182721527" lon="20.001860963491364"><ele>555.0</ele><time>2026-04-27T13:02:52.999Z</time></trkpt><trkpt lat="40.4210422059082" lon="20.00181485396751"><ele>556.4</ele><time>2026-04-27T13:02:53.999Z</time></trkpt><trkpt lat="40.42097507843663" lon="20.001774161728036"><ele>557.8</ele><time>2026-04-27T13:02:54.999Z</time></trkpt><trkpt lat="40.420884137057776" lon="20.001614940315356"><ele>559.2</ele><time>2026-04-27T13:02:56.999Z</time></trkpt><trkpt lat="40.42081365341229" lon="20.00152514374836"><ele>560.6</ele><time>2026-04-27T13:02:57.999Z</time></trkpt><trkpt lat="40.42075054308464" lon="20.00144488470315"><ele>562.0</ele><time>2026-04-27T13:02:58.999Z</time></trkpt><trkpt lat="40.42069576947374" lon="20.001375227751435"><ele>562.0</ele><time>2026-04-27T13:02:59.999Z</time></trkpt><trkpt lat="40.420647196863555" lon="20.00131345558198"><ele>562.0</ele><time>2026-04-27T13:03:00.999Z</time></trkpt><trkpt lat="40.420547641969534" lon="20.001289360732624"><ele>562.0</ele><time>2026-04-27T13:03:01.999Z</time></trkpt><trkpt lat="40.42048455149686" lon="20.00126228651489"><ele>562.0</ele><time>2026-04-27T13:03:02.999Z</time></trkpt><trkpt lat="40.420384983569754" lon="20.001285749400896"><ele>562.0</ele><time>2026-04-27T13:03:03.999Z</time></trkpt><trkpt lat="40.4202965747327" lon="20.001296072854004"><ele>562.0</ele><time>2026-04-27T13:03:04.999Z</time></trkpt><trkpt lat="40.42019926965056" lon="20.001307435203138"><ele>560.5</ele><time>2026-04-27T13:03:05.999Z</time></trkpt><trkpt lat="40.420092738051416" lon="20.001319874926097"><ele>559.0</ele><time>2026-04-27T13:03:06.999Z</time></trkpt><trkpt lat="40.41998681251453" lon="20.001326978531605"><ele>557.5</ele><time>2026-04-27T13:03:07.999Z</time></trkpt><trkpt lat="40.41986473240566" lon="20.001318870515405"><ele>556.0</ele><time>2026-04-27T13:03:08.999Z</time></trkpt><trkpt lat="40.419735708415196" lon="20.00131035786567"><ele>555.5</ele><time>2026-04-27T13:03:09.999Z</time></trkpt><trkpt lat="40.41960117763865" lon="20.001301739157103"><ele>555.0</ele><time>2026-04-27T13:03:10.999Z</time></trkpt><trkpt lat="40.41947838511845" lon="20.001293937715122"><ele>554.5</ele><time>2026-04-27T13:03:11.999Z</time></trkpt><trkpt lat="40.41935472026862" lon="20.00128624427799"><ele>554.0</ele><time>2026-04-27T13:03:12.999Z</time></trkpt><trkpt lat="40.4192256841299" lon="20.001278175414058"><ele>554.0</ele><time>2026-04-27T13:03:13.999Z</time></trkpt><trkpt lat="40.41908925129105" lon="20.001308739908083"><ele>554.0</ele><time>2026-04-27T13:03:14.999Z</time></trkpt><trkpt lat="40.418962706957366" lon="20.001331875543134"><ele>554.0</ele><time>2026-04-27T13:03:15.999Z</time></trkpt><trkpt lat="40.41883973667349" lon="20.001354135601513"><ele>554.0</ele><time>2026-04-27T13:03:16.999Z</time></trkpt><trkpt lat="40.41872091666483" lon="20.00137563822447"><ele>553.25</ele><time>2026-04-27T13:03:17.999Z</time></trkpt><trkpt lat="40.418602143547034" lon="20.001396583346548"><ele>552.5</ele><time>2026-04-27T13:03:18.999Z</time></trkpt><trkpt lat="40.41849019636641" lon="20.00143663407889"><ele>551.75</ele><time>2026-04-27T13:03:19.999Z</time></trkpt><trkpt lat="40.418381104124165" lon="20.00143889648288"><ele>551.0</ele><time>2026-04-27T13:03:20.999Z</time></trkpt><trkpt lat="40.41826750948359" lon="20.001434426640884"><ele>551.0</ele><time>2026-04-27T13:03:21.999Z</time></trkpt><trkpt lat="40.41816256875823" lon="20.00142284595765"><ele>551.0</ele><time>2026-04-27T13:03:22.999Z</time></trkpt><trkpt lat="40.41806803958565" lon="20.001399760439565"><ele>551.0</ele><time>2026-04-27T13:03:23.999Z</time></trkpt><trkpt lat="40.41798329453418" lon="20.001379455439434"><ele>551.0</ele><time>2026-04-27T13:03:24.999Z</time></trkpt><trkpt lat="40.417908217156075" lon="20.001368628012887"><ele>551.0</ele><time>2026-04-27T13:03:25.999Z</time></trkpt><trkpt lat="40.41784392496778" lon="20.001365642504414"><ele>551.0</ele><time>2026-04-27T13:03:26.999Z</time></trkpt><trkpt lat="40.41777679500838" lon="20.001376485385578"><ele>551.8</ele><time>2026-04-27T13:03:27.999Z</time></trkpt><trkpt lat="40.41769571651973" lon="20.001397104993632"><ele>552.6</ele><time>2026-04-27T13:03:28.999Z</time></trkpt><trkpt lat="40.417613246710104" lon="20.001429267756645"><ele>553.4</ele><time>2026-04-27T13:03:29.999Z</time></trkpt><trkpt lat="40.41753572943882" lon="20.00148087621538"><ele>554.2</ele><time>2026-04-27T13:03:30.999Z</time></trkpt><trkpt lat="40.417441300971966" lon="20.00153782518641"><ele>555.0</ele><time>2026-04-27T13:03:31.999Z</time></trkpt><trkpt lat="40.417350244309254" lon="20.00158704538234"><ele>555.0</ele><time>2026-04-27T13:03:32.999Z</time></trkpt><trkpt lat="40.41727035909023" lon="20.001643356352638"><ele>555.0</ele><time>2026-04-27T13:03:33.999Z</time></trkpt><trkpt lat="40.417192554126615" lon="20.001672599900825"><ele>555.0</ele><time>2026-04-27T13:03:34.999Z</time></trkpt><trkpt lat="40.41711720647753" lon="20.00171724095107"><ele>555.0</ele><time>2026-04-27T13:03:35.999Z</time></trkpt><trkpt lat="40.41703742907584" lon="20.001764166733466"><ele>555.0</ele><time>2026-04-27T13:03:36.999Z</time></trkpt><trkpt lat="40.416946530465" lon="20.001778575702936"><ele>555.0</ele><time>2026-04-27T13:03:37.999Z</time></trkpt><trkpt lat="40.41685065667764" lon="20.00178563726309"><ele>552.0</ele><time>2026-04-27T13:03:38.999Z</time></trkpt><trkpt lat="40.41675959611822" lon="20.001792344955916"><ele>549.0</ele><time>2026-04-27T13:03:39.999Z</time></trkpt><trkpt lat="40.41668108105645" lon="20.001798352998136"><ele>546.0</ele><time>2026-04-27T13:03:40.999Z</time></trkpt><trkpt lat="40.41660379837978" lon="20.001804266746586"><ele>543.0</ele><time>2026-04-27T13:03:41.999Z</time></trkpt><trkpt lat="40.416531040110506" lon="20.00180963961879"><ele>540.0</ele><time>2026-04-27T13:03:42.999Z</time></trkpt><trkpt lat="40.41645636949113" lon="20.001815147328024"><ele>537.0</ele><time>2026-04-27T13:03:43.999Z</time></trkpt><trkpt lat="40.4163820033114" lon="20.001820632573164"><ele>535.0</ele><time>2026-04-27T13:03:44.999Z</time></trkpt><trkpt lat="40.4162999381012" lon="20.001826306921"><ele>533.0</ele><time>2026-04-27T13:03:45.999Z</time></trkpt><trkpt lat="40.416211023188325" lon="20.00183269460287"><ele>531.0</ele><time>2026-04-27T13:03:46.999Z</time></trkpt><trkpt lat="40.41611102951982" lon="20.00184011873471"><ele>529.0</ele><time>2026-04-27T13:03:47.999Z</time></trkpt><trkpt lat="40.41601571530268" lon="20.00184719553444"><ele>527.0</ele><time>2026-04-27T13:03:48.999Z</time></trkpt><trkpt lat="40.41591031860823" lon="20.001864735265364"><ele>527.0</ele><time>2026-04-27T13:03:49.999Z</time></trkpt><trkpt lat="40.41579608487444" lon="20.00185698231987"><ele>527.0</ele><time>2026-04-27T13:03:50.999Z</time></trkpt><trkpt lat="40.41568419620921" lon="20.001864345257516"><ele>527.0</ele><time>2026-04-27T13:03:51.999Z</time></trkpt><trkpt lat="40.415572525807384" lon="20.00189041665665"><ele>527.0</ele><time>2026-04-27T13:03:52.999Z</time></trkpt><trkpt lat="40.415470113042" lon="20.001888179800446"><ele>527.0</ele><time>2026-04-27T13:03:53.999Z</time></trkpt><trkpt lat="40.41537825433494" lon="20.001916682767508"><ele>526.8000000000001</ele><time>2026-04-27T13:03:54.999Z</time></trkpt><trkpt lat="40.41528694808304" lon="20.0019257134665"><ele>526.6</ele><time>2026-04-27T13:03:55.999Z</time></trkpt><trkpt lat="40.41519903577345" lon="20.001958582778002"><ele>526.4000000000001</ele><time>2026-04-27T13:03:56.999Z</time></trkpt><trkpt lat="40.41510480244898" lon="20.00200414354277"><ele>526.2</ele><time>2026-04-27T13:03:57.999Z</time></trkpt><trkpt lat="40.41500735404859" lon="20.002060849609805"><ele>526.0</ele><time>2026-04-27T13:03:58.999Z</time></trkpt><trkpt lat="40.414892978877354" lon="20.00212216548849"><ele>526.0</ele><time>2026-04-27T13:03:59.999Z</time></trkpt><trkpt lat="40.414768064284885" lon="20.002180260502264"><ele>526.0</ele><time>2026-04-27T13:04:00.999Z</time></trkpt><trkpt lat="40.414640365527745" lon="20.002234866686884"><ele>526.0</ele><time>2026-04-27T13:04:01.999Z</time></trkpt><trkpt lat="40.41451941492179" lon="20.002292982890776"><ele>526.0</ele><time>2026-04-27T13:04:02.999Z</time></trkpt><trkpt lat="40.414420649947765" lon="20.00234655923468"><ele>526.4</ele><time>2026-04-27T13:04:03.999Z</time></trkpt><trkpt lat="40.41433993675825" lon="20.0023982922674"><ele>526.8</ele><time>2026-04-27T13:04:04.999Z</time></trkpt><trkpt lat="40.41425665652923" lon="20.002457710064036"><ele>527.1999999999999</ele><time>2026-04-27T13:04:05.999Z</time></trkpt><trkpt lat="40.41415610422493" lon="20.002528244747506"><ele>527.6</ele><time>2026-04-27T13:04:06.999Z</time></trkpt><trkpt lat="40.41405705986322" lon="20.00260185817937"><ele>528.0</ele><time>2026-04-27T13:04:07.999Z</time></trkpt><trkpt lat="40.41397062815487" lon="20.002668597242657"><ele>526.3333333333334</ele><time>2026-04-27T13:04:08.999Z</time></trkpt><trkpt lat="40.4138827789389" lon="20.002727476914167"><ele>524.6666666666666</ele><time>2026-04-27T13:04:09.999Z</time></trkpt><trkpt lat="40.41379548566673" lon="20.002787370754728"><ele>523.0</ele><time>2026-04-27T13:04:10.999Z</time></trkpt><trkpt lat="40.41371714155494" lon="20.00284178691474"><ele>521.3333333333333</ele><time>2026-04-27T13:04:11.999Z</time></trkpt><trkpt lat="40.41364471199915" lon="20.002886279561572"><ele>519.6666666666666</ele><time>2026-04-27T13:04:12.999Z</time></trkpt><trkpt lat="40.413564377164256" lon="20.00291102660234"><ele>518.0</ele><time>2026-04-27T13:04:13.999Z</time></trkpt><trkpt lat="40.41348208041805" lon="20.002973864871052"><ele>517.1999999999999</ele><time>2026-04-27T13:04:14.999Z</time></trkpt><trkpt lat="40.41337491659977" lon="20.003022923923183"><ele>516.4</ele><time>2026-04-27T13:04:15.999Z</time></trkpt><trkpt lat="40.413274044527604" lon="20.003076658430388"><ele>515.5999999999999</ele><time>2026-04-27T13:04:16.999Z</time></trkpt><trkpt lat="40.41318343922145" lon="20.00312498380056"><ele>514.8</ele><time>2026-04-27T13:04:17.999Z</time></trkpt><trkpt lat="40.413103216354926" lon="20.003167566053175"><ele>514.0</ele><time>2026-04-27T13:04:18.999Z</time></trkpt><trkpt lat="40.413018873129886" lon="20.003195427042776"><ele>511.00000000000006</ele><time>2026-04-27T13:04:19.999Z</time></trkpt><trkpt lat="40.41294305196721" lon="20.003234926353763"><ele>508.0</ele><time>2026-04-27T13:04:20.999Z</time></trkpt><trkpt lat="40.412866172202435" lon="20.0032729306152"><ele>505.0</ele><time>2026-04-27T13:04:21.999Z</time></trkpt><trkpt lat="40.412789095370464" lon="20.00330342415751"><ele>502.0</ele><time>2026-04-27T13:04:22.999Z</time></trkpt><trkpt lat="40.412703043061434" lon="20.00331996652708"><ele>499.00000000000006</ele><time>2026-04-27T13:04:23.999Z</time></trkpt><trkpt lat="40.41262052850074" lon="20.003313723920947"><ele>496.0</ele><time>2026-04-27T13:04:24.999Z</time></trkpt><trkpt lat="40.41254366409344" lon="20.00330445923271"><ele>496.0</ele><time>2026-04-27T13:04:25.999Z</time></trkpt><trkpt lat="40.41248493861941" lon="20.003247654045136"><ele>496.0</ele><time>2026-04-27T13:04:26.999Z</time></trkpt><trkpt lat="40.412437556074075" lon="20.003163367003005"><ele>496.0</ele><time>2026-04-27T13:04:27.999Z</time></trkpt><trkpt lat="40.41235846351981" lon="20.00307636325898"><ele>496.0</ele><time>2026-04-27T13:04:29.999Z</time></trkpt><trkpt lat="40.41227586913408" lon="20.00306996297618"><ele>496.0</ele><time>2026-04-27T13:04:30.999Z</time></trkpt><trkpt lat="40.412177489157614" lon="20.00319156001895"><ele>492.0</ele><time>2026-04-27T13:04:31.999Z</time></trkpt><trkpt lat="40.41208778238761" lon="20.003294195700725"><ele>488.0</ele><time>2026-04-27T13:04:32.999Z</time></trkpt><trkpt lat="40.41197098241951" lon="20.00336697759658"><ele>484.0</ele><time>2026-04-27T13:04:33.999Z</time></trkpt><trkpt lat="40.41186848572396" lon="20.003440430569125"><ele>480.0</ele><time>2026-04-27T13:04:34.999Z</time></trkpt><trkpt lat="40.41178150209671" lon="20.00352007269889"><ele>480.0</ele><time>2026-04-27T13:04:35.999Z</time></trkpt><trkpt lat="40.41168326401126" lon="20.003577275527235"><ele>480.0</ele><time>2026-04-27T13:04:36.999Z</time></trkpt><trkpt lat="40.41157677919106" lon="20.00364413308558"><ele>480.0</ele><time>2026-04-27T13:04:37.999Z</time></trkpt><trkpt lat="40.41146676424422" lon="20.00371659509107"><ele>480.0</ele><time>2026-04-27T13:04:38.999Z</time></trkpt><trkpt lat="40.4113683009183" lon="20.00376971617257"><ele>478.2</ele><time>2026-04-27T13:04:39.999Z</time></trkpt><trkpt lat="40.411280240329646" lon="20.003815362468433"><ele>476.4</ele><time>2026-04-27T13:04:40.999Z</time></trkpt><trkpt lat="40.41120140028723" lon="20.00386735367928"><ele>474.6</ele><time>2026-04-27T13:04:41.999Z</time></trkpt><trkpt lat="40.41112732304141" lon="20.00393006892118"><ele>472.8</ele><time>2026-04-27T13:04:42.999Z</time></trkpt><trkpt lat="40.4110463286797" lon="20.003992263147396"><ele>471.0</ele><time>2026-04-27T13:04:43.999Z</time></trkpt><trkpt lat="40.41099207369845" lon="20.004111814989084"><ele>472.4</ele><time>2026-04-27T13:04:44.999Z</time></trkpt><trkpt lat="40.41094371803335" lon="20.00421700540232"><ele>473.8</ele><time>2026-04-27T13:04:45.999Z</time></trkpt><trkpt lat="40.410917921054434" lon="20.004320607719453"><ele>475.19999999999993</ele><time>2026-04-27T13:04:46.999Z</time></trkpt><trkpt lat="40.410914459474" lon="20.00443767957878"><ele>476.59999999999997</ele><time>2026-04-27T13:04:47.999Z</time></trkpt><trkpt lat="40.410923643188596" lon="20.004567189596976"><ele>478.0</ele><time>2026-04-27T13:04:48.999Z</time></trkpt><trkpt lat="40.410944859872146" lon="20.004710425303145"><ele>478.0</ele><time>2026-04-27T13:04:49.999Z</time></trkpt><trkpt lat="40.41098799985228" lon="20.00485349896281"><ele>478.0</ele><time>2026-04-27T13:04:50.999Z</time></trkpt><trkpt lat="40.41105479549502" lon="20.00499595750346"><ele>478.0</ele><time>2026-04-27T13:04:51.999Z</time></trkpt><trkpt lat="40.411123546450874" lon="20.00513318010914"><ele>478.0</ele><time>2026-04-27T13:04:52.999Z</time></trkpt><trkpt lat="40.411213785826874" lon="20.00522142016541"><ele>478.4</ele><time>2026-04-27T13:04:53.999Z</time></trkpt><trkpt lat="40.41128973244293" lon="20.005314568485826"><ele>478.79999999999995</ele><time>2026-04-27T13:04:54.999Z</time></trkpt><trkpt lat="40.41136460725422" lon="20.005388704195116"><ele>479.2</ele><time>2026-04-27T13:04:55.999Z</time></trkpt><trkpt lat="40.41143473028139" lon="20.005464640532917"><ele>479.6</ele><time>2026-04-27T13:04:56.999Z</time></trkpt><trkpt lat="40.41151972934026" lon="20.00551043364451"><ele>480.0</ele><time>2026-04-27T13:04:57.999Z</time></trkpt><trkpt lat="40.41158736255228" lon="20.005546142046047"><ele>480.0</ele><time>2026-04-27T13:04:58.999Z</time></trkpt><trkpt lat="40.41165860874679" lon="20.005571056937217"><ele>480.0</ele><time>2026-04-27T13:04:59.999Z</time></trkpt><trkpt lat="40.41177516508281" lon="20.00557265246377"><ele>480.0</ele><time>2026-04-27T13:05:01.999Z</time></trkpt><trkpt lat="40.41180605958416" lon="20.005669032798576"><ele>480.0</ele><time>2026-04-27T13:05:03.999Z</time></trkpt><trkpt lat="40.41174764530432" lon="20.00580953471199"><ele>480.0</ele><time>2026-04-27T13:05:04.999Z</time></trkpt><trkpt lat="40.4116567778099" lon="20.00587572704734"><ele>477.6666666666667</ele><time>2026-04-27T13:05:05.999Z</time></trkpt><trkpt lat="40.41156576711076" lon="20.00589914149324"><ele>475.33333333333337</ele><time>2026-04-27T13:05:06.999Z</time></trkpt><trkpt lat="40.41149438911736" lon="20.00589995427293"><ele>473.0</ele><time>2026-04-27T13:05:07.999Z</time></trkpt><trkpt lat="40.411428865270956" lon="20.005890201298048"><ele>470.6666666666667</ele><time>2026-04-27T13:05:08.999Z</time></trkpt><trkpt lat="40.4113465173962" lon="20.005875730213354"><ele>468.33333333333337</ele><time>2026-04-27T13:05:09.999Z</time></trkpt><trkpt lat="40.4112567746765" lon="20.005866239029558"><ele>466.0</ele><time>2026-04-27T13:05:10.999Z</time></trkpt><trkpt lat="40.41115584012612" lon="20.005863226029554"><ele>465.6</ele><time>2026-04-27T13:05:11.999Z</time></trkpt><trkpt lat="40.411049106471346" lon="20.005853354928586"><ele>465.20000000000005</ele><time>2026-04-27T13:05:12.999Z</time></trkpt><trkpt lat="40.41094094469547" lon="20.005834216289273"><ele>464.79999999999995</ele><time>2026-04-27T13:05:13.999Z</time></trkpt><trkpt lat="40.41083953617591" lon="20.00581845561531"><ele>464.4</ele><time>2026-04-27T13:05:15Z</time></trkpt><trkpt lat="40.41074140727213" lon="20.005793150845513"><ele>464.0</ele><time>2026-04-27T13:05:16Z</time></trkpt><trkpt lat="40.41064676838055" lon="20.005764533805547"><ele>463.75</ele><time>2026-04-27T13:05:17Z</time></trkpt><trkpt lat="40.41053123291843" lon="20.005747408843217"><ele>463.5</ele><time>2026-04-27T13:05:18Z</time></trkpt><trkpt lat="40.41040457351431" lon="20.005736038423006"><ele>463.25</ele><time>2026-04-27T13:05:19Z</time></trkpt><trkpt lat="40.41028027749737" lon="20.00572662811337"><ele>463.0</ele><time>2026-04-27T13:05:20Z</time></trkpt><trkpt lat="40.41017479619284" lon="20.00571740541657"><ele>463.00000000000006</ele><time>2026-04-27T13:05:21Z</time></trkpt><trkpt lat="40.41008527129175" lon="20.005723994153325"><ele>463.0</ele><time>2026-04-27T13:05:22Z</time></trkpt><trkpt lat="40.410008868553646" lon="20.005738581672485"><ele>463.0</ele><time>2026-04-27T13:05:23Z</time></trkpt><trkpt lat="40.40993673622332" lon="20.00575104956393"><ele>463.0</ele><time>2026-04-27T13:05:24Z</time></trkpt><trkpt lat="40.4098647998286" lon="20.005721844754436"><ele>463.00000000000006</ele><time>2026-04-27T13:05:25Z</time></trkpt><trkpt lat="40.40978068063396" lon="20.005712598716833"><ele>463.0</ele><time>2026-04-27T13:05:26Z</time></trkpt><trkpt lat="40.40969330270093" lon="20.005702579199998"><ele>461.2</ele><time>2026-04-27T13:05:27Z</time></trkpt><trkpt lat="40.409612020538916" lon="20.005693258684065"><ele>459.4</ele><time>2026-04-27T13:05:28Z</time></trkpt><trkpt lat="40.40951884370424" lon="20.005648657289296"><ele>457.59999999999997</ele><time>2026-04-27T13:05:29Z</time></trkpt><trkpt lat="40.40941792288765" lon="20.005568333694864"><ele>455.79999999999995</ele><time>2026-04-27T13:05:30Z</time></trkpt><trkpt lat="40.40930624369024" lon="20.00548792211377"><ele>454.0</ele><time>2026-04-27T13:05:31Z</time></trkpt><trkpt lat="40.40919110456059" lon="20.005432956330434"><ele>454.0</ele><time>2026-04-27T13:05:32Z</time></trkpt><trkpt lat="40.409083207898995" lon="20.00540063760265"><ele>454.0</ele><time>2026-04-27T13:05:33Z</time></trkpt><trkpt lat="40.408978673945875" lon="20.005373047571354"><ele>454.0</ele><time>2026-04-27T13:05:33.999Z</time></trkpt><trkpt lat="40.40887519931914" lon="20.00534620047795"><ele>454.0</ele><time>2026-04-27T13:05:34.999Z</time></trkpt><trkpt lat="40.40877910697453" lon="20.00532557066276"><ele>454.0</ele><time>2026-04-27T13:05:35.999Z</time></trkpt><trkpt lat="40.40868698174438" lon="20.005293589973785"><ele>451.4</ele><time>2026-04-27T13:05:36.999Z</time></trkpt><trkpt lat="40.408612339378735" lon="20.00522027684368"><ele>448.79999999999995</ele><time>2026-04-27T13:05:37.999Z</time></trkpt><trkpt lat="40.40854940782824" lon="20.00514313977639"><ele>446.20000000000005</ele><time>2026-04-27T13:05:38.999Z</time></trkpt><trkpt lat="40.40848338703014" lon="20.005042008961215"><ele>443.6</ele><time>2026-04-27T13:05:39.999Z</time></trkpt><trkpt lat="40.40840165437059" lon="20.00495195460078"><ele>441.0</ele><time>2026-04-27T13:05:40.999Z</time></trkpt><trkpt lat="40.40834382567066" lon="20.00486462542453"><ele>440.6</ele><time>2026-04-27T13:05:41.999Z</time></trkpt><trkpt lat="40.40826880143894" lon="20.004811991138265"><ele>440.20000000000005</ele><time>2026-04-27T13:05:42.999Z</time></trkpt><trkpt lat="40.408181454254176" lon="20.004783221425335"><ele>439.79999999999995</ele><time>2026-04-27T13:05:43.999Z</time></trkpt><trkpt lat="40.40810199309071" lon="20.00475274613675"><ele>439.4</ele><time>2026-04-27T13:05:44.999Z</time></trkpt><trkpt lat="40.408000325032035" lon="20.004777536093233"><ele>439.0</ele><time>2026-04-27T13:05:45.999Z</time></trkpt><trkpt lat="40.40789939672001" lon="20.004780980131503"><ele>437.4</ele><time>2026-04-27T13:05:46.999Z</time></trkpt><trkpt lat="40.40779708651515" lon="20.004788115362114"><ele>435.79999999999995</ele><time>2026-04-27T13:05:47.999Z</time></trkpt><trkpt lat="40.40768738417943" lon="20.004800463557963"><ele>434.20000000000005</ele><time>2026-04-27T13:05:48.999Z</time></trkpt><trkpt lat="40.40758428417905" lon="20.004823736791366"><ele>432.6</ele><time>2026-04-27T13:05:49.999Z</time></trkpt><trkpt lat="40.40749910854603" lon="20.00485024167476"><ele>431.0</ele><time>2026-04-27T13:05:50.999Z</time></trkpt><trkpt lat="40.40741636333895" lon="20.004864987594928"><ele>431.0</ele><time>2026-04-27T13:05:51.999Z</time></trkpt><trkpt lat="40.40732994784737" lon="20.004858593181552"><ele>431.0</ele><time>2026-04-27T13:05:52.999Z</time></trkpt><trkpt lat="40.407236016878386" lon="20.004815183977737"><ele>431.0</ele><time>2026-04-27T13:05:53.999Z</time></trkpt><trkpt lat="40.407133553987194" lon="20.004796529627136"><ele>431.0</ele><time>2026-04-27T13:05:54.999Z</time></trkpt><trkpt lat="40.40704786388987" lon="20.004758444318405"><ele>431.0</ele><time>2026-04-27T13:05:55.999Z</time></trkpt><trkpt lat="40.40697675147057" lon="20.004722799361243"><ele>427.20000000000005</ele><time>2026-04-27T13:05:56.999Z</time></trkpt><trkpt lat="40.40693745633486" lon="20.00463201072684"><ele>423.40000000000003</ele><time>2026-04-27T13:05:57.999Z</time></trkpt><trkpt lat="40.4069041772472" lon="20.00451284303342"><ele>419.6</ele><time>2026-04-27T13:05:58.999Z</time></trkpt><trkpt lat="40.406829519287314" lon="20.004369249974804"><ele>415.8</ele><time>2026-04-27T13:05:59.999Z</time></trkpt><trkpt lat="40.40677332980073" lon="20.004225230017084"><ele>412.0</ele><time>2026-04-27T13:06:00.999Z</time></trkpt><trkpt lat="40.40674120198454" lon="20.00409189938478"><ele>411.33333333333337</ele><time>2026-04-27T13:06:01.999Z</time></trkpt><trkpt lat="40.4067170464363" lon="20.00397725217121"><ele>410.6666666666667</ele><time>2026-04-27T13:06:02.999Z</time></trkpt><trkpt lat="40.40669089657312" lon="20.00387173670698"><ele>410.0</ele><time>2026-04-27T13:06:03.999Z</time></trkpt><trkpt lat="40.4067031200735" lon="20.00377751995312"><ele>409.33333333333337</ele><time>2026-04-27T13:06:04.999Z</time></trkpt><trkpt lat="40.40672716173062" lon="20.00360768572012"><ele>408.6666666666667</ele><time>2026-04-27T13:06:06.999Z</time></trkpt><trkpt lat="40.406746845600175" lon="20.00352242631029"><ele>408.0</ele><time>2026-04-27T13:06:07.999Z</time></trkpt><trkpt lat="40.40677671212964" lon="20.003448097044956"><ele>408.0</ele><time>2026-04-27T13:06:08.999Z</time></trkpt><trkpt lat="40.406836415431215" lon="20.003380327144054"><ele>408.0</ele><time>2026-04-27T13:06:09.999Z</time></trkpt><trkpt lat="40.40692665965597" lon="20.003321579212216"><ele>408.0</ele><time>2026-04-27T13:06:10.999Z</time></trkpt><trkpt lat="40.40702938934608" lon="20.003262556472563"><ele>408.0</ele><time>2026-04-27T13:06:11.999Z</time></trkpt><trkpt lat="40.407123833529994" lon="20.003205824373175"><ele>408.0</ele><time>2026-04-27T13:06:12.999Z</time></trkpt><trkpt lat="40.40719230215751" lon="20.003136129151027"><ele>407.0</ele><time>2026-04-27T13:06:13.999Z</time></trkpt><trkpt lat="40.407262055657604" lon="20.00308292384107"><ele>406.0</ele><time>2026-04-27T13:06:14.999Z</time></trkpt><trkpt lat="40.40731518203571" lon="20.003018068666282"><ele>405.0</ele><time>2026-04-27T13:06:15.999Z</time></trkpt><trkpt lat="40.40735117014724" lon="20.002881424028843"><ele>404.0</ele><time>2026-04-27T13:06:18Z</time></trkpt><trkpt lat="40.407297316053096" lon="20.002764660891437"><ele>403.0</ele><time>2026-04-27T13:06:20Z</time></trkpt><trkpt lat="40.40723362208378" lon="20.002737475918366"><ele>402.0</ele><time>2026-04-27T13:06:21Z</time></trkpt><trkpt lat="40.407151087890924" lon="20.002732034892713"><ele>401.0</ele><time>2026-04-27T13:06:22Z</time></trkpt><trkpt lat="40.40704852904302" lon="20.002687020565016"><ele>400.0</ele><time>2026-04-27T13:06:23Z</time></trkpt><trkpt lat="40.406963271877565" lon="20.00265397173022"><ele>399.0</ele><time>2026-04-27T13:06:24Z</time></trkpt><trkpt lat="40.40690438665203" lon="20.002560217501497"><ele>398.0</ele><time>2026-04-27T13:06:25Z</time></trkpt><trkpt lat="40.40683895394924" lon="20.00245818013825"><ele>397.0</ele><time>2026-04-27T13:06:26Z</time></trkpt><trkpt lat="40.40676384210936" lon="20.002359974120534"><ele>393.00000000000006</ele><time>2026-04-27T13:06:27Z</time></trkpt><trkpt lat="40.406687219036385" lon="20.00230491259542"><ele>389.0</ele><time>2026-04-27T13:06:28Z</time></trkpt><trkpt lat="40.406609320916324" lon="20.002243599788684"><ele>385.0</ele><time>2026-04-27T13:06:29Z</time></trkpt><trkpt lat="40.406534456521825" lon="20.002218016340045"><ele>381.0</ele><time>2026-04-27T13:06:30Z</time></trkpt><trkpt lat="40.40645194458836" lon="20.002230580870098"><ele>377.0</ele><time>2026-04-27T13:06:31Z</time></trkpt><trkpt lat="40.406351293978545" lon="20.00225867111008"><ele>373.0</ele><time>2026-04-27T13:06:32Z</time></trkpt><trkpt lat="40.40625381815226" lon="20.002281052049593"><ele>371.66666666666663</ele><time>2026-04-27T13:06:33Z</time></trkpt><trkpt lat="40.40617744136943" lon="20.002288373478667"><ele>370.3333333333333</ele><time>2026-04-27T13:06:34Z</time></trkpt><trkpt lat="40.40608628479352" lon="20.002225658194384"><ele>369.0</ele><time>2026-04-27T13:06:36Z</time></trkpt><trkpt lat="40.40603283720851" lon="20.00212532036953"><ele>367.6666666666667</ele><time>2026-04-27T13:06:38Z</time></trkpt><trkpt lat="40.40605988023275" lon="20.00204511780838"><ele>366.33333333333337</ele><time>2026-04-27T13:06:39Z</time></trkpt><trkpt lat="40.40614992575486" lon="20.00202722841689"><ele>365.0</ele><time>2026-04-27T13:06:40Z</time></trkpt><trkpt lat="40.40622137333926" lon="20.002075662019465"><ele>365.0</ele><time>2026-04-27T13:06:41Z</time></trkpt><trkpt lat="40.4062942854501" lon="20.002051115420013"><ele>365.0</ele><time>2026-04-27T13:06:42Z</time></trkpt><trkpt lat="40.40637899426359" lon="20.002037399325342"><ele>365.0</ele><time>2026-04-27T13:06:43Z</time></trkpt><trkpt lat="40.406456126699894" lon="20.002024910081953"><ele>365.0</ele><time>2026-04-27T13:06:44Z</time></trkpt><trkpt lat="40.4065198807505" lon="20.002014587042616"><ele>365.0</ele><time>2026-04-27T13:06:45Z</time></trkpt><trkpt lat="40.40662842890324" lon="20.00200718444764"><ele>365.0</ele><time>2026-04-27T13:06:47Z</time></trkpt><trkpt lat="40.40674422333412" lon="20.002010588353084"><ele>366.6</ele><time>2026-04-27T13:06:49Z</time></trkpt><trkpt lat="40.40685735491564" lon="20.00201510100116"><ele>368.2</ele><time>2026-04-27T13:06:51Z</time></trkpt><trkpt lat="40.40697393408095" lon="20.002046925623983"><ele>369.79999999999995</ele><time>2026-04-27T13:06:53Z</time></trkpt><trkpt lat="40.407041313904216" lon="20.002043960971733"><ele>371.4</ele><time>2026-04-27T13:06:54Z</time></trkpt><trkpt lat="40.407115127640445" lon="20.00201341698377"><ele>373.0</ele><time>2026-04-27T13:06:55Z</time></trkpt><trkpt lat="40.407178552621964" lon="20.001954695178107"><ele>371.66666666666663</ele><time>2026-04-27T13:06:56Z</time></trkpt><trkpt lat="40.407241525054054" lon="20.001885394460906"><ele>370.3333333333333</ele><time>2026-04-27T13:06:57Z</time></trkpt><trkpt lat="40.40729934957267" lon="20.001798354973108"><ele>369.0</ele><time>2026-04-27T13:06:58Z</time></trkpt><trkpt lat="40.407353288940726" lon="20.001704054991574"><ele>367.6666666666667</ele><time>2026-04-27T13:06:59Z</time></trkpt><trkpt lat="40.40740896578514" lon="20.001606707973814"><ele>366.33333333333337</ele><time>2026-04-27T13:07:00Z</time></trkpt><trkpt lat="40.40747342032146" lon="20.00151206989651"><ele>365.0</ele><time>2026-04-27T13:07:01Z</time></trkpt><trkpt lat="40.40753329141357" lon="20.00141660940422"><ele>365.0</ele><time>2026-04-27T13:07:02Z</time></trkpt><trkpt lat="40.407596478685015" lon="20.00133315399346"><ele>365.0</ele><time>2026-04-27T13:07:03Z</time></trkpt><trkpt lat="40.407647650604716" lon="20.001240230762622"><ele>365.0</ele><time>2026-04-27T13:07:04Z</time></trkpt><trkpt lat="40.40768991145796" lon="20.00112759534119"><ele>365.0</ele><time>2026-04-27T13:07:05Z</time></trkpt><trkpt lat="40.40773181195377" lon="20.00100761109917"><ele>365.0</ele><time>2026-04-27T13:07:06Z</time></trkpt><trkpt lat="40.407771998986945" lon="20.000887478030087"><ele>362.5</ele><time>2026-04-27T13:07:07Z</time></trkpt><trkpt lat="40.40781500136205" lon="20.000780516034617"><ele>360.0</ele><time>2026-04-27T13:07:08Z</time></trkpt><trkpt lat="40.40785673505326" lon="20.000687263494097"><ele>357.5</ele><time>2026-04-27T13:07:09Z</time></trkpt><trkpt lat="40.407896994840335" lon="20.00060403239535"><ele>355.0</ele><time>2026-04-27T13:07:10Z</time></trkpt><trkpt lat="40.407934001294166" lon="20.000535803531534"><ele>352.5</ele><time>2026-04-27T13:07:11Z</time></trkpt><trkpt lat="40.40794270250839" lon="20.000423256644236"><ele>350.0</ele><time>2026-04-27T13:07:13Z</time></trkpt><trkpt lat="40.407831782481054" lon="20.00037101660776"><ele>350.0</ele><time>2026-04-27T13:07:15Z</time></trkpt><trkpt lat="40.407755500369554" lon="20.00050407382171"><ele>350.0</ele><time>2026-04-27T13:07:17Z</time></trkpt><trkpt lat="40.4077027060239" lon="20.000573677108935"><ele>350.0</ele><time>2026-04-27T13:07:18Z</time></trkpt><trkpt lat="40.40764551736228" lon="20.000650438748508"><ele>350.0</ele><time>2026-04-27T13:07:19Z</time></trkpt><trkpt lat="40.407582022061355" lon="20.00073487335836"><ele>350.0</ele><time>2026-04-27T13:07:20Z</time></trkpt><trkpt lat="40.407502466706845" lon="20.000797696601225"><ele>349.83333333333337</ele><time>2026-04-27T13:07:21Z</time></trkpt><trkpt lat="40.407421529538446" lon="20.000862057907806"><ele>349.6666666666667</ele><time>2026-04-27T13:07:22Z</time></trkpt><trkpt lat="40.40733846178062" lon="20.000889703088436"><ele>349.5</ele><time>2026-04-27T13:07:23Z</time></trkpt><trkpt lat="40.40724826114257" lon="20.000902027947077"><ele>349.3333333333333</ele><time>2026-04-27T13:07:24Z</time></trkpt><trkpt lat="40.407172615539096" lon="20.000911765393994"><ele>349.16666666666663</ele><time>2026-04-27T13:07:25Z</time></trkpt><trkpt lat="40.4071068180622" lon="20.000994906893872"><ele>349.0</ele><time>2026-04-27T13:07:26Z</time></trkpt><trkpt lat="40.40704852216543" lon="20.001065634721442"><ele>349.0</ele><time>2026-04-27T13:07:27Z</time></trkpt><trkpt lat="40.40700470141954" lon="20.00115101432411"><ele>349.0</ele><time>2026-04-27T13:07:28Z</time></trkpt><trkpt lat="40.40694712753657" lon="20.0012077741371"><ele>349.0</ele><time>2026-04-27T13:07:29Z</time></trkpt><trkpt lat="40.40685416066915" lon="20.001307605788444"><ele>349.0</ele><time>2026-04-27T13:07:31Z</time></trkpt><trkpt lat="40.406786946760434" lon="20.001212638366024"><ele>349.0</ele><time>2026-04-27T13:07:33Z</time></trkpt><trkpt lat="40.406830138870276" lon="20.0010201643785"><ele>349.0</ele><time>2026-04-27T13:07:35Z</time></trkpt><trkpt lat="40.40682944954236" lon="20.00084725544195"><ele>349.0</ele><time>2026-04-27T13:07:36Z</time></trkpt><trkpt lat="40.40683503830399" lon="20.000713496708762"><ele>349.0</ele><time>2026-04-27T13:07:37Z</time></trkpt><trkpt lat="40.40684075684657" lon="20.000592668570263"><ele>349.0</ele><time>2026-04-27T13:07:38Z</time></trkpt><trkpt lat="40.40684171225023" lon="20.00045174664392"><ele>349.0</ele><time>2026-04-27T13:07:39Z</time></trkpt><trkpt lat="40.40685183594451" lon="20.000296077649992"><ele>346.8333333333333</ele><time>2026-04-27T13:07:39.999Z</time></trkpt><trkpt lat="40.40684735178624" lon="20.00014859330358"><ele>344.66666666666663</ele><time>2026-04-27T13:07:40.999Z</time></trkpt><trkpt lat="40.40685562485602" lon="20.000022922765627"><ele>342.5</ele><time>2026-04-27T13:07:41.999Z</time></trkpt><trkpt lat="40.40686770155234" lon="19.99992541309078"><ele>340.3333333333333</ele><time>2026-04-27T13:07:42.999Z</time></trkpt><trkpt lat="40.406873981861814" lon="19.999838390245458"><ele>338.1666666666667</ele><time>2026-04-27T13:07:43.999Z</time></trkpt><trkpt lat="40.406854442866404" lon="19.999748659161934"><ele>336.0</ele><time>2026-04-27T13:07:44.999Z</time></trkpt><trkpt lat="40.4068067004668" lon="19.999671182243425"><ele>336.0</ele><time>2026-04-27T13:07:45.999Z</time></trkpt><trkpt lat="40.40673651478196" lon="19.999630992319283"><ele>336.0</ele><time>2026-04-27T13:07:46.999Z</time></trkpt><trkpt lat="40.40665577389392" lon="19.999599428451674"><ele>336.0</ele><time>2026-04-27T13:07:47.999Z</time></trkpt><trkpt lat="40.406560273095586" lon="19.999650506579535"><ele>336.0</ele><time>2026-04-27T13:07:48.999Z</time></trkpt><trkpt lat="40.40649375016868" lon="19.999707053719355"><ele>336.0</ele><time>2026-04-27T13:07:49.999Z</time></trkpt><trkpt lat="40.40643790255344" lon="19.999763792572672"><ele>336.0</ele><time>2026-04-27T13:07:51.999Z</time></trkpt><trkpt lat="40.40638893761056" lon="19.99983844581679"><ele>336.0</ele><time>2026-04-27T13:08:06.999Z</time></trkpt><trkpt lat="40.40634721611969" lon="19.99991305378604"><ele>336.0</ele><time>2026-04-27T13:08:09.999Z</time></trkpt><trkpt lat="40.40630450848397" lon="20.000031963732333"><ele>336.0</ele><time>2026-04-27T13:08:13Z</time></trkpt><trkpt lat="40.40628408864705" lon="20.000207560363332"><ele>336.0</ele><time>2026-04-27T13:08:15Z</time></trkpt><trkpt lat="40.406266231558554" lon="20.00031434761856"><ele>336.0</ele><time>2026-04-27T13:08:16Z</time></trkpt><trkpt lat="40.40623818785745" lon="20.000419380737"><ele>332.6666666666667</ele><time>2026-04-27T13:08:17Z</time></trkpt><trkpt lat="40.4062375472232" lon="20.000511351528463"><ele>329.3333333333333</ele><time>2026-04-27T13:08:18Z</time></trkpt><trkpt lat="40.40616886039358" lon="20.000629850248806"><ele>326.0</ele><time>2026-04-27T13:08:20Z</time></trkpt><trkpt lat="40.40606479406656" lon="20.000624612334093"><ele>322.66666666666663</ele><time>2026-04-27T13:08:22Z</time></trkpt><trkpt lat="40.4060381505144" lon="20.000549705139207"><ele>319.3333333333333</ele><time>2026-04-27T13:08:23Z</time></trkpt><trkpt lat="40.40609005942972" lon="20.00044767887301"><ele>316.0</ele><time>2026-04-27T13:08:24Z</time></trkpt><trkpt lat="40.40608148496465" lon="20.000313924126655"><ele>316.0</ele><time>2026-04-27T13:08:25Z</time></trkpt><trkpt lat="40.406088364905465" lon="20.000156456594542"><ele>316.0</ele><time>2026-04-27T13:08:26Z</time></trkpt><trkpt lat="40.40605580964728" lon="19.999995196134385"><ele>316.0</ele><time>2026-04-27T13:08:27Z</time></trkpt><trkpt lat="40.406012583524685" lon="19.999859587865323"><ele>316.0</ele><time>2026-04-27T13:08:28Z</time></trkpt><trkpt lat="40.40596575845333" lon="19.999721933714174"><ele>316.0</ele><time>2026-04-27T13:08:29Z</time></trkpt><trkpt lat="40.40593328228137" lon="19.99958956536407"><ele>316.0</ele><time>2026-04-27T13:08:30Z</time></trkpt><trkpt lat="40.405942730947885" lon="19.99946273245778"><ele>316.0</ele><time>2026-04-27T13:08:31Z</time></trkpt><trkpt lat="40.4059828382253" lon="19.999362628306887"><ele>316.0</ele><time>2026-04-27T13:08:32Z</time></trkpt><trkpt lat="40.40603461132219" lon="19.999267691325826"><ele>316.0</ele><time>2026-04-27T13:08:33Z</time></trkpt><trkpt lat="40.40610568170703" lon="19.999170833372183"><ele>316.6</ele><time>2026-04-27T13:08:34Z</time></trkpt><trkpt lat="40.40618877425099" lon="19.999071762895717"><ele>317.20000000000005</ele><time>2026-04-27T13:08:35Z</time></trkpt><trkpt lat="40.406282577251844" lon="19.998985427415597"><ele>317.79999999999995</ele><time>2026-04-27T13:08:36Z</time></trkpt><trkpt lat="40.40637828632089" lon="19.998923284718003"><ele>318.4</ele><time>2026-04-27T13:08:37Z</time></trkpt><trkpt lat="40.40647270483616" lon="19.998886846191276"><ele>319.0</ele><time>2026-04-27T13:08:38Z</time></trkpt><trkpt lat="40.406566483881775" lon="19.998877679466414"><ele>319.0</ele><time>2026-04-27T13:08:39Z</time></trkpt><trkpt lat="40.406652834792254" lon="19.998859622498987"><ele>319.0</ele><time>2026-04-27T13:08:40Z</time></trkpt><trkpt lat="40.40675412572004" lon="19.99878853237516"><ele>319.0</ele><time>2026-04-27T13:08:42Z</time></trkpt><trkpt lat="40.406768956848396" lon="19.99870407636099"><ele>319.0</ele><time>2026-04-27T13:08:43Z</time></trkpt><trkpt lat="40.40674374263128" lon="19.99862334224763"><ele>319.0</ele><time>2026-04-27T13:08:44Z</time></trkpt><trkpt lat="40.406648346381935" lon="19.99860218758178"><ele>319.0</ele><time>2026-04-27T13:08:45Z</time></trkpt><trkpt lat="40.40658368616111" lon="19.99860783991037"><ele>319.0</ele><time>2026-04-27T13:08:46Z</time></trkpt><trkpt lat="40.406519374670395" lon="19.99863280921135"><ele>319.0</ele><time>2026-04-27T13:08:47Z</time></trkpt><trkpt lat="40.40643650859039" lon="19.99865938280332"><ele>319.0</ele><time>2026-04-27T13:08:48Z</time></trkpt><trkpt lat="40.40633360166786" lon="19.998681913018103"><ele>319.0</ele><time>2026-04-27T13:08:49Z</time></trkpt><trkpt lat="40.40621615882972" lon="19.99871325541416"><ele>319.0</ele><time>2026-04-27T13:08:50Z</time></trkpt><trkpt lat="40.40609308452708" lon="19.998768910374405"><ele>316.2</ele><time>2026-04-27T13:08:51Z</time></trkpt><trkpt lat="40.40597429027826" lon="19.998845541323945"><ele>313.4</ele><time>2026-04-27T13:08:52Z</time></trkpt><trkpt lat="40.40588049963942" lon="19.998921117157597"><ele>310.6</ele><time>2026-04-27T13:08:53Z</time></trkpt><trkpt lat="40.40580205101641" lon="19.998989620309086"><ele>307.8</ele><time>2026-04-27T13:08:54Z</time></trkpt><trkpt lat="40.405732619720574" lon="19.999055424175236"><ele>305.0</ele><time>2026-04-27T13:08:55Z</time></trkpt><trkpt lat="40.40565596127093" lon="19.999134055337294"><ele>303.0</ele><time>2026-04-27T13:08:56Z</time></trkpt><trkpt lat="40.405570399258586" lon="19.99920880136952"><ele>301.0</ele><time>2026-04-27T13:08:57Z</time></trkpt><trkpt lat="40.40546026080083" lon="19.999277264363574"><ele>299.0</ele><time>2026-04-27T13:08:58Z</time></trkpt><trkpt lat="40.405347380724514" lon="19.999325860199043"><ele>297.0</ele><time>2026-04-27T13:08:59Z</time></trkpt><trkpt lat="40.4052506041256" lon="19.999362829190826"><ele>295.0</ele><time>2026-04-27T13:09:00Z</time></trkpt><trkpt lat="40.405167383001306" lon="19.99940139023103"><ele>295.0</ele><time>2026-04-27T13:09:01Z</time></trkpt><trkpt lat="40.405101541992344" lon="19.99945419789166"><ele>295.0</ele><time>2026-04-27T13:09:02Z</time></trkpt><trkpt lat="40.405039224392226" lon="19.999528044708203"><ele>295.0</ele><time>2026-04-27T13:09:03Z</time></trkpt><trkpt lat="40.40498776976576" lon="19.99961729737093"><ele>295.0</ele><time>2026-04-27T13:09:04Z</time></trkpt><trkpt lat="40.40495543284876" lon="19.999711044432033"><ele>295.0</ele><time>2026-04-27T13:09:05Z</time></trkpt><trkpt lat="40.404946004788684" lon="19.999812157592835"><ele>295.0</ele><time>2026-04-27T13:09:06Z</time></trkpt><trkpt lat="40.404949526183074" lon="19.99991034920056"><ele>295.0</ele><time>2026-04-27T13:09:07Z</time></trkpt><trkpt lat="40.40494136330942" lon="20.00000810355238"><ele>295.0</ele><time>2026-04-27T13:09:08Z</time></trkpt><trkpt lat="40.404910800126025" lon="20.000092043545596"><ele>295.0</ele><time>2026-04-27T13:09:09Z</time></trkpt><trkpt lat="40.40484864346481" lon="20.000147514990765"><ele>295.0</ele><time>2026-04-27T13:09:10Z</time></trkpt><trkpt lat="40.40476984800747" lon="20.000175988784925"><ele>295.0</ele><time>2026-04-27T13:09:11Z</time></trkpt><trkpt lat="40.40467039797201" lon="20.00018240732732"><ele>295.0</ele><time>2026-04-27T13:09:12Z</time></trkpt><trkpt lat="40.40456049754135" lon="20.000193807560514"><ele>292.3333333333333</ele><time>2026-04-27T13:09:13Z</time></trkpt><trkpt lat="40.404463642865764" lon="20.000222781836804"><ele>289.66666666666663</ele><time>2026-04-27T13:09:14Z</time></trkpt><trkpt lat="40.40438218299423" lon="20.000246327214345"><ele>287.0</ele><time>2026-04-27T13:09:15Z</time></trkpt><trkpt lat="40.40430124349969" lon="20.00025735188447"><ele>284.3333333333333</ele><time>2026-04-27T13:09:16Z</time></trkpt><trkpt lat="40.40422323515345" lon="20.000253514442676"><ele>281.6666666666667</ele><time>2026-04-27T13:09:17Z</time></trkpt><trkpt lat="40.40415098348826" lon="20.000234151883177"><ele>279.0</ele><time>2026-04-27T13:09:18Z</time></trkpt><trkpt lat="40.40405962137442" lon="20.000154374646023"><ele>279.0</ele><time>2026-04-27T13:09:20Z</time></trkpt><trkpt lat="40.40409032932225" lon="20.00005898913963"><ele>279.0</ele><time>2026-04-27T13:09:21Z</time></trkpt><trkpt lat="40.404157493834006" lon="19.99993849844555"><ele>279.0</ele><time>2026-04-27T13:09:23Z</time></trkpt><trkpt lat="40.404221552806966" lon="19.999833300815382"><ele>279.0</ele><time>2026-04-27T13:09:24Z</time></trkpt><trkpt lat="40.404314289151706" lon="19.999711480061663"><ele>279.0</ele><time>2026-04-27T13:09:25Z</time></trkpt><trkpt lat="40.40440955395264" lon="19.999586372583394"><ele>279.0</ele><time>2026-04-27T13:09:26Z</time></trkpt><trkpt lat="40.40449429241961" lon="19.999488451318385"><ele>279.0</ele><time>2026-04-27T13:09:27Z</time></trkpt><trkpt lat="40.404557573266416" lon="19.999383721230924"><ele>279.0</ele><time>2026-04-27T13:09:28Z</time></trkpt><trkpt lat="40.40463244038944" lon="19.999316011049466"><ele>279.0</ele><time>2026-04-27T13:09:29Z</time></trkpt><trkpt lat="40.40467162349403" lon="19.9991977521412"><ele>279.0</ele><time>2026-04-27T13:09:30Z</time></trkpt><trkpt lat="40.404662878805105" lon="19.999103289553727"><ele>280.3333333333333</ele><time>2026-04-27T13:09:31Z</time></trkpt><trkpt lat="40.404682154064275" lon="19.999013831668833"><ele>281.6666666666667</ele><time>2026-04-27T13:09:32Z</time></trkpt><trkpt lat="40.40469237665557" lon="19.99891561046938"><ele>283.0</ele><time>2026-04-27T13:09:33Z</time></trkpt><trkpt lat="40.40470501044052" lon="19.998810320097114"><ele>284.33333333333337</ele><time>2026-04-27T13:09:34Z</time></trkpt><trkpt lat="40.40472085770396" lon="19.998689010903718"><ele>285.6666666666667</ele><time>2026-04-27T13:09:35Z</time></trkpt><trkpt lat="40.40473968356501" lon="19.998544900721363"><ele>287.0</ele><time>2026-04-27T13:09:36Z</time></trkpt><trkpt lat="40.40475149078541" lon="19.998404652718005"><ele>284.5</ele><time>2026-04-27T13:09:37Z</time></trkpt><trkpt lat="40.404783261698476" lon="19.99824888149139"><ele>282.0</ele><time>2026-04-27T13:09:38Z</time></trkpt><trkpt lat="40.40481448127769" lon="19.998102796798136"><ele>279.5</ele><time>2026-04-27T13:09:39Z</time></trkpt><trkpt lat="40.40486041151187" lon="19.997966879138527"><ele>277.0</ele><time>2026-04-27T13:09:40Z</time></trkpt><trkpt lat="40.40489298998915" lon="19.997817286283404"><ele>277.0</ele><time>2026-04-27T13:09:41Z</time></trkpt><trkpt lat="40.40491523516507" lon="19.99766693698292"><ele>277.0</ele><time>2026-04-27T13:09:42Z</time></trkpt><trkpt lat="40.40497578326019" lon="19.99757368947249"><ele>277.0</ele><time>2026-04-27T13:09:43Z</time></trkpt><trkpt lat="40.40501141000589" lon="19.99750180416558"><ele>277.0</ele><time>2026-04-27T13:09:44Z</time></trkpt><trkpt lat="40.405100576330845" lon="19.997464031987427"><ele>277.0</ele><time>2026-04-27T13:09:45.999Z</time></trkpt><trkpt lat="40.40523630059428" lon="19.997422453904584"><ele>275.3333333333333</ele><time>2026-04-27T13:09:47.999Z</time></trkpt><trkpt lat="40.405306088329404" lon="19.997394632214284"><ele>273.66666666666663</ele><time>2026-04-27T13:09:48.999Z</time></trkpt><trkpt lat="40.405367432582295" lon="19.99736881522838"><ele>272.0</ele><time>2026-04-27T13:09:49.999Z</time></trkpt><trkpt lat="40.40544338974833" lon="19.997278093223766"><ele>270.3333333333333</ele><time>2026-04-27T13:09:51.999Z</time></trkpt><trkpt lat="40.405402828936424" lon="19.99712044416083"><ele>268.6666666666667</ele><time>2026-04-27T13:09:53.999Z</time></trkpt><trkpt lat="40.405324755335144" lon="19.99709809186825"><ele>267.0</ele><time>2026-04-27T13:09:54.999Z</time></trkpt><trkpt lat="40.40525196074199" lon="19.997079698066877"><ele>267.0</ele><time>2026-04-27T13:09:55.999Z</time></trkpt><trkpt lat="40.40516352693789" lon="19.997070700911436"><ele>267.0</ele><time>2026-04-27T13:09:56.999Z</time></trkpt><trkpt lat="40.40506094763781" lon="19.997059831899445"><ele>267.0</ele><time>2026-04-27T13:09:57.999Z</time></trkpt><trkpt lat="40.40496565851341" lon="19.997042091753798"><ele>267.0</ele><time>2026-04-27T13:09:58.999Z</time></trkpt><trkpt lat="40.40487900717481" lon="19.997029561962112"><ele>267.0</ele><time>2026-04-27T13:09:59.999Z</time></trkpt><trkpt lat="40.404795013377445" lon="19.997026645957508"><ele>267.0</ele><time>2026-04-27T13:10:00.999Z</time></trkpt><trkpt lat="40.40471702512857" lon="19.997050771769477"><ele>267.0</ele><time>2026-04-27T13:10:01.999Z</time></trkpt><trkpt lat="40.404633056369974" lon="19.997091627810136"><ele>267.0</ele><time>2026-04-27T13:10:02.999Z</time></trkpt><trkpt lat="40.4045411071943" lon="19.997153154465128"><ele>267.0</ele><time>2026-04-27T13:10:03.999Z</time></trkpt><trkpt lat="40.404444007640066" lon="19.99722513136108"><ele>267.0</ele><time>2026-04-27T13:10:04.999Z</time></trkpt><trkpt lat="40.40434178077504" lon="19.99724488113146"><ele>264.1666666666667</ele><time>2026-04-27T13:10:05.999Z</time></trkpt><trkpt lat="40.40424813211595" lon="19.99727876772547"><ele>261.3333333333333</ele><time>2026-04-27T13:10:06.999Z</time></trkpt><trkpt lat="40.40416023633747" lon="19.997310572654275"><ele>258.5</ele><time>2026-04-27T13:10:07.999Z</time></trkpt><trkpt lat="40.40408246111999" lon="19.9973572460555"><ele>255.66666666666666</ele><time>2026-04-27T13:10:08.999Z</time></trkpt><trkpt lat="40.404000133427054" lon="19.997375306145447"><ele>252.83333333333331</ele><time>2026-04-27T13:10:09.999Z</time></trkpt><trkpt lat="40.40391465432747" lon="19.997396520638116"><ele>250.0</ele><time>2026-04-27T13:10:10.999Z</time></trkpt><trkpt lat="40.4038303113343" lon="19.997430088758005"><ele>248.2</ele><time>2026-04-27T13:10:11.999Z</time></trkpt><trkpt lat="40.403744807845115" lon="19.99749255404452"><ele>246.4</ele><time>2026-04-27T13:10:12.999Z</time></trkpt><trkpt lat="40.40365781881944" lon="19.997581998484076"><ele>244.60000000000002</ele><time>2026-04-27T13:10:13.999Z</time></trkpt><trkpt lat="40.403583868399956" lon="19.997669701458367"><ele>242.8</ele><time>2026-04-27T13:10:14.999Z</time></trkpt><trkpt lat="40.40352173492436" lon="19.997754705614827"><ele>241.0</ele><time>2026-04-27T13:10:16Z</time></trkpt><trkpt lat="40.4034540942201" lon="19.997853602265074"><ele>241.0</ele><time>2026-04-27T13:10:17Z</time></trkpt><trkpt lat="40.40338787644597" lon="19.997976448723048"><ele>241.00000000000003</ele><time>2026-04-27T13:10:18Z</time></trkpt><trkpt lat="40.40333222702856" lon="19.998100037887706"><ele>241.00000000000003</ele><time>2026-04-27T13:10:19Z</time></trkpt><trkpt lat="40.40328249451578" lon="19.998224351706167"><ele>241.0</ele><time>2026-04-27T13:10:20Z</time></trkpt><trkpt lat="40.40323238302775" lon="19.998348948864923"><ele>241.0</ele><time>2026-04-27T13:10:21Z</time></trkpt><trkpt lat="40.40317794124733" lon="19.998472560026684"><ele>242.20000000000002</ele><time>2026-04-27T13:10:22Z</time></trkpt><trkpt lat="40.40311959979127" lon="19.998584616011723"><ele>243.40000000000003</ele><time>2026-04-27T13:10:23Z</time></trkpt><trkpt lat="40.40306769692219" lon="19.998684304388473"><ele>244.6</ele><time>2026-04-27T13:10:24Z</time></trkpt><trkpt lat="40.40303231707361" lon="19.998786534351467"><ele>245.8</ele><time>2026-04-27T13:10:25Z</time></trkpt><trkpt lat="40.4030153015779" lon="19.99890238513862"><ele>247.0</ele><time>2026-04-27T13:10:26Z</time></trkpt><trkpt lat="40.403004937368486" lon="19.999018330099013"><ele>243.83333333333331</ele><time>2026-04-27T13:10:27Z</time></trkpt><trkpt lat="40.40298787307787" lon="19.999130565771154"><ele>240.66666666666666</ele><time>2026-04-27T13:10:28Z</time></trkpt><trkpt lat="40.402965847914196" lon="19.99922708393872"><ele>237.5</ele><time>2026-04-27T13:10:29Z</time></trkpt><trkpt lat="40.40291837252722" lon="19.99932859995506"><ele>234.33333333333331</ele><time>2026-04-27T13:10:31Z</time></trkpt><trkpt lat="40.402843988902156" lon="19.999342756030085"><ele>231.16666666666666</ele><time>2026-04-27T13:10:33.001Z</time></trkpt><trkpt lat="40.40278694672786" lon="19.9992465814601"><ele>228.0</ele><time>2026-04-27T13:10:35.001Z</time></trkpt><trkpt lat="40.402772833076114" lon="19.999091072089055"><ele>227.2</ele><time>2026-04-27T13:10:37.001Z</time></trkpt><trkpt lat="40.40276439556325" lon="19.998990654424254"><ele>226.4</ele><time>2026-04-27T13:10:38.001Z</time></trkpt><trkpt lat="40.40277165649727" lon="19.998867304481163"><ele>225.59999999999997</ele><time>2026-04-27T13:10:39.001Z</time></trkpt><trkpt lat="40.40276752632487" lon="19.99872721401"><ele>224.79999999999998</ele><time>2026-04-27T13:10:40.001Z</time></trkpt><trkpt lat="40.40276301534554" lon="19.99857659528931"><ele>224.0</ele><time>2026-04-27T13:10:41.001Z</time></trkpt><trkpt lat="40.402757410470215" lon="19.99841763736085"><ele>223.79999999999998</ele><time>2026-04-27T13:10:42.001Z</time></trkpt><trkpt lat="40.40272282008884" lon="19.998260579594746"><ele>223.59999999999997</ele><time>2026-04-27T13:10:43.001Z</time></trkpt><trkpt lat="40.40269991863374" lon="19.998119695778133"><ele>223.4</ele><time>2026-04-27T13:10:44.001Z</time></trkpt><trkpt lat="40.40269261779005" lon="19.997988072489026"><ele>223.2</ele><time>2026-04-27T13:10:45.001Z</time></trkpt><trkpt lat="40.40265084049876" lon="19.997877075741947"><ele>223.0</ele><time>2026-04-27T13:10:46.001Z</time></trkpt><trkpt lat="40.40262481500904" lon="19.997762719905285"><ele>222.99999999999997</ele><time>2026-04-27T13:10:47.001Z</time></trkpt><trkpt lat="40.40259074466002" lon="19.99765209197994"><ele>223.0</ele><time>2026-04-27T13:10:48.001Z</time></trkpt><trkpt lat="40.40255585407911" lon="19.9975571824901"><ele>223.0</ele><time>2026-04-27T13:10:49.001Z</time></trkpt><trkpt lat="40.402544608471366" lon="19.997462112543545"><ele>223.0</ele><time>2026-04-27T13:10:50.001Z</time></trkpt><trkpt lat="40.40252082879608" lon="19.997378583024943"><ele>222.99999999999997</ele><time>2026-04-27T13:10:51.001Z</time></trkpt><trkpt lat="40.40249582846613" lon="19.997294099435372"><ele>223.0</ele><time>2026-04-27T13:10:52.001Z</time></trkpt><trkpt lat="40.40247187234615" lon="19.99720927762603"><ele>222.42857142857142</ele><time>2026-04-27T13:10:53.001Z</time></trkpt><trkpt lat="40.402446415223515" lon="19.997124196399813"><ele>221.85714285714283</ele><time>2026-04-27T13:10:54.001Z</time></trkpt><trkpt lat="40.40241789815852" lon="19.99702969949074"><ele>221.28571428571428</ele><time>2026-04-27T13:10:55.001Z</time></trkpt><trkpt lat="40.40238618274631" lon="19.996925713636468"><ele>220.71428571428572</ele><time>2026-04-27T13:10:56.001Z</time></trkpt><trkpt lat="40.40233528888068" lon="19.996856235343213"><ele>220.14285714285714</ele><time>2026-04-27T13:10:57.001Z</time></trkpt><trkpt lat="40.4022786926167" lon="19.996806307768193"><ele>219.57142857142858</ele><time>2026-04-27T13:11:00.001Z</time></trkpt><trkpt lat="40.40222188036427" lon="19.996764975382725"><ele>219.0</ele><time>2026-04-27T13:15:20.001Z</time></trkpt><trkpt lat="40.40216302826968" lon="19.99667851761083"><ele>217.2</ele><time>2026-04-27T13:15:23.001Z</time></trkpt><trkpt lat="40.402126747538794" lon="19.99658813203637"><ele>215.39999999999998</ele><time>2026-04-27T13:15:25.001Z</time></trkpt><trkpt lat="40.40210373180206" lon="19.99648488734005"><ele>213.6</ele><time>2026-04-27T13:15:27.001Z</time></trkpt><trkpt lat="40.40208400296366" lon="19.996368633819273"><ele>211.8</ele><time>2026-04-27T13:15:29.001Z</time></trkpt><trkpt lat="40.40208572145606" lon="19.996210851476437"><ele>210.0</ele><time>2026-04-27T13:15:31.001Z</time></trkpt><trkpt lat="40.40208309395708" lon="19.99605656840147"><ele>210.0</ele><time>2026-04-27T13:15:33.001Z</time></trkpt><trkpt lat="40.402093620998976" lon="19.995902546944393"><ele>210.0</ele><time>2026-04-27T13:15:35.001Z</time></trkpt><trkpt lat="40.40207356295341" lon="19.995739260322313"><ele>210.0</ele><time>2026-04-27T13:15:37.001Z</time></trkpt><trkpt lat="40.40203110531284" lon="19.995594661435845"><ele>210.0</ele><time>2026-04-27T13:15:39.001Z</time></trkpt><trkpt lat="40.40201524215818" lon="19.99545817632164"><ele>210.0</ele><time>2026-04-27T13:15:41.001Z</time></trkpt><trkpt lat="40.40200222469559" lon="19.99536276192865"><ele>210.0</ele><time>2026-04-27T13:15:43.001Z</time></trkpt><trkpt lat="40.40197405032284" lon="19.995257374755877"><ele>210.0</ele><time>2026-04-27T13:15:46.001Z</time></trkpt><trkpt lat="40.401969301642765" lon="19.995173861130944"><ele>210.0</ele><time>2026-04-27T13:16:14.001Z</time></trkpt><trkpt lat="40.40194712425238" lon="19.995050355487958"><ele>210.0</ele><time>2026-04-27T13:16:17.001Z</time></trkpt><trkpt lat="40.40191625522415" lon="19.994880298383872"><ele>210.0</ele><time>2026-04-27T13:16:19.001Z</time></trkpt><trkpt lat="40.401873703943814" lon="19.994781366645288"><ele>210.0</ele><time>2026-04-27T13:16:20.001Z</time></trkpt><trkpt lat="40.40185156081345" lon="19.994700670045624"><ele>210.0</ele><time>2026-04-27T13:16:21.001Z</time></trkpt><trkpt lat="40.40180965322966" lon="19.99458396045251"><ele>210.0</ele><time>2026-04-27T13:16:23.001Z</time></trkpt><trkpt lat="40.401768349151425" lon="19.9944821729903"><ele>210.0</ele><time>2026-04-27T13:16:25.001Z</time></trkpt><trkpt lat="40.401747267232494" lon="19.994361990695676"><ele>210.0</ele><time>2026-04-27T13:16:28.001Z</time></trkpt><trkpt lat="40.40171149157066" lon="19.994246602914647"><ele>210.5</ele><time>2026-04-27T13:16:30.001Z</time></trkpt><trkpt lat="40.40167809997462" lon="19.99413954950781"><ele>211.0</ele><time>2026-04-27T13:16:32.001Z</time></trkpt><trkpt lat="40.40164835170418" lon="19.994042465565478"><ele>211.5</ele><time>2026-04-27T13:16:35.001Z</time></trkpt><trkpt lat="40.40160528664616" lon="19.993955117990613"><ele>212.0</ele><time>2026-04-27T13:16:38.001Z</time></trkpt><trkpt lat="40.40159140141399" lon="19.993840860782097"><ele>212.5</ele><time>2026-04-27T13:18:01.001Z</time></trkpt><trkpt lat="40.40157014792479" lon="19.99376042234119"><ele>213.0</ele><time>2026-04-27T13:18:02.001Z</time></trkpt><trkpt lat="40.401544371482835" lon="19.99366269595095"><ele>213.0</ele><time>2026-04-27T13:18:03.001Z</time></trkpt><trkpt lat="40.40146107528456" lon="19.993538385356622"><ele>213.0</ele><time>2026-04-27T13:18:04.001Z</time></trkpt><trkpt lat="40.40137668306826" lon="19.99344404086583"><ele>213.0</ele><time>2026-04-27T13:18:05.001Z</time></trkpt><trkpt lat="40.401296723748395" lon="19.993354522303743"><ele>213.0</ele><time>2026-04-27T13:18:06.001Z</time></trkpt><trkpt lat="40.401211036316106" lon="19.99325859113274"><ele>211.4</ele><time>2026-04-27T13:18:07.001Z</time></trkpt><trkpt lat="40.40112930713821" lon="19.99315751446054"><ele>209.8</ele><time>2026-04-27T13:18:08.002Z</time></trkpt><trkpt lat="40.401139028300264" lon="19.993027916685385"><ele>208.2</ele><time>2026-04-27T13:18:09Z</time></trkpt><trkpt lat="40.401127597098295" lon="19.992890723453428"><ele>206.6</ele><time>2026-04-27T13:18:10Z</time></trkpt><trkpt lat="40.40111424112254" lon="19.99274119636779"><ele>205.0</ele><time>2026-04-27T13:18:11Z</time></trkpt><trkpt lat="40.40109155984008" lon="19.992593600159086"><ele>204.75</ele><time>2026-04-27T13:18:12Z</time></trkpt><trkpt lat="40.40110177342902" lon="19.99242674286558"><ele>204.5</ele><time>2026-04-27T13:18:13Z</time></trkpt><trkpt lat="40.40110452094389" lon="19.99225294920326"><ele>204.25</ele><time>2026-04-27T13:18:14Z</time></trkpt><trkpt lat="40.40110264191139" lon="19.992092845954307"><ele>204.0</ele><time>2026-04-27T13:18:15Z</time></trkpt><trkpt lat="40.401094540979415" lon="19.99195596692436"><ele>204.0</ele><time>2026-04-27T13:18:16Z</time></trkpt><trkpt lat="40.40107064308258" lon="19.99181837003406"><ele>204.0</ele><time>2026-04-27T13:18:17Z</time></trkpt><trkpt lat="40.401025081059124" lon="19.99167075257729"><ele>204.0</ele><time>2026-04-27T13:18:18Z</time></trkpt><trkpt lat="40.40096644881117" lon="19.991517354869295"><ele>204.0</ele><time>2026-04-27T13:18:19Z</time></trkpt><trkpt lat="40.40091806319784" lon="19.99134533230068"><ele>204.5</ele><time>2026-04-27T13:18:20Z</time></trkpt><trkpt lat="40.40085983703223" lon="19.99117544562791"><ele>205.0</ele><time>2026-04-27T13:18:21Z</time></trkpt><trkpt lat="40.40080938118221" lon="19.991028315886332"><ele>205.5</ele><time>2026-04-27T13:18:22Z</time></trkpt><trkpt lat="40.400748854722025" lon="19.99089622731491"><ele>206.0</ele><time>2026-04-27T13:18:23Z</time></trkpt><trkpt lat="40.400794936436554" lon="19.99076504936823"><ele>206.5</ele><time>2026-04-27T13:18:24Z</time></trkpt><trkpt lat="40.40079190380636" lon="19.990629168230253"><ele>207.0</ele><time>2026-04-27T13:18:25Z</time></trkpt><trkpt lat="40.4007885177191" lon="19.990471392115957"><ele>207.5</ele><time>2026-04-27T13:18:26Z</time></trkpt><trkpt lat="40.400784503561304" lon="19.990284350885034"><ele>208.0</ele><time>2026-04-27T13:18:27Z</time></trkpt><trkpt lat="40.400779879595234" lon="19.990068895483148"><ele>208.0</ele><time>2026-04-27T13:18:28Z</time></trkpt><trkpt lat="40.40077549994909" lon="19.98986482414891"><ele>208.0</ele><time>2026-04-27T13:18:29Z</time></trkpt><trkpt lat="40.4007750886263" lon="19.989701826036256"><ele>208.0</ele><time>2026-04-27T13:18:30Z</time></trkpt><trkpt lat="40.40078767010506" lon="19.98954516614112"><ele>208.0</ele><time>2026-04-27T13:18:31Z</time></trkpt><trkpt lat="40.400799284471894" lon="19.98938934688705"><ele>208.0</ele><time>2026-04-27T13:18:32Z</time></trkpt><trkpt lat="40.40085646615874" lon="19.989288736493794"><ele>208.0</ele><time>2026-04-27T13:18:33Z</time></trkpt><trkpt lat="40.40089778904302" lon="19.989175035507078"><ele>208.0</ele><time>2026-04-27T13:18:34Z</time></trkpt><trkpt lat="40.4009497678986" lon="19.98905486847628"><ele>208.0</ele><time>2026-04-27T13:18:35Z</time></trkpt><trkpt lat="40.40108283015144" lon="19.988990037446804"><ele>208.0</ele><time>2026-04-27T13:18:36Z</time></trkpt><trkpt lat="40.40121761121293" lon="19.98888185652353"><ele>210.0</ele><time>2026-04-27T13:18:37Z</time></trkpt><trkpt lat="40.40135969103861" lon="19.988789723121407"><ele>212.0</ele><time>2026-04-27T13:18:38Z</time></trkpt><trkpt lat="40.40151213218399" lon="19.988702137083443"><ele>214.0</ele><time>2026-04-27T13:18:39Z</time></trkpt><trkpt lat="40.401675810056375" lon="19.988607804302667"><ele>214.0</ele><time>2026-04-27T13:18:40Z</time></trkpt><trkpt lat="40.40185735035593" lon="19.98850193692229"><ele>214.0</ele><time>2026-04-27T13:18:41Z</time></trkpt><trkpt lat="40.40204671154089" lon="19.9883923674624"><ele>214.0</ele><time>2026-04-27T13:18:42Z</time></trkpt><trkpt lat="40.40221060686803" lon="19.988297939360457"><ele>212.33333333333331</ele><time>2026-04-27T13:18:43Z</time></trkpt><trkpt lat="40.402357215200745" lon="19.988213309221084"><ele>210.66666666666669</ele><time>2026-04-27T13:18:44Z</time></trkpt><trkpt lat="40.40250550025591" lon="19.98812763507133"><ele>209.0</ele><time>2026-04-27T13:18:45Z</time></trkpt><trkpt lat="40.402658336915415" lon="19.988039322795807"><ele>209.0</ele><time>2026-04-27T13:18:46Z</time></trkpt><trkpt lat="40.40281543207712" lon="19.987948412182078"><ele>209.0</ele><time>2026-04-27T13:18:47Z</time></trkpt><trkpt lat="40.40295919580502" lon="19.987865034634787"><ele>209.0</ele><time>2026-04-27T13:18:48Z</time></trkpt><trkpt lat="40.40307717584562" lon="19.987796484686474"><ele>210.2</ele><time>2026-04-27T13:18:49.001Z</time></trkpt><trkpt lat="40.40317031226817" lon="19.987742369578214"><ele>211.39999999999998</ele><time>2026-04-27T13:18:50.001Z</time></trkpt><trkpt lat="40.403237865498625" lon="19.987678389366256"><ele>212.6</ele><time>2026-04-27T13:18:51.001Z</time></trkpt><trkpt lat="40.403297502420976" lon="19.987619865729602"><ele>213.8</ele><time>2026-04-27T13:18:52.001Z</time></trkpt><trkpt lat="40.40335167482333" lon="19.987566704592005"><ele>215.0</ele><time>2026-04-27T13:18:53.001Z</time></trkpt><trkpt lat="40.40342084838499" lon="19.987411978893523"><ele>212.4</ele><time>2026-04-27T13:18:55.001Z</time></trkpt><trkpt lat="40.403434977414285" lon="19.98732565935752"><ele>209.8</ele><time>2026-04-27T13:18:58.001Z</time></trkpt><trkpt lat="40.403306460403954" lon="19.987199220803976"><ele>207.2</ele><time>2026-04-27T13:18:59.001Z</time></trkpt><trkpt lat="40.403182587896296" lon="19.987142504239156"><ele>204.6</ele><time>2026-04-27T13:19:01.001Z</time></trkpt><trkpt lat="40.40312246928879" lon="19.987114978175963"><ele>202.0</ele><time>2026-04-27T13:19:02.001Z</time></trkpt><trkpt lat="40.40299343116094" lon="19.987055896425694"><ele>202.0</ele><time>2026-04-27T13:19:04.001Z</time></trkpt><trkpt lat="40.40290995524575" lon="19.987017663238976"><ele>202.0</ele><time>2026-04-27T13:19:05.001Z</time></trkpt><trkpt lat="40.40281618385832" lon="19.98697470668415"><ele>202.0</ele><time>2026-04-27T13:19:06.001Z</time></trkpt><trkpt lat="40.40272077095402" lon="19.986930998197515"><ele>202.0</ele><time>2026-04-27T13:19:07.001Z</time></trkpt><trkpt lat="40.40263653040379" lon="19.98689245235432"><ele>202.0</ele><time>2026-04-27T13:19:08.001Z</time></trkpt><trkpt lat="40.40256063410797" lon="19.98685776274082"><ele>201.99999999999997</ele><time>2026-04-27T13:19:09.001Z</time></trkpt><trkpt lat="40.402481717144624" lon="19.986821692409272"><ele>202.0</ele><time>2026-04-27T13:19:10.001Z</time></trkpt><trkpt lat="40.40240209764141" lon="19.986785301009373"><ele>202.0</ele><time>2026-04-27T13:19:11.001Z</time></trkpt><trkpt lat="40.40232486768624" lon="19.986752336442297"><ele>202.0</ele><time>2026-04-27T13:19:12.001Z</time></trkpt><trkpt lat="40.40229064067632" lon="19.986654485945092"><ele>201.99999999999997</ele><time>2026-04-27T13:19:13.001Z</time></trkpt><trkpt lat="40.40223964334891" lon="19.986587929620928"><ele>202.0</ele><time>2026-04-27T13:19:14.001Z</time></trkpt><trkpt lat="40.402189626463226" lon="19.986522652821737"><ele>200.99999999999997</ele><time>2026-04-27T13:19:15.001Z</time></trkpt><trkpt lat="40.40213164689249" lon="19.986461766142682"><ele>200.0</ele><time>2026-04-27T13:19:16.001Z</time></trkpt><trkpt lat="40.40210581386004" lon="19.986356801096314"><ele>199.0</ele><time>2026-04-27T13:19:17.001Z</time></trkpt><trkpt lat="40.402064549645736" lon="19.986254248699307"><ele>198.0</ele><time>2026-04-27T13:19:18.001Z</time></trkpt><trkpt lat="40.40202321377952" lon="19.986150127842222"><ele>196.99999999999997</ele><time>2026-04-27T13:19:19.001Z</time></trkpt><trkpt lat="40.40198444099799" lon="19.986052296514426"><ele>196.0</ele><time>2026-04-27T13:19:20.001Z</time></trkpt><trkpt lat="40.401944538042464" lon="19.98595068561501"><ele>196.0</ele><time>2026-04-27T13:19:21.001Z</time></trkpt><trkpt lat="40.40189699160196" lon="19.98585982523388"><ele>196.0</ele><time>2026-04-27T13:19:22.001Z</time></trkpt><trkpt lat="40.401845995029376" lon="19.985762668221177"><ele>196.0</ele><time>2026-04-27T13:19:23.001Z</time></trkpt><trkpt lat="40.40179254149733" lon="19.985660993445794"><ele>196.0</ele><time>2026-04-27T13:19:24.001Z</time></trkpt><trkpt lat="40.40173726549567" lon="19.985555116687483"><ele>196.0</ele><time>2026-04-27T13:19:25.001Z</time></trkpt><trkpt lat="40.40165978277702" lon="19.985462994299894"><ele>196.5</ele><time>2026-04-27T13:19:26.001Z</time></trkpt><trkpt lat="40.40158847321354" lon="19.985374493468836"><ele>197.0</ele><time>2026-04-27T13:19:27.001Z</time></trkpt><trkpt lat="40.4015224881573" lon="19.985292600752864"><ele>197.5</ele><time>2026-04-27T13:19:28.001Z</time></trkpt><trkpt lat="40.40147563785625" lon="19.98523445503485"><ele>198.0</ele><time>2026-04-27T13:19:29.001Z</time></trkpt><trkpt lat="40.40125969227515" lon="19.985326022047992"><ele>198.4</ele><time>2026-04-27T13:19:31.001Z</time></trkpt><trkpt lat="40.40117793917178" lon="19.985368558417"><ele>198.8</ele><time>2026-04-27T13:19:32.001Z</time></trkpt><trkpt lat="40.40109223888744" lon="19.98542852936331"><ele>199.2</ele><time>2026-04-27T13:19:33.001Z</time></trkpt><trkpt lat="40.40099927034334" lon="19.985480017617512"><ele>199.6</ele><time>2026-04-27T13:19:34.001Z</time></trkpt><trkpt lat="40.40089373398309" lon="19.985530390772208"><ele>200.0</ele><time>2026-04-27T13:19:35.001Z</time></trkpt><trkpt lat="40.40078186755114" lon="19.98557783558177"><ele>200.0</ele><time>2026-04-27T13:19:36.001Z</time></trkpt><trkpt lat="40.40066613200709" lon="19.985613226843817"><ele>200.0</ele><time>2026-04-27T13:19:37.001Z</time></trkpt><trkpt lat="40.40054586474395" lon="19.985599395358484"><ele>200.0</ele><time>2026-04-27T13:19:38.001Z</time></trkpt><trkpt lat="40.400428715970925" lon="19.985593846427523"><ele>200.0</ele><time>2026-04-27T13:19:39.001Z</time></trkpt><trkpt lat="40.40032818569721" lon="19.98558908464553"><ele>199.6</ele><time>2026-04-27T13:19:40.001Z</time></trkpt><trkpt lat="40.400234158628045" lon="19.985584584411132"><ele>199.2</ele><time>2026-04-27T13:19:41.001Z</time></trkpt><trkpt lat="40.400135309845844" lon="19.985579719605823"><ele>198.8</ele><time>2026-04-27T13:19:42.001Z</time></trkpt><trkpt lat="40.40001836901437" lon="19.98559007621898"><ele>198.4</ele><time>2026-04-27T13:19:43.001Z</time></trkpt><trkpt lat="40.3998998290277" lon="19.985559917290328"><ele>198.0</ele><time>2026-04-27T13:19:44.001Z</time></trkpt><trkpt lat="40.39979536773529" lon="19.98546027930215"><ele>196.75</ele><time>2026-04-27T13:19:45.001Z</time></trkpt><trkpt lat="40.399657071738666" lon="19.985362291653377"><ele>195.5</ele><time>2026-04-27T13:19:46.001Z</time></trkpt><trkpt lat="40.399529410263156" lon="19.98527160536849"><ele>194.25</ele><time>2026-04-27T13:19:47.001Z</time></trkpt><trkpt lat="40.39942365188724" lon="19.985197599927567"><ele>193.0</ele><time>2026-04-27T13:19:48.001Z</time></trkpt><trkpt lat="40.39927839528161" lon="19.985257584465817"><ele>193.0</ele><time>2026-04-27T13:19:49.001Z</time></trkpt><trkpt lat="40.39914626919224" lon="19.985282757613774"><ele>193.0</ele><time>2026-04-27T13:19:50.001Z</time></trkpt><trkpt lat="40.39901612325223" lon="19.9852930455304"><ele>193.0</ele><time>2026-04-27T13:19:51.001Z</time></trkpt><trkpt lat="40.398922732215865" lon="19.985226706391536"><ele>193.0</ele><time>2026-04-27T13:19:52.001Z</time></trkpt><trkpt lat="40.39879385802296" lon="19.985161372587395"><ele>193.33333333333331</ele><time>2026-04-27T13:19:53.001Z</time></trkpt><trkpt lat="40.398611809088095" lon="19.985171899507915"><ele>193.66666666666669</ele><time>2026-04-27T13:19:54.001Z</time></trkpt><trkpt lat="40.39842650385616" lon="19.98520654129735"><ele>194.0</ele><time>2026-04-27T13:19:55.001Z</time></trkpt><trkpt lat="40.39821226346942" lon="19.98524772823568"><ele>194.0</ele><time>2026-04-27T13:19:56.001Z</time></trkpt><trkpt lat="40.39803948535345" lon="19.985281073974505"><ele>194.0</ele><time>2026-04-27T13:19:57.001Z</time></trkpt><trkpt lat="40.39788680416806" lon="19.985240261214933"><ele>194.0</ele><time>2026-04-27T13:19:58.001Z</time></trkpt><trkpt lat="40.397687813563415" lon="19.985194497413193"><ele>194.0</ele><time>2026-04-27T13:19:59.001Z</time></trkpt><trkpt lat="40.39746419542966" lon="19.98514310106334"><ele>194.0</ele><time>2026-04-27T13:20:00.001Z</time></trkpt><trkpt lat="40.397239177837406" lon="19.98509162995563"><ele>194.66666666666669</ele><time>2026-04-27T13:20:01.001Z</time></trkpt><trkpt lat="40.39704340323067" lon="19.985046453429124"><ele>195.33333333333331</ele><time>2026-04-27T13:20:02.001Z</time></trkpt><trkpt lat="40.396883542702476" lon="19.985009525944978"><ele>196.0</ele><time>2026-04-27T13:20:03.001Z</time></trkpt><trkpt lat="40.39674126319315" lon="19.984978449289546"><ele>199.25</ele><time>2026-04-27T13:20:04.001Z</time></trkpt><trkpt lat="40.39663528067718" lon="19.984921512570295"><ele>202.5</ele><time>2026-04-27T13:20:05.001Z</time></trkpt><trkpt lat="40.39649504768855" lon="19.984859659726887"><ele>205.75</ele><time>2026-04-27T13:20:06.001Z</time></trkpt><trkpt lat="40.396327612814474" lon="19.984786354714625"><ele>209.0</ele><time>2026-04-27T13:20:07.001Z</time></trkpt><trkpt lat="40.39612081257523" lon="19.984695444999087"><ele>209.0</ele><time>2026-04-27T13:20:08.001Z</time></trkpt><trkpt lat="40.395877354656555" lon="19.984587671060616"><ele>209.0</ele><time>2026-04-27T13:20:09.001Z</time></trkpt><trkpt lat="40.395641135635074" lon="19.984484482616434"><ele>208.66666666666669</ele><time>2026-04-27T13:20:10.001Z</time></trkpt><trkpt lat="40.395443941978584" lon="19.984397810242577"><ele>208.33333333333331</ele><time>2026-04-27T13:20:11.001Z</time></trkpt><trkpt lat="40.39527139585127" lon="19.984321769436924"><ele>208.0</ele><time>2026-04-27T13:20:12.001Z</time></trkpt><trkpt lat="40.395117533335515" lon="19.984254147463407"><ele>208.0</ele><time>2026-04-27T13:20:13.001Z</time></trkpt><trkpt lat="40.394962669408855" lon="19.98418529147768"><ele>208.0</ele><time>2026-04-27T13:20:14.001Z</time></trkpt><trkpt lat="40.39480562723829" lon="19.98411712719757"><ele>208.0</ele><time>2026-04-27T13:20:15Z</time></trkpt><trkpt lat="40.39465665881836" lon="19.984037389756242"><ele>209.0</ele><time>2026-04-27T13:20:16Z</time></trkpt><trkpt lat="40.39452545149724" lon="19.983969225423625"><ele>210.0</ele><time>2026-04-27T13:20:17Z</time></trkpt><trkpt lat="40.39445415490465" lon="19.983845297022626"><ele>211.0</ele><time>2026-04-27T13:20:18Z</time></trkpt><trkpt lat="40.39437106286727" lon="19.98375147162811"><ele>212.0</ele><time>2026-04-27T13:20:19Z</time></trkpt><trkpt lat="40.394238621966075" lon="19.983749936524397"><ele>212.0</ele><time>2026-04-27T13:20:20Z</time></trkpt><trkpt lat="40.394131684041604" lon="19.98372231436813"><ele>212.0</ele><time>2026-04-27T13:20:21Z</time></trkpt><trkpt lat="40.39402549292387" lon="19.98371285490685"><ele>212.0</ele><time>2026-04-27T13:20:22Z</time></trkpt><trkpt lat="40.3939217871154" lon="19.983697453467364"><ele>212.0</ele><time>2026-04-27T13:20:23Z</time></trkpt><trkpt lat="40.39384381688922" lon="19.98365750061702"><ele>212.0</ele><time>2026-04-27T13:20:24Z</time></trkpt><trkpt lat="40.39378890377023" lon="19.983579760000364"><ele>212.0</ele><time>2026-04-27T13:20:25Z</time></trkpt><trkpt lat="40.393796088492614" lon="19.98344348869985"><ele>212.0</ele><time>2026-04-27T13:20:26Z</time></trkpt><trkpt lat="40.393765690993426" lon="19.983299320314096"><ele>212.0</ele><time>2026-04-27T13:20:27Z</time></trkpt><trkpt lat="40.393666956849124" lon="19.98315944103901"><ele>212.0</ele><time>2026-04-27T13:20:28Z</time></trkpt><trkpt lat="40.39358372631077" lon="19.983071391963893"><ele>214.0</ele><time>2026-04-27T13:20:29Z</time></trkpt><trkpt lat="40.393543433091004" lon="19.982982586537553"><ele>216.0</ele><time>2026-04-27T13:20:30Z</time></trkpt><trkpt lat="40.3934154441026" lon="19.983015791121613"><ele>218.0</ele><time>2026-04-27T13:20:31Z</time></trkpt><trkpt lat="40.39332607368485" lon="19.98305274625995"><ele>220.0</ele><time>2026-04-27T13:20:32Z</time></trkpt><trkpt lat="40.39327459140147" lon="19.98312090307669"><ele>222.0</ele><time>2026-04-27T13:20:33Z</time></trkpt><trkpt lat="40.39320358520165" lon="19.98324938422974"><ele>222.0</ele><time>2026-04-27T13:20:35Z</time></trkpt><trkpt lat="40.39310520773444" lon="19.98331695382555"><ele>222.0</ele><time>2026-04-27T13:20:37Z</time></trkpt><trkpt lat="40.39303157881059" lon="19.98322121693237"><ele>222.0</ele><time>2026-04-27T13:20:38Z</time></trkpt><trkpt lat="40.392961790682854" lon="19.983233928676686"><ele>222.0</ele><time>2026-04-27T13:20:39Z</time></trkpt><trkpt lat="40.392809931469465" lon="19.983253202593747"><ele>222.0</ele><time>2026-04-27T13:20:41Z</time></trkpt><trkpt lat="40.39274427488236" lon="19.98326826828442"><ele>222.8</ele><time>2026-04-27T13:20:42Z</time></trkpt><trkpt lat="40.392635234338414" lon="19.983363644490826"><ele>223.6</ele><time>2026-04-27T13:20:44Z</time></trkpt><trkpt lat="40.39256569401287" lon="19.983445690765617"><ele>224.40000000000003</ele><time>2026-04-27T13:20:45Z</time></trkpt><trkpt lat="40.39250900004088" lon="19.983552736169838"><ele>225.20000000000002</ele><time>2026-04-27T13:20:46Z</time></trkpt><trkpt lat="40.392468144005804" lon="19.98369512032537"><ele>226.0</ele><time>2026-04-27T13:20:47Z</time></trkpt><trkpt lat="40.392458439128575" lon="19.98385134170748"><ele>226.0</ele><time>2026-04-27T13:20:48Z</time></trkpt><trkpt lat="40.39249005494388" lon="19.98402072080334"><ele>226.00000000000003</ele><time>2026-04-27T13:20:49Z</time></trkpt><trkpt lat="40.39250286736555" lon="19.984170681391355"><ele>226.00000000000003</ele><time>2026-04-27T13:20:50Z</time></trkpt><trkpt lat="40.392442899185525" lon="19.984265781629784"><ele>226.0</ele><time>2026-04-27T13:20:51Z</time></trkpt><trkpt lat="40.39240741237072" lon="19.984355827748473"><ele>226.0</ele><time>2026-04-27T13:20:52Z</time></trkpt><trkpt lat="40.392315746789805" lon="19.98440120269733"><ele>224.5</ele><time>2026-04-27T13:20:53Z</time></trkpt><trkpt lat="40.39218913391381" lon="19.98432723960503"><ele>223.0</ele><time>2026-04-27T13:20:54Z</time></trkpt><trkpt lat="40.39205920400083" lon="19.984351620965015"><ele>221.5</ele><time>2026-04-27T13:20:55Z</time></trkpt><trkpt lat="40.39191887074066" lon="19.9843779239828"><ele>220.0</ele><time>2026-04-27T13:20:56Z</time></trkpt><trkpt lat="40.391791257911045" lon="19.98441479189226"><ele>220.2</ele><time>2026-04-27T13:20:57Z</time></trkpt><trkpt lat="40.39167855670936" lon="19.984353624041187"><ele>220.4</ele><time>2026-04-27T13:20:58Z</time></trkpt><trkpt lat="40.39157473416278" lon="19.98433774375683"><ele>220.60000000000002</ele><time>2026-04-27T13:20:59Z</time></trkpt><trkpt lat="40.39150034894308" lon="19.98426888499384"><ele>220.8</ele><time>2026-04-27T13:21:00Z</time></trkpt><trkpt lat="40.39144257108947" lon="19.984171324460192"><ele>221.0</ele><time>2026-04-27T13:21:01Z</time></trkpt><trkpt lat="40.39145641059334" lon="19.98402023765854"><ele>221.0</ele><time>2026-04-27T13:21:02Z</time></trkpt><trkpt lat="40.39143380011131" lon="19.983870689886537"><ele>221.00000000000003</ele><time>2026-04-27T13:21:03Z</time></trkpt><trkpt lat="40.39141421954058" lon="19.983741788352045"><ele>221.00000000000003</ele><time>2026-04-27T13:21:04Z</time></trkpt><trkpt lat="40.39136888671494" lon="19.98362789395397"><ele>221.0</ele><time>2026-04-27T13:21:05Z</time></trkpt><trkpt lat="40.391325301283146" lon="19.983535212708162"><ele>221.0</ele><time>2026-04-27T13:21:06Z</time></trkpt><trkpt lat="40.391189804535244" lon="19.983546635135536"><ele>220.60000000000002</ele><time>2026-04-27T13:21:07Z</time></trkpt><trkpt lat="40.391090336155884" lon="19.983558019817632"><ele>220.20000000000002</ele><time>2026-04-27T13:21:08Z</time></trkpt><trkpt lat="40.39099359833551" lon="19.983534110360882"><ele>219.79999999999998</ele><time>2026-04-27T13:21:09Z</time></trkpt><trkpt lat="40.3908990079048" lon="19.983671328023977"><ele>219.39999999999998</ele><time>2026-04-27T13:21:10Z</time></trkpt><trkpt lat="40.3908149836118" lon="19.983735719285786"><ele>219.0</ele><time>2026-04-27T13:21:11Z</time></trkpt><trkpt lat="40.390770392391246" lon="19.983890361423928"><ele>219.0</ele><time>2026-04-27T13:21:12Z</time></trkpt><trkpt lat="40.39070549879215" lon="19.984022579657022"><ele>219.0</ele><time>2026-04-27T13:21:13Z</time></trkpt><trkpt lat="40.390639291420186" lon="19.984170454162005"><ele>219.0</ele><time>2026-04-27T13:21:14Z</time></trkpt><trkpt lat="40.39056617121627" lon="19.984295352307726"><ele>219.0</ele><time>2026-04-27T13:21:15Z</time></trkpt><trkpt lat="40.39051101563199" lon="19.984415113221303"><ele>218.0</ele><time>2026-04-27T13:21:16Z</time></trkpt><trkpt lat="40.390446858911815" lon="19.984544669094046"><ele>217.0</ele><time>2026-04-27T13:21:17Z</time></trkpt><trkpt lat="40.39032596327713" lon="19.984627232294198"><ele>216.0</ele><time>2026-04-27T13:21:18Z</time></trkpt><trkpt lat="40.39019767329712" lon="19.984722550857846"><ele>215.0</ele><time>2026-04-27T13:21:19Z</time></trkpt><trkpt lat="40.39005823772695" lon="19.98482669219031"><ele>215.0</ele><time>2026-04-27T13:21:20Z</time></trkpt><trkpt lat="40.38991311736991" lon="19.984935156559185"><ele>215.0</ele><time>2026-04-27T13:21:21Z</time></trkpt><trkpt lat="40.38978114680877" lon="19.985033977737153"><ele>215.0</ele><time>2026-04-27T13:21:22.001Z</time></trkpt><trkpt lat="40.38966296490454" lon="19.985121762384995"><ele>210.5</ele><time>2026-04-27T13:21:23.001Z</time></trkpt><trkpt lat="40.38955540581581" lon="19.985223096094657"><ele>206.0</ele><time>2026-04-27T13:21:24.001Z</time></trkpt><trkpt lat="40.38943554605213" lon="19.985271891278366"><ele>201.5</ele><time>2026-04-27T13:21:25.001Z</time></trkpt><trkpt lat="40.38930675003498" lon="19.985306132881853"><ele>197.0</ele><time>2026-04-27T13:21:26.001Z</time></trkpt><trkpt lat="40.38917336359848" lon="19.98534019619306"><ele>197.0</ele><time>2026-04-27T13:21:27.001Z</time></trkpt><trkpt lat="40.38904952109834" lon="19.985371164890843"><ele>197.0</ele><time>2026-04-27T13:21:28.001Z</time></trkpt><trkpt lat="40.38892267145576" lon="19.985417937575424"><ele>197.0</ele><time>2026-04-27T13:21:29.001Z</time></trkpt><trkpt lat="40.38880212420629" lon="19.985442600032922"><ele>197.0</ele><time>2026-04-27T13:21:30.001Z</time></trkpt><trkpt lat="40.38870122637772" lon="19.985491831702305"><ele>197.8</ele><time>2026-04-27T13:21:31.001Z</time></trkpt><trkpt lat="40.388603079588904" lon="19.98551792891054"><ele>198.6</ele><time>2026-04-27T13:21:32.001Z</time></trkpt><trkpt lat="40.38850794469245" lon="19.985536759393366"><ele>199.4</ele><time>2026-04-27T13:21:33.001Z</time></trkpt><trkpt lat="40.3884155593012" lon="19.985552200542262"><ele>200.20000000000002</ele><time>2026-04-27T13:21:34.001Z</time></trkpt><trkpt lat="40.388316287225756" lon="19.985535767528617"><ele>201.0</ele><time>2026-04-27T13:21:35.001Z</time></trkpt><trkpt lat="40.38822846436273" lon="19.985472674308525"><ele>201.0</ele><time>2026-04-27T13:21:36.001Z</time></trkpt><trkpt lat="40.38816260829352" lon="19.985367205537187"><ele>201.0</ele><time>2026-04-27T13:21:37.001Z</time></trkpt><trkpt lat="40.38815595866992" lon="19.985196818623763"><ele>201.0</ele><time>2026-04-27T13:21:38.001Z</time></trkpt><trkpt lat="40.38809572063915" lon="19.985091553160157"><ele>201.0</ele><time>2026-04-27T13:21:39.001Z</time></trkpt><trkpt lat="40.38803393050142" lon="19.98498357371054"><ele>201.0</ele><time>2026-04-27T13:21:40.001Z</time></trkpt><trkpt lat="40.38784809689218" lon="19.98494156909064"><ele>203.0</ele><time>2026-04-27T13:21:41.001Z</time></trkpt><trkpt lat="40.387691910242545" lon="19.984904449731307"><ele>205.0</ele><time>2026-04-27T13:21:42.001Z</time></trkpt><trkpt lat="40.38752190931104" lon="19.984902176559565"><ele>207.0</ele><time>2026-04-27T13:21:43.001Z</time></trkpt><trkpt lat="40.38735458294399" lon="19.984894766539245"><ele>207.0</ele><time>2026-04-27T13:21:44.001Z</time></trkpt><trkpt lat="40.38720592128428" lon="19.984893198742732"><ele>207.0</ele><time>2026-04-27T13:21:45.001Z</time></trkpt><trkpt lat="40.38707552052967" lon="19.984841097106717"><ele>207.0</ele><time>2026-04-27T13:21:46.001Z</time></trkpt><trkpt lat="40.3869391021863" lon="19.984816177805207"><ele>207.0</ele><time>2026-04-27T13:21:47.001Z</time></trkpt><trkpt lat="40.38683068769453" lon="19.984755537703556"><ele>206.39999999999998</ele><time>2026-04-27T13:21:48.001Z</time></trkpt><trkpt lat="40.38674289086316" lon="19.984725729094365"><ele>205.79999999999998</ele><time>2026-04-27T13:21:49.001Z</time></trkpt><trkpt lat="40.38667769712151" lon="19.98470435298512"><ele>205.2</ele><time>2026-04-27T13:21:50.001Z</time></trkpt><trkpt lat="40.38660404855191" lon="19.984864818505216"><ele>204.6</ele><time>2026-04-27T13:21:51.001Z</time></trkpt><trkpt lat="40.38658186689545" lon="19.984972997165755"><ele>204.0</ele><time>2026-04-27T13:21:52.001Z</time></trkpt><trkpt lat="40.386589652220046" lon="19.985093686601015"><ele>202.79999999999998</ele><time>2026-04-27T13:21:53.001Z</time></trkpt><trkpt lat="40.38660548261606" lon="19.98522722312151"><ele>201.6</ele><time>2026-04-27T13:21:54.001Z</time></trkpt><trkpt lat="40.386610753708695" lon="19.98536569718231"><ele>200.4</ele><time>2026-04-27T13:21:55.001Z</time></trkpt><trkpt lat="40.38661587715162" lon="19.98552295414875"><ele>199.2</ele><time>2026-04-27T13:21:56.001Z</time></trkpt><trkpt lat="40.38662197306155" lon="19.98568158548442"><ele>198.0</ele><time>2026-04-27T13:21:57.001Z</time></trkpt><trkpt lat="40.38663608751265" lon="19.985847899286664"><ele>196.2</ele><time>2026-04-27T13:21:58.001Z</time></trkpt><trkpt lat="40.386612448438754" lon="19.986008873533038"><ele>194.4</ele><time>2026-04-27T13:21:59.001Z</time></trkpt><trkpt lat="40.386557064538295" lon="19.986127981800887"><ele>192.6</ele><time>2026-04-27T13:22:00.001Z</time></trkpt><trkpt lat="40.386492610832406" lon="19.986224121244877"><ele>190.79999999999998</ele><time>2026-04-27T13:22:01.001Z</time></trkpt><trkpt lat="40.38643838812357" lon="19.98630583952207"><ele>189.0</ele><time>2026-04-27T13:22:02.001Z</time></trkpt><trkpt lat="40.38631585466313" lon="19.98623149025136"><ele>189.0</ele><time>2026-04-27T13:22:04.001Z</time></trkpt><trkpt lat="40.386222495005924" lon="19.986181935192832"><ele>189.0</ele><time>2026-04-27T13:22:05.001Z</time></trkpt><trkpt lat="40.38611589515833" lon="19.98612538608482"><ele>189.0</ele><time>2026-04-27T13:22:06.001Z</time></trkpt><trkpt lat="40.38598916236723" lon="19.986102714578823"><ele>189.0</ele><time>2026-04-27T13:22:07.001Z</time></trkpt><trkpt lat="40.385868073652176" lon="19.986084937223406"><ele>189.0</ele><time>2026-04-27T13:22:08.001Z</time></trkpt><trkpt lat="40.3857248246345" lon="19.986062633977095"><ele>189.0</ele><time>2026-04-27T13:22:09.001Z</time></trkpt><trkpt lat="40.38561778176471" lon="19.98600637325285"><ele>189.0</ele><time>2026-04-27T13:22:10.001Z</time></trkpt><trkpt lat="40.38549250204098" lon="19.985947669532667"><ele>189.0</ele><time>2026-04-27T13:22:11.001Z</time></trkpt><trkpt lat="40.38538554198511" lon="19.985898515456427"><ele>189.2</ele><time>2026-04-27T13:22:12.001Z</time></trkpt><trkpt lat="40.38532424852278" lon="19.985870578030603"><ele>189.39999999999998</ele><time>2026-04-27T13:22:13.001Z</time></trkpt><trkpt lat="40.385219840237234" lon="19.986008108689703"><ele>189.6</ele><time>2026-04-27T13:22:14.001Z</time></trkpt><trkpt lat="40.385126639296026" lon="19.98608586888081"><ele>189.8</ele><time>2026-04-27T13:22:15.001Z</time></trkpt><trkpt lat="40.385045095212924" lon="19.986195183429757"><ele>190.0</ele><time>2026-04-27T13:22:16.001Z</time></trkpt><trkpt lat="40.384955383565064" lon="19.986240048937884"><ele>190.0</ele><time>2026-04-27T13:22:17.001Z</time></trkpt><trkpt lat="40.384867051568456" lon="19.986261863010633"><ele>190.0</ele><time>2026-04-27T13:22:18.001Z</time></trkpt><trkpt lat="40.38475819967751" lon="19.986295466001753"><ele>190.0</ele><time>2026-04-27T13:22:19.001Z</time></trkpt><trkpt lat="40.384639700412" lon="19.986330237151876"><ele>190.0</ele><time>2026-04-27T13:22:20.001Z</time></trkpt><trkpt lat="40.38455458795083" lon="19.986449424251017"><ele>190.0</ele><time>2026-04-27T13:22:21Z</time></trkpt><trkpt lat="40.38446547729255" lon="19.986546214987754"><ele>192.5</ele><time>2026-04-27T13:22:22Z</time></trkpt><trkpt lat="40.38437792045027" lon="19.986640356544378"><ele>195.0</ele><time>2026-04-27T13:22:23Z</time></trkpt><trkpt lat="40.38425634582682" lon="19.986631171221834"><ele>197.5</ele><time>2026-04-27T13:22:24Z</time></trkpt><trkpt lat="40.38412146278468" lon="19.986650578376178"><ele>200.0</ele><time>2026-04-27T13:22:25Z</time></trkpt><trkpt lat="40.38397371689337" lon="19.98667257004316"><ele>193.66666666666669</ele><time>2026-04-27T13:22:26Z</time></trkpt><trkpt lat="40.383817447638584" lon="19.986695245673815"><ele>187.33333333333334</ele><time>2026-04-27T13:22:27Z</time></trkpt><trkpt lat="40.3836568225386" lon="19.986718055889735"><ele>181.0</ele><time>2026-04-27T13:22:28Z</time></trkpt><trkpt lat="40.38351310524166" lon="19.986737175452344"><ele>181.0</ele><time>2026-04-27T13:22:29Z</time></trkpt><trkpt lat="40.383382610865304" lon="19.98674984841048"><ele>181.0</ele><time>2026-04-27T13:22:30Z</time></trkpt><trkpt lat="40.38324988288733" lon="19.986762348199758"><ele>181.0</ele><time>2026-04-27T13:22:31Z</time></trkpt><trkpt lat="40.38312510050978" lon="19.98673914769744"><ele>181.0</ele><time>2026-04-27T13:22:32Z</time></trkpt><trkpt lat="40.38301280080977" lon="19.98671053823618"><ele>180.75</ele><time>2026-04-27T13:22:33Z</time></trkpt><trkpt lat="40.38290143396428" lon="19.986683247296195"><ele>180.5</ele><time>2026-04-27T13:22:34Z</time></trkpt><trkpt lat="40.382784534809254" lon="19.986655983380675"><ele>180.25</ele><time>2026-04-27T13:22:35Z</time></trkpt><trkpt lat="40.38265636175033" lon="19.986597895443"><ele>180.0</ele><time>2026-04-27T13:22:36Z</time></trkpt><trkpt lat="40.3825170900649" lon="19.986517252872368"><ele>184.0</ele><time>2026-04-27T13:22:37.001Z</time></trkpt><trkpt lat="40.38237334016604" lon="19.986477209429847"><ele>188.0</ele><time>2026-04-27T13:22:38.001Z</time></trkpt><trkpt lat="40.38224416372452" lon="19.98642531574504"><ele>192.0</ele><time>2026-04-27T13:22:39.001Z</time></trkpt><trkpt lat="40.38211581328011" lon="19.98612533723201"><ele>192.0</ele><time>2026-04-27T13:22:40.001Z</time></trkpt><trkpt lat="40.38208665600576" lon="19.985986562492883"><ele>192.0</ele><time>2026-04-27T13:22:41.001Z</time></trkpt><trkpt lat="40.38205381710504" lon="19.985830147593756"><ele>192.0</ele><time>2026-04-27T13:22:42.001Z</time></trkpt><trkpt lat="40.38213116942868" lon="19.985659750916025"><ele>192.0</ele><time>2026-04-27T13:22:43.001Z</time></trkpt><trkpt lat="40.38215962041888" lon="19.985517969035918"><ele>196.0</ele><time>2026-04-27T13:22:44.001Z</time></trkpt><trkpt lat="40.38220496718273" lon="19.985443143444055"><ele>200.0</ele><time>2026-04-27T13:22:45.001Z</time></trkpt><trkpt lat="40.38225940484445" lon="19.985340229861492"><ele>204.0</ele><time>2026-04-27T13:22:46.001Z</time></trkpt><trkpt lat="40.38232611976003" lon="19.985244124841703"><ele>208.0</ele><time>2026-04-27T13:22:47.001Z</time></trkpt><trkpt lat="40.382389034550876" lon="19.985177950394984"><ele>212.0</ele><time>2026-04-27T13:22:48.001Z</time></trkpt><trkpt lat="40.382424505429135" lon="19.98507609118672"><ele>216.0</ele><time>2026-04-27T13:22:49.001Z</time></trkpt><trkpt lat="40.382392283938806" lon="19.984908721987605"><ele>215.60000000000002</ele><time>2026-04-27T13:22:50.001Z</time></trkpt><trkpt lat="40.38235792025352" lon="19.984793129706134"><ele>215.20000000000002</ele><time>2026-04-27T13:22:51.001Z</time></trkpt><trkpt lat="40.382171803001995" lon="19.98478948639201"><ele>214.79999999999998</ele><time>2026-04-27T13:22:52.001Z</time></trkpt><trkpt lat="40.38208641531234" lon="19.98474048237241"><ele>214.39999999999998</ele><time>2026-04-27T13:22:53.001Z</time></trkpt><trkpt lat="40.382047704098355" lon="19.984665155610514"><ele>214.0</ele><time>2026-04-27T13:22:54.001Z</time></trkpt><trkpt lat="40.38202021866437" lon="19.984556048497677"><ele>214.0</ele><time>2026-04-27T13:22:55.001Z</time></trkpt><trkpt lat="40.382092850078166" lon="19.984465145329764"><ele>213.99999999999997</ele><time>2026-04-27T13:22:56.001Z</time></trkpt><trkpt lat="40.38212638873369" lon="19.984350220996163"><ele>213.99999999999997</ele><time>2026-04-27T13:22:57.001Z</time></trkpt><trkpt lat="40.382157964878914" lon="19.984242021104112"><ele>214.0</ele><time>2026-04-27T13:22:58.001Z</time></trkpt><trkpt lat="40.38213950396461" lon="19.984110259594335"><ele>214.0</ele><time>2026-04-27T13:22:59.001Z</time></trkpt><trkpt lat="40.38210298503153" lon="19.983977816319044"><ele>214.25</ele><time>2026-04-27T13:23:00.001Z</time></trkpt><trkpt lat="40.382083697077526" lon="19.98383081657261"><ele>214.5</ele><time>2026-04-27T13:23:01.001Z</time></trkpt><trkpt lat="40.38204121316899" lon="19.983687776175948"><ele>214.75</ele><time>2026-04-27T13:23:02.001Z</time></trkpt><trkpt lat="40.382022167360184" lon="19.983529748651655"><ele>215.0</ele><time>2026-04-27T13:23:03.001Z</time></trkpt><trkpt lat="40.38198856781898" lon="19.983368361470458"><ele>214.25</ele><time>2026-04-27T13:23:04.001Z</time></trkpt><trkpt lat="40.381933599723254" lon="19.983204616087534"><ele>213.5</ele><time>2026-04-27T13:23:05.001Z</time></trkpt><trkpt lat="40.38186636521712" lon="19.98305306629947"><ele>212.75</ele><time>2026-04-27T13:23:06.001Z</time></trkpt><trkpt lat="40.381807700395754" lon="19.982906334741426"><ele>212.0</ele><time>2026-04-27T13:23:07.001Z</time></trkpt><trkpt lat="40.3817302700368" lon="19.982787632223236"><ele>212.0</ele><time>2026-04-27T13:23:08.001Z</time></trkpt><trkpt lat="40.38165816849202" lon="19.98267709921128"><ele>212.0</ele><time>2026-04-27T13:23:09.001Z</time></trkpt><trkpt lat="40.381580115457645" lon="19.982597814425112"><ele>212.0</ele><time>2026-04-27T13:23:10.001Z</time></trkpt><trkpt lat="40.381524435014406" lon="19.9825080039844"><ele>212.0</ele><time>2026-04-27T13:23:11.001Z</time></trkpt><trkpt lat="40.38145790560994" lon="19.982423024151885"><ele>212.0</ele><time>2026-04-27T13:23:12.001Z</time></trkpt><trkpt lat="40.38138582694061" lon="19.982344242324523"><ele>212.33333333333334</ele><time>2026-04-27T13:23:13.001Z</time></trkpt><trkpt lat="40.3813123474853" lon="19.98228615772804"><ele>212.66666666666669</ele><time>2026-04-27T13:23:14.001Z</time></trkpt><trkpt lat="40.38123605998027" lon="19.98224515888828"><ele>213.0</ele><time>2026-04-27T13:23:15.001Z</time></trkpt><trkpt lat="40.38116477361924" lon="19.982190949210743"><ele>213.33333333333331</ele><time>2026-04-27T13:23:16.001Z</time></trkpt><trkpt lat="40.381076014223794" lon="19.98221610671524"><ele>213.66666666666666</ele><time>2026-04-27T13:23:17.001Z</time></trkpt><trkpt lat="40.381005073029925" lon="19.982235899185877"><ele>214.0</ele><time>2026-04-27T13:23:18.001Z</time></trkpt><trkpt lat="40.38094031907727" lon="19.98226484524688"><ele>213.99999999999997</ele><time>2026-04-27T13:23:19.001Z</time></trkpt><trkpt lat="40.38088062985167" lon="19.982299031460308"><ele>214.0</ele><time>2026-04-27T13:23:20.001Z</time></trkpt><trkpt lat="40.38080947040297" lon="19.982312742594683"><ele>214.0</ele><time>2026-04-27T13:23:21.001Z</time></trkpt><trkpt lat="40.38073811699583" lon="19.982350107146303"><ele>214.0</ele><time>2026-04-27T13:23:22.001Z</time></trkpt><trkpt lat="40.38067783042332" lon="19.982409576041423"><ele>213.99999999999997</ele><time>2026-04-27T13:23:23.001Z</time></trkpt><trkpt lat="40.380612948729166" lon="19.982447944482313"><ele>214.0</ele><time>2026-04-27T13:23:24.001Z</time></trkpt><trkpt lat="40.38051673057932" lon="19.98249804118127"><ele>213.16666666666666</ele><time>2026-04-27T13:23:26.001Z</time></trkpt><trkpt lat="40.380519333434414" lon="19.982624794668407"><ele>212.33333333333331</ele><time>2026-04-27T13:23:27.001Z</time></trkpt><trkpt lat="40.38048134912313" lon="19.98277210068623"><ele>211.5</ele><time>2026-04-27T13:23:29.001Z</time></trkpt><trkpt lat="40.380463137013955" lon="19.98286031607609"><ele>210.66666666666669</ele><time>2026-04-27T13:23:30.001Z</time></trkpt><trkpt lat="40.38045028301814" lon="19.982951743385126"><ele>209.83333333333334</ele><time>2026-04-27T13:23:31.001Z</time></trkpt><trkpt lat="40.38043877898873" lon="19.98304693862701"><ele>209.0</ele><time>2026-04-27T13:23:32.001Z</time></trkpt><trkpt lat="40.38042389603764" lon="19.98314295936384"><ele>209.57142857142856</ele><time>2026-04-27T13:23:33.001Z</time></trkpt><trkpt lat="40.380404105425356" lon="19.983244661915116"><ele>210.14285714285714</ele><time>2026-04-27T13:23:34.001Z</time></trkpt><trkpt lat="40.380375972597236" lon="19.983340564690298"><ele>210.71428571428572</ele><time>2026-04-27T13:23:35.001Z</time></trkpt><trkpt lat="40.38033989795807" lon="19.983423097448814"><ele>211.28571428571428</ele><time>2026-04-27T13:23:36.001Z</time></trkpt><trkpt lat="40.38030197968857" lon="19.98350076002843"><ele>211.85714285714286</ele><time>2026-04-27T13:23:37.001Z</time></trkpt><trkpt lat="40.38026573844828" lon="19.983572703953207"><ele>212.42857142857142</ele><time>2026-04-27T13:23:38.001Z</time></trkpt><trkpt lat="40.38023062247148" lon="19.983643309323856"><ele>213.0</ele><time>2026-04-27T13:23:39.001Z</time></trkpt><trkpt lat="40.38019815044498" lon="19.983714900371872"><ele>212.99999999999997</ele><time>2026-04-27T13:23:40.001Z</time></trkpt><trkpt lat="40.38016509216957" lon="19.983789958045183"><ele>213.0</ele><time>2026-04-27T13:23:41.001Z</time></trkpt><trkpt lat="40.380134559136344" lon="19.98387177886311"><ele>213.0</ele><time>2026-04-27T13:23:42.001Z</time></trkpt><trkpt lat="40.38011257144855" lon="19.98395376951613"><ele>213.0</ele><time>2026-04-27T13:23:43.001Z</time></trkpt><trkpt lat="40.38009499861657" lon="19.984036244288422"><ele>213.0</ele><time>2026-04-27T13:23:44.001Z</time></trkpt><trkpt lat="40.38008055707109" lon="19.984117990543773"><ele>212.99999999999997</ele><time>2026-04-27T13:23:45.001Z</time></trkpt><trkpt lat="40.380046143350334" lon="19.98418831423882"><ele>213.0</ele><time>2026-04-27T13:23:46.001Z</time></trkpt><trkpt lat="40.37999605407616" lon="19.984335753909974"><ele>211.5</ele><time>2026-04-27T13:23:48.001Z</time></trkpt><trkpt lat="40.37994770819397" lon="19.98448704232712"><ele>210.0</ele><time>2026-04-27T13:23:50.001Z</time></trkpt><trkpt lat="40.37992264775996" lon="19.98456614239758"><ele>208.5</ele><time>2026-04-27T13:23:51.001Z</time></trkpt><trkpt lat="40.379896769564134" lon="19.984647790039595"><ele>207.0</ele><time>2026-04-27T13:23:52.001Z</time></trkpt><trkpt lat="40.37988231723797" lon="19.984738945407933"><ele>205.5</ele><time>2026-04-27T13:23:53.001Z</time></trkpt><trkpt lat="40.37985617327461" lon="19.984817751077582"><ele>204.0</ele><time>2026-04-27T13:23:54.001Z</time></trkpt><trkpt lat="40.37982600940065" lon="19.984892550484243"><ele>204.0</ele><time>2026-04-27T13:23:55.001Z</time></trkpt><trkpt lat="40.37979414908068" lon="19.984964746257084"><ele>204.0</ele><time>2026-04-27T13:23:56.001Z</time></trkpt><trkpt lat="40.37969858734289" lon="19.985064680739775"><ele>204.0</ele><time>2026-04-27T13:23:58.001Z</time></trkpt><trkpt lat="40.37960879516956" lon="19.98516937974141"><ele>204.0</ele><time>2026-04-27T13:24:00.001Z</time></trkpt><trkpt lat="40.3795599861601" lon="19.985226293584628"><ele>204.0</ele><time>2026-04-27T13:24:01.001Z</time></trkpt><trkpt lat="40.37949701136573" lon="19.98521865591503"><ele>204.0</ele><time>2026-04-27T13:24:02.001Z</time></trkpt><trkpt lat="40.37943187976692" lon="19.985246193002475"><ele>201.5</ele><time>2026-04-27T13:24:03.001Z</time></trkpt><trkpt lat="40.379371258677054" lon="19.985272239887923"><ele>199.0</ele><time>2026-04-27T13:24:04.001Z</time></trkpt><trkpt lat="40.37925216775821" lon="19.985322812581884"><ele>196.5</ele><time>2026-04-27T13:24:06.001Z</time></trkpt><trkpt lat="40.37918303737072" lon="19.98535212097553"><ele>194.0</ele><time>2026-04-27T13:24:07.001Z</time></trkpt><trkpt lat="40.379110780380046" lon="19.985382809862568"><ele>191.5</ele><time>2026-04-27T13:24:08.001Z</time></trkpt><trkpt lat="40.37903876709907" lon="19.985413393551646"><ele>189.0</ele><time>2026-04-27T13:24:09.001Z</time></trkpt><trkpt lat="40.37891819928424" lon="19.98539739473851"><ele>187.16666666666666</ele><time>2026-04-27T13:24:11.001Z</time></trkpt><trkpt lat="40.37885041595856" lon="19.985393949007374"><ele>185.33333333333334</ele><time>2026-04-27T13:24:12.001Z</time></trkpt><trkpt lat="40.37874005192121" lon="19.985350342208267"><ele>183.5</ele><time>2026-04-27T13:24:14.001Z</time></trkpt><trkpt lat="40.37867868308395" lon="19.985324856367242"><ele>181.66666666666669</ele><time>2026-04-27T13:24:15.001Z</time></trkpt><trkpt lat="40.378612984702045" lon="19.985294529398345"><ele>179.83333333333334</ele><time>2026-04-27T13:24:16.001Z</time></trkpt><trkpt lat="40.37853890297431" lon="19.985259683797498"><ele>178.0</ele><time>2026-04-27T13:24:17.001Z</time></trkpt><trkpt lat="40.37846639470875" lon="19.985225883695144"><ele>178.0</ele><time>2026-04-27T13:24:18.001Z</time></trkpt><trkpt lat="40.37838873719886" lon="19.98518915885118"><ele>178.0</ele><time>2026-04-27T13:24:19.001Z</time></trkpt><trkpt lat="40.37831303893758" lon="19.985153533147628"><ele>178.0</ele><time>2026-04-27T13:24:20.001Z</time></trkpt><trkpt lat="40.378235863795055" lon="19.985117220820523"><ele>178.0</ele><time>2026-04-27T13:24:21.001Z</time></trkpt><trkpt lat="40.378157134202674" lon="19.98508021264352"><ele>178.0</ele><time>2026-04-27T13:24:22.001Z</time></trkpt><trkpt lat="40.37805560632713" lon="19.985073567658652"><ele>178.0</ele><time>2026-04-27T13:24:23.001Z</time></trkpt><trkpt lat="40.37797250186961" lon="19.98506180466562"><ele>177.0</ele><time>2026-04-27T13:24:24.001Z</time></trkpt><trkpt lat="40.37788827024564" lon="19.9850499164918"><ele>176.0</ele><time>2026-04-27T13:24:25.001Z</time></trkpt><trkpt lat="40.37780624142919" lon="19.985038339218068"><ele>175.0</ele><time>2026-04-27T13:24:26.001Z</time></trkpt><trkpt lat="40.377721141686315" lon="19.98502646792379"><ele>174.0</ele><time>2026-04-27T13:24:27.001Z</time></trkpt><trkpt lat="40.37763951799796" lon="19.985015481929956"><ele>173.0</ele><time>2026-04-27T13:24:28.001Z</time></trkpt><trkpt lat="40.3775437733613" lon="19.985034698970168"><ele>172.0</ele><time>2026-04-27T13:24:29.001Z</time></trkpt><trkpt lat="40.377464935452785" lon="19.985048413158353"><ele>172.00000000000003</ele><time>2026-04-27T13:24:30.001Z</time></trkpt><trkpt lat="40.37739256472165" lon="19.9850610443403"><ele>172.0</ele><time>2026-04-27T13:24:31.001Z</time></trkpt><trkpt lat="40.37732042676668" lon="19.985073634892203"><ele>172.0</ele><time>2026-04-27T13:24:32.001Z</time></trkpt><trkpt lat="40.377252039069816" lon="19.9850855076153"><ele>172.0</ele><time>2026-04-27T13:24:33.001Z</time></trkpt><trkpt lat="40.37718701568452" lon="19.98509676513425"><ele>172.0</ele><time>2026-04-27T13:24:34.001Z</time></trkpt><trkpt lat="40.37712305720217" lon="19.98510783827399"><ele>172.00000000000003</ele><time>2026-04-27T13:24:35.001Z</time></trkpt><trkpt lat="40.377060263950746" lon="19.985118635558827"><ele>172.0</ele><time>2026-04-27T13:24:36.001Z</time></trkpt><trkpt lat="40.37694768139727" lon="19.985128770305757"><ele>171.33333333333334</ele><time>2026-04-27T13:24:38.001Z</time></trkpt><trkpt lat="40.37688227379889" lon="19.985124976222043"><ele>170.66666666666669</ele><time>2026-04-27T13:24:39.001Z</time></trkpt><trkpt lat="40.37681589697192" lon="19.98512114123752"><ele>170.0</ele><time>2026-04-27T13:24:40.001Z</time></trkpt><trkpt lat="40.37671111782761" lon="19.98503365734918"><ele>169.33333333333334</ele><time>2026-04-27T13:24:42.001Z</time></trkpt><trkpt lat="40.3766402015094" lon="19.984995708681343"><ele>168.66666666666666</ele><time>2026-04-27T13:24:43.001Z</time></trkpt><trkpt lat="40.37656470554977" lon="19.984953894601926"><ele>168.0</ele><time>2026-04-27T13:24:44.001Z</time></trkpt><trkpt lat="40.376487843396205" lon="19.98491176359875"><ele>169.60000000000002</ele><time>2026-04-27T13:24:45.001Z</time></trkpt><trkpt lat="40.37640586335379" lon="19.98486786907217"><ele>171.20000000000002</ele><time>2026-04-27T13:24:46.001Z</time></trkpt><trkpt lat="40.3762993444663" lon="19.984840802404126"><ele>172.8</ele><time>2026-04-27T13:24:47.001Z</time></trkpt><trkpt lat="40.37620773779154" lon="19.98481312682997"><ele>174.4</ele><time>2026-04-27T13:24:48.001Z</time></trkpt><trkpt lat="40.37610854721808" lon="19.984783330818324"><ele>176.0</ele><time>2026-04-27T13:24:49.001Z</time></trkpt><trkpt lat="40.37600997757415" lon="19.98475421515516"><ele>176.0</ele><time>2026-04-27T13:24:50.001Z</time></trkpt><trkpt lat="40.375904508575196" lon="19.984737007304535"><ele>176.0</ele><time>2026-04-27T13:24:51.001Z</time></trkpt><trkpt lat="40.375811854567004" lon="19.984727265141913"><ele>176.0</ele><time>2026-04-27T13:24:52.001Z</time></trkpt><trkpt lat="40.3757220689348" lon="19.98471775310585"><ele>176.0</ele><time>2026-04-27T13:24:53.001Z</time></trkpt><trkpt lat="40.375639601920625" lon="19.984708935167394"><ele>176.0</ele><time>2026-04-27T13:24:54.001Z</time></trkpt><trkpt lat="40.37555829479061" lon="19.984700241231334"><ele>174.66666666666666</ele><time>2026-04-27T13:24:55.001Z</time></trkpt><trkpt lat="40.375473949955975" lon="19.984709713025733"><ele>173.33333333333331</ele><time>2026-04-27T13:24:56.001Z</time></trkpt><trkpt lat="40.375395489034254" lon="19.984682832944557"><ele>172.0</ele><time>2026-04-27T13:24:57.001Z</time></trkpt><trkpt lat="40.375312150811126" lon="19.98467392152285"><ele>170.66666666666666</ele><time>2026-04-27T13:24:58.001Z</time></trkpt><trkpt lat="40.37523393852534" lon="19.984669451735233"><ele>169.33333333333334</ele><time>2026-04-27T13:24:59.001Z</time></trkpt><trkpt lat="40.37515776670852" lon="19.984663433432317"><ele>168.0</ele><time>2026-04-27T13:25:00.001Z</time></trkpt><trkpt lat="40.37507909107816" lon="19.984669583665333"><ele>168.0</ele><time>2026-04-27T13:25:01.001Z</time></trkpt><trkpt lat="40.37502707986646" lon="19.98457581949092"><ele>168.0</ele><time>2026-04-27T13:25:02.001Z</time></trkpt><trkpt lat="40.37498659839509" lon="19.98450124048348"><ele>168.0</ele><time>2026-04-27T13:25:03.001Z</time></trkpt><trkpt lat="40.37493392344581" lon="19.984397308247278"><ele>168.0</ele><time>2026-04-27T13:25:04.001Z</time></trkpt><trkpt lat="40.37496007906442" lon="19.984262331467257"><ele>168.0</ele><time>2026-04-27T13:25:05.001Z</time></trkpt><trkpt lat="40.37497447747823" lon="19.984116918524233"><ele>168.8</ele><time>2026-04-27T13:25:06.001Z</time></trkpt><trkpt lat="40.37498766560494" lon="19.983983252531118"><ele>169.60000000000002</ele><time>2026-04-27T13:25:07.001Z</time></trkpt><trkpt lat="40.37500133810566" lon="19.983844655945422"><ele>170.39999999999998</ele><time>2026-04-27T13:25:08.001Z</time></trkpt><trkpt lat="40.37499741945937" lon="19.98370005380977"><ele>171.2</ele><time>2026-04-27T13:25:09.001Z</time></trkpt><trkpt lat="40.37498123231971" lon="19.983580883639362"><ele>172.0</ele><time>2026-04-27T13:25:10.001Z</time></trkpt><trkpt lat="40.374965014341285" lon="19.983461483930697"><ele>172.0</ele><time>2026-04-27T13:25:11.001Z</time></trkpt><trkpt lat="40.37489899506072" lon="19.983361481794347"><ele>172.0</ele><time>2026-04-27T13:25:12.001Z</time></trkpt><trkpt lat="40.37486094901065" lon="19.98326066016483"><ele>172.0</ele><time>2026-04-27T13:25:13.001Z</time></trkpt><trkpt lat="40.37481477344658" lon="19.983176628749263"><ele>172.0</ele><time>2026-04-27T13:25:14.001Z</time></trkpt><trkpt lat="40.374762390756636" lon="19.98309928383187"><ele>172.0</ele><time>2026-04-27T13:25:15.001Z</time></trkpt><trkpt lat="40.37470521515748" lon="19.983023101780788"><ele>172.0</ele><time>2026-04-27T13:25:16.001Z</time></trkpt><trkpt lat="40.37466569354528" lon="19.982930565170495"><ele>172.0</ele><time>2026-04-27T13:25:17.001Z</time></trkpt><trkpt lat="40.37458253663885" lon="19.982892989740908"><ele>172.0</ele><time>2026-04-27T13:25:18.001Z</time></trkpt><trkpt lat="40.374521347983915" lon="19.98283920974093"><ele>172.0</ele><time>2026-04-27T13:25:19.001Z</time></trkpt><trkpt lat="40.37442285699107" lon="19.98289320991623"><ele>172.0</ele><time>2026-04-27T13:25:20.001Z</time></trkpt><trkpt lat="40.374351145810934" lon="19.982955956227993"><ele>172.0</ele><time>2026-04-27T13:25:21.001Z</time></trkpt><trkpt lat="40.37429469254439" lon="19.98304985022825"><ele>172.0</ele><time>2026-04-27T13:25:22.001Z</time></trkpt><trkpt lat="40.374255469355056" lon="19.98316147927731"><ele>172.0</ele><time>2026-04-27T13:25:23.001Z</time></trkpt><trkpt lat="40.37422019405288" lon="19.98327075919975"><ele>172.0</ele><time>2026-04-27T13:25:24.001Z</time></trkpt><trkpt lat="40.37417720878028" lon="19.98336557890611"><ele>172.0</ele><time>2026-04-27T13:25:25.001Z</time></trkpt><trkpt lat="40.374132130838845" lon="19.98345055551765"><ele>172.0</ele><time>2026-04-27T13:25:26.001Z</time></trkpt><trkpt lat="40.37408577844173" lon="19.983544396366153"><ele>172.0</ele><time>2026-04-27T13:25:27.001Z</time></trkpt><trkpt lat="40.37403993800629" lon="19.983652321231027"><ele>172.0</ele><time>2026-04-27T13:25:28.001Z</time></trkpt><trkpt lat="40.37397250787217" lon="19.98372438736967"><ele>170.0</ele><time>2026-04-27T13:25:29.001Z</time></trkpt><trkpt lat="40.373894386378126" lon="19.983767662014532"><ele>168.0</ele><time>2026-04-27T13:25:30.001Z</time></trkpt><trkpt lat="40.37378774865721" lon="19.9837490456208"><ele>166.0</ele><time>2026-04-27T13:25:31.001Z</time></trkpt><trkpt lat="40.37366873536533" lon="19.983759680767122"><ele>164.0</ele><time>2026-04-27T13:25:32.001Z</time></trkpt><trkpt lat="40.37355161310292" lon="19.983745291352857"><ele>162.0</ele><time>2026-04-27T13:25:33.001Z</time></trkpt><trkpt lat="40.37345636489888" lon="19.98371403860371"><ele>160.75</ele><time>2026-04-27T13:25:34.001Z</time></trkpt><trkpt lat="40.373360491932615" lon="19.983686065339917"><ele>159.5</ele><time>2026-04-27T13:25:35.001Z</time></trkpt><trkpt lat="40.373293469771184" lon="19.983542157463408"><ele>158.25</ele><time>2026-04-27T13:25:36.001Z</time></trkpt><trkpt lat="40.373216717496135" lon="19.98341749802073"><ele>157.0</ele><time>2026-04-27T13:25:37.001Z</time></trkpt><trkpt lat="40.37312672233429" lon="19.983266031828755"><ele>156.0</ele><time>2026-04-27T13:25:38.001Z</time></trkpt><trkpt lat="40.37302717523426" lon="19.983098942242844"><ele>155.0</ele><time>2026-04-27T13:25:39.001Z</time></trkpt><trkpt lat="40.37292126574235" lon="19.98292195831856"><ele>154.0</ele><time>2026-04-27T13:25:40.001Z</time></trkpt><trkpt lat="40.37279547293176" lon="19.98273580555833"><ele>154.0</ele><time>2026-04-27T13:25:41.001Z</time></trkpt><trkpt lat="40.37266121612083" lon="19.982560995401055"><ele>154.0</ele><time>2026-04-27T13:25:42.001Z</time></trkpt><trkpt lat="40.37252944861141" lon="19.98239025311232"><ele>154.0</ele><time>2026-04-27T13:25:43.001Z</time></trkpt><trkpt lat="40.37239475479411" lon="19.982216779652468"><ele>154.66666666666669</ele><time>2026-04-27T13:25:44.001Z</time></trkpt><trkpt lat="40.37225410822208" lon="19.982033974603166"><ele>155.33333333333334</ele><time>2026-04-27T13:25:45.001Z</time></trkpt><trkpt lat="40.372105282917175" lon="19.981840439179376"><ele>156.0</ele><time>2026-04-27T13:25:46.001Z</time></trkpt><trkpt lat="40.371954659419714" lon="19.981657070951776"><ele>154.66666666666666</ele><time>2026-04-27T13:25:47.001Z</time></trkpt><trkpt lat="40.371820765035075" lon="19.98149826780782"><ele>153.33333333333331</ele><time>2026-04-27T13:25:48.001Z</time></trkpt><trkpt lat="40.371683628883936" lon="19.98135492124183"><ele>152.0</ele><time>2026-04-27T13:25:49.001Z</time></trkpt><trkpt lat="40.37155112364365" lon="19.981202045603546"><ele>152.0</ele><time>2026-04-27T13:25:50.001Z</time></trkpt><trkpt lat="40.371428993494625" lon="19.981033919441103"><ele>152.0</ele><time>2026-04-27T13:25:51.001Z</time></trkpt><trkpt lat="40.37129114680557" lon="19.980877364578816"><ele>152.0</ele><time>2026-04-27T13:25:52.001Z</time></trkpt><trkpt lat="40.37115048870615" lon="19.980734337099715"><ele>152.0</ele><time>2026-04-27T13:25:53.001Z</time></trkpt><trkpt lat="40.37102304450967" lon="19.980605817240708"><ele>152.0</ele><time>2026-04-27T13:25:54.001Z</time></trkpt><trkpt lat="40.37089547244895" lon="19.980476643474457"><ele>152.0</ele><time>2026-04-27T13:25:55.001Z</time></trkpt><trkpt lat="40.37076337809394" lon="19.980342176518043"><ele>152.0</ele><time>2026-04-27T13:25:56.001Z</time></trkpt><trkpt lat="40.370640765653675" lon="19.980219247157592"><ele>152.0</ele><time>2026-04-27T13:25:57.001Z</time></trkpt><trkpt lat="40.37051931458124" lon="19.98009636985456"><ele>152.0</ele><time>2026-04-27T13:25:58.001Z</time></trkpt><trkpt lat="40.37039573935677" lon="19.97997134342087"><ele>152.0</ele><time>2026-04-27T13:25:59.001Z</time></trkpt><trkpt lat="40.37027744680541" lon="19.979851661750367"><ele>152.0</ele><time>2026-04-27T13:26:00.001Z</time></trkpt><trkpt lat="40.37011988366038" lon="19.979750699312387"><ele>152.0</ele><time>2026-04-27T13:26:01.001Z</time></trkpt><trkpt lat="40.3699586519361" lon="19.97965084580177"><ele>152.0</ele><time>2026-04-27T13:26:02.001Z</time></trkpt><trkpt lat="40.36978004772151" lon="19.979537201199243"><ele>152.0</ele><time>2026-04-27T13:26:03.001Z</time></trkpt><trkpt lat="40.36959514044117" lon="19.979420756959605"><ele>152.0</ele><time>2026-04-27T13:26:04.001Z</time></trkpt><trkpt lat="40.3694282644139" lon="19.979316364914265"><ele>152.25</ele><time>2026-04-27T13:26:05.001Z</time></trkpt><trkpt lat="40.36928296419826" lon="19.979231669400328"><ele>152.5</ele><time>2026-04-27T13:26:06.001Z</time></trkpt><trkpt lat="40.369148096233616" lon="19.97915330646621"><ele>152.75</ele><time>2026-04-27T13:26:07.001Z</time></trkpt><trkpt lat="40.36901785965534" lon="19.97907834590643"><ele>153.0</ele><time>2026-04-27T13:26:08.001Z</time></trkpt><trkpt lat="40.368895506700866" lon="19.979007821017177"><ele>150.25</ele><time>2026-04-27T13:26:09.001Z</time></trkpt><trkpt lat="40.36877915537746" lon="19.978940578041122"><ele>147.5</ele><time>2026-04-27T13:26:10.001Z</time></trkpt><trkpt lat="40.36866187026349" lon="19.978872796764964"><ele>144.75</ele><time>2026-04-27T13:26:11.001Z</time></trkpt><trkpt lat="40.36858942154074" lon="19.97873829902349"><ele>142.0</ele><time>2026-04-27T13:26:12.001Z</time></trkpt><trkpt lat="40.36853009557708" lon="19.978579531327135"><ele>142.0</ele><time>2026-04-27T13:26:13.001Z</time></trkpt><trkpt lat="40.368444417761616" lon="19.978359886952454"><ele>142.0</ele><time>2026-04-27T13:26:14.001Z</time></trkpt><trkpt lat="40.368373531448185" lon="19.978121099333595"><ele>142.0</ele><time>2026-04-27T13:26:15.001Z</time></trkpt><trkpt lat="40.36831750509929" lon="19.977882226969403"><ele>144.66666666666669</ele><time>2026-04-27T13:26:16.001Z</time></trkpt><trkpt lat="40.36827690380991" lon="19.977655393656104"><ele>147.33333333333334</ele><time>2026-04-27T13:26:17.001Z</time></trkpt><trkpt lat="40.36823949334653" lon="19.977446793784043"><ele>150.0</ele><time>2026-04-27T13:26:18.001Z</time></trkpt><trkpt lat="40.36819920209779" lon="19.977226646605878"><ele>151.33333333333334</ele><time>2026-04-27T13:26:19.001Z</time></trkpt><trkpt lat="40.36815492835596" lon="19.976982321767583"><ele>152.66666666666669</ele><time>2026-04-27T13:26:20.001Z</time></trkpt><trkpt lat="40.368108333386914" lon="19.97672192757925"><ele>154.0</ele><time>2026-04-27T13:26:21.001Z</time></trkpt><trkpt lat="40.36805860637732" lon="19.976447730136783"><ele>147.5</ele><time>2026-04-27T13:26:22.001Z</time></trkpt><trkpt lat="40.36800581084384" lon="19.976157751019606"><ele>141.0</ele><time>2026-04-27T13:26:23.001Z</time></trkpt><trkpt lat="40.36795412305111" lon="19.975870340282995"><ele>140.66666666666666</ele><time>2026-04-27T13:26:24.001Z</time></trkpt><trkpt lat="40.36790533220552" lon="19.975601451071906"><ele>140.33333333333331</ele><time>2026-04-27T13:26:25.001Z</time></trkpt><trkpt lat="40.36785926295724" lon="19.975345725148905"><ele>140.0</ele><time>2026-04-27T13:26:26.001Z</time></trkpt><trkpt lat="40.36781317761114" lon="19.975093252832387"><ele>140.33333333333331</ele><time>2026-04-27T13:26:27.001Z</time></trkpt><trkpt lat="40.36777040685783" lon="19.974856111085053"><ele>140.66666666666666</ele><time>2026-04-27T13:26:28.001Z</time></trkpt><trkpt lat="40.36773186533299" lon="19.97464123744178"><ele>141.0</ele><time>2026-04-27T13:26:29.001Z</time></trkpt><trkpt lat="40.367679313065636" lon="19.974431323800758"><ele>141.0</ele><time>2026-04-27T13:26:30.001Z</time></trkpt><trkpt lat="40.367702913403285" lon="19.97421221455288"><ele>141.0</ele><time>2026-04-27T13:26:31.001Z</time></trkpt><trkpt lat="40.36770945961474" lon="19.973974696873814"><ele>141.0</ele><time>2026-04-27T13:26:32.001Z</time></trkpt><trkpt lat="40.367716479527516" lon="19.97372936647589"><ele>141.0</ele><time>2026-04-27T13:26:33.001Z</time></trkpt><trkpt lat="40.36772324768949" lon="19.973477676761654"><ele>141.0</ele><time>2026-04-27T13:26:34.001Z</time></trkpt><trkpt lat="40.367730202757855" lon="19.973240725987118"><ele>141.0</ele><time>2026-04-27T13:26:35.001Z</time></trkpt><trkpt lat="40.36773674658311" lon="19.973010386421528"><ele>141.0</ele><time>2026-04-27T13:26:36.001Z</time></trkpt><trkpt lat="40.36761517905235" lon="19.972731128968743"><ele>141.0</ele><time>2026-04-27T13:26:37.001Z</time></trkpt><trkpt lat="40.36753463589829" lon="19.972478831125063"><ele>141.66666666666666</ele><time>2026-04-27T13:26:38.001Z</time></trkpt><trkpt lat="40.36745037468266" lon="19.972215979207625"><ele>142.33333333333331</ele><time>2026-04-27T13:26:39.001Z</time></trkpt><trkpt lat="40.36736964851972" lon="19.971963624354572"><ele>143.0</ele><time>2026-04-27T13:26:40.001Z</time></trkpt><trkpt lat="40.36729862777745" lon="19.971740835729182"><ele>145.33333333333331</ele><time>2026-04-27T13:26:41.001Z</time></trkpt><trkpt lat="40.36723232716246" lon="19.971533712912425"><ele>147.66666666666666</ele><time>2026-04-27T13:26:42.001Z</time></trkpt><trkpt lat="40.367171789271374" lon="19.97134363352912"><ele>150.0</ele><time>2026-04-27T13:26:43.001Z</time></trkpt><trkpt lat="40.36708867199456" lon="19.971173238203416"><ele>145.66666666666666</ele><time>2026-04-27T13:26:44.001Z</time></trkpt><trkpt lat="40.36702118556007" lon="19.970990958379957"><ele>141.33333333333331</ele><time>2026-04-27T13:26:45.001Z</time></trkpt><trkpt lat="40.36693272327655" lon="19.970803047390103"><ele>137.0</ele><time>2026-04-27T13:26:46.001Z</time></trkpt><trkpt lat="40.36683159693073" lon="19.970633629447526"><ele>137.0</ele><time>2026-04-27T13:26:47.001Z</time></trkpt><trkpt lat="40.36674176621827" lon="19.970484250330234"><ele>137.0</ele><time>2026-04-27T13:26:48.001Z</time></trkpt><trkpt lat="40.366676981052635" lon="19.970337436900298"><ele>137.0</ele><time>2026-04-27T13:26:49.001Z</time></trkpt><trkpt lat="40.36666609035878" lon="19.970162400819195"><ele>137.0</ele><time>2026-04-27T13:26:50.001Z</time></trkpt><trkpt lat="40.36670815173377" lon="19.969987446601035"><ele>139.66666666666666</ele><time>2026-04-27T13:26:51.001Z</time></trkpt><trkpt lat="40.366735640569495" lon="19.96976887931375"><ele>142.33333333333334</ele><time>2026-04-27T13:26:52.001Z</time></trkpt><trkpt lat="40.36676131240623" lon="19.96952933521874"><ele>145.0</ele><time>2026-04-27T13:26:53.001Z</time></trkpt><trkpt lat="40.36676277090084" lon="19.969310768974374"><ele>145.0</ele><time>2026-04-27T13:26:54.001Z</time></trkpt><trkpt lat="40.3667364000783" lon="19.96912230966046"><ele>145.0</ele><time>2026-04-27T13:26:55.001Z</time></trkpt><trkpt lat="40.36668066973008" lon="19.968935697430737"><ele>145.0</ele><time>2026-04-27T13:26:56.001Z</time></trkpt><trkpt lat="40.36662469053368" lon="19.968728017921055"><ele>145.0</ele><time>2026-04-27T13:26:57.001Z</time></trkpt><trkpt lat="40.366556153042254" lon="19.968511930755845"><ele>145.0</ele><time>2026-04-27T13:26:58.001Z</time></trkpt><trkpt lat="40.366487094130406" lon="19.968306937229617"><ele>145.0</ele><time>2026-04-27T13:26:59.001Z</time></trkpt><trkpt lat="40.36645733013067" lon="19.96810534919879"><ele>146.0</ele><time>2026-04-27T13:27:00.001Z</time></trkpt><trkpt lat="40.36642356076506" lon="19.967901472825215"><ele>147.0</ele><time>2026-04-27T13:27:01.001Z</time></trkpt><trkpt lat="40.36640761372677" lon="19.967685270290385"><ele>148.0</ele><time>2026-04-27T13:27:02.001Z</time></trkpt><trkpt lat="40.3664004734382" lon="19.96746185027038"><ele>149.66666666666669</ele><time>2026-04-27T13:27:03.001Z</time></trkpt><trkpt lat="40.36639278337984" lon="19.967239213671842"><ele>151.33333333333334</ele><time>2026-04-27T13:27:04.001Z</time></trkpt><trkpt lat="40.366385789002855" lon="19.967036717865703"><ele>153.0</ele><time>2026-04-27T13:27:05.001Z</time></trkpt><trkpt lat="40.36638596696614" lon="19.966863204432563"><ele>153.0</ele><time>2026-04-27T13:27:06.001Z</time></trkpt><trkpt lat="40.36640525423261" lon="19.96669793468336"><ele>153.0</ele><time>2026-04-27T13:27:07.001Z</time></trkpt><trkpt lat="40.36640766003392" lon="19.966537582492172"><ele>153.0</ele><time>2026-04-27T13:27:08.001Z</time></trkpt><trkpt lat="40.366404386039136" lon="19.966373314905262"><ele>153.0</ele><time>2026-04-27T13:27:09.001Z</time></trkpt><trkpt lat="40.36640108800992" lon="19.96620286290713"><ele>153.75</ele><time>2026-04-27T13:27:10.001Z</time></trkpt><trkpt lat="40.36639738697628" lon="19.966030559949733"><ele>154.5</ele><time>2026-04-27T13:27:11.001Z</time></trkpt><trkpt lat="40.36639383516086" lon="19.965849308683907"><ele>155.25</ele><time>2026-04-27T13:27:12.001Z</time></trkpt><trkpt lat="40.36639196912511" lon="19.965677821404086"><ele>156.0</ele><time>2026-04-27T13:27:13.001Z</time></trkpt><trkpt lat="40.366368170253715" lon="19.965508620461076"><ele>149.75</ele><time>2026-04-27T13:27:14.001Z</time></trkpt><trkpt lat="40.366329102264" lon="19.96533426613345"><ele>143.5</ele><time>2026-04-27T13:27:15.001Z</time></trkpt><trkpt lat="40.36628596584275" lon="19.96517220505288"><ele>137.25</ele><time>2026-04-27T13:27:16.001Z</time></trkpt><trkpt lat="40.36621411794318" lon="19.96502863737556"><ele>131.0</ele><time>2026-04-27T13:27:17.001Z</time></trkpt><trkpt lat="40.36614804202947" lon="19.96489546758803"><ele>131.0</ele><time>2026-04-27T13:27:18.001Z</time></trkpt><trkpt lat="40.3660840215119" lon="19.9647668350936"><ele>131.0</ele><time>2026-04-27T13:27:19.001Z</time></trkpt><trkpt lat="40.36604413169289" lon="19.964626180989875"><ele>131.0</ele><time>2026-04-27T13:27:20.001Z</time></trkpt><trkpt lat="40.366045860059906" lon="19.964464126056793"><ele>131.0</ele><time>2026-04-27T13:27:21.001Z</time></trkpt><trkpt lat="40.36606481366569" lon="19.964282923902683"><ele>131.33333333333331</ele><time>2026-04-27T13:27:22.001Z</time></trkpt><trkpt lat="40.36608322172148" lon="19.964090118320946"><ele>131.66666666666666</ele><time>2026-04-27T13:27:23.001Z</time></trkpt><trkpt lat="40.36609309465484" lon="19.963882551352793"><ele>132.0</ele><time>2026-04-27T13:27:24.001Z</time></trkpt><trkpt lat="40.36605054867391" lon="19.96366277475712"><ele>132.0</ele><time>2026-04-27T13:27:25.001Z</time></trkpt><trkpt lat="40.36597810185343" lon="19.96345385173122"><ele>132.0</ele><time>2026-04-27T13:27:26.001Z</time></trkpt><trkpt lat="40.36590521612324" lon="19.96324128066038"><ele>132.0</ele><time>2026-04-27T13:27:27.001Z</time></trkpt><trkpt lat="40.36582949211097" lon="19.963023332483328"><ele>133.0</ele><time>2026-04-27T13:27:28.001Z</time></trkpt><trkpt lat="40.365755920034054" lon="19.962812196786146"><ele>134.0</ele><time>2026-04-27T13:27:29.001Z</time></trkpt><trkpt lat="40.365691046628115" lon="19.962625943703994"><ele>135.0</ele><time>2026-04-27T13:27:30.001Z</time></trkpt><trkpt lat="40.365621856107964" lon="19.962438054735216"><ele>136.0</ele><time>2026-04-27T13:27:31.001Z</time></trkpt><trkpt lat="40.36553155239722" lon="19.962257015953313"><ele>137.0</ele><time>2026-04-27T13:27:32.001Z</time></trkpt><trkpt lat="40.365394032769316" lon="19.962094858734705"><ele>138.0</ele><time>2026-04-27T13:27:33.001Z</time></trkpt><trkpt lat="40.36524226390926" lon="19.961967164230423"><ele>135.33333333333334</ele><time>2026-04-27T13:27:34.001Z</time></trkpt><trkpt lat="40.36508176092742" lon="19.961879166242298"><ele>132.66666666666669</ele><time>2026-04-27T13:27:35.001Z</time></trkpt><trkpt lat="40.36491641589464" lon="19.961816207028782"><ele>130.0</ele><time>2026-04-27T13:27:36.001Z</time></trkpt><trkpt lat="40.364735302618854" lon="19.961805118434015"><ele>130.4</ele><time>2026-04-27T13:27:37.001Z</time></trkpt><trkpt lat="40.364594288713874" lon="19.961805118437276"><ele>130.8</ele><time>2026-04-27T13:27:38.001Z</time></trkpt><trkpt lat="40.36449593644819" lon="19.961805119981044"><ele>131.2</ele><time>2026-04-27T13:27:39.001Z</time></trkpt><trkpt lat="40.36442289317693" lon="19.961770227349145"><ele>131.6</ele><time>2026-04-27T13:27:40.001Z</time></trkpt><trkpt lat="40.36434162677771" lon="19.96172004921794"><ele>132.0</ele><time>2026-04-27T13:27:41.001Z</time></trkpt><trkpt lat="40.3642336068653" lon="19.961651272784252"><ele>131.66666666666666</ele><time>2026-04-27T13:27:42.001Z</time></trkpt><trkpt lat="40.36410282556188" lon="19.961568004129"><ele>131.33333333333331</ele><time>2026-04-27T13:27:43.001Z</time></trkpt><trkpt lat="40.36394906992777" lon="19.961464643361307"><ele>131.0</ele><time>2026-04-27T13:27:44.001Z</time></trkpt><trkpt lat="40.363793654116755" lon="19.961356614410914"><ele>131.0</ele><time>2026-04-27T13:27:45.001Z</time></trkpt><trkpt lat="40.36364225680747" lon="19.96127455252592"><ele>131.0</ele><time>2026-04-27T13:27:46.001Z</time></trkpt><trkpt lat="40.363506350917135" lon="19.9611772575944"><ele>131.0</ele><time>2026-04-27T13:27:47.001Z</time></trkpt><trkpt lat="40.36338101466633" lon="19.961050614850862"><ele>131.0</ele><time>2026-04-27T13:27:48.001Z</time></trkpt><trkpt lat="40.36327698598412" lon="19.960914509349752"><ele>131.0</ele><time>2026-04-27T13:27:49.001Z</time></trkpt><trkpt lat="40.363201735676746" lon="19.960766628168397"><ele>131.0</ele><time>2026-04-27T13:27:50.001Z</time></trkpt><trkpt lat="40.36312641763472" lon="19.960702596914878"><ele>131.0</ele><time>2026-04-27T13:27:51.001Z</time></trkpt><trkpt lat="40.36308001305503" lon="19.96062253892914"><ele>131.0</ele><time>2026-04-27T13:27:52.001Z</time></trkpt><trkpt lat="40.36297061332792" lon="19.960693087925982"><ele>130.0</ele><time>2026-04-27T13:27:53.001Z</time></trkpt><trkpt lat="40.36288263854464" lon="19.960767293443226"><ele>129.0</ele><time>2026-04-27T13:27:54.001Z</time></trkpt><trkpt lat="40.36279637623035" lon="19.9608864972376"><ele>128.0</ele><time>2026-04-27T13:27:55.001Z</time></trkpt><trkpt lat="40.36268710993588" lon="19.96101428644461"><ele>127.0</ele><time>2026-04-27T13:27:56.001Z</time></trkpt><trkpt lat="40.36254881310206" lon="19.961088400258806"><ele>127.0</ele><time>2026-04-27T13:27:57.001Z</time></trkpt><trkpt lat="40.36237572915123" lon="19.961156546429077"><ele>127.0</ele><time>2026-04-27T13:27:58.001Z</time></trkpt><trkpt lat="40.36220861251646" lon="19.961209134367227"><ele>127.0</ele><time>2026-04-27T13:27:59.001Z</time></trkpt><trkpt lat="40.362076203945065" lon="19.96123842403626"><ele>126.75</ele><time>2026-04-27T13:28:00.001Z</time></trkpt><trkpt lat="40.36195988608567" lon="19.961252143616473"><ele>126.5</ele><time>2026-04-27T13:28:01.001Z</time></trkpt><trkpt lat="40.361826447712254" lon="19.961242491345153"><ele>126.25</ele><time>2026-04-27T13:28:02.001Z</time></trkpt><trkpt lat="40.36168667583234" lon="19.961210302273482"><ele>126.0</ele><time>2026-04-27T13:28:03.001Z</time></trkpt><trkpt lat="40.36153915503642" lon="19.961160760590204"><ele>126.0</ele><time>2026-04-27T13:28:04.001Z</time></trkpt><trkpt lat="40.36139759937264" lon="19.961104804036303"><ele>126.0</ele><time>2026-04-27T13:28:05.001Z</time></trkpt><trkpt lat="40.361274374963" lon="19.96105202338692"><ele>126.0</ele><time>2026-04-27T13:28:06.001Z</time></trkpt><trkpt lat="40.36116561869298" lon="19.96099409057861"><ele>126.0</ele><time>2026-04-27T13:28:07.001Z</time></trkpt><trkpt lat="40.36106922455631" lon="19.960925059960292"><ele>126.25</ele><time>2026-04-27T13:28:08.001Z</time></trkpt><trkpt lat="40.360974783480664" lon="19.960842831109186"><ele>126.5</ele><time>2026-04-27T13:28:09.001Z</time></trkpt><trkpt lat="40.36088583336407" lon="19.960749156457396"><ele>126.75</ele><time>2026-04-27T13:28:10.001Z</time></trkpt><trkpt lat="40.360803335385235" lon="19.960635909726278"><ele>127.0</ele><time>2026-04-27T13:28:11.001Z</time></trkpt><trkpt lat="40.36072734812379" lon="19.96051580036062"><ele>127.0</ele><time>2026-04-27T13:28:12.001Z</time></trkpt><trkpt lat="40.3606530840583" lon="19.960416633908867"><ele>126.99999999999999</ele><time>2026-04-27T13:28:13.001Z</time></trkpt><trkpt lat="40.3605676739973" lon="19.960337974362382"><ele>126.99999999999999</ele><time>2026-04-27T13:28:14.001Z</time></trkpt><trkpt lat="40.36048148653653" lon="19.960275832495068"><ele>127.0</ele><time>2026-04-27T13:28:15.001Z</time></trkpt><trkpt lat="40.360398597537696" lon="19.960199963680015"><ele>127.0</ele><time>2026-04-27T13:28:16.001Z</time></trkpt><trkpt lat="40.36031946452274" lon="19.96010619466268"><ele>126.25</ele><time>2026-04-27T13:28:17.001Z</time></trkpt><trkpt lat="40.360214280889245" lon="19.960027977636962"><ele>125.5</ele><time>2026-04-27T13:28:18.001Z</time></trkpt><trkpt lat="40.360168990397504" lon="19.959864426672198"><ele>124.75</ele><time>2026-04-27T13:28:19.001Z</time></trkpt><trkpt lat="40.36010899569897" lon="19.959700925583416"><ele>124.0</ele><time>2026-04-27T13:28:20.001Z</time></trkpt><trkpt lat="40.36005221616554" lon="19.959560530727266"><ele>124.0</ele><time>2026-04-27T13:28:21.001Z</time></trkpt><trkpt lat="40.35999158517722" lon="19.959454237801683"><ele>124.0</ele><time>2026-04-27T13:28:22.001Z</time></trkpt><trkpt lat="40.35988898519136" lon="19.959395075867928"><ele>124.0</ele><time>2026-04-27T13:28:23.001Z</time></trkpt><trkpt lat="40.3597762507121" lon="19.959346878521004"><ele>124.0</ele><time>2026-04-27T13:28:24.001Z</time></trkpt><trkpt lat="40.359654242158776" lon="19.959309915076147"><ele>122.80000000000001</ele><time>2026-04-27T13:28:25.001Z</time></trkpt><trkpt lat="40.359539820000585" lon="19.95926340588193"><ele>121.60000000000001</ele><time>2026-04-27T13:28:26.001Z</time></trkpt><trkpt lat="40.35944888464173" lon="19.95923410561195"><ele>120.4</ele><time>2026-04-27T13:28:27.001Z</time></trkpt><trkpt lat="40.35935451047285" lon="19.95924280266014"><ele>119.2</ele><time>2026-04-27T13:28:28.001Z</time></trkpt><trkpt lat="40.35926108343837" lon="19.959304564047287"><ele>118.0</ele><time>2026-04-27T13:28:29.001Z</time></trkpt><trkpt lat="40.35916560979146" lon="19.959404033859087"><ele>118.0</ele><time>2026-04-27T13:28:30.001Z</time></trkpt><trkpt lat="40.35906065210656" lon="19.95949058197903"><ele>118.0</ele><time>2026-04-27T13:28:31.001Z</time></trkpt><trkpt lat="40.358947317067056" lon="19.959520165040708"><ele>118.0</ele><time>2026-04-27T13:28:32.001Z</time></trkpt><trkpt lat="40.35882730058548" lon="19.959490511760425"><ele>118.0</ele><time>2026-04-27T13:28:33.001Z</time></trkpt><trkpt lat="40.35870114415199" lon="19.959403558119423"><ele>116.66666666666667</ele><time>2026-04-27T13:28:34.001Z</time></trkpt><trkpt lat="40.35856117501706" lon="19.959319188502704"><ele>115.33333333333334</ele><time>2026-04-27T13:28:35.001Z</time></trkpt><trkpt lat="40.35840839172473" lon="19.95923644492853"><ele>114.0</ele><time>2026-04-27T13:28:36.001Z</time></trkpt><trkpt lat="40.35825499608147" lon="19.95913425187461"><ele>114.66666666666666</ele><time>2026-04-27T13:28:37.001Z</time></trkpt><trkpt lat="40.358092769081885" lon="19.959037556524915"><ele>115.33333333333333</ele><time>2026-04-27T13:28:38.002Z</time></trkpt><trkpt lat="40.35792086768887" lon="19.958930744585395"><ele>116.0</ele><time>2026-04-27T13:28:39.001Z</time></trkpt><trkpt lat="40.357742837230326" lon="19.95882053647808"><ele>116.0</ele><time>2026-04-27T13:28:40.001Z</time></trkpt><trkpt lat="40.357555947171385" lon="19.958711095960595"><ele>116.0</ele><time>2026-04-27T13:28:41.001Z</time></trkpt><trkpt lat="40.35738864514974" lon="19.958611394063734"><ele>116.0</ele><time>2026-04-27T13:28:42.001Z</time></trkpt><trkpt lat="40.35723493100087" lon="19.958518230650284"><ele>115.66666666666666</ele><time>2026-04-27T13:28:43.001Z</time></trkpt><trkpt lat="40.357091175814965" lon="19.9584344512927"><ele>115.33333333333334</ele><time>2026-04-27T13:28:44.001Z</time></trkpt><trkpt lat="40.3569481327773" lon="19.95835372306863"><ele>115.0</ele><time>2026-04-27T13:28:45.001Z</time></trkpt><trkpt lat="40.356800793636374" lon="19.958268578017528"><ele>115.0</ele><time>2026-04-27T13:28:46.001Z</time></trkpt><trkpt lat="40.35665022487228" lon="19.958185143502586"><ele>115.0</ele><time>2026-04-27T13:28:47.001Z</time></trkpt><trkpt lat="40.35649789782788" lon="19.958092290426464"><ele>115.0</ele><time>2026-04-27T13:28:48.001Z</time></trkpt><trkpt lat="40.356340131317914" lon="19.957996979546145"><ele>115.0</ele><time>2026-04-27T13:28:49.001Z</time></trkpt><trkpt lat="40.35619422527526" lon="19.9578843265128"><ele>115.0</ele><time>2026-04-27T13:28:50.001Z</time></trkpt><trkpt lat="40.35604817075067" lon="19.957817470139357"><ele>115.0</ele><time>2026-04-27T13:28:51.001Z</time></trkpt><trkpt lat="40.35591939129817" lon="19.957737289351744"><ele>115.0</ele><time>2026-04-27T13:28:52.001Z</time></trkpt><trkpt lat="40.35578697728395" lon="19.957653497569385"><ele>115.0</ele><time>2026-04-27T13:28:53.001Z</time></trkpt><trkpt lat="40.3556571274035" lon="19.957572524647727"><ele>115.0</ele><time>2026-04-27T13:28:54.001Z</time></trkpt><trkpt lat="40.355540759722274" lon="19.957528068995256"><ele>115.0</ele><time>2026-04-27T13:28:55.001Z</time></trkpt><trkpt lat="40.355426197407375" lon="19.957507164006355"><ele>114.8</ele><time>2026-04-27T13:28:56.001Z</time></trkpt><trkpt lat="40.35531830540218" lon="19.957489226393836"><ele>114.6</ele><time>2026-04-27T13:28:57.001Z</time></trkpt><trkpt lat="40.35522899307521" lon="19.957442239816633"><ele>114.4</ele><time>2026-04-27T13:28:58.001Z</time></trkpt><trkpt lat="40.355147336760346" lon="19.95734520289357"><ele>114.2</ele><time>2026-04-27T13:28:59.001Z</time></trkpt><trkpt lat="40.35513730554539" lon="19.957199848379947"><ele>114.0</ele><time>2026-04-27T13:29:00.001Z</time></trkpt><trkpt lat="40.355146322747686" lon="19.957066084770663"><ele>114.0</ele><time>2026-04-27T13:29:01.001Z</time></trkpt><trkpt lat="40.35518298955451" lon="19.9569145934148"><ele>114.0</ele><time>2026-04-27T13:29:02.001Z</time></trkpt><trkpt lat="40.355234634679015" lon="19.956728117050602"><ele>114.0</ele><time>2026-04-27T13:29:03.001Z</time></trkpt><trkpt lat="40.355307389535625" lon="19.956520153614928"><ele>114.0</ele><time>2026-04-27T13:29:04.001Z</time></trkpt><trkpt lat="40.35537470939373" lon="19.95632782643864"><ele>114.25</ele><time>2026-04-27T13:29:05.001Z</time></trkpt><trkpt lat="40.35542979844418" lon="19.956168313508257"><ele>114.5</ele><time>2026-04-27T13:29:06.001Z</time></trkpt><trkpt lat="40.35546705804981" lon="19.956020803578607"><ele>114.75</ele><time>2026-04-27T13:29:07.001Z</time></trkpt><trkpt lat="40.355466541431326" lon="19.95587521107554"><ele>115.0</ele><time>2026-04-27T13:29:08.001Z</time></trkpt><trkpt lat="40.35544868556498" lon="19.955738439287035"><ele>115.0</ele><time>2026-04-27T13:29:09.001Z</time></trkpt><trkpt lat="40.35537863994327" lon="19.95558965855816"><ele>115.0</ele><time>2026-04-27T13:29:10.001Z</time></trkpt><trkpt lat="40.35527267925502" lon="19.955467643641473"><ele>115.0</ele><time>2026-04-27T13:29:11.001Z</time></trkpt><trkpt lat="40.355134544793884" lon="19.955399486162644"><ele>115.0</ele><time>2026-04-27T13:29:12.001Z</time></trkpt><trkpt lat="40.35504780063437" lon="19.955287722630526"><ele>115.0</ele><time>2026-04-27T13:29:13.001Z</time></trkpt><trkpt lat="40.3549716600304" lon="19.955159527520212"><ele>115.0</ele><time>2026-04-27T13:29:14.001Z</time></trkpt><trkpt lat="40.35492000327646" lon="19.955007688332845"><ele>115.0</ele><time>2026-04-27T13:29:15.001Z</time></trkpt><trkpt lat="40.35485366416342" lon="19.95480941021874"><ele>115.0</ele><time>2026-04-27T13:29:16.001Z</time></trkpt><trkpt lat="40.35476111202188" lon="19.95463938122924"><ele>113.0</ele><time>2026-04-27T13:29:17.001Z</time></trkpt><trkpt lat="40.3546175447117" lon="19.95449661301867"><ele>111.0</ele><time>2026-04-27T13:29:18.001Z</time></trkpt><trkpt lat="40.35448695412935" lon="19.954358532769028"><ele>109.0</ele><time>2026-04-27T13:29:19.001Z</time></trkpt><trkpt lat="40.35437908301544" lon="19.954233321130403"><ele>113.66666666666667</ele><time>2026-04-27T13:29:20.001Z</time></trkpt><trkpt lat="40.35427438398249" lon="19.9540712996317"><ele>118.33333333333334</ele><time>2026-04-27T13:29:21.001Z</time></trkpt><trkpt lat="40.35418371807424" lon="19.953892502990783"><ele>123.0</ele><time>2026-04-27T13:29:22.001Z</time></trkpt><trkpt lat="40.354072396812384" lon="19.953674146556295"><ele>123.0</ele><time>2026-04-27T13:29:23.001Z</time></trkpt><trkpt lat="40.35396700066388" lon="19.953468394856078"><ele>123.0</ele><time>2026-04-27T13:29:24.001Z</time></trkpt><trkpt lat="40.35387568156839" lon="19.953288255586532"><ele>123.0</ele><time>2026-04-27T13:29:25.001Z</time></trkpt><trkpt lat="40.35379032380506" lon="19.953120303066534"><ele>120.0</ele><time>2026-04-27T13:29:26.001Z</time></trkpt><trkpt lat="40.35371554286554" lon="19.952974232908236"><ele>117.0</ele><time>2026-04-27T13:29:27.001Z</time></trkpt><trkpt lat="40.353650486035285" lon="19.952847156909538"><ele>114.0</ele><time>2026-04-27T13:29:28.001Z</time></trkpt><trkpt lat="40.35358008428899" lon="19.952731007284473"><ele>111.0</ele><time>2026-04-27T13:29:29.001Z</time></trkpt><trkpt lat="40.35351370737115" lon="19.952637321183964"><ele>111.0</ele><time>2026-04-27T13:29:30.001Z</time></trkpt><trkpt lat="40.353424004535256" lon="19.952599587035046"><ele>111.0</ele><time>2026-04-27T13:29:31.001Z</time></trkpt><trkpt lat="40.35335005886082" lon="19.952575568868507"><ele>111.0</ele><time>2026-04-27T13:29:32.001Z</time></trkpt><trkpt lat="40.3532789925276" lon="19.952552796336224"><ele>111.0</ele><time>2026-04-27T13:29:34.001Z</time></trkpt><trkpt lat="40.35320439826634" lon="19.95270901305794"><ele>111.0</ele><time>2026-04-27T13:29:37.001Z</time></trkpt><trkpt lat="40.3531888263894" lon="19.952814855114326"><ele>111.0</ele><time>2026-04-27T13:29:38.001Z</time></trkpt><trkpt lat="40.35318234547658" lon="19.952935134912344"><ele>111.0</ele><time>2026-04-27T13:29:39.001Z</time></trkpt><trkpt lat="40.35316629309465" lon="19.95307401818034"><ele>111.0</ele><time>2026-04-27T13:29:40.001Z</time></trkpt><trkpt lat="40.353135643247015" lon="19.95322686994352"><ele>111.0</ele><time>2026-04-27T13:29:41.001Z</time></trkpt><trkpt lat="40.35308942840904" lon="19.95339077989506"><ele>109.0</ele><time>2026-04-27T13:29:42.001Z</time></trkpt><trkpt lat="40.353029935909206" lon="19.953581193480403"><ele>107.0</ele><time>2026-04-27T13:29:43.001Z</time></trkpt><trkpt lat="40.35295545937327" lon="19.953816991561478"><ele>105.0</ele><time>2026-04-27T13:29:44.001Z</time></trkpt><trkpt lat="40.35285620609239" lon="19.954111312410145"><ele>104.5</ele><time>2026-04-27T13:29:45.001Z</time></trkpt><trkpt lat="40.35274416631906" lon="19.954434846585468"><ele>104.0</ele><time>2026-04-27T13:29:46.001Z</time></trkpt><trkpt lat="40.35262542763062" lon="19.954780650186287"><ele>105.0</ele><time>2026-04-27T13:29:47.001Z</time></trkpt><trkpt lat="40.35251217721083" lon="19.955097403519737"><ele>106.0</ele><time>2026-04-27T13:29:48.001Z</time></trkpt><trkpt lat="40.3524081538145" lon="19.955378322273138"><ele>106.0</ele><time>2026-04-27T13:29:49.001Z</time></trkpt><trkpt lat="40.352314269913315" lon="19.955641145664526"><ele>106.0</ele><time>2026-04-27T13:29:50.001Z</time></trkpt><trkpt lat="40.3522323600191" lon="19.95588407576834"><ele>106.0</ele><time>2026-04-27T13:29:51.001Z</time></trkpt><trkpt lat="40.35216025844558" lon="19.95611488151301"><ele>105.66666666666667</ele><time>2026-04-27T13:29:52.001Z</time></trkpt><trkpt lat="40.3520954621288" lon="19.95634372241533"><ele>105.33333333333334</ele><time>2026-04-27T13:29:53.001Z</time></trkpt><trkpt lat="40.35205458784788" lon="19.95656616820634"><ele>105.0</ele><time>2026-04-27T13:29:54.001Z</time></trkpt><trkpt lat="40.35202780981877" lon="19.956795922176585"><ele>105.0</ele><time>2026-04-27T13:29:55.001Z</time></trkpt><trkpt lat="40.35201659995119" lon="19.957038122224922"><ele>105.0</ele><time>2026-04-27T13:29:56.001Z</time></trkpt><trkpt lat="40.35201693291351" lon="19.95729152472623"><ele>105.0</ele><time>2026-04-27T13:29:57.001Z</time></trkpt><trkpt lat="40.35202692819901" lon="19.957556135705318"><ele>104.66666666666666</ele><time>2026-04-27T13:29:58.001Z</time></trkpt><trkpt lat="40.352038636075605" lon="19.957830929562796"><ele>104.33333333333333</ele><time>2026-04-27T13:29:59.001Z</time></trkpt><trkpt lat="40.35204787036315" lon="19.95810743998348"><ele>104.0</ele><time>2026-04-27T13:30:00.001Z</time></trkpt><trkpt lat="40.352057281241706" lon="19.958387763305964"><ele>104.0</ele><time>2026-04-27T13:30:01.001Z</time></trkpt><trkpt lat="40.35206813712278" lon="19.958673955909152"><ele>104.0</ele><time>2026-04-27T13:30:02.001Z</time></trkpt><trkpt lat="40.35207863529612" lon="19.95895847253263"><ele>104.0</ele><time>2026-04-27T13:30:03.001Z</time></trkpt><trkpt lat="40.352090251989104" lon="19.959226211218123"><ele>103.66666666666666</ele><time>2026-04-27T13:30:04.001Z</time></trkpt><trkpt lat="40.352101657002414" lon="19.959484914068994"><ele>103.33333333333334</ele><time>2026-04-27T13:30:05.001Z</time></trkpt><trkpt lat="40.352113000782445" lon="19.95973861411772"><ele>103.0</ele><time>2026-04-27T13:30:06.001Z</time></trkpt><trkpt lat="40.35212957046135" lon="19.959986506829733"><ele>103.66666666666667</ele><time>2026-04-27T13:30:07.001Z</time></trkpt><trkpt lat="40.352154235791474" lon="19.960234529288815"><ele>104.33333333333334</ele><time>2026-04-27T13:30:08.001Z</time></trkpt><trkpt lat="40.352203090469025" lon="19.960480831625674"><ele>105.0</ele><time>2026-04-27T13:30:09.001Z</time></trkpt><trkpt lat="40.35227694929954" lon="19.960737043593074"><ele>107.66666666666666</ele><time>2026-04-27T13:30:10.001Z</time></trkpt><trkpt lat="40.352371246803024" lon="19.96098647575689"><ele>110.33333333333333</ele><time>2026-04-27T13:30:11.001Z</time></trkpt><trkpt lat="40.352478754908816" lon="19.961229022154807"><ele>113.0</ele><time>2026-04-27T13:30:12.001Z</time></trkpt><trkpt lat="40.352584509688924" lon="19.961464444111186"><ele>113.0</ele><time>2026-04-27T13:30:13.001Z</time></trkpt><trkpt lat="40.35266478126258" lon="19.961689425306375"><ele>113.0</ele><time>2026-04-27T13:30:14.001Z</time></trkpt><trkpt lat="40.35271079266205" lon="19.961924855319705"><ele>113.0</ele><time>2026-04-27T13:30:15.001Z</time></trkpt><trkpt lat="40.35273314639942" lon="19.96217754946361"><ele>115.0</ele><time>2026-04-27T13:30:16.001Z</time></trkpt><trkpt lat="40.35273559366096" lon="19.962440357011587"><ele>117.0</ele><time>2026-04-27T13:30:17.001Z</time></trkpt><trkpt lat="40.352712575022956" lon="19.962689135021115"><ele>119.0</ele><time>2026-04-27T13:30:18.001Z</time></trkpt><trkpt lat="40.352677344448445" lon="19.962923022677046"><ele>119.33333333333333</ele><time>2026-04-27T13:30:19.001Z</time></trkpt><trkpt lat="40.352665108251195" lon="19.963152983873766"><ele>119.66666666666666</ele><time>2026-04-27T13:30:20.001Z</time></trkpt><trkpt lat="40.352681438800865" lon="19.963396720180395"><ele>120.0</ele><time>2026-04-27T13:30:21.001Z</time></trkpt><trkpt lat="40.35271398455499" lon="19.963656556447724"><ele>120.0</ele><time>2026-04-27T13:30:22.001Z</time></trkpt><trkpt lat="40.35275628050289" lon="19.963918919508153"><ele>120.0</ele><time>2026-04-27T13:30:23.001Z</time></trkpt><trkpt lat="40.35281585396907" lon="19.964190787363883"><ele>120.0</ele><time>2026-04-27T13:30:24.001Z</time></trkpt><trkpt lat="40.35288663334142" lon="19.964470771699663"><ele>116.5</ele><time>2026-04-27T13:30:25.001Z</time></trkpt><trkpt lat="40.35294718866584" lon="19.964767969216226"><ele>113.0</ele><time>2026-04-27T13:30:26.001Z</time></trkpt><trkpt lat="40.35299032553434" lon="19.96507512976129"><ele>111.66666666666666</ele><time>2026-04-27T13:30:27.001Z</time></trkpt><trkpt lat="40.35301284620813" lon="19.965373750702902"><ele>110.33333333333334</ele><time>2026-04-27T13:30:28.001Z</time></trkpt><trkpt lat="40.35304115716653" lon="19.965654692321568"><ele>109.0</ele><time>2026-04-27T13:30:29.001Z</time></trkpt><trkpt lat="40.35307116080804" lon="19.965926463932806"><ele>119.33333333333334</ele><time>2026-04-27T13:30:30.001Z</time></trkpt><trkpt lat="40.353099726321766" lon="19.9661894991388"><ele>129.66666666666666</ele><time>2026-04-27T13:30:31.001Z</time></trkpt><trkpt lat="40.35312092676235" lon="19.96644278858711"><ele>140.0</ele><time>2026-04-27T13:30:32.001Z</time></trkpt><trkpt lat="40.35312857863543" lon="19.966691631048693"><ele>138.66666666666666</ele><time>2026-04-27T13:30:33.001Z</time></trkpt><trkpt lat="40.35311463234136" lon="19.966948241669524"><ele>137.33333333333334</ele><time>2026-04-27T13:30:34.001Z</time></trkpt><trkpt lat="40.35308341978762" lon="19.967191401097878"><ele>136.0</ele><time>2026-04-27T13:30:35.001Z</time></trkpt><trkpt lat="40.3530459506635" lon="19.96741967802406"><ele>127.33333333333334</ele><time>2026-04-27T13:30:36.001Z</time></trkpt><trkpt lat="40.35300458928516" lon="19.96763434343634"><ele>118.66666666666666</ele><time>2026-04-27T13:30:37.001Z</time></trkpt><trkpt lat="40.35296090643284" lon="19.9678506723837"><ele>110.0</ele><time>2026-04-27T13:30:38.001Z</time></trkpt><trkpt lat="40.352932554451165" lon="19.96808064721766"><ele>110.0</ele><time>2026-04-27T13:30:39.001Z</time></trkpt><trkpt lat="40.35292988399179" lon="19.96831883886305"><ele>110.0</ele><time>2026-04-27T13:30:40.001Z</time></trkpt><trkpt lat="40.352947698038626" lon="19.96855372783159"><ele>110.0</ele><time>2026-04-27T13:30:41.001Z</time></trkpt><trkpt lat="40.35298134916075" lon="19.968791295962543"><ele>110.33333333333333</ele><time>2026-04-27T13:30:42.001Z</time></trkpt><trkpt lat="40.353023329668666" lon="19.96903116549526"><ele>110.66666666666666</ele><time>2026-04-27T13:30:43.001Z</time></trkpt><trkpt lat="40.35307129957884" lon="19.969276827838787"><ele>111.0</ele><time>2026-04-27T13:30:44.001Z</time></trkpt><trkpt lat="40.35311874617197" lon="19.96952585766727"><ele>114.66666666666666</ele><time>2026-04-27T13:30:45.001Z</time></trkpt><trkpt lat="40.353158381433076" lon="19.969777127527436"><ele>118.33333333333333</ele><time>2026-04-27T13:30:46.001Z</time></trkpt><trkpt lat="40.35319163404941" lon="19.970026948699527"><ele>122.0</ele><time>2026-04-27T13:30:47.001Z</time></trkpt><trkpt lat="40.35322350446438" lon="19.970261161611084"><ele>122.33333333333333</ele><time>2026-04-27T13:30:48.001Z</time></trkpt><trkpt lat="40.35325255427616" lon="19.97046638819055"><ele>122.66666666666666</ele><time>2026-04-27T13:30:49.001Z</time></trkpt><trkpt lat="40.353276701506" lon="19.97067223266141"><ele>123.0</ele><time>2026-04-27T13:30:50.001Z</time></trkpt><trkpt lat="40.35328714086864" lon="19.97087414035103"><ele>122.5</ele><time>2026-04-27T13:30:51.001Z</time></trkpt><trkpt lat="40.35327288247649" lon="19.97106187527055"><ele>122.0</ele><time>2026-04-27T13:30:52.001Z</time></trkpt><trkpt lat="40.35323654536048" lon="19.97124282501549"><ele>121.5</ele><time>2026-04-27T13:30:53.001Z</time></trkpt><trkpt lat="40.35316555514355" lon="19.971410113395436"><ele>121.0</ele><time>2026-04-27T13:30:54.001Z</time></trkpt><trkpt lat="40.35305574434696" lon="19.97156675153818"><ele>119.66666666666667</ele><time>2026-04-27T13:30:55.001Z</time></trkpt><trkpt lat="40.352906548821636" lon="19.97168963762493"><ele>118.33333333333334</ele><time>2026-04-27T13:30:56.001Z</time></trkpt><trkpt lat="40.352741952905426" lon="19.97182053030784"><ele>117.0</ele><time>2026-04-27T13:30:57.001Z</time></trkpt><trkpt lat="40.35257296295162" lon="19.97196395696938"><ele>117.0</ele><time>2026-04-27T13:30:58.001Z</time></trkpt><trkpt lat="40.3523906233561" lon="19.972103591974097"><ele>117.0</ele><time>2026-04-27T13:30:59.001Z</time></trkpt><trkpt lat="40.352204518607614" lon="19.972258238060572"><ele>117.0</ele><time>2026-04-27T13:31:00.001Z</time></trkpt><trkpt lat="40.35201406330022" lon="19.97241293767785"><ele>113.5</ele><time>2026-04-27T13:31:01.001Z</time></trkpt><trkpt lat="40.35181632982316" lon="19.97256743643444"><ele>110.0</ele><time>2026-04-27T13:31:02.001Z</time></trkpt><trkpt lat="40.35162236853171" lon="19.972715945503293"><ele>110.0</ele><time>2026-04-27T13:31:03.001Z</time></trkpt><trkpt lat="40.35143946998755" lon="19.972859931907376"><ele>110.0</ele><time>2026-04-27T13:31:04.001Z</time></trkpt><trkpt lat="40.35126344631377" lon="19.972998566507957"><ele>110.0</ele><time>2026-04-27T13:31:05.001Z</time></trkpt><trkpt lat="40.351093529722355" lon="19.973130405363705"><ele>110.0</ele><time>2026-04-27T13:31:06.001Z</time></trkpt><trkpt lat="40.3509361792265" lon="19.97325591903889"><ele>110.0</ele><time>2026-04-27T13:31:07.001Z</time></trkpt><trkpt lat="40.35078125109221" lon="19.97337805598842"><ele>110.0</ele><time>2026-04-27T13:31:08.001Z</time></trkpt><trkpt lat="40.35063927769777" lon="19.973494391493293"><ele>112.33333333333333</ele><time>2026-04-27T13:31:09.001Z</time></trkpt><trkpt lat="40.350505541984674" lon="19.973609574577445"><ele>114.66666666666666</ele><time>2026-04-27T13:31:10Z</time></trkpt><trkpt lat="40.35037591823581" lon="19.973726196157752"><ele>117.0</ele><time>2026-04-27T13:31:11Z</time></trkpt><trkpt lat="40.35025871923199" lon="19.97383826979647"><ele>117.0</ele><time>2026-04-27T13:31:12Z</time></trkpt><trkpt lat="40.350151462394216" lon="19.973942794394947"><ele>116.99999999999999</ele><time>2026-04-27T13:31:13Z</time></trkpt><trkpt lat="40.35005037479694" lon="19.974026381792257"><ele>116.99999999999999</ele><time>2026-04-27T13:31:14Z</time></trkpt><trkpt lat="40.34996580792112" lon="19.97409531812515"><ele>117.0</ele><time>2026-04-27T13:31:15Z</time></trkpt><trkpt lat="40.34989579552175" lon="19.97415463247753"><ele>117.0</ele><time>2026-04-27T13:31:16Z</time></trkpt><trkpt lat="40.349836337540104" lon="19.974206544585428"><ele>117.16666666666667</ele><time>2026-04-27T13:31:17Z</time></trkpt><trkpt lat="40.349785175601916" lon="19.97426096670609"><ele>117.33333333333334</ele><time>2026-04-27T13:31:18Z</time></trkpt><trkpt lat="40.34972464704996" lon="19.97434055959323"><ele>117.5</ele><time>2026-04-27T13:31:20Z</time></trkpt><trkpt lat="40.34967760801591" lon="19.9743964877103"><ele>117.66666666666667</ele><time>2026-04-27T13:31:23Z</time></trkpt><trkpt lat="40.349632621855754" lon="19.974238200454817"><ele>117.83333333333334</ele><time>2026-04-27T13:31:27Z</time></trkpt><trkpt lat="40.349592521182956" lon="19.974132027741945"><ele>118.0</ele><time>2026-04-27T13:31:28Z</time></trkpt><trkpt lat="40.349569762790374" lon="19.974014107121437"><ele>121.25</ele><time>2026-04-27T13:31:29Z</time></trkpt><trkpt lat="40.34956163007698" lon="19.973872745560342"><ele>124.5</ele><time>2026-04-27T13:31:30Z</time></trkpt><trkpt lat="40.34954369120103" lon="19.97371877162877"><ele>127.75</ele><time>2026-04-27T13:31:31Z</time></trkpt><trkpt lat="40.34952613865501" lon="19.973533167873132"><ele>131.0</ele><time>2026-04-27T13:31:32Z</time></trkpt><trkpt lat="40.34951023960249" lon="19.973312088282487"><ele>131.33333333333331</ele><time>2026-04-27T13:31:33Z</time></trkpt><trkpt lat="40.34949638858262" lon="19.973037385116136"><ele>131.66666666666666</ele><time>2026-04-27T13:31:34Z</time></trkpt><trkpt lat="40.349489747976605" lon="19.972789116505048"><ele>132.0</ele><time>2026-04-27T13:31:35Z</time></trkpt><trkpt lat="40.34948433217078" lon="19.9725844855186"><ele>131.79999999999998</ele><time>2026-04-27T13:31:36Z</time></trkpt><trkpt lat="40.34947902243529" lon="19.972402625994704"><ele>131.6</ele><time>2026-04-27T13:31:37Z</time></trkpt><trkpt lat="40.34947425673517" lon="19.97226142005683"><ele>131.39999999999998</ele><time>2026-04-27T13:31:38Z</time></trkpt><trkpt lat="40.34946332084362" lon="19.972146654308755"><ele>131.2</ele><time>2026-04-27T13:31:39Z</time></trkpt><trkpt lat="40.34946054919264" lon="19.972005988470872"><ele>131.0</ele><time>2026-04-27T13:31:40Z</time></trkpt><trkpt lat="40.34935852720796" lon="19.971870345829796"><ele>131.0</ele><time>2026-04-27T13:31:41Z</time></trkpt><trkpt lat="40.34931597390476" lon="19.971778818419157"><ele>131.0</ele><time>2026-04-27T13:31:42Z</time></trkpt><trkpt lat="40.34930870271558" lon="19.97166648811463"><ele>131.0</ele><time>2026-04-27T13:31:43Z</time></trkpt><trkpt lat="40.349311071261916" lon="19.97153467559313"><ele>131.0</ele><time>2026-04-27T13:31:44Z</time></trkpt><trkpt lat="40.34932552617865" lon="19.971379678781247"><ele>131.0</ele><time>2026-04-27T13:31:45Z</time></trkpt><trkpt lat="40.349379118345986" lon="19.971220738352766"><ele>130.25</ele><time>2026-04-27T13:31:46Z</time></trkpt><trkpt lat="40.34941756231753" lon="19.971058717726375"><ele>129.5</ele><time>2026-04-27T13:31:47Z</time></trkpt><trkpt lat="40.34945347783534" lon="19.9708815008786"><ele>128.75</ele><time>2026-04-27T13:31:48Z</time></trkpt><trkpt lat="40.349483134652836" lon="19.970729105743544"><ele>128.0</ele><time>2026-04-27T13:31:49Z</time></trkpt><trkpt lat="40.349495305567984" lon="19.970585520301842"><ele>127.99999999999999</ele><time>2026-04-27T13:31:50Z</time></trkpt><trkpt lat="40.34951607352926" lon="19.970475642585786"><ele>128.0</ele><time>2026-04-27T13:31:51Z</time></trkpt><trkpt lat="40.34953026993968" lon="19.970356201744796"><ele>128.0</ele><time>2026-04-27T13:31:52Z</time></trkpt><trkpt lat="40.34954212387654" lon="19.97024011385553"><ele>128.0</ele><time>2026-04-27T13:31:53Z</time></trkpt><trkpt lat="40.3495507262792" lon="19.970141844695572"><ele>127.99999999999999</ele><time>2026-04-27T13:31:54Z</time></trkpt><trkpt lat="40.34956677622633" lon="19.97002988340115"><ele>128.0</ele><time>2026-04-27T13:31:55Z</time></trkpt><trkpt lat="40.34959654492051" lon="19.969907980594808"><ele>127.80000000000001</ele><time>2026-04-27T13:31:56Z</time></trkpt><trkpt lat="40.34965239435773" lon="19.969797157253204"><ele>127.60000000000001</ele><time>2026-04-27T13:31:57Z</time></trkpt><trkpt lat="40.34970327352997" lon="19.96969764777109"><ele>127.39999999999999</ele><time>2026-04-27T13:31:58Z</time></trkpt><trkpt lat="40.34975466919836" lon="19.969597314774578"><ele>127.19999999999999</ele><time>2026-04-27T13:31:59Z</time></trkpt><trkpt lat="40.34982341518781" lon="19.96953076503477"><ele>127.0</ele><time>2026-04-27T13:32:00Z</time></trkpt><trkpt lat="40.3498996974602" lon="19.96944717494367"><ele>126.0</ele><time>2026-04-27T13:32:01Z</time></trkpt><trkpt lat="40.349977858836596" lon="19.96941007314749"><ele>124.99999999999999</ele><time>2026-04-27T13:32:02Z</time></trkpt><trkpt lat="40.35006302020978" lon="19.969317825228647"><ele>123.99999999999999</ele><time>2026-04-27T13:32:03Z</time></trkpt><trkpt lat="40.350137168178506" lon="19.969236101343743"><ele>123.0</ele><time>2026-04-27T13:32:04Z</time></trkpt><trkpt lat="40.350213964798336" lon="19.96915145823029"><ele>122.0</ele><time>2026-04-27T13:32:05Z</time></trkpt><trkpt lat="40.35027121578311" lon="19.96902883423107"><ele>122.0</ele><time>2026-04-27T13:32:06Z</time></trkpt><trkpt lat="40.35035118760831" lon="19.968934274463873"><ele>121.99999999999999</ele><time>2026-04-27T13:32:07Z</time></trkpt><trkpt lat="40.35043734035558" lon="19.968848941556587"><ele>121.99999999999999</ele><time>2026-04-27T13:32:08Z</time></trkpt><trkpt lat="40.35052674337392" lon="19.968749887082225"><ele>122.0</ele><time>2026-04-27T13:32:09Z</time></trkpt><trkpt lat="40.35060300678182" lon="19.968634038612837"><ele>122.0</ele><time>2026-04-27T13:32:10Z</time></trkpt><trkpt lat="40.35066363265376" lon="19.968537801909427"><ele>121.19999999999999</ele><time>2026-04-27T13:32:11Z</time></trkpt><trkpt lat="40.35072946571876" lon="19.96843082775583"><ele>120.39999999999999</ele><time>2026-04-27T13:32:12Z</time></trkpt><trkpt lat="40.35080160973021" lon="19.968312159758245"><ele>119.60000000000001</ele><time>2026-04-27T13:32:13Z</time></trkpt><trkpt lat="40.35087167955435" lon="19.968198312613225"><ele>118.80000000000001</ele><time>2026-04-27T13:32:14Z</time></trkpt><trkpt lat="40.35091304224595" lon="19.968082543493555"><ele>118.0</ele><time>2026-04-27T13:32:15Z</time></trkpt><trkpt lat="40.35097749845622" lon="19.967991570216416"><ele>118.00000000000001</ele><time>2026-04-27T13:32:16Z</time></trkpt><trkpt lat="40.35102607152254" lon="19.967871679780643"><ele>118.0</ele><time>2026-04-27T13:32:17Z</time></trkpt><trkpt lat="40.35105876369763" lon="19.967757514562386"><ele>118.0</ele><time>2026-04-27T13:32:18Z</time></trkpt><trkpt lat="40.35110412538045" lon="19.967667657539085"><ele>118.0</ele><time>2026-04-27T13:32:19Z</time></trkpt><trkpt lat="40.351158839488406" lon="19.967583929339927"><ele>118.00000000000001</ele><time>2026-04-27T13:32:20Z</time></trkpt><trkpt lat="40.35118332810249" lon="19.96748171090499"><ele>118.0</ele><time>2026-04-27T13:32:21Z</time></trkpt><trkpt lat="40.35121564196872" lon="19.967402810180648"><ele>118.50000000000001</ele><time>2026-04-27T13:32:22Z</time></trkpt><trkpt lat="40.35123038616848" lon="19.96730575243946"><ele>119.0</ele><time>2026-04-27T13:32:23Z</time></trkpt><trkpt lat="40.351229083017536" lon="19.967222432009688"><ele>119.5</ele><time>2026-04-27T13:32:24Z</time></trkpt><trkpt lat="40.35118373495995" lon="19.96706849004167"><ele>120.0</ele><time>2026-04-27T13:32:26Z</time></trkpt><trkpt lat="40.351136972344804" lon="19.96697189030993"><ele>120.50000000000001</ele><time>2026-04-27T13:32:27Z</time></trkpt><trkpt lat="40.351087041558124" lon="19.966865458130943"><ele>121.0</ele><time>2026-04-27T13:32:28Z</time></trkpt><trkpt lat="40.35100976549774" lon="19.96677876417528"><ele>120.6</ele><time>2026-04-27T13:32:29Z</time></trkpt><trkpt lat="40.350950252999844" lon="19.966679015953314"><ele>120.19999999999999</ele><time>2026-04-27T13:32:30Z</time></trkpt><trkpt lat="40.35087315358447" lon="19.966596725156975"><ele>119.80000000000001</ele><time>2026-04-27T13:32:31Z</time></trkpt><trkpt lat="40.35079881923945" lon="19.966511491018494"><ele>119.4</ele><time>2026-04-27T13:32:32Z</time></trkpt><trkpt lat="40.35072696492487" lon="19.966417193928812"><ele>119.0</ele><time>2026-04-27T13:32:33Z</time></trkpt><trkpt lat="40.35064595303207" lon="19.966320760315256"><ele>118.99999999999999</ele><time>2026-04-27T13:32:34Z</time></trkpt><trkpt lat="40.3505671153253" lon="19.966243583912835"><ele>119.0</ele><time>2026-04-27T13:32:35Z</time></trkpt><trkpt lat="40.35049187443962" lon="19.966174742084565"><ele>119.0</ele><time>2026-04-27T13:32:36Z</time></trkpt><trkpt lat="40.35041540851383" lon="19.966120338129954"><ele>119.0</ele><time>2026-04-27T13:32:37Z</time></trkpt><trkpt lat="40.350334933936956" lon="19.966078001248203"><ele>118.99999999999999</ele><time>2026-04-27T13:32:38Z</time></trkpt><trkpt lat="40.35026084092829" lon="19.9660577253348"><ele>119.0</ele><time>2026-04-27T13:32:39Z</time></trkpt><trkpt lat="40.35019525937551" lon="19.966061111872456"><ele>119.33333333333333</ele><time>2026-04-27T13:32:40.001Z</time></trkpt><trkpt lat="40.350128555298795" lon="19.96609097114352"><ele>119.66666666666666</ele><time>2026-04-27T13:32:41.001Z</time></trkpt><trkpt lat="40.350068614162545" lon="19.966123899024968"><ele>120.0</ele><time>2026-04-27T13:32:42.001Z</time></trkpt><trkpt lat="40.34995560220956" lon="19.966100199124835"><ele>120.33333333333334</ele><time>2026-04-27T13:32:44.001Z</time></trkpt><trkpt lat="40.349952205513766" lon="19.96593717250859"><ele>120.66666666666667</ele><time>2026-04-27T13:32:46.001Z</time></trkpt><trkpt lat="40.34993522140704" lon="19.965857140426678"><ele>121.0</ele><time>2026-04-27T13:32:47.001Z</time></trkpt><trkpt lat="40.349848161994984" lon="19.965733219401642"><ele>121.0</ele><time>2026-04-27T13:32:49.001Z</time></trkpt><trkpt lat="40.34981204549797" lon="19.965649635989482"><ele>121.0</ele><time>2026-04-27T13:32:50.001Z</time></trkpt><trkpt lat="40.349719026873245" lon="19.96560379187082"><ele>121.0</ele><time>2026-04-27T13:32:51Z</time></trkpt><trkpt lat="40.349629757285825" lon="19.96554971820343"><ele>121.0</ele><time>2026-04-27T13:32:52Z</time></trkpt><trkpt lat="40.349533196908176" lon="19.965495372402447"><ele>121.0</ele><time>2026-04-27T13:32:53Z</time></trkpt><trkpt lat="40.349434634710946" lon="19.96542680193579"><ele>121.25</ele><time>2026-04-27T13:32:54Z</time></trkpt><trkpt lat="40.349323511362236" lon="19.965358095684245"><ele>121.5</ele><time>2026-04-27T13:32:55Z</time></trkpt><trkpt lat="40.34919552311422" lon="19.965310213337794"><ele>121.75</ele><time>2026-04-27T13:32:56Z</time></trkpt><trkpt lat="40.349064050125364" lon="19.965276048389427"><ele>122.0</ele><time>2026-04-27T13:32:57Z</time></trkpt><trkpt lat="40.34895327385336" lon="19.965229832020533"><ele>122.75</ele><time>2026-04-27T13:32:58Z</time></trkpt><trkpt lat="40.348843854811044" lon="19.965157048888695"><ele>123.5</ele><time>2026-04-27T13:32:59Z</time></trkpt><trkpt lat="40.34871706520359" lon="19.96505455273632"><ele>124.25</ele><time>2026-04-27T13:33:00Z</time></trkpt><trkpt lat="40.34858886326018" lon="19.964970071403872"><ele>125.0</ele><time>2026-04-27T13:33:01Z</time></trkpt><trkpt lat="40.34848097810458" lon="19.96489612881108"><ele>125.0</ele><time>2026-04-27T13:33:02Z</time></trkpt><trkpt lat="40.34837407680607" lon="19.964823782951637"><ele>125.0</ele><time>2026-04-27T13:33:03.001Z</time></trkpt><trkpt lat="40.34825606824566" lon="19.96476139670499"><ele>125.0</ele><time>2026-04-27T13:33:04.001Z</time></trkpt><trkpt lat="40.34813628084537" lon="19.964686317442478"><ele>125.0</ele><time>2026-04-27T13:33:05.001Z</time></trkpt><trkpt lat="40.34802330041668" lon="19.96460863054696"><ele>125.4</ele><time>2026-04-27T13:33:06.001Z</time></trkpt><trkpt lat="40.34793122448864" lon="19.96455166649417"><ele>125.8</ele><time>2026-04-27T13:33:07.001Z</time></trkpt><trkpt lat="40.347844131774075" lon="19.964512940430165"><ele>126.19999999999999</ele><time>2026-04-27T13:33:08.001Z</time></trkpt><trkpt lat="40.34773762645417" lon="19.964487421506348"><ele>126.6</ele><time>2026-04-27T13:33:09.001Z</time></trkpt><trkpt lat="40.34763371981841" lon="19.964423550228673"><ele>127.0</ele><time>2026-04-27T13:33:10.001Z</time></trkpt><trkpt lat="40.34753003609821" lon="19.964371631059482"><ele>127.0</ele><time>2026-04-27T13:33:11.001Z</time></trkpt><trkpt lat="40.34742935526589" lon="19.964266024594092"><ele>127.0</ele><time>2026-04-27T13:33:12.001Z</time></trkpt><trkpt lat="40.3473113656387" lon="19.964171717879818"><ele>127.0</ele><time>2026-04-27T13:33:13.001Z</time></trkpt><trkpt lat="40.34719445808745" lon="19.964063509697255"><ele>127.0</ele><time>2026-04-27T13:33:14.001Z</time></trkpt><trkpt lat="40.347066202348145" lon="19.96396637415452"><ele>126.25</ele><time>2026-04-27T13:33:15.001Z</time></trkpt><trkpt lat="40.34695940428616" lon="19.963863556206"><ele>125.5</ele><time>2026-04-27T13:33:16.001Z</time></trkpt><trkpt lat="40.346883419175974" lon="19.963761343695303"><ele>124.75</ele><time>2026-04-27T13:33:17.001Z</time></trkpt><trkpt lat="40.34679659060604" lon="19.96368309959887"><ele>124.0</ele><time>2026-04-27T13:33:18.001Z</time></trkpt><trkpt lat="40.346708210004316" lon="19.9635628447559"><ele>124.0</ele><time>2026-04-27T13:33:19.001Z</time></trkpt><trkpt lat="40.346594467817155" lon="19.96344339756986"><ele>124.0</ele><time>2026-04-27T13:33:20.001Z</time></trkpt><trkpt lat="40.34648211034134" lon="19.96334203110087"><ele>124.0</ele><time>2026-04-27T13:33:21.001Z</time></trkpt><trkpt lat="40.34638136772584" lon="19.963242614000283"><ele>124.0</ele><time>2026-04-27T13:33:22.001Z</time></trkpt><trkpt lat="40.34627437827822" lon="19.963115776113476"><ele>123.25</ele><time>2026-04-27T13:33:23.001Z</time></trkpt><trkpt lat="40.34616657675785" lon="19.962970497052087"><ele>122.5</ele><time>2026-04-27T13:33:24.001Z</time></trkpt><trkpt lat="40.346069977913196" lon="19.96282806017648"><ele>121.75</ele><time>2026-04-27T13:33:25.001Z</time></trkpt><trkpt lat="40.34597923231425" lon="19.962707678782113"><ele>121.0</ele><time>2026-04-27T13:33:26.001Z</time></trkpt><trkpt lat="40.34590737518039" lon="19.96261549333101"><ele>120.75</ele><time>2026-04-27T13:33:27.001Z</time></trkpt><trkpt lat="40.34584044061319" lon="19.962502038060844"><ele>120.5</ele><time>2026-04-27T13:33:28.001Z</time></trkpt><trkpt lat="40.345770588814354" lon="19.962353858529628"><ele>120.25</ele><time>2026-04-27T13:33:29.001Z</time></trkpt><trkpt lat="40.34569483065775" lon="19.96218124965061"><ele>120.0</ele><time>2026-04-27T13:33:30.001Z</time></trkpt><trkpt lat="40.34562415415917" lon="19.961996907533297"><ele>120.0</ele><time>2026-04-27T13:33:31.001Z</time></trkpt><trkpt lat="40.34555271681162" lon="19.961802990229998"><ele>120.0</ele><time>2026-04-27T13:33:32.001Z</time></trkpt><trkpt lat="40.34548054091009" lon="19.961644013413455"><ele>120.0</ele><time>2026-04-27T13:33:33.001Z</time></trkpt><trkpt lat="40.34541869775166" lon="19.961508705336577"><ele>120.0</ele><time>2026-04-27T13:33:34.001Z</time></trkpt><trkpt lat="40.34536896190905" lon="19.961395721869003"><ele>120.2</ele><time>2026-04-27T13:33:35.001Z</time></trkpt><trkpt lat="40.34531867461181" lon="19.961281785403035"><ele>120.4</ele><time>2026-04-27T13:33:36.001Z</time></trkpt><trkpt lat="40.34527094054344" lon="19.961176365934918"><ele>120.6</ele><time>2026-04-27T13:33:37.001Z</time></trkpt><trkpt lat="40.34520591677823" lon="19.961040732632675"><ele>120.8</ele><time>2026-04-27T13:33:38.001Z</time></trkpt><trkpt lat="40.34517040336422" lon="19.960900114757848"><ele>121.0</ele><time>2026-04-27T13:33:39.001Z</time></trkpt><trkpt lat="40.345143566860074" lon="19.96078684069779"><ele>120.6</ele><time>2026-04-27T13:33:40.001Z</time></trkpt><trkpt lat="40.345109180755735" lon="19.96069282859436"><ele>120.19999999999999</ele><time>2026-04-27T13:33:41.001Z</time></trkpt><trkpt lat="40.345095371438006" lon="19.960567299822138"><ele>119.80000000000001</ele><time>2026-04-27T13:33:42.001Z</time></trkpt><trkpt lat="40.34507588458228" lon="19.96044825611138"><ele>119.4</ele><time>2026-04-27T13:33:43.001Z</time></trkpt><trkpt lat="40.34505145037803" lon="19.960345661875404"><ele>119.0</ele><time>2026-04-27T13:33:44.001Z</time></trkpt><trkpt lat="40.34501831526404" lon="19.960217015490315"><ele>119.0</ele><time>2026-04-27T13:33:45.001Z</time></trkpt><trkpt lat="40.344987682222765" lon="19.96008574448391"><ele>119.0</ele><time>2026-04-27T13:33:46.001Z</time></trkpt><trkpt lat="40.34496432726075" lon="19.95997311045408"><ele>119.0</ele><time>2026-04-27T13:33:47.001Z</time></trkpt><trkpt lat="40.34493836972137" lon="19.959862221654994"><ele>119.0</ele><time>2026-04-27T13:33:48.001Z</time></trkpt><trkpt lat="40.34490039404996" lon="19.959748770807103"><ele>119.0</ele><time>2026-04-27T13:33:49.001Z</time></trkpt><trkpt lat="40.344839875002876" lon="19.959640658162282"><ele>118.75</ele><time>2026-04-27T13:33:50.001Z</time></trkpt><trkpt lat="40.34475286685493" lon="19.959517873348016"><ele>118.5</ele><time>2026-04-27T13:33:51.001Z</time></trkpt><trkpt lat="40.34465630903819" lon="19.95939127637017"><ele>118.25</ele><time>2026-04-27T13:33:52.001Z</time></trkpt><trkpt lat="40.34456705007702" lon="19.959281657157884"><ele>118.0</ele><time>2026-04-27T13:33:53.001Z</time></trkpt><trkpt lat="40.344485710105744" lon="19.959165915569113"><ele>118.0</ele><time>2026-04-27T13:33:54.001Z</time></trkpt><trkpt lat="40.344431847827984" lon="19.95900403007349"><ele>118.0</ele><time>2026-04-27T13:33:55.001Z</time></trkpt><trkpt lat="40.34435652492719" lon="19.958860092272786"><ele>118.0</ele><time>2026-04-27T13:33:56.001Z</time></trkpt><trkpt lat="40.34429011278771" lon="19.958729767320904"><ele>118.0</ele><time>2026-04-27T13:33:57.001Z</time></trkpt><trkpt lat="40.34422985490914" lon="19.95861265007014"><ele>118.0</ele><time>2026-04-27T13:33:58.001Z</time></trkpt><trkpt lat="40.344169601218624" lon="19.958490969302044"><ele>118.00000000000001</ele><time>2026-04-27T13:33:59.001Z</time></trkpt><trkpt lat="40.34410255992756" lon="19.95837788103626"><ele>118.00000000000001</ele><time>2026-04-27T13:34:00.001Z</time></trkpt><trkpt lat="40.34404509554669" lon="19.958286664065877"><ele>118.0</ele><time>2026-04-27T13:34:01.001Z</time></trkpt><trkpt lat="40.3439984690829" lon="19.958214577644345"><ele>118.0</ele><time>2026-04-27T13:34:02.001Z</time></trkpt><trkpt lat="40.3439478849712" lon="19.958152489740673"><ele>117.85714285714286</ele><time>2026-04-27T13:34:03.001Z</time></trkpt><trkpt lat="40.343884844294855" lon="19.95812031338798"><ele>117.71428571428572</ele><time>2026-04-27T13:34:04.001Z</time></trkpt><trkpt lat="40.34380232991432" lon="19.958112698513585"><ele>117.57142857142858</ele><time>2026-04-27T13:34:05.001Z</time></trkpt><trkpt lat="40.34372052684057" lon="19.958109955554633"><ele>117.42857142857143</ele><time>2026-04-27T13:34:06.001Z</time></trkpt><trkpt lat="40.343649347122266" lon="19.958096833940257"><ele>117.2857142857143</ele><time>2026-04-27T13:34:07.001Z</time></trkpt><trkpt lat="40.34358332059426" lon="19.958057267572528"><ele>117.14285714285715</ele><time>2026-04-27T13:34:08.001Z</time></trkpt><trkpt lat="40.34352748860688" lon="19.958007079672065"><ele>117.0</ele><time>2026-04-27T13:34:09.001Z</time></trkpt><trkpt lat="40.34347644870077" lon="19.957958119678416"><ele>117.0</ele><time>2026-04-27T13:34:10.001Z</time></trkpt><trkpt lat="40.34343266265234" lon="19.957816306435898"><ele>116.99999999999999</ele><time>2026-04-27T13:34:12.001Z</time></trkpt><trkpt lat="40.34348060585706" lon="19.957719848676"><ele>116.99999999999999</ele><time>2026-04-27T13:34:13.001Z</time></trkpt><trkpt lat="40.34352053298439" lon="19.9575967611264"><ele>117.0</ele><time>2026-04-27T13:34:14.001Z</time></trkpt><trkpt lat="40.34356455845651" lon="19.957452997314746"><ele>117.0</ele><time>2026-04-27T13:34:15.001Z</time></trkpt><trkpt lat="40.34360800132974" lon="19.957305853909737"><ele>117.19999999999999</ele><time>2026-04-27T13:34:16.001Z</time></trkpt><trkpt lat="40.34365233647259" lon="19.95715506134775"><ele>117.39999999999999</ele><time>2026-04-27T13:34:17.001Z</time></trkpt><trkpt lat="40.34367416825881" lon="19.95699969731215"><ele>117.60000000000001</ele><time>2026-04-27T13:34:18.001Z</time></trkpt><trkpt lat="40.34368514105244" lon="19.95687427015242"><ele>117.80000000000001</ele><time>2026-04-27T13:34:19.001Z</time></trkpt><trkpt lat="40.34370627477742" lon="19.956772355555835"><ele>118.0</ele><time>2026-04-27T13:34:20.001Z</time></trkpt><trkpt lat="40.343740956178955" lon="19.9566957960224"><ele>118.0</ele><time>2026-04-27T13:34:21.001Z</time></trkpt><trkpt lat="40.34378105653692" lon="19.956522028317853"><ele>118.00000000000001</ele><time>2026-04-27T13:34:23.001Z</time></trkpt><trkpt lat="40.34376627451645" lon="19.956400401041137"><ele>118.00000000000001</ele><time>2026-04-27T13:34:24.001Z</time></trkpt><trkpt lat="40.34376804310375" lon="19.956311646973102"><ele>118.0</ele><time>2026-04-27T13:34:25.001Z</time></trkpt><trkpt lat="40.3437441875437" lon="19.95622959067595"><ele>118.0</ele><time>2026-04-27T13:34:26.001Z</time></trkpt><trkpt lat="40.34371053385477" lon="19.956125763196336"><ele>118.0</ele><time>2026-04-27T13:34:27.001Z</time></trkpt><trkpt lat="40.34366504881212" lon="19.956010144753403"><ele>118.00000000000001</ele><time>2026-04-27T13:34:28.001Z</time></trkpt><trkpt lat="40.34360877904309" lon="19.95593484107954"><ele>118.00000000000001</ele><time>2026-04-27T13:34:29.001Z</time></trkpt><trkpt lat="40.34352809087219" lon="19.955895778602752"><ele>118.0</ele><time>2026-04-27T13:34:30.001Z</time></trkpt><trkpt lat="40.34343068993524" lon="19.95590041254209"><ele>118.0</ele><time>2026-04-27T13:34:31.001Z</time></trkpt><trkpt lat="40.34330877099653" lon="19.955865880446705"><ele>118.33333333333334</ele><time>2026-04-27T13:34:32.001Z</time></trkpt><trkpt lat="40.34315413231221" lon="19.95584582320125"><ele>118.66666666666666</ele><time>2026-04-27T13:34:33.001Z</time></trkpt><trkpt lat="40.34298752854709" lon="19.955797311751304"><ele>119.0</ele><time>2026-04-27T13:34:34.001Z</time></trkpt><trkpt lat="40.34282792093103" lon="19.955759954610446"><ele>119.4</ele><time>2026-04-27T13:34:35.001Z</time></trkpt><trkpt lat="40.342701217891126" lon="19.955736659054264"><ele>119.80000000000001</ele><time>2026-04-27T13:34:36.001Z</time></trkpt><trkpt lat="40.34259947233273" lon="19.9557099176281"><ele>120.19999999999999</ele><time>2026-04-27T13:34:37.001Z</time></trkpt><trkpt lat="40.342507271936526" lon="19.955687388448126"><ele>120.6</ele><time>2026-04-27T13:34:38.001Z</time></trkpt><trkpt lat="40.34242804273394" lon="19.955656801814463"><ele>121.0</ele><time>2026-04-27T13:34:39.001Z</time></trkpt><trkpt lat="40.34234661880858" lon="19.955602194480264"><ele>121.00000000000001</ele><time>2026-04-27T13:34:40.001Z</time></trkpt><trkpt lat="40.342284143868234" lon="19.95554153487242"><ele>121.0</ele><time>2026-04-27T13:34:41.001Z</time></trkpt><trkpt lat="40.34226985404745" lon="19.95545431723766"><ele>121.0</ele><time>2026-04-27T13:34:42.001Z</time></trkpt><trkpt lat="40.34222428759916" lon="19.95538075943354"><ele>121.0</ele><time>2026-04-27T13:34:43.001Z</time></trkpt><trkpt lat="40.34217316447611" lon="19.955296393109347"><ele>121.00000000000001</ele><time>2026-04-27T13:34:44.001Z</time></trkpt><trkpt lat="40.34210386378399" lon="19.955219903894317"><ele>121.0</ele><time>2026-04-27T13:34:45.001Z</time></trkpt><trkpt lat="40.34203445885272" lon="19.955138825153803"><ele>123.19999999999999</ele><time>2026-04-27T13:34:47.001Z</time></trkpt><trkpt lat="40.34196988586503" lon="19.955090445682053"><ele>125.39999999999999</ele><time>2026-04-27T13:34:51.001Z</time></trkpt><trkpt lat="40.34191541129793" lon="19.955017630604683"><ele>127.6</ele><time>2026-04-27T13:37:28.001Z</time></trkpt><trkpt lat="40.341819248510795" lon="19.95497311094081"><ele>129.79999999999998</ele><time>2026-04-27T13:37:30.001Z</time></trkpt><trkpt lat="40.34170384499923" lon="19.954895261799763"><ele>132.0</ele><time>2026-04-27T13:37:32.001Z</time></trkpt><trkpt lat="40.341633839628905" lon="19.95486687102026"><ele>132.0</ele><time>2026-04-27T13:37:33.001Z</time></trkpt><trkpt lat="40.34155808749136" lon="19.954851609474634"><ele>132.0</ele><time>2026-04-27T13:37:34.001Z</time></trkpt><trkpt lat="40.341486285811776" lon="19.954823895003617"><ele>132.0</ele><time>2026-04-27T13:37:35.001Z</time></trkpt><trkpt lat="40.34142210962982" lon="19.95478374082309"><ele>132.0</ele><time>2026-04-27T13:37:36.001Z</time></trkpt><trkpt lat="40.34135174778429" lon="19.954736650432686"><ele>132.0</ele><time>2026-04-27T13:37:37.001Z</time></trkpt><trkpt lat="40.341279688023626" lon="19.954687432869544"><ele>132.0</ele><time>2026-04-27T13:37:38.001Z</time></trkpt><trkpt lat="40.341205723036154" lon="19.954627981800815"><ele>134.83333333333334</ele><time>2026-04-27T13:37:39.001Z</time></trkpt><trkpt lat="40.341126653057714" lon="19.95457245762716"><ele>137.66666666666666</ele><time>2026-04-27T13:37:40.001Z</time></trkpt><trkpt lat="40.34104773888534" lon="19.954518190098703"><ele>140.5</ele><time>2026-04-27T13:37:41.001Z</time></trkpt><trkpt lat="40.340972939126715" lon="19.954454571186687"><ele>143.33333333333331</ele><time>2026-04-27T13:37:42.001Z</time></trkpt><trkpt lat="40.34090518183014" lon="19.954390996403237"><ele>146.16666666666666</ele><time>2026-04-27T13:37:43.001Z</time></trkpt><trkpt lat="40.340835051158216" lon="19.954338920390672"><ele>149.0</ele><time>2026-04-27T13:37:44.001Z</time></trkpt><trkpt lat="40.340759496826635" lon="19.954315264333623"><ele>149.0</ele><time>2026-04-27T13:37:45.001Z</time></trkpt><trkpt lat="40.3406750763052" lon="19.954306860939823"><ele>149.0</ele><time>2026-04-27T13:37:46.001Z</time></trkpt><trkpt lat="40.340591605922064" lon="19.954298595217892"><ele>149.0</ele><time>2026-04-27T13:37:47.001Z</time></trkpt><trkpt lat="40.34050353611384" lon="19.954281074036945"><ele>149.0</ele><time>2026-04-27T13:37:48.001Z</time></trkpt><trkpt lat="40.34041379115011" lon="19.95425910569586"><ele>149.0</ele><time>2026-04-27T13:37:49.001Z</time></trkpt><trkpt lat="40.34032403653629" lon="19.954249780820188"><ele>149.0</ele><time>2026-04-27T13:37:50.001Z</time></trkpt><trkpt lat="40.34023434995255" lon="19.95425672268355"><ele>148.0</ele><time>2026-04-27T13:37:51.001Z</time></trkpt><trkpt lat="40.340140100493315" lon="19.95426523245448"><ele>147.0</ele><time>2026-04-27T13:37:52.001Z</time></trkpt><trkpt lat="40.34004581642656" lon="19.954249027732907"><ele>146.0</ele><time>2026-04-27T13:37:53.001Z</time></trkpt><trkpt lat="40.33995002700927" lon="19.954217090888154"><ele>145.0</ele><time>2026-04-27T13:37:54.001Z</time></trkpt><trkpt lat="40.33984968590249" lon="19.954175668455132"><ele>144.0</ele><time>2026-04-27T13:37:55.001Z</time></trkpt><trkpt lat="40.339739482915704" lon="19.95414268129403"><ele>147.5</ele><time>2026-04-27T13:37:56.001Z</time></trkpt><trkpt lat="40.33962509631612" lon="19.95412655322585"><ele>151.0</ele><time>2026-04-27T13:37:57.001Z</time></trkpt><trkpt lat="40.339506609549964" lon="19.954101039048123"><ele>154.5</ele><time>2026-04-27T13:37:58.001Z</time></trkpt><trkpt lat="40.3393882655562" lon="19.954075056273958"><ele>158.0</ele><time>2026-04-27T13:37:59.001Z</time></trkpt><trkpt lat="40.339270698309825" lon="19.9540577389261"><ele>158.0</ele><time>2026-04-27T13:38:00.001Z</time></trkpt><trkpt lat="40.33916644600927" lon="19.954047760521256"><ele>158.0</ele><time>2026-04-27T13:38:01.001Z</time></trkpt><trkpt lat="40.33907154465048" lon="19.954027761625756"><ele>158.0</ele><time>2026-04-27T13:38:02.001Z</time></trkpt><trkpt lat="40.33898961368834" lon="19.954021604831446"><ele>158.0</ele><time>2026-04-27T13:38:03.001Z</time></trkpt><trkpt lat="40.338900600505454" lon="19.954034779470465"><ele>158.0</ele><time>2026-04-27T13:38:04.001Z</time></trkpt><trkpt lat="40.33880929336945" lon="19.954059440315195"><ele>158.16666666666666</ele><time>2026-04-27T13:38:05.001Z</time></trkpt><trkpt lat="40.33872011191126" lon="19.95409811529871"><ele>158.33333333333331</ele><time>2026-04-27T13:38:06.001Z</time></trkpt><trkpt lat="40.338643247182844" lon="19.954133656333"><ele>158.5</ele><time>2026-04-27T13:38:07.001Z</time></trkpt><trkpt lat="40.33856649329044" lon="19.95414635500087"><ele>158.66666666666666</ele><time>2026-04-27T13:38:08.001Z</time></trkpt><trkpt lat="40.33849566109344" lon="19.95412603703153"><ele>158.83333333333334</ele><time>2026-04-27T13:38:09.001Z</time></trkpt><trkpt lat="40.33840831377419" lon="19.95403318043102"><ele>159.0</ele><time>2026-04-27T13:38:11.001Z</time></trkpt><trkpt lat="40.338348780995105" lon="19.954004533873267"><ele>159.0</ele><time>2026-04-27T13:38:12.001Z</time></trkpt><trkpt lat="40.33829738851903" lon="19.953943816603466"><ele>159.0</ele><time>2026-04-27T13:38:13.001Z</time></trkpt><trkpt lat="40.33824428852638" lon="19.953876376916252"><ele>159.0</ele><time>2026-04-27T13:38:14.001Z</time></trkpt><trkpt lat="40.338180605849786" lon="19.953814712452406"><ele>159.0</ele><time>2026-04-27T13:38:15.001Z</time></trkpt><trkpt lat="40.33812137133331" lon="19.953783702861053"><ele>159.0</ele><time>2026-04-27T13:38:16.001Z</time></trkpt><trkpt lat="40.33802325678781" lon="19.953718567779756"><ele>159.0</ele><time>2026-04-27T13:38:18.001Z</time></trkpt><trkpt lat="40.33792989881362" lon="19.953647927666875"><ele>158.16666666666666</ele><time>2026-04-27T13:38:20.001Z</time></trkpt><trkpt lat="40.33783869661142" lon="19.953558701956783"><ele>157.33333333333334</ele><time>2026-04-27T13:38:22.001Z</time></trkpt><trkpt lat="40.33776979120622" lon="19.953454870555234"><ele>156.5</ele><time>2026-04-27T13:38:24.001Z</time></trkpt><trkpt lat="40.33772360476877" lon="19.95339337360175"><ele>155.66666666666669</ele><time>2026-04-27T13:38:25.001Z</time></trkpt><trkpt lat="40.33770227755459" lon="19.953290770121296"><ele>154.83333333333334</ele><time>2026-04-27T13:38:26.001Z</time></trkpt><trkpt lat="40.337653551736516" lon="19.953219328959104"><ele>154.0</ele><time>2026-04-27T13:38:27.001Z</time></trkpt><trkpt lat="40.337606515342145" lon="19.95315036481079"><ele>156.0</ele><time>2026-04-27T13:38:28.001Z</time></trkpt><trkpt lat="40.33754048341066" lon="19.953089838122075"><ele>158.0</ele><time>2026-04-27T13:38:29.001Z</time></trkpt><trkpt lat="40.33748162738576" lon="19.95302879563662"><ele>160.0</ele><time>2026-04-27T13:38:30.001Z</time></trkpt><trkpt lat="40.337417047325125" lon="19.952984548894317"><ele>162.0</ele><time>2026-04-27T13:38:31.001Z</time></trkpt><trkpt lat="40.337381984710056" lon="19.952904837383233"><ele>164.0</ele><time>2026-04-27T13:38:32.001Z</time></trkpt><trkpt lat="40.33729531375417" lon="19.952791849945175"><ele>166.0</ele><time>2026-04-27T13:38:34.001Z</time></trkpt><trkpt lat="40.33724580241031" lon="19.952735345030973"><ele>165.14285714285714</ele><time>2026-04-27T13:38:35.001Z</time></trkpt><trkpt lat="40.33717585739449" lon="19.952718718541156"><ele>164.2857142857143</ele><time>2026-04-27T13:38:36.001Z</time></trkpt><trkpt lat="40.33711065665494" lon="19.952741238547286"><ele>163.42857142857144</ele><time>2026-04-27T13:38:37.001Z</time></trkpt><trkpt lat="40.33705039494284" lon="19.95271314285675"><ele>162.57142857142856</ele><time>2026-04-27T13:38:38.001Z</time></trkpt><trkpt lat="40.33698618951387" lon="19.952776134955826"><ele>161.71428571428572</ele><time>2026-04-27T13:38:39.001Z</time></trkpt><trkpt lat="40.336932589078636" lon="19.952836284939252"><ele>160.85714285714286</ele><time>2026-04-27T13:38:40.001Z</time></trkpt><trkpt lat="40.33686165147056" lon="19.95286742190877"><ele>160.0</ele><time>2026-04-27T13:38:41.001Z</time></trkpt><trkpt lat="40.336793535555834" lon="19.952922932273665"><ele>160.0</ele><time>2026-04-27T13:38:42.001Z</time></trkpt><trkpt lat="40.33671882989198" lon="19.952946655681252"><ele>160.0</ele><time>2026-04-27T13:38:43.001Z</time></trkpt><trkpt lat="40.33664399196705" lon="19.952936859408123"><ele>160.0</ele><time>2026-04-27T13:38:44.001Z</time></trkpt><trkpt lat="40.33655772197937" lon="19.95292083615037"><ele>160.0</ele><time>2026-04-27T13:38:45.001Z</time></trkpt><trkpt lat="40.33648575858405" lon="19.952848601332477"><ele>160.0</ele><time>2026-04-27T13:38:46.001Z</time></trkpt><trkpt lat="40.33641451078682" lon="19.952783030398333"><ele>160.0</ele><time>2026-04-27T13:38:47.001Z</time></trkpt><trkpt lat="40.33635176723348" lon="19.9527090334629"><ele>159.0</ele><time>2026-04-27T13:38:48.001Z</time></trkpt><trkpt lat="40.336302111197924" lon="19.95262937111056"><ele>158.0</ele><time>2026-04-27T13:38:49.001Z</time></trkpt><trkpt lat="40.336259195073424" lon="19.95253033510769"><ele>157.0</ele><time>2026-04-27T13:38:50.001Z</time></trkpt><trkpt lat="40.33624342880281" lon="19.952404896138333"><ele>156.0</ele><time>2026-04-27T13:38:51.001Z</time></trkpt><trkpt lat="40.33619064939241" lon="19.95230638117484"><ele>155.0</ele><time>2026-04-27T13:38:52.001Z</time></trkpt><trkpt lat="40.336120707109565" lon="19.952219336427124"><ele>157.16666666666666</ele><time>2026-04-27T13:38:53.001Z</time></trkpt><trkpt lat="40.336063990930974" lon="19.952158658040805"><ele>159.33333333333331</ele><time>2026-04-27T13:38:54.001Z</time></trkpt><trkpt lat="40.33596905319587" lon="19.952164624321252"><ele>161.5</ele><time>2026-04-27T13:38:55.001Z</time></trkpt><trkpt lat="40.33588495069436" lon="19.952143559757705"><ele>163.66666666666666</ele><time>2026-04-27T13:38:56.001Z</time></trkpt><trkpt lat="40.3357998245477" lon="19.952133052156405"><ele>165.83333333333334</ele><time>2026-04-27T13:38:57.001Z</time></trkpt><trkpt lat="40.33571612575366" lon="19.952100325500844"><ele>168.0</ele><time>2026-04-27T13:38:58.001Z</time></trkpt><trkpt lat="40.33565005721491" lon="19.952033592544996"><ele>168.0</ele><time>2026-04-27T13:38:59.001Z</time></trkpt><trkpt lat="40.335596669274345" lon="19.95194954995332"><ele>168.0</ele><time>2026-04-27T13:39:00.001Z</time></trkpt><trkpt lat="40.33555402530791" lon="19.951827921434713"><ele>168.0</ele><time>2026-04-27T13:39:01.001Z</time></trkpt><trkpt lat="40.335484757764256" lon="19.95171545098603"><ele>168.0</ele><time>2026-04-27T13:39:02.001Z</time></trkpt><trkpt lat="40.335420782700055" lon="19.95158671762462"><ele>168.0</ele><time>2026-04-27T13:39:03.001Z</time></trkpt><trkpt lat="40.33538360727283" lon="19.951455014481382"><ele>168.83333333333334</ele><time>2026-04-27T13:39:04.001Z</time></trkpt><trkpt lat="40.33534068705856" lon="19.95134807109724"><ele>169.66666666666666</ele><time>2026-04-27T13:39:05.001Z</time></trkpt><trkpt lat="40.335303619340294" lon="19.951267895812396"><ele>170.5</ele><time>2026-04-27T13:39:06.001Z</time></trkpt><trkpt lat="40.33526719240613" lon="19.951188851609054"><ele>171.33333333333331</ele><time>2026-04-27T13:39:07.001Z</time></trkpt><trkpt lat="40.33521365530601" lon="19.95111564660275"><ele>172.16666666666666</ele><time>2026-04-27T13:39:08.001Z</time></trkpt><trkpt lat="40.33513230976727" lon="19.951067673672135"><ele>173.0</ele><time>2026-04-27T13:39:09.001Z</time></trkpt><trkpt lat="40.33504045489217" lon="19.951047163693996"><ele>173.0</ele><time>2026-04-27T13:39:10.001Z</time></trkpt><trkpt lat="40.33495334536207" lon="19.950965180520356"><ele>173.0</ele><time>2026-04-27T13:39:11.001Z</time></trkpt><trkpt lat="40.33486793210024" lon="19.950870332363795"><ele>173.0</ele><time>2026-04-27T13:39:12.001Z</time></trkpt><trkpt lat="40.33474981596186" lon="19.950832505941754"><ele>173.0</ele><time>2026-04-27T13:39:14.001Z</time></trkpt><trkpt lat="40.33464714034876" lon="19.95084450274173"><ele>173.0</ele><time>2026-04-27T13:39:16.001Z</time></trkpt><trkpt lat="40.33458913400773" lon="19.950876819150523"><ele>173.85714285714286</ele><time>2026-04-27T13:39:17.001Z</time></trkpt><trkpt lat="40.33453611497352" lon="19.95092290835104"><ele>174.71428571428572</ele><time>2026-04-27T13:39:18.001Z</time></trkpt><trkpt lat="40.334492756120184" lon="19.950987391818302"><ele>175.57142857142858</ele><time>2026-04-27T13:39:19.001Z</time></trkpt><trkpt lat="40.334449100591044" lon="19.951067176412913"><ele>176.42857142857144</ele><time>2026-04-27T13:39:20.001Z</time></trkpt><trkpt lat="40.33440530996046" lon="19.951143025168044"><ele>177.28571428571428</ele><time>2026-04-27T13:39:21.001Z</time></trkpt><trkpt lat="40.33433945528214" lon="19.951170953072047"><ele>178.14285714285717</ele><time>2026-04-27T13:39:22.001Z</time></trkpt><trkpt lat="40.33427247517328" lon="19.95116331128604"><ele>179.0</ele><time>2026-04-27T13:39:23.001Z</time></trkpt><trkpt lat="40.33419815074159" lon="19.95117399404148"><ele>179.0</ele><time>2026-04-27T13:39:24.001Z</time></trkpt><trkpt lat="40.3341439682877" lon="19.951100147195096"><ele>179.0</ele><time>2026-04-27T13:39:25.001Z</time></trkpt><trkpt lat="40.33403410399553" lon="19.951052142710815"><ele>179.0</ele><time>2026-04-27T13:39:26.001Z</time></trkpt><trkpt lat="40.33393213826498" lon="19.9510298851427"><ele>179.0</ele><time>2026-04-27T13:39:27.001Z</time></trkpt><trkpt lat="40.333826709930364" lon="19.951014747775357"><ele>179.0</ele><time>2026-04-27T13:39:28.001Z</time></trkpt><trkpt lat="40.33370864707521" lon="19.95099863262717"><ele>182.25</ele><time>2026-04-27T13:39:29.001Z</time></trkpt><trkpt lat="40.333576625048934" lon="19.950983540341422"><ele>185.5</ele><time>2026-04-27T13:39:30.001Z</time></trkpt><trkpt lat="40.33342917040185" lon="19.95096960812667"><ele>188.75</ele><time>2026-04-27T13:39:31.001Z</time></trkpt><trkpt lat="40.333295471752656" lon="19.95096340518682"><ele>192.0</ele><time>2026-04-27T13:39:32.001Z</time></trkpt><trkpt lat="40.33317986972012" lon="19.95095804183896"><ele>192.0</ele><time>2026-04-27T13:39:33.001Z</time></trkpt><trkpt lat="40.33306686078123" lon="19.95094848297967"><ele>192.0</ele><time>2026-04-27T13:39:34.001Z</time></trkpt><trkpt lat="40.33294551133457" lon="19.950932748652846"><ele>192.0</ele><time>2026-04-27T13:39:35.001Z</time></trkpt><trkpt lat="40.33282234846965" lon="19.950916491786614"><ele>192.0</ele><time>2026-04-27T13:39:36.001Z</time></trkpt><trkpt lat="40.332700576858045" lon="19.950899182361326"><ele>193.8</ele><time>2026-04-27T13:39:37.001Z</time></trkpt><trkpt lat="40.33257830443479" lon="19.950878067950075"><ele>195.6</ele><time>2026-04-27T13:39:38.001Z</time></trkpt><trkpt lat="40.332454975632864" lon="19.950867151881873"><ele>197.4</ele><time>2026-04-27T13:39:39.001Z</time></trkpt><trkpt lat="40.33235402475456" lon="19.950866626439584"><ele>199.20000000000002</ele><time>2026-04-27T13:39:40.001Z</time></trkpt><trkpt lat="40.33226489215348" lon="19.950861795794715"><ele>201.0</ele><time>2026-04-27T13:39:41.001Z</time></trkpt><trkpt lat="40.33218313098202" lon="19.95085057195637"><ele>204.0</ele><time>2026-04-27T13:39:42.001Z</time></trkpt><trkpt lat="40.33211656248412" lon="19.950801029804644"><ele>207.0</ele><time>2026-04-27T13:39:43.001Z</time></trkpt><trkpt lat="40.332025943289274" lon="19.95075642547252"><ele>210.0</ele><time>2026-04-27T13:39:44.001Z</time></trkpt><trkpt lat="40.33194703864043" lon="19.950718766350565"><ele>213.0</ele><time>2026-04-27T13:39:45.001Z</time></trkpt><trkpt lat="40.33186292187729" lon="19.95071969440658"><ele>216.0</ele><time>2026-04-27T13:39:46.001Z</time></trkpt><trkpt lat="40.33180072598967" lon="19.95074333336762"><ele>219.0</ele><time>2026-04-27T13:39:47.001Z</time></trkpt><trkpt lat="40.331745518122084" lon="19.95081620103225"><ele>219.0</ele><time>2026-04-27T13:39:48.001Z</time></trkpt><trkpt lat="40.33167800780838" lon="19.950873253414734"><ele>218.99999999999997</ele><time>2026-04-27T13:39:49.001Z</time></trkpt><trkpt lat="40.33159742868697" lon="19.950954463177197"><ele>218.99999999999997</ele><time>2026-04-27T13:39:50.001Z</time></trkpt><trkpt lat="40.33150400294577" lon="19.95101812648189"><ele>219.0</ele><time>2026-04-27T13:39:51.001Z</time></trkpt><trkpt lat="40.33141229723205" lon="19.95110221259244"><ele>219.0</ele><time>2026-04-27T13:39:52.001Z</time></trkpt><trkpt lat="40.33131938538031" lon="19.951187541371905"><ele>219.39999999999998</ele><time>2026-04-27T13:39:53.001Z</time></trkpt><trkpt lat="40.33123179260821" lon="19.951267058807343"><ele>219.79999999999998</ele><time>2026-04-27T13:39:54.001Z</time></trkpt><trkpt lat="40.3311371179257" lon="19.951335091606232"><ele>220.20000000000002</ele><time>2026-04-27T13:39:55.001Z</time></trkpt><trkpt lat="40.331036937074956" lon="19.95140002195155"><ele>220.60000000000002</ele><time>2026-04-27T13:39:56.001Z</time></trkpt><trkpt lat="40.330941358806555" lon="19.95145775604076"><ele>221.0</ele><time>2026-04-27T13:39:57.001Z</time></trkpt><trkpt lat="40.33086109831616" lon="19.9514900042434"><ele>221.00000000000003</ele><time>2026-04-27T13:39:58.001Z</time></trkpt><trkpt lat="40.33078834793616" lon="19.95149505189595"><ele>221.0</ele><time>2026-04-27T13:39:59.001Z</time></trkpt><trkpt lat="40.33071319921925" lon="19.951493109113517"><ele>221.0</ele><time>2026-04-27T13:40:00.001Z</time></trkpt><trkpt lat="40.33062436794325" lon="19.95148673179165"><ele>221.0</ele><time>2026-04-27T13:40:01.001Z</time></trkpt><trkpt lat="40.3305372711559" lon="19.951468609284046"><ele>221.00000000000003</ele><time>2026-04-27T13:40:02.001Z</time></trkpt><trkpt lat="40.3304441218845" lon="19.951449044361556"><ele>221.0</ele><time>2026-04-27T13:40:03.001Z</time></trkpt><trkpt lat="40.3303380716627" lon="19.951421036450586"><ele>222.60000000000002</ele><time>2026-04-27T13:40:04.001Z</time></trkpt><trkpt lat="40.33023160310313" lon="19.951393375208255"><ele>224.20000000000002</ele><time>2026-04-27T13:40:05.001Z</time></trkpt><trkpt lat="40.33011684284689" lon="19.951376864486527"><ele>225.79999999999998</ele><time>2026-04-27T13:40:06.001Z</time></trkpt><trkpt lat="40.33001629275732" lon="19.951346191381344"><ele>227.39999999999998</ele><time>2026-04-27T13:40:07.001Z</time></trkpt><trkpt lat="40.329918703107154" lon="19.95133311122959"><ele>229.0</ele><time>2026-04-27T13:40:08.001Z</time></trkpt><trkpt lat="40.32980978843895" lon="19.951332910047945"><ele>230.2</ele><time>2026-04-27T13:40:09.001Z</time></trkpt><trkpt lat="40.329707959658755" lon="19.951351355690544"><ele>231.39999999999998</ele><time>2026-04-27T13:40:10.001Z</time></trkpt><trkpt lat="40.329608582634656" lon="19.951371066770974"><ele>232.6</ele><time>2026-04-27T13:40:11.001Z</time></trkpt><trkpt lat="40.32951213399035" lon="19.95135618068664"><ele>233.8</ele><time>2026-04-27T13:40:12.001Z</time></trkpt><trkpt lat="40.32940655086058" lon="19.951316015094097"><ele>235.0</ele><time>2026-04-27T13:40:13.001Z</time></trkpt><trkpt lat="40.329295127542245" lon="19.951266520200832"><ele>235.0</ele><time>2026-04-27T13:40:14.001Z</time></trkpt><trkpt lat="40.32918137715064" lon="19.951227671362183"><ele>235.0</ele><time>2026-04-27T13:40:15.001Z</time></trkpt><trkpt lat="40.32907166358084" lon="19.951169560756753"><ele>235.0</ele><time>2026-04-27T13:40:16.001Z</time></trkpt><trkpt lat="40.3289753272733" lon="19.951103407304522"><ele>235.0</ele><time>2026-04-27T13:40:17.001Z</time></trkpt><trkpt lat="40.328896423462304" lon="19.95106967040612"><ele>235.0</ele><time>2026-04-27T13:40:18.001Z</time></trkpt><trkpt lat="40.32882364170324" lon="19.95109604426016"><ele>237.2</ele><time>2026-04-27T13:40:19.001Z</time></trkpt><trkpt lat="40.32875046587897" lon="19.951109785890324"><ele>239.4</ele><time>2026-04-27T13:40:20.001Z</time></trkpt><trkpt lat="40.328652632789854" lon="19.95111947623228"><ele>241.60000000000002</ele><time>2026-04-27T13:40:21.001Z</time></trkpt><trkpt lat="40.32854219548019" lon="19.95116324693739"><ele>243.8</ele><time>2026-04-27T13:40:22.001Z</time></trkpt><trkpt lat="40.32842095952073" lon="19.951192918443702"><ele>246.0</ele><time>2026-04-27T13:40:23.001Z</time></trkpt><trkpt lat="40.328290295780974" lon="19.95121000719373"><ele>246.0</ele><time>2026-04-27T13:40:24.001Z</time></trkpt><trkpt lat="40.32816404406877" lon="19.95122303075315"><ele>246.0</ele><time>2026-04-27T13:40:25.001Z</time></trkpt><trkpt lat="40.32804262406052" lon="19.951248066099836"><ele>246.0</ele><time>2026-04-27T13:40:26.001Z</time></trkpt><trkpt lat="40.3279252842582" lon="19.951287064443548"><ele>246.0</ele><time>2026-04-27T13:40:27.001Z</time></trkpt><trkpt lat="40.32780670708974" lon="19.951340701330555"><ele>250.75</ele><time>2026-04-27T13:40:28.001Z</time></trkpt><trkpt lat="40.327686716010476" lon="19.951381771399745"><ele>255.5</ele><time>2026-04-27T13:40:29.001Z</time></trkpt><trkpt lat="40.32757579101443" lon="19.951392681341385"><ele>260.25</ele><time>2026-04-27T13:40:30.001Z</time></trkpt><trkpt lat="40.32746786863593" lon="19.951388447331755"><ele>265.0</ele><time>2026-04-27T13:40:31.001Z</time></trkpt><trkpt lat="40.32736037843307" lon="19.951377216727682"><ele>265.0</ele><time>2026-04-27T13:40:32.001Z</time></trkpt><trkpt lat="40.32725747768782" lon="19.951362475575223"><ele>265.0</ele><time>2026-04-27T13:40:33.001Z</time></trkpt><trkpt lat="40.32716155588131" lon="19.951383329292813"><ele>265.0</ele><time>2026-04-27T13:40:34.001Z</time></trkpt><trkpt lat="40.3270721693509" lon="19.951438312742567"><ele>265.0</ele><time>2026-04-27T13:40:35.001Z</time></trkpt><trkpt lat="40.32698842083187" lon="19.951520586167813"><ele>265.0</ele><time>2026-04-27T13:40:36.001Z</time></trkpt><trkpt lat="40.3268970823643" lon="19.951615097478683"><ele>269.4</ele><time>2026-04-27T13:40:37.001Z</time></trkpt><trkpt lat="40.3268024370393" lon="19.951714694890967"><ele>273.8</ele><time>2026-04-27T13:40:38.001Z</time></trkpt><trkpt lat="40.32671968552893" lon="19.951811082456008"><ele>278.2</ele><time>2026-04-27T13:40:39.001Z</time></trkpt><trkpt lat="40.32664727132599" lon="19.951909917039117"><ele>282.6</ele><time>2026-04-27T13:40:40.001Z</time></trkpt><trkpt lat="40.32658568070908" lon="19.95198895543727"><ele>287.0</ele><time>2026-04-27T13:40:41.001Z</time></trkpt><trkpt lat="40.32652730718056" lon="19.952035717582767"><ele>287.0</ele><time>2026-04-27T13:40:42.001Z</time></trkpt><trkpt lat="40.32641282195247" lon="19.95200330231148"><ele>287.0</ele><time>2026-04-27T13:40:44.001Z</time></trkpt><trkpt lat="40.32633639922218" lon="19.951967335374743"><ele>287.0</ele><time>2026-04-27T13:40:45.001Z</time></trkpt><trkpt lat="40.326240046522756" lon="19.951944213902458"><ele>287.0</ele><time>2026-04-27T13:40:46.001Z</time></trkpt><trkpt lat="40.326156692135015" lon="19.951910380112267"><ele>287.0</ele><time>2026-04-27T13:40:47.001Z</time></trkpt><trkpt lat="40.32608322649232" lon="19.95188894117903"><ele>288.83333333333337</ele><time>2026-04-27T13:40:48.001Z</time></trkpt><trkpt lat="40.32600919285838" lon="19.95189461178904"><ele>290.6666666666667</ele><time>2026-04-27T13:40:49.001Z</time></trkpt><trkpt lat="40.32592572738328" lon="19.95190926461474"><ele>292.5</ele><time>2026-04-27T13:40:50.001Z</time></trkpt><trkpt lat="40.32583885160119" lon="19.95193228412061"><ele>294.3333333333333</ele><time>2026-04-27T13:40:51.001Z</time></trkpt><trkpt lat="40.32575306365795" lon="19.95196755378699"><ele>296.16666666666663</ele><time>2026-04-27T13:40:52.001Z</time></trkpt><trkpt lat="40.325667247364166" lon="19.95201849792462"><ele>298.0</ele><time>2026-04-27T13:40:53.001Z</time></trkpt><trkpt lat="40.325593845150166" lon="19.952085498399125"><ele>298.5</ele><time>2026-04-27T13:40:54.001Z</time></trkpt><trkpt lat="40.32551241146336" lon="19.95216820154604"><ele>299.0</ele><time>2026-04-27T13:40:55.001Z</time></trkpt><trkpt lat="40.325438476578015" lon="19.952245166231524"><ele>299.5</ele><time>2026-04-27T13:40:56.001Z</time></trkpt><trkpt lat="40.325386058544844" lon="19.952305962032018"><ele>300.0</ele><time>2026-04-27T13:40:57.001Z</time></trkpt><trkpt lat="40.3253433952241" lon="19.952376477114132"><ele>300.5</ele><time>2026-04-27T13:40:58.001Z</time></trkpt><trkpt lat="40.325297171000344" lon="19.952485468286895"><ele>301.0</ele><time>2026-04-27T13:41:00.001Z</time></trkpt><trkpt lat="40.32523602686349" lon="19.95244922603325"><ele>301.0</ele><time>2026-04-27T13:41:02.001Z</time></trkpt><trkpt lat="40.325155919823764" lon="19.95238428229354"><ele>301.0</ele><time>2026-04-27T13:41:04.001Z</time></trkpt><trkpt lat="40.325079607579944" lon="19.95233942273604"><ele>301.0</ele><time>2026-04-27T13:41:05.001Z</time></trkpt><trkpt lat="40.32496907086771" lon="19.95234410150748"><ele>301.0</ele><time>2026-04-27T13:41:06.001Z</time></trkpt><trkpt lat="40.32487946264415" lon="19.95233572459263"><ele>301.0</ele><time>2026-04-27T13:41:07.001Z</time></trkpt><trkpt lat="40.324790358590185" lon="19.952351737823335"><ele>305.6</ele><time>2026-04-27T13:41:08.001Z</time></trkpt><trkpt lat="40.3247254935692" lon="19.95232013889295"><ele>310.20000000000005</ele><time>2026-04-27T13:41:09.001Z</time></trkpt><trkpt lat="40.32462058625367" lon="19.95221120642287"><ele>314.79999999999995</ele><time>2026-04-27T13:41:11.001Z</time></trkpt><trkpt lat="40.32454128972497" lon="19.95213682944373"><ele>319.4</ele><time>2026-04-27T13:41:12.001Z</time></trkpt><trkpt lat="40.32444198665657" lon="19.95206869308433"><ele>324.0</ele><time>2026-04-27T13:41:13.001Z</time></trkpt><trkpt lat="40.32435018319339" lon="19.951978510850033"><ele>324.0</ele><time>2026-04-27T13:41:14.001Z</time></trkpt><trkpt lat="40.324260699051905" lon="19.95187384003374"><ele>324.0</ele><time>2026-04-27T13:41:15.001Z</time></trkpt><trkpt lat="40.324179304009185" lon="19.951797150095974"><ele>324.0</ele><time>2026-04-27T13:41:16.001Z</time></trkpt><trkpt lat="40.32411764722685" lon="19.951726210321507"><ele>324.0</ele><time>2026-04-27T13:41:17.001Z</time></trkpt><trkpt lat="40.32405430761009" lon="19.95164198664236"><ele>324.0</ele><time>2026-04-27T13:41:18.001Z</time></trkpt><trkpt lat="40.32399156769281" lon="19.951552115640588"><ele>327.2</ele><time>2026-04-27T13:41:19.001Z</time></trkpt><trkpt lat="40.323951281105494" lon="19.95144330705385"><ele>330.4</ele><time>2026-04-27T13:41:20.001Z</time></trkpt><trkpt lat="40.32387380636036" lon="19.951341563802803"><ele>333.6</ele><time>2026-04-27T13:41:21.001Z</time></trkpt><trkpt lat="40.32381306137808" lon="19.951237871416122"><ele>336.8</ele><time>2026-04-27T13:41:22.001Z</time></trkpt><trkpt lat="40.32373735553083" lon="19.951147817782203"><ele>340.0</ele><time>2026-04-27T13:41:23.001Z</time></trkpt><trkpt lat="40.323659490133956" lon="19.951070847263466"><ele>340.0</ele><time>2026-04-27T13:41:24.001Z</time></trkpt><trkpt lat="40.323584100984455" lon="19.950994437299745"><ele>340.0</ele><time>2026-04-27T13:41:25.001Z</time></trkpt><trkpt lat="40.32350966888514" lon="19.950915095556514"><ele>340.0</ele><time>2026-04-27T13:41:26.001Z</time></trkpt><trkpt lat="40.32345326800415" lon="19.9508160902162"><ele>340.0</ele><time>2026-04-27T13:41:27.001Z</time></trkpt><trkpt lat="40.32337644772169" lon="19.950744422155427"><ele>340.0</ele><time>2026-04-27T13:41:28.001Z</time></trkpt><trkpt lat="40.323307738248964" lon="19.950655898911954"><ele>337.0</ele><time>2026-04-27T13:41:29.001Z</time></trkpt><trkpt lat="40.32324030901437" lon="19.95056950714187"><ele>334.0</ele><time>2026-04-27T13:41:30.001Z</time></trkpt><trkpt lat="40.323189407994" lon="19.95047469581964"><ele>331.0</ele><time>2026-04-27T13:41:31.001Z</time></trkpt><trkpt lat="40.32308795675717" lon="19.95045102044817"><ele>328.0</ele><time>2026-04-27T13:41:32.001Z</time></trkpt><trkpt lat="40.32301077886932" lon="19.950410881638028"><ele>325.0</ele><time>2026-04-27T13:41:33.001Z</time></trkpt><trkpt lat="40.32293120748493" lon="19.95038746894904"><ele>331.0</ele><time>2026-04-27T13:41:34.001Z</time></trkpt><trkpt lat="40.3228543210778" lon="19.95037360625666"><ele>337.0</ele><time>2026-04-27T13:41:35.001Z</time></trkpt><trkpt lat="40.322773493875154" lon="19.95037670297171"><ele>343.0</ele><time>2026-04-27T13:41:36.001Z</time></trkpt><trkpt lat="40.32268790777586" lon="19.950389965609286"><ele>349.0</ele><time>2026-04-27T13:41:37.001Z</time></trkpt><trkpt lat="40.32259901042688" lon="19.95038907322715"><ele>355.0</ele><time>2026-04-27T13:41:38.001Z</time></trkpt><trkpt lat="40.3225210385585" lon="19.950318289940437"><ele>361.0</ele><time>2026-04-27T13:41:39.001Z</time></trkpt><trkpt lat="40.32244163938774" lon="19.950263473985615"><ele>361.0</ele><time>2026-04-27T13:41:40.001Z</time></trkpt><trkpt lat="40.32236539563711" lon="19.950209962790403"><ele>361.0</ele><time>2026-04-27T13:41:41.001Z</time></trkpt><trkpt lat="40.32231801536792" lon="19.95013467719566"><ele>361.0</ele><time>2026-04-27T13:41:42.001Z</time></trkpt><trkpt lat="40.32228526404371" lon="19.950045731954805"><ele>361.0</ele><time>2026-04-27T13:41:43.001Z</time></trkpt><trkpt lat="40.3222523489436" lon="19.949952248156187"><ele>361.0</ele><time>2026-04-27T13:41:44.001Z</time></trkpt><trkpt lat="40.32222107501675" lon="19.94985234951287"><ele>361.0</ele><time>2026-04-27T13:41:45.001Z</time></trkpt><trkpt lat="40.32218884939072" lon="19.94974862997149"><ele>363.8333333333333</ele><time>2026-04-27T13:41:46.001Z</time></trkpt><trkpt lat="40.322149551199495" lon="19.94965437917895"><ele>366.66666666666663</ele><time>2026-04-27T13:41:47.001Z</time></trkpt><trkpt lat="40.32211564485951" lon="19.94956151205126"><ele>369.5</ele><time>2026-04-27T13:41:48.001Z</time></trkpt><trkpt lat="40.322062370181975" lon="19.94950021344822"><ele>372.3333333333333</ele><time>2026-04-27T13:41:49.001Z</time></trkpt><trkpt lat="40.32199372640902" lon="19.94944518153484"><ele>375.1666666666667</ele><time>2026-04-27T13:41:50.001Z</time></trkpt><trkpt lat="40.32191094825593" lon="19.949395457052727"><ele>378.0</ele><time>2026-04-27T13:41:51.001Z</time></trkpt><trkpt lat="40.32184460130893" lon="19.949331078333746"><ele>378.0</ele><time>2026-04-27T13:41:52.001Z</time></trkpt><trkpt lat="40.3217831917566" lon="19.949262433315738"><ele>378.0</ele><time>2026-04-27T13:41:53.001Z</time></trkpt><trkpt lat="40.321753165834515" lon="19.949173805913833"><ele>378.0</ele><time>2026-04-27T13:41:54.001Z</time></trkpt><trkpt lat="40.32173676761986" lon="19.949091586844823"><ele>378.0</ele><time>2026-04-27T13:41:55.001Z</time></trkpt><trkpt lat="40.32171076608812" lon="19.948993972855618"><ele>378.0</ele><time>2026-04-27T13:41:56.001Z</time></trkpt><trkpt lat="40.32168134371343" lon="19.948855381749375"><ele>378.0</ele><time>2026-04-27T13:41:57.001Z</time></trkpt><trkpt lat="40.32164959057121" lon="19.94868776549202"><ele>374.79999999999995</ele><time>2026-04-27T13:41:58.001Z</time></trkpt><trkpt lat="40.3216364009601" lon="19.948522154893016"><ele>371.6</ele><time>2026-04-27T13:41:59.001Z</time></trkpt><trkpt lat="40.32163299499025" lon="19.94836406048209"><ele>368.4</ele><time>2026-04-27T13:42:00.001Z</time></trkpt><trkpt lat="40.32163198460126" lon="19.948240426378153"><ele>365.20000000000005</ele><time>2026-04-27T13:42:01.001Z</time></trkpt><trkpt lat="40.32161534425244" lon="19.948139673073456"><ele>362.0</ele><time>2026-04-27T13:42:02.001Z</time></trkpt><trkpt lat="40.321617463848874" lon="19.94804379525704"><ele>360.0</ele><time>2026-04-27T13:42:03.001Z</time></trkpt><trkpt lat="40.32159451585947" lon="19.9478788258961"><ele>358.0</ele><time>2026-04-27T13:42:05.001Z</time></trkpt><trkpt lat="40.321578136736704" lon="19.947791276642516"><ele>356.0</ele><time>2026-04-27T13:42:06.001Z</time></trkpt><trkpt lat="40.32144582667122" lon="19.947768589716947"><ele>354.0</ele><time>2026-04-27T13:42:07.001Z</time></trkpt><trkpt lat="40.32131817033842" lon="19.947781052209503"><ele>360.4</ele><time>2026-04-27T13:42:09.001Z</time></trkpt><trkpt lat="40.32124904858238" lon="19.947825472677433"><ele>366.79999999999995</ele><time>2026-04-27T13:42:10.001Z</time></trkpt><trkpt lat="40.32116027955978" lon="19.947876950217744"><ele>373.20000000000005</ele><time>2026-04-27T13:42:11.001Z</time></trkpt><trkpt lat="40.32106651275508" lon="19.947901635426152"><ele>379.6</ele><time>2026-04-27T13:42:12.001Z</time></trkpt><trkpt lat="40.32096958168163" lon="19.947866113511733"><ele>386.0</ele><time>2026-04-27T13:42:13.001Z</time></trkpt><trkpt lat="40.32087063083915" lon="19.94786009089586"><ele>386.0</ele><time>2026-04-27T13:42:14.001Z</time></trkpt><trkpt lat="40.32078948145315" lon="19.947799995348387"><ele>386.0</ele><time>2026-04-27T13:42:15.001Z</time></trkpt><trkpt lat="40.32070301630539" lon="19.947762150475366"><ele>386.0</ele><time>2026-04-27T13:42:16.001Z</time></trkpt><trkpt lat="40.32061023628321" lon="19.947745731898586"><ele>386.0</ele><time>2026-04-27T13:42:17.001Z</time></trkpt><trkpt lat="40.32051180727688" lon="19.94775000671496"><ele>386.0</ele><time>2026-04-27T13:42:18.001Z</time></trkpt><trkpt lat="40.320403457454255" lon="19.947773119509876"><ele>388.20000000000005</ele><time>2026-04-27T13:42:19.001Z</time></trkpt><trkpt lat="40.320298301435365" lon="19.94781374887754"><ele>390.40000000000003</ele><time>2026-04-27T13:42:20.001Z</time></trkpt><trkpt lat="40.32019552570004" lon="19.947867499510313"><ele>392.6</ele><time>2026-04-27T13:42:21.001Z</time></trkpt><trkpt lat="40.320092362985214" lon="19.947917814852573"><ele>394.8</ele><time>2026-04-27T13:42:22.001Z</time></trkpt><trkpt lat="40.3199845567534" lon="19.947958007385203"><ele>397.0</ele><time>2026-04-27T13:42:23.001Z</time></trkpt><trkpt lat="40.31987458215492" lon="19.94799153600404"><ele>397.0</ele><time>2026-04-27T13:42:24.001Z</time></trkpt><trkpt lat="40.31977427591276" lon="19.948013230823733"><ele>397.0</ele><time>2026-04-27T13:42:25.001Z</time></trkpt><trkpt lat="40.31967577691796" lon="19.948023734682486"><ele>397.0</ele><time>2026-04-27T13:42:26.001Z</time></trkpt><trkpt lat="40.31956898028729" lon="19.948033974628977"><ele>397.0</ele><time>2026-04-27T13:42:27.001Z</time></trkpt><trkpt lat="40.31945581320249" lon="19.94804283898634"><ele>397.0</ele><time>2026-04-27T13:42:28.001Z</time></trkpt><trkpt lat="40.3193448345717" lon="19.948042642543772"><ele>398.8</ele><time>2026-04-27T13:42:29.001Z</time></trkpt><trkpt lat="40.31923199354725" lon="19.94802478965393"><ele>400.6</ele><time>2026-04-27T13:42:30.001Z</time></trkpt><trkpt lat="40.319127542282075" lon="19.947980437771253"><ele>402.40000000000003</ele><time>2026-04-27T13:42:31.001Z</time></trkpt><trkpt lat="40.319046967178764" lon="19.94788164344741"><ele>404.20000000000005</ele><time>2026-04-27T13:42:32.001Z</time></trkpt><trkpt lat="40.31897843934001" lon="19.947776669516895"><ele>406.0</ele><time>2026-04-27T13:42:33.001Z</time></trkpt><trkpt lat="40.31890307902975" lon="19.947671485086865"><ele>406.6</ele><time>2026-04-27T13:42:34.001Z</time></trkpt><trkpt lat="40.318832284867824" lon="19.94757275676253"><ele>407.20000000000005</ele><time>2026-04-27T13:42:35.001Z</time></trkpt><trkpt lat="40.31871710945894" lon="19.947518185494904"><ele>407.79999999999995</ele><time>2026-04-27T13:42:36.001Z</time></trkpt><trkpt lat="40.318623569157914" lon="19.94747285605965"><ele>408.4</ele><time>2026-04-27T13:42:37.001Z</time></trkpt><trkpt lat="40.3185280175744" lon="19.947468531911206"><ele>409.0</ele><time>2026-04-27T13:42:38.001Z</time></trkpt><trkpt lat="40.31841187275096" lon="19.947457218757933"><ele>408.6</ele><time>2026-04-27T13:42:40.001Z</time></trkpt><trkpt lat="40.31829505749811" lon="19.94744630708218"><ele>408.2</ele><time>2026-04-27T13:42:42.001Z</time></trkpt><trkpt lat="40.318223296467956" lon="19.947453673476"><ele>407.8</ele><time>2026-04-27T13:42:43.001Z</time></trkpt><trkpt lat="40.31815612616518" lon="19.94745971505341"><ele>407.40000000000003</ele><time>2026-04-27T13:42:44.001Z</time></trkpt><trkpt lat="40.31803841635805" lon="19.94750359093956"><ele>407.0</ele><time>2026-04-27T13:42:46.001Z</time></trkpt><trkpt lat="40.317940748721725" lon="19.947562401079082"><ele>407.0</ele><time>2026-04-27T13:42:48.001Z</time></trkpt><trkpt lat="40.31783382773963" lon="19.94757658931107"><ele>407.0</ele><time>2026-04-27T13:42:50.001Z</time></trkpt><trkpt lat="40.317740837253595" lon="19.947559274639136"><ele>407.0</ele><time>2026-04-27T13:42:51.001Z</time></trkpt><trkpt lat="40.31764272784897" lon="19.947530448881697"><ele>407.0</ele><time>2026-04-27T13:42:52.001Z</time></trkpt><trkpt lat="40.31755383243393" lon="19.947531380967185"><ele>407.0</ele><time>2026-04-27T13:42:53.001Z</time></trkpt><trkpt lat="40.31748355336067" lon="19.947531880628453"><ele>407.0</ele><time>2026-04-27T13:42:54.001Z</time></trkpt><trkpt lat="40.317404210926455" lon="19.94750322037875"><ele>407.0</ele><time>2026-04-27T13:42:55.001Z</time></trkpt><trkpt lat="40.317324181524576" lon="19.947467141383953"><ele>407.0</ele><time>2026-04-27T13:42:56.001Z</time></trkpt><trkpt lat="40.31723973945872" lon="19.947334597486872"><ele>407.0</ele><time>2026-04-27T13:42:57.001Z</time></trkpt><trkpt lat="40.31712452499586" lon="19.947219089726502"><ele>407.0</ele><time>2026-04-27T13:42:58.001Z</time></trkpt><trkpt lat="40.3170226243127" lon="19.947124814853197"><ele>408.0</ele><time>2026-04-27T13:42:59.001Z</time></trkpt><trkpt lat="40.316954805871625" lon="19.94701450553296"><ele>409.0</ele><time>2026-04-27T13:43:00.001Z</time></trkpt><trkpt lat="40.31686662943399" lon="19.94690851112801"><ele>410.0</ele><time>2026-04-27T13:43:01.001Z</time></trkpt><trkpt lat="40.31678636900816" lon="19.946768778179795"><ele>411.0</ele><time>2026-04-27T13:43:02.001Z</time></trkpt><trkpt lat="40.316722100417294" lon="19.94661426365786"><ele>411.0</ele><time>2026-04-27T13:43:03.001Z</time></trkpt><trkpt lat="40.31672313118583" lon="19.946465035675672"><ele>411.0</ele><time>2026-04-27T13:43:04.001Z</time></trkpt><trkpt lat="40.31671425459214" lon="19.946310858604814"><ele>411.0</ele><time>2026-04-27T13:43:05.001Z</time></trkpt><trkpt lat="40.316730574344945" lon="19.946183895480342"><ele>411.0</ele><time>2026-04-27T13:43:06.001Z</time></trkpt><trkpt lat="40.316746155152494" lon="19.94608390517892"><ele>411.0</ele><time>2026-04-27T13:43:07.001Z</time></trkpt><trkpt lat="40.31677848284019" lon="19.946003351713347"><ele>411.0</ele><time>2026-04-27T13:43:08.001Z</time></trkpt><trkpt lat="40.316826310753235" lon="19.945945661889148"><ele>411.0</ele><time>2026-04-27T13:43:09.001Z</time></trkpt><trkpt lat="40.316902289359604" lon="19.945878534115483"><ele>411.0</ele><time>2026-04-27T13:43:10.001Z</time></trkpt><trkpt lat="40.316998483141525" lon="19.945792249674177"><ele>411.0</ele><time>2026-04-27T13:43:11.001Z</time></trkpt><trkpt lat="40.317105973913115" lon="19.945697309997218"><ele>411.0</ele><time>2026-04-27T13:43:12.001Z</time></trkpt><trkpt lat="40.317222065886355" lon="19.945582892546277"><ele>406.25</ele><time>2026-04-27T13:43:13.001Z</time></trkpt><trkpt lat="40.31733238293148" lon="19.945468514740924"><ele>401.5</ele><time>2026-04-27T13:43:14.001Z</time></trkpt><trkpt lat="40.317429601104834" lon="19.9453673770836"><ele>396.75</ele><time>2026-04-27T13:43:15.001Z</time></trkpt><trkpt lat="40.31752241820661" lon="19.94526742492443"><ele>392.0</ele><time>2026-04-27T13:43:16.001Z</time></trkpt><trkpt lat="40.31760026754371" lon="19.945146350713777"><ele>395.0</ele><time>2026-04-27T13:43:17.001Z</time></trkpt><trkpt lat="40.31763194589864" lon="19.945003464487954"><ele>398.0</ele><time>2026-04-27T13:43:18.001Z</time></trkpt><trkpt lat="40.3176231972986" lon="19.94486908047464"><ele>401.0</ele><time>2026-04-27T13:43:19.001Z</time></trkpt><trkpt lat="40.317580689168125" lon="19.944753464338564"><ele>404.0</ele><time>2026-04-27T13:43:20.001Z</time></trkpt><trkpt lat="40.3174876602474" lon="19.944671386539703"><ele>407.0</ele><time>2026-04-27T13:43:21Z</time></trkpt><trkpt lat="40.31741682329819" lon="19.944581103000665"><ele>406.99999999999994</ele><time>2026-04-27T13:43:22Z</time></trkpt><trkpt lat="40.31739686590718" lon="19.944487581006797"><ele>407.0</ele><time>2026-04-27T13:43:23Z</time></trkpt><trkpt lat="40.317426053490486" lon="19.944343549771748"><ele>407.0</ele><time>2026-04-27T13:43:25Z</time></trkpt><trkpt lat="40.31749391157804" lon="19.944321218649943"><ele>407.0</ele><time>2026-04-27T13:43:26Z</time></trkpt><trkpt lat="40.31756539726595" lon="19.944362000686734"><ele>406.99999999999994</ele><time>2026-04-27T13:43:27Z</time></trkpt><trkpt lat="40.31765091927987" lon="19.94432259980451"><ele>407.0</ele><time>2026-04-27T13:43:28Z</time></trkpt><trkpt lat="40.31773023779693" lon="19.944285899480285"><ele>407.0</ele><time>2026-04-27T13:43:29Z</time></trkpt><trkpt lat="40.317809108395444" lon="19.944250363307738"><ele>407.0</ele><time>2026-04-27T13:43:30Z</time></trkpt><trkpt lat="40.317899786858696" lon="19.944191425207833"><ele>407.0</ele><time>2026-04-27T13:43:31Z</time></trkpt><trkpt lat="40.31799770381282" lon="19.94411809381888"><ele>407.0</ele><time>2026-04-27T13:43:32Z</time></trkpt><trkpt lat="40.31809439144782" lon="19.944041564579884"><ele>407.0</ele><time>2026-04-27T13:43:33Z</time></trkpt><trkpt lat="40.31819599885105" lon="19.94394006530835"><ele>402.75</ele><time>2026-04-27T13:43:34Z</time></trkpt><trkpt lat="40.31829723267743" lon="19.9438277999196"><ele>398.5</ele><time>2026-04-27T13:43:35Z</time></trkpt><trkpt lat="40.318396425793765" lon="19.94370889007029"><ele>394.25</ele><time>2026-04-27T13:43:36Z</time></trkpt><trkpt lat="40.318495046854096" lon="19.943578958141376"><ele>390.0</ele><time>2026-04-27T13:43:37Z</time></trkpt><trkpt lat="40.31859829911953" lon="19.943443144253873"><ele>388.66666666666663</ele><time>2026-04-27T13:43:38Z</time></trkpt><trkpt lat="40.31870522762099" lon="19.943294992107464"><ele>387.3333333333333</ele><time>2026-04-27T13:43:39Z</time></trkpt><trkpt lat="40.318812616738505" lon="19.943128701879086"><ele>386.0</ele><time>2026-04-27T13:43:40Z</time></trkpt><trkpt lat="40.318922040717986" lon="19.94297610727232"><ele>386.0</ele><time>2026-04-27T13:43:41Z</time></trkpt><trkpt lat="40.31899979957573" lon="19.942817591876075"><ele>386.0</ele><time>2026-04-27T13:43:42Z</time></trkpt><trkpt lat="40.319088729342745" lon="19.942701985366494"><ele>386.0</ele><time>2026-04-27T13:43:43Z</time></trkpt><trkpt lat="40.31916818049613" lon="19.94260100840672"><ele>386.0</ele><time>2026-04-27T13:43:44Z</time></trkpt><trkpt lat="40.319238269599175" lon="19.942507254490252"><ele>390.0</ele><time>2026-04-27T13:43:45Z</time></trkpt><trkpt lat="40.31927869244527" lon="19.94237742942664"><ele>394.0</ele><time>2026-04-27T13:43:46Z</time></trkpt><trkpt lat="40.319286071448765" lon="19.9422194422715"><ele>398.0</ele><time>2026-04-27T13:43:47Z</time></trkpt><trkpt lat="40.31924398309435" lon="19.942053984723312"><ele>402.0</ele><time>2026-04-27T13:43:48Z</time></trkpt><trkpt lat="40.31919154707174" lon="19.94189435664997"><ele>402.0</ele><time>2026-04-27T13:43:49Z</time></trkpt><trkpt lat="40.31912250081357" lon="19.941737970402407"><ele>402.0</ele><time>2026-04-27T13:43:50Z</time></trkpt><trkpt lat="40.319032896794326" lon="19.941590858684098"><ele>402.0</ele><time>2026-04-27T13:43:51Z</time></trkpt><trkpt lat="40.31891424029709" lon="19.941472618035924"><ele>402.0</ele><time>2026-04-27T13:43:52Z</time></trkpt><trkpt lat="40.31880373011776" lon="19.941391944468116"><ele>401.5</ele><time>2026-04-27T13:43:53Z</time></trkpt><trkpt lat="40.318728171024404" lon="19.941306316422125"><ele>401.0</ele><time>2026-04-27T13:43:54Z</time></trkpt><trkpt lat="40.31868627994464" lon="19.941241408242984"><ele>400.5</ele><time>2026-04-27T13:43:55Z</time></trkpt><trkpt lat="40.31871115036033" lon="19.941115510986606"><ele>400.0</ele><time>2026-04-27T13:43:57Z</time></trkpt><trkpt lat="40.318767752482636" lon="19.941062786356188"><ele>399.5</ele><time>2026-04-27T13:43:58Z</time></trkpt><trkpt lat="40.31885137245404" lon="19.94103637425498"><ele>399.0</ele><time>2026-04-27T13:43:59Z</time></trkpt><trkpt lat="40.31897695755" lon="19.94105675682971"><ele>399.0</ele><time>2026-04-27T13:44:00Z</time></trkpt><trkpt lat="40.31913848690435" lon="19.941025667515575"><ele>399.0</ele><time>2026-04-27T13:44:01Z</time></trkpt><trkpt lat="40.31929747255204" lon="19.940966153851157"><ele>399.0</ele><time>2026-04-27T13:44:02Z</time></trkpt><trkpt lat="40.31942747151424" lon="19.940937203373004"><ele>399.0</ele><time>2026-04-27T13:44:03Z</time></trkpt><trkpt lat="40.31953518276956" lon="19.940908294206668"><ele>399.0</ele><time>2026-04-27T13:44:04Z</time></trkpt><trkpt lat="40.31963292995841" lon="19.94087373404814"><ele>399.0</ele><time>2026-04-27T13:44:05Z</time></trkpt><trkpt lat="40.319719322459726" lon="19.940771389593802"><ele>399.0</ele><time>2026-04-27T13:44:06Z</time></trkpt><trkpt lat="40.31978891732136" lon="19.94061784483398"><ele>398.0</ele><time>2026-04-27T13:44:07Z</time></trkpt><trkpt lat="40.31983039282018" lon="19.940425573002514"><ele>397.0</ele><time>2026-04-27T13:44:08Z</time></trkpt><trkpt lat="40.31990941112116" lon="19.940244352963024"><ele>396.0</ele><time>2026-04-27T13:44:09Z</time></trkpt><trkpt lat="40.320010680706794" lon="19.940066867639118"><ele>400.0</ele><time>2026-04-27T13:44:10Z</time></trkpt><trkpt lat="40.32012611013604" lon="19.939879998722482"><ele>404.0</ele><time>2026-04-27T13:44:11Z</time></trkpt><trkpt lat="40.32023927773026" lon="19.939709099712026"><ele>408.0</ele><time>2026-04-27T13:44:12Z</time></trkpt><trkpt lat="40.32032403166891" lon="19.93953207156015"><ele>408.0</ele><time>2026-04-27T13:44:13Z</time></trkpt><trkpt lat="40.32043464436084" lon="19.93938282387099"><ele>408.0</ele><time>2026-04-27T13:44:14Z</time></trkpt><trkpt lat="40.320565281422" lon="19.939280738656812"><ele>408.0</ele><time>2026-04-27T13:44:15Z</time></trkpt><trkpt lat="40.3206464133545" lon="19.93915199505593"><ele>408.0</ele><time>2026-04-27T13:44:16Z</time></trkpt><trkpt lat="40.32071524260084" lon="19.939010193624515"><ele>403.0</ele><time>2026-04-27T13:44:17Z</time></trkpt><trkpt lat="40.32077400199515" lon="19.9388353365336"><ele>398.0</ele><time>2026-04-27T13:44:18Z</time></trkpt><trkpt lat="40.320850322261386" lon="19.938644657508515"><ele>393.0</ele><time>2026-04-27T13:44:19Z</time></trkpt><trkpt lat="40.3209109147997" lon="19.938446341514926"><ele>396.0</ele><time>2026-04-27T13:44:20Z</time></trkpt><trkpt lat="40.320944011718716" lon="19.938268215447586"><ele>399.0</ele><time>2026-04-27T13:44:21Z</time></trkpt><trkpt lat="40.32094910765448" lon="19.938102314206702"><ele>402.0</ele><time>2026-04-27T13:44:22Z</time></trkpt><trkpt lat="40.3209100588613" lon="19.93794404691507"><ele>405.0</ele><time>2026-04-27T13:44:23Z</time></trkpt><trkpt lat="40.32083379031943" lon="19.93779877195164"><ele>405.0</ele><time>2026-04-27T13:44:24Z</time></trkpt><trkpt lat="40.32078403683159" lon="19.937674758473538"><ele>405.0</ele><time>2026-04-27T13:44:25Z</time></trkpt><trkpt lat="40.320752183621764" lon="19.937588882962977"><ele>405.0</ele><time>2026-04-27T13:44:26Z</time></trkpt><trkpt lat="40.320870441764825" lon="19.937510281648876"><ele>405.0</ele><time>2026-04-27T13:44:28Z</time></trkpt><trkpt lat="40.32097827247931" lon="19.937492701397602"><ele>405.0</ele><time>2026-04-27T13:44:29Z</time></trkpt><trkpt lat="40.321132863016224" lon="19.937444615449646"><ele>408.66666666666663</ele><time>2026-04-27T13:44:30Z</time></trkpt><trkpt lat="40.32129642319626" lon="19.93735747098408"><ele>412.3333333333333</ele><time>2026-04-27T13:44:31Z</time></trkpt><trkpt lat="40.32148091561667" lon="19.937271969298934"><ele>416.0</ele><time>2026-04-27T13:44:32Z</time></trkpt><trkpt lat="40.32167970917113" lon="19.937179951328638"><ele>408.3333333333333</ele><time>2026-04-27T13:44:33Z</time></trkpt><trkpt lat="40.32185849722656" lon="19.937091347479473"><ele>400.66666666666663</ele><time>2026-04-27T13:44:34Z</time></trkpt><trkpt lat="40.32200958383341" lon="19.936999254092097"><ele>393.0</ele><time>2026-04-27T13:44:35Z</time></trkpt><trkpt lat="40.32214416331227" lon="19.93690138378931"><ele>393.33333333333337</ele><time>2026-04-27T13:44:36Z</time></trkpt><trkpt lat="40.32227435047377" lon="19.936784859899028"><ele>393.6666666666667</ele><time>2026-04-27T13:44:37Z</time></trkpt><trkpt lat="40.322398646132974" lon="19.93666406961583"><ele>394.0</ele><time>2026-04-27T13:44:38Z</time></trkpt><trkpt lat="40.3225108761635" lon="19.9365143749658"><ele>394.0</ele><time>2026-04-27T13:44:39Z</time></trkpt><trkpt lat="40.322596269929406" lon="19.93632899089167"><ele>394.0</ele><time>2026-04-27T13:44:40Z</time></trkpt><trkpt lat="40.322641190405044" lon="19.936126727964627"><ele>394.0</ele><time>2026-04-27T13:44:41Z</time></trkpt><trkpt lat="40.32267987304429" lon="19.935938696042435"><ele>396.75</ele><time>2026-04-27T13:44:42Z</time></trkpt><trkpt lat="40.32272791844785" lon="19.935768264780688"><ele>399.5</ele><time>2026-04-27T13:44:43Z</time></trkpt><trkpt lat="40.3227414398564" lon="19.935613094661452"><ele>402.25</ele><time>2026-04-27T13:44:44Z</time></trkpt><trkpt lat="40.32270525456684" lon="19.93548192653263"><ele>405.0</ele><time>2026-04-27T13:44:45Z</time></trkpt><trkpt lat="40.32264598419039" lon="19.935393118846886"><ele>405.0</ele><time>2026-04-27T13:44:46Z</time></trkpt><trkpt lat="40.322587596672655" lon="19.935297086565587"><ele>405.0</ele><time>2026-04-27T13:44:47Z</time></trkpt><trkpt lat="40.32255271983351" lon="19.935218498191734"><ele>405.0</ele><time>2026-04-27T13:44:48Z</time></trkpt><trkpt lat="40.3226358388909" lon="19.935108495087185"><ele>405.0</ele><time>2026-04-27T13:44:50Z</time></trkpt><trkpt lat="40.322717854620564" lon="19.93502346420538"><ele>405.0</ele><time>2026-04-27T13:44:51Z</time></trkpt><trkpt lat="40.322839036449025" lon="19.93490194352312"><ele>406.0</ele><time>2026-04-27T13:44:52Z</time></trkpt><trkpt lat="40.322963326903285" lon="19.93477534616474"><ele>407.0</ele><time>2026-04-27T13:44:53Z</time></trkpt><trkpt lat="40.32305772855197" lon="19.934661582669452"><ele>408.0</ele><time>2026-04-27T13:44:54Z</time></trkpt><trkpt lat="40.323119684278964" lon="19.934539300104056"><ele>409.0</ele><time>2026-04-27T13:44:55Z</time></trkpt><trkpt lat="40.32317525969086" lon="19.934477396724784"><ele>403.75</ele><time>2026-04-27T13:44:56Z</time></trkpt><trkpt lat="40.323243050981056" lon="19.93444192665345"><ele>398.5</ele><time>2026-04-27T13:44:57Z</time></trkpt><trkpt lat="40.32333340045293" lon="19.93452545384296"><ele>393.25</ele><time>2026-04-27T13:44:58Z</time></trkpt><trkpt lat="40.32344401607614" lon="19.93461696265063"><ele>388.0</ele><time>2026-04-27T13:44:59Z</time></trkpt><trkpt lat="40.32359966982462" lon="19.934627968344056"><ele>388.0</ele><time>2026-04-27T13:45:00Z</time></trkpt><trkpt lat="40.32376236979692" lon="19.93456534117137"><ele>388.0</ele><time>2026-04-27T13:45:01Z</time></trkpt><trkpt lat="40.32389691044303" lon="19.934518710263784"><ele>388.0</ele><time>2026-04-27T13:45:02Z</time></trkpt><trkpt lat="40.32400076413898" lon="19.934453938658443"><ele>388.0</ele><time>2026-04-27T13:45:03Z</time></trkpt><trkpt lat="40.32409742740541" lon="19.934375215134768"><ele>391.33333333333337</ele><time>2026-04-27T13:45:04Z</time></trkpt><trkpt lat="40.324182052166414" lon="19.934216456822774"><ele>394.66666666666663</ele><time>2026-04-27T13:45:05Z</time></trkpt><trkpt lat="40.324287317895966" lon="19.934033398493092"><ele>398.0</ele><time>2026-04-27T13:45:06Z</time></trkpt><trkpt lat="40.32440410008852" lon="19.93383002249214"><ele>398.0</ele><time>2026-04-27T13:45:07Z</time></trkpt><trkpt lat="40.32452543112364" lon="19.933662093151774"><ele>398.0</ele><time>2026-04-27T13:45:08Z</time></trkpt><trkpt lat="40.32465420198266" lon="19.933536186173004"><ele>398.0</ele><time>2026-04-27T13:45:09Z</time></trkpt><trkpt lat="40.32479869231222" lon="19.933414834581406"><ele>397.66666666666663</ele><time>2026-04-27T13:45:10Z</time></trkpt><trkpt lat="40.32494513612395" lon="19.93329966339892"><ele>397.33333333333337</ele><time>2026-04-27T13:45:11Z</time></trkpt><trkpt lat="40.32507534341179" lon="19.933196689515935"><ele>397.0</ele><time>2026-04-27T13:45:12Z</time></trkpt><trkpt lat="40.325190164485626" lon="19.933091514575583"><ele>397.0</ele><time>2026-04-27T13:45:13Z</time></trkpt><trkpt lat="40.32527619832146" lon="19.932942926286266"><ele>397.0</ele><time>2026-04-27T13:45:14Z</time></trkpt><trkpt lat="40.3253656354166" lon="19.93279706309089"><ele>397.0</ele><time>2026-04-27T13:45:15Z</time></trkpt><trkpt lat="40.325445738019155" lon="19.93263343703063"><ele>397.0</ele><time>2026-04-27T13:45:16Z</time></trkpt><trkpt lat="40.325520413309775" lon="19.93248078152694"><ele>397.5</ele><time>2026-04-27T13:45:17Z</time></trkpt><trkpt lat="40.325571626471984" lon="19.932299832791017"><ele>398.0</ele><time>2026-04-27T13:45:18Z</time></trkpt><trkpt lat="40.32556229937949" lon="19.93211702092828"><ele>398.5</ele><time>2026-04-27T13:45:19Z</time></trkpt><trkpt lat="40.325563445004796" lon="19.931994666171637"><ele>399.0</ele><time>2026-04-27T13:45:20Z</time></trkpt><trkpt lat="40.32565760662296" lon="19.931910370640807"><ele>399.0</ele><time>2026-04-27T13:45:22Z</time></trkpt><trkpt lat="40.325732476902694" lon="19.931965009722855"><ele>399.0</ele><time>2026-04-27T13:45:23Z</time></trkpt><trkpt lat="40.32579053692623" lon="19.932080107970943"><ele>399.0</ele><time>2026-04-27T13:45:24Z</time></trkpt><trkpt lat="40.325851417800976" lon="19.932248579348077"><ele>399.0</ele><time>2026-04-27T13:45:25Z</time></trkpt><trkpt lat="40.3259556105359" lon="19.932427984592355"><ele>399.0</ele><time>2026-04-27T13:45:25.999Z</time></trkpt><trkpt lat="40.32606517879265" lon="19.93252906663683"><ele>399.0</ele><time>2026-04-27T13:45:26.999Z</time></trkpt><trkpt lat="40.32616694865205" lon="19.932633214081005"><ele>399.0</ele><time>2026-04-27T13:45:27.999Z</time></trkpt><trkpt lat="40.32629650095251" lon="19.93267654971857"><ele>399.0</ele><time>2026-04-27T13:45:28.999Z</time></trkpt><trkpt lat="40.32645109011281" lon="19.932604758101473"><ele>401.33333333333337</ele><time>2026-04-27T13:45:29.999Z</time></trkpt><trkpt lat="40.3266140685694" lon="19.932586365210998"><ele>403.6666666666667</ele><time>2026-04-27T13:45:31Z</time></trkpt><trkpt lat="40.326771456713445" lon="19.932538740225635"><ele>406.0</ele><time>2026-04-27T13:45:32Z</time></trkpt><trkpt lat="40.326965871842674" lon="19.932493999635874"><ele>406.0</ele><time>2026-04-27T13:45:33Z</time></trkpt><trkpt lat="40.32713069606251" lon="19.932469837083737"><ele>406.0</ele><time>2026-04-27T13:45:34Z</time></trkpt><trkpt lat="40.32728000783993" lon="19.932447759280805"><ele>406.0</ele><time>2026-04-27T13:45:35Z</time></trkpt><trkpt lat="40.32741615323866" lon="19.93242934466345"><ele>400.75</ele><time>2026-04-27T13:45:36Z</time></trkpt><trkpt lat="40.327541044506034" lon="19.93237077239122"><ele>395.5</ele><time>2026-04-27T13:45:37Z</time></trkpt><trkpt lat="40.32762788842081" lon="19.932232190755116"><ele>390.25</ele><time>2026-04-27T13:45:38Z</time></trkpt><trkpt lat="40.32770523084469" lon="19.93208834147643"><ele>385.0</ele><time>2026-04-27T13:45:39Z</time></trkpt><trkpt lat="40.32776410005642" lon="19.931905357303414"><ele>394.33333333333337</ele><time>2026-04-27T13:45:40Z</time></trkpt><trkpt lat="40.327806049296896" lon="19.931684429623"><ele>403.66666666666663</ele><time>2026-04-27T13:45:41Z</time></trkpt><trkpt lat="40.327849868176216" lon="19.93144403569077"><ele>413.0</ele><time>2026-04-27T13:45:42Z</time></trkpt><trkpt lat="40.32790385847259" lon="19.93122473636834"><ele>413.0</ele><time>2026-04-27T13:45:43Z</time></trkpt><trkpt lat="40.327970037873634" lon="19.931039106637463"><ele>413.0</ele><time>2026-04-27T13:45:44Z</time></trkpt><trkpt lat="40.327988368547445" lon="19.93084787718326"><ele>413.0</ele><time>2026-04-27T13:45:45Z</time></trkpt><trkpt lat="40.3279973804035" lon="19.930670399590785"><ele>413.0</ele><time>2026-04-27T13:45:46Z</time></trkpt><trkpt lat="40.32802008767346" lon="19.930528631524474"><ele>411.2</ele><time>2026-04-27T13:45:47Z</time></trkpt><trkpt lat="40.328037159009234" lon="19.930439475028116"><ele>409.4</ele><time>2026-04-27T13:45:48Z</time></trkpt><trkpt lat="40.32815080395547" lon="19.93040103846929"><ele>407.59999999999997</ele><time>2026-04-27T13:45:50Z</time></trkpt><trkpt lat="40.32822976110316" lon="19.930471703810014"><ele>405.79999999999995</ele><time>2026-04-27T13:45:51Z</time></trkpt><trkpt lat="40.32831009954832" lon="19.930595653943474"><ele>404.0</ele><time>2026-04-27T13:45:52Z</time></trkpt><trkpt lat="40.32840023964711" lon="19.930769092112143"><ele>395.66666666666663</ele><time>2026-04-27T13:45:53Z</time></trkpt><trkpt lat="40.32849248143366" lon="19.930982735930296"><ele>387.3333333333333</ele><time>2026-04-27T13:45:54Z</time></trkpt><trkpt lat="40.3285978154213" lon="19.931128164526605"><ele>379.0</ele><time>2026-04-27T13:45:55Z</time></trkpt><trkpt lat="40.32866519205479" lon="19.931276714389913"><ele>379.0</ele><time>2026-04-27T13:45:56Z</time></trkpt><trkpt lat="40.32877256914898" lon="19.931358916458734"><ele>379.0</ele><time>2026-04-27T13:45:57Z</time></trkpt><trkpt lat="40.32885939391093" lon="19.931437477065483"><ele>379.0</ele><time>2026-04-27T13:45:58Z</time></trkpt><trkpt lat="40.32895874442107" lon="19.931457776579645"><ele>379.0</ele><time>2026-04-27T13:45:59Z</time></trkpt><trkpt lat="40.329070421238605" lon="19.93146626686183"><ele>379.0</ele><time>2026-04-27T13:46:00Z</time></trkpt><trkpt lat="40.32918697009743" lon="19.931462072738352"><ele>380.75</ele><time>2026-04-27T13:46:01Z</time></trkpt><trkpt lat="40.32931207124394" lon="19.931430903742527"><ele>382.5</ele><time>2026-04-27T13:46:02Z</time></trkpt><trkpt lat="40.329436269010785" lon="19.93136480016196"><ele>384.25</ele><time>2026-04-27T13:46:03Z</time></trkpt><trkpt lat="40.32955368301305" lon="19.93127769581402"><ele>386.0</ele><time>2026-04-27T13:46:04Z</time></trkpt><trkpt lat="40.329668821169406" lon="19.93117916665695"><ele>388.25</ele><time>2026-04-27T13:46:05Z</time></trkpt><trkpt lat="40.32977866946455" lon="19.931052021051375"><ele>390.5</ele><time>2026-04-27T13:46:06Z</time></trkpt><trkpt lat="40.32988387184034" lon="19.93093085210526"><ele>392.75</ele><time>2026-04-27T13:46:07Z</time></trkpt><trkpt lat="40.32997180861307" lon="19.93081680881625"><ele>395.0</ele><time>2026-04-27T13:46:08Z</time></trkpt><trkpt lat="40.33004393249252" lon="19.930688152874097"><ele>395.0</ele><time>2026-04-27T13:46:09Z</time></trkpt><trkpt lat="40.330110852424475" lon="19.9305755219032"><ele>395.0</ele><time>2026-04-27T13:46:10Z</time></trkpt><trkpt lat="40.3301590456041" lon="19.930450117988027"><ele>395.0</ele><time>2026-04-27T13:46:11Z</time></trkpt><trkpt lat="40.330223559185555" lon="19.930347142447193"><ele>395.0</ele><time>2026-04-27T13:46:12Z</time></trkpt><trkpt lat="40.330295673926976" lon="19.93027836749649"><ele>395.0</ele><time>2026-04-27T13:46:13Z</time></trkpt><trkpt lat="40.3304020384828" lon="19.93025066496454"><ele>395.0</ele><time>2026-04-27T13:46:14Z</time></trkpt><trkpt lat="40.33052005258684" lon="19.9302212418637"><ele>395.0</ele><time>2026-04-27T13:46:15Z</time></trkpt><trkpt lat="40.330646596227844" lon="19.93017594149528"><ele>395.0</ele><time>2026-04-27T13:46:16Z</time></trkpt><trkpt lat="40.33075241169306" lon="19.93010014380301"><ele>395.0</ele><time>2026-04-27T13:46:17Z</time></trkpt><trkpt lat="40.33084715768315" lon="19.93000864455953"><ele>397.66666666666663</ele><time>2026-04-27T13:46:18Z</time></trkpt><trkpt lat="40.330974099396805" lon="19.929945594789515"><ele>400.33333333333337</ele><time>2026-04-27T13:46:19Z</time></trkpt><trkpt lat="40.33110019356982" lon="19.929834435368516"><ele>403.0</ele><time>2026-04-27T13:46:20Z</time></trkpt><trkpt lat="40.33125619862145" lon="19.929700075290818"><ele>398.33333333333337</ele><time>2026-04-27T13:46:21Z</time></trkpt><trkpt lat="40.331429284445676" lon="19.929549373137526"><ele>393.66666666666663</ele><time>2026-04-27T13:46:22Z</time></trkpt><trkpt lat="40.33159121034921" lon="19.92940715243735"><ele>389.0</ele><time>2026-04-27T13:46:23Z</time></trkpt><trkpt lat="40.33173826272935" lon="19.92931256919485"><ele>389.0</ele><time>2026-04-27T13:46:24Z</time></trkpt><trkpt lat="40.33188998068311" lon="19.929330254197517"><ele>389.0</ele><time>2026-04-27T13:46:25Z</time></trkpt><trkpt lat="40.33204527700921" lon="19.92928609661117"><ele>389.0</ele><time>2026-04-27T13:46:26Z</time></trkpt><trkpt lat="40.33219943567138" lon="19.92918788315706"><ele>394.25</ele><time>2026-04-27T13:46:27Z</time></trkpt><trkpt lat="40.332343949470214" lon="19.929102274144945"><ele>399.5</ele><time>2026-04-27T13:46:28Z</time></trkpt><trkpt lat="40.33245998421601" lon="19.929009988009657"><ele>404.75</ele><time>2026-04-27T13:46:29Z</time></trkpt><trkpt lat="40.33255930208864" lon="19.928905606126943"><ele>410.0</ele><time>2026-04-27T13:46:30Z</time></trkpt><trkpt lat="40.332654196984535" lon="19.928755453886147"><ele>410.0</ele><time>2026-04-27T13:46:31Z</time></trkpt><trkpt lat="40.33274845724963" lon="19.92858575813581"><ele>410.0</ele><time>2026-04-27T13:46:32Z</time></trkpt><trkpt lat="40.33281833902893" lon="19.928412496158188"><ele>410.0</ele><time>2026-04-27T13:46:33Z</time></trkpt><trkpt lat="40.332853294162895" lon="19.92825278882083"><ele>410.0</ele><time>2026-04-27T13:46:34Z</time></trkpt><trkpt lat="40.33291435350384" lon="19.928117092161916"><ele>413.0</ele><time>2026-04-27T13:46:35Z</time></trkpt><trkpt lat="40.33294825162946" lon="19.92796273599296"><ele>416.0</ele><time>2026-04-27T13:46:36Z</time></trkpt><trkpt lat="40.3329756012608" lon="19.92784451550627"><ele>419.0</ele><time>2026-04-27T13:46:37Z</time></trkpt><trkpt lat="40.333023376999655" lon="19.927694366229368"><ele>422.0</ele><time>2026-04-27T13:46:39Z</time></trkpt><trkpt lat="40.33308782043721" lon="19.92754527182094"><ele>422.0</ele><time>2026-04-27T13:46:41Z</time></trkpt><trkpt lat="40.33322219881988" lon="19.92749766749408"><ele>422.0</ele><time>2026-04-27T13:46:42Z</time></trkpt><trkpt lat="40.33330513878182" lon="19.92739111369043"><ele>422.0</ele><time>2026-04-27T13:46:43Z</time></trkpt><trkpt lat="40.33339218331396" lon="19.927299270802333"><ele>422.0</ele><time>2026-04-27T13:46:44Z</time></trkpt><trkpt lat="40.33347640190526" lon="19.92718146592862"><ele>422.0</ele><time>2026-04-27T13:46:45Z</time></trkpt><trkpt lat="40.3335299061865" lon="19.927015984167078"><ele>422.0</ele><time>2026-04-27T13:46:46Z</time></trkpt><trkpt lat="40.33362056057311" lon="19.92689786258706"><ele>422.0</ele><time>2026-04-27T13:46:47Z</time></trkpt><trkpt lat="40.333726947393615" lon="19.926827286787464"><ele>422.0</ele><time>2026-04-27T13:46:48Z</time></trkpt><trkpt lat="40.33385993944377" lon="19.92675804707116"><ele>425.66666666666663</ele><time>2026-04-27T13:46:49Z</time></trkpt><trkpt lat="40.33402972457356" lon="19.926704503326985"><ele>429.33333333333337</ele><time>2026-04-27T13:46:50Z</time></trkpt><trkpt lat="40.334230480478794" lon="19.92664000862629"><ele>433.0</ele><time>2026-04-27T13:46:51Z</time></trkpt><trkpt lat="40.334453146797244" lon="19.926520738703008"><ele>433.0</ele><time>2026-04-27T13:46:52Z</time></trkpt><trkpt lat="40.33463006702565" lon="19.926418736789792"><ele>433.0</ele><time>2026-04-27T13:46:53Z</time></trkpt><trkpt lat="40.334776160083344" lon="19.92638456833703"><ele>433.0</ele><time>2026-04-27T13:46:54Z</time></trkpt><trkpt lat="40.33490707534212" lon="19.92635348568076"><ele>433.6666666666667</ele><time>2026-04-27T13:46:55Z</time></trkpt><trkpt lat="40.335036955510155" lon="19.92626391677847"><ele>434.33333333333337</ele><time>2026-04-27T13:46:56Z</time></trkpt><trkpt lat="40.335157291462735" lon="19.926141258540934"><ele>435.0</ele><time>2026-04-27T13:46:57Z</time></trkpt><trkpt lat="40.33528791145951" lon="19.92601866732998"><ele>438.33333333333337</ele><time>2026-04-27T13:46:58Z</time></trkpt><trkpt lat="40.33540148650548" lon="19.925876407552757"><ele>441.6666666666667</ele><time>2026-04-27T13:46:59Z</time></trkpt><trkpt lat="40.3354882064513" lon="19.925707759473585"><ele>445.0</ele><time>2026-04-27T13:47:00Z</time></trkpt><trkpt lat="40.33555989663286" lon="19.92551589035932"><ele>445.0</ele><time>2026-04-27T13:47:01Z</time></trkpt><trkpt lat="40.33562510575736" lon="19.92531608252043"><ele>445.0</ele><time>2026-04-27T13:47:02Z</time></trkpt><trkpt lat="40.33567371496694" lon="19.92510690892271"><ele>445.0</ele><time>2026-04-27T13:47:03Z</time></trkpt><trkpt lat="40.335694370538974" lon="19.92488141392127"><ele>448.6666666666667</ele><time>2026-04-27T13:47:04Z</time></trkpt><trkpt lat="40.335723178994066" lon="19.924658372168178"><ele>452.33333333333337</ele><time>2026-04-27T13:47:05Z</time></trkpt><trkpt lat="40.335769739062" lon="19.924450636142556"><ele>456.0</ele><time>2026-04-27T13:47:06Z</time></trkpt><trkpt lat="40.33582774424459" lon="19.92428078084011"><ele>460.33333333333337</ele><time>2026-04-27T13:47:07Z</time></trkpt><trkpt lat="40.335926529413435" lon="19.924125593206472"><ele>464.6666666666667</ele><time>2026-04-27T13:47:08Z</time></trkpt><trkpt lat="40.336004801219076" lon="19.9239516549567"><ele>469.0</ele><time>2026-04-27T13:47:09Z</time></trkpt><trkpt lat="40.336054311096625" lon="19.92374518048603"><ele>469.0</ele><time>2026-04-27T13:47:10Z</time></trkpt><trkpt lat="40.33614812426545" lon="19.923560319910518"><ele>469.0</ele><time>2026-04-27T13:47:11Z</time></trkpt><trkpt lat="40.33621965606421" lon="19.92338493227611"><ele>469.0</ele><time>2026-04-27T13:47:12Z</time></trkpt><trkpt lat="40.33627375451154" lon="19.92325228767282"><ele>469.0</ele><time>2026-04-27T13:47:13Z</time></trkpt><trkpt lat="40.33627825496689" lon="19.923122710178735"><ele>472.0</ele><time>2026-04-27T13:47:14Z</time></trkpt><trkpt lat="40.33622868427425" lon="19.923022352927326"><ele>475.0</ele><time>2026-04-27T13:47:15Z</time></trkpt><trkpt lat="40.33621295008894" lon="19.92288966590917"><ele>478.0</ele><time>2026-04-27T13:47:16Z</time></trkpt><trkpt lat="40.33615537167332" lon="19.922734772567583"><ele>481.0</ele><time>2026-04-27T13:47:17Z</time></trkpt><trkpt lat="40.33611278957535" lon="19.922566924591578"><ele>482.25</ele><time>2026-04-27T13:47:18Z</time></trkpt><trkpt lat="40.336088793853726" lon="19.922383617684225"><ele>483.5</ele><time>2026-04-27T13:47:19Z</time></trkpt><trkpt lat="40.33605245665882" lon="19.922208756431992"><ele>484.75</ele><time>2026-04-27T13:47:20Z</time></trkpt><trkpt lat="40.33603220598616" lon="19.92202158544892"><ele>486.0</ele><time>2026-04-27T13:47:21Z</time></trkpt><trkpt lat="40.336031109197314" lon="19.92182742515106"><ele>489.5</ele><time>2026-04-27T13:47:22Z</time></trkpt><trkpt lat="40.33602559589494" lon="19.921632476771347"><ele>493.0</ele><time>2026-04-27T13:47:23Z</time></trkpt><trkpt lat="40.33601620740768" lon="19.921438787747977"><ele>496.5</ele><time>2026-04-27T13:47:24Z</time></trkpt><trkpt lat="40.336034043531846" lon="19.921256329454213"><ele>500.0</ele><time>2026-04-27T13:47:25Z</time></trkpt><trkpt lat="40.336050807566096" lon="19.921073656409323"><ele>502.5</ele><time>2026-04-27T13:47:26Z</time></trkpt><trkpt lat="40.336096131777715" lon="19.920893917083895"><ele>505.0</ele><time>2026-04-27T13:47:27Z</time></trkpt><trkpt lat="40.336136209974946" lon="19.92070686989326"><ele>507.5</ele><time>2026-04-27T13:47:28Z</time></trkpt><trkpt lat="40.336177535935384" lon="19.920511190395057"><ele>510.0</ele><time>2026-04-27T13:47:29Z</time></trkpt><trkpt lat="40.33621998659176" lon="19.920310481291846"><ele>510.0</ele><time>2026-04-27T13:47:30Z</time></trkpt><trkpt lat="40.336263630928606" lon="19.920107046394318"><ele>510.0</ele><time>2026-04-27T13:47:31Z</time></trkpt><trkpt lat="40.33631876961464" lon="19.919910367107242"><ele>510.0</ele><time>2026-04-27T13:47:32Z</time></trkpt><trkpt lat="40.336378046606846" lon="19.919701536071045"><ele>512.3333333333334</ele><time>2026-04-27T13:47:33Z</time></trkpt><trkpt lat="40.33644551150122" lon="19.919489453184962"><ele>514.6666666666667</ele><time>2026-04-27T13:47:34Z</time></trkpt><trkpt lat="40.336519303911835" lon="19.919294218000484"><ele>517.0</ele><time>2026-04-27T13:47:35Z</time></trkpt><trkpt lat="40.33660904760624" lon="19.91915296742868"><ele>517.0</ele><time>2026-04-27T13:47:36Z</time></trkpt><trkpt lat="40.3367118137497" lon="19.919049073276057"><ele>517.0</ele><time>2026-04-27T13:47:37Z</time></trkpt><trkpt lat="40.33679779584979" lon="19.918936268733358"><ele>517.0</ele><time>2026-04-27T13:47:38Z</time></trkpt><trkpt lat="40.33684446524012" lon="19.918804441384644"><ele>517.0</ele><time>2026-04-27T13:47:39Z</time></trkpt><trkpt lat="40.33689210047208" lon="19.91863444304434"><ele>517.0</ele><time>2026-04-27T13:47:40Z</time></trkpt><trkpt lat="40.33694774246" lon="19.91844729617174"><ele>517.0</ele><time>2026-04-27T13:47:41Z</time></trkpt><trkpt lat="40.3369599455501" lon="19.918267725854587"><ele>517.0</ele><time>2026-04-27T13:47:42Z</time></trkpt><trkpt lat="40.33692482567387" lon="19.91810392387372"><ele>517.0</ele><time>2026-04-27T13:47:43Z</time></trkpt><trkpt lat="40.33688902043324" lon="19.91795063671323"><ele>519.6</ele><time>2026-04-27T13:47:44Z</time></trkpt><trkpt lat="40.336826680143794" lon="19.917815496288444"><ele>522.2</ele><time>2026-04-27T13:47:45Z</time></trkpt><trkpt lat="40.33674689293023" lon="19.917687557687348"><ele>524.8</ele><time>2026-04-27T13:47:46Z</time></trkpt><trkpt lat="40.3366942575124" lon="19.917565327558663"><ele>527.4</ele><time>2026-04-27T13:47:47Z</time></trkpt><trkpt lat="40.336726262810465" lon="19.917454428392343"><ele>530.0</ele><time>2026-04-27T13:47:48Z</time></trkpt><trkpt lat="40.336784991796925" lon="19.917341924263415"><ele>532.3333333333333</ele><time>2026-04-27T13:47:49Z</time></trkpt><trkpt lat="40.336839387903375" lon="19.9171677709057"><ele>534.6666666666666</ele><time>2026-04-27T13:47:50Z</time></trkpt><trkpt lat="40.336881627967465" lon="19.916955312603758"><ele>537.0</ele><time>2026-04-27T13:47:51Z</time></trkpt><trkpt lat="40.336935818365156" lon="19.916750638186883"><ele>540.0</ele><time>2026-04-27T13:47:52Z</time></trkpt><trkpt lat="40.336998695929296" lon="19.916592180065596"><ele>543.0</ele><time>2026-04-27T13:47:53Z</time></trkpt><trkpt lat="40.33704536291936" lon="19.91646953189207"><ele>546.0</ele><time>2026-04-27T13:47:54Z</time></trkpt><trkpt lat="40.33703773463797" lon="19.916330593551617"><ele>549.0</ele><time>2026-04-27T13:47:55Z</time></trkpt><trkpt lat="40.33702370109645" lon="19.916194039547147"><ele>549.0</ele><time>2026-04-27T13:47:56Z</time></trkpt><trkpt lat="40.33699343823387" lon="19.91603230508954"><ele>549.0</ele><time>2026-04-27T13:47:57Z</time></trkpt><trkpt lat="40.33695998422566" lon="19.915849523188964"><ele>549.0</ele><time>2026-04-27T13:47:58Z</time></trkpt><trkpt lat="40.33693980092511" lon="19.915648670644988"><ele>549.0</ele><time>2026-04-27T13:47:59Z</time></trkpt><trkpt lat="40.33692554677139" lon="19.915421019747985"><ele>550.3333333333334</ele><time>2026-04-27T13:48:00Z</time></trkpt><trkpt lat="40.33691517906065" lon="19.915185845312408"><ele>551.6666666666667</ele><time>2026-04-27T13:48:01Z</time></trkpt><trkpt lat="40.33689967424132" lon="19.91498009553409"><ele>553.0</ele><time>2026-04-27T13:48:02Z</time></trkpt><trkpt lat="40.3368861174245" lon="19.91479916134952"><ele>553.0</ele><time>2026-04-27T13:48:03Z</time></trkpt><trkpt lat="40.336854038443136" lon="19.914639651157717"><ele>553.0</ele><time>2026-04-27T13:48:04Z</time></trkpt><trkpt lat="40.33684360157838" lon="19.914492997502922"><ele>553.0</ele><time>2026-04-27T13:48:05Z</time></trkpt><trkpt lat="40.33683341565192" lon="19.91436614300966"><ele>553.0</ele><time>2026-04-27T13:48:06Z</time></trkpt><trkpt lat="40.33681344583879" lon="19.91425374682979"><ele>553.0</ele><time>2026-04-27T13:48:07Z</time></trkpt><trkpt lat="40.33676827359829" lon="19.914165755852096"><ele>552.0</ele><time>2026-04-27T13:48:08Z</time></trkpt><trkpt lat="40.336696726050015" lon="19.91409912689958"><ele>551.0</ele><time>2026-04-27T13:48:09Z</time></trkpt><trkpt lat="40.33659197733912" lon="19.91403461732914"><ele>550.0</ele><time>2026-04-27T13:48:10Z</time></trkpt><trkpt lat="40.33646540790544" lon="19.913954469092857"><ele>549.0</ele><time>2026-04-27T13:48:11Z</time></trkpt><trkpt lat="40.3363288487067" lon="19.913854750539006"><ele>554.6666666666666</ele><time>2026-04-27T13:48:12Z</time></trkpt><trkpt lat="40.33617582784784" lon="19.913741706015443"><ele>560.3333333333333</ele><time>2026-04-27T13:48:13Z</time></trkpt><trkpt lat="40.33602164131811" lon="19.91362469148331"><ele>566.0</ele><time>2026-04-27T13:48:14Z</time></trkpt><trkpt lat="40.33588389708539" lon="19.91350784529495"><ele>562.25</ele><time>2026-04-27T13:48:15Z</time></trkpt><trkpt lat="40.33574965003075" lon="19.913375782738814"><ele>558.5</ele><time>2026-04-27T13:48:16Z</time></trkpt><trkpt lat="40.33563717350169" lon="19.91325346377775"><ele>554.75</ele><time>2026-04-27T13:48:17Z</time></trkpt><trkpt lat="40.33554850704849" lon="19.913149854825537"><ele>551.0</ele><time>2026-04-27T13:48:18Z</time></trkpt><trkpt lat="40.33548193511703" lon="19.913042452629266"><ele>554.0</ele><time>2026-04-27T13:48:19Z</time></trkpt><trkpt lat="40.335443926044036" lon="19.912895929075386"><ele>557.0</ele><time>2026-04-27T13:48:20Z</time></trkpt><trkpt lat="40.33538579476097" lon="19.91274019497631"><ele>560.0</ele><time>2026-04-27T13:48:21Z</time></trkpt><trkpt lat="40.335323423573804" lon="19.912599413581283"><ele>563.0</ele><time>2026-04-27T13:48:22Z</time></trkpt><trkpt lat="40.33525143101743" lon="19.912467604568942"><ele>563.0</ele><time>2026-04-27T13:48:23Z</time></trkpt><trkpt lat="40.33514922713239" lon="19.912373755842005"><ele>563.0</ele><time>2026-04-27T13:48:24Z</time></trkpt><trkpt lat="40.335016072943" lon="19.91228634687243"><ele>563.0</ele><time>2026-04-27T13:48:25Z</time></trkpt><trkpt lat="40.33487256359724" lon="19.91218255867654"><ele>563.0</ele><time>2026-04-27T13:48:26Z</time></trkpt><trkpt lat="40.33471876435795" lon="19.91205659989683"><ele>568.0</ele><time>2026-04-27T13:48:27Z</time></trkpt><trkpt lat="40.334597308142506" lon="19.911907823059362"><ele>573.0</ele><time>2026-04-27T13:48:28Z</time></trkpt><trkpt lat="40.33449629496985" lon="19.911801045422536"><ele>578.0</ele><time>2026-04-27T13:48:29Z</time></trkpt><trkpt lat="40.33444113124658" lon="19.911710976897844"><ele>583.0</ele><time>2026-04-27T13:48:30Z</time></trkpt><trkpt lat="40.33439796558419" lon="19.91164209452799"><ele>583.0</ele><time>2026-04-27T13:48:31Z</time></trkpt><trkpt lat="40.334440989230416" lon="19.911580387232867"><ele>583.0</ele><time>2026-04-27T13:48:32Z</time></trkpt><trkpt lat="40.3345162219397" lon="19.91149534662355"><ele>583.0</ele><time>2026-04-27T13:48:33Z</time></trkpt><trkpt lat="40.33456341923134" lon="19.911337011455895"><ele>583.0</ele><time>2026-04-27T13:48:34Z</time></trkpt><trkpt lat="40.33456625092408" lon="19.911162357301972"><ele>583.0</ele><time>2026-04-27T13:48:35Z</time></trkpt><trkpt lat="40.33455373623668" lon="19.911018980185297"><ele>580.75</ele><time>2026-04-27T13:48:36Z</time></trkpt><trkpt lat="40.334496343566" lon="19.910896033428426"><ele>578.5</ele><time>2026-04-27T13:48:37Z</time></trkpt><trkpt lat="40.33440473474265" lon="19.910790642796247"><ele>576.25</ele><time>2026-04-27T13:48:38Z</time></trkpt><trkpt lat="40.33428991610528" lon="19.910699589243553"><ele>574.0</ele><time>2026-04-27T13:48:39Z</time></trkpt><trkpt lat="40.33414767670669" lon="19.910596002702164"><ele>574.0</ele><time>2026-04-27T13:48:40Z</time></trkpt><trkpt lat="40.33397671995535" lon="19.910482126615637"><ele>574.0</ele><time>2026-04-27T13:48:41Z</time></trkpt><trkpt lat="40.3337645708959" lon="19.910362603566078"><ele>574.0</ele><time>2026-04-27T13:48:42Z</time></trkpt><trkpt lat="40.333502068932575" lon="19.910197135422088"><ele>574.5</ele><time>2026-04-27T13:48:43Z</time></trkpt><trkpt lat="40.33323307391264" lon="19.910071926937206"><ele>575.0</ele><time>2026-04-27T13:48:44Z</time></trkpt><trkpt lat="40.33295675080522" lon="19.90991771442169"><ele>591.5</ele><time>2026-04-27T13:48:45Z</time></trkpt><trkpt lat="40.33269808588619" lon="19.909779524862913"><ele>608.0</ele><time>2026-04-27T13:48:46Z</time></trkpt><trkpt lat="40.33247751136153" lon="19.90965859499887"><ele>608.0</ele><time>2026-04-27T13:48:47Z</time></trkpt><trkpt lat="40.33228148960482" lon="19.90954433141517"><ele>608.0</ele><time>2026-04-27T13:48:48Z</time></trkpt><trkpt lat="40.33210514264349" lon="19.90942274958898"><ele>608.0</ele><time>2026-04-27T13:48:49Z</time></trkpt><trkpt lat="40.331943422092934" lon="19.909299395405196"><ele>607.0</ele><time>2026-04-27T13:48:50Z</time></trkpt><trkpt lat="40.33179292190532" lon="19.909158943107972"><ele>606.0</ele><time>2026-04-27T13:48:51Z</time></trkpt><trkpt lat="40.331634098405644" lon="19.909028422101038"><ele>605.0</ele><time>2026-04-27T13:48:52Z</time></trkpt><trkpt lat="40.331461633678344" lon="19.908901376974264"><ele>619.0</ele><time>2026-04-27T13:48:53Z</time></trkpt><trkpt lat="40.331284525251846" lon="19.90878048096957"><ele>633.0</ele><time>2026-04-27T13:48:54Z</time></trkpt><trkpt lat="40.33111424604908" lon="19.90864926485589"><ele>647.0</ele><time>2026-04-27T13:48:55Z</time></trkpt><trkpt lat="40.33094483916181" lon="19.90850989588046"><ele>650.6666666666666</ele><time>2026-04-27T13:48:56Z</time></trkpt><trkpt lat="40.33079806203" lon="19.908338867723604"><ele>654.3333333333334</ele><time>2026-04-27T13:48:57Z</time></trkpt><trkpt lat="40.330669743852226" lon="19.908158587935453"><ele>658.0</ele><time>2026-04-27T13:48:58Z</time></trkpt><trkpt lat="40.33053348844326" lon="19.90798334503379"><ele>658.0</ele><time>2026-04-27T13:48:59Z</time></trkpt><trkpt lat="40.33038916662071" lon="19.907824493577152"><ele>658.0</ele><time>2026-04-27T13:49:00Z</time></trkpt><trkpt lat="40.330226383676695" lon="19.9076879700933"><ele>658.0</ele><time>2026-04-27T13:49:01Z</time></trkpt><trkpt lat="40.33005305305501" lon="19.90758424924262"><ele>659.0</ele><time>2026-04-27T13:49:02Z</time></trkpt><trkpt lat="40.32990866660753" lon="19.907429208572744"><ele>660.0</ele><time>2026-04-27T13:49:03Z</time></trkpt><trkpt lat="40.32976701418985" lon="19.9072750377748"><ele>661.0</ele><time>2026-04-27T13:49:04Z</time></trkpt><trkpt lat="40.32961835871598" lon="19.9071433048431"><ele>661.0</ele><time>2026-04-27T13:49:05Z</time></trkpt><trkpt lat="40.32948887878118" lon="19.90698271626757"><ele>661.0</ele><time>2026-04-27T13:49:06Z</time></trkpt><trkpt lat="40.32935159294693" lon="19.906861437726665"><ele>661.0</ele><time>2026-04-27T13:49:07Z</time></trkpt><trkpt lat="40.32921200132098" lon="19.906748970824577"><ele>660.6666666666667</ele><time>2026-04-27T13:49:08Z</time></trkpt><trkpt lat="40.32907520310872" lon="19.906651097934777"><ele>660.3333333333334</ele><time>2026-04-27T13:49:09Z</time></trkpt><trkpt lat="40.3289373307032" lon="19.90655504881245"><ele>660.0</ele><time>2026-04-27T13:49:10Z</time></trkpt><trkpt lat="40.32880450773993" lon="19.906466045167992"><ele>660.0</ele><time>2026-04-27T13:49:11Z</time></trkpt><trkpt lat="40.32867416195205" lon="19.90637858579067"><ele>660.0</ele><time>2026-04-27T13:49:12Z</time></trkpt><trkpt lat="40.3285465198077" lon="19.90629275513317"><ele>660.0</ele><time>2026-04-27T13:49:13Z</time></trkpt><trkpt lat="40.328418322865055" lon="19.906206383121614"><ele>660.0</ele><time>2026-04-27T13:49:14Z</time></trkpt><trkpt lat="40.32829655873107" lon="19.906110100273334"><ele>660.0</ele><time>2026-04-27T13:49:15Z</time></trkpt><trkpt lat="40.32817069811758" lon="19.90600392454879"><ele>660.0</ele><time>2026-04-27T13:49:16Z</time></trkpt><trkpt lat="40.328040301201476" lon="19.905893927156573"><ele>660.0</ele><time>2026-04-27T13:49:17Z</time></trkpt><trkpt lat="40.32791172766984" lon="19.905785854648904"><ele>663.3333333333334</ele><time>2026-04-27T13:49:18Z</time></trkpt><trkpt lat="40.327800525628604" lon="19.905662300858538"><ele>666.6666666666667</ele><time>2026-04-27T13:49:19Z</time></trkpt><trkpt lat="40.32769507898829" lon="19.90551604405304"><ele>670.0</ele><time>2026-04-27T13:49:20Z</time></trkpt><trkpt lat="40.327588796284715" lon="19.905368627581414"><ele>670.0</ele><time>2026-04-27T13:49:21Z</time></trkpt><trkpt lat="40.32748269866381" lon="19.90522129964622"><ele>670.0</ele><time>2026-04-27T13:49:22Z</time></trkpt><trkpt lat="40.32737525749412" lon="19.90507170703686"><ele>670.0</ele><time>2026-04-27T13:49:23Z</time></trkpt><trkpt lat="40.32724427867928" lon="19.904927133936564"><ele>676.6666666666667</ele><time>2026-04-27T13:49:24Z</time></trkpt><trkpt lat="40.32713388325663" lon="19.9047862688014"><ele>683.3333333333334</ele><time>2026-04-27T13:49:25Z</time></trkpt><trkpt lat="40.327022520159105" lon="19.904616753597246"><ele>690.0</ele><time>2026-04-27T13:49:26Z</time></trkpt><trkpt lat="40.32690367834169" lon="19.904453834190313"><ele>690.0</ele><time>2026-04-27T13:49:27Z</time></trkpt><trkpt lat="40.326798993190955" lon="19.904288525494263"><ele>690.0</ele><time>2026-04-27T13:49:28Z</time></trkpt><trkpt lat="40.3266957366945" lon="19.90410788884403"><ele>690.0</ele><time>2026-04-27T13:49:29Z</time></trkpt><trkpt lat="40.32658032018545" lon="19.903931694320594"><ele>691.0</ele><time>2026-04-27T13:49:30Z</time></trkpt><trkpt lat="40.32646060294782" lon="19.903758238553166"><ele>692.0</ele><time>2026-04-27T13:49:31Z</time></trkpt><trkpt lat="40.326357861268" lon="19.903585050950475"><ele>693.0</ele><time>2026-04-27T13:49:32Z</time></trkpt><trkpt lat="40.32626944722179" lon="19.90338106695736"><ele>693.0</ele><time>2026-04-27T13:49:33Z</time></trkpt><trkpt lat="40.32617654631177" lon="19.9031653324825"><ele>693.0</ele><time>2026-04-27T13:49:34Z</time></trkpt><trkpt lat="40.32607463760179" lon="19.902929421471438"><ele>693.0</ele><time>2026-04-27T13:49:35Z</time></trkpt><trkpt lat="40.32596832560123" lon="19.902683530883827"><ele>688.6666666666666</ele><time>2026-04-27T13:49:36Z</time></trkpt><trkpt lat="40.32586596302574" lon="19.902448003024357"><ele>684.3333333333333</ele><time>2026-04-27T13:49:37Z</time></trkpt><trkpt lat="40.32577442057243" lon="19.902251862920416"><ele>680.0</ele><time>2026-04-27T13:49:38Z</time></trkpt><trkpt lat="40.32569351222681" lon="19.90208008924579"><ele>680.0</ele><time>2026-04-27T13:49:39Z</time></trkpt><trkpt lat="40.325621858763974" lon="19.901927477265684"><ele>680.0</ele><time>2026-04-27T13:49:40Z</time></trkpt><trkpt lat="40.32554890518762" lon="19.90179978470932"><ele>680.0</ele><time>2026-04-27T13:49:41Z</time></trkpt><trkpt lat="40.32549955328544" lon="19.90166657846284"><ele>680.0</ele><time>2026-04-27T13:49:42Z</time></trkpt><trkpt lat="40.32539111379484" lon="19.90155761991514"><ele>687.3333333333333</ele><time>2026-04-27T13:49:43Z</time></trkpt><trkpt lat="40.325272251341545" lon="19.901427929085077"><ele>694.6666666666666</ele><time>2026-04-27T13:49:44Z</time></trkpt><trkpt lat="40.32516019493617" lon="19.901263881619972"><ele>702.0</ele><time>2026-04-27T13:49:45Z</time></trkpt><trkpt lat="40.325045651226695" lon="19.9011004048396"><ele>702.0</ele><time>2026-04-27T13:49:46Z</time></trkpt><trkpt lat="40.32493212536928" lon="19.9009331496164"><ele>702.0</ele><time>2026-04-27T13:49:47Z</time></trkpt><trkpt lat="40.32481251793991" lon="19.900777669721844"><ele>702.0</ele><time>2026-04-27T13:49:48Z</time></trkpt><trkpt lat="40.32470314133515" lon="19.90065523896676"><ele>704.75</ele><time>2026-04-27T13:49:49Z</time></trkpt><trkpt lat="40.324613862002465" lon="19.900536349765254"><ele>707.5</ele><time>2026-04-27T13:49:50Z</time></trkpt><trkpt lat="40.324485578412975" lon="19.900471640464815"><ele>710.25</ele><time>2026-04-27T13:49:51Z</time></trkpt><trkpt lat="40.32436320541016" lon="19.90038950878664"><ele>713.0</ele><time>2026-04-27T13:49:52Z</time></trkpt><trkpt lat="40.324236153616596" lon="19.900293296007547"><ele>713.0</ele><time>2026-04-27T13:49:53Z</time></trkpt><trkpt lat="40.324126070093605" lon="19.90015370217195"><ele>713.0</ele><time>2026-04-27T13:49:54Z</time></trkpt><trkpt lat="40.324015434122025" lon="19.900036154611264"><ele>713.0</ele><time>2026-04-27T13:49:55Z</time></trkpt><trkpt lat="40.32391532616074" lon="19.89992943428061"><ele>713.0</ele><time>2026-04-27T13:49:56Z</time></trkpt><trkpt lat="40.32382473840961" lon="19.899831078391117"><ele>712.0</ele><time>2026-04-27T13:49:57Z</time></trkpt><trkpt lat="40.32373649136662" lon="19.899762695778126"><ele>711.0</ele><time>2026-04-27T13:49:58Z</time></trkpt><trkpt lat="40.32364400901652" lon="19.899727665927017"><ele>710.0</ele><time>2026-04-27T13:49:59Z</time></trkpt><trkpt lat="40.323541629503296" lon="19.899727341621837"><ele>709.0</ele><time>2026-04-27T13:50:00Z</time></trkpt><trkpt lat="40.32343075145988" lon="19.89974290698227"><ele>708.0</ele><time>2026-04-27T13:50:01Z</time></trkpt><trkpt lat="40.32331631522307" lon="19.899748226849788"><ele>708.0</ele><time>2026-04-27T13:50:02Z</time></trkpt><trkpt lat="40.32320022429803" lon="19.89975429533968"><ele>708.0</ele><time>2026-04-27T13:50:03Z</time></trkpt><trkpt lat="40.32308478000272" lon="19.899748264234866"><ele>708.0</ele><time>2026-04-27T13:50:04Z</time></trkpt><trkpt lat="40.32297838295652" lon="19.899642679862467"><ele>708.0</ele><time>2026-04-27T13:50:05Z</time></trkpt><trkpt lat="40.32284959225984" lon="19.89957160537758"><ele>707.25</ele><time>2026-04-27T13:50:06Z</time></trkpt><trkpt lat="40.32271070536426" lon="19.89949598841829"><ele>706.5</ele><time>2026-04-27T13:50:07Z</time></trkpt><trkpt lat="40.322570657597005" lon="19.899419428378728"><ele>705.75</ele><time>2026-04-27T13:50:08Z</time></trkpt><trkpt lat="40.322445803035315" lon="19.899351375035867"><ele>705.0</ele><time>2026-04-27T13:50:09Z</time></trkpt><trkpt lat="40.32232811968089" lon="19.899289127308688"><ele>704.0</ele><time>2026-04-27T13:50:10Z</time></trkpt><trkpt lat="40.32220863400149" lon="19.899226545694848"><ele>703.0</ele><time>2026-04-27T13:50:11Z</time></trkpt><trkpt lat="40.32209212161106" lon="19.89916608004174"><ele>702.0</ele><time>2026-04-27T13:50:12Z</time></trkpt><trkpt lat="40.321995219964535" lon="19.899115357364494"><ele>701.0</ele><time>2026-04-27T13:50:13Z</time></trkpt><trkpt lat="40.321917791197016" lon="19.89908740681322"><ele>700.0</ele><time>2026-04-27T13:50:14Z</time></trkpt><trkpt lat="40.321802282317" lon="19.898998600594393"><ele>700.0</ele><time>2026-04-27T13:50:16Z</time></trkpt><trkpt lat="40.32170995134625" lon="19.898940091473953"><ele>700.0</ele><time>2026-04-27T13:50:17Z</time></trkpt><trkpt lat="40.32160264997181" lon="19.89887193761865"><ele>700.0</ele><time>2026-04-27T13:50:18Z</time></trkpt><trkpt lat="40.32148274723466" lon="19.898798429058818"><ele>700.0</ele><time>2026-04-27T13:50:19Z</time></trkpt><trkpt lat="40.32135256401368" lon="19.898718938439576"><ele>702.75</ele><time>2026-04-27T13:50:20Z</time></trkpt><trkpt lat="40.32123051708147" lon="19.898644896035325"><ele>705.5</ele><time>2026-04-27T13:50:21Z</time></trkpt><trkpt lat="40.32112272157628" lon="19.898581014186778"><ele>708.25</ele><time>2026-04-27T13:50:22Z</time></trkpt><trkpt lat="40.3210082773103" lon="19.898531169272253"><ele>711.0</ele><time>2026-04-27T13:50:23Z</time></trkpt><trkpt lat="40.32092270188004" lon="19.898437321961108"><ele>709.8</ele><time>2026-04-27T13:50:24Z</time></trkpt><trkpt lat="40.320882959617556" lon="19.89832652135437"><ele>708.5999999999999</ele><time>2026-04-27T13:50:25Z</time></trkpt><trkpt lat="40.320812701205575" lon="19.89819920019487"><ele>707.4</ele><time>2026-04-27T13:50:26Z</time></trkpt><trkpt lat="40.32073794021498" lon="19.898084841082742"><ele>706.2</ele><time>2026-04-27T13:50:27Z</time></trkpt><trkpt lat="40.32065111906729" lon="19.897976744288197"><ele>705.0</ele><time>2026-04-27T13:50:28Z</time></trkpt><trkpt lat="40.32056871869547" lon="19.897861410434"><ele>705.2</ele><time>2026-04-27T13:50:29Z</time></trkpt><trkpt lat="40.32051522118011" lon="19.897746290509637"><ele>705.4</ele><time>2026-04-27T13:50:30Z</time></trkpt><trkpt lat="40.320460274119725" lon="19.897662293778122"><ele>705.5999999999999</ele><time>2026-04-27T13:50:31Z</time></trkpt><trkpt lat="40.3203787059171" lon="19.8975995490513"><ele>705.8</ele><time>2026-04-27T13:50:32Z</time></trkpt><trkpt lat="40.32030217670945" lon="19.897512818913942"><ele>706.0</ele><time>2026-04-27T13:50:33Z</time></trkpt><trkpt lat="40.32022548233901" lon="19.897402824897036"><ele>706.0</ele><time>2026-04-27T13:50:34Z</time></trkpt><trkpt lat="40.320137116816184" lon="19.897304116766044"><ele>706.0</ele><time>2026-04-27T13:50:35Z</time></trkpt><trkpt lat="40.32005392646398" lon="19.897211077393102"><ele>706.0</ele><time>2026-04-27T13:50:36Z</time></trkpt><trkpt lat="40.31998585159811" lon="19.897134385428558"><ele>706.0</ele><time>2026-04-27T13:50:37Z</time></trkpt><trkpt lat="40.31992165417106" lon="19.89706260894883"><ele>706.0</ele><time>2026-04-27T13:50:38Z</time></trkpt><trkpt lat="40.319859204795776" lon="19.89699285301125"><ele>706.0</ele><time>2026-04-27T13:50:39Z</time></trkpt><trkpt lat="40.31978500946528" lon="19.896919047582003"><ele>706.0</ele><time>2026-04-27T13:50:40Z</time></trkpt><trkpt lat="40.31971566314579" lon="19.896863109572916"><ele>706.0</ele><time>2026-04-27T13:50:41Z</time></trkpt><trkpt lat="40.31964651641405" lon="19.89680733269963"><ele>706.0</ele><time>2026-04-27T13:50:42Z</time></trkpt><trkpt lat="40.31957975122231" lon="19.896753476737963"><ele>706.0</ele><time>2026-04-27T13:50:43Z</time></trkpt><trkpt lat="40.31950644569698" lon="19.896694345089045"><ele>706.0</ele><time>2026-04-27T13:50:44Z</time></trkpt><trkpt lat="40.319431208506714" lon="19.896633637907513"><ele>707.1999999999999</ele><time>2026-04-27T13:50:45Z</time></trkpt><trkpt lat="40.31935361164446" lon="19.89657095756868"><ele>708.4</ele><time>2026-04-27T13:50:46Z</time></trkpt><trkpt lat="40.319271067446195" lon="19.89650394527159"><ele>709.6</ele><time>2026-04-27T13:50:47Z</time></trkpt><trkpt lat="40.31918609579114" lon="19.896433069610474"><ele>710.8</ele><time>2026-04-27T13:50:48Z</time></trkpt><trkpt lat="40.31910000859742" lon="19.896355735089646"><ele>712.0</ele><time>2026-04-27T13:50:49Z</time></trkpt><trkpt lat="40.319014772848206" lon="19.896279177019405"><ele>712.0</ele><time>2026-04-27T13:50:50Z</time></trkpt><trkpt lat="40.318925859368534" lon="19.89619978092547"><ele>712.0</ele><time>2026-04-27T13:50:51Z</time></trkpt><trkpt lat="40.31885165048495" lon="19.89610084040612"><ele>712.0</ele><time>2026-04-27T13:50:52Z</time></trkpt><trkpt lat="40.318768813157774" lon="19.895995963663598"><ele>712.0</ele><time>2026-04-27T13:50:53Z</time></trkpt><trkpt lat="40.31868358015964" lon="19.895888052676597"><ele>712.0</ele><time>2026-04-27T13:50:54Z</time></trkpt><trkpt lat="40.31860858213285" lon="19.895772649941737"><ele>714.75</ele><time>2026-04-27T13:50:55Z</time></trkpt><trkpt lat="40.318531792191195" lon="19.89565686280279"><ele>717.5</ele><time>2026-04-27T13:50:56Z</time></trkpt><trkpt lat="40.31845829411362" lon="19.89554221597734"><ele>720.25</ele><time>2026-04-27T13:50:57Z</time></trkpt><trkpt lat="40.31838786215453" lon="19.895412688469804"><ele>723.0</ele><time>2026-04-27T13:50:58Z</time></trkpt><trkpt lat="40.318316196842765" lon="19.895280399853096"><ele>723.0</ele><time>2026-04-27T13:50:59Z</time></trkpt><trkpt lat="40.31824376830206" lon="19.895147854500898"><ele>723.0</ele><time>2026-04-27T13:51:00Z</time></trkpt><trkpt lat="40.31816981419256" lon="19.895012517082428"><ele>723.0</ele><time>2026-04-27T13:51:01Z</time></trkpt><trkpt lat="40.31807364543591" lon="19.894881034588757"><ele>723.0</ele><time>2026-04-27T13:51:02Z</time></trkpt><trkpt lat="40.31798146627042" lon="19.894768433977276"><ele>724.5</ele><time>2026-04-27T13:51:03Z</time></trkpt><trkpt lat="40.31788913919428" lon="19.894655652659015"><ele>726.0</ele><time>2026-04-27T13:51:04Z</time></trkpt><trkpt lat="40.31778926537853" lon="19.894556789661095"><ele>727.5</ele><time>2026-04-27T13:51:05Z</time></trkpt><trkpt lat="40.317701824958256" lon="19.894441787164347"><ele>729.0</ele><time>2026-04-27T13:51:06Z</time></trkpt><trkpt lat="40.31761337234147" lon="19.894333260846903"><ele>731.75</ele><time>2026-04-27T13:51:07Z</time></trkpt><trkpt lat="40.31752089030752" lon="19.894232464866008"><ele>734.5</ele><time>2026-04-27T13:51:08Z</time></trkpt><trkpt lat="40.317441005713505" lon="19.894110516181268"><ele>737.25</ele><time>2026-04-27T13:51:09Z</time></trkpt><trkpt lat="40.31735121427496" lon="19.89399993220868"><ele>740.0</ele><time>2026-04-27T13:51:10Z</time></trkpt><trkpt lat="40.31725685296126" lon="19.89389291827702"><ele>740.25</ele><time>2026-04-27T13:51:11Z</time></trkpt><trkpt lat="40.31716151096632" lon="19.89378615588496"><ele>740.5</ele><time>2026-04-27T13:51:12Z</time></trkpt><trkpt lat="40.317063460738574" lon="19.893675897702742"><ele>740.75</ele><time>2026-04-27T13:51:13Z</time></trkpt><trkpt lat="40.31696057265843" lon="19.89356106812787"><ele>741.0</ele><time>2026-04-27T13:51:14Z</time></trkpt><trkpt lat="40.31685701500464" lon="19.893444996951338"><ele>745.25</ele><time>2026-04-27T13:51:15Z</time></trkpt><trkpt lat="40.31672126633735" lon="19.893362143532865"><ele>749.5</ele><time>2026-04-27T13:51:16Z</time></trkpt><trkpt lat="40.31659638656881" lon="19.89329587229054"><ele>753.75</ele><time>2026-04-27T13:51:17Z</time></trkpt><trkpt lat="40.31647825414942" lon="19.893293733978886"><ele>758.0</ele><time>2026-04-27T13:51:18Z</time></trkpt><trkpt lat="40.316358135829816" lon="19.893270337424028"><ele>758.75</ele><time>2026-04-27T13:51:19Z</time></trkpt><trkpt lat="40.31623373123493" lon="19.893268956431438"><ele>759.5</ele><time>2026-04-27T13:51:20Z</time></trkpt><trkpt lat="40.31610220426" lon="19.893266471277077"><ele>760.25</ele><time>2026-04-27T13:51:21Z</time></trkpt><trkpt lat="40.31598134369151" lon="19.89322170350394"><ele>761.0</ele><time>2026-04-27T13:51:22Z</time></trkpt><trkpt lat="40.31585537831711" lon="19.893172565888978"><ele>761.0</ele><time>2026-04-27T13:51:23Z</time></trkpt><trkpt lat="40.31573019101611" lon="19.893123444396267"><ele>761.0</ele><time>2026-04-27T13:51:24Z</time></trkpt><trkpt lat="40.31561190977344" lon="19.89306328415333"><ele>761.0</ele><time>2026-04-27T13:51:25Z</time></trkpt><trkpt lat="40.315503048093525" lon="19.893001644842258"><ele>761.0</ele><time>2026-04-27T13:51:26Z</time></trkpt><trkpt lat="40.31540876048672" lon="19.89294669704131"><ele>760.0</ele><time>2026-04-27T13:51:27Z</time></trkpt><trkpt lat="40.31528872756588" lon="19.892942905799117"><ele>759.0</ele><time>2026-04-27T13:51:28Z</time></trkpt><trkpt lat="40.315166991590026" lon="19.89291609945648"><ele>758.0</ele><time>2026-04-27T13:51:29Z</time></trkpt><trkpt lat="40.31503424075641" lon="19.892885358046588"><ele>757.0</ele><time>2026-04-27T13:51:30Z</time></trkpt><trkpt lat="40.31490999884171" lon="19.89285317767829"><ele>757.0</ele><time>2026-04-27T13:51:31Z</time></trkpt><trkpt lat="40.3147854871778" lon="19.892822101424315"><ele>757.0</ele><time>2026-04-27T13:51:32Z</time></trkpt><trkpt lat="40.314659768714634" lon="19.892767201019"><ele>757.0</ele><time>2026-04-27T13:51:33Z</time></trkpt><trkpt lat="40.31451698666628" lon="19.89275137347309"><ele>757.0</ele><time>2026-04-27T13:51:34Z</time></trkpt><trkpt lat="40.31439815672847" lon="19.892757052305456"><ele>759.0</ele><time>2026-04-27T13:51:35Z</time></trkpt><trkpt lat="40.31427509115116" lon="19.892762482894753"><ele>761.0</ele><time>2026-04-27T13:51:36.001Z</time></trkpt><trkpt lat="40.314144509144896" lon="19.89279683337243"><ele>763.0</ele><time>2026-04-27T13:51:37.001Z</time></trkpt><trkpt lat="40.31400083350302" lon="19.89286403410089"><ele>765.0</ele><time>2026-04-27T13:51:38.001Z</time></trkpt><trkpt lat="40.313836211713216" lon="19.892967572714475"><ele>768.0</ele><time>2026-04-27T13:51:39.001Z</time></trkpt><trkpt lat="40.313683719489795" lon="19.893076983590007"><ele>771.0</ele><time>2026-04-27T13:51:40.001Z</time></trkpt><trkpt lat="40.313554362038715" lon="19.8931712746546"><ele>774.0</ele><time>2026-04-27T13:51:41.001Z</time></trkpt><trkpt lat="40.313441334954774" lon="19.89323603508084"><ele>777.0</ele><time>2026-04-27T13:51:42.001Z</time></trkpt><trkpt lat="40.31331189783512" lon="19.89327194842778"><ele>777.0</ele><time>2026-04-27T13:51:43.001Z</time></trkpt><trkpt lat="40.31318266518958" lon="19.893308710023764"><ele>777.0</ele><time>2026-04-27T13:51:44.001Z</time></trkpt><trkpt lat="40.313034455177096" lon="19.893309593040726"><ele>777.0</ele><time>2026-04-27T13:51:45.001Z</time></trkpt><trkpt lat="40.31289820800138" lon="19.893303395617878"><ele>777.0</ele><time>2026-04-27T13:51:46.001Z</time></trkpt><trkpt lat="40.31275087558549" lon="19.89330464171399"><ele>779.25</ele><time>2026-04-27T13:51:47.001Z</time></trkpt><trkpt lat="40.31260388225527" lon="19.893314521228106"><ele>781.5</ele><time>2026-04-27T13:51:48.001Z</time></trkpt><trkpt lat="40.3124714377618" lon="19.893348133140595"><ele>783.75</ele><time>2026-04-27T13:51:49.001Z</time></trkpt><trkpt lat="40.312358168480515" lon="19.893387993077532"><ele>786.0</ele><time>2026-04-27T13:51:50.001Z</time></trkpt><trkpt lat="40.31224570433068" lon="19.893414576940458"><ele>787.5</ele><time>2026-04-27T13:51:51.001Z</time></trkpt><trkpt lat="40.31215113022159" lon="19.8934516981715"><ele>789.0</ele><time>2026-04-27T13:51:52.001Z</time></trkpt><trkpt lat="40.31206184245427" lon="19.893525688271584"><ele>790.5</ele><time>2026-04-27T13:51:53.001Z</time></trkpt><trkpt lat="40.31196682417449" lon="19.893631556024957"><ele>792.0</ele><time>2026-04-27T13:51:54.001Z</time></trkpt><trkpt lat="40.3118382303811" lon="19.893704300313647"><ele>792.0</ele><time>2026-04-27T13:51:55.001Z</time></trkpt><trkpt lat="40.311703303802794" lon="19.893817542557873"><ele>792.0</ele><time>2026-04-27T13:51:56.001Z</time></trkpt><trkpt lat="40.3115950000311" lon="19.893934076640384"><ele>792.0</ele><time>2026-04-27T13:51:57.001Z</time></trkpt><trkpt lat="40.311495907552214" lon="19.89400951723189"><ele>792.0</ele><time>2026-04-27T13:51:58.001Z</time></trkpt><trkpt lat="40.31137483701089" lon="19.894047345347822"><ele>799.6666666666667</ele><time>2026-04-27T13:51:59.001Z</time></trkpt><trkpt lat="40.31124487071504" lon="19.89407094760965"><ele>807.3333333333334</ele><time>2026-04-27T13:52:00.001Z</time></trkpt><trkpt lat="40.31109694118815" lon="19.894094492058287"><ele>815.0</ele><time>2026-04-27T13:52:01.001Z</time></trkpt><trkpt lat="40.310915893676565" lon="19.89414786152821"><ele>814.6666666666667</ele><time>2026-04-27T13:52:02.001Z</time></trkpt><trkpt lat="40.31076316702344" lon="19.894262816294663"><ele>814.3333333333333</ele><time>2026-04-27T13:52:03.001Z</time></trkpt><trkpt lat="40.31060513700628" lon="19.894382686201947"><ele>814.0</ele><time>2026-04-27T13:52:04.001Z</time></trkpt><trkpt lat="40.31044776236929" lon="19.89448896846599"><ele>814.0</ele><time>2026-04-27T13:52:05.001Z</time></trkpt><trkpt lat="40.310287792998835" lon="19.89458977941952"><ele>814.0</ele><time>2026-04-27T13:52:06.001Z</time></trkpt><trkpt lat="40.31015557159754" lon="19.894673495609368"><ele>814.0</ele><time>2026-04-27T13:52:07.001Z</time></trkpt><trkpt lat="40.310030621729446" lon="19.894697472289202"><ele>814.0</ele><time>2026-04-27T13:52:08.001Z</time></trkpt><trkpt lat="40.309903427882816" lon="19.894696083825426"><ele>814.0</ele><time>2026-04-27T13:52:09.001Z</time></trkpt><trkpt lat="40.309765193385715" lon="19.89465984006037"><ele>814.0</ele><time>2026-04-27T13:52:10.001Z</time></trkpt><trkpt lat="40.30962524866751" lon="19.89456672137389"><ele>814.0</ele><time>2026-04-27T13:52:11.001Z</time></trkpt><trkpt lat="40.30947345116949" lon="19.894480150188244"><ele>817.6666666666666</ele><time>2026-04-27T13:52:12.001Z</time></trkpt><trkpt lat="40.30930729452059" lon="19.89440242005617"><ele>821.3333333333333</ele><time>2026-04-27T13:52:13.001Z</time></trkpt><trkpt lat="40.3091469424511" lon="19.894294714452705"><ele>825.0</ele><time>2026-04-27T13:52:14.001Z</time></trkpt><trkpt lat="40.30897758586479" lon="19.89419246199863"><ele>833.3333333333333</ele><time>2026-04-27T13:52:15.001Z</time></trkpt><trkpt lat="40.308815032331665" lon="19.89406592545139"><ele>841.6666666666666</ele><time>2026-04-27T13:52:16.001Z</time></trkpt><trkpt lat="40.30862658888624" lon="19.89400466748921"><ele>850.0</ele><time>2026-04-27T13:52:17.001Z</time></trkpt><trkpt lat="40.30847203598591" lon="19.893910899242996"><ele>850.0</ele><time>2026-04-27T13:52:18.001Z</time></trkpt><trkpt lat="40.30833386775731" lon="19.893879033674747"><ele>850.0</ele><time>2026-04-27T13:52:19.001Z</time></trkpt><trkpt lat="40.308231196948455" lon="19.893881114865597"><ele>850.0</ele><time>2026-04-27T13:52:20.001Z</time></trkpt><trkpt lat="40.30814436654446" lon="19.8938645313034"><ele>850.0</ele><time>2026-04-27T13:52:21.001Z</time></trkpt><trkpt lat="40.30807626179899" lon="19.893862498739466"><ele>850.0</ele><time>2026-04-27T13:52:22.001Z</time></trkpt><trkpt lat="40.30797618004363" lon="19.893880409483735"><ele>852.6</ele><time>2026-04-27T13:52:24.001Z</time></trkpt><trkpt lat="40.30791776204796" lon="19.893912879458878"><ele>855.2</ele><time>2026-04-27T13:52:25.001Z</time></trkpt><trkpt lat="40.3078495889333" lon="19.893987997458684"><ele>857.8</ele><time>2026-04-27T13:52:26.001Z</time></trkpt><trkpt lat="40.30777317129845" lon="19.894091775607084"><ele>860.4</ele><time>2026-04-27T13:52:27.001Z</time></trkpt><trkpt lat="40.30769607392403" lon="19.89417618653762"><ele>863.0</ele><time>2026-04-27T13:52:28.001Z</time></trkpt><trkpt lat="40.30759930516322" lon="19.894231924547363"><ele>860.5</ele><time>2026-04-27T13:52:29.001Z</time></trkpt><trkpt lat="40.30748055721251" lon="19.894271095097018"><ele>858.0</ele><time>2026-04-27T13:52:30.001Z</time></trkpt><trkpt lat="40.3073472453141" lon="19.894309849046895"><ele>855.5</ele><time>2026-04-27T13:52:31.001Z</time></trkpt><trkpt lat="40.30721212992819" lon="19.894365297104528"><ele>853.0</ele><time>2026-04-27T13:52:32.001Z</time></trkpt><trkpt lat="40.30707633575634" lon="19.894433638590424"><ele>853.0</ele><time>2026-04-27T13:52:33.001Z</time></trkpt><trkpt lat="40.30696780837355" lon="19.894495830628745"><ele>853.0</ele><time>2026-04-27T13:52:34.001Z</time></trkpt><trkpt lat="40.30686475625061" lon="19.8945304148782"><ele>853.0</ele><time>2026-04-27T13:52:35.001Z</time></trkpt><trkpt lat="40.30676574967609" lon="19.894524956422618"><ele>853.0</ele><time>2026-04-27T13:52:36.001Z</time></trkpt><trkpt lat="40.30666036703325" lon="19.89446973462233"><ele>853.0</ele><time>2026-04-27T13:52:37.001Z</time></trkpt><trkpt lat="40.306532818746696" lon="19.894421042574173"><ele>854.5</ele><time>2026-04-27T13:52:38.001Z</time></trkpt><trkpt lat="40.30639157006921" lon="19.89436710954283"><ele>856.0</ele><time>2026-04-27T13:52:39.001Z</time></trkpt><trkpt lat="40.306234696992796" lon="19.89435601305146"><ele>857.5</ele><time>2026-04-27T13:52:40.001Z</time></trkpt><trkpt lat="40.306112767135296" lon="19.894355222252965"><ele>859.0</ele><time>2026-04-27T13:52:41.001Z</time></trkpt><trkpt lat="40.305992469148826" lon="19.894354442038075"><ele>859.0</ele><time>2026-04-27T13:52:42.001Z</time></trkpt><trkpt lat="40.30586311266288" lon="19.894369230522976"><ele>859.0</ele><time>2026-04-27T13:52:43.001Z</time></trkpt><trkpt lat="40.30572911982935" lon="19.894366668356636"><ele>859.0</ele><time>2026-04-27T13:52:44.001Z</time></trkpt><trkpt lat="40.30560083267445" lon="19.89436423175835"><ele>859.0</ele><time>2026-04-27T13:52:45.001Z</time></trkpt><trkpt lat="40.30549561148125" lon="19.894353453698567"><ele>860.5</ele><time>2026-04-27T13:52:46.001Z</time></trkpt><trkpt lat="40.30539440542405" lon="19.894319630906686"><ele>862.0</ele><time>2026-04-27T13:52:47.001Z</time></trkpt><trkpt lat="40.30529169913597" lon="19.894259084406894"><ele>863.5</ele><time>2026-04-27T13:52:48.001Z</time></trkpt><trkpt lat="40.30520494015441" lon="19.894154889803236"><ele>865.0</ele><time>2026-04-27T13:52:49.001Z</time></trkpt><trkpt lat="40.30509743153013" lon="19.894053851641857"><ele>867.75</ele><time>2026-04-27T13:52:50.001Z</time></trkpt><trkpt lat="40.304979388065036" lon="19.893942912862084"><ele>870.5</ele><time>2026-04-27T13:52:51.001Z</time></trkpt><trkpt lat="40.304866473988355" lon="19.893817714096933"><ele>873.25</ele><time>2026-04-27T13:52:52.001Z</time></trkpt><trkpt lat="40.3047766139189" lon="19.89368835609811"><ele>876.0</ele><time>2026-04-27T13:52:53.001Z</time></trkpt><trkpt lat="40.30470058282376" lon="19.893578224031366"><ele>877.5</ele><time>2026-04-27T13:52:54.001Z</time></trkpt><trkpt lat="40.304637839552115" lon="19.89348675472013"><ele>879.0</ele><time>2026-04-27T13:52:55.001Z</time></trkpt><trkpt lat="40.30459028423822" lon="19.893418069721218"><ele>880.5</ele><time>2026-04-27T13:52:56.001Z</time></trkpt><trkpt lat="40.3044970715836" lon="19.893429075747488"><ele>882.0</ele><time>2026-04-27T13:52:57.001Z</time></trkpt><trkpt lat="40.304426639591334" lon="19.893434959797883"><ele>883.5</ele><time>2026-04-27T13:52:58.001Z</time></trkpt><trkpt lat="40.304349237054154" lon="19.89345836553691"><ele>885.0</ele><time>2026-04-27T13:52:59.001Z</time></trkpt><trkpt lat="40.30425775271823" lon="19.893411115975002"><ele>885.0</ele><time>2026-04-27T13:53:00.001Z</time></trkpt><trkpt lat="40.30416460719913" lon="19.893419942379644"><ele>885.0</ele><time>2026-04-27T13:53:01.001Z</time></trkpt><trkpt lat="40.304089090315756" lon="19.893427518944577"><ele>885.0</ele><time>2026-04-27T13:53:02.001Z</time></trkpt><trkpt lat="40.30404886197407" lon="19.893563798319295"><ele>885.0</ele><time>2026-04-27T13:53:03.001Z</time></trkpt><trkpt lat="40.3040106813966" lon="19.893668185602518"><ele>885.0</ele><time>2026-04-27T13:53:04.001Z</time></trkpt><trkpt lat="40.303936491984345" lon="19.89377385516344"><ele>888.2</ele><time>2026-04-27T13:53:05.001Z</time></trkpt><trkpt lat="40.303876704215014" lon="19.893901565783995"><ele>891.4</ele><time>2026-04-27T13:53:06.001Z</time></trkpt><trkpt lat="40.30380189415797" lon="19.89398250974652"><ele>894.5999999999999</ele><time>2026-04-27T13:53:07.001Z</time></trkpt><trkpt lat="40.30371443489247" lon="19.89403209917394"><ele>897.8</ele><time>2026-04-27T13:53:08.001Z</time></trkpt><trkpt lat="40.30361247236359" lon="19.89408113303598"><ele>901.0</ele><time>2026-04-27T13:53:09.001Z</time></trkpt><trkpt lat="40.30349926978836" lon="19.89414571607813"><ele>901.0</ele><time>2026-04-27T13:53:10.001Z</time></trkpt><trkpt lat="40.30337696927523" lon="19.89423163235706"><ele>901.0</ele><time>2026-04-27T13:53:11.001Z</time></trkpt><trkpt lat="40.30325794575476" lon="19.894323674524763"><ele>901.0</ele><time>2026-04-27T13:53:12.001Z</time></trkpt><trkpt lat="40.303148921454955" lon="19.894399544722788"><ele>901.0</ele><time>2026-04-27T13:53:13.001Z</time></trkpt><trkpt lat="40.303047327574184" lon="19.894465244672666"><ele>900.1999999999999</ele><time>2026-04-27T13:53:14.001Z</time></trkpt><trkpt lat="40.302958499048685" lon="19.894538650146206"><ele>899.3999999999999</ele><time>2026-04-27T13:53:15.001Z</time></trkpt><trkpt lat="40.302885354518594" lon="19.894621523460017"><ele>898.6</ele><time>2026-04-27T13:53:16.001Z</time></trkpt><trkpt lat="40.30282780439791" lon="19.89469578825532"><ele>897.8</ele><time>2026-04-27T13:53:17.001Z</time></trkpt><trkpt lat="40.30273272150925" lon="19.894783904807642"><ele>897.0</ele><time>2026-04-27T13:53:19.001Z</time></trkpt><trkpt lat="40.302601226460844" lon="19.894780540570604"><ele>897.0</ele><time>2026-04-27T13:53:21.001Z</time></trkpt><trkpt lat="40.30253555132886" lon="19.894709866667316"><ele>897.0</ele><time>2026-04-27T13:53:22.001Z</time></trkpt><trkpt lat="40.30246783072335" lon="19.894639275677957"><ele>897.0</ele><time>2026-04-27T13:53:23.001Z</time></trkpt><trkpt lat="40.302387745346856" lon="19.894561803539254"><ele>897.0</ele><time>2026-04-27T13:53:24.001Z</time></trkpt><trkpt lat="40.30230258456408" lon="19.89447924517983"><ele>897.0</ele><time>2026-04-27T13:53:25.001Z</time></trkpt><trkpt lat="40.30221540117029" lon="19.894394524670613"><ele>899.1666666666666</ele><time>2026-04-27T13:53:26.001Z</time></trkpt><trkpt lat="40.30214454055684" lon="19.894325826769535"><ele>901.3333333333333</ele><time>2026-04-27T13:53:27.001Z</time></trkpt><trkpt lat="40.3020897484713" lon="19.894274137971813"><ele>903.5</ele><time>2026-04-27T13:53:28.001Z</time></trkpt><trkpt lat="40.30202256847133" lon="19.894252586465164"><ele>905.6666666666666</ele><time>2026-04-27T13:53:29.001Z</time></trkpt><trkpt lat="40.30192723230969" lon="19.894259723131857"><ele>907.8333333333333</ele><time>2026-04-27T13:53:31.001Z</time></trkpt><trkpt lat="40.30187918438156" lon="19.89433612021283"><ele>910.0</ele><time>2026-04-27T13:53:32.001Z</time></trkpt><trkpt lat="40.3018224816184" lon="19.89438747098813"><ele>909.9999999999999</ele><time>2026-04-27T13:53:33.001Z</time></trkpt><trkpt lat="40.301755033847144" lon="19.894420216703903"><ele>910.0</ele><time>2026-04-27T13:53:34.001Z</time></trkpt><trkpt lat="40.30173613538879" lon="19.894522559056046"><ele>910.0</ele><time>2026-04-27T13:53:35.001Z</time></trkpt><trkpt lat="40.301699387498424" lon="19.89460680706173"><ele>910.0</ele><time>2026-04-27T13:53:36.001Z</time></trkpt><trkpt lat="40.30165067778228" lon="19.894702362053383"><ele>909.9999999999999</ele><time>2026-04-27T13:53:37.001Z</time></trkpt><trkpt lat="40.30158381798457" lon="19.894795477682305"><ele>910.0</ele><time>2026-04-27T13:53:38.001Z</time></trkpt><trkpt lat="40.30149182612433" lon="19.894885394347476"><ele>911.5</ele><time>2026-04-27T13:53:39.001Z</time></trkpt><trkpt lat="40.301378690431335" lon="19.894970504407798"><ele>913.0</ele><time>2026-04-27T13:53:40.001Z</time></trkpt><trkpt lat="40.3012509922217" lon="19.895047406532974"><ele>914.5</ele><time>2026-04-27T13:53:41.001Z</time></trkpt><trkpt lat="40.30110343676313" lon="19.895130202825644"><ele>916.0</ele><time>2026-04-27T13:53:42.001Z</time></trkpt><trkpt lat="40.30093413954142" lon="19.89521879747232"><ele>916.0</ele><time>2026-04-27T13:53:43.001Z</time></trkpt><trkpt lat="40.30079201948889" lon="19.895295866548896"><ele>916.0</ele><time>2026-04-27T13:53:44.001Z</time></trkpt><trkpt lat="40.30067567008423" lon="19.89536059121935"><ele>916.0</ele><time>2026-04-27T13:53:45.001Z</time></trkpt><trkpt lat="40.300574176970954" lon="19.895432265226006"><ele>916.0</ele><time>2026-04-27T13:53:46.001Z</time></trkpt><trkpt lat="40.30048147891488" lon="19.89553530985134"><ele>919.25</ele><time>2026-04-27T13:53:47.001Z</time></trkpt><trkpt lat="40.3003749203422" lon="19.895626515917314"><ele>922.5</ele><time>2026-04-27T13:53:48.001Z</time></trkpt><trkpt lat="40.3002653931818" lon="19.89565692532295"><ele>925.75</ele><time>2026-04-27T13:53:49.001Z</time></trkpt><trkpt lat="40.30014423429168" lon="19.895656199796015"><ele>929.0</ele><time>2026-04-27T13:53:50.001Z</time></trkpt><trkpt lat="40.300007694334354" lon="19.895641473973996"><ele>929.0</ele><time>2026-04-27T13:53:51.001Z</time></trkpt><trkpt lat="40.299859245221114" lon="19.895601358278977"><ele>929.0</ele><time>2026-04-27T13:53:52.001Z</time></trkpt><trkpt lat="40.29972429658864" lon="19.89552770471363"><ele>929.0</ele><time>2026-04-27T13:53:53.001Z</time></trkpt><trkpt lat="40.29961527037001" lon="19.895383180178854"><ele>933.0</ele><time>2026-04-27T13:53:54.001Z</time></trkpt><trkpt lat="40.299474170992916" lon="19.895241354276266"><ele>937.0</ele><time>2026-04-27T13:53:55.001Z</time></trkpt><trkpt lat="40.29932984785149" lon="19.895099199241674"><ele>941.0</ele><time>2026-04-27T13:53:56.001Z</time></trkpt><trkpt lat="40.29922030762131" lon="19.895011191335154"><ele>942.8</ele><time>2026-04-27T13:53:57.001Z</time></trkpt><trkpt lat="40.299152298238496" lon="19.894956721549992"><ele>944.5999999999999</ele><time>2026-04-27T13:53:58.001Z</time></trkpt><trkpt lat="40.2990769603846" lon="19.894945228388195"><ele>946.4</ele><time>2026-04-27T13:53:59.001Z</time></trkpt><trkpt lat="40.298987907755034" lon="19.89501969331796"><ele>948.2</ele><time>2026-04-27T13:54:00.001Z</time></trkpt><trkpt lat="40.298901352772845" lon="19.895070335348073"><ele>950.0</ele><time>2026-04-27T13:54:01.001Z</time></trkpt><trkpt lat="40.29879368924976" lon="19.895108287881808"><ele>954.75</ele><time>2026-04-27T13:54:02.001Z</time></trkpt><trkpt lat="40.298674992468115" lon="19.895043187125356"><ele>959.5</ele><time>2026-04-27T13:54:03.001Z</time></trkpt><trkpt lat="40.298518736105834" lon="19.894989394956898"><ele>964.25</ele><time>2026-04-27T13:54:04.001Z</time></trkpt><trkpt lat="40.298369146769026" lon="19.89496840301651"><ele>969.0</ele><time>2026-04-27T13:54:05.001Z</time></trkpt><trkpt lat="40.29821482367162" lon="19.894943975335124"><ele>968.0</ele><time>2026-04-27T13:54:06.001Z</time></trkpt><trkpt lat="40.29807532230806" lon="19.89495975639031"><ele>967.0000000000001</ele><time>2026-04-27T13:54:07.001Z</time></trkpt><trkpt lat="40.29797830415033" lon="19.89500329861995"><ele>966.0000000000001</ele><time>2026-04-27T13:54:08.001Z</time></trkpt><trkpt lat="40.29792325038117" lon="19.895081535130224"><ele>965.0</ele><time>2026-04-27T13:54:09.001Z</time></trkpt><trkpt lat="40.297884794583965" lon="19.895177924198865"><ele>964.0</ele><time>2026-04-27T13:54:10.001Z</time></trkpt><trkpt lat="40.29784854502189" lon="19.895287351054158"><ele>964.0</ele><time>2026-04-27T13:54:11.001Z</time></trkpt><trkpt lat="40.297795801008775" lon="19.89534338976738"><ele>964.0000000000001</ele><time>2026-04-27T13:54:12.001Z</time></trkpt><trkpt lat="40.29766430507053" lon="19.89527821552799"><ele>964.0000000000001</ele><time>2026-04-27T13:54:14.001Z</time></trkpt><trkpt lat="40.297583022593955" lon="19.89520145277698"><ele>964.0</ele><time>2026-04-27T13:54:15.001Z</time></trkpt><trkpt lat="40.297483502760926" lon="19.895123198298663"><ele>964.0</ele><time>2026-04-27T13:54:16.001Z</time></trkpt><trkpt lat="40.29735720417058" lon="19.8950715455059"><ele>973.25</ele><time>2026-04-27T13:54:17.001Z</time></trkpt><trkpt lat="40.29722066984038" lon="19.89505446390311"><ele>982.5</ele><time>2026-04-27T13:54:18.001Z</time></trkpt><trkpt lat="40.29707636757372" lon="19.89506097859004"><ele>991.75</ele><time>2026-04-27T13:54:19.001Z</time></trkpt><trkpt lat="40.29693046711975" lon="19.8950774555718"><ele>1001.0</ele><time>2026-04-27T13:54:20.001Z</time></trkpt><trkpt lat="40.29681785153743" lon="19.8950655684975"><ele>1001.0</ele><time>2026-04-27T13:54:21.001Z</time></trkpt><trkpt lat="40.296759803333444" lon="19.894979111646656"><ele>1000.9999999999999</ele><time>2026-04-27T13:54:22.001Z</time></trkpt><trkpt lat="40.29674053166927" lon="19.8948891781919"><ele>1000.9999999999999</ele><time>2026-04-27T13:54:23.001Z</time></trkpt><trkpt lat="40.29674114785738" lon="19.894762712299357"><ele>1001.0</ele><time>2026-04-27T13:54:24.001Z</time></trkpt><trkpt lat="40.29669688332334" lon="19.894604147067334"><ele>1001.0</ele><time>2026-04-27T13:54:25.001Z</time></trkpt><trkpt lat="40.29666829762413" lon="19.89441783730261"><ele>1002.3333333333334</ele><time>2026-04-27T13:54:26.001Z</time></trkpt><trkpt lat="40.29663419907621" lon="19.89425310954383"><ele>1003.6666666666667</ele><time>2026-04-27T13:54:27.001Z</time></trkpt><trkpt lat="40.29659596271644" lon="19.894144293500517"><ele>1005.0</ele><time>2026-04-27T13:54:28.001Z</time></trkpt><trkpt lat="40.29653960214208" lon="19.89407409533394"><ele>1006.3333333333333</ele><time>2026-04-27T13:54:29.001Z</time></trkpt><trkpt lat="40.29646757880413" lon="19.894032314827605"><ele>1007.6666666666666</ele><time>2026-04-27T13:54:30.001Z</time></trkpt><trkpt lat="40.296401200714925" lon="19.8940281136959"><ele>1009.0</ele><time>2026-04-27T13:54:31.001Z</time></trkpt><trkpt lat="40.29628904535605" lon="19.894105595574867"><ele>1010.4000000000001</ele><time>2026-04-27T13:54:33.001Z</time></trkpt><trkpt lat="40.29621625159894" lon="19.894151596755506"><ele>1011.8000000000001</ele><time>2026-04-27T13:54:34.001Z</time></trkpt><trkpt lat="40.29613967502364" lon="19.894187931008332"><ele>1013.1999999999999</ele><time>2026-04-27T13:54:35.001Z</time></trkpt><trkpt lat="40.29604464849333" lon="19.894229046190524"><ele>1014.5999999999999</ele><time>2026-04-27T13:54:36.001Z</time></trkpt><trkpt lat="40.29593334352554" lon="19.89428095003368"><ele>1016.0</ele><time>2026-04-27T13:54:37.001Z</time></trkpt><trkpt lat="40.29579588466628" lon="19.894346886661634"><ele>1016.0</ele><time>2026-04-27T13:54:38.001Z</time></trkpt><trkpt lat="40.29568086480006" lon="19.894397472487864"><ele>1016.0</ele><time>2026-04-27T13:54:39.001Z</time></trkpt><trkpt lat="40.29558277665402" lon="19.89443738198227"><ele>1016.0</ele><time>2026-04-27T13:54:40.001Z</time></trkpt><trkpt lat="40.295482403840914" lon="19.89448067133701"><ele>1016.0</ele><time>2026-04-27T13:54:41.001Z</time></trkpt><trkpt lat="40.29536808776013" lon="19.894539898679934"><ele>1018.25</ele><time>2026-04-27T13:54:42.001Z</time></trkpt><trkpt lat="40.29524755311142" lon="19.894611908721462"><ele>1020.5</ele><time>2026-04-27T13:54:43.001Z</time></trkpt><trkpt lat="40.295118850574916" lon="19.894690640956266"><ele>1022.75</ele><time>2026-04-27T13:54:44.001Z</time></trkpt><trkpt lat="40.295002865538514" lon="19.894759643091223"><ele>1025.0</ele><time>2026-04-27T13:54:45.001Z</time></trkpt><trkpt lat="40.294886335991364" lon="19.894817426249176"><ele>1029.75</ele><time>2026-04-27T13:54:46.001Z</time></trkpt><trkpt lat="40.294746124774875" lon="19.894856456647606"><ele>1034.5</ele><time>2026-04-27T13:54:47.001Z</time></trkpt><trkpt lat="40.29459940880008" lon="19.89486829547548"><ele>1039.25</ele><time>2026-04-27T13:54:48.001Z</time></trkpt><trkpt lat="40.2944783089917" lon="19.89488211543473"><ele>1044.0</ele><time>2026-04-27T13:54:49.001Z</time></trkpt><trkpt lat="40.29437803998241" lon="19.894912114464816"><ele>1044.0</ele><time>2026-04-27T13:54:50.001Z</time></trkpt><trkpt lat="40.294300584122496" lon="19.894958990338566"><ele>1044.0</ele><time>2026-04-27T13:54:51.001Z</time></trkpt><trkpt lat="40.294248015372354" lon="19.895015814878033"><ele>1044.0</ele><time>2026-04-27T13:54:52.001Z</time></trkpt><trkpt lat="40.29420807747828" lon="19.89517586445158"><ele>1044.0</ele><time>2026-04-27T13:54:54.001Z</time></trkpt><trkpt lat="40.294172320184494" lon="19.89526719140045"><ele>1044.0</ele><time>2026-04-27T13:54:55.001Z</time></trkpt><trkpt lat="40.29404505806135" lon="19.895301169679396"><ele>1043.25</ele><time>2026-04-27T13:54:57.001Z</time></trkpt><trkpt lat="40.293937868792234" lon="19.895264777553685"><ele>1042.5</ele><time>2026-04-27T13:54:58.001Z</time></trkpt><trkpt lat="40.29380577706005" lon="19.895207046765922"><ele>1041.75</ele><time>2026-04-27T13:54:59.001Z</time></trkpt><trkpt lat="40.293635261695826" lon="19.895131930345286"><ele>1041.0</ele><time>2026-04-27T13:55:00.001Z</time></trkpt><trkpt lat="40.293457993418606" lon="19.89504688029186"><ele>1044.75</ele><time>2026-04-27T13:55:01.001Z</time></trkpt><trkpt lat="40.2933293915904" lon="19.89498219916583"><ele>1048.5</ele><time>2026-04-27T13:55:02.001Z</time></trkpt><trkpt lat="40.29319957588922" lon="19.894933660829164"><ele>1052.25</ele><time>2026-04-27T13:55:03.001Z</time></trkpt><trkpt lat="40.2930567406185" lon="19.89488944173562"><ele>1056.0</ele><time>2026-04-27T13:55:04.001Z</time></trkpt><trkpt lat="40.29291833400324" lon="19.89485656988529"><ele>1057.0</ele><time>2026-04-27T13:55:05.001Z</time></trkpt><trkpt lat="40.29280597842783" lon="19.8948328290474"><ele>1058.0</ele><time>2026-04-27T13:55:06.001Z</time></trkpt><trkpt lat="40.29272693939823" lon="19.89481821214027"><ele>1059.0</ele><time>2026-04-27T13:55:07.001Z</time></trkpt><trkpt lat="40.29265652138552" lon="19.894839149995338"><ele>1060.0</ele><time>2026-04-27T13:55:08.001Z</time></trkpt><trkpt lat="40.292607943288196" lon="19.894918500150002"><ele>1061.0</ele><time>2026-04-27T13:55:09.001Z</time></trkpt><trkpt lat="40.292565374681246" lon="19.895036536207858"><ele>1062.0</ele><time>2026-04-27T13:55:10.001Z</time></trkpt><trkpt lat="40.292537365863566" lon="19.89518111835618"><ele>1062.0</ele><time>2026-04-27T13:55:11.001Z</time></trkpt><trkpt lat="40.292527950739974" lon="19.895332726535226"><ele>1062.0</ele><time>2026-04-27T13:55:12.001Z</time></trkpt><trkpt lat="40.2925244865859" lon="19.89546483693298"><ele>1062.0</ele><time>2026-04-27T13:55:13.001Z</time></trkpt><trkpt lat="40.292488305099695" lon="19.895573882807618"><ele>1062.0</ele><time>2026-04-27T13:55:14.001Z</time></trkpt><trkpt lat="40.292397585736005" lon="19.895667052893938"><ele>1062.0</ele><time>2026-04-27T13:55:15.001Z</time></trkpt><trkpt lat="40.29227009255696" lon="19.89575884907531"><ele>1065.5</ele><time>2026-04-27T13:55:16.001Z</time></trkpt><trkpt lat="40.29213756052091" lon="19.895812081035448"><ele>1069.0</ele><time>2026-04-27T13:55:17.001Z</time></trkpt><trkpt lat="40.29200812028551" lon="19.8958096765954"><ele>1072.5</ele><time>2026-04-27T13:55:18.001Z</time></trkpt><trkpt lat="40.291876700599204" lon="19.895802194819897"><ele>1076.0</ele><time>2026-04-27T13:55:19.001Z</time></trkpt><trkpt lat="40.29177008218097" lon="19.89583284653092"><ele>1076.0</ele><time>2026-04-27T13:55:20.001Z</time></trkpt><trkpt lat="40.291695790072076" lon="19.895913114470773"><ele>1076.0</ele><time>2026-04-27T13:55:21.001Z</time></trkpt><trkpt lat="40.291637705749956" lon="19.896026256596723"><ele>1076.0</ele><time>2026-04-27T13:55:22.001Z</time></trkpt><trkpt lat="40.29155796481298" lon="19.89613031406744"><ele>1076.0</ele><time>2026-04-27T13:55:23.001Z</time></trkpt><trkpt lat="40.291453571067606" lon="19.896176147695687"><ele>1076.0</ele><time>2026-04-27T13:55:24.001Z</time></trkpt><trkpt lat="40.291342394609785" lon="19.89615531435554"><ele>1077.0</ele><time>2026-04-27T13:55:25.001Z</time></trkpt><trkpt lat="40.291246274747024" lon="19.89608519649364"><ele>1078.0</ele><time>2026-04-27T13:55:26.001Z</time></trkpt><trkpt lat="40.29116841572865" lon="19.896001100222918"><ele>1079.0</ele><time>2026-04-27T13:55:27.001Z</time></trkpt><trkpt lat="40.29110380493158" lon="19.895980626165183"><ele>1080.0</ele><time>2026-04-27T13:55:28.001Z</time></trkpt><trkpt lat="40.29103331117986" lon="19.896026524074337"><ele>1081.0</ele><time>2026-04-27T13:55:29.001Z</time></trkpt><trkpt lat="40.29096003741264" lon="19.896117439156225"><ele>1081.0</ele><time>2026-04-27T13:55:30.001Z</time></trkpt><trkpt lat="40.290877504365035" lon="19.896171622417466"><ele>1081.0</ele><time>2026-04-27T13:55:31.001Z</time></trkpt><trkpt lat="40.29078342204924" lon="19.89615370177391"><ele>1081.0</ele><time>2026-04-27T13:55:32.001Z</time></trkpt><trkpt lat="40.29068091301891" lon="19.896093950773892"><ele>1081.0</ele><time>2026-04-27T13:55:33.001Z</time></trkpt><trkpt lat="40.29055884247188" lon="19.896023074537023"><ele>1081.0</ele><time>2026-04-27T13:55:34.001Z</time></trkpt><trkpt lat="40.29040046343765" lon="19.895963508022234"><ele>1086.3333333333333</ele><time>2026-04-27T13:55:35.001Z</time></trkpt><trkpt lat="40.29021972725681" lon="19.89592515814675"><ele>1091.6666666666667</ele><time>2026-04-27T13:55:36.001Z</time></trkpt><trkpt lat="40.290048693882326" lon="19.895914142334817"><ele>1097.0</ele><time>2026-04-27T13:55:37.001Z</time></trkpt><trkpt lat="40.28992591001221" lon="19.895943095652143"><ele>1097.0</ele><time>2026-04-27T13:55:38.001Z</time></trkpt><trkpt lat="40.28983341727557" lon="19.89598485373111"><ele>1097.0</ele><time>2026-04-27T13:55:39.001Z</time></trkpt><trkpt lat="40.28976657154876" lon="19.896018963435242"><ele>1097.0</ele><time>2026-04-27T13:55:40.001Z</time></trkpt><trkpt lat="40.28969913203384" lon="19.896030072816554"><ele>1097.0</ele><time>2026-04-27T13:55:41.001Z</time></trkpt><trkpt lat="40.28960875219716" lon="19.896015411982773"><ele>1097.0</ele><time>2026-04-27T13:55:42.001Z</time></trkpt><trkpt lat="40.289497107707376" lon="19.895978470103476"><ele>1097.0</ele><time>2026-04-27T13:55:43.001Z</time></trkpt><trkpt lat="40.28938132955259" lon="19.89593675978227"><ele>1096.8333333333335</ele><time>2026-04-27T13:55:44.001Z</time></trkpt><trkpt lat="40.28929858255608" lon="19.89591875306096"><ele>1096.6666666666667</ele><time>2026-04-27T13:55:45.001Z</time></trkpt><trkpt lat="40.28917316966629" lon="19.895934161248878"><ele>1096.5</ele><time>2026-04-27T13:55:47.001Z</time></trkpt><trkpt lat="40.28909453280591" lon="19.89594172399253"><ele>1096.3333333333333</ele><time>2026-04-27T13:55:48.001Z</time></trkpt><trkpt lat="40.289029454285554" lon="19.89590643887888"><ele>1096.1666666666665</ele><time>2026-04-27T13:55:49.001Z</time></trkpt><trkpt lat="40.28898136396015" lon="19.895837483837884"><ele>1096.0</ele><time>2026-04-27T13:55:50.001Z</time></trkpt><trkpt lat="40.288946455617996" lon="19.895753214938242"><ele>1094.1666666666665</ele><time>2026-04-27T13:55:51.001Z</time></trkpt><trkpt lat="40.28891815395951" lon="19.895668522026437"><ele>1092.3333333333333</ele><time>2026-04-27T13:55:52.001Z</time></trkpt><trkpt lat="40.28882940458083" lon="19.895596851250193"><ele>1090.5</ele><time>2026-04-27T13:55:54.001Z</time></trkpt><trkpt lat="40.28873341413422" lon="19.89566843912353"><ele>1088.6666666666667</ele><time>2026-04-27T13:55:56.001Z</time></trkpt><trkpt lat="40.2886964766178" lon="19.895743741974613"><ele>1086.8333333333335</ele><time>2026-04-27T13:55:57.001Z</time></trkpt><trkpt lat="40.28865142825032" lon="19.895829548983944"><ele>1085.0</ele><time>2026-04-27T13:55:58.001Z</time></trkpt><trkpt lat="40.288592986533054" lon="19.895879146935414"><ele>1085.0</ele><time>2026-04-27T13:55:59.001Z</time></trkpt><trkpt lat="40.288524294981926" lon="19.895904515915525"><ele>1085.0</ele><time>2026-04-27T13:56:00.001Z</time></trkpt><trkpt lat="40.288441348704616" lon="19.895903838983877"><ele>1085.0</ele><time>2026-04-27T13:56:01.001Z</time></trkpt><trkpt lat="40.28836423598106" lon="19.895877994344374"><ele>1085.0</ele><time>2026-04-27T13:56:02.001Z</time></trkpt><trkpt lat="40.288311681428546" lon="19.895810084478107"><ele>1085.0</ele><time>2026-04-27T13:56:03.001Z</time></trkpt><trkpt lat="40.28827532174942" lon="19.895713613645775"><ele>1085.0</ele><time>2026-04-27T13:56:04.001Z</time></trkpt><trkpt lat="40.28823920430919" lon="19.895610109806942"><ele>1085.0</ele><time>2026-04-27T13:56:05.001Z</time></trkpt><trkpt lat="40.28820601453263" lon="19.895524856599085"><ele>1085.0</ele><time>2026-04-27T13:56:06.001Z</time></trkpt><trkpt lat="40.28817133343627" lon="19.89540898319318"><ele>1085.0</ele><time>2026-04-27T13:56:07.001Z</time></trkpt><trkpt lat="40.28810170834495" lon="19.89533122518853"><ele>1085.0</ele><time>2026-04-27T13:56:08.001Z</time></trkpt><trkpt lat="40.288004040650186" lon="19.895259888696135"><ele>1085.0</ele><time>2026-04-27T13:56:09.001Z</time></trkpt><trkpt lat="40.287915367781736" lon="19.895210279435556"><ele>1084.1666666666667</ele><time>2026-04-27T13:56:10.001Z</time></trkpt><trkpt lat="40.28783530623738" lon="19.895172096071658"><ele>1083.3333333333335</ele><time>2026-04-27T13:56:11.001Z</time></trkpt><trkpt lat="40.28776177783347" lon="19.89518322625369"><ele>1082.5</ele><time>2026-04-27T13:56:12.001Z</time></trkpt><trkpt lat="40.28770875594208" lon="19.895246014592"><ele>1081.6666666666667</ele><time>2026-04-27T13:56:13.001Z</time></trkpt><trkpt lat="40.28766208399059" lon="19.895345460043593"><ele>1080.8333333333333</ele><time>2026-04-27T13:56:14.001Z</time></trkpt><trkpt lat="40.287610448683324" lon="19.89548938107679"><ele>1080.0</ele><time>2026-04-27T13:56:15.001Z</time></trkpt><trkpt lat="40.28754759227588" lon="19.89563040186564"><ele>1080.0</ele><time>2026-04-27T13:56:16.001Z</time></trkpt><trkpt lat="40.2874803135618" lon="19.895671544301006"><ele>1080.0</ele><time>2026-04-27T13:56:17.001Z</time></trkpt><trkpt lat="40.287400862020554" lon="19.895650808860783"><ele>1080.0</ele><time>2026-04-27T13:56:18.001Z</time></trkpt><trkpt lat="40.28733723248156" lon="19.89557253080389"><ele>1080.0</ele><time>2026-04-27T13:56:19.001Z</time></trkpt><trkpt lat="40.28727070915919" lon="19.895448587763923"><ele>1080.0</ele><time>2026-04-27T13:56:20.001Z</time></trkpt><trkpt lat="40.28718028258157" lon="19.895287068769374"><ele>1079.6</ele><time>2026-04-27T13:56:21.001Z</time></trkpt><trkpt lat="40.28707533187192" lon="19.895140985058784"><ele>1079.2</ele><time>2026-04-27T13:56:22.001Z</time></trkpt><trkpt lat="40.28699693900221" lon="19.895044057447954"><ele>1078.8</ele><time>2026-04-27T13:56:23.001Z</time></trkpt><trkpt lat="40.28693230858107" lon="19.894985539396224"><ele>1078.4</ele><time>2026-04-27T13:56:24.001Z</time></trkpt><trkpt lat="40.2868559160157" lon="19.894979755586235"><ele>1078.0</ele><time>2026-04-27T13:56:25.001Z</time></trkpt><trkpt lat="40.2867760645654" lon="19.895043158834742"><ele>1078.0</ele><time>2026-04-27T13:56:26.001Z</time></trkpt><trkpt lat="40.286676945781714" lon="19.895148722269656"><ele>1078.0</ele><time>2026-04-27T13:56:27.001Z</time></trkpt><trkpt lat="40.28654379553864" lon="19.89526456622201"><ele>1078.0</ele><time>2026-04-27T13:56:28.001Z</time></trkpt><trkpt lat="40.28641321977478" lon="19.895306605689466"><ele>1078.0</ele><time>2026-04-27T13:56:29.001Z</time></trkpt><trkpt lat="40.28624039702838" lon="19.89528620461426"><ele>1078.0</ele><time>2026-04-27T13:56:30.001Z</time></trkpt><trkpt lat="40.28605487036084" lon="19.895237892395432"><ele>1078.0</ele><time>2026-04-27T13:56:31.001Z</time></trkpt><trkpt lat="40.28586230218649" lon="19.895207907278845"><ele>1078.0</ele><time>2026-04-27T13:56:32.001Z</time></trkpt><trkpt lat="40.285666146650904" lon="19.89523389448675"><ele>1078.3333333333333</ele><time>2026-04-27T13:56:33.001Z</time></trkpt><trkpt lat="40.28547912199323" lon="19.89525966251262"><ele>1078.6666666666667</ele><time>2026-04-27T13:56:34.001Z</time></trkpt><trkpt lat="40.28531760615345" lon="19.89525520336663"><ele>1079.0</ele><time>2026-04-27T13:56:35.001Z</time></trkpt><trkpt lat="40.285154796264436" lon="19.895310528902296"><ele>1079.0</ele><time>2026-04-27T13:56:36.001Z</time></trkpt><trkpt lat="40.28497143462295" lon="19.895422745929967"><ele>1079.0</ele><time>2026-04-27T13:56:37.001Z</time></trkpt><trkpt lat="40.28480816683042" lon="19.89551785497129"><ele>1079.0</ele><time>2026-04-27T13:56:38.001Z</time></trkpt><trkpt lat="40.28465936655282" lon="19.89556337344907"><ele>1080.5</ele><time>2026-04-27T13:56:39.001Z</time></trkpt><trkpt lat="40.28451606535982" lon="19.895556209596954"><ele>1082.0</ele><time>2026-04-27T13:56:40.001Z</time></trkpt><trkpt lat="40.28438229714466" lon="19.895523112277086"><ele>1083.5</ele><time>2026-04-27T13:56:41.001Z</time></trkpt><trkpt lat="40.28427196764502" lon="19.89554030159982"><ele>1085.0</ele><time>2026-04-27T13:56:42.001Z</time></trkpt><trkpt lat="40.28417378738418" lon="19.89561146981007"><ele>1085.0</ele><time>2026-04-27T13:56:43.001Z</time></trkpt><trkpt lat="40.28407668512344" lon="19.895688565134254"><ele>1085.0</ele><time>2026-04-27T13:56:44.001Z</time></trkpt><trkpt lat="40.28398832079918" lon="19.895736765574124"><ele>1085.0</ele><time>2026-04-27T13:56:45.001Z</time></trkpt><trkpt lat="40.283889173856956" lon="19.895731676449785"><ele>1085.0</ele><time>2026-04-27T13:56:46.001Z</time></trkpt><trkpt lat="40.283762852722376" lon="19.895655818055392"><ele>1085.0</ele><time>2026-04-27T13:56:47.001Z</time></trkpt><trkpt lat="40.283610445768005" lon="19.89553569385413"><ele>1080.6666666666667</ele><time>2026-04-27T13:56:48.001Z</time></trkpt><trkpt lat="40.28344424358297" lon="19.895429076673704"><ele>1076.3333333333333</ele><time>2026-04-27T13:56:49.001Z</time></trkpt><trkpt lat="40.28327596488899" lon="19.895401459816153"><ele>1072.0</ele><time>2026-04-27T13:56:50.001Z</time></trkpt><trkpt lat="40.28311366329415" lon="19.895416010570585"><ele>1071.0</ele><time>2026-04-27T13:56:51.001Z</time></trkpt><trkpt lat="40.28297348705518" lon="19.895393008836166"><ele>1070.0</ele><time>2026-04-27T13:56:52.001Z</time></trkpt><trkpt lat="40.282882342478715" lon="19.895299076340617"><ele>1069.0</ele><time>2026-04-27T13:56:53.001Z</time></trkpt><trkpt lat="40.2828135063196" lon="19.89520011642536"><ele>1068.0</ele><time>2026-04-27T13:56:54.001Z</time></trkpt><trkpt lat="40.28272896731853" lon="19.895175240759723"><ele>1067.0</ele><time>2026-04-27T13:56:55.001Z</time></trkpt><trkpt lat="40.28262949156936" lon="19.895218374956073"><ele>1067.0</ele><time>2026-04-27T13:56:56.001Z</time></trkpt><trkpt lat="40.28252096215498" lon="19.895308259946102"><ele>1067.0</ele><time>2026-04-27T13:56:57.001Z</time></trkpt><trkpt lat="40.28242503033352" lon="19.895346782392153"><ele>1067.0</ele><time>2026-04-27T13:56:58.001Z</time></trkpt><trkpt lat="40.28232525410423" lon="19.895289043062956"><ele>1067.0</ele><time>2026-04-27T13:56:59.001Z</time></trkpt><trkpt lat="40.28221135760517" lon="19.895169630702252"><ele>1066.6</ele><time>2026-04-27T13:57:00.001Z</time></trkpt><trkpt lat="40.282100213635445" lon="19.895045220448498"><ele>1066.2</ele><time>2026-04-27T13:57:01.001Z</time></trkpt><trkpt lat="40.28202453593626" lon="19.894988011629913"><ele>1065.8</ele><time>2026-04-27T13:57:02.001Z</time></trkpt><trkpt lat="40.281949338544294" lon="19.895007848815954"><ele>1065.4</ele><time>2026-04-27T13:57:03.001Z</time></trkpt><trkpt lat="40.28186927669195" lon="19.895099627183466"><ele>1065.0</ele><time>2026-04-27T13:57:04.001Z</time></trkpt><trkpt lat="40.28178078166884" lon="19.89524846835791"><ele>1065.0</ele><time>2026-04-27T13:57:05.001Z</time></trkpt><trkpt lat="40.28167867362736" lon="19.895373566842558"><ele>1065.0</ele><time>2026-04-27T13:57:06.001Z</time></trkpt><trkpt lat="40.28158289316268" lon="19.89542624483386"><ele>1065.0</ele><time>2026-04-27T13:57:07.001Z</time></trkpt><trkpt lat="40.281506288029796" lon="19.895416911337577"><ele>1065.0</ele><time>2026-04-27T13:57:08.001Z</time></trkpt><trkpt lat="40.28144808396887" lon="19.895350060138718"><ele>1065.0</ele><time>2026-04-27T13:57:09.001Z</time></trkpt><trkpt lat="40.281432499779406" lon="19.89520455242041"><ele>1065.2</ele><time>2026-04-27T13:57:10.001Z</time></trkpt><trkpt lat="40.281387678793344" lon="19.895135535254912"><ele>1065.4</ele><time>2026-04-27T13:57:11.001Z</time></trkpt><trkpt lat="40.281279657090096" lon="19.895148477173684"><ele>1065.6</ele><time>2026-04-27T13:57:12.001Z</time></trkpt><trkpt lat="40.281214052215226" lon="19.89526295790052"><ele>1065.8</ele><time>2026-04-27T13:57:13.001Z</time></trkpt><trkpt lat="40.28123071257151" lon="19.895446484631357"><ele>1066.0</ele><time>2026-04-27T13:57:14.001Z</time></trkpt><trkpt lat="40.281210747332686" lon="19.895582788390445"><ele>1066.0</ele><time>2026-04-27T13:57:15.001Z</time></trkpt><trkpt lat="40.28116303661914" lon="19.895645500356153"><ele>1066.0</ele><time>2026-04-27T13:57:16.001Z</time></trkpt><trkpt lat="40.28106776564344" lon="19.89550524931389"><ele>1066.0</ele><time>2026-04-27T13:57:18.001Z</time></trkpt><trkpt lat="40.281031391493045" lon="19.895406500792745"><ele>1066.0</ele><time>2026-04-27T13:57:19.001Z</time></trkpt><trkpt lat="40.28099395771544" lon="19.895324264737333"><ele>1066.0</ele><time>2026-04-27T13:57:20.001Z</time></trkpt><trkpt lat="40.28094104855937" lon="19.895258598180163"><ele>1066.0</ele><time>2026-04-27T13:57:21.001Z</time></trkpt><trkpt lat="40.280789172119256" lon="19.89533444133045"><ele>1066.0</ele><time>2026-04-27T13:57:22.001Z</time></trkpt><trkpt lat="40.28072560938217" lon="19.895560922935122"><ele>1066.0</ele><time>2026-04-27T13:57:23.001Z</time></trkpt><trkpt lat="40.2806066465279" lon="19.895668831488045"><ele>1066.0</ele><time>2026-04-27T13:57:24.001Z</time></trkpt><trkpt lat="40.28044817870743" lon="19.895715519439424"><ele>1068.3333333333333</ele><time>2026-04-27T13:57:25.001Z</time></trkpt><trkpt lat="40.280283872949234" lon="19.89579484032124"><ele>1070.6666666666667</ele><time>2026-04-27T13:57:26.001Z</time></trkpt><trkpt lat="40.280145780286134" lon="19.895873620340385"><ele>1073.0</ele><time>2026-04-27T13:57:27.001Z</time></trkpt><trkpt lat="40.280033458638954" lon="19.895943687841616"><ele>1072.5</ele><time>2026-04-27T13:57:28.001Z</time></trkpt><trkpt lat="40.27991254705776" lon="19.895976999600233"><ele>1072.0</ele><time>2026-04-27T13:57:29.001Z</time></trkpt><trkpt lat="40.27977925826873" lon="19.895980007773453"><ele>1071.5</ele><time>2026-04-27T13:57:30.001Z</time></trkpt><trkpt lat="40.279656793326204" lon="19.895958106171054"><ele>1071.0</ele><time>2026-04-27T13:57:31.001Z</time></trkpt><trkpt lat="40.27956497901955" lon="19.895904299028086"><ele>1071.0</ele><time>2026-04-27T13:57:32.001Z</time></trkpt><trkpt lat="40.27953252150807" lon="19.895768597122334"><ele>1071.0</ele><time>2026-04-27T13:57:33.001Z</time></trkpt><trkpt lat="40.279496584322075" lon="19.895637784253953"><ele>1071.0</ele><time>2026-04-27T13:57:34.001Z</time></trkpt><trkpt lat="40.27946035608449" lon="19.895531481380747"><ele>1071.0</ele><time>2026-04-27T13:57:35.001Z</time></trkpt><trkpt lat="40.27941039992138" lon="19.895447667127502"><ele>1071.0</ele><time>2026-04-27T13:57:36.001Z</time></trkpt><trkpt lat="40.27929376015858" lon="19.89540795634091"><ele>1071.0</ele><time>2026-04-27T13:57:37.001Z</time></trkpt><trkpt lat="40.27916797564121" lon="19.89564446100562"><ele>1071.0</ele><time>2026-04-27T13:57:38.001Z</time></trkpt><trkpt lat="40.2790797173632" lon="19.895732387779024"><ele>1071.0</ele><time>2026-04-27T13:57:39.001Z</time></trkpt><trkpt lat="40.2789559636244" lon="19.895776294201234"><ele>1069.25</ele><time>2026-04-27T13:57:40.001Z</time></trkpt><trkpt lat="40.27882835619929" lon="19.895770327810546"><ele>1067.5</ele><time>2026-04-27T13:57:41.001Z</time></trkpt><trkpt lat="40.278685619370705" lon="19.89575936853704"><ele>1065.75</ele><time>2026-04-27T13:57:42.001Z</time></trkpt><trkpt lat="40.278533629965075" lon="19.895649445849614"><ele>1064.0</ele><time>2026-04-27T13:57:43.001Z</time></trkpt><trkpt lat="40.2783383425655" lon="19.89555453766025"><ele>1064.0</ele><time>2026-04-27T13:57:44.001Z</time></trkpt><trkpt lat="40.27816376065493" lon="19.895454541235907"><ele>1064.0</ele><time>2026-04-27T13:57:45.001Z</time></trkpt><trkpt lat="40.27804100108833" lon="19.895346704707507"><ele>1064.0</ele><time>2026-04-27T13:57:46.001Z</time></trkpt><trkpt lat="40.27792894324353" lon="19.895236407778146"><ele>1064.0</ele><time>2026-04-27T13:57:47.001Z</time></trkpt><trkpt lat="40.27775974549557" lon="19.89517702779133"><ele>1064.0</ele><time>2026-04-27T13:57:48.001Z</time></trkpt><trkpt lat="40.27756128102381" lon="19.895290360425854"><ele>1064.0</ele><time>2026-04-27T13:57:49.001Z</time></trkpt><trkpt lat="40.27740992294867" lon="19.89534378392783"><ele>1064.0</ele><time>2026-04-27T13:57:50.001Z</time></trkpt><trkpt lat="40.27729171899696" lon="19.89547580039545"><ele>1064.0</ele><time>2026-04-27T13:57:51.001Z</time></trkpt><trkpt lat="40.27718738453264" lon="19.895541847611476"><ele>1064.0</ele><time>2026-04-27T13:57:52.001Z</time></trkpt><trkpt lat="40.27709231240575" lon="19.8955430465305"><ele>1064.0</ele><time>2026-04-27T13:57:53.001Z</time></trkpt><trkpt lat="40.2770810336016" lon="19.895325212285115"><ele>1063.8</ele><time>2026-04-27T13:57:54.001Z</time></trkpt><trkpt lat="40.2770167208285" lon="19.89531240673349"><ele>1063.6000000000001</ele><time>2026-04-27T13:57:55.001Z</time></trkpt><trkpt lat="40.27696590685741" lon="19.895216466673663"><ele>1063.4</ele><time>2026-04-27T13:57:56.001Z</time></trkpt><trkpt lat="40.276837489563704" lon="19.895228803870275"><ele>1063.2</ele><time>2026-04-27T13:57:57.001Z</time></trkpt><trkpt lat="40.27672468670378" lon="19.895327009362635"><ele>1063.0</ele><time>2026-04-27T13:57:58.001Z</time></trkpt><trkpt lat="40.27657363641717" lon="19.895383694081666"><ele>1059.6666666666665</ele><time>2026-04-27T13:57:59.001Z</time></trkpt><trkpt lat="40.27638778585877" lon="19.895419894133237"><ele>1056.3333333333333</ele><time>2026-04-27T13:58:00.001Z</time></trkpt><trkpt lat="40.27623086872801" lon="19.895435657874046"><ele>1053.0</ele><time>2026-04-27T13:58:01.001Z</time></trkpt><trkpt lat="40.276079618976944" lon="19.895428121304455"><ele>1053.0</ele><time>2026-04-27T13:58:02.001Z</time></trkpt><trkpt lat="40.2758926475154" lon="19.89539017746739"><ele>1053.0</ele><time>2026-04-27T13:58:03.001Z</time></trkpt><trkpt lat="40.27572347116579" lon="19.895332868555634"><ele>1053.0</ele><time>2026-04-27T13:58:04.001Z</time></trkpt><trkpt lat="40.27561084682858" lon="19.895290461949404"><ele>1051.25</ele><time>2026-04-27T13:58:05.001Z</time></trkpt><trkpt lat="40.27551516776062" lon="19.89525836775027"><ele>1049.5</ele><time>2026-04-27T13:58:06.001Z</time></trkpt><trkpt lat="40.2754722195265" lon="19.895091178474654"><ele>1047.75</ele><time>2026-04-27T13:58:07.001Z</time></trkpt><trkpt lat="40.275390290528335" lon="19.89496130538668"><ele>1046.0</ele><time>2026-04-27T13:58:08.001Z</time></trkpt><trkpt lat="40.27530229147422" lon="19.894855473838092"><ele>1051.5</ele><time>2026-04-27T13:58:09.001Z</time></trkpt><trkpt lat="40.275230067460086" lon="19.894803381580832"><ele>1057.0</ele><time>2026-04-27T13:58:10.001Z</time></trkpt><trkpt lat="40.27509353014642" lon="19.894868106597098"><ele>1062.5</ele><time>2026-04-27T13:58:11.001Z</time></trkpt><trkpt lat="40.27502913741654" lon="19.895033016884526"><ele>1068.0</ele><time>2026-04-27T13:58:12.001Z</time></trkpt><trkpt lat="40.274950577582594" lon="19.895079067513773"><ele>1068.0</ele><time>2026-04-27T13:58:13.001Z</time></trkpt><trkpt lat="40.27487201574222" lon="19.89502491516696"><ele>1068.0</ele><time>2026-04-27T13:58:14.001Z</time></trkpt><trkpt lat="40.27477781369677" lon="19.894930283144006"><ele>1068.0</ele><time>2026-04-27T13:58:15.001Z</time></trkpt><trkpt lat="40.27465571554052" lon="19.89480005619402"><ele>1068.0</ele><time>2026-04-27T13:58:16.001Z</time></trkpt><trkpt lat="40.27453273420216" lon="19.894698668951648"><ele>1065.75</ele><time>2026-04-27T13:58:17.001Z</time></trkpt><trkpt lat="40.274461355910525" lon="19.894584465158786"><ele>1063.5</ele><time>2026-04-27T13:58:18.001Z</time></trkpt><trkpt lat="40.27437717903711" lon="19.89446747769309"><ele>1061.25</ele><time>2026-04-27T13:58:19Z</time></trkpt><trkpt lat="40.27427738920357" lon="19.894358375083726"><ele>1059.0</ele><time>2026-04-27T13:58:20Z</time></trkpt><trkpt lat="40.27414787641955" lon="19.8943019718375"><ele>1062.1666666666667</ele><time>2026-04-27T13:58:21Z</time></trkpt><trkpt lat="40.27405603600273" lon="19.89424670369026"><ele>1065.3333333333333</ele><time>2026-04-27T13:58:22Z</time></trkpt><trkpt lat="40.27400562287248" lon="19.894178359061467"><ele>1068.5</ele><time>2026-04-27T13:58:23Z</time></trkpt><trkpt lat="40.27403294618786" lon="19.89403726153893"><ele>1071.6666666666665</ele><time>2026-04-27T13:58:25Z</time></trkpt><trkpt lat="40.274087955584484" lon="19.893976004023404"><ele>1074.8333333333333</ele><time>2026-04-27T13:58:26Z</time></trkpt><trkpt lat="40.274135708217635" lon="19.89388736998754"><ele>1078.0</ele><time>2026-04-27T13:58:27Z</time></trkpt><trkpt lat="40.27410811395216" lon="19.89373221686299"><ele>1078.0</ele><time>2026-04-27T13:58:29Z</time></trkpt><trkpt lat="40.274035838149395" lon="19.89366438565219"><ele>1078.0</ele><time>2026-04-27T13:58:30Z</time></trkpt><trkpt lat="40.27391388688522" lon="19.893654999559853"><ele>1078.0</ele><time>2026-04-27T13:58:31Z</time></trkpt><trkpt lat="40.27383077019147" lon="19.893637671942617"><ele>1078.0</ele><time>2026-04-27T13:58:32Z</time></trkpt><trkpt lat="40.27377066775215" lon="19.893599201801333"><ele>1078.0</ele><time>2026-04-27T13:58:33Z</time></trkpt><trkpt lat="40.27372509896563" lon="19.893421034442763"><ele>1081.2</ele><time>2026-04-27T13:58:35Z</time></trkpt><trkpt lat="40.273681988587015" lon="19.893304989559045"><ele>1084.4</ele><time>2026-04-27T13:58:36Z</time></trkpt><trkpt lat="40.27363738295974" lon="19.89322050979866"><ele>1087.6000000000001</ele><time>2026-04-27T13:58:37Z</time></trkpt><trkpt lat="40.273589278641516" lon="19.89313851740311"><ele>1090.8</ele><time>2026-04-27T13:58:38Z</time></trkpt><trkpt lat="40.273459345774235" lon="19.893124924260203"><ele>1094.0</ele><time>2026-04-27T13:58:39Z</time></trkpt><trkpt lat="40.27337973689774" lon="19.893224821661022"><ele>1088.8</ele><time>2026-04-27T13:58:40Z</time></trkpt><trkpt lat="40.27334825953094" lon="19.893429387201316"><ele>1083.6000000000001</ele><time>2026-04-27T13:58:41Z</time></trkpt><trkpt lat="40.27332588925176" lon="19.893569659511964"><ele>1078.4</ele><time>2026-04-27T13:58:42Z</time></trkpt><trkpt lat="40.273281798764856" lon="19.893667622786495"><ele>1073.2</ele><time>2026-04-27T13:58:43Z</time></trkpt><trkpt lat="40.27324152510726" lon="19.893735230953776"><ele>1068.0</ele><time>2026-04-27T13:58:44Z</time></trkpt><trkpt lat="40.27317530328232" lon="19.893774745436964"><ele>1067.6666666666667</ele><time>2026-04-27T13:58:45Z</time></trkpt><trkpt lat="40.27309914569636" lon="19.893807010385014"><ele>1067.3333333333333</ele><time>2026-04-27T13:58:46Z</time></trkpt><trkpt lat="40.27301893102123" lon="19.893827302340135"><ele>1067.0</ele><time>2026-04-27T13:58:47Z</time></trkpt><trkpt lat="40.27293550597779" lon="19.893827174826743"><ele>1066.6666666666665</ele><time>2026-04-27T13:58:48Z</time></trkpt><trkpt lat="40.27285648786689" lon="19.89379207618993"><ele>1066.3333333333333</ele><time>2026-04-27T13:58:49Z</time></trkpt><trkpt lat="40.272816468127395" lon="19.893694702558513"><ele>1066.0</ele><time>2026-04-27T13:58:50Z</time></trkpt><trkpt lat="40.27277460398301" lon="19.89358922603904"><ele>1066.0</ele><time>2026-04-27T13:58:51Z</time></trkpt><trkpt lat="40.27271970532995" lon="19.89346102066991"><ele>1066.0</ele><time>2026-04-27T13:58:52Z</time></trkpt><trkpt lat="40.2726655724444" lon="19.893331067972756"><ele>1066.0</ele><time>2026-04-27T13:58:53Z</time></trkpt><trkpt lat="40.27253818126613" lon="19.893261132425135"><ele>1066.0</ele><time>2026-04-27T13:58:54Z</time></trkpt><trkpt lat="40.27245193111554" lon="19.893163910536558"><ele>1070.3999999999999</ele><time>2026-04-27T13:58:55Z</time></trkpt><trkpt lat="40.27239849908508" lon="19.89302124527451"><ele>1074.8</ele><time>2026-04-27T13:58:56Z</time></trkpt><trkpt lat="40.27233588783489" lon="19.892949969175262"><ele>1079.1999999999998</ele><time>2026-04-27T13:58:57Z</time></trkpt><trkpt lat="40.27226819120459" lon="19.892887137039658"><ele>1083.6</ele><time>2026-04-27T13:58:58Z</time></trkpt><trkpt lat="40.27217244729424" lon="19.892859049615833"><ele>1088.0</ele><time>2026-04-27T13:58:59Z</time></trkpt><trkpt lat="40.272061973731624" lon="19.892989257657646"><ele>1088.2</ele><time>2026-04-27T13:59:00Z</time></trkpt><trkpt lat="40.27196653484447" lon="19.89303994210793"><ele>1088.4</ele><time>2026-04-27T13:59:01Z</time></trkpt><trkpt lat="40.27186404535037" lon="19.893101947362638"><ele>1088.6000000000001</ele><time>2026-04-27T13:59:02Z</time></trkpt><trkpt lat="40.27176991915455" lon="19.89313815449262"><ele>1088.8</ele><time>2026-04-27T13:59:03Z</time></trkpt><trkpt lat="40.2716964429915" lon="19.89311787126228"><ele>1089.0</ele><time>2026-04-27T13:59:04Z</time></trkpt><trkpt lat="40.27163090944089" lon="19.893046662309057"><ele>1089.0</ele><time>2026-04-27T13:59:05Z</time></trkpt><trkpt lat="40.271565575914" lon="19.89294334385987"><ele>1089.0</ele><time>2026-04-27T13:59:06Z</time></trkpt><trkpt lat="40.27151733289175" lon="19.89281097082985"><ele>1089.0</ele><time>2026-04-27T13:59:07Z</time></trkpt><trkpt lat="40.271463824393535" lon="19.892682517693938"><ele>1089.0</ele><time>2026-04-27T13:59:08Z</time></trkpt><trkpt lat="40.271511656298465" lon="19.89258149108077"><ele>1089.0</ele><time>2026-04-27T13:59:09Z</time></trkpt><trkpt lat="40.271515489350335" lon="19.89244842690221"><ele>1088.4</ele><time>2026-04-27T13:59:10Z</time></trkpt><trkpt lat="40.271515932984315" lon="19.892297336651435"><ele>1087.8000000000002</ele><time>2026-04-27T13:59:11Z</time></trkpt><trkpt lat="40.27150926489979" lon="19.892169891422153"><ele>1087.1999999999998</ele><time>2026-04-27T13:59:12Z</time></trkpt><trkpt lat="40.27147855521865" lon="19.89207111759307"><ele>1086.6</ele><time>2026-04-27T13:59:12.999Z</time></trkpt><trkpt lat="40.27141187554901" lon="19.89197116743611"><ele>1086.0</ele><time>2026-04-27T13:59:13.999Z</time></trkpt><trkpt lat="40.2713186481927" lon="19.891884224442986"><ele>1086.0</ele><time>2026-04-27T13:59:14.999Z</time></trkpt><trkpt lat="40.271237939567094" lon="19.89178630020269"><ele>1086.0</ele><time>2026-04-27T13:59:15.999Z</time></trkpt><trkpt lat="40.27117382101192" lon="19.89167365446234"><ele>1086.0</ele><time>2026-04-27T13:59:16.999Z</time></trkpt><trkpt lat="40.27115170648735" lon="19.89156575890414"><ele>1086.0</ele><time>2026-04-27T13:59:17.999Z</time></trkpt><trkpt lat="40.271153084916826" lon="19.891452554047433"><ele>1086.0</ele><time>2026-04-27T13:59:18.999Z</time></trkpt><trkpt lat="40.27115540449538" lon="19.891326969965135"><ele>1091.3999999999999</ele><time>2026-04-27T13:59:19.999Z</time></trkpt><trkpt lat="40.27115656446655" lon="19.891218049392105"><ele>1096.8</ele><time>2026-04-27T13:59:20.999Z</time></trkpt><trkpt lat="40.27110247704142" lon="19.89110418266486"><ele>1102.1999999999998</ele><time>2026-04-27T13:59:21.999Z</time></trkpt><trkpt lat="40.27099788959878" lon="19.891024811772567"><ele>1107.6</ele><time>2026-04-27T13:59:22.999Z</time></trkpt><trkpt lat="40.2708862750139" lon="19.890947316236993"><ele>1113.0</ele><time>2026-04-27T13:59:23.999Z</time></trkpt><trkpt lat="40.27075358931647" lon="19.890836809991647"><ele>1112.0</ele><time>2026-04-27T13:59:24.999Z</time></trkpt><trkpt lat="40.27059260796992" lon="19.890815988680437"><ele>1111.0</ele><time>2026-04-27T13:59:25.999Z</time></trkpt><trkpt lat="40.270463556748275" lon="19.890794323154452"><ele>1110.0</ele><time>2026-04-27T13:59:26.999Z</time></trkpt><trkpt lat="40.27033724871556" lon="19.890762828167375"><ele>1109.0</ele><time>2026-04-27T13:59:27.999Z</time></trkpt><trkpt lat="40.27024610334062" lon="19.890687412150285"><ele>1109.0</ele><time>2026-04-27T13:59:28.999Z</time></trkpt><trkpt lat="40.27020027484776" lon="19.890535272152437"><ele>1109.0</ele><time>2026-04-27T13:59:29.999Z</time></trkpt><trkpt lat="40.27012795448889" lon="19.890357693838165"><ele>1109.0</ele><time>2026-04-27T13:59:30.999Z</time></trkpt><trkpt lat="40.27004273090904" lon="19.890145341950213"><ele>1117.6666666666667</ele><time>2026-04-27T13:59:31.999Z</time></trkpt><trkpt lat="40.269969015128666" lon="19.88989994999005"><ele>1126.3333333333333</ele><time>2026-04-27T13:59:32.999Z</time></trkpt><trkpt lat="40.26990372599688" lon="19.88963294511579"><ele>1135.0</ele><time>2026-04-27T13:59:33.999Z</time></trkpt><trkpt lat="40.26985488678348" lon="19.889366901812476"><ele>1132.25</ele><time>2026-04-27T13:59:34.999Z</time></trkpt><trkpt lat="40.26981304031513" lon="19.88914500298487"><ele>1129.5</ele><time>2026-04-27T13:59:35.999Z</time></trkpt><trkpt lat="40.26977750179754" lon="19.888962831563923"><ele>1126.75</ele><time>2026-04-27T13:59:36.999Z</time></trkpt><trkpt lat="40.269730448778574" lon="19.88880456772207"><ele>1124.0</ele><time>2026-04-27T13:59:37.999Z</time></trkpt><trkpt lat="40.26970806149321" lon="19.888666326766174"><ele>1124.0</ele><time>2026-04-27T13:59:38.999Z</time></trkpt><trkpt lat="40.26968968209687" lon="19.888529096970615"><ele>1124.0</ele><time>2026-04-27T13:59:39.999Z</time></trkpt><trkpt lat="40.26968137292218" lon="19.88838882010921"><ele>1124.0</ele><time>2026-04-27T13:59:40.999Z</time></trkpt><trkpt lat="40.26967977840456" lon="19.88826422618117"><ele>1124.0</ele><time>2026-04-27T13:59:41.999Z</time></trkpt><trkpt lat="40.26967139538952" lon="19.888171062018884"><ele>1124.0</ele><time>2026-04-27T13:59:42.999Z</time></trkpt><trkpt lat="40.26965782486069" lon="19.88802130760399"><ele>1129.0</ele><time>2026-04-27T13:59:44.999Z</time></trkpt><trkpt lat="40.269605682594026" lon="19.887892491450657"><ele>1134.0</ele><time>2026-04-27T13:59:45.999Z</time></trkpt><trkpt lat="40.2695369611851" lon="19.88784098880223"><ele>1139.0</ele><time>2026-04-27T13:59:46.999Z</time></trkpt><trkpt lat="40.26940478487005" lon="19.88782215299034"><ele>1144.0</ele><time>2026-04-27T13:59:47.999Z</time></trkpt><trkpt lat="40.26929868695859" lon="19.887884425844813"><ele>1149.0</ele><time>2026-04-27T13:59:48.999Z</time></trkpt><trkpt lat="40.269226514312415" lon="19.887914666398412"><ele>1149.0</ele><time>2026-04-27T13:59:49.999Z</time></trkpt><trkpt lat="40.26913138635687" lon="19.887935052661508"><ele>1149.0</ele><time>2026-04-27T13:59:50.999Z</time></trkpt><trkpt lat="40.269025184337565" lon="19.887959056376175"><ele>1149.0</ele><time>2026-04-27T13:59:51.999Z</time></trkpt><trkpt lat="40.268909858328115" lon="19.887984853761356"><ele>1149.0</ele><time>2026-04-27T13:59:52.999Z</time></trkpt><trkpt lat="40.26880351573741" lon="19.888009921815886"><ele>1149.0</ele><time>2026-04-27T13:59:53.999Z</time></trkpt><trkpt lat="40.26870572621285" lon="19.88803386232921"><ele>1145.4</ele><time>2026-04-27T13:59:54.999Z</time></trkpt><trkpt lat="40.2686005800622" lon="19.88807102603112"><ele>1141.8000000000002</ele><time>2026-04-27T13:59:55.999Z</time></trkpt><trkpt lat="40.26849540571955" lon="19.888079456645315"><ele>1138.1999999999998</ele><time>2026-04-27T13:59:56.999Z</time></trkpt><trkpt lat="40.26840235207825" lon="19.88809403749969"><ele>1134.6</ele><time>2026-04-27T13:59:57.999Z</time></trkpt><trkpt lat="40.268314321495176" lon="19.888108940346953"><ele>1131.0</ele><time>2026-04-27T13:59:58.999Z</time></trkpt><trkpt lat="40.26822173793764" lon="19.888115624731892"><ele>1131.0</ele><time>2026-04-27T13:59:59.999Z</time></trkpt><trkpt lat="40.26811542567462" lon="19.88811400764542"><ele>1131.0</ele><time>2026-04-27T14:00:00.999Z</time></trkpt><trkpt lat="40.267995669072015" lon="19.888121724990256"><ele>1131.0</ele><time>2026-04-27T14:00:01.999Z</time></trkpt><trkpt lat="40.267868980587124" lon="19.888148312762546"><ele>1131.0</ele><time>2026-04-27T14:00:02.999Z</time></trkpt><trkpt lat="40.267759348113806" lon="19.888186304108483"><ele>1128.6</ele><time>2026-04-27T14:00:03.999Z</time></trkpt><trkpt lat="40.267652857174" lon="19.888216656595738"><ele>1126.1999999999998</ele><time>2026-04-27T14:00:04.999Z</time></trkpt><trkpt lat="40.26755278833587" lon="19.888241441153564"><ele>1123.8000000000002</ele><time>2026-04-27T14:00:05.999Z</time></trkpt><trkpt lat="40.26745468439697" lon="19.888255361460867"><ele>1121.4</ele><time>2026-04-27T14:00:07Z</time></trkpt><trkpt lat="40.26736050506999" lon="19.888256283000665"><ele>1119.0</ele><time>2026-04-27T14:00:08Z</time></trkpt><trkpt lat="40.26728254356378" lon="19.888263044561683"><ele>1117.6000000000001</ele><time>2026-04-27T14:00:09Z</time></trkpt><trkpt lat="40.267217462492326" lon="19.888283764734965"><ele>1116.2</ele><time>2026-04-27T14:00:10Z</time></trkpt><trkpt lat="40.267176998637076" lon="19.888396591817735"><ele>1114.8000000000002</ele><time>2026-04-27T14:00:12Z</time></trkpt><trkpt lat="40.267271457215564" lon="19.888537362595624"><ele>1113.4</ele><time>2026-04-27T14:00:14Z</time></trkpt><trkpt lat="40.26736868645155" lon="19.88858541650181"><ele>1112.0</ele><time>2026-04-27T14:00:15Z</time></trkpt><trkpt lat="40.267493610199146" lon="19.888631922135055"><ele>1111.0</ele><time>2026-04-27T14:00:16Z</time></trkpt><trkpt lat="40.267601368408435" lon="19.888685863174793"><ele>1110.0</ele><time>2026-04-27T14:00:17Z</time></trkpt><trkpt lat="40.267684417282176" lon="19.888801597052566"><ele>1109.0</ele><time>2026-04-27T14:00:18Z</time></trkpt><trkpt lat="40.26775162112001" lon="19.888958392072556"><ele>1108.0</ele><time>2026-04-27T14:00:19Z</time></trkpt><trkpt lat="40.26778554811502" lon="19.889135301496136"><ele>1107.75</ele><time>2026-04-27T14:00:20Z</time></trkpt><trkpt lat="40.26779499751759" lon="19.889313180625237"><ele>1107.5</ele><time>2026-04-27T14:00:21Z</time></trkpt><trkpt lat="40.26779513682854" lon="19.889476104988717"><ele>1107.25</ele><time>2026-04-27T14:00:22Z</time></trkpt><trkpt lat="40.26779585358856" lon="19.88962128473396"><ele>1107.0</ele><time>2026-04-27T14:00:23Z</time></trkpt><trkpt lat="40.26780436337123" lon="19.88975067570686"><ele>1107.0</ele><time>2026-04-27T14:00:24Z</time></trkpt><trkpt lat="40.26784220060142" lon="19.889865000381914"><ele>1107.0</ele><time>2026-04-27T14:00:25Z</time></trkpt><trkpt lat="40.2678843901531" lon="19.88998071294932"><ele>1107.0</ele><time>2026-04-27T14:00:26Z</time></trkpt><trkpt lat="40.26797191303519" lon="19.890078057637524"><ele>1107.0</ele><time>2026-04-27T14:00:27Z</time></trkpt><trkpt lat="40.26806234455932" lon="19.890150285792668"><ele>1107.0</ele><time>2026-04-27T14:00:28Z</time></trkpt><trkpt lat="40.26810202245015" lon="19.890254784492424"><ele>1104.6</ele><time>2026-04-27T14:00:29Z</time></trkpt><trkpt lat="40.26811587124833" lon="19.89036764611044"><ele>1102.2</ele><time>2026-04-27T14:00:30Z</time></trkpt><trkpt lat="40.26809379862435" lon="19.890487322253684"><ele>1099.8</ele><time>2026-04-27T14:00:31Z</time></trkpt><trkpt lat="40.26803698975382" lon="19.89061460794624"><ele>1097.4</ele><time>2026-04-27T14:00:32Z</time></trkpt><trkpt lat="40.26795828445204" lon="19.8907438459786"><ele>1095.0</ele><time>2026-04-27T14:00:33Z</time></trkpt><trkpt lat="40.26786936093953" lon="19.890883074816927"><ele>1092.75</ele><time>2026-04-27T14:00:34Z</time></trkpt><trkpt lat="40.267798282664295" lon="19.891029376555146"><ele>1090.5</ele><time>2026-04-27T14:00:35Z</time></trkpt><trkpt lat="40.26774322321012" lon="19.891186631583572"><ele>1088.25</ele><time>2026-04-27T14:00:36Z</time></trkpt><trkpt lat="40.267705688471565" lon="19.891359956320994"><ele>1086.0</ele><time>2026-04-27T14:00:37Z</time></trkpt><trkpt lat="40.26768270245337" lon="19.891519762051498"><ele>1086.0</ele><time>2026-04-27T14:00:38Z</time></trkpt><trkpt lat="40.26765488526365" lon="19.89166348018348"><ele>1086.0</ele><time>2026-04-27T14:00:39Z</time></trkpt><trkpt lat="40.267618936793234" lon="19.8918072213064"><ele>1086.0</ele><time>2026-04-27T14:00:40Z</time></trkpt><trkpt lat="40.267568194417116" lon="19.891943907250617"><ele>1086.0</ele><time>2026-04-27T14:00:41Z</time></trkpt><trkpt lat="40.267485433557965" lon="19.892076670571097"><ele>1082.25</ele><time>2026-04-27T14:00:42Z</time></trkpt><trkpt lat="40.26738463921785" lon="19.89219641940746"><ele>1078.5</ele><time>2026-04-27T14:00:43Z</time></trkpt><trkpt lat="40.267281790248134" lon="19.892283926740156"><ele>1074.75</ele><time>2026-04-27T14:00:44Z</time></trkpt><trkpt lat="40.26718645579147" lon="19.8923462469638"><ele>1071.0</ele><time>2026-04-27T14:00:45Z</time></trkpt><trkpt lat="40.26709080943424" lon="19.892376545339193"><ele>1070.2</ele><time>2026-04-27T14:00:46Z</time></trkpt><trkpt lat="40.267010459616415" lon="19.89237781471426"><ele>1069.3999999999999</ele><time>2026-04-27T14:00:47Z</time></trkpt><trkpt lat="40.26694168082506" lon="19.892289275203595"><ele>1068.6</ele><time>2026-04-27T14:00:49Z</time></trkpt><trkpt lat="40.2669390771834" lon="19.892173231452738"><ele>1067.8</ele><time>2026-04-27T14:00:50Z</time></trkpt><trkpt lat="40.26700134417908" lon="19.89209437015708"><ele>1067.0</ele><time>2026-04-27T14:00:51Z</time></trkpt><trkpt lat="40.26703409223411" lon="19.891929095458522"><ele>1067.0</ele><time>2026-04-27T14:00:52Z</time></trkpt><trkpt lat="40.267054904518986" lon="19.891823240433407"><ele>1067.0</ele><time>2026-04-27T14:00:53Z</time></trkpt><trkpt lat="40.26702610448636" lon="19.89173829478815"><ele>1067.0</ele><time>2026-04-27T14:00:54Z</time></trkpt><trkpt lat="40.26690101368483" lon="19.891727456435028"><ele>1067.0</ele><time>2026-04-27T14:00:56Z</time></trkpt><trkpt lat="40.26683450139009" lon="19.89182580056386"><ele>1067.0</ele><time>2026-04-27T14:00:57Z</time></trkpt><trkpt lat="40.26675651835313" lon="19.89198277123586"><ele>1067.0</ele><time>2026-04-27T14:00:58Z</time></trkpt><trkpt lat="40.266655259995126" lon="19.892161059135965"><ele>1067.0</ele><time>2026-04-27T14:00:59Z</time></trkpt><trkpt lat="40.26653367814259" lon="19.89233927324618"><ele>1067.0</ele><time>2026-04-27T14:01:00Z</time></trkpt><trkpt lat="40.266419859479846" lon="19.89250623728288"><ele>1063.2</ele><time>2026-04-27T14:01:01Z</time></trkpt><trkpt lat="40.266320292004835" lon="19.89262051669528"><ele>1059.4</ele><time>2026-04-27T14:01:02Z</time></trkpt><trkpt lat="40.26621576225324" lon="19.89271427923444"><ele>1055.6</ele><time>2026-04-27T14:01:03Z</time></trkpt><trkpt lat="40.266119663573356" lon="19.89277963226901"><ele>1051.8</ele><time>2026-04-27T14:01:04Z</time></trkpt><trkpt lat="40.266055678009764" lon="19.892820010015228"><ele>1048.0</ele><time>2026-04-27T14:01:05Z</time></trkpt><trkpt lat="40.26605453833554" lon="19.89296830983713"><ele>1048.0</ele><time>2026-04-27T14:01:07Z</time></trkpt><trkpt lat="40.26610648570458" lon="19.893042178084553"><ele>1048.0</ele><time>2026-04-27T14:01:08Z</time></trkpt><trkpt lat="40.26622806181666" lon="19.893068130419632"><ele>1048.0</ele><time>2026-04-27T14:01:09Z</time></trkpt><trkpt lat="40.26635489912743" lon="19.893089870261036"><ele>1048.0</ele><time>2026-04-27T14:01:10Z</time></trkpt><trkpt lat="40.26648832113038" lon="19.89311583357582"><ele>1047.8</ele><time>2026-04-27T14:01:11Z</time></trkpt><trkpt lat="40.266594048151454" lon="19.893157141210665"><ele>1047.6</ele><time>2026-04-27T14:01:12Z</time></trkpt><trkpt lat="40.266680161457444" lon="19.89323378455755"><ele>1047.4</ele><time>2026-04-27T14:01:13Z</time></trkpt><trkpt lat="40.26673847755735" lon="19.89334148630515"><ele>1047.2</ele><time>2026-04-27T14:01:14Z</time></trkpt><trkpt lat="40.26676694527064" lon="19.893470776238676"><ele>1047.0</ele><time>2026-04-27T14:01:15Z</time></trkpt><trkpt lat="40.26675691181923" lon="19.893604177090683"><ele>1047.0</ele><time>2026-04-27T14:01:16Z</time></trkpt><trkpt lat="40.26670148587986" lon="19.893741063772428"><ele>1047.0</ele><time>2026-04-27T14:01:17Z</time></trkpt><trkpt lat="40.26660127177407" lon="19.893878345985804"><ele>1047.0</ele><time>2026-04-27T14:01:18Z</time></trkpt><trkpt lat="40.266469643842335" lon="19.894011781133607"><ele>1047.0</ele><time>2026-04-27T14:01:19Z</time></trkpt><trkpt lat="40.2663340209288" lon="19.894120593563045"><ele>1045.0</ele><time>2026-04-27T14:01:20Z</time></trkpt><trkpt lat="40.26620869980197" lon="19.894210165603333"><ele>1043.0</ele><time>2026-04-27T14:01:21Z</time></trkpt><trkpt lat="40.26607685743603" lon="19.894300713226382"><ele>1041.0</ele><time>2026-04-27T14:01:22Z</time></trkpt><trkpt lat="40.265943076471316" lon="19.89436122179586"><ele>1039.0</ele><time>2026-04-27T14:01:23Z</time></trkpt><trkpt lat="40.265787595158145" lon="19.894393986334673"><ele>1037.0</ele><time>2026-04-27T14:01:24Z</time></trkpt><trkpt lat="40.26563456085548" lon="19.894384438128572"><ele>1035.0</ele><time>2026-04-27T14:01:25Z</time></trkpt><trkpt lat="40.26549302409286" lon="19.894365390699495"><ele>1033.0</ele><time>2026-04-27T14:01:26Z</time></trkpt><trkpt lat="40.26537509450364" lon="19.894358670856985"><ele>1031.0</ele><time>2026-04-27T14:01:27Z</time></trkpt><trkpt lat="40.265290377804746" lon="19.894380694924994"><ele>1028.75</ele><time>2026-04-27T14:01:28Z</time></trkpt><trkpt lat="40.265244159434765" lon="19.894438088209466"><ele>1026.5</ele><time>2026-04-27T14:01:29Z</time></trkpt><trkpt lat="40.265237439008295" lon="19.89453119412688"><ele>1024.25</ele><time>2026-04-27T14:01:30Z</time></trkpt><trkpt lat="40.265413399446665" lon="19.8946461904053"><ele>1022.0</ele><time>2026-04-27T14:01:32Z</time></trkpt><trkpt lat="40.26556434430168" lon="19.89469202537015"><ele>1024.25</ele><time>2026-04-27T14:01:33Z</time></trkpt><trkpt lat="40.26573277069837" lon="19.89474923907272"><ele>1026.5</ele><time>2026-04-27T14:01:34Z</time></trkpt><trkpt lat="40.26584233541094" lon="19.894816507366894"><ele>1028.75</ele><time>2026-04-27T14:01:35Z</time></trkpt><trkpt lat="40.265925255394635" lon="19.894896813037327"><ele>1031.0</ele><time>2026-04-27T14:01:36Z</time></trkpt><trkpt lat="40.26596234318932" lon="19.89500888446705"><ele>1030.6</ele><time>2026-04-27T14:01:37Z</time></trkpt><trkpt lat="40.26595585306453" lon="19.895145419914773"><ele>1030.1999999999998</ele><time>2026-04-27T14:01:38Z</time></trkpt><trkpt lat="40.26591072394195" lon="19.89526737922595"><ele>1029.8000000000002</ele><time>2026-04-27T14:01:39Z</time></trkpt><trkpt lat="40.265816801854534" lon="19.89530817789172"><ele>1029.4</ele><time>2026-04-27T14:01:40Z</time></trkpt><trkpt lat="40.26573030376876" lon="19.895315242587216"><ele>1029.0</ele><time>2026-04-27T14:01:41Z</time></trkpt><trkpt lat="40.26565063825835" lon="19.895340068810818"><ele>1028.75</ele><time>2026-04-27T14:01:42Z</time></trkpt><trkpt lat="40.265575062142446" lon="19.895220823121978"><ele>1028.5</ele><time>2026-04-27T14:01:43Z</time></trkpt><trkpt lat="40.26542808247047" lon="19.895186673485288"><ele>1028.25</ele><time>2026-04-27T14:01:44Z</time></trkpt><trkpt lat="40.26526826311494" lon="19.89519840650861"><ele>1028.0</ele><time>2026-04-27T14:01:45Z</time></trkpt><trkpt lat="40.2651052941377" lon="19.895202407812526"><ele>1028.0</ele><time>2026-04-27T14:01:46Z</time></trkpt><trkpt lat="40.2649164286161" lon="19.895186650234105"><ele>1028.0</ele><time>2026-04-27T14:01:47Z</time></trkpt><trkpt lat="40.2647194412307" lon="19.895203593199465"><ele>1028.0</ele><time>2026-04-27T14:01:48Z</time></trkpt><trkpt lat="40.264538362999524" lon="19.895223263724457"><ele>1024.3333333333335</ele><time>2026-04-27T14:01:49Z</time></trkpt><trkpt lat="40.264371802765034" lon="19.89523300750941"><ele>1020.6666666666667</ele><time>2026-04-27T14:01:50Z</time></trkpt><trkpt lat="40.264218800770564" lon="19.895222797356354"><ele>1017.0</ele><time>2026-04-27T14:01:51Z</time></trkpt><trkpt lat="40.26407263415363" lon="19.895225315633663"><ele>1010.5</ele><time>2026-04-27T14:01:52Z</time></trkpt><trkpt lat="40.26394198648151" lon="19.895193415778824"><ele>1004.0</ele><time>2026-04-27T14:01:53Z</time></trkpt><trkpt lat="40.26381302457687" lon="19.895188402135194"><ele>997.5</ele><time>2026-04-27T14:01:54Z</time></trkpt><trkpt lat="40.26369890245989" lon="19.895218284333566"><ele>991.0</ele><time>2026-04-27T14:01:55Z</time></trkpt><trkpt lat="40.263609663029214" lon="19.89529184757991"><ele>991.0</ele><time>2026-04-27T14:01:56Z</time></trkpt><trkpt lat="40.26353513776976" lon="19.89538047825979"><ele>991.0</ele><time>2026-04-27T14:01:57Z</time></trkpt><trkpt lat="40.26347932354667" lon="19.895499501915843"><ele>991.0</ele><time>2026-04-27T14:01:58Z</time></trkpt><trkpt lat="40.26344060875104" lon="19.89565806315167"><ele>991.0</ele><time>2026-04-27T14:01:59Z</time></trkpt><trkpt lat="40.2634104965848" lon="19.89583516766513"><ele>990.0</ele><time>2026-04-27T14:02:00Z</time></trkpt><trkpt lat="40.263384224615955" lon="19.89599220150939"><ele>988.9999999999999</ele><time>2026-04-27T14:02:01Z</time></trkpt><trkpt lat="40.26336847150157" lon="19.89614170121688"><ele>987.9999999999999</ele><time>2026-04-27T14:02:02Z</time></trkpt><trkpt lat="40.263371546830996" lon="19.896287496194468"><ele>987.0</ele><time>2026-04-27T14:02:03Z</time></trkpt><trkpt lat="40.263391426855115" lon="19.896411901171724"><ele>986.0</ele><time>2026-04-27T14:02:04Z</time></trkpt><trkpt lat="40.26341077695731" lon="19.896493651171784"><ele>986.0</ele><time>2026-04-27T14:02:05Z</time></trkpt><trkpt lat="40.263369478455445" lon="19.896579555017333"><ele>985.9999999999999</ele><time>2026-04-27T14:02:07Z</time></trkpt><trkpt lat="40.26328712618532" lon="19.896484778947336"><ele>985.9999999999999</ele><time>2026-04-27T14:02:09Z</time></trkpt><trkpt lat="40.26326818796092" lon="19.89639223570298"><ele>986.0</ele><time>2026-04-27T14:02:10Z</time></trkpt><trkpt lat="40.26324062714421" lon="19.896280686621566"><ele>986.0</ele><time>2026-04-27T14:02:11Z</time></trkpt><trkpt lat="40.26322348870199" lon="19.896143046904548"><ele>986.0</ele><time>2026-04-27T14:02:12Z</time></trkpt><trkpt lat="40.263216461102715" lon="19.895984614968242"><ele>986.0</ele><time>2026-04-27T14:02:13.001Z</time></trkpt><trkpt lat="40.26321114789611" lon="19.895810587949075"><ele>986.0</ele><time>2026-04-27T14:02:14.001Z</time></trkpt><trkpt lat="40.26320740018483" lon="19.895647591895123"><ele>986.0</ele><time>2026-04-27T14:02:15.001Z</time></trkpt><trkpt lat="40.26320426751446" lon="19.895502571944572"><ele>986.0</ele><time>2026-04-27T14:02:16.001Z</time></trkpt><trkpt lat="40.2632012125921" lon="19.895366256422786"><ele>985.9999999999999</ele><time>2026-04-27T14:02:17.001Z</time></trkpt><trkpt lat="40.26319832183511" lon="19.89524417454645"><ele>985.9999999999999</ele><time>2026-04-27T14:02:18.001Z</time></trkpt><trkpt lat="40.263196077354856" lon="19.89514911434872"><ele>986.0</ele><time>2026-04-27T14:02:19.001Z</time></trkpt><trkpt lat="40.263203394669894" lon="19.894987859131746"><ele>986.0</ele><time>2026-04-27T14:02:21.001Z</time></trkpt><trkpt lat="40.2632267811793" lon="19.894910836257303"><ele>986.0</ele><time>2026-04-27T14:02:22.001Z</time></trkpt><trkpt lat="40.26327149478345" lon="19.89478073784883"><ele>985.9999999999999</ele><time>2026-04-27T14:02:24.001Z</time></trkpt><trkpt lat="40.26330338011258" lon="19.89466833604134"><ele>985.9999999999999</ele><time>2026-04-27T14:02:26.001Z</time></trkpt><trkpt lat="40.26331600616576" lon="19.89457117038941"><ele>986.0</ele><time>2026-04-27T14:02:28.001Z</time></trkpt><trkpt lat="40.263321202701945" lon="19.894455722254207"><ele>986.0</ele><time>2026-04-27T14:02:30.001Z</time></trkpt><trkpt lat="40.263270127549276" lon="19.894356781157033"><ele>986.0</ele><time>2026-04-27T14:02:32.001Z</time></trkpt><trkpt lat="40.263180527983515" lon="19.894348255498677"><ele>985.9999999999999</ele><time>2026-04-27T14:02:33.001Z</time></trkpt><trkpt lat="40.263114332869385" lon="19.894402763745646"><ele>985.9999999999999</ele><time>2026-04-27T14:02:34.001Z</time></trkpt><trkpt lat="40.26308562316109" lon="19.894544894284376"><ele>986.0</ele><time>2026-04-27T14:02:35.001Z</time></trkpt><trkpt lat="40.26304690663792" lon="19.894654261719044"><ele>986.0</ele><time>2026-04-27T14:02:36.001Z</time></trkpt><trkpt lat="40.26298991111051" lon="19.894764563121964"><ele>982.25</ele><time>2026-04-27T14:02:37.001Z</time></trkpt><trkpt lat="40.26293662854948" lon="19.89489695857666"><ele>978.5</ele><time>2026-04-27T14:02:38.001Z</time></trkpt><trkpt lat="40.26288975854331" lon="19.895051586845515"><ele>974.75</ele><time>2026-04-27T14:02:39.001Z</time></trkpt><trkpt lat="40.26282546382353" lon="19.895210226407738"><ele>971.0</ele><time>2026-04-27T14:02:40.001Z</time></trkpt><trkpt lat="40.26277116990724" lon="19.89535608695889"><ele>970.0</ele><time>2026-04-27T14:02:41.001Z</time></trkpt><trkpt lat="40.2627213639295" lon="19.895488163316063"><ele>968.9999999999999</ele><time>2026-04-27T14:02:42.001Z</time></trkpt><trkpt lat="40.262681665234815" lon="19.8956132430729"><ele>967.9999999999999</ele><time>2026-04-27T14:02:43.001Z</time></trkpt><trkpt lat="40.26265768605519" lon="19.895738859558055"><ele>967.0</ele><time>2026-04-27T14:02:44.001Z</time></trkpt><trkpt lat="40.26264567802465" lon="19.895878964940355"><ele>966.0</ele><time>2026-04-27T14:02:45.001Z</time></trkpt><trkpt lat="40.2626363833985" lon="19.89603763326938"><ele>965.0</ele><time>2026-04-27T14:02:46.001Z</time></trkpt><trkpt lat="40.2626281159556" lon="19.896218458470223"><ele>964.0</ele><time>2026-04-27T14:02:47.001Z</time></trkpt><trkpt lat="40.262618624535286" lon="19.896411594454666"><ele>963.0</ele><time>2026-04-27T14:02:48.001Z</time></trkpt><trkpt lat="40.2626051181084" lon="19.896590746974265"><ele>962.0</ele><time>2026-04-27T14:02:49Z</time></trkpt><trkpt lat="40.26258909913166" lon="19.896756119318265"><ele>962.0</ele><time>2026-04-27T14:02:50Z</time></trkpt><trkpt lat="40.26256809664255" lon="19.896903105713204"><ele>962.0</ele><time>2026-04-27T14:02:51Z</time></trkpt><trkpt lat="40.262545611357645" lon="19.897037476321525"><ele>962.0</ele><time>2026-04-27T14:02:52Z</time></trkpt><trkpt lat="40.262529936409855" lon="19.89716555415685"><ele>962.0</ele><time>2026-04-27T14:02:53Z</time></trkpt><trkpt lat="40.26252183123301" lon="19.89728767925712"><ele>962.0</ele><time>2026-04-27T14:02:54Z</time></trkpt><trkpt lat="40.262513487719254" lon="19.897397462403408"><ele>962.0000000000001</ele><time>2026-04-27T14:02:55Z</time></trkpt><trkpt lat="40.26248811146778" lon="19.897481471702626"><ele>962.0</ele><time>2026-04-27T14:02:56Z</time></trkpt><trkpt lat="40.26242202218783" lon="19.897514941127042"><ele>962.0</ele><time>2026-04-27T14:02:57Z</time></trkpt><trkpt lat="40.26235859025326" lon="19.897473259474637"><ele>962.0</ele><time>2026-04-27T14:02:58Z</time></trkpt><trkpt lat="40.26228309871362" lon="19.89746660579309"><ele>962.0000000000001</ele><time>2026-04-27T14:02:59Z</time></trkpt><trkpt lat="40.26222816754502" lon="19.89737426176734"><ele>962.0</ele><time>2026-04-27T14:03:00Z</time></trkpt><trkpt lat="40.26218066987161" lon="19.897270055743366"><ele>960.8</ele><time>2026-04-27T14:03:01Z</time></trkpt><trkpt lat="40.262117344862155" lon="19.897147508251145"><ele>959.6</ele><time>2026-04-27T14:03:02Z</time></trkpt><trkpt lat="40.26206116452603" lon="19.897037734371693"><ele>958.3999999999999</ele><time>2026-04-27T14:03:03Z</time></trkpt><trkpt lat="40.261983181990665" lon="19.896934972709303"><ele>957.1999999999999</ele><time>2026-04-27T14:03:04Z</time></trkpt><trkpt lat="40.26190167603682" lon="19.896833825728628"><ele>956.0</ele><time>2026-04-27T14:03:05Z</time></trkpt><trkpt lat="40.261833080101084" lon="19.896734450759546"><ele>956.0</ele><time>2026-04-27T14:03:06Z</time></trkpt><trkpt lat="40.26179147134014" lon="19.896603247519653"><ele>956.0</ele><time>2026-04-27T14:03:07Z</time></trkpt><trkpt lat="40.26174782917527" lon="19.896446020667245"><ele>956.0</ele><time>2026-04-27T14:03:08Z</time></trkpt><trkpt lat="40.26164401561004" lon="19.89631748334559"><ele>956.0</ele><time>2026-04-27T14:03:09Z</time></trkpt><trkpt lat="40.261580385958034" lon="19.896192956825423"><ele>956.0</ele><time>2026-04-27T14:03:10Z</time></trkpt><trkpt lat="40.26150244368531" lon="19.89609714800919"><ele>956.0</ele><time>2026-04-27T14:03:11Z</time></trkpt><trkpt lat="40.26141405389221" lon="19.89598353097236"><ele>956.0</ele><time>2026-04-27T14:03:12Z</time></trkpt><trkpt lat="40.26130616462985" lon="19.895866215425944"><ele>956.0</ele><time>2026-04-27T14:03:13Z</time></trkpt><trkpt lat="40.26118861922884" lon="19.895731696846266"><ele>953.6666666666667</ele><time>2026-04-27T14:03:14Z</time></trkpt><trkpt lat="40.261071508762775" lon="19.895585024894313"><ele>951.3333333333333</ele><time>2026-04-27T14:03:15Z</time></trkpt><trkpt lat="40.26096961125685" lon="19.895447224030306"><ele>949.0</ele><time>2026-04-27T14:03:16Z</time></trkpt><trkpt lat="40.260872521211425" lon="19.89531211967842"><ele>949.0</ele><time>2026-04-27T14:03:17Z</time></trkpt><trkpt lat="40.26077813802771" lon="19.89518241735954"><ele>949.0</ele><time>2026-04-27T14:03:18Z</time></trkpt><trkpt lat="40.26070052986518" lon="19.89504555251574"><ele>949.0</ele><time>2026-04-27T14:03:19Z</time></trkpt><trkpt lat="40.2606310117968" lon="19.8948854905065"><ele>949.0</ele><time>2026-04-27T14:03:20Z</time></trkpt><trkpt lat="40.26056467607692" lon="19.894695697967624"><ele>946.0</ele><time>2026-04-27T14:03:21Z</time></trkpt><trkpt lat="40.260495586737996" lon="19.894499744999017"><ele>943.0</ele><time>2026-04-27T14:03:22Z</time></trkpt><trkpt lat="40.26042963906378" lon="19.89431916837097"><ele>940.0</ele><time>2026-04-27T14:03:23Z</time></trkpt><trkpt lat="40.260365552968025" lon="19.894156579960264"><ele>936.5</ele><time>2026-04-27T14:03:24Z</time></trkpt><trkpt lat="40.26030466663324" lon="19.894003705809283"><ele>933.0</ele><time>2026-04-27T14:03:25Z</time></trkpt><trkpt lat="40.26025023227507" lon="19.893861994006784"><ele>929.5</ele><time>2026-04-27T14:03:26Z</time></trkpt><trkpt lat="40.26020486360676" lon="19.89371404274414"><ele>926.0</ele><time>2026-04-27T14:03:27Z</time></trkpt><trkpt lat="40.26015280876747" lon="19.893546111817077"><ele>924.75</ele><time>2026-04-27T14:03:28Z</time></trkpt><trkpt lat="40.260099147573655" lon="19.893368697557996"><ele>923.5</ele><time>2026-04-27T14:03:29Z</time></trkpt><trkpt lat="40.26006323330396" lon="19.893188137748552"><ele>922.25</ele><time>2026-04-27T14:03:30Z</time></trkpt><trkpt lat="40.26001052212104" lon="19.893023242049974"><ele>921.0</ele><time>2026-04-27T14:03:31Z</time></trkpt><trkpt lat="40.259928138165655" lon="19.892881891284656"><ele>921.0</ele><time>2026-04-27T14:03:32Z</time></trkpt><trkpt lat="40.259848673891376" lon="19.892748404954812"><ele>921.0</ele><time>2026-04-27T14:03:33Z</time></trkpt><trkpt lat="40.259784841107965" lon="19.892614144789135"><ele>921.0</ele><time>2026-04-27T14:03:34Z</time></trkpt><trkpt lat="40.25975731664857" lon="19.892475861143804"><ele>921.0</ele><time>2026-04-27T14:03:35Z</time></trkpt><trkpt lat="40.259719367496956" lon="19.892339805435633"><ele>917.5999999999999</ele><time>2026-04-27T14:03:36Z</time></trkpt><trkpt lat="40.25968512621397" lon="19.892213416121695"><ele>914.1999999999999</ele><time>2026-04-27T14:03:37Z</time></trkpt><trkpt lat="40.25961800211038" lon="19.892116845468205"><ele>910.8000000000001</ele><time>2026-04-27T14:03:38Z</time></trkpt><trkpt lat="40.25954159304887" lon="19.892058455341726"><ele>907.4000000000001</ele><time>2026-04-27T14:03:39Z</time></trkpt><trkpt lat="40.259436757432105" lon="19.892054691720247"><ele>904.0</ele><time>2026-04-27T14:03:40Z</time></trkpt><trkpt lat="40.259314557668034" lon="19.89211611750262"><ele>904.0</ele><time>2026-04-27T14:03:41Z</time></trkpt><trkpt lat="40.25918959312299" lon="19.892130613334956"><ele>904.0</ele><time>2026-04-27T14:03:42Z</time></trkpt><trkpt lat="40.25904748377801" lon="19.892198466050665"><ele>904.0</ele><time>2026-04-27T14:03:43Z</time></trkpt><trkpt lat="40.25890724321269" lon="19.892250854754916"><ele>904.0</ele><time>2026-04-27T14:03:44Z</time></trkpt><trkpt lat="40.25878331693382" lon="19.89229735602997"><ele>902.6</ele><time>2026-04-27T14:03:45Z</time></trkpt><trkpt lat="40.25865939298622" lon="19.892351520528607"><ele>901.2</ele><time>2026-04-27T14:03:46Z</time></trkpt><trkpt lat="40.25854704237872" lon="19.89237163926269"><ele>899.8000000000001</ele><time>2026-04-27T14:03:47Z</time></trkpt><trkpt lat="40.25845337281369" lon="19.892388429606537"><ele>898.4000000000001</ele><time>2026-04-27T14:03:48Z</time></trkpt><trkpt lat="40.2583700857573" lon="19.892403057080426"><ele>897.0</ele><time>2026-04-27T14:03:49Z</time></trkpt><trkpt lat="40.25830459449633" lon="19.89240894601764"><ele>897.0</ele><time>2026-04-27T14:03:50Z</time></trkpt><trkpt lat="40.258181778184756" lon="19.89240496895089"><ele>897.0</ele><time>2026-04-27T14:03:52Z</time></trkpt><trkpt lat="40.25808260291882" lon="19.892395548325325"><ele>897.0</ele><time>2026-04-27T14:03:54Z</time></trkpt><trkpt lat="40.257972611974" lon="19.892378929752763"><ele>897.0</ele><time>2026-04-27T14:03:56Z</time></trkpt><trkpt lat="40.25785309314999" lon="19.892381462153203"><ele>894.0</ele><time>2026-04-27T14:03:58Z</time></trkpt><trkpt lat="40.25774276785463" lon="19.892359909117417"><ele>891.0</ele><time>2026-04-27T14:04:00Z</time></trkpt><trkpt lat="40.25769447546752" lon="19.89241883455975"><ele>888.0</ele><time>2026-04-27T14:04:01Z</time></trkpt><trkpt lat="40.257617386478714" lon="19.892474564257103"><ele>885.0</ele><time>2026-04-27T14:04:03Z</time></trkpt><trkpt lat="40.25753862194089" lon="19.89254762979981"><ele>882.0</ele><time>2026-04-27T14:04:05Z</time></trkpt><trkpt lat="40.25745894974802" lon="19.892623434197514"><ele>881.6</ele><time>2026-04-27T14:04:07Z</time></trkpt><trkpt lat="40.25737379869967" lon="19.89271207070369"><ele>881.2</ele><time>2026-04-27T14:04:09Z</time></trkpt><trkpt lat="40.257269072409876" lon="19.892802337048686"><ele>880.8</ele><time>2026-04-27T14:04:11Z</time></trkpt><trkpt lat="40.25720982012756" lon="19.892847982988453"><ele>880.4</ele><time>2026-04-27T14:04:12Z</time></trkpt><trkpt lat="40.25714391670473" lon="19.892899456323022"><ele>880.0</ele><time>2026-04-27T14:04:13Z</time></trkpt><trkpt lat="40.257067432360984" lon="19.892947257692175"><ele>878.4999999999999</ele><time>2026-04-27T14:04:14Z</time></trkpt><trkpt lat="40.25698421438063" lon="19.89299614035247"><ele>877.0</ele><time>2026-04-27T14:04:15Z</time></trkpt><trkpt lat="40.256894449348906" lon="19.89304873840914"><ele>875.5</ele><time>2026-04-27T14:04:16Z</time></trkpt><trkpt lat="40.256807953165755" lon="19.89310060144579"><ele>874.0</ele><time>2026-04-27T14:04:17Z</time></trkpt><trkpt lat="40.25673029457326" lon="19.89315167257577"><ele>872.4999999999999</ele><time>2026-04-27T14:04:18Z</time></trkpt><trkpt lat="40.25665852729119" lon="19.893187316673036"><ele>871.0</ele><time>2026-04-27T14:04:19Z</time></trkpt><trkpt lat="40.25658838999586" lon="19.893192310369557"><ele>870.9999999999999</ele><time>2026-04-27T14:04:20Z</time></trkpt><trkpt lat="40.25652015386244" lon="19.893208632215437"><ele>871.0</ele><time>2026-04-27T14:04:21Z</time></trkpt><trkpt lat="40.25647947887288" lon="19.893086033669903"><ele>871.0</ele><time>2026-04-27T14:04:22Z</time></trkpt><trkpt lat="40.2564179413911" lon="19.893034172040213"><ele>871.0</ele><time>2026-04-27T14:04:23Z</time></trkpt><trkpt lat="40.25631882548903" lon="19.893066908471333"><ele>870.9999999999999</ele><time>2026-04-27T14:04:24Z</time></trkpt><trkpt lat="40.25624879516322" lon="19.893134468724796"><ele>871.0</ele><time>2026-04-27T14:04:25Z</time></trkpt><trkpt lat="40.256219207573814" lon="19.893321577998638"><ele>867.8333333333333</ele><time>2026-04-27T14:04:26Z</time></trkpt><trkpt lat="40.256171872109036" lon="19.89342799368722"><ele>864.6666666666666</ele><time>2026-04-27T14:04:27Z</time></trkpt><trkpt lat="40.25611196713257" lon="19.893485438162028"><ele>861.5</ele><time>2026-04-27T14:04:28Z</time></trkpt><trkpt lat="40.25603069044352" lon="19.89344680430753"><ele>858.3333333333333</ele><time>2026-04-27T14:04:29Z</time></trkpt><trkpt lat="40.25595628633005" lon="19.893457659299543"><ele>855.1666666666666</ele><time>2026-04-27T14:04:30Z</time></trkpt><trkpt lat="40.255895447745424" lon="19.89349017410765"><ele>852.0</ele><time>2026-04-27T14:04:31Z</time></trkpt><trkpt lat="40.25586760842194" lon="19.893588505300073"><ele>852.0</ele><time>2026-04-27T14:04:32Z</time></trkpt><trkpt lat="40.25589497267791" lon="19.893700233315744"><ele>852.0</ele><time>2026-04-27T14:04:33Z</time></trkpt><trkpt lat="40.25597747852828" lon="19.893766318875514"><ele>852.0</ele><time>2026-04-27T14:04:34Z</time></trkpt><trkpt lat="40.25606303038566" lon="19.893837144786303"><ele>852.0</ele><time>2026-04-27T14:04:35Z</time></trkpt><trkpt lat="40.25615241108742" lon="19.893913615261223"><ele>852.0</ele><time>2026-04-27T14:04:36Z</time></trkpt><trkpt lat="40.2562022815807" lon="19.893999257718754"><ele>852.0</ele><time>2026-04-27T14:04:37Z</time></trkpt><trkpt lat="40.25621539165723" lon="19.8941068784566"><ele>852.0</ele><time>2026-04-27T14:04:38Z</time></trkpt><trkpt lat="40.25616324861056" lon="19.894204640294785"><ele>852.0</ele><time>2026-04-27T14:04:39Z</time></trkpt><trkpt lat="40.25615793597462" lon="19.89433111169915"><ele>852.0</ele><time>2026-04-27T14:04:40Z</time></trkpt><trkpt lat="40.256131024891395" lon="19.894463267807854"><ele>852.0</ele><time>2026-04-27T14:04:41Z</time></trkpt><trkpt lat="40.25612526939229" lon="19.89460393497893"><ele>851.8</ele><time>2026-04-27T14:04:42Z</time></trkpt><trkpt lat="40.25612571896195" lon="19.89470931393635"><ele>851.6</ele><time>2026-04-27T14:04:43Z</time></trkpt><trkpt lat="40.256025618109646" lon="19.894779789199877"><ele>851.4</ele><time>2026-04-27T14:04:45Z</time></trkpt><trkpt lat="40.255966724486804" lon="19.894724542668172"><ele>851.1999999999999</ele><time>2026-04-27T14:04:46Z</time></trkpt><trkpt lat="40.255884221430584" lon="19.89471408962173"><ele>851.0</ele><time>2026-04-27T14:04:47Z</time></trkpt><trkpt lat="40.2557980108314" lon="19.8946286696123"><ele>851.0000000000001</ele><time>2026-04-27T14:04:48Z</time></trkpt><trkpt lat="40.25568748059269" lon="19.894575190705062"><ele>851.0</ele><time>2026-04-27T14:04:49Z</time></trkpt><trkpt lat="40.255607538701845" lon="19.89453677818736"><ele>851.0</ele><time>2026-04-27T14:04:50Z</time></trkpt><trkpt lat="40.255543982992016" lon="19.89450614346206"><ele>851.0</ele><time>2026-04-27T14:04:51Z</time></trkpt><trkpt lat="40.255468752850106" lon="19.894516014476373"><ele>851.0000000000001</ele><time>2026-04-27T14:04:52Z</time></trkpt><trkpt lat="40.25541328047149" lon="19.894589562720654"><ele>851.0</ele><time>2026-04-27T14:04:53Z</time></trkpt><trkpt lat="40.25541225834473" lon="19.894725580867977"><ele>851.8</ele><time>2026-04-27T14:04:54Z</time></trkpt><trkpt lat="40.25547609294888" lon="19.894820068446695"><ele>852.5999999999999</ele><time>2026-04-27T14:04:55Z</time></trkpt><trkpt lat="40.25551907305618" lon="19.894922270108395"><ele>853.4</ele><time>2026-04-27T14:04:56Z</time></trkpt><trkpt lat="40.25556448172088" lon="19.89505820247615"><ele>854.2</ele><time>2026-04-27T14:04:57Z</time></trkpt><trkpt lat="40.25560290230827" lon="19.895221100768385"><ele>855.0</ele><time>2026-04-27T14:04:58Z</time></trkpt><trkpt lat="40.25562939584959" lon="19.895371392421527"><ele>855.0</ele><time>2026-04-27T14:04:59Z</time></trkpt><trkpt lat="40.255622794188696" lon="19.89550519449701"><ele>855.0</ele><time>2026-04-27T14:05:00Z</time></trkpt><trkpt lat="40.25556135304742" lon="19.895633065342018"><ele>855.0</ele><time>2026-04-27T14:05:01Z</time></trkpt><trkpt lat="40.2554996113887" lon="19.895776726979232"><ele>855.0</ele><time>2026-04-27T14:05:02Z</time></trkpt><trkpt lat="40.25543288141339" lon="19.89591044238482"><ele>852.75</ele><time>2026-04-27T14:05:03Z</time></trkpt><trkpt lat="40.25532952850769" lon="19.895987618583124"><ele>850.5</ele><time>2026-04-27T14:05:04Z</time></trkpt><trkpt lat="40.25521272343509" lon="19.896047026164577"><ele>848.25</ele><time>2026-04-27T14:05:05Z</time></trkpt><trkpt lat="40.25507735796502" lon="19.8960983134595"><ele>846.0</ele><time>2026-04-27T14:05:06Z</time></trkpt><trkpt lat="40.254951568757654" lon="19.89614169891114"><ele>846.0</ele><time>2026-04-27T14:05:07Z</time></trkpt><trkpt lat="40.25483884009235" lon="19.896174985378877"><ele>846.0</ele><time>2026-04-27T14:05:08Z</time></trkpt><trkpt lat="40.25473417105612" lon="19.896177268326266"><ele>846.0</ele><time>2026-04-27T14:05:09Z</time></trkpt><trkpt lat="40.254642774010144" lon="19.8962319951664"><ele>846.0</ele><time>2026-04-27T14:05:10Z</time></trkpt><trkpt lat="40.254572912750795" lon="19.896347672817903"><ele>846.0</ele><time>2026-04-27T14:05:11Z</time></trkpt><trkpt lat="40.25452309039246" lon="19.8965083284263"><ele>843.25</ele><time>2026-04-27T14:05:12Z</time></trkpt><trkpt lat="40.25445788273255" lon="19.896668869157853"><ele>840.5</ele><time>2026-04-27T14:05:13Z</time></trkpt><trkpt lat="40.25439166815341" lon="19.896841188961588"><ele>837.75</ele><time>2026-04-27T14:05:14Z</time></trkpt><trkpt lat="40.254332267723576" lon="19.897014055670674"><ele>835.0</ele><time>2026-04-27T14:05:15Z</time></trkpt><trkpt lat="40.254278002490004" lon="19.897179040157422"><ele>835.0</ele><time>2026-04-27T14:05:16Z</time></trkpt><trkpt lat="40.254224049452965" lon="19.897339705994224"><ele>835.0</ele><time>2026-04-27T14:05:17Z</time></trkpt><trkpt lat="40.25416709042537" lon="19.897473823571957"><ele>835.0</ele><time>2026-04-27T14:05:18Z</time></trkpt><trkpt lat="40.25409036349684" lon="19.897575415961306"><ele>835.0</ele><time>2026-04-27T14:05:19Z</time></trkpt><trkpt lat="40.253982046480544" lon="19.89762145305778"><ele>833.4999999999999</ele><time>2026-04-27T14:05:20Z</time></trkpt><trkpt lat="40.25387885081428" lon="19.897656539991686"><ele>832.0</ele><time>2026-04-27T14:05:21Z</time></trkpt><trkpt lat="40.25379645522927" lon="19.897683442753472"><ele>830.5</ele><time>2026-04-27T14:05:22Z</time></trkpt><trkpt lat="40.253723672122455" lon="19.897727499417027"><ele>829.0</ele><time>2026-04-27T14:05:23Z</time></trkpt><trkpt lat="40.25364656425737" lon="19.897698953774295"><ele>827.4999999999999</ele><time>2026-04-27T14:05:24Z</time></trkpt><trkpt lat="40.25357901984338" lon="19.89761145305861"><ele>826.0</ele><time>2026-04-27T14:05:25Z</time></trkpt><trkpt lat="40.253514385185284" lon="19.897480449221007"><ele>825.75</ele><time>2026-04-27T14:05:26Z</time></trkpt><trkpt lat="40.2534335155033" lon="19.89733514317785"><ele>825.5</ele><time>2026-04-27T14:05:27Z</time></trkpt><trkpt lat="40.25334762620749" lon="19.897189088887288"><ele>825.25</ele><time>2026-04-27T14:05:28Z</time></trkpt><trkpt lat="40.25330342434061" lon="19.897035299968035"><ele>825.0</ele><time>2026-04-27T14:05:29Z</time></trkpt><trkpt lat="40.253258874369386" lon="19.89690655026716"><ele>825.0</ele><time>2026-04-27T14:05:30Z</time></trkpt><trkpt lat="40.253149722975245" lon="19.896848795026433"><ele>825.0</ele><time>2026-04-27T14:05:31Z</time></trkpt><trkpt lat="40.2530442291881" lon="19.896820763231243"><ele>825.0</ele><time>2026-04-27T14:05:32Z</time></trkpt><trkpt lat="40.25291355725431" lon="19.896830864175012"><ele>825.0</ele><time>2026-04-27T14:05:33Z</time></trkpt><trkpt lat="40.25276309821002" lon="19.896853577074506"><ele>822.25</ele><time>2026-04-27T14:05:34Z</time></trkpt><trkpt lat="40.25262351479087" lon="19.896864337153193"><ele>819.5</ele><time>2026-04-27T14:05:35Z</time></trkpt><trkpt lat="40.252513397800335" lon="19.896867380564036"><ele>816.75</ele><time>2026-04-27T14:05:36Z</time></trkpt><trkpt lat="40.25243629801589" lon="19.896873054530225"><ele>814.0</ele><time>2026-04-27T14:05:37Z</time></trkpt><trkpt lat="40.25235320828464" lon="19.89700044496416"><ele>814.0</ele><time>2026-04-27T14:05:39Z</time></trkpt><trkpt lat="40.25233585169158" lon="19.89712340163856"><ele>814.0</ele><time>2026-04-27T14:05:40Z</time></trkpt><trkpt lat="40.25236150774553" lon="19.897226732741505"><ele>814.0</ele><time>2026-04-27T14:05:41Z</time></trkpt><trkpt lat="40.25241996394495" lon="19.897283469377662"><ele>814.0</ele><time>2026-04-27T14:05:42Z</time></trkpt><trkpt lat="40.252514838568715" lon="19.89730378061521"><ele>814.0</ele><time>2026-04-27T14:05:43Z</time></trkpt><trkpt lat="40.252627775502496" lon="19.89733112271954"><ele>814.0</ele><time>2026-04-27T14:05:44Z</time></trkpt><trkpt lat="40.252690166726104" lon="19.8974555869991"><ele>814.0</ele><time>2026-04-27T14:05:45Z</time></trkpt><trkpt lat="40.25275570041058" lon="19.897545024444685"><ele>814.0</ele><time>2026-04-27T14:05:46Z</time></trkpt><trkpt lat="40.252720338476614" lon="19.89770787702966"><ele>814.0</ele><time>2026-04-27T14:05:47Z</time></trkpt><trkpt lat="40.2527464428399" lon="19.89785945819911"><ele>812.5</ele><time>2026-04-27T14:05:48Z</time></trkpt><trkpt lat="40.25282356905613" lon="19.898009394721008"><ele>811.0</ele><time>2026-04-27T14:05:49Z</time></trkpt><trkpt lat="40.252907504014765" lon="19.898159303302016"><ele>809.5</ele><time>2026-04-27T14:05:50Z</time></trkpt><trkpt lat="40.25294754405131" lon="19.8983432495964"><ele>808.0</ele><time>2026-04-27T14:05:51Z</time></trkpt><trkpt lat="40.252975319047785" lon="19.89853235890532"><ele>808.0</ele><time>2026-04-27T14:05:52Z</time></trkpt><trkpt lat="40.25298205095352" lon="19.89874310646261"><ele>808.0</ele><time>2026-04-27T14:05:53Z</time></trkpt><trkpt lat="40.25300087224784" lon="19.89893133226521"><ele>808.0</ele><time>2026-04-27T14:05:54Z</time></trkpt><trkpt lat="40.252988116752974" lon="19.899094556637444"><ele>808.0</ele><time>2026-04-27T14:05:55Z</time></trkpt><trkpt lat="40.25299567448284" lon="19.89924174852168"><ele>808.8333333333333</ele><time>2026-04-27T14:05:56Z</time></trkpt><trkpt lat="40.25301626146082" lon="19.899363042990174"><ele>809.6666666666666</ele><time>2026-04-27T14:05:57Z</time></trkpt><trkpt lat="40.25301466205328" lon="19.899458801577715"><ele>810.5</ele><time>2026-04-27T14:05:58Z</time></trkpt><trkpt lat="40.25294726246642" lon="19.899531172413433"><ele>811.3333333333333</ele><time>2026-04-27T14:05:59Z</time></trkpt><trkpt lat="40.25288268245411" lon="19.899600488985918"><ele>812.1666666666666</ele><time>2026-04-27T14:06:00Z</time></trkpt><trkpt lat="40.25280871161841" lon="19.899689204194367"><ele>813.0</ele><time>2026-04-27T14:06:01Z</time></trkpt><trkpt lat="40.252718471599195" lon="19.89977645778573"><ele>813.0</ele><time>2026-04-27T14:06:02Z</time></trkpt><trkpt lat="40.25264175774549" lon="19.899862443824652"><ele>813.0</ele><time>2026-04-27T14:06:03Z</time></trkpt><trkpt lat="40.25261717339925" lon="19.900013811511208"><ele>813.0</ele><time>2026-04-27T14:06:04Z</time></trkpt><trkpt lat="40.25259956111205" lon="19.900161014386153"><ele>813.0</ele><time>2026-04-27T14:06:05Z</time></trkpt><trkpt lat="40.252597440858914" lon="19.90032616944745"><ele>814.2</ele><time>2026-04-27T14:06:06Z</time></trkpt><trkpt lat="40.25260101588919" lon="19.900494767630658"><ele>815.4</ele><time>2026-04-27T14:06:07Z</time></trkpt><trkpt lat="40.25256277168002" lon="19.900617497334355"><ele>816.6</ele><time>2026-04-27T14:06:08Z</time></trkpt><trkpt lat="40.252537081108436" lon="19.900728885707128"><ele>817.8000000000001</ele><time>2026-04-27T14:06:09Z</time></trkpt><trkpt lat="40.25242666666532" lon="19.900781654978015"><ele>819.0</ele><time>2026-04-27T14:06:10Z</time></trkpt><trkpt lat="40.25232666836878" lon="19.90088434711638"><ele>816.6666666666667</ele><time>2026-04-27T14:06:11Z</time></trkpt><trkpt lat="40.25220465307383" lon="19.90097513921708"><ele>814.3333333333334</ele><time>2026-04-27T14:06:12Z</time></trkpt><trkpt lat="40.252091511106606" lon="19.90111411920954"><ele>812.0</ele><time>2026-04-27T14:06:13Z</time></trkpt><trkpt lat="40.25199257555408" lon="19.90127189333563"><ele>812.0</ele><time>2026-04-27T14:06:14Z</time></trkpt><trkpt lat="40.25191901912597" lon="19.901415742944874"><ele>812.0</ele><time>2026-04-27T14:06:15Z</time></trkpt><trkpt lat="40.25187150903449" lon="19.901534503791883"><ele>812.0</ele><time>2026-04-27T14:06:16Z</time></trkpt><trkpt lat="40.251906271854075" lon="19.90164024761585"><ele>812.0</ele><time>2026-04-27T14:06:17Z</time></trkpt><trkpt lat="40.25192458232884" lon="19.901763833631243"><ele>812.0</ele><time>2026-04-27T14:06:18Z</time></trkpt><trkpt lat="40.25193955969773" lon="19.90190550133377"><ele>811.8333333333334</ele><time>2026-04-27T14:06:19Z</time></trkpt><trkpt lat="40.251989066698364" lon="19.902024405680844"><ele>811.6666666666667</ele><time>2026-04-27T14:06:20Z</time></trkpt><trkpt lat="40.251993187897156" lon="19.902115836224073"><ele>811.5</ele><time>2026-04-27T14:06:21Z</time></trkpt><trkpt lat="40.25194235740564" lon="19.902170559621993"><ele>811.3333333333333</ele><time>2026-04-27T14:06:22Z</time></trkpt><trkpt lat="40.251868366920775" lon="19.902116478023675"><ele>811.1666666666666</ele><time>2026-04-27T14:06:23Z</time></trkpt><trkpt lat="40.251808409257244" lon="19.90205047320978"><ele>811.0</ele><time>2026-04-27T14:06:24Z</time></trkpt><trkpt lat="40.25169649099664" lon="19.90196278467299"><ele>811.0</ele><time>2026-04-27T14:06:25Z</time></trkpt><trkpt lat="40.25162560901837" lon="19.90183422963283"><ele>811.0</ele><time>2026-04-27T14:06:26Z</time></trkpt><trkpt lat="40.25156592990162" lon="19.901682875952485"><ele>811.0</ele><time>2026-04-27T14:06:27Z</time></trkpt><trkpt lat="40.251519411370026" lon="19.901546340343412"><ele>811.0</ele><time>2026-04-27T14:06:28Z</time></trkpt><trkpt lat="40.25147889180747" lon="19.90140863515163"><ele>809.0</ele><time>2026-04-27T14:06:29Z</time></trkpt><trkpt lat="40.251408949001544" lon="19.901276924142344"><ele>807.0</ele><time>2026-04-27T14:06:30Z</time></trkpt><trkpt lat="40.25132919777851" lon="19.901166618606727"><ele>805.0</ele><time>2026-04-27T14:06:31Z</time></trkpt><trkpt lat="40.251243040048315" lon="19.901094795100203"><ele>803.0</ele><time>2026-04-27T14:06:32Z</time></trkpt><trkpt lat="40.25115725462723" lon="19.90101552540478"><ele>801.0</ele><time>2026-04-27T14:06:33Z</time></trkpt><trkpt lat="40.25102063258542" lon="19.901009946934447"><ele>801.0</ele><time>2026-04-27T14:06:34Z</time></trkpt><trkpt lat="40.250903375123094" lon="19.900995564522546"><ele>801.0</ele><time>2026-04-27T14:06:35Z</time></trkpt><trkpt lat="40.250782547175895" lon="19.901000960917884"><ele>801.0</ele><time>2026-04-27T14:06:36Z</time></trkpt><trkpt lat="40.25065095369222" lon="19.90102845388964"><ele>801.0</ele><time>2026-04-27T14:06:37Z</time></trkpt><trkpt lat="40.25053322899981" lon="19.901181165330275"><ele>798.1999999999999</ele><time>2026-04-27T14:06:38Z</time></trkpt><trkpt lat="40.25042114310566" lon="19.901243593667207"><ele>795.4</ele><time>2026-04-27T14:06:39Z</time></trkpt><trkpt lat="40.25031859062579" lon="19.90127249384047"><ele>792.6</ele><time>2026-04-27T14:06:40Z</time></trkpt><trkpt lat="40.25022703924307" lon="19.901260252400615"><ele>789.8</ele><time>2026-04-27T14:06:41Z</time></trkpt><trkpt lat="40.25015489752075" lon="19.901208811868464"><ele>787.0</ele><time>2026-04-27T14:06:42Z</time></trkpt><trkpt lat="40.250111097196786" lon="19.901117469868982"><ele>787.0</ele><time>2026-04-27T14:06:43Z</time></trkpt><trkpt lat="40.25008558149398" lon="19.900997532892454"><ele>787.0</ele><time>2026-04-27T14:06:44Z</time></trkpt><trkpt lat="40.25005573084456" lon="19.900851570705136"><ele>787.0</ele><time>2026-04-27T14:06:45Z</time></trkpt><trkpt lat="40.250012215168674" lon="19.90068716430864"><ele>787.0</ele><time>2026-04-27T14:06:46Z</time></trkpt><trkpt lat="40.249950575684956" lon="19.900503301675425"><ele>788.75</ele><time>2026-04-27T14:06:47Z</time></trkpt><trkpt lat="40.249886297396834" lon="19.900313861789183"><ele>790.5</ele><time>2026-04-27T14:06:48Z</time></trkpt><trkpt lat="40.24982933204274" lon="19.900140349598814"><ele>792.25</ele><time>2026-04-27T14:06:49Z</time></trkpt><trkpt lat="40.24979569206837" lon="19.899957887189"><ele>794.0</ele><time>2026-04-27T14:06:50Z</time></trkpt><trkpt lat="40.24967901692401" lon="19.899804597541344"><ele>794.3333333333334</ele><time>2026-04-27T14:06:51Z</time></trkpt><trkpt lat="40.24957029144416" lon="19.899650918775077"><ele>794.6666666666667</ele><time>2026-04-27T14:06:52Z</time></trkpt><trkpt lat="40.24944942386243" lon="19.899501011957426"><ele>795.0</ele><time>2026-04-27T14:06:53Z</time></trkpt><trkpt lat="40.24934351260531" lon="19.89932645986262"><ele>794.0</ele><time>2026-04-27T14:06:54Z</time></trkpt><trkpt lat="40.249224278843286" lon="19.899159725192064"><ele>793.0</ele><time>2026-04-27T14:06:55Z</time></trkpt><trkpt lat="40.24911090077158" lon="19.89901069519664"><ele>792.0</ele><time>2026-04-27T14:06:56Z</time></trkpt><trkpt lat="40.24902866302099" lon="19.89884832937115"><ele>792.0</ele><time>2026-04-27T14:06:57Z</time></trkpt><trkpt lat="40.248997075288386" lon="19.898660738577657"><ele>792.0</ele><time>2026-04-27T14:06:58Z</time></trkpt><trkpt lat="40.24895427055013" lon="19.89847410614554"><ele>792.0</ele><time>2026-04-27T14:06:59Z</time></trkpt><trkpt lat="40.2489092242871" lon="19.8982783740747"><ele>791.3333333333333</ele><time>2026-04-27T14:07:00Z</time></trkpt><trkpt lat="40.24879498171413" lon="19.898084826544086"><ele>790.6666666666666</ele><time>2026-04-27T14:07:01Z</time></trkpt><trkpt lat="40.24867766594133" lon="19.897877757077453"><ele>790.0</ele><time>2026-04-27T14:07:02Z</time></trkpt><trkpt lat="40.24856086005941" lon="19.897672534526126"><ele>789.3333333333333</ele><time>2026-04-27T14:07:03Z</time></trkpt><trkpt lat="40.24845674378024" lon="19.8974899137588"><ele>788.6666666666667</ele><time>2026-04-27T14:07:04Z</time></trkpt><trkpt lat="40.24836188946926" lon="19.897320862238004"><ele>788.0</ele><time>2026-04-27T14:07:05Z</time></trkpt><trkpt lat="40.248221604112345" lon="19.89718126445864"><ele>789.25</ele><time>2026-04-27T14:07:06Z</time></trkpt><trkpt lat="40.24811762983154" lon="19.897058641740006"><ele>790.5</ele><time>2026-04-27T14:07:07Z</time></trkpt><trkpt lat="40.2480212723725" lon="19.89696249709655"><ele>791.75</ele><time>2026-04-27T14:07:08Z</time></trkpt><trkpt lat="40.24794600411544" lon="19.896865927956508"><ele>793.0</ele><time>2026-04-27T14:07:09Z</time></trkpt><trkpt lat="40.247873638465656" lon="19.896783596842692"><ele>791.5999999999999</ele><time>2026-04-27T14:07:10Z</time></trkpt><trkpt lat="40.247801059166285" lon="19.896700856717406"><ele>790.1999999999999</ele><time>2026-04-27T14:07:11Z</time></trkpt><trkpt lat="40.247726099120975" lon="19.89661515662041"><ele>788.8</ele><time>2026-04-27T14:07:12Z</time></trkpt><trkpt lat="40.247647859401184" lon="19.89652630482065"><ele>787.4</ele><time>2026-04-27T14:07:13Z</time></trkpt><trkpt lat="40.24755745700423" lon="19.896450283680995"><ele>786.0</ele><time>2026-04-27T14:07:14Z</time></trkpt><trkpt lat="40.247483694434436" lon="19.896340531373216"><ele>786.0</ele><time>2026-04-27T14:07:15Z</time></trkpt><trkpt lat="40.24740156876255" lon="19.89624678218534"><ele>786.0</ele><time>2026-04-27T14:07:16Z</time></trkpt><trkpt lat="40.247314569951854" lon="19.89613839370817"><ele>786.0</ele><time>2026-04-27T14:07:17Z</time></trkpt><trkpt lat="40.24722375238537" lon="19.896012793793936"><ele>786.0</ele><time>2026-04-27T14:07:18Z</time></trkpt><trkpt lat="40.24712557890915" lon="19.895876676043603"><ele>786.25</ele><time>2026-04-27T14:07:19Z</time></trkpt><trkpt lat="40.247027465908836" lon="19.895740479294574"><ele>786.5</ele><time>2026-04-27T14:07:20Z</time></trkpt><trkpt lat="40.246946931010136" lon="19.89562868369971"><ele>786.75</ele><time>2026-04-27T14:07:21Z</time></trkpt><trkpt lat="40.24688056892979" lon="19.895532990431487"><ele>787.0</ele><time>2026-04-27T14:07:22Z</time></trkpt><trkpt lat="40.246886935046184" lon="19.895408453278574"><ele>787.0</ele><time>2026-04-27T14:07:23Z</time></trkpt><trkpt lat="40.24687070932118" lon="19.89530085513918"><ele>787.0</ele><time>2026-04-27T14:07:24Z</time></trkpt><trkpt lat="40.2467680985462" lon="19.895201815916405"><ele>787.0</ele><time>2026-04-27T14:07:25Z</time></trkpt><trkpt lat="40.24670747065674" lon="19.895123277460446"><ele>787.0</ele><time>2026-04-27T14:07:26Z</time></trkpt><trkpt lat="40.24655365379843" lon="19.89514948203523"><ele>785.0</ele><time>2026-04-27T14:07:27Z</time></trkpt><trkpt lat="40.24642699817272" lon="19.895081777969583"><ele>783.0</ele><time>2026-04-27T14:07:28Z</time></trkpt><trkpt lat="40.24627735216364" lon="19.89502595559242"><ele>781.0</ele><time>2026-04-27T14:07:29Z</time></trkpt><trkpt lat="40.24611844292133" lon="19.89498213934304"><ele>781.0</ele><time>2026-04-27T14:07:30Z</time></trkpt><trkpt lat="40.24599014531337" lon="19.89483422319063"><ele>781.0</ele><time>2026-04-27T14:07:31Z</time></trkpt><trkpt lat="40.245854833497894" lon="19.894718173907176"><ele>781.0</ele><time>2026-04-27T14:07:32Z</time></trkpt><trkpt lat="40.24571990809208" lon="19.89460229079371"><ele>780.75</ele><time>2026-04-27T14:07:33Z</time></trkpt><trkpt lat="40.245592344337915" lon="19.89449248299585"><ele>780.5</ele><time>2026-04-27T14:07:34Z</time></trkpt><trkpt lat="40.24548042422267" lon="19.89439624597506"><ele>780.25</ele><time>2026-04-27T14:07:35Z</time></trkpt><trkpt lat="40.245376583903" lon="19.894306803236898"><ele>780.0</ele><time>2026-04-27T14:07:36Z</time></trkpt><trkpt lat="40.24527862719139" lon="19.894223522369273"><ele>779.25</ele><time>2026-04-27T14:07:37Z</time></trkpt><trkpt lat="40.24518266608401" lon="19.894141323093415"><ele>778.5</ele><time>2026-04-27T14:07:38Z</time></trkpt><trkpt lat="40.24506710875984" lon="19.89405082966516"><ele>777.75</ele><time>2026-04-27T14:07:39Z</time></trkpt><trkpt lat="40.244986519220625" lon="19.89388826418755"><ele>777.0</ele><time>2026-04-27T14:07:40Z</time></trkpt><trkpt lat="40.24488846047502" lon="19.893732375953913"><ele>776.3333333333333</ele><time>2026-04-27T14:07:41Z</time></trkpt><trkpt lat="40.24477449326952" lon="19.893577336434824"><ele>775.6666666666666</ele><time>2026-04-27T14:07:42Z</time></trkpt><trkpt lat="40.24465904662719" lon="19.893428306259633"><ele>775.0</ele><time>2026-04-27T14:07:43Z</time></trkpt><trkpt lat="40.24453380692674" lon="19.893321930383614"><ele>775.0</ele><time>2026-04-27T14:07:44Z</time></trkpt><trkpt lat="40.244427060889876" lon="19.893253445173134"><ele>775.0</ele><time>2026-04-27T14:07:45Z</time></trkpt><trkpt lat="40.24435484654088" lon="19.893196205722603"><ele>775.0</ele><time>2026-04-27T14:07:46Z</time></trkpt><trkpt lat="40.244307203932586" lon="19.893134648652868"><ele>775.0</ele><time>2026-04-27T14:07:47Z</time></trkpt><trkpt lat="40.244209267587465" lon="19.89316580579058"><ele>775.0</ele><time>2026-04-27T14:07:48Z</time></trkpt><trkpt lat="40.24410551373838" lon="19.8931460083111"><ele>774.9999999999999</ele><time>2026-04-27T14:07:49Z</time></trkpt><trkpt lat="40.24401783973115" lon="19.893144980881264"><ele>775.0</ele><time>2026-04-27T14:07:50Z</time></trkpt><trkpt lat="40.24395483753424" lon="19.89314420825187"><ele>775.0</ele><time>2026-04-27T14:07:51Z</time></trkpt><trkpt lat="40.24386968635779" lon="19.893142481224167"><ele>775.0</ele><time>2026-04-27T14:07:53Z</time></trkpt><trkpt lat="40.24379741311848" lon="19.893141740837656"><ele>774.9999999999999</ele><time>2026-04-27T14:07:55Z</time></trkpt><trkpt lat="40.243704899543225" lon="19.893123070317724"><ele>775.0</ele><time>2026-04-27T14:07:58Z</time></trkpt><trkpt lat="40.243632096467756" lon="19.89310730911298"><ele>775.2857142857142</ele><time>2026-04-27T14:08:00Z</time></trkpt><trkpt lat="40.24356713944465" lon="19.893093695340873"><ele>775.5714285714286</ele><time>2026-04-27T14:08:01Z</time></trkpt><trkpt lat="40.24348954502416" lon="19.893080606878236"><ele>775.8571428571429</ele><time>2026-04-27T14:08:02Z</time></trkpt><trkpt lat="40.243426175996774" lon="19.893069526828388"><ele>776.1428571428571</ele><time>2026-04-27T14:08:03Z</time></trkpt><trkpt lat="40.24334170632071" lon="19.893054757327302"><ele>776.4285714285714</ele><time>2026-04-27T14:08:05Z</time></trkpt><trkpt lat="40.24327536003582" lon="19.893008629897718"><ele>776.7142857142857</ele><time>2026-04-27T14:08:08Z</time></trkpt><trkpt lat="40.24321234408857" lon="19.89296242768088"><ele>777.0</ele><time>2026-04-27T14:08:12Z</time></trkpt><trkpt lat="40.2432814038339" lon="19.89292794009222"><ele>777.0</ele><time>2026-04-27T14:08:54Z</time></trkpt><trkpt lat="40.243350840595326" lon="19.892974902998983"><ele>777.0</ele><time>2026-04-27T14:08:59Z</time></trkpt><trkpt lat="40.24343338446755" lon="19.893032300946274"><ele>777.0</ele><time>2026-04-27T14:09:02Z</time></trkpt><trkpt lat="40.24353906050647" lon="19.893012497862514"><ele>777.0</ele><time>2026-04-27T14:09:56Z</time></trkpt><trkpt lat="40.24355031303398" lon="19.892902898448256"><ele>777.0</ele><time>2026-04-27T14:09:59Z</time></trkpt><trkpt lat="40.24361550953154" lon="19.892919711743325"><ele>777.0</ele><time>2026-04-27T14:13:37Z</time></trkpt><trkpt lat="40.243544587191074" lon="19.89293482776047"><ele>777.0</ele><time>2026-04-27T14:22:03.001Z</time></trkpt><trkpt lat="40.2434753179105" lon="19.89293049680927"><ele>777.0</ele><time>2026-04-27T14:22:05.001Z</time></trkpt><trkpt lat="40.24336243029031" lon="19.892941297989605"><ele>777.0</ele><time>2026-04-27T14:22:07.001Z</time></trkpt><trkpt lat="40.24329639531923" lon="19.892957493675585"><ele>777.0</ele><time>2026-04-27T14:22:08.001Z</time></trkpt><trkpt lat="40.243234038975686" lon="19.892974641403832"><ele>777.0</ele><time>2026-04-27T14:22:09.001Z</time></trkpt><trkpt lat="40.24314660110066" lon="19.892987541093873"><ele>777.0</ele><time>2026-04-27T14:22:11.001Z</time></trkpt><trkpt lat="40.24311131068477" lon="19.89291914755776"><ele>776.6666666666666</ele><time>2026-04-27T14:22:13.001Z</time></trkpt><trkpt lat="40.24302988088359" lon="19.892887214995312"><ele>776.3333333333333</ele><time>2026-04-27T14:22:17.001Z</time></trkpt><trkpt lat="40.24296958633961" lon="19.892863486154074"><ele>776.0</ele><time>2026-04-27T14:22:19.001Z</time></trkpt><trkpt lat="40.242900505362535" lon="19.89285486776553"><ele>775.6666666666666</ele><time>2026-04-27T14:22:21.001Z</time></trkpt><trkpt lat="40.242806513163096" lon="19.892872343412737"><ele>775.3333333333333</ele><time>2026-04-27T14:22:25.001Z</time></trkpt><trkpt lat="40.24274173073198" lon="19.892922396283687"><ele>775.0</ele><time>2026-04-27T14:22:28.001Z</time></trkpt><trkpt lat="40.24266912433248" lon="19.892950291788452"><ele>774.9999999999999</ele><time>2026-04-27T14:22:30.001Z</time></trkpt><trkpt lat="40.24260077819541" lon="19.8929660677387"><ele>775.0</ele><time>2026-04-27T14:22:32.001Z</time></trkpt><trkpt lat="40.24253899426399" lon="19.892994936557958"><ele>775.0</ele><time>2026-04-27T14:22:53.001Z</time></trkpt><trkpt lat="40.24244607547516" lon="19.893075295557868"><ele>775.0</ele><time>2026-04-27T14:22:55.001Z</time></trkpt><trkpt lat="40.24236073941116" lon="19.893125444208835"><ele>774.9999999999999</ele><time>2026-04-27T14:22:56.001Z</time></trkpt><trkpt lat="40.24228993508535" lon="19.89320852035153"><ele>775.0</ele><time>2026-04-27T14:22:57.001Z</time></trkpt><trkpt lat="40.242234875949585" lon="19.89331445715603"><ele>777.8</ele><time>2026-04-27T14:22:58.001Z</time></trkpt><trkpt lat="40.24219711471654" lon="19.893440222821955"><ele>780.6</ele><time>2026-04-27T14:22:59.001Z</time></trkpt><trkpt lat="40.242168118229635" lon="19.893571786082568"><ele>783.4000000000001</ele><time>2026-04-27T14:23:00.001Z</time></trkpt><trkpt lat="40.2421377484799" lon="19.893692932096496"><ele>786.2</ele><time>2026-04-27T14:23:01.001Z</time></trkpt><trkpt lat="40.242105129920816" lon="19.89377785738897"><ele>789.0</ele><time>2026-04-27T14:23:02.001Z</time></trkpt><trkpt lat="40.24206490395206" lon="19.89387350465044"><ele>789.0</ele><time>2026-04-27T14:23:03.001Z</time></trkpt><trkpt lat="40.24200756777683" lon="19.893966651391036"><ele>789.0</ele><time>2026-04-27T14:23:04.001Z</time></trkpt><trkpt lat="40.241954628168614" lon="19.89406379354642"><ele>789.0</ele><time>2026-04-27T14:23:05.001Z</time></trkpt><trkpt lat="40.24191384731416" lon="19.894138370615448"><ele>789.0</ele><time>2026-04-27T14:23:06.001Z</time></trkpt><trkpt lat="40.241855316388246" lon="19.89422637537885"><ele>789.0</ele><time>2026-04-27T14:23:08.001Z</time></trkpt><trkpt lat="40.24178981785292" lon="19.8942511416259"><ele>789.0</ele><time>2026-04-27T14:23:11.001Z</time></trkpt><trkpt lat="40.24173300666518" lon="19.894194713590377"><ele>789.0</ele><time>2026-04-27T14:23:13Z</time></trkpt><trkpt lat="40.24178451211053" lon="19.894119122636297"><ele>789.0</ele><time>2026-04-27T14:23:14Z</time></trkpt><trkpt lat="40.24179470291123" lon="19.893950285167264"><ele>789.0</ele><time>2026-04-27T14:23:16Z</time></trkpt><trkpt lat="40.24179884852656" lon="19.89382113228521"><ele>789.0</ele><time>2026-04-27T14:23:17Z</time></trkpt><trkpt lat="40.24178232375053" lon="19.89367660028309"><ele>789.0</ele><time>2026-04-27T14:23:18Z</time></trkpt><trkpt lat="40.24176371985692" lon="19.893513691773677"><ele>789.8000000000001</ele><time>2026-04-27T14:23:19Z</time></trkpt><trkpt lat="40.24174691698351" lon="19.893376537915554"><ele>790.6</ele><time>2026-04-27T14:23:20Z</time></trkpt><trkpt lat="40.241729325906924" lon="19.893251482542436"><ele>791.4</ele><time>2026-04-27T14:23:21Z</time></trkpt><trkpt lat="40.24171471329719" lon="19.893149311700736"><ele>792.2</ele><time>2026-04-27T14:23:22Z</time></trkpt><trkpt lat="40.2416515805942" lon="19.893041111810536"><ele>793.0</ele><time>2026-04-27T14:23:23Z</time></trkpt><trkpt lat="40.24157973549156" lon="19.892960938556342"><ele>793.0</ele><time>2026-04-27T14:23:24Z</time></trkpt><trkpt lat="40.241475430895235" lon="19.8929222110905"><ele>793.0</ele><time>2026-04-27T14:23:25Z</time></trkpt><trkpt lat="40.241381393050496" lon="19.892887580626233"><ele>793.0</ele><time>2026-04-27T14:23:26Z</time></trkpt><trkpt lat="40.241274168973156" lon="19.89284818876887"><ele>793.0</ele><time>2026-04-27T14:23:27Z</time></trkpt><trkpt lat="40.2411577665309" lon="19.892828965218833"><ele>793.0</ele><time>2026-04-27T14:23:28Z</time></trkpt><trkpt lat="40.24105711808438" lon="19.892834816572346"><ele>793.0</ele><time>2026-04-27T14:23:29Z</time></trkpt><trkpt lat="40.2409611745967" lon="19.8928480255338"><ele>793.0</ele><time>2026-04-27T14:23:30Z</time></trkpt><trkpt lat="40.240849781560975" lon="19.892863361580332"><ele>793.0</ele><time>2026-04-27T14:23:31Z</time></trkpt><trkpt lat="40.24074110967052" lon="19.892899736072902"><ele>793.0</ele><time>2026-04-27T14:23:32Z</time></trkpt><trkpt lat="40.24065015414612" lon="19.892918432854422"><ele>793.0</ele><time>2026-04-27T14:23:33Z</time></trkpt><trkpt lat="40.240568044996955" lon="19.892952961529623"><ele>793.0</ele><time>2026-04-27T14:23:34Z</time></trkpt><trkpt lat="40.240476402762006" lon="19.892953915140488"><ele>793.0</ele><time>2026-04-27T14:23:35Z</time></trkpt><trkpt lat="40.24036963193905" lon="19.89297578766823"><ele>793.0</ele><time>2026-04-27T14:23:36Z</time></trkpt><trkpt lat="40.24025316530365" lon="19.893055866584596"><ele>793.0</ele><time>2026-04-27T14:23:37Z</time></trkpt><trkpt lat="40.2401323264056" lon="19.893122214168375"><ele>793.0</ele><time>2026-04-27T14:23:38Z</time></trkpt><trkpt lat="40.24001113299544" lon="19.893212825835477"><ele>793.0</ele><time>2026-04-27T14:23:39Z</time></trkpt><trkpt lat="40.23989363761234" lon="19.893314771367546"><ele>793.0</ele><time>2026-04-27T14:23:40Z</time></trkpt><trkpt lat="40.23977494393146" lon="19.893427132449517"><ele>793.0</ele><time>2026-04-27T14:23:41Z</time></trkpt><trkpt lat="40.23965318433387" lon="19.89354611568966"><ele>796.0</ele><time>2026-04-27T14:23:42Z</time></trkpt><trkpt lat="40.239520310276305" lon="19.893665981736568"><ele>799.0</ele><time>2026-04-27T14:23:43Z</time></trkpt><trkpt lat="40.23935112675246" lon="19.893804929194705"><ele>802.0</ele><time>2026-04-27T14:23:44Z</time></trkpt><trkpt lat="40.23917699996387" lon="19.893950277393714"><ele>802.0</ele><time>2026-04-27T14:23:45Z</time></trkpt><trkpt lat="40.23899339061639" lon="19.894029284397263"><ele>802.0</ele><time>2026-04-27T14:23:46Z</time></trkpt><trkpt lat="40.238845706312965" lon="19.89414271034327"><ele>802.0</ele><time>2026-04-27T14:23:47Z</time></trkpt><trkpt lat="40.238724729133544" lon="19.89425856925931"><ele>802.6666666666666</ele><time>2026-04-27T14:23:48Z</time></trkpt><trkpt lat="40.23862127438034" lon="19.894389916615207"><ele>803.3333333333333</ele><time>2026-04-27T14:23:49Z</time></trkpt><trkpt lat="40.23850045617921" lon="19.89451114643369"><ele>804.0</ele><time>2026-04-27T14:23:50Z</time></trkpt><trkpt lat="40.23836270403931" lon="19.894623567172026"><ele>804.0</ele><time>2026-04-27T14:23:51Z</time></trkpt><trkpt lat="40.23823714211305" lon="19.894721173503957"><ele>804.0</ele><time>2026-04-27T14:23:52Z</time></trkpt><trkpt lat="40.23816054612638" lon="19.89477464968496"><ele>804.0</ele><time>2026-04-27T14:23:53Z</time></trkpt><trkpt lat="40.23809625599772" lon="19.89481953432101"><ele>804.0</ele><time>2026-04-27T14:23:54Z</time></trkpt><trkpt lat="40.23803428787089" lon="19.89486287328934"><ele>804.0</ele><time>2026-04-27T14:23:55Z</time></trkpt><trkpt lat="40.23797682377119" lon="19.89490323342573"><ele>804.0</ele><time>2026-04-27T14:23:56Z</time></trkpt><trkpt lat="40.237940583023914" lon="19.8950059155617"><ele>805.4000000000001</ele><time>2026-04-27T14:23:57Z</time></trkpt><trkpt lat="40.237890201412306" lon="19.895099729801938"><ele>806.8</ele><time>2026-04-27T14:23:58Z</time></trkpt><trkpt lat="40.23783054369513" lon="19.895213025904553"><ele>808.2</ele><time>2026-04-27T14:23:59Z</time></trkpt><trkpt lat="40.23776309010058" lon="19.89532492382485"><ele>809.5999999999999</ele><time>2026-04-27T14:24:00Z</time></trkpt><trkpt lat="40.23769252043511" lon="19.895388153541802"><ele>811.0</ele><time>2026-04-27T14:24:01Z</time></trkpt><trkpt lat="40.237603142686645" lon="19.8953468083948"><ele>811.0</ele><time>2026-04-27T14:24:02Z</time></trkpt><trkpt lat="40.23750472845328" lon="19.895352182351385"><ele>811.0</ele><time>2026-04-27T14:24:03Z</time></trkpt><trkpt lat="40.237390951931" lon="19.895398387716153"><ele>811.0</ele><time>2026-04-27T14:24:04Z</time></trkpt><trkpt lat="40.237257052486655" lon="19.895443041081684"><ele>811.0</ele><time>2026-04-27T14:24:05Z</time></trkpt><trkpt lat="40.237128476418505" lon="19.89549553342159"><ele>812.5</ele><time>2026-04-27T14:24:06Z</time></trkpt><trkpt lat="40.23702394073955" lon="19.89555158452967"><ele>814.0</ele><time>2026-04-27T14:24:07Z</time></trkpt><trkpt lat="40.236931106655746" lon="19.895622704042868"><ele>815.5</ele><time>2026-04-27T14:24:08Z</time></trkpt><trkpt lat="40.23684156653875" lon="19.895723487874143"><ele>817.0</ele><time>2026-04-27T14:24:09Z</time></trkpt><trkpt lat="40.23674473322059" lon="19.89582624951298"><ele>817.0</ele><time>2026-04-27T14:24:10Z</time></trkpt><trkpt lat="40.23667279740769" lon="19.89596589229068"><ele>817.0</ele><time>2026-04-27T14:24:11Z</time></trkpt><trkpt lat="40.236570945714334" lon="19.89606175957291"><ele>817.0</ele><time>2026-04-27T14:24:12Z</time></trkpt><trkpt lat="40.236459844938466" lon="19.89612683532224"><ele>817.0</ele><time>2026-04-27T14:24:13Z</time></trkpt><trkpt lat="40.23636804194903" lon="19.896163462809827"><ele>819.0</ele><time>2026-04-27T14:24:14Z</time></trkpt><trkpt lat="40.23629804901137" lon="19.896197173918765"><ele>821.0</ele><time>2026-04-27T14:24:15Z</time></trkpt><trkpt lat="40.236236463707755" lon="19.896226152938972"><ele>823.0</ele><time>2026-04-27T14:24:17Z</time></trkpt><trkpt lat="40.236303061661374" lon="19.89622200033148"><ele>825.0</ele><time>2026-04-27T14:24:22Z</time></trkpt><trkpt lat="40.236431442149154" lon="19.896156389596552"><ele>827.0</ele><time>2026-04-27T14:24:24Z</time></trkpt><trkpt lat="40.2364012757315" lon="19.89602152328711"><ele>827.3333333333334</ele><time>2026-04-27T14:24:27Z</time></trkpt><trkpt lat="40.2363556883879" lon="19.89588529497632"><ele>827.6666666666667</ele><time>2026-04-27T14:24:29Z</time></trkpt><trkpt lat="40.236355548862726" lon="19.89579201747738"><ele>828.0</ele><time>2026-04-27T14:24:30Z</time></trkpt><trkpt lat="40.23634206584026" lon="19.895691419778142"><ele>828.3333333333333</ele><time>2026-04-27T14:24:31Z</time></trkpt><trkpt lat="40.23633754313334" lon="19.895588025321665"><ele>828.6666666666666</ele><time>2026-04-27T14:24:32Z</time></trkpt><trkpt lat="40.23633986786347" lon="19.895474351121006"><ele>829.0</ele><time>2026-04-27T14:24:33Z</time></trkpt><trkpt lat="40.2363472552607" lon="19.895352459582604"><ele>829.0</ele><time>2026-04-27T14:24:34Z</time></trkpt><trkpt lat="40.236382945011115" lon="19.895235236873738"><ele>829.0</ele><time>2026-04-27T14:24:35Z</time></trkpt><trkpt lat="40.23642581472542" lon="19.895117066209163"><ele>829.0</ele><time>2026-04-27T14:24:36Z</time></trkpt><trkpt lat="40.236464638248414" lon="19.894986721699304"><ele>829.0</ele><time>2026-04-27T14:24:37Z</time></trkpt><trkpt lat="40.23650222192245" lon="19.89486682877069"><ele>829.0</ele><time>2026-04-27T14:24:38Z</time></trkpt><trkpt lat="40.23653296027575" lon="19.894750236989285"><ele>829.0</ele><time>2026-04-27T14:24:39Z</time></trkpt><trkpt lat="40.2365543487224" lon="19.89462752832381"><ele>829.0</ele><time>2026-04-27T14:24:40Z</time></trkpt><trkpt lat="40.23656879257452" lon="19.89449987844872"><ele>829.0</ele><time>2026-04-27T14:24:41Z</time></trkpt><trkpt lat="40.23659994818387" lon="19.894378667888557"><ele>829.0</ele><time>2026-04-27T14:24:42Z</time></trkpt><trkpt lat="40.23661131017237" lon="19.894261962253605"><ele>829.0</ele><time>2026-04-27T14:24:43Z</time></trkpt><trkpt lat="40.23661906112319" lon="19.894142012112102"><ele>828.9999999999999</ele><time>2026-04-27T14:24:45Z</time></trkpt><trkpt lat="40.236626675312635" lon="19.8940159784285"><ele>829.0</ele><time>2026-04-27T14:25:03Z</time></trkpt><trkpt lat="40.236644822009964" lon="19.893928172412743"><ele>829.0</ele><time>2026-04-27T14:25:04Z</time></trkpt><trkpt lat="40.23668947480082" lon="19.893862309887744"><ele>829.0</ele><time>2026-04-27T14:25:05Z</time></trkpt><trkpt lat="40.23670510792906" lon="19.893765595353912"><ele>828.9999999999999</ele><time>2026-04-27T14:25:06Z</time></trkpt><trkpt lat="40.23674303876508" lon="19.8936617361757"><ele>829.0</ele><time>2026-04-27T14:25:07Z</time></trkpt><trkpt lat="40.236796264038325" lon="19.893552261577966"><ele>828.6</ele><time>2026-04-27T14:25:08Z</time></trkpt><trkpt lat="40.23682113307788" lon="19.89342178635986"><ele>828.2</ele><time>2026-04-27T14:25:09Z</time></trkpt><trkpt lat="40.2368233586011" lon="19.893294882963264"><ele>827.8000000000001</ele><time>2026-04-27T14:25:10Z</time></trkpt><trkpt lat="40.23679774584037" lon="19.89313793763228"><ele>827.4000000000001</ele><time>2026-04-27T14:25:11Z</time></trkpt><trkpt lat="40.236775628255224" lon="19.89298490828361"><ele>827.0</ele><time>2026-04-27T14:25:12Z</time></trkpt><trkpt lat="40.23675248020304" lon="19.89282418933481"><ele>827.0</ele><time>2026-04-27T14:25:13Z</time></trkpt><trkpt lat="40.236726122999166" lon="19.892678076764305"><ele>827.0</ele><time>2026-04-27T14:25:14Z</time></trkpt><trkpt lat="40.23669763557726" lon="19.892532724119814"><ele>827.0</ele><time>2026-04-27T14:25:15Z</time></trkpt><trkpt lat="40.23667467541082" lon="19.89239063466577"><ele>827.0</ele><time>2026-04-27T14:25:16Z</time></trkpt><trkpt lat="40.236660954672345" lon="19.892253633429643"><ele>827.0</ele><time>2026-04-27T14:25:17Z</time></trkpt><trkpt lat="40.23664024947715" lon="19.892113044325534"><ele>826.2</ele><time>2026-04-27T14:25:18Z</time></trkpt><trkpt lat="40.236587243160145" lon="19.89199195581803"><ele>825.4000000000001</ele><time>2026-04-27T14:25:19Z</time></trkpt><trkpt lat="40.236546502223796" lon="19.891899295324745"><ele>824.5999999999999</ele><time>2026-04-27T14:25:20Z</time></trkpt><trkpt lat="40.236468230480945" lon="19.89180307054684"><ele>823.8</ele><time>2026-04-27T14:25:21Z</time></trkpt><trkpt lat="40.236354505509574" lon="19.89173855845887"><ele>823.0</ele><time>2026-04-27T14:25:22Z</time></trkpt><trkpt lat="40.23625533572556" lon="19.89172357248984"><ele>821.0</ele><time>2026-04-27T14:25:23Z</time></trkpt><trkpt lat="40.236166007890496" lon="19.891667816974305"><ele>819.0</ele><time>2026-04-27T14:25:24Z</time></trkpt><trkpt lat="40.23613034208225" lon="19.891567549109364"><ele>817.0</ele><time>2026-04-27T14:25:25Z</time></trkpt><trkpt lat="40.236063005356" lon="19.891447132245332"><ele>815.0</ele><time>2026-04-27T14:25:26Z</time></trkpt><trkpt lat="40.23599993691118" lon="19.891321115921144"><ele>813.0</ele><time>2026-04-27T14:25:27Z</time></trkpt><trkpt lat="40.23592951114422" lon="19.89117180713548"><ele>813.0</ele><time>2026-04-27T14:25:28Z</time></trkpt><trkpt lat="40.23585569715591" lon="19.891015434406686"><ele>813.0</ele><time>2026-04-27T14:25:29Z</time></trkpt><trkpt lat="40.23573688626792" lon="19.890893646442176"><ele>813.0</ele><time>2026-04-27T14:25:30Z</time></trkpt><trkpt lat="40.23563920564447" lon="19.89078531205611"><ele>813.0</ele><time>2026-04-27T14:25:31Z</time></trkpt><trkpt lat="40.23558190777725" lon="19.890721949329983"><ele>814.5</ele><time>2026-04-27T14:25:32Z</time></trkpt><trkpt lat="40.235532558503934" lon="19.890647942468565"><ele>816.0</ele><time>2026-04-27T14:25:33Z</time></trkpt><trkpt lat="40.23548847750402" lon="19.890570701189056"><ele>817.5</ele><time>2026-04-27T14:25:34Z</time></trkpt><trkpt lat="40.2354584091869" lon="19.890479431075835"><ele>819.0</ele><time>2026-04-27T14:25:35Z</time></trkpt><trkpt lat="40.2354375200733" lon="19.890363247405492"><ele>820.5</ele><time>2026-04-27T14:25:36Z</time></trkpt><trkpt lat="40.235411872325365" lon="19.890216903297013"><ele>822.0</ele><time>2026-04-27T14:25:37Z</time></trkpt><trkpt lat="40.23538719994441" lon="19.890061515087623"><ele>822.6</ele><time>2026-04-27T14:25:38Z</time></trkpt><trkpt lat="40.235360529557866" lon="19.889898247417065"><ele>823.2</ele><time>2026-04-27T14:25:39Z</time></trkpt><trkpt lat="40.23533643189858" lon="19.88976130823223"><ele>823.8</ele><time>2026-04-27T14:25:40Z</time></trkpt><trkpt lat="40.235316356180476" lon="19.88964722440943"><ele>824.4</ele><time>2026-04-27T14:25:41Z</time></trkpt><trkpt lat="40.23529416368468" lon="19.889539474971897"><ele>825.0</ele><time>2026-04-27T14:25:42Z</time></trkpt><trkpt lat="40.23527590480536" lon="19.889452915944503"><ele>825.0</ele><time>2026-04-27T14:25:43Z</time></trkpt><trkpt lat="40.23522332597397" lon="19.889376561985017"><ele>825.0</ele><time>2026-04-27T14:25:44Z</time></trkpt><trkpt lat="40.23514496968216" lon="19.88930119586606"><ele>825.0</ele><time>2026-04-27T14:25:45Z</time></trkpt><trkpt lat="40.23506163769943" lon="19.889225751077753"><ele>825.0</ele><time>2026-04-27T14:25:46Z</time></trkpt><trkpt lat="40.23498242523574" lon="19.889165233318018"><ele>825.0</ele><time>2026-04-27T14:25:47Z</time></trkpt><trkpt lat="40.23488316328949" lon="19.889148417164698"><ele>826.4</ele><time>2026-04-27T14:25:48Z</time></trkpt><trkpt lat="40.23480058064765" lon="19.889157512622894"><ele>827.8</ele><time>2026-04-27T14:25:49Z</time></trkpt><trkpt lat="40.2347220074844" lon="19.889164653194662"><ele>829.2</ele><time>2026-04-27T14:25:50Z</time></trkpt><trkpt lat="40.23463538948539" lon="19.889185744786612"><ele>830.6</ele><time>2026-04-27T14:25:51Z</time></trkpt><trkpt lat="40.23453253882994" lon="19.889224951061593"><ele>832.0</ele><time>2026-04-27T14:25:52Z</time></trkpt><trkpt lat="40.23441153573291" lon="19.889247812311254"><ele>831.6</ele><time>2026-04-27T14:25:53Z</time></trkpt><trkpt lat="40.23428743241948" lon="19.889292167589037"><ele>831.2</ele><time>2026-04-27T14:25:54Z</time></trkpt><trkpt lat="40.23417801642817" lon="19.889343323009335"><ele>830.8</ele><time>2026-04-27T14:25:55Z</time></trkpt><trkpt lat="40.23409467928401" lon="19.889381958937047"><ele>830.4</ele><time>2026-04-27T14:25:56Z</time></trkpt><trkpt lat="40.234025153056294" lon="19.889453296162685"><ele>830.0</ele><time>2026-04-27T14:25:57Z</time></trkpt><trkpt lat="40.23394161034375" lon="19.889519570193745"><ele>830.0</ele><time>2026-04-27T14:25:58Z</time></trkpt><trkpt lat="40.23385907246873" lon="19.889595195538675"><ele>830.0</ele><time>2026-04-27T14:25:59Z</time></trkpt><trkpt lat="40.23377452771642" lon="19.889672365783262"><ele>830.0</ele><time>2026-04-27T14:26:00Z</time></trkpt><trkpt lat="40.233669287480744" lon="19.889726554475843"><ele>830.0</ele><time>2026-04-27T14:26:01Z</time></trkpt><trkpt lat="40.2335430346902" lon="19.889763689425532"><ele>830.0</ele><time>2026-04-27T14:26:02Z</time></trkpt><trkpt lat="40.23339655567473" lon="19.889811085206162"><ele>830.0</ele><time>2026-04-27T14:26:03Z</time></trkpt><trkpt lat="40.23324730707178" lon="19.889940675745617"><ele>830.0</ele><time>2026-04-27T14:26:04Z</time></trkpt><trkpt lat="40.233127814412924" lon="19.89006667599437"><ele>830.0</ele><time>2026-04-27T14:26:05Z</time></trkpt><trkpt lat="40.2329780571507" lon="19.8901690613307"><ele>826.3333333333334</ele><time>2026-04-27T14:26:06Z</time></trkpt><trkpt lat="40.23282761851038" lon="19.890299601315373"><ele>822.6666666666667</ele><time>2026-04-27T14:26:07Z</time></trkpt><trkpt lat="40.2326679308215" lon="19.89043856680445"><ele>819.0</ele><time>2026-04-27T14:26:08Z</time></trkpt><trkpt lat="40.2325164808498" lon="19.890569743018716"><ele>819.0</ele><time>2026-04-27T14:26:09Z</time></trkpt><trkpt lat="40.23237011401323" lon="19.89069721063092"><ele>819.0</ele><time>2026-04-27T14:26:10Z</time></trkpt><trkpt lat="40.23222972005891" lon="19.89084330711202"><ele>819.0</ele><time>2026-04-27T14:26:11Z</time></trkpt><trkpt lat="40.23209307096497" lon="19.89096293897698"><ele>818.0</ele><time>2026-04-27T14:26:12Z</time></trkpt><trkpt lat="40.23195996952639" lon="19.89105270466302"><ele>817.0</ele><time>2026-04-27T14:26:13Z</time></trkpt><trkpt lat="40.23185213792866" lon="19.89114655786391"><ele>816.0</ele><time>2026-04-27T14:26:14Z</time></trkpt><trkpt lat="40.23175772794463" lon="19.891244784172525"><ele>815.0</ele><time>2026-04-27T14:26:15Z</time></trkpt><trkpt lat="40.23163474154026" lon="19.891253135615788"><ele>815.0</ele><time>2026-04-27T14:26:16Z</time></trkpt><trkpt lat="40.23151008486915" lon="19.891279988279788"><ele>815.0</ele><time>2026-04-27T14:26:17Z</time></trkpt><trkpt lat="40.231392451802016" lon="19.891185294802305"><ele>815.0</ele><time>2026-04-27T14:26:18Z</time></trkpt><trkpt lat="40.231281757457204" lon="19.891085310067602"><ele>815.0</ele><time>2026-04-27T14:26:19Z</time></trkpt><trkpt lat="40.23116183424384" lon="19.890987708502248"><ele>816.5</ele><time>2026-04-27T14:26:20Z</time></trkpt><trkpt lat="40.231041752109476" lon="19.89092146691641"><ele>818.0</ele><time>2026-04-27T14:26:21Z</time></trkpt><trkpt lat="40.23091557338902" lon="19.890892289808928"><ele>819.5</ele><time>2026-04-27T14:26:22Z</time></trkpt><trkpt lat="40.230792796624264" lon="19.890824334331818"><ele>821.0</ele><time>2026-04-27T14:26:23Z</time></trkpt><trkpt lat="40.23065922439741" lon="19.890756731467803"><ele>826.0</ele><time>2026-04-27T14:26:24Z</time></trkpt><trkpt lat="40.23059949850656" lon="19.89057622558049"><ele>831.0</ele><time>2026-04-27T14:26:25Z</time></trkpt><trkpt lat="40.230573201097904" lon="19.89040711346642"><ele>836.0</ele><time>2026-04-27T14:26:26Z</time></trkpt><trkpt lat="40.230506279949005" lon="19.890296011923045"><ele>841.0</ele><time>2026-04-27T14:26:27Z</time></trkpt><trkpt lat="40.23042589296107" lon="19.89018869732124"><ele>842.0</ele><time>2026-04-27T14:26:28Z</time></trkpt><trkpt lat="40.23037139809816" lon="19.890077335310774"><ele>843.0</ele><time>2026-04-27T14:26:29Z</time></trkpt><trkpt lat="40.23030275546572" lon="19.889985718811623"><ele>844.0</ele><time>2026-04-27T14:26:30Z</time></trkpt><trkpt lat="40.23029388319891" lon="19.8898572438398"><ele>845.0</ele><time>2026-04-27T14:26:31Z</time></trkpt><trkpt lat="40.23026651127672" lon="19.8897484106557"><ele>846.0</ele><time>2026-04-27T14:26:32Z</time></trkpt><trkpt lat="40.23024162436124" lon="19.88966756731326"><ele>846.0</ele><time>2026-04-27T14:26:33Z</time></trkpt><trkpt lat="40.23040507234323" lon="19.889693434372617"><ele>846.0</ele><time>2026-04-27T14:26:34Z</time></trkpt><trkpt lat="40.230471481474844" lon="19.889554653846208"><ele>846.0</ele><time>2026-04-27T14:26:36Z</time></trkpt><trkpt lat="40.230519371236376" lon="19.889421208702394"><ele>846.0</ele><time>2026-04-27T14:26:37Z</time></trkpt><trkpt lat="40.23057570247503" lon="19.889332150894663"><ele>847.5</ele><time>2026-04-27T14:26:38Z</time></trkpt><trkpt lat="40.2305592547693" lon="19.889205030572963"><ele>849.0</ele><time>2026-04-27T14:26:39Z</time></trkpt><trkpt lat="40.230509111416204" lon="19.889074282412622"><ele>850.5</ele><time>2026-04-27T14:26:40Z</time></trkpt><trkpt lat="40.23049549940225" lon="19.888917927943126"><ele>852.0</ele><time>2026-04-27T14:26:41Z</time></trkpt><trkpt lat="40.2304643727443" lon="19.888755644894125"><ele>852.0</ele><time>2026-04-27T14:26:42Z</time></trkpt><trkpt lat="40.23043696172998" lon="19.888613523209248"><ele>852.0</ele><time>2026-04-27T14:26:43Z</time></trkpt><trkpt lat="40.230414424865266" lon="19.88849509180618"><ele>852.0</ele><time>2026-04-27T14:26:44Z</time></trkpt><trkpt lat="40.23030330409398" lon="19.888420533048983"><ele>852.0</ele><time>2026-04-27T14:26:45Z</time></trkpt><trkpt lat="40.2302108512209" lon="19.888346558287118"><ele>852.0</ele><time>2026-04-27T14:26:46Z</time></trkpt><trkpt lat="40.230137729965435" lon="19.888237386960782"><ele>852.2</ele><time>2026-04-27T14:26:47Z</time></trkpt><trkpt lat="40.23009173104957" lon="19.8881151741861"><ele>852.4000000000001</ele><time>2026-04-27T14:26:48Z</time></trkpt><trkpt lat="40.230035399294636" lon="19.88799155970418"><ele>852.5999999999999</ele><time>2026-04-27T14:26:49Z</time></trkpt><trkpt lat="40.22998832267958" lon="19.887885845907434"><ele>852.8</ele><time>2026-04-27T14:26:50Z</time></trkpt><trkpt lat="40.230010567913524" lon="19.88777284277344"><ele>853.0</ele><time>2026-04-27T14:26:51Z</time></trkpt><trkpt lat="40.23005436428067" lon="19.8876740933972"><ele>853.5999999999999</ele><time>2026-04-27T14:26:52Z</time></trkpt><trkpt lat="40.23009107687825" lon="19.887541578785665"><ele>854.1999999999999</ele><time>2026-04-27T14:26:53Z</time></trkpt><trkpt lat="40.23012639434344" lon="19.887412328744396"><ele>854.8</ele><time>2026-04-27T14:26:54Z</time></trkpt><trkpt lat="40.23016520299312" lon="19.887273525850272"><ele>855.4</ele><time>2026-04-27T14:26:55Z</time></trkpt><trkpt lat="40.230159585476954" lon="19.887125599356533"><ele>856.0</ele><time>2026-04-27T14:26:56Z</time></trkpt><trkpt lat="40.23015730509192" lon="19.887042057780178"><ele>856.0</ele><time>2026-04-27T14:26:57Z</time></trkpt><trkpt lat="40.23005963119346" lon="19.886997620649367"><ele>855.9999999999999</ele><time>2026-04-27T14:26:58Z</time></trkpt><trkpt lat="40.22997528547907" lon="19.887017755119913"><ele>855.9999999999999</ele><time>2026-04-27T14:26:59Z</time></trkpt><trkpt lat="40.229897815319745" lon="19.88703565515053"><ele>856.0</ele><time>2026-04-27T14:27:00Z</time></trkpt><trkpt lat="40.22984580313121" lon="19.887153526739095"><ele>856.0</ele><time>2026-04-27T14:27:01Z</time></trkpt><trkpt lat="40.22978655877046" lon="19.8872647107473"><ele>861.0</ele><time>2026-04-27T14:27:02Z</time></trkpt><trkpt lat="40.229699584920404" lon="19.88739698149979"><ele>866.0</ele><time>2026-04-27T14:27:03Z</time></trkpt><trkpt lat="40.229598588877394" lon="19.887545627741197"><ele>871.0</ele><time>2026-04-27T14:27:04Z</time></trkpt><trkpt lat="40.22950121020264" lon="19.887726236401825"><ele>871.0</ele><time>2026-04-27T14:27:05Z</time></trkpt><trkpt lat="40.229423803188276" lon="19.88793007171734"><ele>871.0</ele><time>2026-04-27T14:27:06Z</time></trkpt><trkpt lat="40.2293626763404" lon="19.888100631001347"><ele>871.0</ele><time>2026-04-27T14:27:07Z</time></trkpt><trkpt lat="40.229295378257675" lon="19.888228997234243"><ele>871.0</ele><time>2026-04-27T14:27:08Z</time></trkpt><trkpt lat="40.229190543099136" lon="19.888309034463624"><ele>871.0</ele><time>2026-04-27T14:27:09Z</time></trkpt><trkpt lat="40.229091114556695" lon="19.888412824666247"><ele>871.0</ele><time>2026-04-27T14:27:10Z</time></trkpt><trkpt lat="40.22899944681753" lon="19.88850846490443"><ele>871.0</ele><time>2026-04-27T14:27:11Z</time></trkpt><trkpt lat="40.22891674729548" lon="19.88859588485052"><ele>871.0</ele><time>2026-04-27T14:27:12Z</time></trkpt><trkpt lat="40.22890355338182" lon="19.888749826101407"><ele>871.0</ele><time>2026-04-27T14:27:13Z</time></trkpt><trkpt lat="40.22889086698369" lon="19.88886274257898"><ele>870.9999999999999</ele><time>2026-04-27T14:27:14Z</time></trkpt><trkpt lat="40.22886618793016" lon="19.88898766000591"><ele>870.9999999999999</ele><time>2026-04-27T14:27:15Z</time></trkpt><trkpt lat="40.228911149355305" lon="19.889148250376202"><ele>871.0</ele><time>2026-04-27T14:27:16Z</time></trkpt><trkpt lat="40.22895486944382" lon="19.889298842194336"><ele>871.0</ele><time>2026-04-27T14:27:17Z</time></trkpt><trkpt lat="40.229004744017466" lon="19.88944980181195"><ele>871.0</ele><time>2026-04-27T14:27:18Z</time></trkpt><trkpt lat="40.229006693185724" lon="19.889579422922168"><ele>871.0</ele><time>2026-04-27T14:27:19Z</time></trkpt><trkpt lat="40.22893097586223" lon="19.889681625688233"><ele>871.0</ele><time>2026-04-27T14:27:20Z</time></trkpt><trkpt lat="40.228890321478445" lon="19.889830813022332"><ele>871.0</ele><time>2026-04-27T14:27:21Z</time></trkpt><trkpt lat="40.2288086352683" lon="19.889980643677358"><ele>875.5</ele><time>2026-04-27T14:27:22Z</time></trkpt><trkpt lat="40.228719608192634" lon="19.890145603066546"><ele>880.0</ele><time>2026-04-27T14:27:23Z</time></trkpt><trkpt lat="40.22871807010249" lon="19.890359631409098"><ele>884.5</ele><time>2026-04-27T14:27:24Z</time></trkpt><trkpt lat="40.22870787255374" lon="19.89051617074558"><ele>889.0</ele><time>2026-04-27T14:27:24.999Z</time></trkpt><trkpt lat="40.22864527263375" lon="19.890635944948137"><ele>889.0</ele><time>2026-04-27T14:27:25.999Z</time></trkpt><trkpt lat="40.22853219700172" lon="19.890737323497113"><ele>889.0</ele><time>2026-04-27T14:27:26.999Z</time></trkpt><trkpt lat="40.22841045334307" lon="19.890892559152455"><ele>889.0</ele><time>2026-04-27T14:27:27.999Z</time></trkpt><trkpt lat="40.22829688207594" lon="19.891037717455855"><ele>886.0</ele><time>2026-04-27T14:27:28.999Z</time></trkpt><trkpt lat="40.228181161871156" lon="19.891127327561325"><ele>883.0000000000001</ele><time>2026-04-27T14:27:29.999Z</time></trkpt><trkpt lat="40.22807413096992" lon="19.891192739768876"><ele>880.0000000000001</ele><time>2026-04-27T14:27:30.999Z</time></trkpt><trkpt lat="40.2279710369067" lon="19.891229611463597"><ele>877.0</ele><time>2026-04-27T14:27:31.999Z</time></trkpt><trkpt lat="40.22790670081023" lon="19.891196760472717"><ele>874.0</ele><time>2026-04-27T14:27:32.999Z</time></trkpt><trkpt lat="40.22785317770552" lon="19.891118641187077"><ele>874.0</ele><time>2026-04-27T14:27:34.999Z</time></trkpt><trkpt lat="40.22783604022567" lon="19.890941100134828"><ele>874.0000000000001</ele><time>2026-04-27T14:27:36.999Z</time></trkpt><trkpt lat="40.227809948848495" lon="19.890789119974936"><ele>874.0000000000001</ele><time>2026-04-27T14:27:37.999Z</time></trkpt><trkpt lat="40.22778665645756" lon="19.890653443958207"><ele>874.0</ele><time>2026-04-27T14:27:38.999Z</time></trkpt><trkpt lat="40.227766964309765" lon="19.89054661334638"><ele>874.0</ele><time>2026-04-27T14:27:39.999Z</time></trkpt><trkpt lat="40.227750995715006" lon="19.890460411825977"><ele>878.8000000000001</ele><time>2026-04-27T14:27:40.999Z</time></trkpt><trkpt lat="40.22770081474947" lon="19.89039643331685"><ele>883.6000000000001</ele><time>2026-04-27T14:27:41.999Z</time></trkpt><trkpt lat="40.22760689024143" lon="19.890410413863847"><ele>888.4</ele><time>2026-04-27T14:27:42.999Z</time></trkpt><trkpt lat="40.227532572124744" lon="19.890455885659975"><ele>893.2</ele><time>2026-04-27T14:27:43.999Z</time></trkpt><trkpt lat="40.22749787932613" lon="19.89062512988221"><ele>898.0</ele><time>2026-04-27T14:27:45Z</time></trkpt><trkpt lat="40.22745926115644" lon="19.890772283657487"><ele>899.25</ele><time>2026-04-27T14:27:46Z</time></trkpt><trkpt lat="40.227402269218196" lon="19.890924379544426"><ele>900.5</ele><time>2026-04-27T14:27:47Z</time></trkpt><trkpt lat="40.22729346503363" lon="19.891015552644323"><ele>901.75</ele><time>2026-04-27T14:27:48Z</time></trkpt><trkpt lat="40.227203601416555" lon="19.891131099189053"><ele>903.0</ele><time>2026-04-27T14:27:49Z</time></trkpt><trkpt lat="40.22714780169624" lon="19.89126838181555"><ele>903.0</ele><time>2026-04-27T14:27:50Z</time></trkpt><trkpt lat="40.22709772712432" lon="19.89140477413336"><ele>903.0</ele><time>2026-04-27T14:27:51Z</time></trkpt><trkpt lat="40.22704597920261" lon="19.891546387907862"><ele>903.0</ele><time>2026-04-27T14:27:52Z</time></trkpt><trkpt lat="40.226938506502044" lon="19.89163234010483"><ele>903.0</ele><time>2026-04-27T14:27:53Z</time></trkpt><trkpt lat="40.22685009530455" lon="19.891723840508416"><ele>903.0</ele><time>2026-04-27T14:27:54Z</time></trkpt><trkpt lat="40.226775715445555" lon="19.89175939769679"><ele>903.0</ele><time>2026-04-27T14:27:55Z</time></trkpt><trkpt lat="40.22670552823389" lon="19.891804602084484"><ele>903.0</ele><time>2026-04-27T14:27:56Z</time></trkpt><trkpt lat="40.22662800524991" lon="19.891715405640124"><ele>903.0</ele><time>2026-04-27T14:27:58Z</time></trkpt><trkpt lat="40.22659253773728" lon="19.8915790323906"><ele>903.0</ele><time>2026-04-27T14:28:00Z</time></trkpt><trkpt lat="40.22653878688341" lon="19.891473237836188"><ele>899.0</ele><time>2026-04-27T14:28:01Z</time></trkpt><trkpt lat="40.22647489418234" lon="19.891347145618745"><ele>895.0</ele><time>2026-04-27T14:28:02Z</time></trkpt><trkpt lat="40.22643181834729" lon="19.891224684767568"><ele>891.0</ele><time>2026-04-27T14:28:03Z</time></trkpt><trkpt lat="40.22638880083445" lon="19.891051896845884"><ele>887.0</ele><time>2026-04-27T14:28:04Z</time></trkpt><trkpt lat="40.226343035758745" lon="19.890874461122586"><ele>887.0</ele><time>2026-04-27T14:28:05Z</time></trkpt><trkpt lat="40.22629525511628" lon="19.890694007002782"><ele>887.0</ele><time>2026-04-27T14:28:06Z</time></trkpt><trkpt lat="40.226250131127294" lon="19.890523986423304"><ele>887.0</ele><time>2026-04-27T14:28:07Z</time></trkpt><trkpt lat="40.226208223905154" lon="19.890368897218874"><ele>887.0</ele><time>2026-04-27T14:28:08Z</time></trkpt><trkpt lat="40.2261722301471" lon="19.890225876488792"><ele>888.0</ele><time>2026-04-27T14:28:09Z</time></trkpt><trkpt lat="40.22613435662167" lon="19.890086609389957"><ele>889.0</ele><time>2026-04-27T14:28:10Z</time></trkpt><trkpt lat="40.22610907827564" lon="19.889946073871187"><ele>890.0</ele><time>2026-04-27T14:28:11Z</time></trkpt><trkpt lat="40.226075563297435" lon="19.88980046809544"><ele>891.0</ele><time>2026-04-27T14:28:12Z</time></trkpt><trkpt lat="40.22607738008634" lon="19.88964618608691"><ele>891.0</ele><time>2026-04-27T14:28:13Z</time></trkpt><trkpt lat="40.22607061818787" lon="19.889469222198912"><ele>891.0</ele><time>2026-04-27T14:28:14Z</time></trkpt><trkpt lat="40.226064979671854" lon="19.88930203810805"><ele>891.0</ele><time>2026-04-27T14:28:15Z</time></trkpt><trkpt lat="40.22605982282761" lon="19.889145679653875"><ele>891.0</ele><time>2026-04-27T14:28:16Z</time></trkpt><trkpt lat="40.22605384204985" lon="19.888983670998947"><ele>890.75</ele><time>2026-04-27T14:28:17Z</time></trkpt><trkpt lat="40.22604035215194" lon="19.88883032375357"><ele>890.5</ele><time>2026-04-27T14:28:18Z</time></trkpt><trkpt lat="40.22604188295538" lon="19.888681425628835"><ele>890.25</ele><time>2026-04-27T14:28:19Z</time></trkpt><trkpt lat="40.226037264459386" lon="19.88853083740877"><ele>890.0</ele><time>2026-04-27T14:28:20Z</time></trkpt><trkpt lat="40.22602857084524" lon="19.888392728713292"><ele>890.0</ele><time>2026-04-27T14:28:21Z</time></trkpt><trkpt lat="40.226042281479266" lon="19.88825354216602"><ele>890.0</ele><time>2026-04-27T14:28:22Z</time></trkpt><trkpt lat="40.22604153717785" lon="19.888117121788603"><ele>890.0</ele><time>2026-04-27T14:28:23Z</time></trkpt><trkpt lat="40.22604088996266" lon="19.887995517412506"><ele>890.0</ele><time>2026-04-27T14:28:24Z</time></trkpt><trkpt lat="40.22603958114816" lon="19.8878761531621"><ele>890.0</ele><time>2026-04-27T14:28:25Z</time></trkpt><trkpt lat="40.22603685966597" lon="19.887754780219243"><ele>890.0</ele><time>2026-04-27T14:28:26Z</time></trkpt><trkpt lat="40.226032675190275" lon="19.88763941644455"><ele>890.0</ele><time>2026-04-27T14:28:27Z</time></trkpt><trkpt lat="40.22602761297026" lon="19.887523493377206"><ele>890.0</ele><time>2026-04-27T14:28:28Z</time></trkpt><trkpt lat="40.22602339811186" lon="19.887406721311287"><ele>890.0</ele><time>2026-04-27T14:28:29Z</time></trkpt><trkpt lat="40.226018898607286" lon="19.887285044574202"><ele>890.0</ele><time>2026-04-27T14:28:30Z</time></trkpt><trkpt lat="40.2260139446128" lon="19.887165116360716"><ele>890.1666666666667</ele><time>2026-04-27T14:28:31Z</time></trkpt><trkpt lat="40.22600698122093" lon="19.88706262611685"><ele>890.3333333333334</ele><time>2026-04-27T14:28:32Z</time></trkpt><trkpt lat="40.22599723326228" lon="19.886980237769613"><ele>890.5</ele><time>2026-04-27T14:28:33Z</time></trkpt><trkpt lat="40.22591846307664" lon="19.886884888659022"><ele>890.6666666666667</ele><time>2026-04-27T14:28:35Z</time></trkpt><trkpt lat="40.22585529376109" lon="19.88689067560914"><ele>890.8333333333334</ele><time>2026-04-27T14:28:36Z</time></trkpt><trkpt lat="40.2257855563776" lon="19.88691553025916"><ele>891.0</ele><time>2026-04-27T14:28:37Z</time></trkpt><trkpt lat="40.22571040943214" lon="19.887019129306285"><ele>895.5</ele><time>2026-04-27T14:28:38Z</time></trkpt><trkpt lat="40.22561494799612" lon="19.887125275488728"><ele>900.0</ele><time>2026-04-27T14:28:39Z</time></trkpt><trkpt lat="40.2254980203798" lon="19.88725441919477"><ele>904.5</ele><time>2026-04-27T14:28:40Z</time></trkpt><trkpt lat="40.2254209253413" lon="19.887339052113177"><ele>909.0</ele><time>2026-04-27T14:28:41Z</time></trkpt><trkpt lat="40.22538258135687" lon="19.88742433584737"><ele>909.0</ele><time>2026-04-27T14:28:42Z</time></trkpt><trkpt lat="40.225358374958525" lon="19.887527811295207"><ele>909.0</ele><time>2026-04-27T14:28:43Z</time></trkpt><trkpt lat="40.225353645650074" lon="19.88765691078307"><ele>909.0</ele><time>2026-04-27T14:28:44Z</time></trkpt><trkpt lat="40.225320577723096" lon="19.887815458470172"><ele>909.0</ele><time>2026-04-27T14:28:45Z</time></trkpt><trkpt lat="40.225291004921694" lon="19.888025067479585"><ele>906.3333333333333</ele><time>2026-04-27T14:28:46Z</time></trkpt><trkpt lat="40.22525557494295" lon="19.8882803984484"><ele>903.6666666666666</ele><time>2026-04-27T14:28:47Z</time></trkpt><trkpt lat="40.22524377068657" lon="19.888498547575104"><ele>901.0</ele><time>2026-04-27T14:28:48Z</time></trkpt><trkpt lat="40.2252370811513" lon="19.888635350813207"><ele>900.8333333333333</ele><time>2026-04-27T14:28:49Z</time></trkpt><trkpt lat="40.22523507229289" lon="19.88873792904358"><ele>900.6666666666666</ele><time>2026-04-27T14:28:50Z</time></trkpt><trkpt lat="40.22519557355587" lon="19.888805010937602"><ele>900.5</ele><time>2026-04-27T14:28:51Z</time></trkpt><trkpt lat="40.22511451581994" lon="19.888812752078728"><ele>900.3333333333333</ele><time>2026-04-27T14:28:52Z</time></trkpt><trkpt lat="40.22503314138998" lon="19.888880458751597"><ele>900.1666666666666</ele><time>2026-04-27T14:28:53Z</time></trkpt><trkpt lat="40.224927764680025" lon="19.888943398090674"><ele>900.0</ele><time>2026-04-27T14:28:54Z</time></trkpt><trkpt lat="40.22482793568877" lon="19.888999436152275"><ele>902.4</ele><time>2026-04-27T14:28:55Z</time></trkpt><trkpt lat="40.224744549587385" lon="19.888987263126655"><ele>904.8</ele><time>2026-04-27T14:28:56Z</time></trkpt><trkpt lat="40.224667274107254" lon="19.888980455097535"><ele>907.2</ele><time>2026-04-27T14:28:57Z</time></trkpt><trkpt lat="40.22460690608197" lon="19.889064071793094"><ele>909.6</ele><time>2026-04-27T14:28:58Z</time></trkpt><trkpt lat="40.22460628996752" lon="19.889205736078058"><ele>912.0</ele><time>2026-04-27T14:28:59Z</time></trkpt><trkpt lat="40.22466995251969" lon="19.889338137826737"><ele>913.0</ele><time>2026-04-27T14:29:00Z</time></trkpt><trkpt lat="40.22474755036906" lon="19.889444096224615"><ele>914.0</ele><time>2026-04-27T14:29:01Z</time></trkpt><trkpt lat="40.22487036370947" lon="19.889535119165775"><ele>915.0</ele><time>2026-04-27T14:29:02Z</time></trkpt><trkpt lat="40.22497575964024" lon="19.889628705003393"><ele>916.0</ele><time>2026-04-27T14:29:03Z</time></trkpt><trkpt lat="40.2250138109197" lon="19.889725330963454"><ele>915.9999999999999</ele><time>2026-04-27T14:29:04Z</time></trkpt><trkpt lat="40.22499085102423" lon="19.88982790401867"><ele>916.0</ele><time>2026-04-27T14:29:05Z</time></trkpt><trkpt lat="40.22494268169622" lon="19.889932944047132"><ele>916.0</ele><time>2026-04-27T14:29:06Z</time></trkpt><trkpt lat="40.22485781511259" lon="19.890002309353857"><ele>916.0</ele><time>2026-04-27T14:29:07Z</time></trkpt><trkpt lat="40.22477557436559" lon="19.890050723786988"><ele>915.9999999999999</ele><time>2026-04-27T14:29:08Z</time></trkpt><trkpt lat="40.2246976350759" lon="19.890021627790674"><ele>916.0</ele><time>2026-04-27T14:29:09Z</time></trkpt><trkpt lat="40.22461987292263" lon="19.88999666683483"><ele>916.0</ele><time>2026-04-27T14:29:10Z</time></trkpt><trkpt lat="40.22452612202467" lon="19.88997195869652"><ele>916.0</ele><time>2026-04-27T14:29:11Z</time></trkpt><trkpt lat="40.22443118834319" lon="19.889922621751975"><ele>916.0</ele><time>2026-04-27T14:29:12Z</time></trkpt><trkpt lat="40.22434945357651" lon="19.889824393324155"><ele>916.0</ele><time>2026-04-27T14:29:13Z</time></trkpt><trkpt lat="40.224248359069044" lon="19.8896959317153"><ele>916.0</ele><time>2026-04-27T14:29:14Z</time></trkpt><trkpt lat="40.22415417939274" lon="19.8895447431025"><ele>916.0</ele><time>2026-04-27T14:29:15Z</time></trkpt><trkpt lat="40.22410814987615" lon="19.889373443504237"><ele>916.0</ele><time>2026-04-27T14:29:16Z</time></trkpt><trkpt lat="40.22407071584417" lon="19.88921048832996"><ele>916.0</ele><time>2026-04-27T14:29:17Z</time></trkpt><trkpt lat="40.22403541480348" lon="19.889065634528126"><ele>915.1999999999999</ele><time>2026-04-27T14:29:18Z</time></trkpt><trkpt lat="40.22400189063155" lon="19.88894692654527"><ele>914.3999999999999</ele><time>2026-04-27T14:29:19Z</time></trkpt><trkpt lat="40.22394879263195" lon="19.888845760155245"><ele>913.6</ele><time>2026-04-27T14:29:20Z</time></trkpt><trkpt lat="40.223834522741434" lon="19.88880006478178"><ele>912.8</ele><time>2026-04-27T14:29:21Z</time></trkpt><trkpt lat="40.22375493159002" lon="19.888753168279624"><ele>912.0</ele><time>2026-04-27T14:29:22Z</time></trkpt><trkpt lat="40.223650544328045" lon="19.888842671788428"><ele>913.4000000000001</ele><time>2026-04-27T14:29:23Z</time></trkpt><trkpt lat="40.22358101409184" lon="19.88890500541211"><ele>914.8000000000001</ele><time>2026-04-27T14:29:24Z</time></trkpt><trkpt lat="40.22350472498088" lon="19.888988699302576"><ele>916.2</ele><time>2026-04-27T14:29:25Z</time></trkpt><trkpt lat="40.2234074786554" lon="19.889070596167777"><ele>917.6</ele><time>2026-04-27T14:29:26Z</time></trkpt><trkpt lat="40.22330636548825" lon="19.889175768265904"><ele>919.0</ele><time>2026-04-27T14:29:27Z</time></trkpt><trkpt lat="40.22319979113057" lon="19.889287017169494"><ele>918.25</ele><time>2026-04-27T14:29:28Z</time></trkpt><trkpt lat="40.223071079587285" lon="19.889372969029942"><ele>917.5</ele><time>2026-04-27T14:29:29Z</time></trkpt><trkpt lat="40.22294646571231" lon="19.889465659414277"><ele>916.75</ele><time>2026-04-27T14:29:30Z</time></trkpt><trkpt lat="40.22283733278122" lon="19.88954683254765"><ele>916.0</ele><time>2026-04-27T14:29:30.999Z</time></trkpt><trkpt lat="40.222739091604" lon="19.889629330877828"><ele>916.0</ele><time>2026-04-27T14:29:31.999Z</time></trkpt><trkpt lat="40.22261848512988" lon="19.889652277144542"><ele>916.0</ele><time>2026-04-27T14:29:32.999Z</time></trkpt><trkpt lat="40.22250407381684" lon="19.88969780871592"><ele>916.0</ele><time>2026-04-27T14:29:33.999Z</time></trkpt><trkpt lat="40.22238944381633" lon="19.889742944895996"><ele>916.0</ele><time>2026-04-27T14:29:34.999Z</time></trkpt><trkpt lat="40.22227471706096" lon="19.889787891706103"><ele>917.8</ele><time>2026-04-27T14:29:35.999Z</time></trkpt><trkpt lat="40.22216022133061" lon="19.88983269063869"><ele>919.5999999999999</ele><time>2026-04-27T14:29:36.999Z</time></trkpt><trkpt lat="40.22205679653366" lon="19.889874235701587"><ele>921.4</ele><time>2026-04-27T14:29:37.999Z</time></trkpt><trkpt lat="40.22196264242737" lon="19.889911894471805"><ele>923.2</ele><time>2026-04-27T14:29:38.999Z</time></trkpt><trkpt lat="40.22186333289664" lon="19.88995136442508"><ele>925.0</ele><time>2026-04-27T14:29:39.999Z</time></trkpt><trkpt lat="40.22175766719317" lon="19.889992951728"><ele>925.0</ele><time>2026-04-27T14:29:40.999Z</time></trkpt><trkpt lat="40.221648072310046" lon="19.89003666526032"><ele>925.0</ele><time>2026-04-27T14:29:41.999Z</time></trkpt><trkpt lat="40.221535016171806" lon="19.890097768991108"><ele>925.0</ele><time>2026-04-27T14:29:42.999Z</time></trkpt><trkpt lat="40.221428756984565" lon="19.890176748563555"><ele>925.0</ele><time>2026-04-27T14:29:43.999Z</time></trkpt><trkpt lat="40.22131153501881" lon="19.890243883742336"><ele>926.25</ele><time>2026-04-27T14:29:44.999Z</time></trkpt><trkpt lat="40.221194096387514" lon="19.890322325873356"><ele>927.5</ele><time>2026-04-27T14:29:45.999Z</time></trkpt><trkpt lat="40.221080463168384" lon="19.890398274948012"><ele>928.75</ele><time>2026-04-27T14:29:46.999Z</time></trkpt><trkpt lat="40.220973556994686" lon="19.89047270821762"><ele>930.0</ele><time>2026-04-27T14:29:47.999Z</time></trkpt><trkpt lat="40.220881372436345" lon="19.890535004497067"><ele>930.0</ele><time>2026-04-27T14:29:48.999Z</time></trkpt><trkpt lat="40.22081334705453" lon="19.890614224954003"><ele>930.0</ele><time>2026-04-27T14:29:49.999Z</time></trkpt><trkpt lat="40.22076126838741" lon="19.89070572293063"><ele>930.0</ele><time>2026-04-27T14:29:50.999Z</time></trkpt><trkpt lat="40.22072497477781" lon="19.89081182556624"><ele>930.0</ele><time>2026-04-27T14:29:51.999Z</time></trkpt><trkpt lat="40.220702932410205" lon="19.890935793760264"><ele>930.0</ele><time>2026-04-27T14:29:52.999Z</time></trkpt><trkpt lat="40.220700323477075" lon="19.891073042128664"><ele>929.75</ele><time>2026-04-27T14:29:53.999Z</time></trkpt><trkpt lat="40.220714090021524" lon="19.891219963541516"><ele>929.5</ele><time>2026-04-27T14:29:55Z</time></trkpt><trkpt lat="40.22073052703991" lon="19.891370137934377"><ele>929.25</ele><time>2026-04-27T14:29:56Z</time></trkpt><trkpt lat="40.220736495168104" lon="19.891523711954967"><ele>929.0</ele><time>2026-04-27T14:29:57Z</time></trkpt><trkpt lat="40.2207527085951" lon="19.891684222716503"><ele>928.2</ele><time>2026-04-27T14:29:58Z</time></trkpt><trkpt lat="40.22069419246757" lon="19.8918407330389"><ele>927.4000000000001</ele><time>2026-04-27T14:29:59Z</time></trkpt><trkpt lat="40.22065983380149" lon="19.89197553480618"><ele>926.6</ele><time>2026-04-27T14:30:00Z</time></trkpt><trkpt lat="40.22062141693961" lon="19.89209999382183"><ele>925.8</ele><time>2026-04-27T14:30:01Z</time></trkpt><trkpt lat="40.22057581245881" lon="19.89220820264838"><ele>925.0</ele><time>2026-04-27T14:30:02Z</time></trkpt><trkpt lat="40.22052470519516" lon="19.892318240805857"><ele>926.0</ele><time>2026-04-27T14:30:03Z</time></trkpt><trkpt lat="40.22047777682584" lon="19.892455050441253"><ele>927.0</ele><time>2026-04-27T14:30:04Z</time></trkpt><trkpt lat="40.22044691768759" lon="19.892612733212076"><ele>928.0</ele><time>2026-04-27T14:30:05Z</time></trkpt><trkpt lat="40.22042933256249" lon="19.89277528541199"><ele>929.0</ele><time>2026-04-27T14:30:06Z</time></trkpt><trkpt lat="40.22042511725205" lon="19.892915910292626"><ele>929.0</ele><time>2026-04-27T14:30:07Z</time></trkpt><trkpt lat="40.22041388776252" lon="19.893042723706795"><ele>929.0000000000001</ele><time>2026-04-27T14:30:08Z</time></trkpt><trkpt lat="40.220381698508305" lon="19.893161854746985"><ele>929.0000000000001</ele><time>2026-04-27T14:30:09Z</time></trkpt><trkpt lat="40.22031677771932" lon="19.893273081364782"><ele>929.0</ele><time>2026-04-27T14:30:10Z</time></trkpt><trkpt lat="40.220242592878655" lon="19.893398391442673"><ele>929.0</ele><time>2026-04-27T14:30:11Z</time></trkpt><trkpt lat="40.22015728912619" lon="19.89352423468261"><ele>928.0</ele><time>2026-04-27T14:30:12Z</time></trkpt><trkpt lat="40.22007638024034" lon="19.893665560956457"><ele>927.0</ele><time>2026-04-27T14:30:13Z</time></trkpt><trkpt lat="40.21997068508032" lon="19.893779279442807"><ele>926.0</ele><time>2026-04-27T14:30:14Z</time></trkpt><trkpt lat="40.21989034275615" lon="19.893928310249205"><ele>925.0</ele><time>2026-04-27T14:30:15Z</time></trkpt><trkpt lat="40.21980289388034" lon="19.894068760419998"><ele>926.5</ele><time>2026-04-27T14:30:16Z</time></trkpt><trkpt lat="40.219702591270234" lon="19.894191793039603"><ele>928.0</ele><time>2026-04-27T14:30:17Z</time></trkpt><trkpt lat="40.219599606185184" lon="19.894315997755932"><ele>929.5</ele><time>2026-04-27T14:30:18Z</time></trkpt><trkpt lat="40.219491836857024" lon="19.894445609884308"><ele>931.0</ele><time>2026-04-27T14:30:19Z</time></trkpt><trkpt lat="40.21938417524358" lon="19.89457637330349"><ele>931.0</ele><time>2026-04-27T14:30:20Z</time></trkpt><trkpt lat="40.219308838852065" lon="19.89472239377154"><ele>931.0</ele><time>2026-04-27T14:30:21Z</time></trkpt><trkpt lat="40.219226850413925" lon="19.894821876910928"><ele>931.0</ele><time>2026-04-27T14:30:22Z</time></trkpt><trkpt lat="40.21913297817658" lon="19.894894986521876"><ele>931.0</ele><time>2026-04-27T14:30:23Z</time></trkpt><trkpt lat="40.21901590298833" lon="19.89486833491397"><ele>932.0</ele><time>2026-04-27T14:30:24Z</time></trkpt><trkpt lat="40.21889733145505" lon="19.894901493024825"><ele>933.0</ele><time>2026-04-27T14:30:25Z</time></trkpt><trkpt lat="40.21877724641793" lon="19.89493989683596"><ele>934.0</ele><time>2026-04-27T14:30:26Z</time></trkpt><trkpt lat="40.218650789422405" lon="19.894980367652042"><ele>935.0</ele><time>2026-04-27T14:30:27Z</time></trkpt><trkpt lat="40.218516581951484" lon="19.89502331888203"><ele>936.0</ele><time>2026-04-27T14:30:28Z</time></trkpt><trkpt lat="40.2183814147316" lon="19.895092396304076"><ele>937.0</ele><time>2026-04-27T14:30:29Z</time></trkpt><trkpt lat="40.21824543319982" lon="19.895185687382963"><ele>938.0</ele><time>2026-04-27T14:30:30Z</time></trkpt><trkpt lat="40.218099034981286" lon="19.895286978851875"><ele>940.0</ele><time>2026-04-27T14:30:31Z</time></trkpt><trkpt lat="40.21795479997545" lon="19.89540110910018"><ele>942.0</ele><time>2026-04-27T14:30:32Z</time></trkpt><trkpt lat="40.2178103469956" lon="19.895524972394462"><ele>944.0</ele><time>2026-04-27T14:30:33Z</time></trkpt><trkpt lat="40.21766364798394" lon="19.89565228590659"><ele>944.0</ele><time>2026-04-27T14:30:34Z</time></trkpt><trkpt lat="40.21752330051573" lon="19.895802108027127"><ele>944.0</ele><time>2026-04-27T14:30:35Z</time></trkpt><trkpt lat="40.21737164428775" lon="19.895943943957043"><ele>944.0</ele><time>2026-04-27T14:30:36Z</time></trkpt><trkpt lat="40.217218344797224" lon="19.89607990507829"><ele>945.0</ele><time>2026-04-27T14:30:37Z</time></trkpt><trkpt lat="40.217069105755854" lon="19.89620751907811"><ele>946.0</ele><time>2026-04-27T14:30:38Z</time></trkpt><trkpt lat="40.21693334194026" lon="19.89632004690681"><ele>947.0</ele><time>2026-04-27T14:30:39Z</time></trkpt><trkpt lat="40.21682645606759" lon="19.896424891457478"><ele>947.0</ele><time>2026-04-27T14:30:40Z</time></trkpt><trkpt lat="40.21674362556745" lon="19.89655094194037"><ele>947.0</ele><time>2026-04-27T14:30:41Z</time></trkpt><trkpt lat="40.21667015464528" lon="19.896704267913677"><ele>947.0</ele><time>2026-04-27T14:30:42Z</time></trkpt><trkpt lat="40.216601156169055" lon="19.89686417248835"><ele>947.0</ele><time>2026-04-27T14:30:43Z</time></trkpt><trkpt lat="40.21653399248802" lon="19.897002129959077"><ele>947.75</ele><time>2026-04-27T14:30:44Z</time></trkpt><trkpt lat="40.21644076331415" lon="19.89708492347189"><ele>948.5</ele><time>2026-04-27T14:30:45Z</time></trkpt><trkpt lat="40.21633168342919" lon="19.89712980093923"><ele>949.25</ele><time>2026-04-27T14:30:46Z</time></trkpt><trkpt lat="40.21620677047095" lon="19.89718614362531"><ele>950.0</ele><time>2026-04-27T14:30:47Z</time></trkpt><trkpt lat="40.2160776636335" lon="19.897243586588182"><ele>950.0</ele><time>2026-04-27T14:30:48Z</time></trkpt><trkpt lat="40.21594495500721" lon="19.897303471999642"><ele>950.0</ele><time>2026-04-27T14:30:49Z</time></trkpt><trkpt lat="40.21580806827317" lon="19.897387013639822"><ele>950.0</ele><time>2026-04-27T14:30:50Z</time></trkpt><trkpt lat="40.21565464173715" lon="19.897459962259784"><ele>951.3333333333334</ele><time>2026-04-27T14:30:51Z</time></trkpt><trkpt lat="40.21549765839167" lon="19.897549389239362"><ele>952.6666666666667</ele><time>2026-04-27T14:30:52Z</time></trkpt><trkpt lat="40.2153426895786" lon="19.897658498375794"><ele>954.0</ele><time>2026-04-27T14:30:53Z</time></trkpt><trkpt lat="40.215186348017596" lon="19.897783393903772"><ele>954.0</ele><time>2026-04-27T14:30:54Z</time></trkpt><trkpt lat="40.215029656940665" lon="19.89791566135047"><ele>954.0</ele><time>2026-04-27T14:30:55Z</time></trkpt><trkpt lat="40.21487249237331" lon="19.898050287845543"><ele>954.0</ele><time>2026-04-27T14:30:56Z</time></trkpt><trkpt lat="40.21473050058093" lon="19.8981692041059"><ele>954.3333333333333</ele><time>2026-04-27T14:30:57Z</time></trkpt><trkpt lat="40.21457583475329" lon="19.898220010592514"><ele>954.6666666666666</ele><time>2026-04-27T14:30:58Z</time></trkpt><trkpt lat="40.21441578627924" lon="19.898277731328577"><ele>955.0</ele><time>2026-04-27T14:30:59Z</time></trkpt><trkpt lat="40.21424982836768" lon="19.89833638126176"><ele>955.0</ele><time>2026-04-27T14:31:00Z</time></trkpt><trkpt lat="40.21407202566169" lon="19.898399510314498"><ele>955.0</ele><time>2026-04-27T14:31:01Z</time></trkpt><trkpt lat="40.21389044094281" lon="19.89846414288951"><ele>955.0</ele><time>2026-04-27T14:31:02Z</time></trkpt><trkpt lat="40.21370181372312" lon="19.898530905240108"><ele>956.0</ele><time>2026-04-27T14:31:03Z</time></trkpt><trkpt lat="40.21351129194253" lon="19.898598338125048"><ele>957.0</ele><time>2026-04-27T14:31:04Z</time></trkpt><trkpt lat="40.213338100359636" lon="19.898659864825447"><ele>958.0</ele><time>2026-04-27T14:31:05Z</time></trkpt><trkpt lat="40.21317527559946" lon="19.898717973607592"><ele>959.0</ele><time>2026-04-27T14:31:06Z</time></trkpt><trkpt lat="40.21301356469424" lon="19.898775005609824"><ele>960.0</ele><time>2026-04-27T14:31:07Z</time></trkpt><trkpt lat="40.21285274688585" lon="19.898832739532857"><ele>961.0</ele><time>2026-04-27T14:31:08Z</time></trkpt><trkpt lat="40.21270599224818" lon="19.898884802341822"><ele>961.0</ele><time>2026-04-27T14:31:09Z</time></trkpt><trkpt lat="40.21258091205473" lon="19.898928829845765"><ele>961.0</ele><time>2026-04-27T14:31:10Z</time></trkpt><trkpt lat="40.21247197662423" lon="19.898960089149703"><ele>961.0</ele><time>2026-04-27T14:31:11Z</time></trkpt><trkpt lat="40.212359849309756" lon="19.89897671640309"><ele>961.0</ele><time>2026-04-27T14:31:12Z</time></trkpt><trkpt lat="40.21225731201461" lon="19.89899246165403"><ele>961.2857142857142</ele><time>2026-04-27T14:31:13Z</time></trkpt><trkpt lat="40.212168497437865" lon="19.89900631072384"><ele>961.5714285714284</ele><time>2026-04-27T14:31:14Z</time></trkpt><trkpt lat="40.212091920881356" lon="19.899018904074453"><ele>961.8571428571429</ele><time>2026-04-27T14:31:15Z</time></trkpt><trkpt lat="40.21202744217419" lon="19.899028197743924"><ele>962.1428571428571</ele><time>2026-04-27T14:31:16Z</time></trkpt><trkpt lat="40.211977789351344" lon="19.898954943987494"><ele>962.4285714285714</ele><time>2026-04-27T14:31:19Z</time></trkpt><trkpt lat="40.21197971075024" lon="19.89886503535642"><ele>962.7142857142858</ele><time>2026-04-27T14:32:39Z</time></trkpt><trkpt lat="40.21195076949081" lon="19.898786005097843"><ele>963.0000000000001</ele><time>2026-04-27T14:33:30.001Z</time></trkpt><trkpt lat="40.21193467877186" lon="19.898702447926983"><ele>963.0</ele><time>2026-04-27T14:33:33.001Z</time></trkpt><trkpt lat="40.211916776610934" lon="19.898567469171574"><ele>963.0</ele><time>2026-04-27T14:34:29.001Z</time></trkpt><trkpt lat="40.21189889971021" lon="19.898486901962006"><ele>963.0</ele><time>2026-04-27T14:34:30.001Z</time></trkpt><trkpt lat="40.21187966875419" lon="19.89840064392626"><ele>963.0</ele><time>2026-04-27T14:34:31.001Z</time></trkpt><trkpt lat="40.21185665935582" lon="19.898297528256098"><ele>963.0</ele><time>2026-04-27T14:34:32.001Z</time></trkpt><trkpt lat="40.211830441774055" lon="19.898179068841717"><ele>963.0</ele><time>2026-04-27T14:34:33.001Z</time></trkpt><trkpt lat="40.21178994959859" lon="19.898030271570324"><ele>963.4</ele><time>2026-04-27T14:34:34.001Z</time></trkpt><trkpt lat="40.211730046035235" lon="19.89790755072522"><ele>963.8</ele><time>2026-04-27T14:34:35.001Z</time></trkpt><trkpt lat="40.21167926878337" lon="19.897802633497644"><ele>964.2</ele><time>2026-04-27T14:34:36.001Z</time></trkpt><trkpt lat="40.21163368872947" lon="19.89771001041978"><ele>964.6</ele><time>2026-04-27T14:34:37.001Z</time></trkpt><trkpt lat="40.21158513893197" lon="19.89760956458515"><ele>965.0</ele><time>2026-04-27T14:34:38.001Z</time></trkpt><trkpt lat="40.21152975126732" lon="19.897498062222407"><ele>965.5</ele><time>2026-04-27T14:34:39.001Z</time></trkpt><trkpt lat="40.21146707609752" lon="19.897392842437025"><ele>966.0</ele><time>2026-04-27T14:34:40.001Z</time></trkpt><trkpt lat="40.2114005654923" lon="19.89728024077366"><ele>966.5</ele><time>2026-04-27T14:34:41.001Z</time></trkpt><trkpt lat="40.2113291796272" lon="19.897160381505845"><ele>967.0</ele><time>2026-04-27T14:34:42.001Z</time></trkpt><trkpt lat="40.2112177011207" lon="19.897049060716405"><ele>967.0</ele><time>2026-04-27T14:34:43.001Z</time></trkpt><trkpt lat="40.2111086960355" lon="19.896961218289334"><ele>967.0</ele><time>2026-04-27T14:34:44.001Z</time></trkpt><trkpt lat="40.21100906909308" lon="19.896879951115498"><ele>967.0</ele><time>2026-04-27T14:34:45.001Z</time></trkpt><trkpt lat="40.21092317159913" lon="19.896810179378065"><ele>967.0</ele><time>2026-04-27T14:34:46.001Z</time></trkpt><trkpt lat="40.21086418291744" lon="19.896731458151667"><ele>967.0</ele><time>2026-04-27T14:34:47.001Z</time></trkpt><trkpt lat="40.210799196076444" lon="19.896648627050677"><ele>966.8</ele><time>2026-04-27T14:34:48.001Z</time></trkpt><trkpt lat="40.21076738100036" lon="19.896555600372203"><ele>966.6</ele><time>2026-04-27T14:34:49.001Z</time></trkpt><trkpt lat="40.210726262420465" lon="19.89643969772652"><ele>966.3999999999999</ele><time>2026-04-27T14:34:50.001Z</time></trkpt><trkpt lat="40.21068545672082" lon="19.89632021746056"><ele>966.1999999999999</ele><time>2026-04-27T14:34:51.001Z</time></trkpt><trkpt lat="40.210645451077745" lon="19.89619003481263"><ele>966.0</ele><time>2026-04-27T14:34:52.001Z</time></trkpt><trkpt lat="40.210604253352926" lon="19.896057812815105"><ele>966.0</ele><time>2026-04-27T14:34:53.001Z</time></trkpt><trkpt lat="40.21056239888088" lon="19.895922875207543"><ele>965.9999999999999</ele><time>2026-04-27T14:34:54.001Z</time></trkpt><trkpt lat="40.21051999929688" lon="19.895784496812468"><ele>965.9999999999999</ele><time>2026-04-27T14:34:55.001Z</time></trkpt><trkpt lat="40.21045769915323" lon="19.89564316767414"><ele>966.0</ele><time>2026-04-27T14:34:56.001Z</time></trkpt><trkpt lat="40.210399112642556" lon="19.895540129708703"><ele>966.0</ele><time>2026-04-27T14:34:57.001Z</time></trkpt><trkpt lat="40.210337842676395" lon="19.895435246203835"><ele>968.25</ele><time>2026-04-27T14:34:58.001Z</time></trkpt><trkpt lat="40.21026412393915" lon="19.895311220579085"><ele>970.5</ele><time>2026-04-27T14:34:59.001Z</time></trkpt><trkpt lat="40.21015852058615" lon="19.89513292864743"><ele>972.75</ele><time>2026-04-27T14:35:00.001Z</time></trkpt><trkpt lat="40.210063004036876" lon="19.89497121124474"><ele>975.0</ele><time>2026-04-27T14:35:01.001Z</time></trkpt><trkpt lat="40.209985224575064" lon="19.89484051824867"><ele>975.75</ele><time>2026-04-27T14:35:02.001Z</time></trkpt><trkpt lat="40.20990436035637" lon="19.89470302066856"><ele>976.5</ele><time>2026-04-27T14:35:03.001Z</time></trkpt><trkpt lat="40.209797227209926" lon="19.894581484369134"><ele>977.25</ele><time>2026-04-27T14:35:04.001Z</time></trkpt><trkpt lat="40.209703179082915" lon="19.894466942003145"><ele>978.0</ele><time>2026-04-27T14:35:05.001Z</time></trkpt><trkpt lat="40.20962524023905" lon="19.894372704133428"><ele>978.75</ele><time>2026-04-27T14:35:06.001Z</time></trkpt><trkpt lat="40.20955146306935" lon="19.894312830976794"><ele>979.5</ele><time>2026-04-27T14:35:07.001Z</time></trkpt><trkpt lat="40.20946940019894" lon="19.894236285684485"><ele>980.25</ele><time>2026-04-27T14:35:08.001Z</time></trkpt><trkpt lat="40.209354506354785" lon="19.89413022574381"><ele>981.0</ele><time>2026-04-27T14:35:09.001Z</time></trkpt><trkpt lat="40.209225424105924" lon="19.894010678439876"><ele>981.0</ele><time>2026-04-27T14:35:10.001Z</time></trkpt><trkpt lat="40.20906841753" lon="19.893864774936688"><ele>981.0</ele><time>2026-04-27T14:35:11.001Z</time></trkpt><trkpt lat="40.208919579741554" lon="19.893735734251127"><ele>981.0</ele><time>2026-04-27T14:35:12.001Z</time></trkpt><trkpt lat="40.208797506518565" lon="19.893651702460403"><ele>980.3333333333333</ele><time>2026-04-27T14:35:13.001Z</time></trkpt><trkpt lat="40.208672663608354" lon="19.893569606141984"><ele>979.6666666666666</ele><time>2026-04-27T14:35:14.001Z</time></trkpt><trkpt lat="40.20853461762627" lon="19.893480725254186"><ele>979.0</ele><time>2026-04-27T14:35:15.001Z</time></trkpt><trkpt lat="40.20837346823977" lon="19.893423441592418"><ele>980.0</ele><time>2026-04-27T14:35:16.001Z</time></trkpt><trkpt lat="40.20820792838595" lon="19.893382644999253"><ele>981.0</ele><time>2026-04-27T14:35:17.001Z</time></trkpt><trkpt lat="40.208031528397754" lon="19.89337062844903"><ele>982.0</ele><time>2026-04-27T14:35:18.001Z</time></trkpt><trkpt lat="40.207866755977925" lon="19.893329733263307"><ele>982.3333333333333</ele><time>2026-04-27T14:35:19.001Z</time></trkpt><trkpt lat="40.207704791010364" lon="19.89332405312028"><ele>982.6666666666667</ele><time>2026-04-27T14:35:20.001Z</time></trkpt><trkpt lat="40.207538891065695" lon="19.893318464196128"><ele>983.0</ele><time>2026-04-27T14:35:21.001Z</time></trkpt><trkpt lat="40.207368507309994" lon="19.893312724222643"><ele>985.0</ele><time>2026-04-27T14:35:22.001Z</time></trkpt><trkpt lat="40.20719276915983" lon="19.89330680386985"><ele>987.0</ele><time>2026-04-27T14:35:23.001Z</time></trkpt><trkpt lat="40.20701365611111" lon="19.893301411407517"><ele>989.0</ele><time>2026-04-27T14:35:24.001Z</time></trkpt><trkpt lat="40.20683373229358" lon="19.893296212518198"><ele>989.0</ele><time>2026-04-27T14:35:25.001Z</time></trkpt><trkpt lat="40.206649451623264" lon="19.8932908877379"><ele>989.0</ele><time>2026-04-27T14:35:26.001Z</time></trkpt><trkpt lat="40.20648554342814" lon="19.89328615569718"><ele>989.0</ele><time>2026-04-27T14:35:27.001Z</time></trkpt><trkpt lat="40.20631936084612" lon="19.893281518543425"><ele>989.75</ele><time>2026-04-27T14:35:28.001Z</time></trkpt><trkpt lat="40.20616851618182" lon="19.893243851579165"><ele>990.5</ele><time>2026-04-27T14:35:29.001Z</time></trkpt><trkpt lat="40.20603200845813" lon="19.89317041303634"><ele>991.25</ele><time>2026-04-27T14:35:30.001Z</time></trkpt><trkpt lat="40.20589495343282" lon="19.893097260619864"><ele>992.0</ele><time>2026-04-27T14:35:31.001Z</time></trkpt><trkpt lat="40.20577294929819" lon="19.893052122709722"><ele>992.75</ele><time>2026-04-27T14:35:32.001Z</time></trkpt><trkpt lat="40.205659206922036" lon="19.892967300122656"><ele>993.5</ele><time>2026-04-27T14:35:33.001Z</time></trkpt><trkpt lat="40.205554775045144" lon="19.892853134470727"><ele>994.25</ele><time>2026-04-27T14:35:34.001Z</time></trkpt><trkpt lat="40.20543292440884" lon="19.89274191955577"><ele>995.0</ele><time>2026-04-27T14:35:35.001Z</time></trkpt><trkpt lat="40.20529497480343" lon="19.892635617994447"><ele>993.3333333333334</ele><time>2026-04-27T14:35:36.001Z</time></trkpt><trkpt lat="40.205162244791055" lon="19.892506409440614"><ele>991.6666666666667</ele><time>2026-04-27T14:35:37.001Z</time></trkpt><trkpt lat="40.20502099405207" lon="19.8923683684324"><ele>990.0</ele><time>2026-04-27T14:35:38.001Z</time></trkpt><trkpt lat="40.20487460176405" lon="19.892232461564916"><ele>994.0</ele><time>2026-04-27T14:35:39.001Z</time></trkpt><trkpt lat="40.20475475481342" lon="19.892090026719124"><ele>998.0</ele><time>2026-04-27T14:35:40.001Z</time></trkpt><trkpt lat="40.204637359583685" lon="19.8919726821008"><ele>1002.0</ele><time>2026-04-27T14:35:41.001Z</time></trkpt><trkpt lat="40.2045012842532" lon="19.89186614775319"><ele>1002.0</ele><time>2026-04-27T14:35:42.001Z</time></trkpt><trkpt lat="40.204356024622676" lon="19.891795172869664"><ele>1002.0</ele><time>2026-04-27T14:35:43.001Z</time></trkpt><trkpt lat="40.20418634323703" lon="19.891769742230593"><ele>1002.0</ele><time>2026-04-27T14:35:44.001Z</time></trkpt><trkpt lat="40.20402859202446" lon="19.89174617994645"><ele>1004.0</ele><time>2026-04-27T14:35:45.001Z</time></trkpt><trkpt lat="40.203871148012965" lon="19.89172263821455"><ele>1006.0</ele><time>2026-04-27T14:35:46.001Z</time></trkpt><trkpt lat="40.2037152465186" lon="19.89170026863927"><ele>1008.0</ele><time>2026-04-27T14:35:47.001Z</time></trkpt><trkpt lat="40.20356734428597" lon="19.89167750141202"><ele>1008.0</ele><time>2026-04-27T14:35:48.001Z</time></trkpt><trkpt lat="40.20345446427397" lon="19.8916346183077"><ele>1008.0</ele><time>2026-04-27T14:35:49.001Z</time></trkpt><trkpt lat="40.20334871000641" lon="19.89156775129401"><ele>1008.0</ele><time>2026-04-27T14:35:50.001Z</time></trkpt><trkpt lat="40.203251853737406" lon="19.891459718319645"><ele>1008.0</ele><time>2026-04-27T14:35:51.001Z</time></trkpt><trkpt lat="40.20314826895339" lon="19.89133037914438"><ele>1007.3333333333333</ele><time>2026-04-27T14:35:52.001Z</time></trkpt><trkpt lat="40.20304034346637" lon="19.89117018534392"><ele>1006.6666666666666</ele><time>2026-04-27T14:35:53.001Z</time></trkpt><trkpt lat="40.202964954772526" lon="19.89099091700114"><ele>1006.0</ele><time>2026-04-27T14:35:54.001Z</time></trkpt><trkpt lat="40.20288832204121" lon="19.890836216860386"><ele>1006.0</ele><time>2026-04-27T14:35:55.001Z</time></trkpt><trkpt lat="40.20281708391065" lon="19.890691957532567"><ele>1006.0</ele><time>2026-04-27T14:35:56.001Z</time></trkpt><trkpt lat="40.202737128006504" lon="19.89055928026584"><ele>1006.0</ele><time>2026-04-27T14:35:57.001Z</time></trkpt><trkpt lat="40.20262849587792" lon="19.89045243047201"><ele>1006.0</ele><time>2026-04-27T14:35:58.001Z</time></trkpt><trkpt lat="40.202506724081324" lon="19.89036388647133"><ele>1006.0</ele><time>2026-04-27T14:35:59.001Z</time></trkpt><trkpt lat="40.202380593156875" lon="19.890286593472535"><ele>1006.0</ele><time>2026-04-27T14:36:00.001Z</time></trkpt><trkpt lat="40.20224232787745" lon="19.89022268742008"><ele>1006.0</ele><time>2026-04-27T14:36:01.001Z</time></trkpt><trkpt lat="40.202106926416874" lon="19.890173322718496"><ele>1006.0</ele><time>2026-04-27T14:36:02.001Z</time></trkpt><trkpt lat="40.20198237936586" lon="19.890171209412173"><ele>1008.5</ele><time>2026-04-27T14:36:03.001Z</time></trkpt><trkpt lat="40.20185848545562" lon="19.890165721065383"><ele>1011.0</ele><time>2026-04-27T14:36:04.001Z</time></trkpt><trkpt lat="40.20172995963658" lon="19.890165156241782"><ele>1013.5</ele><time>2026-04-27T14:36:05.001Z</time></trkpt><trkpt lat="40.201598941683265" lon="19.890169451031447"><ele>1016.0</ele><time>2026-04-27T14:36:06.001Z</time></trkpt><trkpt lat="40.20146728634894" lon="19.890181571644714"><ele>1016.25</ele><time>2026-04-27T14:36:07.001Z</time></trkpt><trkpt lat="40.201332401859354" lon="19.890206025598076"><ele>1016.5</ele><time>2026-04-27T14:36:08.001Z</time></trkpt><trkpt lat="40.201192958973145" lon="19.890242307259236"><ele>1016.75</ele><time>2026-04-27T14:36:09.001Z</time></trkpt><trkpt lat="40.20105108896778" lon="19.89028462934595"><ele>1017.0</ele><time>2026-04-27T14:36:10.001Z</time></trkpt><trkpt lat="40.20090599531672" lon="19.890320495987122"><ele>1017.0</ele><time>2026-04-27T14:36:11.001Z</time></trkpt><trkpt lat="40.200772487845605" lon="19.890343669509743"><ele>1017.0</ele><time>2026-04-27T14:36:12.001Z</time></trkpt><trkpt lat="40.20063700391604" lon="19.890369171670507"><ele>1017.0</ele><time>2026-04-27T14:36:13.001Z</time></trkpt><trkpt lat="40.200495946806875" lon="19.890404877319877"><ele>1017.0</ele><time>2026-04-27T14:36:14.001Z</time></trkpt><trkpt lat="40.20036064914526" lon="19.890430703148052"><ele>1014.0</ele><time>2026-04-27T14:36:15.001Z</time></trkpt><trkpt lat="40.20023022215037" lon="19.89042795257625"><ele>1011.0</ele><time>2026-04-27T14:36:16.001Z</time></trkpt><trkpt lat="40.20009766695442" lon="19.890383563672327"><ele>1008.0</ele><time>2026-04-27T14:36:17.001Z</time></trkpt><trkpt lat="40.19996392433314" lon="19.89031056335505"><ele>1005.0</ele><time>2026-04-27T14:36:18.001Z</time></trkpt><trkpt lat="40.19984012348908" lon="19.890201808171202"><ele>1006.6666666666667</ele><time>2026-04-27T14:36:19.001Z</time></trkpt><trkpt lat="40.19972784112556" lon="19.89006236875923"><ele>1008.3333333333334</ele><time>2026-04-27T14:36:20.001Z</time></trkpt><trkpt lat="40.19965042330199" lon="19.889881344300324"><ele>1010.0</ele><time>2026-04-27T14:36:21.001Z</time></trkpt><trkpt lat="40.19955683307061" lon="19.889742608951252"><ele>1010.0</ele><time>2026-04-27T14:36:22.001Z</time></trkpt><trkpt lat="40.19945326858921" lon="19.889665430884968"><ele>1010.0</ele><time>2026-04-27T14:36:23.001Z</time></trkpt><trkpt lat="40.19933727626336" lon="19.88962149913688"><ele>1010.0</ele><time>2026-04-27T14:36:24.001Z</time></trkpt><trkpt lat="40.199204806485355" lon="19.889620931969578"><ele>1010.0</ele><time>2026-04-27T14:36:25.001Z</time></trkpt><trkpt lat="40.19906651479457" lon="19.88960686783549"><ele>1008.75</ele><time>2026-04-27T14:36:26.001Z</time></trkpt><trkpt lat="40.198920353848344" lon="19.889588605171042"><ele>1007.5</ele><time>2026-04-27T14:36:27.001Z</time></trkpt><trkpt lat="40.19878221658339" lon="19.889578048054737"><ele>1006.25</ele><time>2026-04-27T14:36:28.001Z</time></trkpt><trkpt lat="40.19865665339535" lon="19.889582971087506"><ele>1005.0</ele><time>2026-04-27T14:36:29.001Z</time></trkpt><trkpt lat="40.19853553076093" lon="19.88960729452872"><ele>1005.0</ele><time>2026-04-27T14:36:30.001Z</time></trkpt><trkpt lat="40.19842647111723" lon="19.889653339414327"><ele>1005.0</ele><time>2026-04-27T14:36:31.001Z</time></trkpt><trkpt lat="40.19833819688348" lon="19.889720712533514"><ele>1005.0</ele><time>2026-04-27T14:36:32.001Z</time></trkpt><trkpt lat="40.198260093704434" lon="19.889815084564905"><ele>1005.0</ele><time>2026-04-27T14:36:33.001Z</time></trkpt><trkpt lat="40.198179142821765" lon="19.889869526247544"><ele>1005.0</ele><time>2026-04-27T14:36:34.001Z</time></trkpt><trkpt lat="40.19810544288039" lon="19.889890918770668"><ele>1005.0</ele><time>2026-04-27T14:36:35.001Z</time></trkpt><trkpt lat="40.198016852042535" lon="19.88989434257187"><ele>1005.0</ele><time>2026-04-27T14:36:36.001Z</time></trkpt><trkpt lat="40.1979537532384" lon="19.889769726945023"><ele>1005.0</ele><time>2026-04-27T14:36:37.001Z</time></trkpt><trkpt lat="40.19787078312406" lon="19.88965403531209"><ele>1005.0</ele><time>2026-04-27T14:36:38.001Z</time></trkpt><trkpt lat="40.197801426867706" lon="19.88955530055675"><ele>1005.0</ele><time>2026-04-27T14:36:39.001Z</time></trkpt><trkpt lat="40.19769084902212" lon="19.88946196027521"><ele>1005.0</ele><time>2026-04-27T14:36:40.001Z</time></trkpt><trkpt lat="40.19758518024379" lon="19.889390662083127"><ele>1005.0</ele><time>2026-04-27T14:36:41.001Z</time></trkpt><trkpt lat="40.197461569162606" lon="19.8893682981849"><ele>1005.0</ele><time>2026-04-27T14:36:42.001Z</time></trkpt><trkpt lat="40.19731550555781" lon="19.889373155335246"><ele>1005.0</ele><time>2026-04-27T14:36:43.001Z</time></trkpt><trkpt lat="40.19716692847027" lon="19.889391930530593"><ele>1005.0</ele><time>2026-04-27T14:36:44.001Z</time></trkpt><trkpt lat="40.19702673257489" lon="19.889393972884204"><ele>1005.0</ele><time>2026-04-27T14:36:45.001Z</time></trkpt><trkpt lat="40.19690724282686" lon="19.88929885193882"><ele>1005.0</ele><time>2026-04-27T14:36:46.001Z</time></trkpt><trkpt lat="40.19677298188133" lon="19.88922887236995"><ele>1005.0</ele><time>2026-04-27T14:36:47.001Z</time></trkpt><trkpt lat="40.196651019265104" lon="19.88915130138258"><ele>1003.1666666666666</ele><time>2026-04-27T14:36:48.001Z</time></trkpt><trkpt lat="40.196559884193015" lon="19.889091308977125"><ele>1001.3333333333333</ele><time>2026-04-27T14:36:49.001Z</time></trkpt><trkpt lat="40.19647662490352" lon="19.88903689468593"><ele>999.5</ele><time>2026-04-27T14:36:50.001Z</time></trkpt><trkpt lat="40.19645134655233" lon="19.88894489127461"><ele>997.6666666666666</ele><time>2026-04-27T14:36:51.001Z</time></trkpt><trkpt lat="40.196471339100064" lon="19.888851894324375"><ele>995.8333333333333</ele><time>2026-04-27T14:36:52.001Z</time></trkpt><trkpt lat="40.196517404141254" lon="19.88877638883973"><ele>994.0</ele><time>2026-04-27T14:36:53.001Z</time></trkpt><trkpt lat="40.19656688216851" lon="19.8887170759548"><ele>993.2</ele><time>2026-04-27T14:36:54.001Z</time></trkpt><trkpt lat="40.196672143105495" lon="19.888775728153966"><ele>992.4000000000001</ele><time>2026-04-27T14:36:55.001Z</time></trkpt><trkpt lat="40.196779173180374" lon="19.888749595195925"><ele>991.6</ele><time>2026-04-27T14:36:56.001Z</time></trkpt><trkpt lat="40.196887808011766" lon="19.888675598342942"><ele>990.8</ele><time>2026-04-27T14:36:57.001Z</time></trkpt><trkpt lat="40.19696305829027" lon="19.88861036345593"><ele>990.0</ele><time>2026-04-27T14:36:58.001Z</time></trkpt><trkpt lat="40.19697493020056" lon="19.88845153814808"><ele>988.5</ele><time>2026-04-27T14:36:59.001Z</time></trkpt><trkpt lat="40.19697658805515" lon="19.888331478877905"><ele>987.0</ele><time>2026-04-27T14:37:00.001Z</time></trkpt><trkpt lat="40.196935654779615" lon="19.8881903783488"><ele>985.5</ele><time>2026-04-27T14:37:01.001Z</time></trkpt><trkpt lat="40.19686349459985" lon="19.88803834758551"><ele>984.0</ele><time>2026-04-27T14:37:02.001Z</time></trkpt><trkpt lat="40.19681460001971" lon="19.887900484750237"><ele>984.0</ele><time>2026-04-27T14:37:03.001Z</time></trkpt><trkpt lat="40.196820286811956" lon="19.887763436299956"><ele>984.0000000000001</ele><time>2026-04-27T14:37:04.001Z</time></trkpt><trkpt lat="40.196835604279805" lon="19.887627211704643"><ele>984.0000000000001</ele><time>2026-04-27T14:37:05.001Z</time></trkpt><trkpt lat="40.1969211450227" lon="19.88749671346049"><ele>984.0</ele><time>2026-04-27T14:37:06.001Z</time></trkpt><trkpt lat="40.196940100121104" lon="19.887412653658114"><ele>984.0</ele><time>2026-04-27T14:37:07.001Z</time></trkpt><trkpt lat="40.196936497864755" lon="19.88726566389504"><ele>980.6</ele><time>2026-04-27T14:37:08.001Z</time></trkpt><trkpt lat="40.196876356346515" lon="19.88715114482024"><ele>977.2</ele><time>2026-04-27T14:37:09.001Z</time></trkpt><trkpt lat="40.19677205034272" lon="19.88710288040113"><ele>973.8000000000001</ele><time>2026-04-27T14:37:10.001Z</time></trkpt><trkpt lat="40.19667765137521" lon="19.88709271601901"><ele>970.4000000000001</ele><time>2026-04-27T14:37:11.001Z</time></trkpt><trkpt lat="40.196588027295796" lon="19.88714669198061"><ele>967.0</ele><time>2026-04-27T14:37:12.001Z</time></trkpt><trkpt lat="40.19650688280127" lon="19.887246766769"><ele>969.25</ele><time>2026-04-27T14:37:13.001Z</time></trkpt><trkpt lat="40.19641882393183" lon="19.88736702824716"><ele>971.5</ele><time>2026-04-27T14:37:14.001Z</time></trkpt><trkpt lat="40.19631338256098" lon="19.887490946728725"><ele>973.75</ele><time>2026-04-27T14:37:15.001Z</time></trkpt><trkpt lat="40.19617697044921" lon="19.88757734783924"><ele>976.0</ele><time>2026-04-27T14:37:16.001Z</time></trkpt><trkpt lat="40.19604318147092" lon="19.887685356245818"><ele>976.0</ele><time>2026-04-27T14:37:17.001Z</time></trkpt><trkpt lat="40.19590976437078" lon="19.887777639370427"><ele>976.0</ele><time>2026-04-27T14:37:18.001Z</time></trkpt><trkpt lat="40.19577122583545" lon="19.88786145851897"><ele>976.0</ele><time>2026-04-27T14:37:19.001Z</time></trkpt><trkpt lat="40.19563429960245" lon="19.88795691313075"><ele>960.6666666666666</ele><time>2026-04-27T14:37:20.001Z</time></trkpt><trkpt lat="40.19550308251161" lon="19.88807427806724"><ele>945.3333333333333</ele><time>2026-04-27T14:37:21.001Z</time></trkpt><trkpt lat="40.19534442135729" lon="19.888175617737073"><ele>930.0</ele><time>2026-04-27T14:37:22.001Z</time></trkpt><trkpt lat="40.19519238549288" lon="19.88829032432257"><ele>927.0</ele><time>2026-04-27T14:37:23.001Z</time></trkpt><trkpt lat="40.1950585222457" lon="19.888438855172303"><ele>924.0</ele><time>2026-04-27T14:37:24.001Z</time></trkpt><trkpt lat="40.194912843679646" lon="19.88854646152483"><ele>921.0</ele><time>2026-04-27T14:37:25.001Z</time></trkpt><trkpt lat="40.194763858695886" lon="19.888632247979004"><ele>921.0</ele><time>2026-04-27T14:37:26.001Z</time></trkpt><trkpt lat="40.19462360914166" lon="19.888734831291615"><ele>921.0</ele><time>2026-04-27T14:37:27.001Z</time></trkpt><trkpt lat="40.194500524644155" lon="19.888857282655692"><ele>921.0</ele><time>2026-04-27T14:37:28.001Z</time></trkpt><trkpt lat="40.19439167194174" lon="19.888975307967527"><ele>921.0</ele><time>2026-04-27T14:37:29.001Z</time></trkpt><trkpt lat="40.19430351471347" lon="19.889069739701"><ele>921.0</ele><time>2026-04-27T14:37:30.001Z</time></trkpt><trkpt lat="40.19423392883538" lon="19.889171684076732"><ele>921.0</ele><time>2026-04-27T14:37:31.001Z</time></trkpt><trkpt lat="40.19418262834739" lon="19.889317048239185"><ele>921.0</ele><time>2026-04-27T14:37:32.001Z</time></trkpt><trkpt lat="40.194146935211954" lon="19.88949515260308"><ele>923.0</ele><time>2026-04-27T14:37:33.001Z</time></trkpt><trkpt lat="40.19413360086537" lon="19.889682709715295"><ele>925.0</ele><time>2026-04-27T14:37:34.001Z</time></trkpt><trkpt lat="40.194144358226296" lon="19.889867157860493"><ele>927.0</ele><time>2026-04-27T14:37:35.001Z</time></trkpt><trkpt lat="40.19417478081865" lon="19.89005829266493"><ele>929.0</ele><time>2026-04-27T14:37:36.001Z</time></trkpt><trkpt lat="40.19419824308985" lon="19.890234919509435"><ele>929.2</ele><time>2026-04-27T14:37:37.001Z</time></trkpt><trkpt lat="40.19417852863512" lon="19.890386238733385"><ele>929.4000000000001</ele><time>2026-04-27T14:37:38.001Z</time></trkpt><trkpt lat="40.194151576727435" lon="19.890525939767613"><ele>929.6</ele><time>2026-04-27T14:37:39.001Z</time></trkpt><trkpt lat="40.194163190774795" lon="19.8906585462476"><ele>929.8</ele><time>2026-04-27T14:37:40.001Z</time></trkpt><trkpt lat="40.19419089005103" lon="19.890777516737295"><ele>930.0</ele><time>2026-04-27T14:37:41.001Z</time></trkpt><trkpt lat="40.19418531344147" lon="19.890889791174548"><ele>937.0</ele><time>2026-04-27T14:37:42.001Z</time></trkpt><trkpt lat="40.19413225438229" lon="19.89098625903794"><ele>944.0</ele><time>2026-04-27T14:37:43.001Z</time></trkpt><trkpt lat="40.194034101200366" lon="19.891047261373053"><ele>951.0</ele><time>2026-04-27T14:37:44.001Z</time></trkpt><trkpt lat="40.19390921532509" lon="19.89106276604484"><ele>958.0</ele><time>2026-04-27T14:37:45.001Z</time></trkpt><trkpt lat="40.193780100824384" lon="19.891027268960475"><ele>958.0</ele><time>2026-04-27T14:37:46.001Z</time></trkpt><trkpt lat="40.19366444447474" lon="19.89094278142513"><ele>958.0</ele><time>2026-04-27T14:37:47.001Z</time></trkpt><trkpt lat="40.19355924866281" lon="19.890820914830673"><ele>958.0</ele><time>2026-04-27T14:37:48.001Z</time></trkpt><trkpt lat="40.19347988030466" lon="19.890664583407688"><ele>958.0</ele><time>2026-04-27T14:37:49.001Z</time></trkpt><trkpt lat="40.19341563205316" lon="19.890475711436302"><ele>945.0</ele><time>2026-04-27T14:37:50.001Z</time></trkpt><trkpt lat="40.193354209098274" lon="19.890273285903184"><ele>932.0</ele><time>2026-04-27T14:37:51.001Z</time></trkpt><trkpt lat="40.19330065687671" lon="19.890079174512437"><ele>919.0</ele><time>2026-04-27T14:37:52.001Z</time></trkpt><trkpt lat="40.193259547911545" lon="19.889887388067976"><ele>914.25</ele><time>2026-04-27T14:37:53.001Z</time></trkpt><trkpt lat="40.193237030783195" lon="19.889694097542765"><ele>909.5</ele><time>2026-04-27T14:37:54.001Z</time></trkpt><trkpt lat="40.19322944219485" lon="19.889502385285596"><ele>904.75</ele><time>2026-04-27T14:37:55.001Z</time></trkpt><trkpt lat="40.19326812251716" lon="19.88930934993788"><ele>900.0</ele><time>2026-04-27T14:37:56.001Z</time></trkpt><trkpt lat="40.19336234918384" lon="19.889124462548562"><ele>897.3333333333333</ele><time>2026-04-27T14:37:57.001Z</time></trkpt><trkpt lat="40.19349011030753" lon="19.888937444147103"><ele>894.6666666666666</ele><time>2026-04-27T14:37:58.001Z</time></trkpt><trkpt lat="40.19362772634456" lon="19.88873333149446"><ele>892.0</ele><time>2026-04-27T14:37:59.001Z</time></trkpt><trkpt lat="40.193752577872175" lon="19.888531581947188"><ele>892.0</ele><time>2026-04-27T14:38:00.001Z</time></trkpt><trkpt lat="40.19387064192111" lon="19.888335141722873"><ele>892.0</ele><time>2026-04-27T14:38:01.001Z</time></trkpt><trkpt lat="40.1939920060946" lon="19.888133518762963"><ele>892.0</ele><time>2026-04-27T14:38:02.001Z</time></trkpt><trkpt lat="40.194120259706764" lon="19.887923529490095"><ele>892.0</ele><time>2026-04-27T14:38:03.001Z</time></trkpt><trkpt lat="40.194252062949026" lon="19.88770745680632"><ele>892.0</ele><time>2026-04-27T14:38:04.001Z</time></trkpt><trkpt lat="40.19438703824999" lon="19.88748224519288"><ele>892.0</ele><time>2026-04-27T14:38:05.001Z</time></trkpt><trkpt lat="40.19451531870047" lon="19.887264824698114"><ele>884.6666666666666</ele><time>2026-04-27T14:38:06.001Z</time></trkpt><trkpt lat="40.19463917777285" lon="19.887056428164534"><ele>877.3333333333333</ele><time>2026-04-27T14:38:07.001Z</time></trkpt><trkpt lat="40.194758912261605" lon="19.8868554321979"><ele>870.0</ele><time>2026-04-27T14:38:08.001Z</time></trkpt><trkpt lat="40.19487536423443" lon="19.886658765758764"><ele>867.6666666666667</ele><time>2026-04-27T14:38:09.001Z</time></trkpt><trkpt lat="40.19498900888382" lon="19.886466724439668"><ele>865.3333333333334</ele><time>2026-04-27T14:38:10.001Z</time></trkpt><trkpt lat="40.19510255859251" lon="19.886273451205657"><ele>863.0</ele><time>2026-04-27T14:38:11.001Z</time></trkpt><trkpt lat="40.19521947706721" lon="19.8860746740935"><ele>859.3333333333334</ele><time>2026-04-27T14:38:12.001Z</time></trkpt><trkpt lat="40.19533550884544" lon="19.885866365739798"><ele>855.6666666666667</ele><time>2026-04-27T14:38:13.001Z</time></trkpt><trkpt lat="40.195446313672726" lon="19.885644857904026"><ele>852.0</ele><time>2026-04-27T14:38:14.001Z</time></trkpt><trkpt lat="40.19554748729474" lon="19.885430859082007"><ele>852.0</ele><time>2026-04-27T14:38:15.001Z</time></trkpt><trkpt lat="40.19564142645037" lon="19.885218643566915"><ele>852.0</ele><time>2026-04-27T14:38:16.001Z</time></trkpt><trkpt lat="40.19572993590776" lon="19.88500461712211"><ele>852.0</ele><time>2026-04-27T14:38:17.001Z</time></trkpt><trkpt lat="40.19581407191468" lon="19.884796317568444"><ele>848.6666666666667</ele><time>2026-04-27T14:38:18.001Z</time></trkpt><trkpt lat="40.195894970209295" lon="19.88459180493522"><ele>845.3333333333334</ele><time>2026-04-27T14:38:19.001Z</time></trkpt><trkpt lat="40.19596981847831" lon="19.88439270513418"><ele>842.0</ele><time>2026-04-27T14:38:20.001Z</time></trkpt><trkpt lat="40.196036916850815" lon="19.884205126870725"><ele>840.0</ele><time>2026-04-27T14:38:21.001Z</time></trkpt><trkpt lat="40.19609389659467" lon="19.884037416330685"><ele>838.0</ele><time>2026-04-27T14:38:22.001Z</time></trkpt><trkpt lat="40.19613905455674" lon="19.883868045837524"><ele>836.0</ele><time>2026-04-27T14:38:23.001Z</time></trkpt><trkpt lat="40.196162935738336" lon="19.883685863683585"><ele>834.0</ele><time>2026-04-27T14:38:24.001Z</time></trkpt><trkpt lat="40.196155767447294" lon="19.883492510787246"><ele>832.3333333333333</ele><time>2026-04-27T14:38:25.001Z</time></trkpt><trkpt lat="40.19612224917202" lon="19.883301466557462"><ele>830.6666666666666</ele><time>2026-04-27T14:38:26.001Z</time></trkpt><trkpt lat="40.196062091206194" lon="19.883111341418694"><ele>829.0</ele><time>2026-04-27T14:38:27.001Z</time></trkpt><trkpt lat="40.196002640742236" lon="19.882927483659838"><ele>829.0</ele><time>2026-04-27T14:38:28.001Z</time></trkpt><trkpt lat="40.195963161747024" lon="19.88275607067467"><ele>829.0</ele><time>2026-04-27T14:38:29.001Z</time></trkpt><trkpt lat="40.19594757236294" lon="19.882588081402815"><ele>829.0</ele><time>2026-04-27T14:38:30.001Z</time></trkpt><trkpt lat="40.195951493468904" lon="19.88241467104535"><ele>829.0</ele><time>2026-04-27T14:38:31.001Z</time></trkpt><trkpt lat="40.1959820353226" lon="19.882232320588777"><ele>828.25</ele><time>2026-04-27T14:38:32.001Z</time></trkpt><trkpt lat="40.19601427795217" lon="19.882046179246448"><ele>827.5</ele><time>2026-04-27T14:38:33.001Z</time></trkpt><trkpt lat="40.19605348073238" lon="19.881871887330835"><ele>826.75</ele><time>2026-04-27T14:38:34.001Z</time></trkpt><trkpt lat="40.196103049484755" lon="19.881700299962507"><ele>826.0</ele><time>2026-04-27T14:38:35.001Z</time></trkpt><trkpt lat="40.19617417423157" lon="19.881539887642795"><ele>827.3333333333333</ele><time>2026-04-27T14:38:36.001Z</time></trkpt><trkpt lat="40.196266096827415" lon="19.881383753473788"><ele>828.6666666666667</ele><time>2026-04-27T14:38:37.001Z</time></trkpt><trkpt lat="40.19638012295983" lon="19.881237421491353"><ele>830.0</ele><time>2026-04-27T14:38:38.001Z</time></trkpt><trkpt lat="40.19651667445251" lon="19.881104325594407"><ele>830.0</ele><time>2026-04-27T14:38:39.001Z</time></trkpt><trkpt lat="40.19667146830955" lon="19.88099100925567"><ele>830.0</ele><time>2026-04-27T14:38:40.001Z</time></trkpt><trkpt lat="40.1968418444251" lon="19.880892278722527"><ele>830.0</ele><time>2026-04-27T14:38:41.001Z</time></trkpt><trkpt lat="40.19701845116372" lon="19.88079599676359"><ele>821.0</ele><time>2026-04-27T14:38:42.001Z</time></trkpt><trkpt lat="40.19719269915942" lon="19.880713011533903"><ele>812.0</ele><time>2026-04-27T14:38:43.001Z</time></trkpt><trkpt lat="40.19735401194995" lon="19.88062558388116"><ele>803.0</ele><time>2026-04-27T14:38:44.001Z</time></trkpt><trkpt lat="40.19750682665773" lon="19.880520735531515"><ele>803.0</ele><time>2026-04-27T14:38:45.001Z</time></trkpt><trkpt lat="40.197645192434656" lon="19.88039488484965"><ele>803.0</ele><time>2026-04-27T14:38:46.001Z</time></trkpt><trkpt lat="40.197769266374955" lon="19.88024684629684"><ele>803.0</ele><time>2026-04-27T14:38:47.001Z</time></trkpt><trkpt lat="40.19787618472043" lon="19.8800837495248"><ele>800.0</ele><time>2026-04-27T14:38:48.001Z</time></trkpt><trkpt lat="40.19797596384187" lon="19.879908756705706"><ele>797.0</ele><time>2026-04-27T14:38:49.001Z</time></trkpt><trkpt lat="40.19806867613967" lon="19.879731124289286"><ele>794.0</ele><time>2026-04-27T14:38:50.001Z</time></trkpt><trkpt lat="40.19815082854297" lon="19.879571081465723"><ele>793.25</ele><time>2026-04-27T14:38:51.001Z</time></trkpt><trkpt lat="40.19820118823454" lon="19.879416914773774"><ele>792.5</ele><time>2026-04-27T14:38:52.001Z</time></trkpt><trkpt lat="40.1982122873488" lon="19.87925198593802"><ele>791.75</ele><time>2026-04-27T14:38:53.001Z</time></trkpt><trkpt lat="40.19818907398509" lon="19.879076787314265"><ele>791.0</ele><time>2026-04-27T14:38:54.001Z</time></trkpt><trkpt lat="40.198147930895296" lon="19.878913375341817"><ele>789.75</ele><time>2026-04-27T14:38:55.001Z</time></trkpt><trkpt lat="40.19814161145514" lon="19.878772026775327"><ele>788.5</ele><time>2026-04-27T14:38:56.001Z</time></trkpt><trkpt lat="40.198188599376145" lon="19.878630184701237"><ele>787.25</ele><time>2026-04-27T14:38:57.001Z</time></trkpt><trkpt lat="40.19826442549987" lon="19.878475111093763"><ele>786.0</ele><time>2026-04-27T14:38:58.001Z</time></trkpt><trkpt lat="40.19835298674444" lon="19.878323623552095"><ele>786.0</ele><time>2026-04-27T14:38:59.001Z</time></trkpt><trkpt lat="40.198456079447475" lon="19.87820855163826"><ele>786.0</ele><time>2026-04-27T14:39:00.001Z</time></trkpt><trkpt lat="40.19856332874769" lon="19.87810867608487"><ele>786.0</ele><time>2026-04-27T14:39:01.001Z</time></trkpt><trkpt lat="40.19866022844956" lon="19.877990463510773"><ele>786.0</ele><time>2026-04-27T14:39:02.001Z</time></trkpt><trkpt lat="40.198744088442076" lon="19.87783001763577"><ele>786.0</ele><time>2026-04-27T14:39:03.001Z</time></trkpt><trkpt lat="40.19880438628375" lon="19.877626759533264"><ele>786.0</ele><time>2026-04-27T14:39:04.001Z</time></trkpt><trkpt lat="40.198872865626996" lon="19.87739545847787"><ele>786.0</ele><time>2026-04-27T14:39:05.001Z</time></trkpt><trkpt lat="40.19895504187649" lon="19.877167047734016"><ele>779.3333333333334</ele><time>2026-04-27T14:39:06.001Z</time></trkpt><trkpt lat="40.19903321578947" lon="19.876959209667174"><ele>772.6666666666667</ele><time>2026-04-27T14:39:07.001Z</time></trkpt><trkpt lat="40.199110310154495" lon="19.876768205647995"><ele>766.0</ele><time>2026-04-27T14:39:08.001Z</time></trkpt><trkpt lat="40.1991924289006" lon="19.876583169453585"><ele>765.3333333333334</ele><time>2026-04-27T14:39:09.001Z</time></trkpt><trkpt lat="40.19926873038953" lon="19.876401454467743"><ele>764.6666666666666</ele><time>2026-04-27T14:39:10.001Z</time></trkpt><trkpt lat="40.1993413706338" lon="19.87622251823018"><ele>764.0</ele><time>2026-04-27T14:39:11.001Z</time></trkpt><trkpt lat="40.19941247765123" lon="19.876051117734836"><ele>765.0</ele><time>2026-04-27T14:39:12.001Z</time></trkpt><trkpt lat="40.199461212756695" lon="19.875872291762118"><ele>766.0</ele><time>2026-04-27T14:39:13.001Z</time></trkpt><trkpt lat="40.19948876531136" lon="19.875686461516924"><ele>767.0</ele><time>2026-04-27T14:39:14.001Z</time></trkpt><trkpt lat="40.19947964207584" lon="19.87549308282204"><ele>768.0</ele><time>2026-04-27T14:39:15.001Z</time></trkpt><trkpt lat="40.19944079720143" lon="19.87528960840209"><ele>766.0</ele><time>2026-04-27T14:39:16.001Z</time></trkpt><trkpt lat="40.199392108677166" lon="19.87506953620881"><ele>764.0</ele><time>2026-04-27T14:39:17.001Z</time></trkpt><trkpt lat="40.19935468033201" lon="19.874852133113407"><ele>762.0</ele><time>2026-04-27T14:39:18.001Z</time></trkpt><trkpt lat="40.199341595790386" lon="19.87463878615721"><ele>762.0</ele><time>2026-04-27T14:39:19.001Z</time></trkpt><trkpt lat="40.19934838267014" lon="19.874449506756818"><ele>762.0</ele><time>2026-04-27T14:39:20.001Z</time></trkpt><trkpt lat="40.199337911700766" lon="19.874269599433145"><ele>762.0</ele><time>2026-04-27T14:39:21.001Z</time></trkpt><trkpt lat="40.19928734999688" lon="19.87407580780844"><ele>762.0</ele><time>2026-04-27T14:39:22.001Z</time></trkpt><trkpt lat="40.19920585858227" lon="19.873885689396793"><ele>756.3333333333334</ele><time>2026-04-27T14:39:23.001Z</time></trkpt><trkpt lat="40.199122936053556" lon="19.873711290550574"><ele>750.6666666666667</ele><time>2026-04-27T14:39:24.001Z</time></trkpt><trkpt lat="40.19905539673755" lon="19.873530891080563"><ele>745.0</ele><time>2026-04-27T14:39:25.001Z</time></trkpt><trkpt lat="40.19901905101388" lon="19.873323494874978"><ele>741.3333333333334</ele><time>2026-04-27T14:39:26.001Z</time></trkpt><trkpt lat="40.19900625086594" lon="19.873106424053656"><ele>737.6666666666666</ele><time>2026-04-27T14:39:27.001Z</time></trkpt><trkpt lat="40.199015116818" lon="19.872865994831972"><ele>734.0</ele><time>2026-04-27T14:39:28.001Z</time></trkpt><trkpt lat="40.19903307055468" lon="19.872621725394215"><ele>732.3333333333333</ele><time>2026-04-27T14:39:29.001Z</time></trkpt><trkpt lat="40.19904679141041" lon="19.872368351614888"><ele>730.6666666666666</ele><time>2026-04-27T14:39:30.001Z</time></trkpt><trkpt lat="40.19905644175849" lon="19.872130473355703"><ele>729.0</ele><time>2026-04-27T14:39:31.001Z</time></trkpt><trkpt lat="40.19906984355306" lon="19.87190596642072"><ele>726.6666666666666</ele><time>2026-04-27T14:39:32.001Z</time></trkpt><trkpt lat="40.199077799253125" lon="19.871698095668208"><ele>724.3333333333333</ele><time>2026-04-27T14:39:33.001Z</time></trkpt><trkpt lat="40.19907398343964" lon="19.871499721130526"><ele>722.0</ele><time>2026-04-27T14:39:34.001Z</time></trkpt><trkpt lat="40.19905184750828" lon="19.8713124842765"><ele>722.0</ele><time>2026-04-27T14:39:35.001Z</time></trkpt><trkpt lat="40.199021734209445" lon="19.87113196585203"><ele>722.0</ele><time>2026-04-27T14:39:36.001Z</time></trkpt><trkpt lat="40.198965201624155" lon="19.87096509502621"><ele>722.0</ele><time>2026-04-27T14:39:37.001Z</time></trkpt><trkpt lat="40.19887742746386" lon="19.870802398042684"><ele>722.0</ele><time>2026-04-27T14:39:38.001Z</time></trkpt><trkpt lat="40.198752775211666" lon="19.870658079226338"><ele>724.6666666666666</ele><time>2026-04-27T14:39:39.001Z</time></trkpt><trkpt lat="40.1986052919124" lon="19.870528883043892"><ele>727.3333333333334</ele><time>2026-04-27T14:39:40.001Z</time></trkpt><trkpt lat="40.198444431899304" lon="19.87041862039425"><ele>730.0</ele><time>2026-04-27T14:39:41.001Z</time></trkpt><trkpt lat="40.19827840893975" lon="19.870326404791328"><ele>728.75</ele><time>2026-04-27T14:39:42.001Z</time></trkpt><trkpt lat="40.19813536179918" lon="19.87023817981201"><ele>727.5</ele><time>2026-04-27T14:39:43.001Z</time></trkpt><trkpt lat="40.19800825414" lon="19.870147652045304"><ele>726.25</ele><time>2026-04-27T14:39:44.001Z</time></trkpt><trkpt lat="40.19790375962444" lon="19.870033309529422"><ele>725.0</ele><time>2026-04-27T14:39:45.001Z</time></trkpt><trkpt lat="40.19782494071712" lon="19.86989256767437"><ele>725.0</ele><time>2026-04-27T14:39:46.001Z</time></trkpt><trkpt lat="40.19776158695784" lon="19.86973201499532"><ele>725.0</ele><time>2026-04-27T14:39:47.001Z</time></trkpt><trkpt lat="40.197696859669456" lon="19.869565486141585"><ele>725.0</ele><time>2026-04-27T14:39:48.001Z</time></trkpt><trkpt lat="40.19762306188758" lon="19.869392167350515"><ele>725.0</ele><time>2026-04-27T14:39:49.001Z</time></trkpt><trkpt lat="40.197553933722254" lon="19.869215429966342"><ele>719.25</ele><time>2026-04-27T14:39:50.001Z</time></trkpt><trkpt lat="40.19749582098531" lon="19.86903531346478"><ele>713.5</ele><time>2026-04-27T14:39:51.001Z</time></trkpt><trkpt lat="40.197451014604255" lon="19.86885628747101"><ele>707.75</ele><time>2026-04-27T14:39:52.001Z</time></trkpt><trkpt lat="40.19741693142901" lon="19.86867805061346"><ele>702.0</ele><time>2026-04-27T14:39:53.001Z</time></trkpt><trkpt lat="40.19739716836293" lon="19.868504997073114"><ele>698.5</ele><time>2026-04-27T14:39:54.001Z</time></trkpt><trkpt lat="40.197396561076815" lon="19.868339219349632"><ele>695.0</ele><time>2026-04-27T14:39:55.001Z</time></trkpt><trkpt lat="40.197425121155455" lon="19.868174296111743"><ele>691.5</ele><time>2026-04-27T14:39:56.001Z</time></trkpt><trkpt lat="40.197487514776995" lon="19.868006524337716"><ele>688.0</ele><time>2026-04-27T14:39:57.001Z</time></trkpt><trkpt lat="40.19758400361854" lon="19.867851633079233"><ele>688.0</ele><time>2026-04-27T14:39:58.001Z</time></trkpt><trkpt lat="40.1977063458472" lon="19.867709064304503"><ele>688.0</ele><time>2026-04-27T14:39:59.001Z</time></trkpt><trkpt lat="40.19784966182525" lon="19.867573699249593"><ele>688.0</ele><time>2026-04-27T14:40:00.001Z</time></trkpt><trkpt lat="40.19800004730181" lon="19.8674534332124"><ele>688.25</ele><time>2026-04-27T14:40:01.001Z</time></trkpt><trkpt lat="40.198141345469004" lon="19.867352529233077"><ele>688.5</ele><time>2026-04-27T14:40:02.001Z</time></trkpt><trkpt lat="40.198273210271125" lon="19.86726264252095"><ele>688.75</ele><time>2026-04-27T14:40:03.001Z</time></trkpt><trkpt lat="40.19839262790702" lon="19.86718019336277"><ele>689.0</ele><time>2026-04-27T14:40:04.001Z</time></trkpt><trkpt lat="40.19850326450405" lon="19.867104686248425"><ele>689.0</ele><time>2026-04-27T14:40:05.001Z</time></trkpt><trkpt lat="40.19859825111978" lon="19.86702931177063"><ele>689.0</ele><time>2026-04-27T14:40:06.001Z</time></trkpt><trkpt lat="40.19866934592975" lon="19.86694250933055"><ele>689.0</ele><time>2026-04-27T14:40:07.001Z</time></trkpt><trkpt lat="40.198719060206045" lon="19.86682142759733"><ele>689.0</ele><time>2026-04-27T14:40:08.001Z</time></trkpt><trkpt lat="40.198753324620334" lon="19.86666391783916"><ele>689.0</ele><time>2026-04-27T14:40:09.001Z</time></trkpt><trkpt lat="40.19878078948482" lon="19.86648378162981"><ele>689.0</ele><time>2026-04-27T14:40:10.001Z</time></trkpt><trkpt lat="40.19881756721138" lon="19.866283705400363"><ele>689.0</ele><time>2026-04-27T14:40:11.001Z</time></trkpt><trkpt lat="40.19885757177621" lon="19.86607572216258"><ele>689.0</ele><time>2026-04-27T14:40:12.001Z</time></trkpt><trkpt lat="40.198889864086084" lon="19.865882584183367"><ele>684.0</ele><time>2026-04-27T14:40:13.001Z</time></trkpt><trkpt lat="40.19890693695329" lon="19.865693242363193"><ele>679.0</ele><time>2026-04-27T14:40:14.001Z</time></trkpt><trkpt lat="40.19890008423999" lon="19.865500491538416"><ele>674.0</ele><time>2026-04-27T14:40:15.001Z</time></trkpt><trkpt lat="40.198860326550694" lon="19.865294975350498"><ele>666.6666666666666</ele><time>2026-04-27T14:40:16.001Z</time></trkpt><trkpt lat="40.198799338328364" lon="19.86509033712777"><ele>659.3333333333334</ele><time>2026-04-27T14:40:17.001Z</time></trkpt><trkpt lat="40.19871830753751" lon="19.864903478355334"><ele>652.0</ele><time>2026-04-27T14:40:18.001Z</time></trkpt><trkpt lat="40.19862034180712" lon="19.864734647486628"><ele>652.0</ele><time>2026-04-27T14:40:19.001Z</time></trkpt><trkpt lat="40.19850968852151" lon="19.86457663785305"><ele>652.0</ele><time>2026-04-27T14:40:20.001Z</time></trkpt><trkpt lat="40.19839652782063" lon="19.864434933149685"><ele>652.0</ele><time>2026-04-27T14:40:21.001Z</time></trkpt><trkpt lat="40.19827737216103" lon="19.864314102983524"><ele>648.75</ele><time>2026-04-27T14:40:22.001Z</time></trkpt><trkpt lat="40.198149993474054" lon="19.864217562658617"><ele>645.5</ele><time>2026-04-27T14:40:23.001Z</time></trkpt><trkpt lat="40.19801561487483" lon="19.864162648273137"><ele>642.25</ele><time>2026-04-27T14:40:24.001Z</time></trkpt><trkpt lat="40.19787862602595" lon="19.86413195548713"><ele>639.0</ele><time>2026-04-27T14:40:25.001Z</time></trkpt><trkpt lat="40.1977466894075" lon="19.864102505793284"><ele>639.0</ele><time>2026-04-27T14:40:26.001Z</time></trkpt><trkpt lat="40.19764141210383" lon="19.864060307390297"><ele>639.0</ele><time>2026-04-27T14:40:27.001Z</time></trkpt><trkpt lat="40.197557728391104" lon="19.86398597794909"><ele>639.0</ele><time>2026-04-27T14:40:28.001Z</time></trkpt><trkpt lat="40.19748992989698" lon="19.86385660826727"><ele>639.0</ele><time>2026-04-27T14:40:29.001Z</time></trkpt><trkpt lat="40.19743443358814" lon="19.863692186161135"><ele>639.0</ele><time>2026-04-27T14:40:30.001Z</time></trkpt><trkpt lat="40.19740137373279" lon="19.863553333996823"><ele>639.0</ele><time>2026-04-27T14:40:31.001Z</time></trkpt><trkpt lat="40.19738816863382" lon="19.86343531607148"><ele>639.0</ele><time>2026-04-27T14:40:32.001Z</time></trkpt><trkpt lat="40.197416554945576" lon="19.86332660859609"><ele>639.0</ele><time>2026-04-27T14:40:33.001Z</time></trkpt><trkpt lat="40.197488201207705" lon="19.863220618423856"><ele>639.0</ele><time>2026-04-27T14:40:34.001Z</time></trkpt><trkpt lat="40.19757843246778" lon="19.863102884387303"><ele>639.75</ele><time>2026-04-27T14:40:35.001Z</time></trkpt><trkpt lat="40.19767554014583" lon="19.86295556056"><ele>640.5</ele><time>2026-04-27T14:40:36.001Z</time></trkpt><trkpt lat="40.19775130719848" lon="19.862809764126478"><ele>641.25</ele><time>2026-04-27T14:40:37.001Z</time></trkpt><trkpt lat="40.1978167672631" lon="19.86267307953585"><ele>642.0</ele><time>2026-04-27T14:40:38.001Z</time></trkpt><trkpt lat="40.19787802509564" lon="19.862533201299367"><ele>645.75</ele><time>2026-04-27T14:40:39.001Z</time></trkpt><trkpt lat="40.19794055514683" lon="19.862372185858906"><ele>649.5</ele><time>2026-04-27T14:40:40.001Z</time></trkpt><trkpt lat="40.198002112487735" lon="19.86220653534084"><ele>653.25</ele><time>2026-04-27T14:40:41.001Z</time></trkpt><trkpt lat="40.19806284168972" lon="19.862063872763724"><ele>657.0</ele><time>2026-04-27T14:40:42.001Z</time></trkpt><trkpt lat="40.19812918552636" lon="19.861924762697797"><ele>651.0</ele><time>2026-04-27T14:40:43.001Z</time></trkpt><trkpt lat="40.1982023794624" lon="19.86178296117714"><ele>645.0</ele><time>2026-04-27T14:40:44.001Z</time></trkpt><trkpt lat="40.19827791844414" lon="19.861639401714868"><ele>639.0</ele><time>2026-04-27T14:40:45.001Z</time></trkpt><trkpt lat="40.1983671104469" lon="19.861489243202435"><ele>633.0</ele><time>2026-04-27T14:40:46.001Z</time></trkpt><trkpt lat="40.19846681265102" lon="19.861349553397687"><ele>633.0</ele><time>2026-04-27T14:40:47.001Z</time></trkpt><trkpt lat="40.198568744947885" lon="19.861236941714022"><ele>633.0</ele><time>2026-04-27T14:40:48.001Z</time></trkpt><trkpt lat="40.19867439919331" lon="19.861141317028906"><ele>633.0</ele><time>2026-04-27T14:40:49.001Z</time></trkpt><trkpt lat="40.19877911109597" lon="19.86105269969737"><ele>633.0</ele><time>2026-04-27T14:40:50.001Z</time></trkpt><trkpt lat="40.19889276636693" lon="19.860960782698317"><ele>629.5</ele><time>2026-04-27T14:40:51.001Z</time></trkpt><trkpt lat="40.199014464253196" lon="19.860850302493404"><ele>626.0</ele><time>2026-04-27T14:40:52.001Z</time></trkpt><trkpt lat="40.19913254909649" lon="19.86073773527872"><ele>622.5</ele><time>2026-04-27T14:40:53.001Z</time></trkpt><trkpt lat="40.19923299325021" lon="19.860623097948892"><ele>619.0</ele><time>2026-04-27T14:40:54.001Z</time></trkpt><trkpt lat="40.19932057002959" lon="19.8605034179763"><ele>619.0</ele><time>2026-04-27T14:40:55.001Z</time></trkpt><trkpt lat="40.19940012982395" lon="19.86038745524574"><ele>619.0</ele><time>2026-04-27T14:40:56.001Z</time></trkpt><trkpt lat="40.199474830590646" lon="19.860277370127914"><ele>619.0</ele><time>2026-04-27T14:40:57.001Z</time></trkpt><trkpt lat="40.19955080458108" lon="19.86015658534875"><ele>619.0</ele><time>2026-04-27T14:40:58.001Z</time></trkpt><trkpt lat="40.19963062587947" lon="19.860020456019758"><ele>616.0</ele><time>2026-04-27T14:40:59.001Z</time></trkpt><trkpt lat="40.199718344264454" lon="19.8598769463538"><ele>613.0</ele><time>2026-04-27T14:41:00.001Z</time></trkpt><trkpt lat="40.19980662466066" lon="19.859726381699232"><ele>610.0</ele><time>2026-04-27T14:41:01.001Z</time></trkpt><trkpt lat="40.199887884247836" lon="19.85958540280016"><ele>607.0</ele><time>2026-04-27T14:41:02.001Z</time></trkpt><trkpt lat="40.19996529149482" lon="19.859442263002972"><ele>607.0</ele><time>2026-04-27T14:41:03.001Z</time></trkpt><trkpt lat="40.20004492765748" lon="19.859294771798442"><ele>607.0</ele><time>2026-04-27T14:41:04.001Z</time></trkpt><trkpt lat="40.20012910937078" lon="19.859148588331312"><ele>607.0</ele><time>2026-04-27T14:41:05.001Z</time></trkpt><trkpt lat="40.20020651695593" lon="19.859010179232648"><ele>607.0</ele><time>2026-04-27T14:41:06.001Z</time></trkpt><trkpt lat="40.20027810137566" lon="19.85887256988581"><ele>611.0</ele><time>2026-04-27T14:41:07.001Z</time></trkpt><trkpt lat="40.20034967436406" lon="19.858740627134157"><ele>615.0</ele><time>2026-04-27T14:41:08.001Z</time></trkpt><trkpt lat="40.200418642023365" lon="19.8586111071218"><ele>619.0</ele><time>2026-04-27T14:41:09.001Z</time></trkpt><trkpt lat="40.20047955415043" lon="19.858462781850633"><ele>623.0</ele><time>2026-04-27T14:41:10.001Z</time></trkpt><trkpt lat="40.200545449933365" lon="19.85832883721207"><ele>627.75</ele><time>2026-04-27T14:41:11.001Z</time></trkpt><trkpt lat="40.20062101033131" lon="19.858186964111788"><ele>632.5</ele><time>2026-04-27T14:41:12.001Z</time></trkpt><trkpt lat="40.200694488337405" lon="19.85804444970871"><ele>637.25</ele><time>2026-04-27T14:41:13.001Z</time></trkpt><trkpt lat="40.20076738576819" lon="19.857907596438075"><ele>642.0</ele><time>2026-04-27T14:41:14.001Z</time></trkpt><trkpt lat="40.20083520964694" lon="19.85777705061537"><ele>632.5</ele><time>2026-04-27T14:41:15.001Z</time></trkpt><trkpt lat="40.20089859387879" lon="19.8576501062214"><ele>623.0</ele><time>2026-04-27T14:41:16.001Z</time></trkpt><trkpt lat="40.20095787348288" lon="19.857523478031883"><ele>613.5</ele><time>2026-04-27T14:41:17.001Z</time></trkpt><trkpt lat="40.20100862931605" lon="19.857395378225686"><ele>604.0</ele><time>2026-04-27T14:41:18.001Z</time></trkpt><trkpt lat="40.201052507106716" lon="19.85726248393816"><ele>604.0</ele><time>2026-04-27T14:41:19.001Z</time></trkpt><trkpt lat="40.20108282128153" lon="19.857130754530086"><ele>604.0</ele><time>2026-04-27T14:41:20.001Z</time></trkpt><trkpt lat="40.20110610457556" lon="19.856986241438214"><ele>604.0</ele><time>2026-04-27T14:41:21.001Z</time></trkpt><trkpt lat="40.201111579486636" lon="19.85682335494355"><ele>604.0</ele><time>2026-04-27T14:41:22.001Z</time></trkpt><trkpt lat="40.201083908637436" lon="19.856665475533994"><ele>602.5</ele><time>2026-04-27T14:41:23.001Z</time></trkpt><trkpt lat="40.20102639173678" lon="19.85651855154878"><ele>601.0</ele><time>2026-04-27T14:41:24.001Z</time></trkpt><trkpt lat="40.20094373735229" lon="19.856387179892177"><ele>599.5</ele><time>2026-04-27T14:41:25.001Z</time></trkpt><trkpt lat="40.20084222659249" lon="19.85626039701867"><ele>598.0</ele><time>2026-04-27T14:41:26.001Z</time></trkpt><trkpt lat="40.20073085788382" lon="19.8561421086018"><ele>596.6666666666667</ele><time>2026-04-27T14:41:27.001Z</time></trkpt><trkpt lat="40.20059676184755" lon="19.85604513209552"><ele>595.3333333333334</ele><time>2026-04-27T14:41:28.001Z</time></trkpt><trkpt lat="40.20044879734924" lon="19.855959534069115"><ele>594.0</ele><time>2026-04-27T14:41:29.001Z</time></trkpt><trkpt lat="40.20029866405933" lon="19.855860696682594"><ele>594.0</ele><time>2026-04-27T14:41:30.001Z</time></trkpt><trkpt lat="40.20014397952017" lon="19.855760250933766"><ele>594.0</ele><time>2026-04-27T14:41:31.001Z</time></trkpt><trkpt lat="40.1999841074863" lon="19.855653598653067"><ele>594.0</ele><time>2026-04-27T14:41:32.001Z</time></trkpt><trkpt lat="40.199835714451545" lon="19.855562710851846"><ele>599.3333333333334</ele><time>2026-04-27T14:41:33.001Z</time></trkpt><trkpt lat="40.19968498720125" lon="19.855456870032388"><ele>604.6666666666667</ele><time>2026-04-27T14:41:34.001Z</time></trkpt><trkpt lat="40.199545652199106" lon="19.85536783168937"><ele>610.0</ele><time>2026-04-27T14:41:35.001Z</time></trkpt><trkpt lat="40.19941003560499" lon="19.855294793992176"><ele>610.0</ele><time>2026-04-27T14:41:36.001Z</time></trkpt><trkpt lat="40.199277233242455" lon="19.85522638332365"><ele>610.0</ele><time>2026-04-27T14:41:37.001Z</time></trkpt><trkpt lat="40.19914611619881" lon="19.855165733396973"><ele>610.0</ele><time>2026-04-27T14:41:38.001Z</time></trkpt><trkpt lat="40.19901683025073" lon="19.855090166576357"><ele>610.0</ele><time>2026-04-27T14:41:39.001Z</time></trkpt><trkpt lat="40.198904271263075" lon="19.85496978696992"><ele>611.6666666666667</ele><time>2026-04-27T14:41:40.001Z</time></trkpt><trkpt lat="40.198807533591776" lon="19.854802258236102"><ele>613.3333333333334</ele><time>2026-04-27T14:41:41.001Z</time></trkpt><trkpt lat="40.19872967005246" lon="19.85459611306859"><ele>615.0</ele><time>2026-04-27T14:41:42.001Z</time></trkpt><trkpt lat="40.198663681985394" lon="19.854369443135813"><ele>606.3333333333334</ele><time>2026-04-27T14:41:43.001Z</time></trkpt><trkpt lat="40.19860703766507" lon="19.854144543789584"><ele>597.6666666666667</ele><time>2026-04-27T14:41:44.001Z</time></trkpt><trkpt lat="40.19857596897851" lon="19.85393529391293"><ele>589.0</ele><time>2026-04-27T14:41:45.001Z</time></trkpt><trkpt lat="40.198554975418645" lon="19.853731740506127"><ele>589.0</ele><time>2026-04-27T14:41:46.001Z</time></trkpt><trkpt lat="40.198534970211135" lon="19.853543645423592"><ele>589.0</ele><time>2026-04-27T14:41:47.001Z</time></trkpt><trkpt lat="40.198507295801924" lon="19.853359720372662"><ele>589.0</ele><time>2026-04-27T14:41:48.001Z</time></trkpt><trkpt lat="40.19847848870626" lon="19.85318025344456"><ele>589.0</ele><time>2026-04-27T14:41:49.001Z</time></trkpt><trkpt lat="40.19846241883572" lon="19.853017601429"><ele>584.6</ele><time>2026-04-27T14:41:50.001Z</time></trkpt><trkpt lat="40.198441718045515" lon="19.85289024193939"><ele>580.2</ele><time>2026-04-27T14:41:51.001Z</time></trkpt><trkpt lat="40.19839643553227" lon="19.85279315521585"><ele>575.8000000000001</ele><time>2026-04-27T14:41:52.001Z</time></trkpt><trkpt lat="40.19832325314645" lon="19.852726696686425"><ele>571.4</ele><time>2026-04-27T14:41:53.001Z</time></trkpt><trkpt lat="40.19822054467596" lon="19.85266199431459"><ele>567.0</ele><time>2026-04-27T14:41:54.001Z</time></trkpt><trkpt lat="40.1980966662436" lon="19.85259298769428"><ele>566.0</ele><time>2026-04-27T14:41:55.001Z</time></trkpt><trkpt lat="40.19796777317271" lon="19.852526916228957"><ele>565.0</ele><time>2026-04-27T14:41:56.001Z</time></trkpt><trkpt lat="40.1978205960302" lon="19.85245991651412"><ele>564.0</ele><time>2026-04-27T14:41:57.001Z</time></trkpt><trkpt lat="40.19767462678683" lon="19.852398535188474"><ele>563.0</ele><time>2026-04-27T14:41:58.001Z</time></trkpt><trkpt lat="40.19755452103067" lon="19.85232994625676"><ele>563.0</ele><time>2026-04-27T14:41:59.001Z</time></trkpt><trkpt lat="40.19743300545568" lon="19.85222598865904"><ele>563.0</ele><time>2026-04-27T14:42:00.001Z</time></trkpt><trkpt lat="40.197313569399434" lon="19.852117364049025"><ele>563.0</ele><time>2026-04-27T14:42:01.001Z</time></trkpt><trkpt lat="40.1971912337399" lon="19.85204547608532"><ele>563.0</ele><time>2026-04-27T14:42:02.001Z</time></trkpt><trkpt lat="40.19704874099195" lon="19.852005899536042"><ele>559.3333333333333</ele><time>2026-04-27T14:42:03.001Z</time></trkpt><trkpt lat="40.196895027006995" lon="19.852005048966202"><ele>555.6666666666666</ele><time>2026-04-27T14:42:04.001Z</time></trkpt><trkpt lat="40.196726563214" lon="19.85204628577242"><ele>552.0</ele><time>2026-04-27T14:42:05.001Z</time></trkpt><trkpt lat="40.196560901616586" lon="19.852109649540044"><ele>546.0</ele><time>2026-04-27T14:42:06.001Z</time></trkpt><trkpt lat="40.19639219952706" lon="19.852178688008006"><ele>540.0</ele><time>2026-04-27T14:42:07.001Z</time></trkpt><trkpt lat="40.19622445117703" lon="19.852232148620242"><ele>534.0</ele><time>2026-04-27T14:42:08.001Z</time></trkpt><trkpt lat="40.19604847604372" lon="19.852260895822166"><ele>534.0</ele><time>2026-04-27T14:42:09.001Z</time></trkpt><trkpt lat="40.19587311333738" lon="19.85226292291559"><ele>534.0</ele><time>2026-04-27T14:42:10.001Z</time></trkpt><trkpt lat="40.19570059214853" lon="19.852241896927993"><ele>534.0</ele><time>2026-04-27T14:42:11.001Z</time></trkpt><trkpt lat="40.19552245881035" lon="19.852217919949034"><ele>536.0</ele><time>2026-04-27T14:42:12.001Z</time></trkpt><trkpt lat="40.19533918086571" lon="19.852194346388533"><ele>538.0</ele><time>2026-04-27T14:42:13.001Z</time></trkpt><trkpt lat="40.19516620779497" lon="19.852167872439825"><ele>540.0</ele><time>2026-04-27T14:42:14.001Z</time></trkpt><trkpt lat="40.195006490272355" lon="19.852136685952612"><ele>540.0</ele><time>2026-04-27T14:42:15.001Z</time></trkpt><trkpt lat="40.19485309150137" lon="19.852097485793717"><ele>540.0</ele><time>2026-04-27T14:42:16.001Z</time></trkpt><trkpt lat="40.194706671323225" lon="19.85205353848249"><ele>540.0</ele><time>2026-04-27T14:42:17.001Z</time></trkpt><trkpt lat="40.19455886792929" lon="19.85198666835417"><ele>543.25</ele><time>2026-04-27T14:42:18.001Z</time></trkpt><trkpt lat="40.19442967170134" lon="19.851886550794347"><ele>546.5</ele><time>2026-04-27T14:42:19.001Z</time></trkpt><trkpt lat="40.19431782352157" lon="19.85177880110633"><ele>549.75</ele><time>2026-04-27T14:42:20.001Z</time></trkpt><trkpt lat="40.19421747324445" lon="19.851681208243768"><ele>553.0</ele><time>2026-04-27T14:42:21.001Z</time></trkpt><trkpt lat="40.19411228119252" lon="19.851611146347707"><ele>546.5</ele><time>2026-04-27T14:42:22.001Z</time></trkpt><trkpt lat="40.19400583908907" lon="19.85157209523283"><ele>540.0</ele><time>2026-04-27T14:42:23.001Z</time></trkpt><trkpt lat="40.193886884448794" lon="19.851529758909898"><ele>533.5</ele><time>2026-04-27T14:42:24.001Z</time></trkpt><trkpt lat="40.19377013087557" lon="19.851501684604404"><ele>527.0</ele><time>2026-04-27T14:42:25.001Z</time></trkpt><trkpt lat="40.19365375207256" lon="19.851467754355266"><ele>527.0</ele><time>2026-04-27T14:42:26.001Z</time></trkpt><trkpt lat="40.19353870134784" lon="19.851431270259766"><ele>527.0</ele><time>2026-04-27T14:42:27.001Z</time></trkpt><trkpt lat="40.19342037036001" lon="19.851385639462038"><ele>527.0</ele><time>2026-04-27T14:42:28.001Z</time></trkpt><trkpt lat="40.19329682663553" lon="19.85132273014757"><ele>527.0</ele><time>2026-04-27T14:42:29.001Z</time></trkpt><trkpt lat="40.193169798174594" lon="19.851241732910598"><ele>526.0</ele><time>2026-04-27T14:42:30.001Z</time></trkpt><trkpt lat="40.193052151824766" lon="19.851162211245278"><ele>525.0</ele><time>2026-04-27T14:42:31.001Z</time></trkpt><trkpt lat="40.19294348375481" lon="19.851085846146418"><ele>524.0</ele><time>2026-04-27T14:42:32.001Z</time></trkpt><trkpt lat="40.1928384583464" lon="19.8509985729226"><ele>523.0</ele><time>2026-04-27T14:42:33.001Z</time></trkpt><trkpt lat="40.19274090794256" lon="19.850907509868332"><ele>523.0</ele><time>2026-04-27T14:42:34.001Z</time></trkpt><trkpt lat="40.19265577756912" lon="19.85079928879078"><ele>523.0</ele><time>2026-04-27T14:42:35.001Z</time></trkpt><trkpt lat="40.19258543946213" lon="19.850681206651775"><ele>523.0</ele><time>2026-04-27T14:42:36.001Z</time></trkpt><trkpt lat="40.1925360084846" lon="19.850551629532745"><ele>523.0</ele><time>2026-04-27T14:42:37.001Z</time></trkpt><trkpt lat="40.1925012376536" lon="19.850420418084248"><ele>523.0</ele><time>2026-04-27T14:42:38.001Z</time></trkpt><trkpt lat="40.19246558795208" lon="19.85029076243946"><ele>523.0</ele><time>2026-04-27T14:42:39.001Z</time></trkpt><trkpt lat="40.19242445251496" lon="19.850163004676997"><ele>523.0</ele><time>2026-04-27T14:42:40.001Z</time></trkpt><trkpt lat="40.19240446428572" lon="19.85004421813105"><ele>523.0</ele><time>2026-04-27T14:42:41.001Z</time></trkpt><trkpt lat="40.19240838815301" lon="19.84992742689965"><ele>523.0</ele><time>2026-04-27T14:42:42.001Z</time></trkpt><trkpt lat="40.19243518337753" lon="19.849822296474546"><ele>522.9999999999999</ele><time>2026-04-27T14:42:43.001Z</time></trkpt><trkpt lat="40.19247911768246" lon="19.849739263632735"><ele>523.0</ele><time>2026-04-27T14:42:44.001Z</time></trkpt><trkpt lat="40.19252771240597" lon="19.849665757314355"><ele>523.0</ele><time>2026-04-27T14:42:45.001Z</time></trkpt><trkpt lat="40.192568119412485" lon="19.849596711229573"><ele>523.0</ele><time>2026-04-27T14:42:46.001Z</time></trkpt><trkpt lat="40.192611104525575" lon="19.849532750540817"><ele>523.0</ele><time>2026-04-27T14:42:47.001Z</time></trkpt><trkpt lat="40.19263305736533" lon="19.849429980529912"><ele>522.9999999999999</ele><time>2026-04-27T14:42:48.001Z</time></trkpt><trkpt lat="40.19264319595285" lon="19.84932758073318"><ele>523.0</ele><time>2026-04-27T14:42:49.001Z</time></trkpt><trkpt lat="40.19263975821965" lon="19.849233396559345"><ele>523.0</ele><time>2026-04-27T14:42:50.001Z</time></trkpt><trkpt lat="40.1926287619885" lon="19.849145455633327"><ele>523.0</ele><time>2026-04-27T14:42:51.001Z</time></trkpt><trkpt lat="40.192619318301546" lon="19.849048250371744"><ele>523.0</ele><time>2026-04-27T14:42:52.001Z</time></trkpt><trkpt lat="40.19260800566057" lon="19.84894033421256"><ele>523.0</ele><time>2026-04-27T14:42:53.001Z</time></trkpt><trkpt lat="40.192596830308936" lon="19.848818753785203"><ele>523.0</ele><time>2026-04-27T14:42:54.001Z</time></trkpt><trkpt lat="40.19258446273938" lon="19.848691275839975"><ele>523.0</ele><time>2026-04-27T14:42:55.001Z</time></trkpt><trkpt lat="40.192575340422856" lon="19.848573422334848"><ele>523.0</ele><time>2026-04-27T14:42:56.001Z</time></trkpt><trkpt lat="40.19257034292827" lon="19.848463371513045"><ele>523.0</ele><time>2026-04-27T14:42:57.001Z</time></trkpt><trkpt lat="40.19256681964796" lon="19.84835699568067"><ele>523.0</ele><time>2026-04-27T14:42:58.001Z</time></trkpt><trkpt lat="40.192564652435465" lon="19.848260090533106"><ele>523.0</ele><time>2026-04-27T14:42:59.001Z</time></trkpt><trkpt lat="40.19256947095448" lon="19.848171418395175"><ele>523.0</ele><time>2026-04-27T14:43:00.001Z</time></trkpt><trkpt lat="40.19257077088152" lon="19.848087942767975"><ele>523.0</ele><time>2026-04-27T14:43:01.001Z</time></trkpt><trkpt lat="40.19256823037162" lon="19.847932861967827"><ele>523.5</ele><time>2026-04-27T14:43:03.001Z</time></trkpt><trkpt lat="40.192575552471034" lon="19.847789927425268"><ele>524.0</ele><time>2026-04-27T14:43:05.001Z</time></trkpt><trkpt lat="40.19256867681846" lon="19.847693570731487"><ele>524.5</ele><time>2026-04-27T14:43:07.001Z</time></trkpt><trkpt lat="40.192558850853594" lon="19.847600649617227"><ele>525.0</ele><time>2026-04-27T14:43:10.001Z</time></trkpt><trkpt lat="40.19250311164213" lon="19.847551839107712"><ele>525.5</ele><time>2026-04-27T14:43:34.001Z</time></trkpt><trkpt lat="40.19248300211578" lon="19.847440004927414"><ele>526.0</ele><time>2026-04-27T14:43:37.001Z</time></trkpt><trkpt lat="40.192509830046724" lon="19.847531107289942"><ele>520.75</ele><time>2026-04-27T14:43:59.001Z</time></trkpt><trkpt lat="40.1925384451062" lon="19.84760970524842"><ele>515.5</ele><time>2026-04-27T14:44:12.001Z</time></trkpt><trkpt lat="40.192501214492175" lon="19.84748394184369"><ele>510.25</ele><time>2026-04-27T14:45:21.001Z</time></trkpt><trkpt lat="40.192448213769566" lon="19.847297967206515"><ele>505.0</ele><time>2026-04-27T14:45:23.001Z</time></trkpt><trkpt lat="40.19238917015465" lon="19.847140225489962"><ele>505.00000000000006</ele><time>2026-04-27T14:45:25.001Z</time></trkpt><trkpt lat="40.19235165463581" lon="19.847048085252137"><ele>505.0</ele><time>2026-04-27T14:45:26.001Z</time></trkpt><trkpt lat="40.19232508650145" lon="19.846957604439556"><ele>505.0</ele><time>2026-04-27T14:45:27.001Z</time></trkpt><trkpt lat="40.19229653909115" lon="19.846861453147085"><ele>505.0</ele><time>2026-04-27T14:45:28.001Z</time></trkpt><trkpt lat="40.1922749928018" lon="19.846756383280756"><ele>505.00000000000006</ele><time>2026-04-27T14:45:29.001Z</time></trkpt><trkpt lat="40.19226893131473" lon="19.84665249003285"><ele>505.0</ele><time>2026-04-27T14:45:30.001Z</time></trkpt><trkpt lat="40.192260809359695" lon="19.846533795378605"><ele>514.25</ele><time>2026-04-27T14:45:31.001Z</time></trkpt><trkpt lat="40.1921503669527" lon="19.846437080332205"><ele>523.5</ele><time>2026-04-27T14:45:32.001Z</time></trkpt><trkpt lat="40.19210049750309" lon="19.8463026264156"><ele>532.75</ele><time>2026-04-27T14:45:33.001Z</time></trkpt><trkpt lat="40.19203902522509" lon="19.846167920599164"><ele>542.0</ele><time>2026-04-27T14:45:34.001Z</time></trkpt><trkpt lat="40.191973003539836" lon="19.846014652532382"><ele>528.6666666666666</ele><time>2026-04-27T14:45:35.001Z</time></trkpt><trkpt lat="40.19187967356197" lon="19.84582263403238"><ele>515.3333333333334</ele><time>2026-04-27T14:45:36.001Z</time></trkpt><trkpt lat="40.191758353263026" lon="19.845614805609493"><ele>502.0</ele><time>2026-04-27T14:45:37.001Z</time></trkpt><trkpt lat="40.19161200035973" lon="19.845393231955153"><ele>503.33333333333337</ele><time>2026-04-27T14:45:38.001Z</time></trkpt><trkpt lat="40.19144688939074" lon="19.845193569245094"><ele>504.66666666666663</ele><time>2026-04-27T14:45:39.001Z</time></trkpt><trkpt lat="40.19129590276778" lon="19.8450369673435"><ele>506.0</ele><time>2026-04-27T14:45:40.001Z</time></trkpt><trkpt lat="40.19115221659253" lon="19.84489745582775"><ele>506.0</ele><time>2026-04-27T14:45:41.001Z</time></trkpt><trkpt lat="40.19102111671394" lon="19.844762748050915"><ele>506.0</ele><time>2026-04-27T14:45:42.001Z</time></trkpt><trkpt lat="40.19090259374304" lon="19.84463229930494"><ele>506.0</ele><time>2026-04-27T14:45:43.001Z</time></trkpt><trkpt lat="40.19080293174787" lon="19.84450148136741"><ele>506.0</ele><time>2026-04-27T14:45:44.001Z</time></trkpt><trkpt lat="40.190721227923774" lon="19.844374247759387"><ele>506.0</ele><time>2026-04-27T14:45:45.001Z</time></trkpt><trkpt lat="40.1906489758434" lon="19.84425287816883"><ele>506.0</ele><time>2026-04-27T14:45:46.001Z</time></trkpt><trkpt lat="40.190582000117956" lon="19.844143092019912"><ele>506.0</ele><time>2026-04-27T14:45:47.001Z</time></trkpt><trkpt lat="40.19052991006303" lon="19.844036464635128"><ele>506.0</ele><time>2026-04-27T14:45:48.001Z</time></trkpt><trkpt lat="40.1904921170806" lon="19.84393933987282"><ele>502.20000000000005</ele><time>2026-04-27T14:45:49.001Z</time></trkpt><trkpt lat="40.190484121212684" lon="19.843824631460823"><ele>498.40000000000003</ele><time>2026-04-27T14:45:50.001Z</time></trkpt><trkpt lat="40.19049877542698" lon="19.843680956553456"><ele>494.6</ele><time>2026-04-27T14:45:51.001Z</time></trkpt><trkpt lat="40.19052432672922" lon="19.843535240161504"><ele>490.8</ele><time>2026-04-27T14:45:52.001Z</time></trkpt><trkpt lat="40.19053089979182" lon="19.843378820193582"><ele>487.0</ele><time>2026-04-27T14:45:53.001Z</time></trkpt><trkpt lat="40.1905021120536" lon="19.84322333337725"><ele>487.0</ele><time>2026-04-27T14:45:54.001Z</time></trkpt><trkpt lat="40.19042920927355" lon="19.84310987217248"><ele>487.0</ele><time>2026-04-27T14:45:55.001Z</time></trkpt><trkpt lat="40.19034116577343" lon="19.843015166126744"><ele>487.0</ele><time>2026-04-27T14:45:56.001Z</time></trkpt><trkpt lat="40.190211950204095" lon="19.842905496139917"><ele>487.0</ele><time>2026-04-27T14:45:57.001Z</time></trkpt><trkpt lat="40.190047256814616" lon="19.84276237447418"><ele>480.0</ele><time>2026-04-27T14:45:58.001Z</time></trkpt><trkpt lat="40.189883075459676" lon="19.84260864279573"><ele>473.0</ele><time>2026-04-27T14:45:59.001Z</time></trkpt><trkpt lat="40.18973412315717" lon="19.842478945058264"><ele>466.0</ele><time>2026-04-27T14:46:00.001Z</time></trkpt><trkpt lat="40.18958407872562" lon="19.842387352032503"><ele>466.0</ele><time>2026-04-27T14:46:01.001Z</time></trkpt><trkpt lat="40.18942857272355" lon="19.84233508516199"><ele>466.0</ele><time>2026-04-27T14:46:02.001Z</time></trkpt><trkpt lat="40.1892611603" lon="19.842316391366328"><ele>466.0</ele><time>2026-04-27T14:46:03.001Z</time></trkpt><trkpt lat="40.1890909872819" lon="19.84232988841875"><ele>464.0</ele><time>2026-04-27T14:46:04.001Z</time></trkpt><trkpt lat="40.18893635753064" lon="19.842363044144513"><ele>462.0</ele><time>2026-04-27T14:46:05.001Z</time></trkpt><trkpt lat="40.188795520102744" lon="19.842402482706355"><ele>460.0</ele><time>2026-04-27T14:46:06.001Z</time></trkpt><trkpt lat="40.188661507499255" lon="19.842433341947288"><ele>458.0</ele><time>2026-04-27T14:46:07.001Z</time></trkpt><trkpt lat="40.18853614644221" lon="19.842462624527684"><ele>458.0</ele><time>2026-04-27T14:46:08.001Z</time></trkpt><trkpt lat="40.18841147035705" lon="19.8424839052851"><ele>458.0</ele><time>2026-04-27T14:46:09.001Z</time></trkpt><trkpt lat="40.188284892969506" lon="19.842483449315708"><ele>458.0</ele><time>2026-04-27T14:46:10.001Z</time></trkpt><trkpt lat="40.188154212170815" lon="19.842454757011648"><ele>458.0</ele><time>2026-04-27T14:46:11.001Z</time></trkpt><trkpt lat="40.18803066369041" lon="19.842407183175997"><ele>462.0</ele><time>2026-04-27T14:46:12.001Z</time></trkpt><trkpt lat="40.187915365317274" lon="19.842356451686076"><ele>466.0</ele><time>2026-04-27T14:46:13.001Z</time></trkpt><trkpt lat="40.18779635107704" lon="19.84228127424017"><ele>470.0</ele><time>2026-04-27T14:46:14.001Z</time></trkpt><trkpt lat="40.187678356091624" lon="19.842171955779687"><ele>474.0</ele><time>2026-04-27T14:46:15.001Z</time></trkpt><trkpt lat="40.187559372725" lon="19.84205035139967"><ele>474.0</ele><time>2026-04-27T14:46:16.001Z</time></trkpt><trkpt lat="40.187433126416956" lon="19.841924077798822"><ele>474.0</ele><time>2026-04-27T14:46:17.001Z</time></trkpt><trkpt lat="40.18729442799132" lon="19.84179932844257"><ele>474.0</ele><time>2026-04-27T14:46:18.001Z</time></trkpt><trkpt lat="40.18714558835396" lon="19.841686159505844"><ele>469.33333333333337</ele><time>2026-04-27T14:46:19.001Z</time></trkpt><trkpt lat="40.1869963738715" lon="19.841565496162524"><ele>464.6666666666667</ele><time>2026-04-27T14:46:20.001Z</time></trkpt><trkpt lat="40.18684528421222" lon="19.84143438528702"><ele>460.0</ele><time>2026-04-27T14:46:21.001Z</time></trkpt><trkpt lat="40.18668838128885" lon="19.841300992630106"><ele>460.0</ele><time>2026-04-27T14:46:22.001Z</time></trkpt><trkpt lat="40.186527003060036" lon="19.84116351329741"><ele>460.0</ele><time>2026-04-27T14:46:23.001Z</time></trkpt><trkpt lat="40.186372883743545" lon="19.84101309742236"><ele>460.0</ele><time>2026-04-27T14:46:24.001Z</time></trkpt><trkpt lat="40.18624233023322" lon="19.840856115419502"><ele>458.6666666666667</ele><time>2026-04-27T14:46:25.001Z</time></trkpt><trkpt lat="40.186119085492905" lon="19.840686050338483"><ele>457.33333333333337</ele><time>2026-04-27T14:46:26Z</time></trkpt><trkpt lat="40.18600151120373" lon="19.84051851860872"><ele>456.0</ele><time>2026-04-27T14:46:27Z</time></trkpt><trkpt lat="40.185897264735644" lon="19.840364688519855"><ele>456.0</ele><time>2026-04-27T14:46:28Z</time></trkpt><trkpt lat="40.18581441950495" lon="19.840210540263072"><ele>456.0</ele><time>2026-04-27T14:46:29Z</time></trkpt><trkpt lat="40.18576820979296" lon="19.840043415186546"><ele>456.0</ele><time>2026-04-27T14:46:30Z</time></trkpt><trkpt lat="40.185755695846865" lon="19.839851930286034"><ele>456.0</ele><time>2026-04-27T14:46:31Z</time></trkpt><trkpt lat="40.18576312624234" lon="19.839646089106182"><ele>450.66666666666663</ele><time>2026-04-27T14:46:32Z</time></trkpt><trkpt lat="40.18576834168573" lon="19.839431773380237"><ele>445.3333333333333</ele><time>2026-04-27T14:46:33Z</time></trkpt><trkpt lat="40.18575959015228" lon="19.839213208206935"><ele>440.0</ele><time>2026-04-27T14:46:34Z</time></trkpt><trkpt lat="40.18574015932475" lon="19.839029489268846"><ele>440.66666666666663</ele><time>2026-04-27T14:46:35Z</time></trkpt><trkpt lat="40.18570382930152" lon="19.83885386572074"><ele>441.33333333333337</ele><time>2026-04-27T14:46:36Z</time></trkpt><trkpt lat="40.185639794687276" lon="19.838670672227426"><ele>442.0</ele><time>2026-04-27T14:46:37Z</time></trkpt><trkpt lat="40.185556010147046" lon="19.83849319725936"><ele>439.0</ele><time>2026-04-27T14:46:38Z</time></trkpt><trkpt lat="40.185462543241165" lon="19.83835281941608"><ele>436.0</ele><time>2026-04-27T14:46:39Z</time></trkpt><trkpt lat="40.18537182486722" lon="19.83825178365335"><ele>433.0</ele><time>2026-04-27T14:46:40Z</time></trkpt><trkpt lat="40.18526857499502" lon="19.838189536103044"><ele>430.0</ele><time>2026-04-27T14:46:41Z</time></trkpt><trkpt lat="40.18512573642533" lon="19.838144457690337"><ele>430.0</ele><time>2026-04-27T14:46:42Z</time></trkpt><trkpt lat="40.184977735427275" lon="19.838095446409607"><ele>430.0</ele><time>2026-04-27T14:46:43Z</time></trkpt><trkpt lat="40.184849960894276" lon="19.838066405646288"><ele>430.0</ele><time>2026-04-27T14:46:44Z</time></trkpt><trkpt lat="40.184732157088526" lon="19.838081444559002"><ele>430.0</ele><time>2026-04-27T14:46:45Z</time></trkpt><trkpt lat="40.18461343568791" lon="19.838141598379504"><ele>430.2</ele><time>2026-04-27T14:46:46Z</time></trkpt><trkpt lat="40.18450453644415" lon="19.838237940120152"><ele>430.4</ele><time>2026-04-27T14:46:47Z</time></trkpt><trkpt lat="40.18440442346099" lon="19.838332290536272"><ele>430.6</ele><time>2026-04-27T14:46:48Z</time></trkpt><trkpt lat="40.18432678665254" lon="19.8384043331491"><ele>430.8</ele><time>2026-04-27T14:46:49Z</time></trkpt><trkpt lat="40.18424618866328" lon="19.83846803689721"><ele>431.0</ele><time>2026-04-27T14:46:51Z</time></trkpt><trkpt lat="40.184300074012114" lon="19.838577835498235"><ele>433.16666666666663</ele><time>2026-04-27T14:46:57Z</time></trkpt><trkpt lat="40.18437167819194" lon="19.838612600899975"><ele>435.3333333333333</ele><time>2026-04-27T14:47:00Z</time></trkpt><trkpt lat="40.184447699318945" lon="19.83867789541223"><ele>437.5</ele><time>2026-04-27T14:47:02Z</time></trkpt><trkpt lat="40.18453828058103" lon="19.83874394872598"><ele>439.66666666666663</ele><time>2026-04-27T14:47:04Z</time></trkpt><trkpt lat="40.18461445406021" lon="19.8388075779605"><ele>441.8333333333333</ele><time>2026-04-27T14:47:05Z</time></trkpt><trkpt lat="40.18468677659155" lon="19.838868836161154"><ele>444.0</ele><time>2026-04-27T14:47:06Z</time></trkpt><trkpt lat="40.18476604907499" lon="19.838943835200418"><ele>444.0</ele><time>2026-04-27T14:47:08Z</time></trkpt><trkpt lat="40.18482399871019" lon="19.839048631183225"><ele>444.0</ele><time>2026-04-27T14:47:10Z</time></trkpt><trkpt lat="40.18485250993043" lon="19.839190011825913"><ele>444.0</ele><time>2026-04-27T14:47:12Z</time></trkpt><trkpt lat="40.1848078882756" lon="19.83931798941186"><ele>444.0</ele><time>2026-04-27T14:47:14Z</time></trkpt><trkpt lat="40.18472799351788" lon="19.839428676117507"><ele>444.0</ele><time>2026-04-27T14:47:16Z</time></trkpt><trkpt lat="40.18462915784545" lon="19.839537329804433"><ele>450.6</ele><time>2026-04-27T14:47:18Z</time></trkpt><trkpt lat="40.184550605502984" lon="19.839604939571036"><ele>457.2</ele><time>2026-04-27T14:47:19Z</time></trkpt><trkpt lat="40.1844635662256" lon="19.839677254175356"><ele>463.80000000000007</ele><time>2026-04-27T14:47:20Z</time></trkpt><trkpt lat="40.18440597498349" lon="19.839721375651422"><ele>470.40000000000003</ele><time>2026-04-27T14:47:21Z</time></trkpt><trkpt lat="40.18427846518643" lon="19.839691323388326"><ele>477.0</ele><time>2026-04-27T14:47:23Z</time></trkpt><trkpt lat="40.18417450681776" lon="19.83967478856042"><ele>477.0</ele><time>2026-04-27T14:47:24Z</time></trkpt><trkpt lat="40.18407766527524" lon="19.839638395913255"><ele>477.0</ele><time>2026-04-27T14:47:25Z</time></trkpt><trkpt lat="40.18392442680218" lon="19.83957523915834"><ele>477.0</ele><time>2026-04-27T14:47:26Z</time></trkpt><trkpt lat="40.183747352500944" lon="19.839493666966074"><ele>477.0</ele><time>2026-04-27T14:47:27Z</time></trkpt><trkpt lat="40.18357763789919" lon="19.83941483937784"><ele>478.25</ele><time>2026-04-27T14:47:28Z</time></trkpt><trkpt lat="40.183427930577146" lon="19.83934521878568"><ele>479.5</ele><time>2026-04-27T14:47:29Z</time></trkpt><trkpt lat="40.183312396211996" lon="19.839291490142923"><ele>480.75</ele><time>2026-04-27T14:47:30Z</time></trkpt><trkpt lat="40.183192195601755" lon="19.839258135539275"><ele>482.0</ele><time>2026-04-27T14:47:31Z</time></trkpt><trkpt lat="40.18307946522859" lon="19.839223394744735"><ele>482.0</ele><time>2026-04-27T14:47:32Z</time></trkpt><trkpt lat="40.182976930698736" lon="19.839221970542113"><ele>482.00000000000006</ele><time>2026-04-27T14:47:33Z</time></trkpt><trkpt lat="40.182886929787095" lon="19.839201147549055"><ele>482.00000000000006</ele><time>2026-04-27T14:47:34Z</time></trkpt><trkpt lat="40.18279970579712" lon="19.8391945309377"><ele>482.0</ele><time>2026-04-27T14:47:35Z</time></trkpt><trkpt lat="40.18270984547154" lon="19.83918676325682"><ele>482.0</ele><time>2026-04-27T14:47:36Z</time></trkpt><trkpt lat="40.18261959913123" lon="19.83915490264626"><ele>482.0</ele><time>2026-04-27T14:47:37Z</time></trkpt><trkpt lat="40.18254208768917" lon="19.839066947346012"><ele>482.00000000000006</ele><time>2026-04-27T14:47:38Z</time></trkpt><trkpt lat="40.182463692894565" lon="19.83896136380533"><ele>482.00000000000006</ele><time>2026-04-27T14:47:39Z</time></trkpt><trkpt lat="40.182394313941394" lon="19.838879167661332"><ele>482.0</ele><time>2026-04-27T14:47:40Z</time></trkpt><trkpt lat="40.18232099845796" lon="19.838809331653994"><ele>482.0</ele><time>2026-04-27T14:47:41Z</time></trkpt><trkpt lat="40.182254978870624" lon="19.838724153592395"><ele>483.8</ele><time>2026-04-27T14:47:42Z</time></trkpt><trkpt lat="40.182185974474066" lon="19.838642915331725"><ele>485.6</ele><time>2026-04-27T14:47:43Z</time></trkpt><trkpt lat="40.18211762976815" lon="19.838560550022454"><ele>487.40000000000003</ele><time>2026-04-27T14:47:44Z</time></trkpt><trkpt lat="40.18205890100696" lon="19.83849258436151"><ele>489.20000000000005</ele><time>2026-04-27T14:47:45Z</time></trkpt><trkpt lat="40.1819728808882" lon="19.838452074830318"><ele>491.0</ele><time>2026-04-27T14:47:47Z</time></trkpt><trkpt lat="40.18187323613635" lon="19.838522299971768"><ele>493.0</ele><time>2026-04-27T14:47:49Z</time></trkpt><trkpt lat="40.18184803688819" lon="19.83867931517251"><ele>495.0</ele><time>2026-04-27T14:47:51Z</time></trkpt><trkpt lat="40.18185548077759" lon="19.838766299878383"><ele>497.0</ele><time>2026-04-27T14:47:52Z</time></trkpt><trkpt lat="40.18185559581994" lon="19.83889334495316"><ele>499.0</ele><time>2026-04-27T14:47:53Z</time></trkpt><trkpt lat="40.181851479890426" lon="19.83906494585939"><ele>501.0</ele><time>2026-04-27T14:47:54Z</time></trkpt><trkpt lat="40.18184955548552" lon="19.8392319702032"><ele>504.6</ele><time>2026-04-27T14:47:55Z</time></trkpt><trkpt lat="40.18186168035844" lon="19.839369989542366"><ele>508.20000000000005</ele><time>2026-04-27T14:47:56Z</time></trkpt><trkpt lat="40.181883176365574" lon="19.839484479504627"><ele>511.79999999999995</ele><time>2026-04-27T14:47:57Z</time></trkpt><trkpt lat="40.18185141582939" lon="19.839618690022913"><ele>515.4</ele><time>2026-04-27T14:47:59Z</time></trkpt><trkpt lat="40.18178060814871" lon="19.839610196794865"><ele>519.0</ele><time>2026-04-27T14:48:00Z</time></trkpt><trkpt lat="40.181737628081194" lon="19.839528831926348"><ele>519.0</ele><time>2026-04-27T14:48:01Z</time></trkpt><trkpt lat="40.1816455117037" lon="19.839420980068162"><ele>519.0</ele><time>2026-04-27T14:48:03Z</time></trkpt><trkpt lat="40.181661189408224" lon="19.839321032066923"><ele>519.0</ele><time>2026-04-27T14:48:04Z</time></trkpt><trkpt lat="40.18162929594718" lon="19.83921980075366"><ele>519.0</ele><time>2026-04-27T14:48:05Z</time></trkpt><trkpt lat="40.18159055749994" lon="19.839097627948778"><ele>519.0</ele><time>2026-04-27T14:48:07Z</time></trkpt><trkpt lat="40.18156505186064" lon="19.83901722599236"><ele>518.8333333333334</ele><time>2026-04-27T14:48:09Z</time></trkpt><trkpt lat="40.181539388104646" lon="19.838937153166405"><ele>518.6666666666666</ele><time>2026-04-27T14:49:15Z</time></trkpt><trkpt lat="40.18150411271443" lon="19.83882547306611"><ele>518.5</ele><time>2026-04-27T14:49:17Z</time></trkpt><trkpt lat="40.18148004867806" lon="19.838749113754652"><ele>518.3333333333333</ele><time>2026-04-27T14:49:18Z</time></trkpt><trkpt lat="40.18143307513277" lon="19.83866985325399"><ele>518.1666666666666</ele><time>2026-04-27T14:49:19Z</time></trkpt><trkpt lat="40.18137779000926" lon="19.838595720444037"><ele>518.0</ele><time>2026-04-27T14:49:20Z</time></trkpt><trkpt lat="40.18128218339239" lon="19.83854177946991"><ele>518.0</ele><time>2026-04-27T14:49:22Z</time></trkpt><trkpt lat="40.18121052129577" lon="19.838520646261014"><ele>518.0</ele><time>2026-04-27T14:49:23Z</time></trkpt><trkpt lat="40.18113184437011" lon="19.838495912157704"><ele>518.0</ele><time>2026-04-27T14:49:24Z</time></trkpt><trkpt lat="40.18104509839942" lon="19.83846620291342"><ele>518.0</ele><time>2026-04-27T14:49:25Z</time></trkpt><trkpt lat="40.180959358600276" lon="19.83845708504477"><ele>518.0</ele><time>2026-04-27T14:49:26Z</time></trkpt><trkpt lat="40.18087213838033" lon="19.838489025511386"><ele>518.0</ele><time>2026-04-27T14:49:27Z</time></trkpt><trkpt lat="40.18078629803451" lon="19.83854448794834"><ele>518.0</ele><time>2026-04-27T14:49:28Z</time></trkpt><trkpt lat="40.180698414879906" lon="19.838593536444968"><ele>518.0</ele><time>2026-04-27T14:49:29Z</time></trkpt><trkpt lat="40.18060775114164" lon="19.838641357003176"><ele>518.0</ele><time>2026-04-27T14:49:30Z</time></trkpt><trkpt lat="40.180519063972504" lon="19.83869839410467"><ele>518.0</ele><time>2026-04-27T14:49:31Z</time></trkpt><trkpt lat="40.180434955930274" lon="19.83877280288994"><ele>518.0</ele><time>2026-04-27T14:49:32Z</time></trkpt><trkpt lat="40.180354133265574" lon="19.838847852447532"><ele>518.1999999999999</ele><time>2026-04-27T14:49:33Z</time></trkpt><trkpt lat="40.180269715810574" lon="19.838913376343214"><ele>518.4</ele><time>2026-04-27T14:49:34Z</time></trkpt><trkpt lat="40.180195591663114" lon="19.839016690519056"><ele>518.5999999999999</ele><time>2026-04-27T14:49:35Z</time></trkpt><trkpt lat="40.18009370997212" lon="19.839061469005447"><ele>518.8</ele><time>2026-04-27T14:49:36Z</time></trkpt><trkpt lat="40.17999712731588" lon="19.83912578563509"><ele>519.0</ele><time>2026-04-27T14:49:37Z</time></trkpt><trkpt lat="40.17990153605816" lon="19.839189442368784"><ele>521.5</ele><time>2026-04-27T14:49:38Z</time></trkpt><trkpt lat="40.17979427819118" lon="19.83913118305704"><ele>524.0</ele><time>2026-04-27T14:49:39Z</time></trkpt><trkpt lat="40.17968592889241" lon="19.83912670743509"><ele>526.5</ele><time>2026-04-27T14:49:40Z</time></trkpt><trkpt lat="40.17956516382154" lon="19.83911596019337"><ele>529.0</ele><time>2026-04-27T14:49:41Z</time></trkpt><trkpt lat="40.179440982534494" lon="19.839104804099854"><ele>529.0</ele><time>2026-04-27T14:49:42Z</time></trkpt><trkpt lat="40.17932103035843" lon="19.8390939107442"><ele>529.0</ele><time>2026-04-27T14:49:43Z</time></trkpt><trkpt lat="40.179257504173584" lon="19.83907384429516"><ele>529.0</ele><time>2026-04-27T14:49:44Z</time></trkpt><trkpt lat="40.179180128472055" lon="19.83900728927237"><ele>529.0</ele><time>2026-04-27T14:49:46Z</time></trkpt><trkpt lat="40.17924475095767" lon="19.838961010179197"><ele>529.0</ele><time>2026-04-27T14:49:47Z</time></trkpt><trkpt lat="40.179247662946835" lon="19.838837213766254"><ele>529.0</ele><time>2026-04-27T14:49:48Z</time></trkpt><trkpt lat="40.17924956862693" lon="19.838713402895348"><ele>529.0</ele><time>2026-04-27T14:49:49Z</time></trkpt><trkpt lat="40.17925116488002" lon="19.838595597122"><ele>529.0</ele><time>2026-04-27T14:49:50Z</time></trkpt><trkpt lat="40.17914210153467" lon="19.838510861390898"><ele>529.0</ele><time>2026-04-27T14:49:51Z</time></trkpt><trkpt lat="40.17909547238754" lon="19.838437414747705"><ele>529.0</ele><time>2026-04-27T14:49:52Z</time></trkpt><trkpt lat="40.17897880869616" lon="19.838466412792442"><ele>529.0</ele><time>2026-04-27T14:49:53Z</time></trkpt><trkpt lat="40.17888666158815" lon="19.838471513850685"><ele>533.25</ele><time>2026-04-27T14:49:54Z</time></trkpt><trkpt lat="40.17879343860439" lon="19.83849825083617"><ele>537.5</ele><time>2026-04-27T14:49:55Z</time></trkpt><trkpt lat="40.17868656294335" lon="19.838557662942648"><ele>541.75</ele><time>2026-04-27T14:49:56Z</time></trkpt><trkpt lat="40.178576399459146" lon="19.8386034731707"><ele>546.0</ele><time>2026-04-27T14:49:57Z</time></trkpt><trkpt lat="40.1784560199309" lon="19.838640595448023"><ele>546.0</ele><time>2026-04-27T14:49:58Z</time></trkpt><trkpt lat="40.178341656633506" lon="19.838690726767044"><ele>546.0</ele><time>2026-04-27T14:49:59Z</time></trkpt><trkpt lat="40.178227973922866" lon="19.838710982731136"><ele>546.0</ele><time>2026-04-27T14:50:00Z</time></trkpt><trkpt lat="40.17811102071674" lon="19.838732888892448"><ele>546.0</ele><time>2026-04-27T14:50:01Z</time></trkpt><trkpt lat="40.1779979013246" lon="19.838712154836664"><ele>549.75</ele><time>2026-04-27T14:50:02Z</time></trkpt><trkpt lat="40.177877548758666" lon="19.838699817718474"><ele>553.5</ele><time>2026-04-27T14:50:03Z</time></trkpt><trkpt lat="40.17775515626671" lon="19.83868727145417"><ele>557.25</ele><time>2026-04-27T14:50:04Z</time></trkpt><trkpt lat="40.17764397498661" lon="19.838651623037105"><ele>561.0</ele><time>2026-04-27T14:50:05Z</time></trkpt><trkpt lat="40.17754382532761" lon="19.838604725355562"><ele>561.0</ele><time>2026-04-27T14:50:06Z</time></trkpt><trkpt lat="40.17743467551355" lon="19.838540254821833"><ele>561.0</ele><time>2026-04-27T14:50:07Z</time></trkpt><trkpt lat="40.177376358484096" lon="19.838447310751445"><ele>561.0</ele><time>2026-04-27T14:50:08Z</time></trkpt><trkpt lat="40.177313750712145" lon="19.838361479987835"><ele>561.0</ele><time>2026-04-27T14:50:09Z</time></trkpt><trkpt lat="40.17725410836664" lon="19.838280170378596"><ele>561.0</ele><time>2026-04-27T14:50:10Z</time></trkpt><trkpt lat="40.17717852247508" lon="19.83822237438001"><ele>558.0</ele><time>2026-04-27T14:50:11Z</time></trkpt><trkpt lat="40.17709268805277" lon="19.838174880095057"><ele>555.0</ele><time>2026-04-27T14:50:12Z</time></trkpt><trkpt lat="40.176995245566104" lon="19.83813486955742"><ele>552.0</ele><time>2026-04-27T14:50:13Z</time></trkpt><trkpt lat="40.17687285194379" lon="19.838132522282088"><ele>549.0</ele><time>2026-04-27T14:50:14Z</time></trkpt><trkpt lat="40.17675662069934" lon="19.83811695054548"><ele>546.0</ele><time>2026-04-27T14:50:15Z</time></trkpt><trkpt lat="40.176641889850046" lon="19.838100533688632"><ele>546.0</ele><time>2026-04-27T14:50:16Z</time></trkpt><trkpt lat="40.17653289942025" lon="19.838084450893135"><ele>546.0</ele><time>2026-04-27T14:50:17Z</time></trkpt><trkpt lat="40.17642815005176" lon="19.838270578935834"><ele>546.0</ele><time>2026-04-27T14:50:18Z</time></trkpt><trkpt lat="40.17635068495022" lon="19.838370940533522"><ele>546.0</ele><time>2026-04-27T14:50:19Z</time></trkpt><trkpt lat="40.17627083017326" lon="19.838462884569182"><ele>551.6</ele><time>2026-04-27T14:50:20Z</time></trkpt><trkpt lat="40.17621706684902" lon="19.838586136424553"><ele>557.2</ele><time>2026-04-27T14:50:21Z</time></trkpt><trkpt lat="40.176151859964705" lon="19.83869290576371"><ele>562.8</ele><time>2026-04-27T14:50:22Z</time></trkpt><trkpt lat="40.17609954874283" lon="19.838782926704088"><ele>568.4</ele><time>2026-04-27T14:50:23Z</time></trkpt><trkpt lat="40.17601596530409" lon="19.838744866753544"><ele>574.0</ele><time>2026-04-27T14:50:24Z</time></trkpt><trkpt lat="40.17598806447175" lon="19.838643276343817"><ele>574.0</ele><time>2026-04-27T14:50:25Z</time></trkpt><trkpt lat="40.17590452501737" lon="19.838570110181056"><ele>574.0</ele><time>2026-04-27T14:50:26Z</time></trkpt><trkpt lat="40.17578258710869" lon="19.83855714070608"><ele>574.0</ele><time>2026-04-27T14:50:27Z</time></trkpt><trkpt lat="40.17567782954795" lon="19.838515117754806"><ele>574.0</ele><time>2026-04-27T14:50:28Z</time></trkpt><trkpt lat="40.175560573405825" lon="19.83849302358093"><ele>573.8</ele><time>2026-04-27T14:50:29Z</time></trkpt><trkpt lat="40.17544170903888" lon="19.83851375416226"><ele>573.5999999999999</ele><time>2026-04-27T14:50:29.999Z</time></trkpt><trkpt lat="40.17534255413208" lon="19.83854606152028"><ele>573.4</ele><time>2026-04-27T14:50:30.999Z</time></trkpt><trkpt lat="40.17525481430962" lon="19.83859187048073"><ele>573.1999999999999</ele><time>2026-04-27T14:50:31.999Z</time></trkpt><trkpt lat="40.175162076770064" lon="19.83864043481767"><ele>573.0</ele><time>2026-04-27T14:50:32.999Z</time></trkpt><trkpt lat="40.175064343715086" lon="19.838691622411748"><ele>573.0</ele><time>2026-04-27T14:50:33.999Z</time></trkpt><trkpt lat="40.17497755189798" lon="19.838692308884642"><ele>573.0</ele><time>2026-04-27T14:50:34.999Z</time></trkpt><trkpt lat="40.17487173900121" lon="19.838696584675116"><ele>573.0</ele><time>2026-04-27T14:50:35.999Z</time></trkpt><trkpt lat="40.1747660983481" lon="19.83870092368262"><ele>573.0</ele><time>2026-04-27T14:50:36.999Z</time></trkpt><trkpt lat="40.174660968126155" lon="19.838711859297113"><ele>573.0</ele><time>2026-04-27T14:50:37.999Z</time></trkpt><trkpt lat="40.17456203382576" lon="19.838725259340038"><ele>572.8333333333334</ele><time>2026-04-27T14:50:38.999Z</time></trkpt><trkpt lat="40.174470810881544" lon="19.838755510976192"><ele>572.6666666666666</ele><time>2026-04-27T14:50:39.999Z</time></trkpt><trkpt lat="40.174386771960634" lon="19.838748335673074"><ele>572.5</ele><time>2026-04-27T14:50:40.999Z</time></trkpt><trkpt lat="40.17431250146234" lon="19.838803791763066"><ele>572.3333333333333</ele><time>2026-04-27T14:50:41.999Z</time></trkpt><trkpt lat="40.174233137112644" lon="19.838824124862757"><ele>572.1666666666666</ele><time>2026-04-27T14:50:42.999Z</time></trkpt><trkpt lat="40.174153758703234" lon="19.838860320524653"><ele>572.0</ele><time>2026-04-27T14:50:43.999Z</time></trkpt><trkpt lat="40.174077297920306" lon="19.838894077350773"><ele>572.3333333333333</ele><time>2026-04-27T14:50:44.999Z</time></trkpt><trkpt lat="40.17399725105542" lon="19.8389277324961"><ele>572.6666666666666</ele><time>2026-04-27T14:50:45.999Z</time></trkpt><trkpt lat="40.17393259740984" lon="19.839021133234475"><ele>573.0</ele><time>2026-04-27T14:50:46.999Z</time></trkpt><trkpt lat="40.17386610228068" lon="19.839036073056434"><ele>573.3333333333334</ele><time>2026-04-27T14:50:47.999Z</time></trkpt><trkpt lat="40.17376440043059" lon="19.839069116033574"><ele>573.6666666666667</ele><time>2026-04-27T14:50:49.999Z</time></trkpt><trkpt lat="40.173837476924575" lon="19.83906379093738"><ele>574.0</ele><time>2026-04-27T14:51:22Z</time></trkpt><trkpt lat="40.173952628717984" lon="19.839365387734954"><ele>574.0</ele><time>2026-04-27T14:51:24Z</time></trkpt><trkpt lat="40.17401882078605" lon="19.839375162936197"><ele>574.0</ele><time>2026-04-27T14:51:26Z</time></trkpt><trkpt lat="40.17381705419652" lon="19.83930436035218"><ele>574.0</ele><time>2026-04-27T14:51:28Z</time></trkpt><trkpt lat="40.17389830229144" lon="19.839182528079593"><ele>574.0</ele><time>2026-04-27T14:51:31Z</time></trkpt><trkpt lat="40.173797545664" lon="19.83923220558551"><ele>578.8</ele><time>2026-04-27T14:51:33Z</time></trkpt><trkpt lat="40.1737732141649" lon="19.839363178168394"><ele>583.5999999999999</ele><time>2026-04-27T14:51:35Z</time></trkpt><trkpt lat="40.17389426956247" lon="19.839380602331666"><ele>588.4</ele><time>2026-04-27T14:51:37Z</time></trkpt><trkpt lat="40.173962209591124" lon="19.8393898109321"><ele>593.1999999999999</ele><time>2026-04-27T14:51:38Z</time></trkpt><trkpt lat="40.17403576720658" lon="19.839404945995362"><ele>598.0</ele><time>2026-04-27T14:51:39Z</time></trkpt><trkpt lat="40.174124061179974" lon="19.839410082499594"><ele>598.0</ele><time>2026-04-27T14:51:40Z</time></trkpt><trkpt lat="40.17414546210041" lon="19.839546546566222"><ele>598.0</ele><time>2026-04-27T14:51:43Z</time></trkpt><trkpt lat="40.17401773807459" lon="19.83952021975717"><ele>598.0</ele><time>2026-04-27T14:51:45Z</time></trkpt><trkpt lat="40.173944922964466" lon="19.839546498522285"><ele>598.0</ele><time>2026-04-27T14:51:46Z</time></trkpt><trkpt lat="40.17385871520782" lon="19.839591657502716"><ele>598.0</ele><time>2026-04-27T14:51:47Z</time></trkpt><trkpt lat="40.17379749784057" lon="19.839639014276642"><ele>598.0</ele><time>2026-04-27T14:51:48Z</time></trkpt><trkpt lat="40.173784418796046" lon="19.83976720966544"><ele>598.0</ele><time>2026-04-27T14:51:50Z</time></trkpt><trkpt lat="40.17388152861571" lon="19.839825611707408"><ele>598.0</ele><time>2026-04-27T14:51:51Z</time></trkpt><trkpt lat="40.1739845593783" lon="19.839738675909015"><ele>598.0</ele><time>2026-04-27T14:51:52Z</time></trkpt><trkpt lat="40.17407976519042" lon="19.839787134895317"><ele>598.0</ele><time>2026-04-27T14:51:54Z</time></trkpt><trkpt lat="40.17406730740091" lon="19.839918558982724"><ele>598.0</ele><time>2026-04-27T14:51:56Z</time></trkpt><trkpt lat="40.17400174185885" lon="19.839918607659182"><ele>598.0</ele><time>2026-04-27T14:51:57Z</time></trkpt><trkpt lat="40.1738829529549" lon="19.83988381751757"><ele>598.0</ele><time>2026-04-27T14:51:59Z</time></trkpt><trkpt lat="40.1738005620521" lon="19.83990990389048"><ele>598.0</ele><time>2026-04-27T14:52:00Z</time></trkpt><trkpt lat="40.17373082079777" lon="19.83997137076891"><ele>598.0</ele><time>2026-04-27T14:52:01Z</time></trkpt><trkpt lat="40.17364920762096" lon="19.84001523247252"><ele>598.0</ele><time>2026-04-27T14:52:02Z</time></trkpt><trkpt lat="40.1735622019511" lon="19.840044670484623"><ele>598.0</ele><time>2026-04-27T14:52:03Z</time></trkpt><trkpt lat="40.173475865421786" lon="19.840076065670853"><ele>598.0</ele><time>2026-04-27T14:52:04Z</time></trkpt><trkpt lat="40.173409768653656" lon="19.84008303999088"><ele>598.0</ele><time>2026-04-27T14:52:05Z</time></trkpt><trkpt lat="40.17334744458843" lon="19.840064779992822"><ele>598.0</ele><time>2026-04-27T14:52:06Z</time></trkpt><trkpt lat="40.17325391529285" lon="19.840053186478485"><ele>598.0</ele><time>2026-04-27T14:52:07Z</time></trkpt><trkpt lat="40.17314395036071" lon="19.840054369332957"><ele>598.0</ele><time>2026-04-27T14:52:08Z</time></trkpt><trkpt lat="40.17303995968707" lon="19.84009571094502"><ele>598.5</ele><time>2026-04-27T14:52:09Z</time></trkpt><trkpt lat="40.17294357146899" lon="19.840098872485665"><ele>599.0</ele><time>2026-04-27T14:52:10Z</time></trkpt><trkpt lat="40.17286235674997" lon="19.840101536347788"><ele>599.5</ele><time>2026-04-27T14:52:11Z</time></trkpt><trkpt lat="40.17278604961217" lon="19.840089502641824"><ele>600.0</ele><time>2026-04-27T14:52:12Z</time></trkpt><trkpt lat="40.17269900439959" lon="19.840081941500653"><ele>600.5</ele><time>2026-04-27T14:52:13Z</time></trkpt><trkpt lat="40.172601457714855" lon="19.8400724281833"><ele>601.0</ele><time>2026-04-27T14:52:14Z</time></trkpt><trkpt lat="40.172490707405345" lon="19.840097839535986"><ele>601.0</ele><time>2026-04-27T14:52:15Z</time></trkpt><trkpt lat="40.17241050580305" lon="19.840110309907228"><ele>601.0</ele><time>2026-04-27T14:52:16Z</time></trkpt><trkpt lat="40.172333969056076" lon="19.840122210442633"><ele>601.0</ele><time>2026-04-27T14:52:17Z</time></trkpt><trkpt lat="40.172245829637696" lon="19.84013591513527"><ele>601.0</ele><time>2026-04-27T14:52:18Z</time></trkpt><trkpt lat="40.17216971794279" lon="19.840115454129226"><ele>601.0</ele><time>2026-04-27T14:52:19Z</time></trkpt><trkpt lat="40.17209149011862" lon="19.840087156247353"><ele>601.0</ele><time>2026-04-27T14:52:20Z</time></trkpt><trkpt lat="40.172016053601574" lon="19.840065017091085"><ele>605.0</ele><time>2026-04-27T14:52:21Z</time></trkpt><trkpt lat="40.17195305953841" lon="19.84013781050469"><ele>609.0</ele><time>2026-04-27T14:52:22Z</time></trkpt><trkpt lat="40.17187406801018" lon="19.840240338001145"><ele>613.0</ele><time>2026-04-27T14:52:24Z</time></trkpt><trkpt lat="40.17183878019542" lon="19.840318300698506"><ele>617.0</ele><time>2026-04-27T14:52:25Z</time></trkpt><trkpt lat="40.171793747970426" lon="19.84040594837215"><ele>621.0</ele><time>2026-04-27T14:52:26Z</time></trkpt><trkpt lat="40.17171677604715" lon="19.84043770044637"><ele>625.0</ele><time>2026-04-27T14:52:27Z</time></trkpt><trkpt lat="40.17164764091627" lon="19.840489471850585"><ele>625.0</ele><time>2026-04-27T14:52:28Z</time></trkpt><trkpt lat="40.171563767896124" lon="19.840500502682982"><ele>625.0</ele><time>2026-04-27T14:52:29Z</time></trkpt><trkpt lat="40.17147856390477" lon="19.84048623759202"><ele>625.0</ele><time>2026-04-27T14:52:30Z</time></trkpt><trkpt lat="40.17139679438557" lon="19.840504035626015"><ele>625.0</ele><time>2026-04-27T14:52:31Z</time></trkpt><trkpt lat="40.17132996141594" lon="19.84051770571917"><ele>625.0</ele><time>2026-04-27T14:52:32Z</time></trkpt><trkpt lat="40.17125914916782" lon="19.840511585219375"><ele>625.0</ele><time>2026-04-27T14:52:33Z</time></trkpt><trkpt lat="40.171183683621976" lon="19.84040564892794"><ele>624.2</ele><time>2026-04-27T14:52:35Z</time></trkpt><trkpt lat="40.17113004986348" lon="19.840316791516162"><ele>623.4</ele><time>2026-04-27T14:52:36.999Z</time></trkpt><trkpt lat="40.171036690023435" lon="19.840227309027338"><ele>622.6</ele><time>2026-04-27T14:52:38.999Z</time></trkpt><trkpt lat="40.17091883173373" lon="19.840296520476073"><ele>621.8</ele><time>2026-04-27T14:52:41.999Z</time></trkpt><trkpt lat="40.17082520599834" lon="19.840366772842888"><ele>621.0</ele><time>2026-04-27T14:52:43.999Z</time></trkpt><trkpt lat="40.170763772132666" lon="19.84041341245973"><ele>621.0</ele><time>2026-04-27T14:52:44.999Z</time></trkpt><trkpt lat="40.17069367311639" lon="19.840475846883805"><ele>621.0</ele><time>2026-04-27T14:52:45.999Z</time></trkpt><trkpt lat="40.170659701774696" lon="19.840551276761374"><ele>621.0</ele><time>2026-04-27T14:52:46.999Z</time></trkpt><trkpt lat="40.17055964349156" lon="19.84065723672092"><ele>621.0</ele><time>2026-04-27T14:52:48.999Z</time></trkpt><trkpt lat="40.1705105833423" lon="19.840732577372908"><ele>621.0</ele><time>2026-04-27T14:52:49.999Z</time></trkpt><trkpt lat="40.170470005434176" lon="19.840798554878436"><ele>621.0</ele><time>2026-04-27T14:52:50.999Z</time></trkpt><trkpt lat="40.17043326504707" lon="19.840865759235584"><ele>622.1666666666666</ele><time>2026-04-27T14:52:51.999Z</time></trkpt><trkpt lat="40.170390593036196" lon="19.84093977475923"><ele>623.3333333333334</ele><time>2026-04-27T14:52:52.999Z</time></trkpt><trkpt lat="40.170339675416066" lon="19.84101450654257"><ele>624.5</ele><time>2026-04-27T14:52:53.999Z</time></trkpt><trkpt lat="40.17028660423328" lon="19.841090584340083"><ele>625.6666666666667</ele><time>2026-04-27T14:52:54.999Z</time></trkpt><trkpt lat="40.17023300526948" lon="19.841169825945492"><ele>626.8333333333334</ele><time>2026-04-27T14:52:55.999Z</time></trkpt><trkpt lat="40.17018667506459" lon="19.841231515880143"><ele>628.0</ele><time>2026-04-27T14:52:56.999Z</time></trkpt><trkpt lat="40.17008736259626" lon="19.841329161115517"><ele>628.0</ele><time>2026-04-27T14:52:58.999Z</time></trkpt><trkpt lat="40.17003438332315" lon="19.84138099265486"><ele>628.0</ele><time>2026-04-27T14:52:59.999Z</time></trkpt><trkpt lat="40.16992416505007" lon="19.841459038500194"><ele>628.0</ele><time>2026-04-27T14:53:01.999Z</time></trkpt><trkpt lat="40.16983214204728" lon="19.84155229020998"><ele>628.0</ele><time>2026-04-27T14:53:04Z</time></trkpt><trkpt lat="40.16978295544111" lon="19.841481059352866"><ele>628.0</ele><time>2026-04-27T14:53:05Z</time></trkpt><trkpt lat="40.169681559098144" lon="19.84141088560402"><ele>626.0</ele><time>2026-04-27T14:53:07Z</time></trkpt><trkpt lat="40.16961070648399" lon="19.841372322741872"><ele>624.0</ele><time>2026-04-27T14:53:08Z</time></trkpt><trkpt lat="40.16954707930126" lon="19.841313594873675"><ele>622.0</ele><time>2026-04-27T14:53:09Z</time></trkpt><trkpt lat="40.16942169193746" lon="19.841295399796493"><ele>620.0</ele><time>2026-04-27T14:53:11Z</time></trkpt><trkpt lat="40.16934307436207" lon="19.8413250509307"><ele>618.0</ele><time>2026-04-27T14:53:12Z</time></trkpt><trkpt lat="40.16925263899253" lon="19.841369772832987"><ele>618.0</ele><time>2026-04-27T14:53:13Z</time></trkpt><trkpt lat="40.169170286418776" lon="19.84141685724872"><ele>618.0</ele><time>2026-04-27T14:53:14Z</time></trkpt><trkpt lat="40.16908879689064" lon="19.841454098222755"><ele>618.0</ele><time>2026-04-27T14:53:15Z</time></trkpt><trkpt lat="40.169004979179164" lon="19.841486878576642"><ele>618.0</ele><time>2026-04-27T14:53:16Z</time></trkpt><trkpt lat="40.16892731797584" lon="19.841490836188523"><ele>618.0</ele><time>2026-04-27T14:53:17Z</time></trkpt><trkpt lat="40.16885487145277" lon="19.841509903387365"><ele>618.0</ele><time>2026-04-27T14:53:18Z</time></trkpt><trkpt lat="40.1687798790196" lon="19.841529640682836"><ele>617.4285714285714</ele><time>2026-04-27T14:53:19Z</time></trkpt><trkpt lat="40.168710536644205" lon="19.841540711962896"><ele>616.8571428571429</ele><time>2026-04-27T14:53:20Z</time></trkpt><trkpt lat="40.16864005821982" lon="19.84155238175065"><ele>616.2857142857142</ele><time>2026-04-27T14:53:21Z</time></trkpt><trkpt lat="40.16856825602604" lon="19.841564274881506"><ele>615.7142857142858</ele><time>2026-04-27T14:53:22Z</time></trkpt><trkpt lat="40.168508069305005" lon="19.84153668258087"><ele>615.1428571428571</ele><time>2026-04-27T14:53:23Z</time></trkpt><trkpt lat="40.168455209994946" lon="19.841487499933613"><ele>614.5714285714286</ele><time>2026-04-27T14:53:24Z</time></trkpt><trkpt lat="40.16838769182824" lon="19.841445299981157"><ele>614.0</ele><time>2026-04-27T14:53:25Z</time></trkpt><trkpt lat="40.1683078871617" lon="19.841391312888206"><ele>614.0</ele><time>2026-04-27T14:53:26Z</time></trkpt><trkpt lat="40.16823461828054" lon="19.841358513511153"><ele>614.0</ele><time>2026-04-27T14:53:27Z</time></trkpt><trkpt lat="40.168134478605204" lon="19.841279550021525"><ele>614.0</ele><time>2026-04-27T14:53:29Z</time></trkpt><trkpt lat="40.16802480452814" lon="19.841233849743706"><ele>614.0</ele><time>2026-04-27T14:53:31Z</time></trkpt><trkpt lat="40.16796238883593" lon="19.84121431650192"><ele>614.0</ele><time>2026-04-27T14:53:32Z</time></trkpt><trkpt lat="40.16785464681103" lon="19.841212970233702"><ele>614.2</ele><time>2026-04-27T14:53:34Z</time></trkpt><trkpt lat="40.167731262997364" lon="19.841250189436774"><ele>614.4</ele><time>2026-04-27T14:53:36Z</time></trkpt><trkpt lat="40.1676536667213" lon="19.84128724099345"><ele>614.6</ele><time>2026-04-27T14:53:37Z</time></trkpt><trkpt lat="40.16758582316157" lon="19.841326770384295"><ele>614.8</ele><time>2026-04-27T14:53:38Z</time></trkpt><trkpt lat="40.167525333088506" lon="19.841356715609464"><ele>615.0</ele><time>2026-04-27T14:53:39Z</time></trkpt><trkpt lat="40.16741442694196" lon="19.841406733057312"><ele>614.2</ele><time>2026-04-27T14:53:41Z</time></trkpt><trkpt lat="40.167315174221365" lon="19.84144190551664"><ele>613.4</ele><time>2026-04-27T14:53:43Z</time></trkpt><trkpt lat="40.16720032829217" lon="19.84144982444026"><ele>612.6</ele><time>2026-04-27T14:53:45Z</time></trkpt><trkpt lat="40.16709473191945" lon="19.841417394288268"><ele>611.8</ele><time>2026-04-27T14:53:47Z</time></trkpt><trkpt lat="40.167008601318884" lon="19.841413262032614"><ele>611.0</ele><time>2026-04-27T14:53:49Z</time></trkpt><trkpt lat="40.166922771044995" lon="19.84141074854353"><ele>611.0</ele><time>2026-04-27T14:53:51Z</time></trkpt><trkpt lat="40.16678647899627" lon="19.841455525645646"><ele>611.0</ele><time>2026-04-27T14:53:53Z</time></trkpt><trkpt lat="40.1667231199099" lon="19.841475138465466"><ele>611.0</ele><time>2026-04-27T14:53:54Z</time></trkpt><trkpt lat="40.166620251153056" lon="19.841508198788883"><ele>611.0</ele><time>2026-04-27T14:53:56Z</time></trkpt><trkpt lat="40.16654472085035" lon="19.84153256829187"><ele>611.0</ele><time>2026-04-27T14:53:57Z</time></trkpt><trkpt lat="40.166471718858276" lon="19.841553041485795"><ele>609.8</ele><time>2026-04-27T14:53:58Z</time></trkpt><trkpt lat="40.16638408623532" lon="19.84157457744859"><ele>608.6</ele><time>2026-04-27T14:53:59Z</time></trkpt><trkpt lat="40.166285274784514" lon="19.84159798011628"><ele>607.4</ele><time>2026-04-27T14:54:00Z</time></trkpt><trkpt lat="40.166188604914" lon="19.841620972707254"><ele>606.2</ele><time>2026-04-27T14:54:01Z</time></trkpt><trkpt lat="40.16610402621079" lon="19.841636072191175"><ele>605.0</ele><time>2026-04-27T14:54:02Z</time></trkpt><trkpt lat="40.16601087154434" lon="19.841651748535668"><ele>605.0</ele><time>2026-04-27T14:54:03Z</time></trkpt><trkpt lat="40.16591274553045" lon="19.841668395428698"><ele>605.0</ele><time>2026-04-27T14:54:04Z</time></trkpt><trkpt lat="40.165814361632634" lon="19.84167809109976"><ele>605.0</ele><time>2026-04-27T14:54:05Z</time></trkpt><trkpt lat="40.16571622288559" lon="19.84167733136381"><ele>605.0</ele><time>2026-04-27T14:54:06Z</time></trkpt><trkpt lat="40.1656273953957" lon="19.841679243080193"><ele>605.0</ele><time>2026-04-27T14:54:07Z</time></trkpt><trkpt lat="40.165543248680116" lon="19.841682216725154"><ele>604.1666666666666</ele><time>2026-04-27T14:54:08Z</time></trkpt><trkpt lat="40.16545511851689" lon="19.841684739155085"><ele>603.3333333333333</ele><time>2026-04-27T14:54:09Z</time></trkpt><trkpt lat="40.16535973176767" lon="19.841694081579583"><ele>602.5</ele><time>2026-04-27T14:54:10Z</time></trkpt><trkpt lat="40.16526731099315" lon="19.841686328257133"><ele>601.6666666666666</ele><time>2026-04-27T14:54:11Z</time></trkpt><trkpt lat="40.16519049732209" lon="19.841691455397136"><ele>600.8333333333334</ele><time>2026-04-27T14:54:12Z</time></trkpt><trkpt lat="40.16510944961677" lon="19.84171692085501"><ele>600.0</ele><time>2026-04-27T14:54:13Z</time></trkpt><trkpt lat="40.16504188074613" lon="19.841765395274688"><ele>599.8333333333334</ele><time>2026-04-27T14:54:14Z</time></trkpt><trkpt lat="40.164985464345314" lon="19.84182301267741"><ele>599.6666666666666</ele><time>2026-04-27T14:54:15Z</time></trkpt><trkpt lat="40.16492664256625" lon="19.841888362485697"><ele>599.5</ele><time>2026-04-27T14:54:16Z</time></trkpt><trkpt lat="40.16486347468111" lon="19.841952000135866"><ele>599.3333333333333</ele><time>2026-04-27T14:54:17Z</time></trkpt><trkpt lat="40.16479354368773" lon="19.84203204593295"><ele>599.1666666666666</ele><time>2026-04-27T14:54:18Z</time></trkpt><trkpt lat="40.1647225350691" lon="19.84211631749753"><ele>599.0</ele><time>2026-04-27T14:54:19Z</time></trkpt><trkpt lat="40.164660567246095" lon="19.84219010061157"><ele>599.0</ele><time>2026-04-27T14:54:20Z</time></trkpt><trkpt lat="40.16460667594985" lon="19.84224859865716"><ele>599.0</ele><time>2026-04-27T14:54:21Z</time></trkpt><trkpt lat="40.164555905843564" lon="19.842311778415233"><ele>599.0</ele><time>2026-04-27T14:54:22Z</time></trkpt><trkpt lat="40.1645002090695" lon="19.84238562882224"><ele>599.0</ele><time>2026-04-27T14:54:23Z</time></trkpt><trkpt lat="40.16443665298395" lon="19.842486854820738"><ele>599.0</ele><time>2026-04-27T14:54:24Z</time></trkpt><trkpt lat="40.16439169987325" lon="19.842577920899988"><ele>599.0</ele><time>2026-04-27T14:54:25Z</time></trkpt><trkpt lat="40.164348502008394" lon="19.84266615570539"><ele>601.3333333333333</ele><time>2026-04-27T14:54:26Z</time></trkpt><trkpt lat="40.16430634274625" lon="19.84276031373489"><ele>603.6666666666666</ele><time>2026-04-27T14:54:27Z</time></trkpt><trkpt lat="40.164264452219825" lon="19.8428344094966"><ele>606.0</ele><time>2026-04-27T14:54:28Z</time></trkpt><trkpt lat="40.16417545793328" lon="19.842938543127413"><ele>608.3333333333334</ele><time>2026-04-27T14:54:30Z</time></trkpt><trkpt lat="40.16406903295964" lon="19.842936165635983"><ele>610.6666666666667</ele><time>2026-04-27T14:54:32Z</time></trkpt><trkpt lat="40.16400547975085" lon="19.84295554394709"><ele>613.0</ele><time>2026-04-27T14:54:33Z</time></trkpt><trkpt lat="40.16390373031319" lon="19.842986568818795"><ele>613.0</ele><time>2026-04-27T14:54:34Z</time></trkpt><trkpt lat="40.16377663217044" lon="19.84302496114232"><ele>613.0</ele><time>2026-04-27T14:54:35Z</time></trkpt><trkpt lat="40.163662382689346" lon="19.84305893697951"><ele>613.0</ele><time>2026-04-27T14:54:36Z</time></trkpt><trkpt lat="40.16358355447653" lon="19.84308268523511"><ele>613.0</ele><time>2026-04-27T14:54:37Z</time></trkpt><trkpt lat="40.16351229164761" lon="19.843087877850788"><ele>613.0</ele><time>2026-04-27T14:54:38Z</time></trkpt><trkpt lat="40.163434542257164" lon="19.843096153155194"><ele>613.0</ele><time>2026-04-27T14:54:39Z</time></trkpt><trkpt lat="40.16335938575061" lon="19.843104152604585"><ele>613.0</ele><time>2026-04-27T14:54:40Z</time></trkpt><trkpt lat="40.16329364478545" lon="19.843071209470686"><ele>613.0</ele><time>2026-04-27T14:54:41Z</time></trkpt><trkpt lat="40.163225919072204" lon="19.843052316705524"><ele>613.0</ele><time>2026-04-27T14:54:42Z</time></trkpt><trkpt lat="40.163113889417744" lon="19.843020954435683"><ele>613.0</ele><time>2026-04-27T14:54:44Z</time></trkpt><trkpt lat="40.16299524846432" lon="19.842985410451387"><ele>612.1666666666667</ele><time>2026-04-27T14:54:46Z</time></trkpt><trkpt lat="40.162929638599834" lon="19.842985099164473"><ele>611.3333333333334</ele><time>2026-04-27T14:54:47Z</time></trkpt><trkpt lat="40.16283407451832" lon="19.842985585076825"><ele>610.5</ele><time>2026-04-27T14:54:48Z</time></trkpt><trkpt lat="40.16274909790978" lon="19.84300395101537"><ele>609.6666666666666</ele><time>2026-04-27T14:54:49Z</time></trkpt><trkpt lat="40.16266887706489" lon="19.84302044864328"><ele>608.8333333333333</ele><time>2026-04-27T14:54:50Z</time></trkpt><trkpt lat="40.16259130491705" lon="19.84303576046536"><ele>608.0</ele><time>2026-04-27T14:54:51Z</time></trkpt><trkpt lat="40.162512934262736" lon="19.843050396944935"><ele>608.0</ele><time>2026-04-27T14:54:52Z</time></trkpt><trkpt lat="40.16244095722" lon="19.843063218600786"><ele>608.0</ele><time>2026-04-27T14:54:53Z</time></trkpt><trkpt lat="40.16235817384046" lon="19.843050541616833"><ele>608.0</ele><time>2026-04-27T14:54:55Z</time></trkpt><trkpt lat="40.16233224091512" lon="19.84294102683917"><ele>608.0</ele><time>2026-04-27T14:54:57Z</time></trkpt><trkpt lat="40.162279041419275" lon="19.842862356224455"><ele>608.0</ele><time>2026-04-27T14:54:58Z</time></trkpt><trkpt lat="40.162233670372004" lon="19.842789172349843"><ele>608.0</ele><time>2026-04-27T14:54:59Z</time></trkpt><trkpt lat="40.16221834838333" lon="19.842673691534834"><ele>608.3333333333333</ele><time>2026-04-27T14:55:01Z</time></trkpt><trkpt lat="40.162200786207" lon="19.842585512475097"><ele>608.6666666666666</ele><time>2026-04-27T14:55:02Z</time></trkpt><trkpt lat="40.162180969096134" lon="19.842493186811858"><ele>609.0</ele><time>2026-04-27T14:55:03Z</time></trkpt><trkpt lat="40.16214008368224" lon="19.84237922115345"><ele>609.3333333333334</ele><time>2026-04-27T14:55:04Z</time></trkpt><trkpt lat="40.16208905983064" lon="19.842274404181296"><ele>609.6666666666667</ele><time>2026-04-27T14:55:05Z</time></trkpt><trkpt lat="40.16203184547991" lon="19.842162437086976"><ele>610.0</ele><time>2026-04-27T14:55:06Z</time></trkpt><trkpt lat="40.16198501734801" lon="19.84207151687071"><ele>610.0</ele><time>2026-04-27T14:55:07Z</time></trkpt><trkpt lat="40.16190824379328" lon="19.84198326014957"><ele>610.0</ele><time>2026-04-27T14:55:08Z</time></trkpt><trkpt lat="40.16184845540213" lon="19.841915666647644"><ele>610.0</ele><time>2026-04-27T14:55:09Z</time></trkpt><trkpt lat="40.161746753462936" lon="19.841851243487078"><ele>610.0</ele><time>2026-04-27T14:55:10Z</time></trkpt><trkpt lat="40.16168682376017" lon="19.841772267996127"><ele>610.0</ele><time>2026-04-27T14:55:11Z</time></trkpt><trkpt lat="40.16162255044237" lon="19.841671329886662"><ele>608.2</ele><time>2026-04-27T14:55:12Z</time></trkpt><trkpt lat="40.16155581926405" lon="19.841560582552347"><ele>606.4</ele><time>2026-04-27T14:55:13Z</time></trkpt><trkpt lat="40.16149686785773" lon="19.841461829644494"><ele>604.6</ele><time>2026-04-27T14:55:14Z</time></trkpt><trkpt lat="40.16143180422429" lon="19.841372111352147"><ele>602.8</ele><time>2026-04-27T14:55:15Z</time></trkpt><trkpt lat="40.16134414748294" lon="19.841307243937287"><ele>601.0</ele><time>2026-04-27T14:55:16Z</time></trkpt><trkpt lat="40.16127292920702" lon="19.841270647444517"><ele>601.0</ele><time>2026-04-27T14:55:17Z</time></trkpt><trkpt lat="40.16119504968195" lon="19.84127622165899"><ele>601.0</ele><time>2026-04-27T14:55:18Z</time></trkpt><trkpt lat="40.16112267783103" lon="19.841355920479344"><ele>601.0</ele><time>2026-04-27T14:55:19Z</time></trkpt><trkpt lat="40.16106726668281" lon="19.841403232782827"><ele>601.0</ele><time>2026-04-27T14:55:20Z</time></trkpt><trkpt lat="40.161008334524084" lon="19.84147767997699"><ele>601.0</ele><time>2026-04-27T14:55:21Z</time></trkpt><trkpt lat="40.16092337840858" lon="19.841572101376823"><ele>601.0</ele><time>2026-04-27T14:55:22Z</time></trkpt><trkpt lat="40.16082872063364" lon="19.841672700478597"><ele>601.0</ele><time>2026-04-27T14:55:23Z</time></trkpt><trkpt lat="40.16075577009279" lon="19.84177102659959"><ele>601.0</ele><time>2026-04-27T14:55:24Z</time></trkpt><trkpt lat="40.160700745590766" lon="19.841850347918164"><ele>601.0</ele><time>2026-04-27T14:55:25Z</time></trkpt><trkpt lat="40.16062422197541" lon="19.84188005550001"><ele>601.0</ele><time>2026-04-27T14:55:26Z</time></trkpt><trkpt lat="40.16055615491798" lon="19.841891557865686"><ele>601.0</ele><time>2026-04-27T14:55:27Z</time></trkpt><trkpt lat="40.1604734003875" lon="19.84191847362262"><ele>601.0</ele><time>2026-04-27T14:55:28Z</time></trkpt><trkpt lat="40.16038385842785" lon="19.841905962374785"><ele>601.8333333333334</ele><time>2026-04-27T14:55:29Z</time></trkpt><trkpt lat="40.160302063057195" lon="19.8419218598722"><ele>602.6666666666667</ele><time>2026-04-27T14:55:30Z</time></trkpt><trkpt lat="40.16022257479552" lon="19.841955281652837"><ele>603.5</ele><time>2026-04-27T14:55:31Z</time></trkpt><trkpt lat="40.1601322769713" lon="19.841976640920077"><ele>604.3333333333334</ele><time>2026-04-27T14:55:32Z</time></trkpt><trkpt lat="40.160040958627015" lon="19.841998398953"><ele>605.1666666666666</ele><time>2026-04-27T14:55:33Z</time></trkpt><trkpt lat="40.15995236598777" lon="19.842036146880798"><ele>606.0</ele><time>2026-04-27T14:55:34Z</time></trkpt><trkpt lat="40.1598597987608" lon="19.842076590504316"><ele>606.0</ele><time>2026-04-27T14:55:35Z</time></trkpt><trkpt lat="40.159747924341" lon="19.842091241717768"><ele>606.0</ele><time>2026-04-27T14:55:36Z</time></trkpt><trkpt lat="40.159643337939976" lon="19.842088690779924"><ele>606.0</ele><time>2026-04-27T14:55:37Z</time></trkpt><trkpt lat="40.15956132437682" lon="19.842114198695167"><ele>606.0</ele><time>2026-04-27T14:55:38Z</time></trkpt><trkpt lat="40.159480428424295" lon="19.842170827172247"><ele>606.0</ele><time>2026-04-27T14:55:39Z</time></trkpt><trkpt lat="40.15939836247392" lon="19.84225250048964"><ele>606.0</ele><time>2026-04-27T14:55:40Z</time></trkpt><trkpt lat="40.15931267845858" lon="19.842309603453028"><ele>606.0</ele><time>2026-04-27T14:55:41Z</time></trkpt><trkpt lat="40.15923083301861" lon="19.84238157811361"><ele>606.0</ele><time>2026-04-27T14:55:42Z</time></trkpt><trkpt lat="40.159136323153604" lon="19.842370893912335"><ele>606.0</ele><time>2026-04-27T14:55:43Z</time></trkpt><trkpt lat="40.159044913409815" lon="19.842410265139193"><ele>606.0</ele><time>2026-04-27T14:55:44Z</time></trkpt><trkpt lat="40.158957882989306" lon="19.842426289883445"><ele>606.4</ele><time>2026-04-27T14:55:45Z</time></trkpt><trkpt lat="40.15886496745175" lon="19.842466007365452"><ele>606.8</ele><time>2026-04-27T14:55:46Z</time></trkpt><trkpt lat="40.15877570205339" lon="19.84252662259282"><ele>607.1999999999999</ele><time>2026-04-27T14:55:47Z</time></trkpt><trkpt lat="40.158670171798896" lon="19.842549091174483"><ele>607.6</ele><time>2026-04-27T14:55:48Z</time></trkpt><trkpt lat="40.15858745413142" lon="19.84260075238743"><ele>608.0</ele><time>2026-04-27T14:55:49Z</time></trkpt><trkpt lat="40.15849819067614" lon="19.842643199056514"><ele>608.0</ele><time>2026-04-27T14:55:50Z</time></trkpt><trkpt lat="40.158422652428726" lon="19.842702654572104"><ele>608.0</ele><time>2026-04-27T14:55:51Z</time></trkpt><trkpt lat="40.15833702768249" lon="19.842753179300594"><ele>608.0</ele><time>2026-04-27T14:55:52Z</time></trkpt><trkpt lat="40.1582537210313" lon="19.8427952487488"><ele>608.0</ele><time>2026-04-27T14:55:53Z</time></trkpt><trkpt lat="40.1581837668789" lon="19.84284190531713"><ele>608.0</ele><time>2026-04-27T14:55:54Z</time></trkpt><trkpt lat="40.15812286084783" lon="19.84290519544117"><ele>608.0</ele><time>2026-04-27T14:55:55Z</time></trkpt><trkpt lat="40.15805013217509" lon="19.84299592036821"><ele>603.8333333333333</ele><time>2026-04-27T14:55:56Z</time></trkpt><trkpt lat="40.15798857393593" lon="19.843089696160565"><ele>599.6666666666666</ele><time>2026-04-27T14:55:57Z</time></trkpt><trkpt lat="40.15794368749096" lon="19.84317464530079"><ele>595.5</ele><time>2026-04-27T14:55:58Z</time></trkpt><trkpt lat="40.15790341684791" lon="19.843251644034424"><ele>591.3333333333334</ele><time>2026-04-27T14:55:59Z</time></trkpt><trkpt lat="40.15785139046978" lon="19.843327277059448"><ele>587.1666666666667</ele><time>2026-04-27T14:56:00Z</time></trkpt><trkpt lat="40.15777866415744" lon="19.843382228288288"><ele>583.0</ele><time>2026-04-27T14:56:01Z</time></trkpt><trkpt lat="40.15768543136103" lon="19.843431791380922"><ele>583.8</ele><time>2026-04-27T14:56:02Z</time></trkpt><trkpt lat="40.15759531041096" lon="19.84346628427577"><ele>584.5999999999999</ele><time>2026-04-27T14:56:03Z</time></trkpt><trkpt lat="40.15752711729706" lon="19.84351239071507"><ele>585.4000000000001</ele><time>2026-04-27T14:56:04Z</time></trkpt><trkpt lat="40.1574532946231" lon="19.843594867290612"><ele>586.2</ele><time>2026-04-27T14:56:05Z</time></trkpt><trkpt lat="40.15737391643642" lon="19.843702677369084"><ele>587.0</ele><time>2026-04-27T14:56:06Z</time></trkpt><trkpt lat="40.15729048172797" lon="19.84382926881315"><ele>587.0</ele><time>2026-04-27T14:56:07Z</time></trkpt><trkpt lat="40.157221645297284" lon="19.843956315484053"><ele>587.0</ele><time>2026-04-27T14:56:08Z</time></trkpt><trkpt lat="40.15716438642525" lon="19.844071421306204"><ele>587.0</ele><time>2026-04-27T14:56:09Z</time></trkpt><trkpt lat="40.15709967896985" lon="19.844158138624135"><ele>587.0</ele><time>2026-04-27T14:56:10Z</time></trkpt><trkpt lat="40.15701634922204" lon="19.84419469151693"><ele>587.0</ele><time>2026-04-27T14:56:11Z</time></trkpt><trkpt lat="40.15693402441744" lon="19.844265004947008"><ele>587.0</ele><time>2026-04-27T14:56:12Z</time></trkpt><trkpt lat="40.15685294145935" lon="19.84429142662103"><ele>587.0</ele><time>2026-04-27T14:56:13Z</time></trkpt><trkpt lat="40.15676857797739" lon="19.844262976034514"><ele>587.0</ele><time>2026-04-27T14:56:14Z</time></trkpt><trkpt lat="40.15667608781191" lon="19.844268980935507"><ele>587.0</ele><time>2026-04-27T14:56:15Z</time></trkpt><trkpt lat="40.15659248979626" lon="19.844276701664818"><ele>587.0</ele><time>2026-04-27T14:56:16Z</time></trkpt><trkpt lat="40.15649317388894" lon="19.84435770378248"><ele>588.6666666666666</ele><time>2026-04-27T14:56:18Z</time></trkpt><trkpt lat="40.156460978681025" lon="19.84443664429715"><ele>590.3333333333333</ele><time>2026-04-27T14:56:19Z</time></trkpt><trkpt lat="40.156424060082905" lon="19.84454227960171"><ele>592.0</ele><time>2026-04-27T14:56:20Z</time></trkpt><trkpt lat="40.156402173592404" lon="19.844654249021474"><ele>593.6666666666666</ele><time>2026-04-27T14:56:21Z</time></trkpt><trkpt lat="40.15642704654246" lon="19.84480164564315"><ele>595.3333333333334</ele><time>2026-04-27T14:56:23Z</time></trkpt><trkpt lat="40.15647515034749" lon="19.844883966428192"><ele>597.0</ele><time>2026-04-27T14:56:24Z</time></trkpt><trkpt lat="40.15653818712452" lon="19.844972137346527"><ele>598.8333333333334</ele><time>2026-04-27T14:56:25Z</time></trkpt><trkpt lat="40.15657771824845" lon="19.845041263585895"><ele>600.6666666666666</ele><time>2026-04-27T14:56:26Z</time></trkpt><trkpt lat="40.15657002553069" lon="19.845182806881798"><ele>602.5</ele><time>2026-04-27T14:56:28Z</time></trkpt><trkpt lat="40.156466228176356" lon="19.84521243255548"><ele>604.3333333333333</ele><time>2026-04-27T14:56:30Z</time></trkpt><trkpt lat="40.15639657211368" lon="19.845233749121665"><ele>606.1666666666666</ele><time>2026-04-27T14:56:31Z</time></trkpt><trkpt lat="40.15630900205982" lon="19.84522816720692"><ele>608.0</ele><time>2026-04-27T14:56:32Z</time></trkpt><trkpt lat="40.15619980979245" lon="19.84522044642283"><ele>605.25</ele><time>2026-04-27T14:56:33Z</time></trkpt><trkpt lat="40.15608106941406" lon="19.84520573728953"><ele>602.5</ele><time>2026-04-27T14:56:34Z</time></trkpt><trkpt lat="40.15596280672981" lon="19.845167087427065"><ele>599.75</ele><time>2026-04-27T14:56:35Z</time></trkpt><trkpt lat="40.155847402875665" lon="19.845108453394587"><ele>597.0</ele><time>2026-04-27T14:56:36Z</time></trkpt><trkpt lat="40.15574487332585" lon="19.84509799025229"><ele>596.0</ele><time>2026-04-27T14:56:37Z</time></trkpt><trkpt lat="40.1556745764683" lon="19.845074025504477"><ele>595.0</ele><time>2026-04-27T14:56:38Z</time></trkpt><trkpt lat="40.15559409618368" lon="19.845050968010263"><ele>594.0</ele><time>2026-04-27T14:56:39Z</time></trkpt><trkpt lat="40.15551692044508" lon="19.845120637364115"><ele>593.0</ele><time>2026-04-27T14:56:40Z</time></trkpt><trkpt lat="40.155459605725106" lon="19.845191697493995"><ele>592.0</ele><time>2026-04-27T14:56:41Z</time></trkpt><trkpt lat="40.155391609407545" lon="19.845287148748103"><ele>591.0</ele><time>2026-04-27T14:56:42Z</time></trkpt><trkpt lat="40.15529908422409" lon="19.845362242997037"><ele>594.25</ele><time>2026-04-27T14:56:43Z</time></trkpt><trkpt lat="40.15518973554422" lon="19.845390264961228"><ele>597.5</ele><time>2026-04-27T14:56:44Z</time></trkpt><trkpt lat="40.155067634253136" lon="19.845427066048575"><ele>600.75</ele><time>2026-04-27T14:56:45Z</time></trkpt><trkpt lat="40.15494052302695" lon="19.845476076953"><ele>604.0</ele><time>2026-04-27T14:56:46Z</time></trkpt><trkpt lat="40.1548226264372" lon="19.84553996882213"><ele>604.0</ele><time>2026-04-27T14:56:47Z</time></trkpt><trkpt lat="40.154710853530446" lon="19.845599190790363"><ele>604.0</ele><time>2026-04-27T14:56:48Z</time></trkpt><trkpt lat="40.15458772327446" lon="19.84565058886394"><ele>604.0</ele><time>2026-04-27T14:56:49Z</time></trkpt><trkpt lat="40.15448711281467" lon="19.845686290042117"><ele>604.0</ele><time>2026-04-27T14:56:50Z</time></trkpt><trkpt lat="40.15440262717246" lon="19.845711249198608"><ele>604.0</ele><time>2026-04-27T14:56:51Z</time></trkpt><trkpt lat="40.15432597348945" lon="19.845717494657794"><ele>604.0</ele><time>2026-04-27T14:56:52Z</time></trkpt><trkpt lat="40.15424544434233" lon="19.845708339184924"><ele>604.0</ele><time>2026-04-27T14:56:53Z</time></trkpt><trkpt lat="40.15416194923735" lon="19.84570191186784"><ele>604.0</ele><time>2026-04-27T14:56:54Z</time></trkpt><trkpt lat="40.15408137103004" lon="19.845708404957797"><ele>604.0</ele><time>2026-04-27T14:56:55Z</time></trkpt><trkpt lat="40.154017755392104" lon="19.845691436746982"><ele>604.0</ele><time>2026-04-27T14:56:56Z</time></trkpt><trkpt lat="40.153895311957804" lon="19.845718057777468"><ele>604.0</ele><time>2026-04-27T14:56:58Z</time></trkpt><trkpt lat="40.15382839865095" lon="19.845733014794902"><ele>603.3333333333334</ele><time>2026-04-27T14:56:59Z</time></trkpt><trkpt lat="40.15373147611043" lon="19.84577413754079"><ele>602.6666666666667</ele><time>2026-04-27T14:57:01Z</time></trkpt><trkpt lat="40.15366746184989" lon="19.845893953296418"><ele>602.0</ele><time>2026-04-27T14:57:03Z</time></trkpt><trkpt lat="40.153639324121094" lon="19.84597485669671"><ele>601.3333333333334</ele><time>2026-04-27T14:57:04Z</time></trkpt><trkpt lat="40.153596163251045" lon="19.84605857300565"><ele>600.6666666666666</ele><time>2026-04-27T14:57:05Z</time></trkpt><trkpt lat="40.15356353560138" lon="19.84614831604329"><ele>600.0</ele><time>2026-04-27T14:57:06Z</time></trkpt><trkpt lat="40.1535279572244" lon="19.846246868684336"><ele>600.0</ele><time>2026-04-27T14:57:07Z</time></trkpt><trkpt lat="40.15347805628834" lon="19.84633938371221"><ele>600.0</ele><time>2026-04-27T14:57:08Z</time></trkpt><trkpt lat="40.15341182761337" lon="19.84641661404088"><ele>600.0</ele><time>2026-04-27T14:57:09Z</time></trkpt><trkpt lat="40.153350080133954" lon="19.84646414110387"><ele>600.0</ele><time>2026-04-27T14:57:10Z</time></trkpt><trkpt lat="40.15326965135389" lon="19.846487903610296"><ele>600.0</ele><time>2026-04-27T14:57:11Z</time></trkpt><trkpt lat="40.153189448369076" lon="19.846476896104726"><ele>600.0</ele><time>2026-04-27T14:57:12Z</time></trkpt><trkpt lat="40.15309219003228" lon="19.84652649218236"><ele>599.4</ele><time>2026-04-27T14:57:13Z</time></trkpt><trkpt lat="40.15301892766083" lon="19.846580713499996"><ele>598.8</ele><time>2026-04-27T14:57:14Z</time></trkpt><trkpt lat="40.15295750738703" lon="19.846708350377806"><ele>598.2</ele><time>2026-04-27T14:57:16Z</time></trkpt><trkpt lat="40.152949469083275" lon="19.846804397730754"><ele>597.6</ele><time>2026-04-27T14:57:17Z</time></trkpt><trkpt lat="40.152918938665174" lon="19.846921036094297"><ele>597.0</ele><time>2026-04-27T14:57:18Z</time></trkpt><trkpt lat="40.15286836272893" lon="19.84703906551866"><ele>597.0</ele><time>2026-04-27T14:57:19Z</time></trkpt><trkpt lat="40.152814374529875" lon="19.847122745675446"><ele>597.0</ele><time>2026-04-27T14:57:20Z</time></trkpt><trkpt lat="40.15273317920591" lon="19.847187492547533"><ele>597.0</ele><time>2026-04-27T14:57:21Z</time></trkpt><trkpt lat="40.152652320660195" lon="19.847265197437512"><ele>597.0</ele><time>2026-04-27T14:57:22Z</time></trkpt><trkpt lat="40.15258402187208" lon="19.847357604738598"><ele>597.0</ele><time>2026-04-27T14:57:23Z</time></trkpt><trkpt lat="40.1525293450614" lon="19.847440487395936"><ele>597.0</ele><time>2026-04-27T14:57:24Z</time></trkpt><trkpt lat="40.15246472011529" lon="19.847546681589712"><ele>597.0</ele><time>2026-04-27T14:57:25Z</time></trkpt><trkpt lat="40.15241614764283" lon="19.847677830329054"><ele>597.0</ele><time>2026-04-27T14:57:26Z</time></trkpt><trkpt lat="40.15238512989533" lon="19.84778148414189"><ele>597.0</ele><time>2026-04-27T14:57:27Z</time></trkpt><trkpt lat="40.15236817696005" lon="19.84786446746853"><ele>597.0</ele><time>2026-04-27T14:57:28Z</time></trkpt><trkpt lat="40.152303065996115" lon="19.847963103192853"><ele>600.6</ele><time>2026-04-27T14:57:30Z</time></trkpt><trkpt lat="40.152179306106554" lon="19.848047543049553"><ele>604.2</ele><time>2026-04-27T14:57:32Z</time></trkpt><trkpt lat="40.152103153423226" lon="19.848103974579317"><ele>607.8</ele><time>2026-04-27T14:57:33Z</time></trkpt><trkpt lat="40.1520444434953" lon="19.84813682431758"><ele>611.4</ele><time>2026-04-27T14:57:34Z</time></trkpt><trkpt lat="40.15197768929213" lon="19.848105987119684"><ele>615.0</ele><time>2026-04-27T14:57:35Z</time></trkpt><trkpt lat="40.15187987456036" lon="19.848104763128305"><ele>615.0</ele><time>2026-04-27T14:57:36Z</time></trkpt><trkpt lat="40.15177481884602" lon="19.848086467926663"><ele>615.0</ele><time>2026-04-27T14:57:37Z</time></trkpt><trkpt lat="40.151686884436586" lon="19.848098347051668"><ele>615.0</ele><time>2026-04-27T14:57:38Z</time></trkpt><trkpt lat="40.15161055722238" lon="19.848130904750164"><ele>615.0</ele><time>2026-04-27T14:57:39Z</time></trkpt><trkpt lat="40.1515010085084" lon="19.848232550835675"><ele>615.0</ele><time>2026-04-27T14:57:41Z</time></trkpt><trkpt lat="40.15141547786425" lon="19.84829675207089"><ele>615.0</ele><time>2026-04-27T14:57:42Z</time></trkpt><trkpt lat="40.151327330942756" lon="19.848361630465238"><ele>615.0</ele><time>2026-04-27T14:57:43Z</time></trkpt><trkpt lat="40.151226720164345" lon="19.848420727961308"><ele>615.0</ele><time>2026-04-27T14:57:44Z</time></trkpt><trkpt lat="40.151165599927815" lon="19.84848963650074"><ele>615.0</ele><time>2026-04-27T14:57:45Z</time></trkpt><trkpt lat="40.15112233745166" lon="19.84857889925742"><ele>615.0</ele><time>2026-04-27T14:57:46Z</time></trkpt><trkpt lat="40.15109577088425" lon="19.848656331641667"><ele>615.0</ele><time>2026-04-27T14:57:47Z</time></trkpt><trkpt lat="40.15105942106794" lon="19.848726694224343"><ele>615.0</ele><time>2026-04-27T14:57:48Z</time></trkpt><trkpt lat="40.15101318301621" lon="19.848850045259166"><ele>615.0</ele><time>2026-04-27T14:57:49Z</time></trkpt><trkpt lat="40.150983351203436" lon="19.848986096691323"><ele>615.0</ele><time>2026-04-27T14:57:50Z</time></trkpt><trkpt lat="40.15096715336056" lon="19.84909300548173"><ele>615.0</ele><time>2026-04-27T14:57:51Z</time></trkpt><trkpt lat="40.15093557147831" lon="19.849173513686555"><ele>615.0</ele><time>2026-04-27T14:57:52Z</time></trkpt><trkpt lat="40.15086838242001" lon="19.849279941946048"><ele>613.0</ele><time>2026-04-27T14:57:53Z</time></trkpt><trkpt lat="40.15077229635577" lon="19.84939695256877"><ele>611.0</ele><time>2026-04-27T14:57:54Z</time></trkpt><trkpt lat="40.15068949431195" lon="19.84948918704931"><ele>609.0</ele><time>2026-04-27T14:57:55Z</time></trkpt><trkpt lat="40.15063002559617" lon="19.849587548741766"><ele>607.0</ele><time>2026-04-27T14:57:56Z</time></trkpt><trkpt lat="40.15060144983005" lon="19.849692485122418"><ele>605.0</ele><time>2026-04-27T14:57:57Z</time></trkpt><trkpt lat="40.15056735035146" lon="19.849787240998285"><ele>605.0</ele><time>2026-04-27T14:57:58Z</time></trkpt><trkpt lat="40.15050278660404" lon="19.849868208275105"><ele>605.0</ele><time>2026-04-27T14:57:59Z</time></trkpt><trkpt lat="40.15042249377915" lon="19.849914474074563"><ele>605.0</ele><time>2026-04-27T14:58:00Z</time></trkpt><trkpt lat="40.15033367882949" lon="19.849989806358796"><ele>605.0</ele><time>2026-04-27T14:58:02Z</time></trkpt><trkpt lat="40.15033404687105" lon="19.850158080488573"><ele>605.0</ele><time>2026-04-27T14:58:04Z</time></trkpt><trkpt lat="40.150339018252005" lon="19.850269186132675"><ele>606.6666666666666</ele><time>2026-04-27T14:58:05Z</time></trkpt><trkpt lat="40.15032959187684" lon="19.85035110837793"><ele>608.3333333333333</ele><time>2026-04-27T14:58:06Z</time></trkpt><trkpt lat="40.15026616273702" lon="19.85040313090581"><ele>610.0</ele><time>2026-04-27T14:58:07Z</time></trkpt><trkpt lat="40.15020363712193" lon="19.85049979308295"><ele>611.6666666666666</ele><time>2026-04-27T14:58:08Z</time></trkpt><trkpt lat="40.15012521131343" lon="19.850583873363746"><ele>613.3333333333334</ele><time>2026-04-27T14:58:09Z</time></trkpt><trkpt lat="40.15007329860853" lon="19.85065659282519"><ele>615.0</ele><time>2026-04-27T14:58:10Z</time></trkpt><trkpt lat="40.15004193753874" lon="19.850744069626703"><ele>615.0</ele><time>2026-04-27T14:58:11Z</time></trkpt><trkpt lat="40.15002311944546" lon="19.85086053777638"><ele>615.0</ele><time>2026-04-27T14:58:12Z</time></trkpt><trkpt lat="40.15001516142555" lon="19.85099767284357"><ele>615.0</ele><time>2026-04-27T14:58:13Z</time></trkpt><trkpt lat="40.14999548461831" lon="19.851121904446188"><ele>615.0</ele><time>2026-04-27T14:58:14Z</time></trkpt><trkpt lat="40.14995428699454" lon="19.851232531975672"><ele>615.0</ele><time>2026-04-27T14:58:15.001Z</time></trkpt><trkpt lat="40.149915103620735" lon="19.851325037676215"><ele>616.8</ele><time>2026-04-27T14:58:16.001Z</time></trkpt><trkpt lat="40.149897816646714" lon="19.85150364034757"><ele>618.6</ele><time>2026-04-27T14:58:18.001Z</time></trkpt><trkpt lat="40.149862930537275" lon="19.85162598311538"><ele>620.4</ele><time>2026-04-27T14:58:19.001Z</time></trkpt><trkpt lat="40.14981709687383" lon="19.851686324659976"><ele>622.2</ele><time>2026-04-27T14:58:20.001Z</time></trkpt><trkpt lat="40.14975090886986" lon="19.851733315182848"><ele>624.0</ele><time>2026-04-27T14:58:21.001Z</time></trkpt><trkpt lat="40.149651616378534" lon="19.851782882413524"><ele>626.8</ele><time>2026-04-27T14:58:22.001Z</time></trkpt><trkpt lat="40.14953793827242" lon="19.851836659922984"><ele>629.5999999999999</ele><time>2026-04-27T14:58:23.001Z</time></trkpt><trkpt lat="40.14942829843267" lon="19.85188348624889"><ele>632.4</ele><time>2026-04-27T14:58:24.001Z</time></trkpt><trkpt lat="40.14934999315184" lon="19.851900081022773"><ele>635.1999999999999</ele><time>2026-04-27T14:58:25.001Z</time></trkpt><trkpt lat="40.14926491914256" lon="19.851906169680245"><ele>638.0</ele><time>2026-04-27T14:58:26.001Z</time></trkpt><trkpt lat="40.14918389643139" lon="19.85191654242432"><ele>638.0</ele><time>2026-04-27T14:58:27.001Z</time></trkpt><trkpt lat="40.149123272865076" lon="19.851946103768014"><ele>638.0</ele><time>2026-04-27T14:58:28.001Z</time></trkpt><trkpt lat="40.149070409540414" lon="19.85199675196724"><ele>638.0</ele><time>2026-04-27T14:58:29.001Z</time></trkpt><trkpt lat="40.14901934117751" lon="19.852073774214958"><ele>638.0</ele><time>2026-04-27T14:58:30.001Z</time></trkpt><trkpt lat="40.14898312969731" lon="19.85216525573569"><ele>638.0</ele><time>2026-04-27T14:58:31.001Z</time></trkpt><trkpt lat="40.14897302810903" lon="19.852260712732047"><ele>638.0</ele><time>2026-04-27T14:58:32.001Z</time></trkpt><trkpt lat="40.14898400917857" lon="19.852370376385196"><ele>638.0</ele><time>2026-04-27T14:58:33.001Z</time></trkpt><trkpt lat="40.149078450333924" lon="19.852490093520107"><ele>638.0</ele><time>2026-04-27T14:58:35.001Z</time></trkpt><trkpt lat="40.149149733787205" lon="19.852559220612438"><ele>638.0</ele><time>2026-04-27T14:58:36.001Z</time></trkpt><trkpt lat="40.14919435715724" lon="19.85262547950917"><ele>638.0</ele><time>2026-04-27T14:58:37.001Z</time></trkpt><trkpt lat="40.14920486073106" lon="19.852744699787877"><ele>638.0</ele><time>2026-04-27T14:58:39.001Z</time></trkpt><trkpt lat="40.149190464626805" lon="19.852825781857113"><ele>638.0</ele><time>2026-04-27T14:58:57Z</time></trkpt><trkpt lat="40.149146040634385" lon="19.852961835243995"><ele>638.0</ele><time>2026-04-27T14:59:01Z</time></trkpt><trkpt lat="40.14918070237205" lon="19.853060681775318"><ele>638.5</ele><time>2026-04-27T14:59:03Z</time></trkpt><trkpt lat="40.14918255309906" lon="19.85316049697634"><ele>639.0</ele><time>2026-04-27T14:59:05Z</time></trkpt><trkpt lat="40.14914584766335" lon="19.85326252620806"><ele>639.5</ele><time>2026-04-27T14:59:07Z</time></trkpt><trkpt lat="40.14907331928128" lon="19.853368731640924"><ele>640.0</ele><time>2026-04-27T14:59:09Z</time></trkpt><trkpt lat="40.149032512993216" lon="19.853453564618754"><ele>640.5</ele><time>2026-04-27T14:59:10Z</time></trkpt><trkpt lat="40.148963618429455" lon="19.853522821451875"><ele>641.0</ele><time>2026-04-27T14:59:11Z</time></trkpt><trkpt lat="40.14892664871242" lon="19.853611048729007"><ele>637.6666666666666</ele><time>2026-04-27T14:59:12Z</time></trkpt><trkpt lat="40.148873164377754" lon="19.853751870662"><ele>634.3333333333333</ele><time>2026-04-27T14:59:14Z</time></trkpt><trkpt lat="40.14885720237755" lon="19.853857404364945"><ele>631.0</ele><time>2026-04-27T14:59:15Z</time></trkpt><trkpt lat="40.148851943714995" lon="19.853961316107995"><ele>627.6666666666666</ele><time>2026-04-27T14:59:16Z</time></trkpt><trkpt lat="40.14885564796629" lon="19.85406300417298"><ele>624.3333333333334</ele><time>2026-04-27T14:59:17Z</time></trkpt><trkpt lat="40.14886253065711" lon="19.85416114053209"><ele>621.0</ele><time>2026-04-27T14:59:18Z</time></trkpt><trkpt lat="40.148872851201446" lon="19.854256727514787"><ele>618.5</ele><time>2026-04-27T14:59:19Z</time></trkpt><trkpt lat="40.14888194184388" lon="19.854351870941652"><ele>616.0</ele><time>2026-04-27T14:59:20Z</time></trkpt><trkpt lat="40.14890043083564" lon="19.85445400842536"><ele>613.5</ele><time>2026-04-27T14:59:21Z</time></trkpt><trkpt lat="40.14893475151296" lon="19.854559616701263"><ele>611.0</ele><time>2026-04-27T14:59:22Z</time></trkpt><trkpt lat="40.14896429158735" lon="19.85464815144647"><ele>608.5</ele><time>2026-04-27T14:59:23Z</time></trkpt><trkpt lat="40.14898548627373" lon="19.854730639425853"><ele>606.0</ele><time>2026-04-27T14:59:24Z</time></trkpt><trkpt lat="40.14898874307267" lon="19.854870288285166"><ele>606.0</ele><time>2026-04-27T14:59:26Z</time></trkpt><trkpt lat="40.14892360288064" lon="19.854940816425916"><ele>606.0</ele><time>2026-04-27T14:59:27Z</time></trkpt><trkpt lat="40.14890016415337" lon="19.855053462082303"><ele>606.0</ele><time>2026-04-27T14:59:28Z</time></trkpt><trkpt lat="40.148860350247475" lon="19.8551565459775"><ele>606.0</ele><time>2026-04-27T14:59:29Z</time></trkpt><trkpt lat="40.14881243839395" lon="19.855281309007854"><ele>606.0</ele><time>2026-04-27T14:59:30Z</time></trkpt><trkpt lat="40.148740953011796" lon="19.855366938694235"><ele>605.6666666666666</ele><time>2026-04-27T14:59:31Z</time></trkpt><trkpt lat="40.148710249707804" lon="19.855447224478354"><ele>605.3333333333334</ele><time>2026-04-27T14:59:32Z</time></trkpt><trkpt lat="40.14869942244448" lon="19.85558734186184"><ele>605.0</ele><time>2026-04-27T14:59:34Z</time></trkpt><trkpt lat="40.148719993042086" lon="19.855674741276413"><ele>604.6666666666667</ele><time>2026-04-27T14:59:35Z</time></trkpt><trkpt lat="40.14874972018277" lon="19.855754998832914"><ele>604.3333333333334</ele><time>2026-04-27T14:59:36Z</time></trkpt><trkpt lat="40.14878068259635" lon="19.85583909037788"><ele>604.0</ele><time>2026-04-27T14:59:37Z</time></trkpt><trkpt lat="40.14879937350198" lon="19.85593496304383"><ele>605.0</ele><time>2026-04-27T14:59:38Z</time></trkpt><trkpt lat="40.148806067489865" lon="19.85603782220263"><ele>606.0</ele><time>2026-04-27T14:59:39Z</time></trkpt><trkpt lat="40.148801862622186" lon="19.856147017922133"><ele>607.0</ele><time>2026-04-27T14:59:40Z</time></trkpt><trkpt lat="40.148782923819354" lon="19.85627883318286"><ele>608.0</ele><time>2026-04-27T14:59:41Z</time></trkpt><trkpt lat="40.14876654153446" lon="19.85639782019647"><ele>609.0</ele><time>2026-04-27T14:59:42Z</time></trkpt><trkpt lat="40.14874275117075" lon="19.856490479131363"><ele>610.0</ele><time>2026-04-27T14:59:43Z</time></trkpt><trkpt lat="40.14868239449747" lon="19.856578862016264"><ele>610.0</ele><time>2026-04-27T14:59:44Z</time></trkpt><trkpt lat="40.14861802147052" lon="19.856683321543976"><ele>610.0</ele><time>2026-04-27T14:59:45Z</time></trkpt><trkpt lat="40.148565451926636" lon="19.85678731860382"><ele>610.0</ele><time>2026-04-27T14:59:46Z</time></trkpt><trkpt lat="40.14851710815673" lon="19.856876030192947"><ele>610.0</ele><time>2026-04-27T14:59:47Z</time></trkpt><trkpt lat="40.14846142565295" lon="19.85695018373095"><ele>610.0</ele><time>2026-04-27T14:59:48Z</time></trkpt><trkpt lat="40.148394253286256" lon="19.85701816092884"><ele>610.0</ele><time>2026-04-27T14:59:49Z</time></trkpt><trkpt lat="40.14833455605041" lon="19.857083153389365"><ele>611.5</ele><time>2026-04-27T14:59:50Z</time></trkpt><trkpt lat="40.148269842643884" lon="19.8571334803592"><ele>613.0</ele><time>2026-04-27T14:59:51Z</time></trkpt><trkpt lat="40.148174433499456" lon="19.857230736979055"><ele>614.5</ele><time>2026-04-27T14:59:53Z</time></trkpt><trkpt lat="40.14814426818215" lon="19.857310826925506"><ele>616.0</ele><time>2026-04-27T14:59:54Z</time></trkpt><trkpt lat="40.148118478906525" lon="19.85739493885646"><ele>617.5</ele><time>2026-04-27T14:59:55Z</time></trkpt><trkpt lat="40.14809796312969" lon="19.857503047529804"><ele>619.0</ele><time>2026-04-27T14:59:56Z</time></trkpt><trkpt lat="40.14808687020295" lon="19.857599116090036"><ele>614.4</ele><time>2026-04-27T14:59:57.001Z</time></trkpt><trkpt lat="40.148069095821796" lon="19.857681964112377"><ele>609.8</ele><time>2026-04-27T14:59:58.001Z</time></trkpt><trkpt lat="40.14802544608934" lon="19.857791193522235"><ele>605.2</ele><time>2026-04-27T14:59:59.001Z</time></trkpt><trkpt lat="40.14796086133913" lon="19.857911647387063"><ele>600.6</ele><time>2026-04-27T15:00:00.001Z</time></trkpt><trkpt lat="40.147911072704275" lon="19.85803480690161"><ele>596.0</ele><time>2026-04-27T15:00:01.001Z</time></trkpt><trkpt lat="40.147876026065305" lon="19.858125817890194"><ele>596.0</ele><time>2026-04-27T15:00:02.001Z</time></trkpt><trkpt lat="40.14784736803263" lon="19.858207189649445"><ele>596.0</ele><time>2026-04-27T15:00:03.001Z</time></trkpt><trkpt lat="40.14782383170487" lon="19.85829633310113"><ele>596.0</ele><time>2026-04-27T15:00:04.001Z</time></trkpt><trkpt lat="40.147795089329094" lon="19.85837423654735"><ele>596.0</ele><time>2026-04-27T15:00:05.001Z</time></trkpt><trkpt lat="40.147768584533736" lon="19.858534216769144"><ele>596.0</ele><time>2026-04-27T15:00:07.001Z</time></trkpt><trkpt lat="40.147768609282586" lon="19.85862569166347"><ele>596.0</ele><time>2026-04-27T15:00:08.001Z</time></trkpt><trkpt lat="40.14777726108843" lon="19.85871673749859"><ele>596.25</ele><time>2026-04-27T15:00:09.001Z</time></trkpt><trkpt lat="40.147825135580234" lon="19.858860014814905"><ele>596.5</ele><time>2026-04-27T15:00:11.001Z</time></trkpt><trkpt lat="40.1478628254558" lon="19.858999091189897"><ele>596.75</ele><time>2026-04-27T15:00:13.001Z</time></trkpt><trkpt lat="40.14782934989932" lon="19.85916448078198"><ele>597.0</ele><time>2026-04-27T15:00:15.001Z</time></trkpt><trkpt lat="40.147790410674595" lon="19.859265511775355"><ele>597.8000000000001</ele><time>2026-04-27T15:00:16.001Z</time></trkpt><trkpt lat="40.147695437953566" lon="19.859351815575682"><ele>598.6</ele><time>2026-04-27T15:00:18.001Z</time></trkpt><trkpt lat="40.14762362257047" lon="19.85935096532567"><ele>599.4000000000001</ele><time>2026-04-27T15:00:19.001Z</time></trkpt><trkpt lat="40.147525059788684" lon="19.85938906110721"><ele>600.2</ele><time>2026-04-27T15:00:21.001Z</time></trkpt><trkpt lat="40.14744663907652" lon="19.859549505160707"><ele>601.0</ele><time>2026-04-27T15:00:23.001Z</time></trkpt><trkpt lat="40.147431887008864" lon="19.859653223928287"><ele>601.0</ele><time>2026-04-27T15:00:24.001Z</time></trkpt><trkpt lat="40.14743137708721" lon="19.85973666918223"><ele>601.0</ele><time>2026-04-27T15:00:25.001Z</time></trkpt><trkpt lat="40.14740506418033" lon="19.859909974456937"><ele>601.0</ele><time>2026-04-27T15:00:27.001Z</time></trkpt><trkpt lat="40.14736733928204" lon="19.859997382402046"><ele>601.0</ele><time>2026-04-27T15:00:28.001Z</time></trkpt><trkpt lat="40.147320341662905" lon="19.86007428379292"><ele>601.0</ele><time>2026-04-27T15:00:29.001Z</time></trkpt><trkpt lat="40.147264844600336" lon="19.860133747056206"><ele>601.0</ele><time>2026-04-27T15:00:30.001Z</time></trkpt><trkpt lat="40.14720170047657" lon="19.860177032493844"><ele>600.2</ele><time>2026-04-27T15:00:31.001Z</time></trkpt><trkpt lat="40.147145174070026" lon="19.860238055325556"><ele>599.4000000000001</ele><time>2026-04-27T15:00:32.001Z</time></trkpt><trkpt lat="40.147041073745704" lon="19.860343561387147"><ele>598.6</ele><time>2026-04-27T15:00:34.001Z</time></trkpt><trkpt lat="40.14693954236826" lon="19.860384234165515"><ele>597.8000000000001</ele><time>2026-04-27T15:00:36.001Z</time></trkpt><trkpt lat="40.14687380975121" lon="19.86041960457956"><ele>597.0</ele><time>2026-04-27T15:00:37.001Z</time></trkpt><trkpt lat="40.146810823142644" lon="19.860452131856654"><ele>597.0</ele><time>2026-04-27T15:00:38.001Z</time></trkpt><trkpt lat="40.146702076895316" lon="19.86049506853113"><ele>597.0</ele><time>2026-04-27T15:00:40.001Z</time></trkpt><trkpt lat="40.14660526242471" lon="19.860457957653892"><ele>597.0</ele><time>2026-04-27T15:00:42.001Z</time></trkpt><trkpt lat="40.14653269609018" lon="19.860425519618445"><ele>597.0</ele><time>2026-04-27T15:00:43.001Z</time></trkpt><trkpt lat="40.146428029340036" lon="19.860365282291347"><ele>597.0</ele><time>2026-04-27T15:00:45.001Z</time></trkpt><trkpt lat="40.14631429513811" lon="19.860309469120054"><ele>596.5</ele><time>2026-04-27T15:00:47.001Z</time></trkpt><trkpt lat="40.14623765258851" lon="19.86029188023558"><ele>596.0</ele><time>2026-04-27T15:00:48.001Z</time></trkpt><trkpt lat="40.14616917892775" lon="19.860285739834243"><ele>595.5</ele><time>2026-04-27T15:00:49.001Z</time></trkpt><trkpt lat="40.14610038665804" lon="19.860281566668522"><ele>595.0</ele><time>2026-04-27T15:00:50.001Z</time></trkpt><trkpt lat="40.14600167314597" lon="19.86025882137698"><ele>594.5</ele><time>2026-04-27T15:00:52.001Z</time></trkpt><trkpt lat="40.14587956836928" lon="19.860232830455985"><ele>594.0</ele><time>2026-04-27T15:00:54.001Z</time></trkpt><trkpt lat="40.14580249520994" lon="19.86022483469485"><ele>585.0</ele><time>2026-04-27T15:00:55.001Z</time></trkpt><trkpt lat="40.14566368896692" lon="19.860250117073225"><ele>576.0</ele><time>2026-04-27T15:00:57.001Z</time></trkpt><trkpt lat="40.14553088680161" lon="19.860249385254367"><ele>567.0</ele><time>2026-04-27T15:00:59.001Z</time></trkpt><trkpt lat="40.1454303481344" lon="19.860257822575317"><ele>558.0</ele><time>2026-04-27T15:01:00.001Z</time></trkpt><trkpt lat="40.14534159226354" lon="19.860260857631843"><ele>558.0</ele><time>2026-04-27T15:01:01.001Z</time></trkpt><trkpt lat="40.14522282627427" lon="19.860264617795423"><ele>558.0</ele><time>2026-04-27T15:01:03.001Z</time></trkpt><trkpt lat="40.14512521547875" lon="19.860324159059175"><ele>558.0</ele><time>2026-04-27T15:01:05.001Z</time></trkpt><trkpt lat="40.14509114948728" lon="19.860465623508617"><ele>558.0</ele><time>2026-04-27T15:01:07.001Z</time></trkpt><trkpt lat="40.14511609541304" lon="19.86061369803157"><ele>558.0</ele><time>2026-04-27T15:01:09.001Z</time></trkpt><trkpt lat="40.14513480103441" lon="19.860773697132345"><ele>558.0</ele><time>2026-04-27T15:01:11.001Z</time></trkpt><trkpt lat="40.14512867838573" lon="19.86088316011714"><ele>558.0</ele><time>2026-04-27T15:01:12.001Z</time></trkpt><trkpt lat="40.14512579119491" lon="19.861010115876738"><ele>558.0</ele><time>2026-04-27T15:01:13.001Z</time></trkpt><trkpt lat="40.145121664878616" lon="19.861126279789623"><ele>558.0</ele><time>2026-04-27T15:01:14.001Z</time></trkpt><trkpt lat="40.14511352898139" lon="19.86123140851918"><ele>559.0</ele><time>2026-04-27T15:01:15.001Z</time></trkpt><trkpt lat="40.14511094628694" lon="19.861335254095703"><ele>560.0</ele><time>2026-04-27T15:01:16.001Z</time></trkpt><trkpt lat="40.14511446005229" lon="19.861440791630155"><ele>561.0</ele><time>2026-04-27T15:01:17.001Z</time></trkpt><trkpt lat="40.14511258475381" lon="19.86154190053855"><ele>562.0</ele><time>2026-04-27T15:01:18.001Z</time></trkpt><trkpt lat="40.14509104391044" lon="19.861640742238663"><ele>563.0</ele><time>2026-04-27T15:01:19.001Z</time></trkpt><trkpt lat="40.14504700198691" lon="19.861755797530435"><ele>564.0</ele><time>2026-04-27T15:01:20.001Z</time></trkpt><trkpt lat="40.14498103310643" lon="19.861858157296776"><ele>565.6</ele><time>2026-04-27T15:01:21.001Z</time></trkpt><trkpt lat="40.14488906278026" lon="19.86196427851266"><ele>567.2</ele><time>2026-04-27T15:01:22.001Z</time></trkpt><trkpt lat="40.14480177486359" lon="19.8620580298903"><ele>568.8000000000001</ele><time>2026-04-27T15:01:23.001Z</time></trkpt><trkpt lat="40.14472875447246" lon="19.862139512845793"><ele>570.4</ele><time>2026-04-27T15:01:24.001Z</time></trkpt><trkpt lat="40.14464183820113" lon="19.86218360953819"><ele>572.0</ele><time>2026-04-27T15:01:25.001Z</time></trkpt><trkpt lat="40.144563774609416" lon="19.86222825609517"><ele>572.0</ele><time>2026-04-27T15:01:26.001Z</time></trkpt><trkpt lat="40.14449726072927" lon="19.86228535356269"><ele>572.0</ele><time>2026-04-27T15:01:27.001Z</time></trkpt><trkpt lat="40.1443916868151" lon="19.86232640245691"><ele>572.0</ele><time>2026-04-27T15:01:28.001Z</time></trkpt><trkpt lat="40.144257051596625" lon="19.862394536200892"><ele>572.0</ele><time>2026-04-27T15:01:29.001Z</time></trkpt><trkpt lat="40.1441451955525" lon="19.862446020604786"><ele>572.0</ele><time>2026-04-27T15:01:30.001Z</time></trkpt><trkpt lat="40.14406773733502" lon="19.862474138736044"><ele>572.0</ele><time>2026-04-27T15:01:31.001Z</time></trkpt><trkpt lat="40.143974429113925" lon="19.862528456890672"><ele>572.0</ele><time>2026-04-27T15:01:33.001Z</time></trkpt><trkpt lat="40.143917143133045" lon="19.86264427457676"><ele>572.0</ele><time>2026-04-27T15:01:35.001Z</time></trkpt><trkpt lat="40.14389458782267" lon="19.86272286870753"><ele>572.0</ele><time>2026-04-27T15:01:36.001Z</time></trkpt><trkpt lat="40.143863176160984" lon="19.86280069355608"><ele>572.0</ele><time>2026-04-27T15:01:37.001Z</time></trkpt><trkpt lat="40.143833493595004" lon="19.862877677188507"><ele>565.6</ele><time>2026-04-27T15:01:38.001Z</time></trkpt><trkpt lat="40.14379537476278" lon="19.862999330465765"><ele>559.2</ele><time>2026-04-27T15:01:40.001Z</time></trkpt><trkpt lat="40.143795116634195" lon="19.86315658206675"><ele>552.8</ele><time>2026-04-27T15:01:42.001Z</time></trkpt><trkpt lat="40.14385678861367" lon="19.863280238212713"><ele>546.4</ele><time>2026-04-27T15:01:44.001Z</time></trkpt><trkpt lat="40.14392386772546" lon="19.863392597629478"><ele>540.0</ele><time>2026-04-27T15:01:46.001Z</time></trkpt><trkpt lat="40.14397675040677" lon="19.863459079154342"><ele>540.0</ele><time>2026-04-27T15:01:47.001Z</time></trkpt><trkpt lat="40.14403475545153" lon="19.8635253201898"><ele>540.0</ele><time>2026-04-27T15:01:48.001Z</time></trkpt><trkpt lat="40.14408656342857" lon="19.863590062019508"><ele>540.0</ele><time>2026-04-27T15:01:49.001Z</time></trkpt><trkpt lat="40.14415606018482" lon="19.863643687517236"><ele>540.0</ele><time>2026-04-27T15:01:50.001Z</time></trkpt><trkpt lat="40.14420958666189" lon="19.86371455281901"><ele>540.0</ele><time>2026-04-27T15:01:51.001Z</time></trkpt><trkpt lat="40.14424312521236" lon="19.863819159172373"><ele>540.0</ele><time>2026-04-27T15:01:52.001Z</time></trkpt><trkpt lat="40.144266371689845" lon="19.86390181866246"><ele>544.8333333333334</ele><time>2026-04-27T15:01:53.001Z</time></trkpt><trkpt lat="40.14430478401536" lon="19.863971861738253"><ele>549.6666666666666</ele><time>2026-04-27T15:01:54.001Z</time></trkpt><trkpt lat="40.14432980719361" lon="19.864100416597246"><ele>554.5</ele><time>2026-04-27T15:01:56.001Z</time></trkpt><trkpt lat="40.14429605468401" lon="19.864170851060255"><ele>559.3333333333333</ele><time>2026-04-27T15:01:57.001Z</time></trkpt><trkpt lat="40.144221809003035" lon="19.86418412711993"><ele>564.1666666666666</ele><time>2026-04-27T15:01:58.001Z</time></trkpt><trkpt lat="40.14414486656256" lon="19.86416458626356"><ele>569.0</ele><time>2026-04-27T15:01:59.001Z</time></trkpt><trkpt lat="40.144057924101986" lon="19.86416372596565"><ele>566.1666666666666</ele><time>2026-04-27T15:02:00.001Z</time></trkpt><trkpt lat="40.14398352228181" lon="19.864186460932018"><ele>563.3333333333333</ele><time>2026-04-27T15:02:01.001Z</time></trkpt><trkpt lat="40.14391009675245" lon="19.864201957642866"><ele>560.5</ele><time>2026-04-27T15:02:02.001Z</time></trkpt><trkpt lat="40.14382716812301" lon="19.864267575667878"><ele>557.6666666666666</ele><time>2026-04-27T15:02:03.001Z</time></trkpt><trkpt lat="40.14374477684151" lon="19.864356587767343"><ele>554.8333333333334</ele><time>2026-04-27T15:02:04.001Z</time></trkpt><trkpt lat="40.14368809605093" lon="19.864432105013083"><ele>552.0</ele><time>2026-04-27T15:02:05.001Z</time></trkpt><trkpt lat="40.14364073700876" lon="19.864524932079654"><ele>552.0</ele><time>2026-04-27T15:02:06.001Z</time></trkpt><trkpt lat="40.143604745983666" lon="19.864635120551714"><ele>552.0</ele><time>2026-04-27T15:02:07.001Z</time></trkpt><trkpt lat="40.143574996371804" lon="19.86475120753341"><ele>552.0</ele><time>2026-04-27T15:02:08.001Z</time></trkpt><trkpt lat="40.1435627660936" lon="19.864866332151742"><ele>552.0</ele><time>2026-04-27T15:02:09.001Z</time></trkpt><trkpt lat="40.14355843784779" lon="19.86499458589645"><ele>552.0</ele><time>2026-04-27T15:02:10.001Z</time></trkpt><trkpt lat="40.14353662765154" lon="19.865126739316377"><ele>553.8000000000001</ele><time>2026-04-27T15:02:11.001Z</time></trkpt><trkpt lat="40.14350272250246" lon="19.86523386363735"><ele>555.6</ele><time>2026-04-27T15:02:12.001Z</time></trkpt><trkpt lat="40.14348335459846" lon="19.865321857446663"><ele>557.4000000000001</ele><time>2026-04-27T15:02:13.001Z</time></trkpt><trkpt lat="40.14347665565385" lon="19.865467283646613"><ele>559.2</ele><time>2026-04-27T15:02:15.001Z</time></trkpt><trkpt lat="40.14352410890871" lon="19.865629276627153"><ele>561.0</ele><time>2026-04-27T15:02:17.001Z</time></trkpt><trkpt lat="40.14357444793544" lon="19.865713719232453"><ele>561.0</ele><time>2026-04-27T15:02:18.001Z</time></trkpt><trkpt lat="40.14361451556681" lon="19.86580762484859"><ele>561.0</ele><time>2026-04-27T15:02:19.001Z</time></trkpt><trkpt lat="40.14362019147243" lon="19.865898514780266"><ele>561.0</ele><time>2026-04-27T15:02:20.001Z</time></trkpt><trkpt lat="40.14353899988116" lon="19.8660393352163"><ele>561.0</ele><time>2026-04-27T15:02:22.001Z</time></trkpt><trkpt lat="40.14345036151641" lon="19.866089371596388"><ele>561.0</ele><time>2026-04-27T15:02:23.001Z</time></trkpt><trkpt lat="40.1434158743623" lon="19.86617509667717"><ele>564.5</ele><time>2026-04-27T15:02:24.001Z</time></trkpt><trkpt lat="40.14339461287074" lon="19.866253748509493"><ele>568.0</ele><time>2026-04-27T15:02:25.001Z</time></trkpt><trkpt lat="40.143376727305174" lon="19.86635552732383"><ele>571.5</ele><time>2026-04-27T15:02:26.001Z</time></trkpt><trkpt lat="40.143350609434286" lon="19.866468666726973"><ele>575.0</ele><time>2026-04-27T15:02:27.001Z</time></trkpt><trkpt lat="40.14330382495059" lon="19.866597313570775"><ele>578.5</ele><time>2026-04-27T15:02:28.001Z</time></trkpt><trkpt lat="40.14326399996314" lon="19.866716364886972"><ele>582.0</ele><time>2026-04-27T15:02:29.001Z</time></trkpt><trkpt lat="40.14324116324843" lon="19.866814414530815"><ele>579.0</ele><time>2026-04-27T15:02:30.001Z</time></trkpt><trkpt lat="40.1431767666904" lon="19.866888046785743"><ele>576.0</ele><time>2026-04-27T15:02:31.001Z</time></trkpt><trkpt lat="40.14310898635743" lon="19.866963921398984"><ele>573.0</ele><time>2026-04-27T15:02:32.001Z</time></trkpt><trkpt lat="40.14304667660379" lon="19.867053386410017"><ele>570.0</ele><time>2026-04-27T15:02:33.001Z</time></trkpt><trkpt lat="40.14299834881438" lon="19.867116704414258"><ele>567.0</ele><time>2026-04-27T15:02:34.001Z</time></trkpt><trkpt lat="40.142968607773284" lon="19.86728365523627"><ele>567.0</ele><time>2026-04-27T15:02:36.001Z</time></trkpt><trkpt lat="40.142956700179134" lon="19.867373988650876"><ele>567.0</ele><time>2026-04-27T15:02:37.001Z</time></trkpt><trkpt lat="40.142914907785126" lon="19.86744709131195"><ele>567.0</ele><time>2026-04-27T15:02:38.001Z</time></trkpt><trkpt lat="40.14283859825383" lon="19.867443356714404"><ele>567.0</ele><time>2026-04-27T15:02:39.001Z</time></trkpt><trkpt lat="40.14276926492038" lon="19.867452262537263"><ele>567.0</ele><time>2026-04-27T15:02:41.001Z</time></trkpt><trkpt lat="40.14267480685133" lon="19.86749028335419"><ele>567.0</ele><time>2026-04-27T15:02:45.001Z</time></trkpt><trkpt lat="40.14262206322479" lon="19.867570507729276"><ele>566.2</ele><time>2026-04-27T15:02:46.001Z</time></trkpt><trkpt lat="40.14256907925688" lon="19.867657788145994"><ele>565.4000000000001</ele><time>2026-04-27T15:02:47.001Z</time></trkpt><trkpt lat="40.142607975886314" lon="19.867747760034117"><ele>564.5999999999999</ele><time>2026-04-27T15:02:48.001Z</time></trkpt><trkpt lat="40.14261046513491" lon="19.867866469095542"><ele>563.8</ele><time>2026-04-27T15:02:50.001Z</time></trkpt><trkpt lat="40.14265963416854" lon="19.868019549278483"><ele>563.0</ele><time>2026-04-27T15:02:52.001Z</time></trkpt><trkpt lat="40.142699051548604" lon="19.868101478544716"><ele>563.0</ele><time>2026-04-27T15:02:53.001Z</time></trkpt><trkpt lat="40.142749770952086" lon="19.86818488649434"><ele>563.0</ele><time>2026-04-27T15:02:54.001Z</time></trkpt><trkpt lat="40.14279170077132" lon="19.86824815416022"><ele>563.0</ele><time>2026-04-27T15:02:55.001Z</time></trkpt><trkpt lat="40.14288484069083" lon="19.868328675820422"><ele>563.0</ele><time>2026-04-27T15:02:57.001Z</time></trkpt><trkpt lat="40.142950743785605" lon="19.868351690181484"><ele>563.0</ele><time>2026-04-27T15:02:58.001Z</time></trkpt><trkpt lat="40.14301871323115" lon="19.868355836532995"><ele>563.0</ele><time>2026-04-27T15:02:59.001Z</time></trkpt><trkpt lat="40.1431250342877" lon="19.868378362477515"><ele>560.4</ele><time>2026-04-27T15:03:01.001Z</time></trkpt><trkpt lat="40.14317183654823" lon="19.868446003329684"><ele>557.8</ele><time>2026-04-27T15:03:02.001Z</time></trkpt><trkpt lat="40.14324363756894" lon="19.868531074423792"><ele>555.2</ele><time>2026-04-27T15:03:04.001Z</time></trkpt><trkpt lat="40.1432001483092" lon="19.868713311029644"><ele>552.6</ele><time>2026-04-27T15:03:05.001Z</time></trkpt><trkpt lat="40.14324333848427" lon="19.868850373029456"><ele>550.0</ele><time>2026-04-27T15:03:07.001Z</time></trkpt><trkpt lat="40.14331992830055" lon="19.868892180898733"><ele>555.0</ele><time>2026-04-27T15:03:08.001Z</time></trkpt><trkpt lat="40.143368886811636" lon="19.86899755751353"><ele>560.0</ele><time>2026-04-27T15:03:09.001Z</time></trkpt><trkpt lat="40.14337238860237" lon="19.869114225108618"><ele>565.0</ele><time>2026-04-27T15:03:10.001Z</time></trkpt><trkpt lat="40.14339540987959" lon="19.869223402567194"><ele>570.0</ele><time>2026-04-27T15:03:11.001Z</time></trkpt><trkpt lat="40.14341090432361" lon="19.869324683454426"><ele>575.0</ele><time>2026-04-27T15:03:12.001Z</time></trkpt><trkpt lat="40.14342470361696" lon="19.869422854899405"><ele>580.0</ele><time>2026-04-27T15:03:13.001Z</time></trkpt><trkpt lat="40.143435825314086" lon="19.869515056801045"><ele>580.0</ele><time>2026-04-27T15:03:14.001Z</time></trkpt><trkpt lat="40.14345937589543" lon="19.869610803730755"><ele>580.0</ele><time>2026-04-27T15:03:15.001Z</time></trkpt><trkpt lat="40.14346481633245" lon="19.869704551612056"><ele>580.0</ele><time>2026-04-27T15:03:16.001Z</time></trkpt><trkpt lat="40.14349389701354" lon="19.869841611558492"><ele>580.0</ele><time>2026-04-27T15:03:18.001Z</time></trkpt><trkpt lat="40.14353871768743" lon="19.86994802269383"><ele>580.0</ele><time>2026-04-27T15:03:38.001Z</time></trkpt><trkpt lat="40.14360340479985" lon="19.870023497878968"><ele>580.0</ele><time>2026-04-27T15:03:40.001Z</time></trkpt><trkpt lat="40.14366561232661" lon="19.870037015018767"><ele>580.0</ele><time>2026-04-27T15:03:41.001Z</time></trkpt><trkpt lat="40.1437124176454" lon="19.870107410066186"><ele>580.0</ele><time>2026-04-27T15:03:43.001Z</time></trkpt><trkpt lat="40.143785940655825" lon="19.87014101975758"><ele>580.0</ele><time>2026-04-27T15:03:45.001Z</time></trkpt><trkpt lat="40.14374275262178" lon="19.87021997457483"><ele>580.0</ele><time>2026-04-27T15:03:46.001Z</time></trkpt><trkpt lat="40.14380578749228" lon="19.870373999877444"><ele>580.0</ele><time>2026-04-27T15:03:47.001Z</time></trkpt><trkpt lat="40.143863939995775" lon="19.87040910796549"><ele>580.0</ele><time>2026-04-27T15:03:51.001Z</time></trkpt><trkpt lat="40.14391054998167" lon="19.870479537691523"><ele>579.5</ele><time>2026-04-27T15:03:54.001Z</time></trkpt><trkpt lat="40.14389885989628" lon="19.87065902409166"><ele>579.0</ele><time>2026-04-27T15:03:57.001Z</time></trkpt><trkpt lat="40.14389440673148" lon="19.87081073082237"><ele>578.5</ele><time>2026-04-27T15:03:59.001Z</time></trkpt><trkpt lat="40.14382645899958" lon="19.870932772360344"><ele>578.0</ele><time>2026-04-27T15:04:01.001Z</time></trkpt><trkpt lat="40.14379608130452" lon="19.871104945974352"><ele>581.1666666666666</ele><time>2026-04-27T15:04:03.001Z</time></trkpt><trkpt lat="40.14378199048128" lon="19.871215684917807"><ele>584.3333333333333</ele><time>2026-04-27T15:04:05.001Z</time></trkpt><trkpt lat="40.14378627152367" lon="19.871335008200678"><ele>587.5</ele><time>2026-04-27T15:04:07.001Z</time></trkpt><trkpt lat="40.14379217220805" lon="19.87145663173784"><ele>590.6666666666666</ele><time>2026-04-27T15:04:09.001Z</time></trkpt><trkpt lat="40.14379310501811" lon="19.871562823735758"><ele>593.8333333333334</ele><time>2026-04-27T15:04:11.001Z</time></trkpt><trkpt lat="40.14380113264462" lon="19.87166718564026"><ele>597.0</ele><time>2026-04-27T15:04:13.001Z</time></trkpt><trkpt lat="40.143719383508795" lon="19.87168836986772"><ele>597.0</ele><time>2026-04-27T15:04:47.001Z</time></trkpt><trkpt lat="40.143638695812875" lon="19.87168433750823"><ele>597.0</ele><time>2026-04-27T15:04:49.001Z</time></trkpt><trkpt lat="40.1435634260343" lon="19.871676989517354"><ele>597.0</ele><time>2026-04-27T15:04:50.001Z</time></trkpt><trkpt lat="40.143492360426706" lon="19.87167002843063"><ele>597.0</ele><time>2026-04-27T15:04:51.001Z</time></trkpt><trkpt lat="40.143418047294105" lon="19.871662862360647"><ele>597.0</ele><time>2026-04-27T15:04:52.001Z</time></trkpt><trkpt lat="40.14332860510474" lon="19.87162249670605"><ele>597.0</ele><time>2026-04-27T15:04:54.001Z</time></trkpt><trkpt lat="40.143265401086985" lon="19.87157539126658"><ele>594.0</ele><time>2026-04-27T15:04:55.001Z</time></trkpt><trkpt lat="40.143145857663725" lon="19.871532328375284"><ele>591.0</ele><time>2026-04-27T15:04:56.001Z</time></trkpt><trkpt lat="40.14311011366369" lon="19.87160416489143"><ele>588.0</ele><time>2026-04-27T15:05:20.001Z</time></trkpt><trkpt lat="40.143008164422184" lon="19.871659489109526"><ele>585.0</ele><time>2026-04-27T15:05:21.001Z</time></trkpt><trkpt lat="40.1427820402484" lon="19.872039129299147"><ele>585.0</ele><time>2026-04-27T15:05:22.001Z</time></trkpt><trkpt lat="40.14277667910762" lon="19.872151416195056"><ele>585.0</ele><time>2026-04-27T15:05:23.001Z</time></trkpt><trkpt lat="40.14281939408016" lon="19.87226081778681"><ele>585.0</ele><time>2026-04-27T15:05:25.001Z</time></trkpt><trkpt lat="40.14284444091726" lon="19.872336883961705"><ele>585.0</ele><time>2026-04-27T15:05:26.001Z</time></trkpt><trkpt lat="40.143332898691746" lon="19.872860852101596"><ele>588.8333333333334</ele><time>2026-04-27T15:05:33.001Z</time></trkpt><trkpt lat="40.14331240628168" lon="19.872947527293192"><ele>592.6666666666666</ele><time>2026-04-27T15:05:34.001Z</time></trkpt><trkpt lat="40.143290961111916" lon="19.87303424018627"><ele>596.5</ele><time>2026-04-27T15:05:35.001Z</time></trkpt><trkpt lat="40.143256368316116" lon="19.873108844694148"><ele>600.3333333333333</ele><time>2026-04-27T15:05:36.001Z</time></trkpt><trkpt lat="40.14321835632501" lon="19.873176344822106"><ele>604.1666666666666</ele><time>2026-04-27T15:05:37.001Z</time></trkpt><trkpt lat="40.14314793903657" lon="19.8733041430086"><ele>608.0</ele><time>2026-04-27T15:05:39.001Z</time></trkpt><trkpt lat="40.14308558011803" lon="19.87342997409081"><ele>611.8333333333333</ele><time>2026-04-27T15:05:41.001Z</time></trkpt><trkpt lat="40.14303176922934" lon="19.87358573086793"><ele>615.6666666666666</ele><time>2026-04-27T15:05:43.001Z</time></trkpt><trkpt lat="40.14300012547058" lon="19.873665642849"><ele>619.5</ele><time>2026-04-27T15:05:44.001Z</time></trkpt><trkpt lat="40.14296435983782" lon="19.873738194882378"><ele>623.3333333333334</ele><time>2026-04-27T15:05:45.001Z</time></trkpt><trkpt lat="40.14292563249298" lon="19.873807191076498"><ele>627.1666666666667</ele><time>2026-04-27T15:05:46.001Z</time></trkpt><trkpt lat="40.14289445240606" lon="19.873881595794742"><ele>631.0</ele><time>2026-04-27T15:05:47.001Z</time></trkpt><trkpt lat="40.14286157954103" lon="19.873960471939835"><ele>631.0</ele><time>2026-04-27T15:05:48.001Z</time></trkpt><trkpt lat="40.14282935097829" lon="19.874035764306957"><ele>631.0</ele><time>2026-04-27T15:05:49.001Z</time></trkpt><trkpt lat="40.14279952325278" lon="19.874130916780288"><ele>631.0</ele><time>2026-04-27T15:05:50.001Z</time></trkpt><trkpt lat="40.142760579162236" lon="19.87421073939536"><ele>631.0</ele><time>2026-04-27T15:05:51.001Z</time></trkpt><trkpt lat="40.14271739383556" lon="19.87430451334143"><ele>631.0</ele><time>2026-04-27T15:05:52.001Z</time></trkpt><trkpt lat="40.142684498907514" lon="19.874393430402563"><ele>631.0</ele><time>2026-04-27T15:05:53.001Z</time></trkpt><trkpt lat="40.14266057584548" lon="19.87446990175856"><ele>631.0</ele><time>2026-04-27T15:05:54.001Z</time></trkpt><trkpt lat="40.14261441951848" lon="19.874575131490992"><ele>629.1666666666667</ele><time>2026-04-27T15:05:56.001Z</time></trkpt><trkpt lat="40.14255749348388" lon="19.874680260995053"><ele>627.3333333333334</ele><time>2026-04-27T15:05:58.001Z</time></trkpt><trkpt lat="40.14249140384321" lon="19.874745827988665"><ele>625.5</ele><time>2026-04-27T15:06:00.001Z</time></trkpt><trkpt lat="40.14241352324492" lon="19.874762925438393"><ele>623.6666666666666</ele><time>2026-04-27T15:06:02.001Z</time></trkpt><trkpt lat="40.142352974859755" lon="19.87470677091346"><ele>621.8333333333333</ele><time>2026-04-27T15:06:05.001Z</time></trkpt><trkpt lat="40.1424178557881" lon="19.874731392789435"><ele>620.0</ele><time>2026-04-27T15:14:18Z</time></trkpt><trkpt lat="40.14248946745389" lon="19.8747201961096"><ele>625.8571428571429</ele><time>2026-04-27T15:14:23Z</time></trkpt><trkpt lat="40.14255577658212" lon="19.87469324816131"><ele>631.7142857142857</ele><time>2026-04-27T15:14:28Z</time></trkpt><trkpt lat="40.14260287391125" lon="19.874610637925624"><ele>637.5714285714286</ele><time>2026-04-27T15:14:33Z</time></trkpt><trkpt lat="40.142642406749125" lon="19.87453013547509"><ele>643.4285714285714</ele><time>2026-04-27T15:14:38Z</time></trkpt><trkpt lat="40.14267653498414" lon="19.874456072068995"><ele>649.2857142857143</ele><time>2026-04-27T15:14:50Z</time></trkpt><trkpt lat="40.14268049899416" lon="19.874369388149887"><ele>655.1428571428571</ele><time>2026-04-27T15:14:56Z</time></trkpt><trkpt lat="40.14260639026767" lon="19.874376518377655"><ele>661.0</ele><time>2026-04-27T15:15:00Z</time></trkpt><trkpt lat="40.14253776208774" lon="19.874374118467298"><ele>661.0</ele><time>2026-04-27T15:15:05Z</time></trkpt><trkpt lat="40.1424743087296" lon="19.874362354608774"><ele>661.0</ele><time>2026-04-27T15:15:11Z</time></trkpt><trkpt lat="40.14244997926037" lon="19.874277053104887"><ele>661.0</ele><time>2026-04-27T15:15:17Z</time></trkpt><trkpt lat="40.14246255554852" lon="19.87436091414222"><ele>661.0</ele><time>2026-04-27T15:15:52.001Z</time></trkpt><trkpt lat="40.142579265710054" lon="19.874396560692087"><ele>661.0</ele><time>2026-04-27T15:17:26Z</time></trkpt><trkpt lat="40.14264170773055" lon="19.874385372525488"><ele>661.0</ele><time>2026-04-27T15:17:31Z</time></trkpt><trkpt lat="40.1426545349832" lon="19.874467263293862"><ele>661.0</ele><time>2026-04-27T15:17:40Z</time></trkpt><trkpt lat="40.142607953910655" lon="19.874534714966188"><ele>661.0</ele><time>2026-04-27T15:17:47Z</time></trkpt><trkpt lat="40.142571105086006" lon="19.874609026439483"><ele>661.0</ele><time>2026-04-27T15:17:53Z</time></trkpt><trkpt lat="40.14252204938" lon="19.874678800230203"><ele>661.0</ele><time>2026-04-27T15:17:59Z</time></trkpt><trkpt lat="40.14245805147922" lon="19.874701288096144"><ele>661.0</ele><time>2026-04-27T15:18:06Z</time></trkpt><trkpt lat="40.142391663467166" lon="19.874696860830568"><ele>661.0</ele><time>2026-04-27T15:18:12Z</time></trkpt><trkpt lat="40.142348298594506" lon="19.87462930209818"><ele>661.0</ele><time>2026-04-27T15:18:28Z</time></trkpt><trkpt lat="40.14241767199246" lon="19.87472862409104"><ele>661.0</ele><time>2026-04-27T15:20:10Z</time></trkpt><trkpt lat="40.14248783652581" lon="19.874740735808235"><ele>661.0</ele><time>2026-04-27T15:20:13Z</time></trkpt><trkpt lat="40.14255774373722" lon="19.874661512239904"><ele>661.0</ele><time>2026-04-27T15:20:17Z</time></trkpt><trkpt lat="40.1425952080657" lon="19.874592522340258"><ele>661.0</ele><time>2026-04-27T15:20:19Z</time></trkpt><trkpt lat="40.142640489056" lon="19.874515861799928"><ele>661.0</ele><time>2026-04-27T15:20:22Z</time></trkpt><trkpt lat="40.14267294112897" lon="19.87442518003093"><ele>661.0</ele><time>2026-04-27T15:20:30Z</time></trkpt><trkpt lat="40.14271133170793" lon="19.87434308805931"><ele>661.0</ele><time>2026-04-27T15:20:33Z</time></trkpt><trkpt lat="40.14274249285113" lon="19.87425617545011"><ele>656.0</ele><time>2026-04-27T15:20:37Z</time></trkpt><trkpt lat="40.14277501408523" lon="19.874160361663105"><ele>651.0</ele><time>2026-04-27T15:20:40Z</time></trkpt><trkpt lat="40.14281145609452" lon="19.874084143625065"><ele>646.0</ele><time>2026-04-27T15:20:42Z</time></trkpt><trkpt lat="40.142847378657436" lon="19.874008435672224"><ele>641.0</ele><time>2026-04-27T15:20:44Z</time></trkpt><trkpt lat="40.14288448558707" lon="19.87390280682355"><ele>636.0</ele><time>2026-04-27T15:20:47Z</time></trkpt><trkpt lat="40.1429286574053" lon="19.873807931605707"><ele>631.0</ele><time>2026-04-27T15:20:50Z</time></trkpt><trkpt lat="40.1429578025178" lon="19.873733679170353"><ele>631.0</ele><time>2026-04-27T15:20:52Z</time></trkpt><trkpt lat="40.14299361763528" lon="19.87366231262652"><ele>631.0</ele><time>2026-04-27T15:20:54Z</time></trkpt><trkpt lat="40.14301980037154" lon="19.873582872850744"><ele>631.0</ele><time>2026-04-27T15:20:56Z</time></trkpt><trkpt lat="40.143050388275654" lon="19.873499424325388"><ele>631.0</ele><time>2026-04-27T15:20:58Z</time></trkpt><trkpt lat="40.143081226675584" lon="19.873418103681672"><ele>631.0</ele><time>2026-04-27T15:21:00Z</time></trkpt><trkpt lat="40.143116492436754" lon="19.873336623678625"><ele>631.0</ele><time>2026-04-27T15:21:02Z</time></trkpt><trkpt lat="40.1431729229972" lon="19.873236965391516"><ele>631.0</ele><time>2026-04-27T15:21:04.999Z</time></trkpt><trkpt lat="40.14321459691286" lon="19.873167839580358"><ele>631.3333333333334</ele><time>2026-04-27T15:21:06.999Z</time></trkpt><trkpt lat="40.14325381221421" lon="19.87309411112494"><ele>631.6666666666667</ele><time>2026-04-27T15:21:08.999Z</time></trkpt><trkpt lat="40.14329218468137" lon="19.873013770058193"><ele>632.0</ele><time>2026-04-27T15:21:10.999Z</time></trkpt><trkpt lat="40.143327797451875" lon="19.872927169762026"><ele>632.3333333333334</ele><time>2026-04-27T15:21:12.999Z</time></trkpt><trkpt lat="40.14336692197977" lon="19.87283285877939"><ele>632.6666666666666</ele><time>2026-04-27T15:21:14.999Z</time></trkpt><trkpt lat="40.14338286119156" lon="19.872728467285828"><ele>633.0</ele><time>2026-04-27T15:21:16.999Z</time></trkpt><trkpt lat="40.143400380901234" lon="19.87263793700245"><ele>629.8333333333334</ele><time>2026-04-27T15:21:18.999Z</time></trkpt><trkpt lat="40.14340795169596" lon="19.872553015848176"><ele>626.6666666666666</ele><time>2026-04-27T15:21:20.999Z</time></trkpt><trkpt lat="40.14341962061181" lon="19.872446327691403"><ele>623.5</ele><time>2026-04-27T15:21:22.999Z</time></trkpt><trkpt lat="40.14342874746801" lon="19.872338300884532"><ele>620.3333333333333</ele><time>2026-04-27T15:21:24.999Z</time></trkpt><trkpt lat="40.14341931760686" lon="19.872226974751694"><ele>617.1666666666666</ele><time>2026-04-27T15:21:26.999Z</time></trkpt><trkpt lat="40.143369276305336" lon="19.872132480288926"><ele>614.0</ele><time>2026-04-27T15:21:28.999Z</time></trkpt><trkpt lat="40.14331450172147" lon="19.87205805352556"><ele>613.9999999999999</ele><time>2026-04-27T15:21:30.999Z</time></trkpt><trkpt lat="40.14328259892416" lon="19.871981957671522"><ele>614.0</ele><time>2026-04-27T15:21:32.999Z</time></trkpt><trkpt lat="40.14328499473988" lon="19.871861681583884"><ele>614.0</ele><time>2026-04-27T15:21:35.999Z</time></trkpt><trkpt lat="40.143321094255036" lon="19.87178880410463"><ele>614.0</ele><time>2026-04-27T15:21:37.999Z</time></trkpt><trkpt lat="40.14337629965144" lon="19.871742677333888"><ele>614.0</ele><time>2026-04-27T15:21:39.999Z</time></trkpt><trkpt lat="40.14345298916647" lon="19.871726981344754"><ele>613.9999999999999</ele><time>2026-04-27T15:21:41.999Z</time></trkpt><trkpt lat="40.14352880272434" lon="19.871714956822405"><ele>614.0</ele><time>2026-04-27T15:21:43.999Z</time></trkpt><trkpt lat="40.14361071964855" lon="19.871721821544167"><ele>611.1666666666666</ele><time>2026-04-27T15:21:45.999Z</time></trkpt><trkpt lat="40.14368972407512" lon="19.871732726178102"><ele>608.3333333333333</ele><time>2026-04-27T15:21:47.999Z</time></trkpt><trkpt lat="40.14376835329053" lon="19.871716558036226"><ele>605.5</ele><time>2026-04-27T15:21:49.999Z</time></trkpt><trkpt lat="40.14383658950141" lon="19.87167216017677"><ele>602.6666666666666</ele><time>2026-04-27T15:21:51.999Z</time></trkpt><trkpt lat="40.143875200436426" lon="19.871590308617666"><ele>599.8333333333334</ele><time>2026-04-27T15:21:53.999Z</time></trkpt><trkpt lat="40.14385001995947" lon="19.871507967835484"><ele>597.0</ele><time>2026-04-27T15:21:55.999Z</time></trkpt><trkpt lat="40.143821735947235" lon="19.87139974957039"><ele>597.0</ele><time>2026-04-27T15:21:57.999Z</time></trkpt><trkpt lat="40.14380938368034" lon="19.871317046346526"><ele>597.0</ele><time>2026-04-27T15:21:59.999Z</time></trkpt><trkpt lat="40.143812503887766" lon="19.871190624851106"><ele>597.0</ele><time>2026-04-27T15:22:02.999Z</time></trkpt><trkpt lat="40.14382305082663" lon="19.871105511945856"><ele>597.0</ele><time>2026-04-27T15:22:04.999Z</time></trkpt><trkpt lat="40.14383804602024" lon="19.871020685917404"><ele>597.0</ele><time>2026-04-27T15:22:06.999Z</time></trkpt><trkpt lat="40.1438944274544" lon="19.870894482080903"><ele>597.0</ele><time>2026-04-27T15:22:08.999Z</time></trkpt><trkpt lat="40.14391477246987" lon="19.870768619977273"><ele>593.2</ele><time>2026-04-27T15:22:10.999Z</time></trkpt><trkpt lat="40.1439009377418" lon="19.870627574452072"><ele>589.4000000000001</ele><time>2026-04-27T15:22:12.999Z</time></trkpt><trkpt lat="40.14392430087562" lon="19.870544745900226"><ele>585.5999999999999</ele><time>2026-04-27T15:22:13.999Z</time></trkpt><trkpt lat="40.14391340622116" lon="19.8704016973657"><ele>581.8</ele><time>2026-04-27T15:22:15.999Z</time></trkpt><trkpt lat="40.14390408795123" lon="19.870263852085298"><ele>578.0</ele><time>2026-04-27T15:22:17.999Z</time></trkpt><trkpt lat="40.14383241765653" lon="19.870313440148426"><ele>578.0</ele><time>2026-04-27T15:22:18.999Z</time></trkpt><trkpt lat="40.1437686530786" lon="19.870238317802126"><ele>578.0</ele><time>2026-04-27T15:22:20.999Z</time></trkpt><trkpt lat="40.14374664003778" lon="19.870139023273044"><ele>578.0</ele><time>2026-04-27T15:22:21.999Z</time></trkpt><trkpt lat="40.14372853493052" lon="19.87005126669715"><ele>578.0</ele><time>2026-04-27T15:22:22.999Z</time></trkpt><trkpt lat="40.14362739246667" lon="19.870000833939944"><ele>578.0</ele><time>2026-04-27T15:22:24.999Z</time></trkpt><trkpt lat="40.14355839539844" lon="19.869885209836983"><ele>578.4</ele><time>2026-04-27T15:22:26.999Z</time></trkpt><trkpt lat="40.14351946033282" lon="19.869771316844275"><ele>578.8</ele><time>2026-04-27T15:22:28.999Z</time></trkpt><trkpt lat="40.14347834509022" lon="19.869639043224872"><ele>579.2</ele><time>2026-04-27T15:22:30.999Z</time></trkpt><trkpt lat="40.14346903780917" lon="19.8695565251174"><ele>579.6</ele><time>2026-04-27T15:22:31.999Z</time></trkpt><trkpt lat="40.14342744214899" lon="19.8694414039994"><ele>580.0</ele><time>2026-04-27T15:22:33.999Z</time></trkpt><trkpt lat="40.14341902277774" lon="19.869327892588522"><ele>581.6666666666667</ele><time>2026-04-27T15:22:35.999Z</time></trkpt><trkpt lat="40.143408067712414" lon="19.869236102468086"><ele>583.3333333333334</ele><time>2026-04-27T15:22:37.999Z</time></trkpt><trkpt lat="40.143398136457705" lon="19.86912847227742"><ele>585.0</ele><time>2026-04-27T15:22:39.999Z</time></trkpt><trkpt lat="40.143388434471476" lon="19.869020039125687"><ele>586.6666666666666</ele><time>2026-04-27T15:22:41.999Z</time></trkpt><trkpt lat="40.143384018197885" lon="19.86892881970895"><ele>588.3333333333333</ele><time>2026-04-27T15:22:43.999Z</time></trkpt><trkpt lat="40.143344873522445" lon="19.86882829089181"><ele>590.0</ele><time>2026-04-27T15:22:45.999Z</time></trkpt><trkpt lat="40.143272576541406" lon="19.868829545349637"><ele>590.0000000000001</ele><time>2026-04-27T15:22:46.999Z</time></trkpt><trkpt lat="40.14323708440627" lon="19.86874103550203"><ele>590.0</ele><time>2026-04-27T15:22:48.999Z</time></trkpt><trkpt lat="40.14323838117264" lon="19.868627292425632"><ele>590.0</ele><time>2026-04-27T15:22:50.999Z</time></trkpt><trkpt lat="40.14320844223218" lon="19.868553222400806"><ele>590.0</ele><time>2026-04-27T15:22:52.999Z</time></trkpt><trkpt lat="40.14319275576203" lon="19.86846791840681"><ele>590.0</ele><time>2026-04-27T15:23:44.999Z</time></trkpt><trkpt lat="40.14321724416964" lon="19.868544293261028"><ele>590.0000000000001</ele><time>2026-04-27T15:24:22.999Z</time></trkpt><trkpt lat="40.143191388045615" lon="19.868440746839866"><ele>590.0</ele><time>2026-04-27T15:25:42.999Z</time></trkpt><trkpt lat="40.14317057103063" lon="19.868356199312423"><ele>585.5</ele><time>2026-04-27T15:25:44.999Z</time></trkpt><trkpt lat="40.1431032664213" lon="19.86832584360551"><ele>581.0</ele><time>2026-04-27T15:25:45.999Z</time></trkpt><trkpt lat="40.14301939952437" lon="19.86832158713802"><ele>576.5</ele><time>2026-04-27T15:25:47.999Z</time></trkpt><trkpt lat="40.142917565174564" lon="19.86832949262993"><ele>572.0</ele><time>2026-04-27T15:25:49.999Z</time></trkpt><trkpt lat="40.14285064329494" lon="19.868304873570402"><ele>567.5</ele><time>2026-04-27T15:25:50.999Z</time></trkpt><trkpt lat="40.142762733378476" lon="19.868197083679004"><ele>563.0</ele><time>2026-04-27T15:25:52.999Z</time></trkpt><trkpt lat="40.142717355391206" lon="19.868130837441345"><ele>563.0</ele><time>2026-04-27T15:25:53.999Z</time></trkpt><trkpt lat="40.14268147444598" lon="19.868045389596737"><ele>563.0</ele><time>2026-04-27T15:25:54.999Z</time></trkpt><trkpt lat="40.14263863750137" lon="19.867933096446666"><ele>563.0</ele><time>2026-04-27T15:25:56.999Z</time></trkpt><trkpt lat="40.1426376490784" lon="19.867814131165016"><ele>563.0</ele><time>2026-04-27T15:25:58.999Z</time></trkpt><trkpt lat="40.14266283081585" lon="19.867692693877903"><ele>563.0</ele><time>2026-04-27T15:26:00.999Z</time></trkpt><trkpt lat="40.14271765421927" lon="19.867610599457848"><ele>563.0</ele><time>2026-04-27T15:26:02.999Z</time></trkpt><trkpt lat="40.142756035778945" lon="19.867538544360297"><ele>563.0</ele><time>2026-04-27T15:26:04.999Z</time></trkpt><trkpt lat="40.14263395657922" lon="19.867566063733005"><ele>563.0</ele><time>2026-04-27T15:26:13.999Z</time></trkpt><trkpt lat="40.142569565836524" lon="19.867652616808193"><ele>563.0</ele><time>2026-04-27T15:26:15.999Z</time></trkpt><trkpt lat="40.142540151183155" lon="19.867737224266445"><ele>563.0</ele><time>2026-04-27T15:26:17.999Z</time></trkpt><trkpt lat="40.14251389797228" lon="19.867868545076842"><ele>563.0</ele><time>2026-04-27T15:26:19.999Z</time></trkpt><trkpt lat="40.14251324469107" lon="19.868028622166644"><ele>563.0</ele><time>2026-04-27T15:26:21.999Z</time></trkpt><trkpt lat="40.14254347765154" lon="19.868152550953784"><ele>563.0</ele><time>2026-04-27T15:26:23.999Z</time></trkpt><trkpt lat="40.14258541146138" lon="19.86824682724645"><ele>563.0</ele><time>2026-04-27T15:26:25.999Z</time></trkpt><trkpt lat="40.14265590892291" lon="19.868375806662854"><ele>563.0</ele><time>2026-04-27T15:26:27.999Z</time></trkpt><trkpt lat="40.14274797225618" lon="19.868432292973655"><ele>563.0</ele><time>2026-04-27T15:26:29.999Z</time></trkpt><trkpt lat="40.14281925909668" lon="19.86852204039851"><ele>560.8333333333333</ele><time>2026-04-27T15:26:31.999Z</time></trkpt><trkpt lat="40.142844053693096" lon="19.868627433435577"><ele>558.6666666666666</ele><time>2026-04-27T15:26:33.999Z</time></trkpt><trkpt lat="40.142832643925644" lon="19.86871126375827"><ele>556.5</ele><time>2026-04-27T15:26:34.999Z</time></trkpt><trkpt lat="40.14280369413933" lon="19.868811654729196"><ele>554.3333333333334</ele><time>2026-04-27T15:26:35.999Z</time></trkpt><trkpt lat="40.142765108204706" lon="19.8688790102953"><ele>552.1666666666667</ele><time>2026-04-27T15:26:36.999Z</time></trkpt><trkpt lat="40.14274556075826" lon="19.86900271695339"><ele>550.0</ele><time>2026-04-27T15:26:38.999Z</time></trkpt><trkpt lat="40.142748259026355" lon="19.869205675009102"><ele>549.5</ele><time>2026-04-27T15:26:41.999Z</time></trkpt><trkpt lat="40.14276980104338" lon="19.869303451802054"><ele>549.0</ele><time>2026-04-27T15:26:42.999Z</time></trkpt><trkpt lat="40.142778452534095" lon="19.86938649316225"><ele>548.5</ele><time>2026-04-27T15:26:43.999Z</time></trkpt><trkpt lat="40.142809198185745" lon="19.869519569507627"><ele>548.0</ele><time>2026-04-27T15:26:45.999Z</time></trkpt><trkpt lat="40.14284008574461" lon="19.869623468758093"><ele>547.5</ele><time>2026-04-27T15:26:47.999Z</time></trkpt><trkpt lat="40.14290132727045" lon="19.8697218694414"><ele>547.0</ele><time>2026-04-27T15:26:49.999Z</time></trkpt><trkpt lat="40.142971497741705" lon="19.869749761676687"><ele>547.0</ele><time>2026-04-27T15:26:50.999Z</time></trkpt><trkpt lat="40.14302213916984" lon="19.869803391730066"><ele>547.0</ele><time>2026-04-27T15:26:51.999Z</time></trkpt><trkpt lat="40.1430806592812" lon="19.869888827855092"><ele>547.0</ele><time>2026-04-27T15:26:53.999Z</time></trkpt><trkpt lat="40.14312724572857" lon="19.869999219608005"><ele>547.0</ele><time>2026-04-27T15:26:55.999Z</time></trkpt><trkpt lat="40.14316848396195" lon="19.870141240160617"><ele>547.0</ele><time>2026-04-27T15:26:57.999Z</time></trkpt><trkpt lat="40.1431328364115" lon="19.870293159547085"><ele>550.2</ele><time>2026-04-27T15:26:59.999Z</time></trkpt><trkpt lat="40.14314496646354" lon="19.87044019705223"><ele>553.4000000000001</ele><time>2026-04-27T15:27:01.999Z</time></trkpt><trkpt lat="40.14308070554287" lon="19.87045153914278"><ele>556.5999999999999</ele><time>2026-04-27T15:27:03.999Z</time></trkpt><trkpt lat="40.143104298608" lon="19.870364298421496"><ele>559.8</ele><time>2026-04-27T15:27:05.999Z</time></trkpt><trkpt lat="40.14302422047139" lon="19.870315276904176"><ele>563.0</ele><time>2026-04-27T15:27:07.999Z</time></trkpt><trkpt lat="40.1428988288798" lon="19.87028551347808"><ele>563.0</ele><time>2026-04-27T15:27:09.999Z</time></trkpt><trkpt lat="40.14280451063015" lon="19.870365764275082"><ele>563.0</ele><time>2026-04-27T15:27:10.999Z</time></trkpt><trkpt lat="40.14274308522518" lon="19.870419884432664"><ele>563.0</ele><time>2026-04-27T15:27:11.999Z</time></trkpt><trkpt lat="40.14266856515354" lon="19.87043340778514"><ele>563.0</ele><time>2026-04-27T15:27:12.999Z</time></trkpt><trkpt lat="40.14259812620443" lon="19.87046079226483"><ele>563.0</ele><time>2026-04-27T15:27:13.999Z</time></trkpt><trkpt lat="40.14248487329526" lon="19.87048835023395"><ele>563.0</ele><time>2026-04-27T15:27:15.999Z</time></trkpt><trkpt lat="40.14241943828453" lon="19.870499360625555"><ele>563.0</ele><time>2026-04-27T15:27:16.999Z</time></trkpt><trkpt lat="40.14230472390791" lon="19.87052537730797"><ele>563.0</ele><time>2026-04-27T15:27:18.999Z</time></trkpt><trkpt lat="40.14219754298234" lon="19.870538050766253"><ele>563.0</ele><time>2026-04-27T15:27:20.999Z</time></trkpt><trkpt lat="40.14209542388617" lon="19.870570555396785"><ele>563.0</ele><time>2026-04-27T15:27:22.999Z</time></trkpt><trkpt lat="40.141991446702946" lon="19.870638702474498"><ele>559.6666666666666</ele><time>2026-04-27T15:27:24.999Z</time></trkpt><trkpt lat="40.141910605722366" lon="19.870749081147565"><ele>556.3333333333333</ele><time>2026-04-27T15:27:26.999Z</time></trkpt><trkpt lat="40.14186805959785" lon="19.87081501262069"><ele>553.0</ele><time>2026-04-27T15:27:27.999Z</time></trkpt><trkpt lat="40.14182271757134" lon="19.870880811182378"><ele>549.6666666666666</ele><time>2026-04-27T15:27:28.999Z</time></trkpt><trkpt lat="40.141781329899274" lon="19.87095243973308"><ele>546.3333333333334</ele><time>2026-04-27T15:27:29.999Z</time></trkpt><trkpt lat="40.141735176571736" lon="19.87101354309624"><ele>543.0</ele><time>2026-04-27T15:27:30.999Z</time></trkpt><trkpt lat="40.14168084700122" lon="19.87113342666672"><ele>543.0</ele><time>2026-04-27T15:27:32.999Z</time></trkpt><trkpt lat="40.1416737561149" lon="19.871276058415944"><ele>543.0</ele><time>2026-04-27T15:27:34.999Z</time></trkpt><trkpt lat="40.14169459108852" lon="19.871435379168787"><ele>543.0</ele><time>2026-04-27T15:27:36.999Z</time></trkpt><trkpt lat="40.14169722574418" lon="19.8715718313124"><ele>543.0</ele><time>2026-04-27T15:27:38.999Z</time></trkpt><trkpt lat="40.14167628875592" lon="19.87170713709461"><ele>543.0</ele><time>2026-04-27T15:27:40.999Z</time></trkpt><trkpt lat="40.14159901685403" lon="19.871816233121827"><ele>540.6666666666666</ele><time>2026-04-27T15:27:42.999Z</time></trkpt><trkpt lat="40.14156158318244" lon="19.871887452281353"><ele>538.3333333333334</ele><time>2026-04-27T15:27:43.999Z</time></trkpt><trkpt lat="40.14146808546122" lon="19.871970107758074"><ele>536.0</ele><time>2026-04-27T15:27:45.999Z</time></trkpt><trkpt lat="40.141402881985" lon="19.87197568676757"><ele>533.6666666666667</ele><time>2026-04-27T15:27:46.999Z</time></trkpt><trkpt lat="40.1413211202885" lon="19.871990566931817"><ele>531.3333333333334</ele><time>2026-04-27T15:27:47.999Z</time></trkpt><trkpt lat="40.14126217588322" lon="19.872026018703956"><ele>529.0</ele><time>2026-04-27T15:27:48.999Z</time></trkpt><trkpt lat="40.141137532006276" lon="19.872054064192007"><ele>529.0</ele><time>2026-04-27T15:27:50.999Z</time></trkpt><trkpt lat="40.14104381756818" lon="19.872125554500442"><ele>529.0</ele><time>2026-04-27T15:27:52.999Z</time></trkpt><trkpt lat="40.14098692025849" lon="19.872186876698084"><ele>529.0</ele><time>2026-04-27T15:27:53.999Z</time></trkpt><trkpt lat="40.14092666873955" lon="19.872251543056674"><ele>529.0</ele><time>2026-04-27T15:27:54.999Z</time></trkpt><trkpt lat="40.140880453369896" lon="19.872308779531384"><ele>529.0</ele><time>2026-04-27T15:27:55.999Z</time></trkpt><trkpt lat="40.140779786210715" lon="19.872427750950468"><ele>529.0</ele><time>2026-04-27T15:27:57.999Z</time></trkpt><trkpt lat="40.14073276367667" lon="19.87249812979845"><ele>529.0</ele><time>2026-04-27T15:27:58.999Z</time></trkpt><trkpt lat="40.140697965996566" lon="19.87256714915342"><ele>529.0</ele><time>2026-04-27T15:27:59.999Z</time></trkpt><trkpt lat="40.14063205334301" lon="19.872686490002778"><ele>529.0</ele><time>2026-04-27T15:28:01.999Z</time></trkpt><trkpt lat="40.14053759147792" lon="19.87279132262992"><ele>529.0</ele><time>2026-04-27T15:28:03.999Z</time></trkpt><trkpt lat="40.14047705787252" lon="19.87284842571693"><ele>529.0</ele><time>2026-04-27T15:28:04.999Z</time></trkpt><trkpt lat="40.140417013517734" lon="19.872897066174005"><ele>525.6</ele><time>2026-04-27T15:28:05.999Z</time></trkpt><trkpt lat="40.14036226778657" lon="19.87295524387612"><ele>522.2</ele><time>2026-04-27T15:28:06.999Z</time></trkpt><trkpt lat="40.14027926501822" lon="19.87306388912277"><ele>518.8000000000001</ele><time>2026-04-27T15:28:08.999Z</time></trkpt><trkpt lat="40.14022336115945" lon="19.8731667506492"><ele>515.4</ele><time>2026-04-27T15:28:10.999Z</time></trkpt><trkpt lat="40.14019050344523" lon="19.873240289517067"><ele>512.0</ele><time>2026-04-27T15:28:11.999Z</time></trkpt><trkpt lat="40.1401578595859" lon="19.873385682464104"><ele>512.3333333333333</ele><time>2026-04-27T15:28:13.999Z</time></trkpt><trkpt lat="40.14014023175203" lon="19.873467640649636"><ele>512.6666666666666</ele><time>2026-04-27T15:28:14.999Z</time></trkpt><trkpt lat="40.140076087228536" lon="19.873592863021646"><ele>513.0</ele><time>2026-04-27T15:28:16.999Z</time></trkpt><trkpt lat="40.140002483864066" lon="19.873631157492234"><ele>513.3333333333334</ele><time>2026-04-27T15:28:18.999Z</time></trkpt><trkpt lat="40.13993090591294" lon="19.873674280467977"><ele>513.6666666666667</ele><time>2026-04-27T15:28:20.999Z</time></trkpt><trkpt lat="40.139850130686" lon="19.87372243043009"><ele>514.0</ele><time>2026-04-27T15:28:22.999Z</time></trkpt><trkpt lat="40.13978949950724" lon="19.87375088918963"><ele>514.0</ele><time>2026-04-27T15:28:23.999Z</time></trkpt><trkpt lat="40.139681558413486" lon="19.873799134930543"><ele>514.0</ele><time>2026-04-27T15:28:25.999Z</time></trkpt><trkpt lat="40.13958245617239" lon="19.873827693493478"><ele>514.0</ele><time>2026-04-27T15:28:27.999Z</time></trkpt><trkpt lat="40.139515842330034" lon="19.873844839535696"><ele>514.0</ele><time>2026-04-27T15:28:28.999Z</time></trkpt><trkpt lat="40.13944398324638" lon="19.873859087241975"><ele>514.0</ele><time>2026-04-27T15:28:29.999Z</time></trkpt><trkpt lat="40.13937752248054" lon="19.873872153560313"><ele>514.0</ele><time>2026-04-27T15:28:30.999Z</time></trkpt><trkpt lat="40.13930914261447" lon="19.873885571183365"><ele>514.0</ele><time>2026-04-27T15:28:31.999Z</time></trkpt><trkpt lat="40.139219731696144" lon="19.87390387695759"><ele>514.0</ele><time>2026-04-27T15:28:32.999Z</time></trkpt><trkpt lat="40.139132844747564" lon="19.873942394210378"><ele>514.0</ele><time>2026-04-27T15:28:33.999Z</time></trkpt><trkpt lat="40.13905487444786" lon="19.873971438699208"><ele>514.0</ele><time>2026-04-27T15:28:34.999Z</time></trkpt><trkpt lat="40.138985699617216" lon="19.87397016479909"><ele>514.0</ele><time>2026-04-27T15:28:35.999Z</time></trkpt><trkpt lat="40.13891121841069" lon="19.87399614330089"><ele>514.0</ele><time>2026-04-27T15:28:36.999Z</time></trkpt><trkpt lat="40.138839241308006" lon="19.87402124843624"><ele>514.6</ele><time>2026-04-27T15:28:37.999Z</time></trkpt><trkpt lat="40.138773505112965" lon="19.874044177034524"><ele>515.2</ele><time>2026-04-27T15:28:38.999Z</time></trkpt><trkpt lat="40.13866081451279" lon="19.874075456431815"><ele>515.8000000000001</ele><time>2026-04-27T15:28:40.999Z</time></trkpt><trkpt lat="40.13860980877081" lon="19.87400603424102"><ele>516.4</ele><time>2026-04-27T15:28:42.999Z</time></trkpt><trkpt lat="40.13853122755752" lon="19.873877254490683"><ele>517.0</ele><time>2026-04-27T15:28:44.999Z</time></trkpt><trkpt lat="40.13844371514419" lon="19.87374784390623"><ele>517.0</ele><time>2026-04-27T15:28:46.999Z</time></trkpt><trkpt lat="40.138355584911196" lon="19.87363000551491"><ele>517.0</ele><time>2026-04-27T15:28:48.999Z</time></trkpt><trkpt lat="40.13828743604698" lon="19.873597730382865"><ele>517.0</ele><time>2026-04-27T15:28:49.999Z</time></trkpt><trkpt lat="40.138224933588695" lon="19.873548154209374"><ele>517.0</ele><time>2026-04-27T15:28:50.999Z</time></trkpt><trkpt lat="40.13814749239164" lon="19.873480163778257"><ele>517.0</ele><time>2026-04-27T15:28:52Z</time></trkpt><trkpt lat="40.13808518773577" lon="19.873427141651753"><ele>517.0</ele><time>2026-04-27T15:28:53Z</time></trkpt><trkpt lat="40.138025577663996" lon="19.87336858591133"><ele>512.5</ele><time>2026-04-27T15:28:54Z</time></trkpt><trkpt lat="40.137926313997" lon="19.87329313871332"><ele>508.0</ele><time>2026-04-27T15:28:56Z</time></trkpt><trkpt lat="40.137855995907636" lon="19.87326935037111"><ele>503.5</ele><time>2026-04-27T15:28:57Z</time></trkpt><trkpt lat="40.13777824572028" lon="19.873240368887178"><ele>499.0</ele><time>2026-04-27T15:28:58Z</time></trkpt><trkpt lat="40.13769382045643" lon="19.873217906386575"><ele>494.50000000000006</ele><time>2026-04-27T15:28:59Z</time></trkpt><trkpt lat="40.13762753591836" lon="19.873219169423642"><ele>490.0</ele><time>2026-04-27T15:29:00Z</time></trkpt><trkpt lat="40.13752375198903" lon="19.873214687894052"><ele>490.0</ele><time>2026-04-27T15:29:02Z</time></trkpt><trkpt lat="40.13741724634781" lon="19.873241341620588"><ele>490.0</ele><time>2026-04-27T15:29:04Z</time></trkpt><trkpt lat="40.13735935054531" lon="19.87327898563263"><ele>490.0</ele><time>2026-04-27T15:29:05Z</time></trkpt><trkpt lat="40.1372888629079" lon="19.87338469697787"><ele>490.0</ele><time>2026-04-27T15:29:07Z</time></trkpt><trkpt lat="40.13724250390812" lon="19.87352580588605"><ele>490.0</ele><time>2026-04-27T15:29:09Z</time></trkpt><trkpt lat="40.13723388206215" lon="19.87361939816952"><ele>488.33333333333337</ele><time>2026-04-27T15:29:10Z</time></trkpt><trkpt lat="40.1372344171118" lon="19.873728240169648"><ele>486.6666666666667</ele><time>2026-04-27T15:29:11Z</time></trkpt><trkpt lat="40.13723815448178" lon="19.873847488374853"><ele>485.0</ele><time>2026-04-27T15:29:12Z</time></trkpt><trkpt lat="40.137259111345664" lon="19.873958043752076"><ele>483.33333333333337</ele><time>2026-04-27T15:29:13Z</time></trkpt><trkpt lat="40.13724953543582" lon="19.874051745721978"><ele>481.6666666666667</ele><time>2026-04-27T15:29:14Z</time></trkpt><trkpt lat="40.13724827649406" lon="19.874145907858953"><ele>480.0</ele><time>2026-04-27T15:29:15Z</time></trkpt><trkpt lat="40.137250005503255" lon="19.874245578734847"><ele>482.0</ele><time>2026-04-27T15:29:16Z</time></trkpt><trkpt lat="40.1372191287705" lon="19.87434740809041"><ele>484.0</ele><time>2026-04-27T15:29:17Z</time></trkpt><trkpt lat="40.137152805899944" lon="19.874428301410603"><ele>486.0</ele><time>2026-04-27T15:29:18Z</time></trkpt><trkpt lat="40.1370926053937" lon="19.874530125332157"><ele>488.0</ele><time>2026-04-27T15:29:19Z</time></trkpt><trkpt lat="40.13704715074824" lon="19.874656440437676"><ele>490.0</ele><time>2026-04-27T15:29:20Z</time></trkpt><trkpt lat="40.13699199162552" lon="19.8747882865356"><ele>490.0</ele><time>2026-04-27T15:29:21Z</time></trkpt><trkpt lat="40.13695665922136" lon="19.874929145271146"><ele>490.0</ele><time>2026-04-27T15:29:22Z</time></trkpt><trkpt lat="40.136924446469" lon="19.875050414733494"><ele>490.0</ele><time>2026-04-27T15:29:23Z</time></trkpt><trkpt lat="40.13688111759897" lon="19.87516852022251"><ele>490.0</ele><time>2026-04-27T15:29:24Z</time></trkpt><trkpt lat="40.1368393567284" lon="19.87526961463818"><ele>490.0</ele><time>2026-04-27T15:29:25Z</time></trkpt><trkpt lat="40.13680551276174" lon="19.875348919790323"><ele>491.2</ele><time>2026-04-27T15:29:26Z</time></trkpt><trkpt lat="40.136705105888865" lon="19.875393494163898"><ele>492.4</ele><time>2026-04-27T15:29:28Z</time></trkpt><trkpt lat="40.13663881354046" lon="19.87543439728614"><ele>493.6</ele><time>2026-04-27T15:29:29Z</time></trkpt><trkpt lat="40.136522132931546" lon="19.87542802463114"><ele>494.8</ele><time>2026-04-27T15:29:31Z</time></trkpt><trkpt lat="40.13639306854716" lon="19.875462230885464"><ele>496.0</ele><time>2026-04-27T15:29:33Z</time></trkpt><trkpt lat="40.13629209741126" lon="19.8755204555806"><ele>496.00000000000006</ele><time>2026-04-27T15:29:35Z</time></trkpt><trkpt lat="40.13620139190859" lon="19.875583027256514"><ele>496.0</ele><time>2026-04-27T15:29:37Z</time></trkpt><trkpt lat="40.13614062362375" lon="19.875631677196772"><ele>496.0</ele><time>2026-04-27T15:29:39Z</time></trkpt><trkpt lat="40.13607664532975" lon="19.87568450767184"><ele>496.0</ele><time>2026-04-27T15:29:42Z</time></trkpt><trkpt lat="40.136021128199786" lon="19.87573844026248"><ele>496.00000000000006</ele><time>2026-04-27T15:29:59Z</time></trkpt><trkpt lat="40.1359301204322" lon="19.87582277406589"><ele>496.0</ele><time>2026-04-27T15:30:01Z</time></trkpt><trkpt lat="40.135852013880736" lon="19.875891550675362"><ele>494.83333333333337</ele><time>2026-04-27T15:30:03Z</time></trkpt><trkpt lat="40.13574664306976" lon="19.875971905405724"><ele>493.6666666666667</ele><time>2026-04-27T15:30:05Z</time></trkpt><trkpt lat="40.13568167647911" lon="19.875997230317704"><ele>492.5</ele><time>2026-04-27T15:30:06Z</time></trkpt><trkpt lat="40.13560625921952" lon="19.87597842959395"><ele>491.33333333333337</ele><time>2026-04-27T15:30:07Z</time></trkpt><trkpt lat="40.135535614587795" lon="19.87599509360101"><ele>490.1666666666667</ele><time>2026-04-27T15:30:08Z</time></trkpt><trkpt lat="40.13547947840609" lon="19.875951427240203"><ele>489.0</ele><time>2026-04-27T15:30:09Z</time></trkpt><trkpt lat="40.135399670291065" lon="19.87594036476771"><ele>489.0</ele><time>2026-04-27T15:30:11Z</time></trkpt><trkpt lat="40.135304226992986" lon="19.87595777985459"><ele>489.0</ele><time>2026-04-27T15:30:13Z</time></trkpt><trkpt lat="40.13519223136812" lon="19.876038310575115"><ele>489.0</ele><time>2026-04-27T15:30:15Z</time></trkpt><trkpt lat="40.13513876084208" lon="19.87608763705971"><ele>489.0</ele><time>2026-04-27T15:30:16Z</time></trkpt><trkpt lat="40.135043385810555" lon="19.87615757518944"><ele>489.0</ele><time>2026-04-27T15:30:18Z</time></trkpt><trkpt lat="40.134970355410694" lon="19.876247328869294"><ele>489.0</ele><time>2026-04-27T15:30:20Z</time></trkpt><trkpt lat="40.134928844749965" lon="19.87638047477583"><ele>489.0</ele><time>2026-04-27T15:30:22Z</time></trkpt><trkpt lat="40.13488538877054" lon="19.876502160062905"><ele>489.0</ele><time>2026-04-27T15:30:24Z</time></trkpt><trkpt lat="40.134846667785865" lon="19.876643998879814"><ele>489.0</ele><time>2026-04-27T15:30:26Z</time></trkpt><trkpt lat="40.13477596259874" lon="19.876739761478742"><ele>489.0</ele><time>2026-04-27T15:30:27.999Z</time></trkpt><trkpt lat="40.134700194224045" lon="19.876813373823772"><ele>487.2</ele><time>2026-04-27T15:30:29.999Z</time></trkpt><trkpt lat="40.13459731864536" lon="19.876873638838855"><ele>485.4</ele><time>2026-04-27T15:30:31.999Z</time></trkpt><trkpt lat="40.13453746144353" lon="19.87690542083433"><ele>483.6</ele><time>2026-04-27T15:30:32.999Z</time></trkpt><trkpt lat="40.13442371720351" lon="19.87695318673514"><ele>481.8</ele><time>2026-04-27T15:30:34.999Z</time></trkpt><trkpt lat="40.13433638562438" lon="19.87697800510819"><ele>480.0</ele><time>2026-04-27T15:30:35.999Z</time></trkpt><trkpt lat="40.134242610122406" lon="19.87700183013768"><ele>480.0</ele><time>2026-04-27T15:30:36.999Z</time></trkpt><trkpt lat="40.13416341482734" lon="19.877048867565126"><ele>480.0</ele><time>2026-04-27T15:30:37.999Z</time></trkpt><trkpt lat="40.13408822801048" lon="19.877070300179994"><ele>480.0</ele><time>2026-04-27T15:30:39Z</time></trkpt><trkpt lat="40.13400834753784" lon="19.877098023674208"><ele>480.0</ele><time>2026-04-27T15:30:40Z</time></trkpt><trkpt lat="40.13392860329511" lon="19.877135801987304"><ele>480.0</ele><time>2026-04-27T15:30:41Z</time></trkpt><trkpt lat="40.133839923962135" lon="19.877166172291886"><ele>480.0</ele><time>2026-04-27T15:30:42Z</time></trkpt><trkpt lat="40.13374447736342" lon="19.877142993809446"><ele>477.1666666666667</ele><time>2026-04-27T15:30:43Z</time></trkpt><trkpt lat="40.1336632041192" lon="19.877142993809297"><ele>474.33333333333337</ele><time>2026-04-27T15:30:44Z</time></trkpt><trkpt lat="40.13357856371452" lon="19.87715299909801"><ele>471.5</ele><time>2026-04-27T15:30:45Z</time></trkpt><trkpt lat="40.13350073723642" lon="19.877131480531663"><ele>468.6666666666667</ele><time>2026-04-27T15:30:46Z</time></trkpt><trkpt lat="40.13342180630527" lon="19.87711978852853"><ele>465.83333333333337</ele><time>2026-04-27T15:30:47Z</time></trkpt><trkpt lat="40.13333847213094" lon="19.877127934546902"><ele>463.0</ele><time>2026-04-27T15:30:48Z</time></trkpt><trkpt lat="40.13326821785914" lon="19.877133065828534"><ele>463.0</ele><time>2026-04-27T15:30:49Z</time></trkpt><trkpt lat="40.13318021516034" lon="19.877193726916765"><ele>462.99999999999994</ele><time>2026-04-27T15:30:51Z</time></trkpt><trkpt lat="40.133157710838745" lon="19.877304769299375"><ele>462.99999999999994</ele><time>2026-04-27T15:30:53Z</time></trkpt><trkpt lat="40.1331762865545" lon="19.8774310690399"><ele>463.0</ele><time>2026-04-27T15:30:55Z</time></trkpt><trkpt lat="40.13325254032213" lon="19.877492278495627"><ele>463.0</ele><time>2026-04-27T15:30:56Z</time></trkpt><trkpt lat="40.133310889943445" lon="19.877566594496344"><ele>461.00000000000006</ele><time>2026-04-27T15:30:57Z</time></trkpt><trkpt lat="40.13334558171376" lon="19.87764426436849"><ele>459.0</ele><time>2026-04-27T15:30:58Z</time></trkpt><trkpt lat="40.13343426395114" lon="19.87774177835741"><ele>457.0</ele><time>2026-04-27T15:31:00Z</time></trkpt><trkpt lat="40.133489388507535" lon="19.877807870363466"><ele>455.0</ele><time>2026-04-27T15:31:01Z</time></trkpt><trkpt lat="40.133543933788395" lon="19.87786831158767"><ele>453.00000000000006</ele><time>2026-04-27T15:31:02Z</time></trkpt><trkpt lat="40.133585817710234" lon="19.877948452629923"><ele>451.0</ele><time>2026-04-27T15:31:03Z</time></trkpt><trkpt lat="40.13362361925334" lon="19.87803124257128"><ele>451.0</ele><time>2026-04-27T15:31:04Z</time></trkpt><trkpt lat="40.133658487164624" lon="19.878110649863967"><ele>451.0</ele><time>2026-04-27T15:31:05Z</time></trkpt><trkpt lat="40.13369661088795" lon="19.87818110100381"><ele>451.0</ele><time>2026-04-27T15:31:06Z</time></trkpt><trkpt lat="40.133754857441296" lon="19.878304307193158"><ele>451.0</ele><time>2026-04-27T15:31:08Z</time></trkpt><trkpt lat="40.133762567439675" lon="19.878452699310255"><ele>451.0</ele><time>2026-04-27T15:31:10Z</time></trkpt><trkpt lat="40.13372892675985" lon="19.878586131309167"><ele>452.0</ele><time>2026-04-27T15:31:12Z</time></trkpt><trkpt lat="40.13365542089571" lon="19.878715405198257"><ele>453.0</ele><time>2026-04-27T15:31:14Z</time></trkpt><trkpt lat="40.13357917684328" lon="19.878759044098295"><ele>454.0</ele><time>2026-04-27T15:31:15Z</time></trkpt><trkpt lat="40.133517467116185" lon="19.878820108969784"><ele>455.0</ele><time>2026-04-27T15:31:16Z</time></trkpt><trkpt lat="40.133444743292735" lon="19.878867103808755"><ele>456.0</ele><time>2026-04-27T15:31:17Z</time></trkpt><trkpt lat="40.13335561558639" lon="19.878929578451054"><ele>456.0</ele><time>2026-04-27T15:31:18Z</time></trkpt><trkpt lat="40.13327390160862" lon="19.878989467290534"><ele>456.0</ele><time>2026-04-27T15:31:19Z</time></trkpt><trkpt lat="40.13320902428096" lon="19.87906049522232"><ele>456.0</ele><time>2026-04-27T15:31:20Z</time></trkpt><trkpt lat="40.13314609751579" lon="19.879120504189018"><ele>456.0</ele><time>2026-04-27T15:31:21Z</time></trkpt><trkpt lat="40.13309356760038" lon="19.879184723360687"><ele>456.0</ele><time>2026-04-27T15:31:22Z</time></trkpt><trkpt lat="40.13301750856593" lon="19.879196706157803"><ele>456.0</ele><time>2026-04-27T15:31:23Z</time></trkpt><trkpt lat="40.13293998861952" lon="19.87922159013455"><ele>456.6666666666667</ele><time>2026-04-27T15:31:24Z</time></trkpt><trkpt lat="40.13286322941264" lon="19.879223224416915"><ele>457.33333333333337</ele><time>2026-04-27T15:31:25Z</time></trkpt><trkpt lat="40.13276211789833" lon="19.879234089479795"><ele>458.0</ele><time>2026-04-27T15:31:26Z</time></trkpt><trkpt lat="40.132673571285586" lon="19.879235393728887"><ele>458.6666666666667</ele><time>2026-04-27T15:31:27Z</time></trkpt><trkpt lat="40.13259006508146" lon="19.879248594930505"><ele>459.33333333333337</ele><time>2026-04-27T15:31:28Z</time></trkpt><trkpt lat="40.13250764075433" lon="19.879272426529297"><ele>460.0</ele><time>2026-04-27T15:31:29Z</time></trkpt><trkpt lat="40.132414051841984" lon="19.879340133075186"><ele>456.8</ele><time>2026-04-27T15:31:30Z</time></trkpt><trkpt lat="40.13230495936442" lon="19.879367034351315"><ele>453.6</ele><time>2026-04-27T15:31:31Z</time></trkpt><trkpt lat="40.13220982388263" lon="19.87943155807378"><ele>450.4</ele><time>2026-04-27T15:31:32Z</time></trkpt><trkpt lat="40.132129052119595" lon="19.879473811863335"><ele>447.2</ele><time>2026-04-27T15:31:33Z</time></trkpt><trkpt lat="40.13206180184986" lon="19.8794929410072"><ele>444.0</ele><time>2026-04-27T15:31:34Z</time></trkpt><trkpt lat="40.13202213928445" lon="19.87957914050122"><ele>444.0</ele><time>2026-04-27T15:31:35Z</time></trkpt><trkpt lat="40.13197120263369" lon="19.879662810032613"><ele>444.0</ele><time>2026-04-27T15:31:36Z</time></trkpt><trkpt lat="40.13190426948486" lon="19.879773712049086"><ele>444.0</ele><time>2026-04-27T15:31:37Z</time></trkpt><trkpt lat="40.13182345930052" lon="19.879883706677177"><ele>444.0</ele><time>2026-04-27T15:31:38Z</time></trkpt><trkpt lat="40.131732278757326" lon="19.879998791493392"><ele>444.0</ele><time>2026-04-27T15:31:39Z</time></trkpt><trkpt lat="40.13163170496379" lon="19.88011155291379"><ele>445.0</ele><time>2026-04-27T15:31:40Z</time></trkpt><trkpt lat="40.131527812622515" lon="19.88021730111891"><ele>446.0</ele><time>2026-04-27T15:31:41Z</time></trkpt><trkpt lat="40.131432860680576" lon="19.880302095197234"><ele>447.0</ele><time>2026-04-27T15:31:42Z</time></trkpt><trkpt lat="40.1313429369286" lon="19.880393273937408"><ele>448.0</ele><time>2026-04-27T15:31:43Z</time></trkpt><trkpt lat="40.131254643710754" lon="19.88049648822823"><ele>448.0</ele><time>2026-04-27T15:31:44Z</time></trkpt><trkpt lat="40.13115053596415" lon="19.880585014966005"><ele>448.0</ele><time>2026-04-27T15:31:45Z</time></trkpt><trkpt lat="40.131061296591014" lon="19.88068017713432"><ele>448.0</ele><time>2026-04-27T15:31:46Z</time></trkpt><trkpt lat="40.130987350452294" lon="19.880783469295135"><ele>448.0</ele><time>2026-04-27T15:31:47Z</time></trkpt><trkpt lat="40.13090147549652" lon="19.880867793699665"><ele>448.0</ele><time>2026-04-27T15:31:48Z</time></trkpt><trkpt lat="40.1308042968113" lon="19.880924203924035"><ele>447.99999999999994</ele><time>2026-04-27T15:31:49Z</time></trkpt><trkpt lat="40.13070962462168" lon="19.88096192756083"><ele>447.99999999999994</ele><time>2026-04-27T15:31:50Z</time></trkpt><trkpt lat="40.13060424643581" lon="19.881000218719915"><ele>448.0</ele><time>2026-04-27T15:31:51Z</time></trkpt><trkpt lat="40.130505328220416" lon="19.881035909107545"><ele>448.0</ele><time>2026-04-27T15:31:52Z</time></trkpt><trkpt lat="40.130411894134724" lon="19.88105041877237"><ele>448.50000000000006</ele><time>2026-04-27T15:31:53Z</time></trkpt><trkpt lat="40.130327223531815" lon="19.88106271108905"><ele>449.0</ele><time>2026-04-27T15:31:54Z</time></trkpt><trkpt lat="40.1302509940183" lon="19.881043045211886"><ele>449.5</ele><time>2026-04-27T15:31:55Z</time></trkpt><trkpt lat="40.13017978281183" lon="19.881013866905473"><ele>450.0</ele><time>2026-04-27T15:31:56Z</time></trkpt><trkpt lat="40.13011743287539" lon="19.880967385701833"><ele>450.50000000000006</ele><time>2026-04-27T15:31:57Z</time></trkpt><trkpt lat="40.130039294736804" lon="19.880910753358567"><ele>451.0</ele><time>2026-04-27T15:31:58Z</time></trkpt><trkpt lat="40.129960278254345" lon="19.880849481256327"><ele>451.00000000000006</ele><time>2026-04-27T15:31:59Z</time></trkpt><trkpt lat="40.129901761907476" lon="19.880803776901196"><ele>451.0</ele><time>2026-04-27T15:32:00Z</time></trkpt><trkpt lat="40.129840418569685" lon="19.88074922839673"><ele>451.0</ele><time>2026-04-27T15:32:01Z</time></trkpt><trkpt lat="40.12977312040687" lon="19.880699726727226"><ele>451.0</ele><time>2026-04-27T15:32:02Z</time></trkpt><trkpt lat="40.129682987786" lon="19.880633068233767"><ele>451.00000000000006</ele><time>2026-04-27T15:32:04Z</time></trkpt><trkpt lat="40.129614588972295" lon="19.88066781550144"><ele>451.0</ele><time>2026-04-27T15:32:05Z</time></trkpt><trkpt lat="40.12954875494689" lon="19.88070541776165"><ele>449.6</ele><time>2026-04-27T15:32:06Z</time></trkpt><trkpt lat="40.12946545736643" lon="19.880761327899585"><ele>448.20000000000005</ele><time>2026-04-27T15:32:07Z</time></trkpt><trkpt lat="40.12937761604295" lon="19.88082992996342"><ele>446.79999999999995</ele><time>2026-04-27T15:32:08Z</time></trkpt><trkpt lat="40.129277599164396" lon="19.880889185998278"><ele>445.4</ele><time>2026-04-27T15:32:09Z</time></trkpt><trkpt lat="40.12919610467478" lon="19.88093388771872"><ele>444.0</ele><time>2026-04-27T15:32:10Z</time></trkpt><trkpt lat="40.129127393338166" lon="19.88096805926803"><ele>441.8333333333333</ele><time>2026-04-27T15:32:11Z</time></trkpt><trkpt lat="40.12904039481362" lon="19.88099721072363"><ele>439.66666666666663</ele><time>2026-04-27T15:32:12Z</time></trkpt><trkpt lat="40.128942415228565" lon="19.881008047291704"><ele>437.5</ele><time>2026-04-27T15:32:13Z</time></trkpt><trkpt lat="40.12884829849054" lon="19.881020603864528"><ele>435.3333333333333</ele><time>2026-04-27T15:32:14Z</time></trkpt><trkpt lat="40.128770690631214" lon="19.881038132790994"><ele>433.16666666666663</ele><time>2026-04-27T15:32:15Z</time></trkpt><trkpt lat="40.12870718453761" lon="19.881062932691478"><ele>431.0</ele><time>2026-04-27T15:32:16Z</time></trkpt><trkpt lat="40.128617923950735" lon="19.88113519093468"><ele>431.0</ele><time>2026-04-27T15:32:18Z</time></trkpt><trkpt lat="40.12856817559934" lon="19.881281847945047"><ele>431.0</ele><time>2026-04-27T15:32:20Z</time></trkpt><trkpt lat="40.128547530940544" lon="19.88143761541802"><ele>431.0</ele><time>2026-04-27T15:32:22Z</time></trkpt><trkpt lat="40.12851957459424" lon="19.881610858527708"><ele>431.0</ele><time>2026-04-27T15:32:24Z</time></trkpt><trkpt lat="40.128494345569976" lon="19.881695025313416"><ele>431.0</ele><time>2026-04-27T15:32:25Z</time></trkpt><trkpt lat="40.12846598099625" lon="19.881781590793086"><ele>432.16666666666663</ele><time>2026-04-27T15:32:26Z</time></trkpt><trkpt lat="40.1284456357755" lon="19.881864604881223"><ele>433.3333333333333</ele><time>2026-04-27T15:32:27Z</time></trkpt><trkpt lat="40.1284260595796" lon="19.88196087937315"><ele>434.5</ele><time>2026-04-27T15:32:28Z</time></trkpt><trkpt lat="40.12841217340517" lon="19.882059797233364"><ele>435.66666666666663</ele><time>2026-04-27T15:32:29Z</time></trkpt><trkpt lat="40.1284041739093" lon="19.882147818064617"><ele>436.8333333333333</ele><time>2026-04-27T15:32:30Z</time></trkpt><trkpt lat="40.12839236562374" lon="19.88231309312003"><ele>438.0</ele><time>2026-04-27T15:32:32Z</time></trkpt><trkpt lat="40.12837630947177" lon="19.882401583937597"><ele>438.0</ele><time>2026-04-27T15:32:33Z</time></trkpt><trkpt lat="40.12834251925149" lon="19.8824944949149"><ele>438.0</ele><time>2026-04-27T15:32:34Z</time></trkpt><trkpt lat="40.12833243729153" lon="19.882600425194934"><ele>438.0</ele><time>2026-04-27T15:32:35Z</time></trkpt><trkpt lat="40.12829958654313" lon="19.88269646209077"><ele>438.0</ele><time>2026-04-27T15:32:36Z</time></trkpt><trkpt lat="40.128279463254984" lon="19.882798971315445"><ele>438.0</ele><time>2026-04-27T15:32:37Z</time></trkpt><trkpt lat="40.128256152045594" lon="19.88288277651663"><ele>438.0</ele><time>2026-04-27T15:32:38Z</time></trkpt><trkpt lat="40.12822483390132" lon="19.882968184776367"><ele>433.2</ele><time>2026-04-27T15:32:39Z</time></trkpt><trkpt lat="40.128176807570476" lon="19.883040214539953"><ele>428.4</ele><time>2026-04-27T15:32:40Z</time></trkpt><trkpt lat="40.12814027571345" lon="19.883155391419443"><ele>423.59999999999997</ele><time>2026-04-27T15:32:41Z</time></trkpt><trkpt lat="40.1280905812945" lon="19.883265613942832"><ele>418.79999999999995</ele><time>2026-04-27T15:32:42Z</time></trkpt><trkpt lat="40.12804513690721" lon="19.883398875164104"><ele>414.0</ele><time>2026-04-27T15:32:43Z</time></trkpt><trkpt lat="40.12801819469528" lon="19.88353689617174"><ele>414.0</ele><time>2026-04-27T15:32:44Z</time></trkpt><trkpt lat="40.12799213964711" lon="19.88365711142232"><ele>414.0</ele><time>2026-04-27T15:32:45Z</time></trkpt><trkpt lat="40.127958120540114" lon="19.883775999333842"><ele>414.0</ele><time>2026-04-27T15:32:46Z</time></trkpt><trkpt lat="40.12789656239148" lon="19.883844523446882"><ele>414.0</ele><time>2026-04-27T15:32:47Z</time></trkpt><trkpt lat="40.12786190771495" lon="19.883918313103436"><ele>414.0</ele><time>2026-04-27T15:32:48Z</time></trkpt><trkpt lat="40.12784117487742" lon="19.884001513720463"><ele>414.0</ele><time>2026-04-27T15:32:49Z</time></trkpt><trkpt lat="40.12781236463457" lon="19.884075603965293"><ele>414.0</ele><time>2026-04-27T15:32:50Z</time></trkpt><trkpt lat="40.12779708005964" lon="19.8841617135945"><ele>414.0</ele><time>2026-04-27T15:32:51Z</time></trkpt><trkpt lat="40.127783976213145" lon="19.884254308006025"><ele>414.0</ele><time>2026-04-27T15:32:52Z</time></trkpt><trkpt lat="40.127815271365726" lon="19.884384703995938"><ele>414.0</ele><time>2026-04-27T15:32:53Z</time></trkpt><trkpt lat="40.127817213745914" lon="19.884499600318474"><ele>414.0</ele><time>2026-04-27T15:32:54Z</time></trkpt><trkpt lat="40.12779008596764" lon="19.88459437238274"><ele>414.0</ele><time>2026-04-27T15:32:55Z</time></trkpt><trkpt lat="40.12775473373069" lon="19.88468346879443"><ele>415.1666666666667</ele><time>2026-04-27T15:32:56Z</time></trkpt><trkpt lat="40.12772531532773" lon="19.884788836295794"><ele>416.33333333333337</ele><time>2026-04-27T15:32:57Z</time></trkpt><trkpt lat="40.12766187511989" lon="19.884856627317863"><ele>417.5</ele><time>2026-04-27T15:32:58Z</time></trkpt><trkpt lat="40.127596772576666" lon="19.884924971732868"><ele>418.6666666666667</ele><time>2026-04-27T15:32:59Z</time></trkpt><trkpt lat="40.12755029434769" lon="19.88498324344401"><ele>419.83333333333337</ele><time>2026-04-27T15:33:00Z</time></trkpt><trkpt lat="40.127481852736096" lon="19.885108264965357"><ele>421.0</ele><time>2026-04-27T15:33:02Z</time></trkpt><trkpt lat="40.127456339606915" lon="19.885199620315714"><ele>421.1666666666667</ele><time>2026-04-27T15:33:03Z</time></trkpt><trkpt lat="40.12744073462927" lon="19.885301793270973"><ele>421.33333333333337</ele><time>2026-04-27T15:33:04Z</time></trkpt><trkpt lat="40.12743613200161" lon="19.885397824593724"><ele>421.5</ele><time>2026-04-27T15:33:05Z</time></trkpt><trkpt lat="40.127446012237954" lon="19.88548294437301"><ele>421.66666666666663</ele><time>2026-04-27T15:33:06Z</time></trkpt><trkpt lat="40.127428593060515" lon="19.88560424452052"><ele>421.8333333333333</ele><time>2026-04-27T15:33:08Z</time></trkpt><trkpt lat="40.12732122500831" lon="19.885603696751332"><ele>422.0</ele><time>2026-04-27T15:33:10Z</time></trkpt><trkpt lat="40.12722589055057" lon="19.885543412056496"><ele>422.0</ele><time>2026-04-27T15:33:12Z</time></trkpt><trkpt lat="40.12712784578507" lon="19.88550450693374"><ele>422.0</ele><time>2026-04-27T15:33:14Z</time></trkpt><trkpt lat="40.12701163972868" lon="19.88549185990223"><ele>422.0</ele><time>2026-04-27T15:33:16Z</time></trkpt><trkpt lat="40.126946636610256" lon="19.88551654306371"><ele>422.0</ele><time>2026-04-27T15:33:17Z</time></trkpt><trkpt lat="40.126864978537526" lon="19.88563388661027"><ele>422.0</ele><time>2026-04-27T15:33:19Z</time></trkpt><trkpt lat="40.12684644821872" lon="19.885715310775193"><ele>421.99999999999994</ele><time>2026-04-27T15:33:20Z</time></trkpt><trkpt lat="40.12683601300541" lon="19.885807822200366"><ele>422.0</ele><time>2026-04-27T15:33:21Z</time></trkpt><trkpt lat="40.12682320389305" lon="19.88589749877495"><ele>422.0</ele><time>2026-04-27T15:33:22Z</time></trkpt><trkpt lat="40.12680404512049" lon="19.886001826794043"><ele>422.0</ele><time>2026-04-27T15:33:23Z</time></trkpt><trkpt lat="40.12678338107086" lon="19.886099197617003"><ele>421.99999999999994</ele><time>2026-04-27T15:33:24Z</time></trkpt><trkpt lat="40.12675608339876" lon="19.88620206925228"><ele>422.0</ele><time>2026-04-27T15:33:25Z</time></trkpt><trkpt lat="40.126733420905985" lon="19.886287701631545"><ele>427.6</ele><time>2026-04-27T15:33:26Z</time></trkpt><trkpt lat="40.12665901227852" lon="19.88638924179009"><ele>433.20000000000005</ele><time>2026-04-27T15:33:28Z</time></trkpt><trkpt lat="40.126605949412685" lon="19.88632131100134"><ele>438.8</ele><time>2026-04-27T15:33:29Z</time></trkpt><trkpt lat="40.126520881838225" lon="19.88623016001926"><ele>444.4</ele><time>2026-04-27T15:33:31Z</time></trkpt><trkpt lat="40.12644464723709" lon="19.8861759335137"><ele>450.0</ele><time>2026-04-27T15:33:32Z</time></trkpt><trkpt lat="40.12634692433698" lon="19.886101843761484"><ele>447.8</ele><time>2026-04-27T15:33:33Z</time></trkpt><trkpt lat="40.12621827517332" lon="19.886024370335203"><ele>445.6</ele><time>2026-04-27T15:33:34Z</time></trkpt><trkpt lat="40.12611243731778" lon="19.885947779456657"><ele>443.4</ele><time>2026-04-27T15:33:35Z</time></trkpt><trkpt lat="40.126029173554" lon="19.885886633521313"><ele>441.2</ele><time>2026-04-27T15:33:36Z</time></trkpt><trkpt lat="40.125963580825896" lon="19.885837756875297"><ele>439.0</ele><time>2026-04-27T15:33:37Z</time></trkpt><trkpt lat="40.1258872181855" lon="19.885812529275388"><ele>439.0</ele><time>2026-04-27T15:33:38Z</time></trkpt><trkpt lat="40.12580534877894" lon="19.885783943669786"><ele>439.0</ele><time>2026-04-27T15:33:39Z</time></trkpt><trkpt lat="40.12571282021728" lon="19.885773312129626"><ele>439.0</ele><time>2026-04-27T15:33:40Z</time></trkpt><trkpt lat="40.12561509613524" lon="19.88577945032869"><ele>439.0</ele><time>2026-04-27T15:33:41Z</time></trkpt><trkpt lat="40.125501103390015" lon="19.88577967367516"><ele>439.0</ele><time>2026-04-27T15:33:42Z</time></trkpt><trkpt lat="40.1253834668899" lon="19.885712211392544"><ele>443.4</ele><time>2026-04-27T15:33:43Z</time></trkpt><trkpt lat="40.12527916368039" lon="19.885705627339533"><ele>447.79999999999995</ele><time>2026-04-27T15:33:44Z</time></trkpt><trkpt lat="40.125180540366195" lon="19.885697805453752"><ele>452.20000000000005</ele><time>2026-04-27T15:33:45Z</time></trkpt><trkpt lat="40.125091134464206" lon="19.885684103398432"><ele>456.6</ele><time>2026-04-27T15:33:46Z</time></trkpt><trkpt lat="40.12501665220126" lon="19.885676263266145"><ele>461.0</ele><time>2026-04-27T15:33:47Z</time></trkpt><trkpt lat="40.12492676801464" lon="19.885545077868393"><ele>461.16666666666663</ele><time>2026-04-27T15:33:49Z</time></trkpt><trkpt lat="40.12487962357479" lon="19.885456049644386"><ele>461.3333333333333</ele><time>2026-04-27T15:33:50Z</time></trkpt><trkpt lat="40.12481694161947" lon="19.88535705664249"><ele>461.5</ele><time>2026-04-27T15:33:51Z</time></trkpt><trkpt lat="40.124778779724885" lon="19.885271630017332"><ele>461.66666666666663</ele><time>2026-04-27T15:33:52Z</time></trkpt><trkpt lat="40.12471979429969" lon="19.885223675951348"><ele>461.8333333333333</ele><time>2026-04-27T15:33:53Z</time></trkpt><trkpt lat="40.12465382506165" lon="19.885208840875798"><ele>462.0</ele><time>2026-04-27T15:33:54Z</time></trkpt><trkpt lat="40.12455553557853" lon="19.88523709147494"><ele>462.0</ele><time>2026-04-27T15:33:56Z</time></trkpt><trkpt lat="40.124477349803456" lon="19.88530008568414"><ele>462.00000000000006</ele><time>2026-04-27T15:33:58Z</time></trkpt><trkpt lat="40.124375994086385" lon="19.88539604411671"><ele>462.00000000000006</ele><time>2026-04-27T15:34:00Z</time></trkpt><trkpt lat="40.12432514557498" lon="19.88544669428625"><ele>462.0</ele><time>2026-04-27T15:34:01Z</time></trkpt><trkpt lat="40.12423427515843" lon="19.885559095598953"><ele>462.0</ele><time>2026-04-27T15:34:03Z</time></trkpt><trkpt lat="40.12413604932779" lon="19.88564191571783"><ele>462.0</ele><time>2026-04-27T15:34:05Z</time></trkpt><trkpt lat="40.124068271777325" lon="19.885625428813256"><ele>462.0</ele><time>2026-04-27T15:34:06Z</time></trkpt><trkpt lat="40.12395530718115" lon="19.885619959229047"><ele>462.0</ele><time>2026-04-27T15:34:08Z</time></trkpt><trkpt lat="40.12392378969114" lon="19.88551857520891"><ele>462.0</ele><time>2026-04-27T15:34:09Z</time></trkpt><trkpt lat="40.1238685141157" lon="19.885433072930475"><ele>462.0</ele><time>2026-04-27T15:34:10Z</time></trkpt><trkpt lat="40.12383431891622" lon="19.885355472866006"><ele>462.0</ele><time>2026-04-27T15:34:11Z</time></trkpt><trkpt lat="40.12378690644288" lon="19.885301209558865"><ele>458.6</ele><time>2026-04-27T15:34:12Z</time></trkpt><trkpt lat="40.12370872289981" lon="19.885251398590682"><ele>455.20000000000005</ele><time>2026-04-27T15:34:13Z</time></trkpt><trkpt lat="40.123635837523906" lon="19.885229474958845"><ele>451.8</ele><time>2026-04-27T15:34:14Z</time></trkpt><trkpt lat="40.123521506069004" lon="19.88524284672253"><ele>448.4</ele><time>2026-04-27T15:34:16Z</time></trkpt><trkpt lat="40.123433331175335" lon="19.885343887178948"><ele>445.0</ele><time>2026-04-27T15:34:18Z</time></trkpt><trkpt lat="40.1234099248783" lon="19.885436392125932"><ele>445.00000000000006</ele><time>2026-04-27T15:34:19Z</time></trkpt><trkpt lat="40.123370231720635" lon="19.885542465975078"><ele>445.0</ele><time>2026-04-27T15:34:20Z</time></trkpt><trkpt lat="40.12333784260368" lon="19.88563256022173"><ele>445.0</ele><time>2026-04-27T15:34:21Z</time></trkpt><trkpt lat="40.123308643293385" lon="19.885732241331684"><ele>445.0</ele><time>2026-04-27T15:34:22Z</time></trkpt><trkpt lat="40.12325543282831" lon="19.885807669428416"><ele>445.00000000000006</ele><time>2026-04-27T15:34:23Z</time></trkpt><trkpt lat="40.12322408612575" lon="19.88590901722692"><ele>445.0</ele><time>2026-04-27T15:34:24Z</time></trkpt><trkpt lat="40.12321455610317" lon="19.886008471089372"><ele>444.00000000000006</ele><time>2026-04-27T15:34:25Z</time></trkpt><trkpt lat="40.12316949021756" lon="19.886083933067564"><ele>443.0</ele><time>2026-04-27T15:34:26Z</time></trkpt><trkpt lat="40.12312592291276" lon="19.88617232099569"><ele>442.0</ele><time>2026-04-27T15:34:27Z</time></trkpt><trkpt lat="40.12307113323662" lon="19.886216831566006"><ele>441.0</ele><time>2026-04-27T15:34:28Z</time></trkpt><trkpt lat="40.123008257824836" lon="19.886250356883647"><ele>440.00000000000006</ele><time>2026-04-27T15:34:29Z</time></trkpt><trkpt lat="40.12292272772492" lon="19.88629052546304"><ele>439.0</ele><time>2026-04-27T15:34:30Z</time></trkpt><trkpt lat="40.12283114222553" lon="19.886368541577276"><ele>439.00000000000006</ele><time>2026-04-27T15:34:31Z</time></trkpt><trkpt lat="40.12274628592801" lon="19.886433844129677"><ele>439.0</ele><time>2026-04-27T15:34:32Z</time></trkpt><trkpt lat="40.12266544757265" lon="19.886471347277677"><ele>439.0</ele><time>2026-04-27T15:34:33Z</time></trkpt><trkpt lat="40.12261283958633" lon="19.8865450180667"><ele>439.0</ele><time>2026-04-27T15:34:34Z</time></trkpt><trkpt lat="40.12254935771791" lon="19.886598263836003"><ele>439.00000000000006</ele><time>2026-04-27T15:34:35Z</time></trkpt><trkpt lat="40.12249389910012" lon="19.886683340318964"><ele>439.0</ele><time>2026-04-27T15:34:36Z</time></trkpt><trkpt lat="40.12244307470604" lon="19.886804580620975"><ele>442.0</ele><time>2026-04-27T15:34:37Z</time></trkpt><trkpt lat="40.12240359519475" lon="19.88692019293069"><ele>445.0</ele><time>2026-04-27T15:34:38Z</time></trkpt><trkpt lat="40.12234524992882" lon="19.88701626265068"><ele>448.0</ele><time>2026-04-27T15:34:39Z</time></trkpt><trkpt lat="40.12229974148728" lon="19.887157891441333"><ele>451.0</ele><time>2026-04-27T15:34:40Z</time></trkpt><trkpt lat="40.12225867877003" lon="19.887266724423053"><ele>454.0</ele><time>2026-04-27T15:34:41Z</time></trkpt><trkpt lat="40.12222782086675" lon="19.88737130371259"><ele>449.0</ele><time>2026-04-27T15:34:42Z</time></trkpt><trkpt lat="40.12217099158169" lon="19.887453069131258"><ele>444.0</ele><time>2026-04-27T15:34:43Z</time></trkpt><trkpt lat="40.12211352503175" lon="19.887524751107726"><ele>439.0</ele><time>2026-04-27T15:34:44Z</time></trkpt><trkpt lat="40.12203142891927" lon="19.887632935997917"><ele>434.0</ele><time>2026-04-27T15:34:45Z</time></trkpt><trkpt lat="40.12195758978561" lon="19.88774102296134"><ele>429.0</ele><time>2026-04-27T15:34:46Z</time></trkpt><trkpt lat="40.12189046989949" lon="19.8878403776304"><ele>429.0</ele><time>2026-04-27T15:34:47Z</time></trkpt><trkpt lat="40.12184149300608" lon="19.88793841943376"><ele>429.0</ele><time>2026-04-27T15:34:48Z</time></trkpt><trkpt lat="40.12176832620824" lon="19.887980997478692"><ele>429.0</ele><time>2026-04-27T15:34:49Z</time></trkpt><trkpt lat="40.121724765845336" lon="19.888077330157394"><ele>429.0</ele><time>2026-04-27T15:34:50Z</time></trkpt><trkpt lat="40.121681962098336" lon="19.888161917695328"><ele>429.0</ele><time>2026-04-27T15:34:51Z</time></trkpt><trkpt lat="40.121649059852906" lon="19.888249682809985"><ele>429.0</ele><time>2026-04-27T15:34:52Z</time></trkpt><trkpt lat="40.12163144771256" lon="19.88833180222971"><ele>429.0</ele><time>2026-04-27T15:34:53Z</time></trkpt><trkpt lat="40.12162313448477" lon="19.88841707611269"><ele>429.0</ele><time>2026-04-27T15:34:54Z</time></trkpt><trkpt lat="40.12161742619496" lon="19.88852499311324"><ele>429.0</ele><time>2026-04-27T15:34:55Z</time></trkpt><trkpt lat="40.12159920640601" lon="19.888638920256383"><ele>429.0</ele><time>2026-04-27T15:34:56Z</time></trkpt><trkpt lat="40.12157796057484" lon="19.88872608703431"><ele>429.0</ele><time>2026-04-27T15:34:57Z</time></trkpt><trkpt lat="40.121541910767355" lon="19.88882095374638"><ele>429.0</ele><time>2026-04-27T15:34:58Z</time></trkpt><trkpt lat="40.12150026337786" lon="19.88891092458662"><ele>423.2</ele><time>2026-04-27T15:34:59Z</time></trkpt><trkpt lat="40.12145151473039" lon="19.88899431627166"><ele>417.4</ele><time>2026-04-27T15:35:00Z</time></trkpt><trkpt lat="40.12140860534919" lon="19.889062459080655"><ele>411.6</ele><time>2026-04-27T15:35:01Z</time></trkpt><trkpt lat="40.12134090100921" lon="19.889185825741254"><ele>405.8</ele><time>2026-04-27T15:35:03Z</time></trkpt><trkpt lat="40.12131312962225" lon="19.889344020986186"><ele>400.0</ele><time>2026-04-27T15:35:05Z</time></trkpt><trkpt lat="40.12131184703746" lon="19.88943954539504"><ele>399.33333333333337</ele><time>2026-04-27T15:35:06Z</time></trkpt><trkpt lat="40.1213199790195" lon="19.889535227396102"><ele>398.6666666666667</ele><time>2026-04-27T15:35:07Z</time></trkpt><trkpt lat="40.121309656877465" lon="19.889646408796633"><ele>398.0</ele><time>2026-04-27T15:35:08Z</time></trkpt><trkpt lat="40.12131941249482" lon="19.889772367701006"><ele>397.33333333333337</ele><time>2026-04-27T15:35:09Z</time></trkpt><trkpt lat="40.12133002588343" lon="19.889877700705526"><ele>396.6666666666667</ele><time>2026-04-27T15:35:10Z</time></trkpt><trkpt lat="40.121357095110625" lon="19.889970260170344"><ele>396.0</ele><time>2026-04-27T15:35:11Z</time></trkpt><trkpt lat="40.12137131975713" lon="19.890081572215426"><ele>397.3333333333333</ele><time>2026-04-27T15:35:12Z</time></trkpt><trkpt lat="40.12139121149032" lon="19.8901781863087"><ele>398.66666666666663</ele><time>2026-04-27T15:35:13Z</time></trkpt><trkpt lat="40.12140222997993" lon="19.89026982665781"><ele>400.0</ele><time>2026-04-27T15:35:14Z</time></trkpt><trkpt lat="40.12136894501874" lon="19.890351922669883"><ele>401.3333333333333</ele><time>2026-04-27T15:35:15Z</time></trkpt><trkpt lat="40.12134571283613" lon="19.89045983739082"><ele>402.66666666666663</ele><time>2026-04-27T15:35:16Z</time></trkpt><trkpt lat="40.12129353792278" lon="19.890575145804906"><ele>404.0</ele><time>2026-04-27T15:35:17Z</time></trkpt><trkpt lat="40.12128810914498" lon="19.890680751562677"><ele>404.0</ele><time>2026-04-27T15:35:18Z</time></trkpt><trkpt lat="40.121273713567525" lon="19.89076891793324"><ele>404.0</ele><time>2026-04-27T15:35:19Z</time></trkpt><trkpt lat="40.12126027180649" lon="19.890933214110493"><ele>404.0</ele><time>2026-04-27T15:35:21Z</time></trkpt><trkpt lat="40.12124628536898" lon="19.891024687797767"><ele>404.0</ele><time>2026-04-27T15:35:22Z</time></trkpt><trkpt lat="40.121214511796836" lon="19.891130931170217"><ele>404.0</ele><time>2026-04-27T15:35:23Z</time></trkpt><trkpt lat="40.121126215424205" lon="19.89127251735769"><ele>405.4</ele><time>2026-04-27T15:35:25Z</time></trkpt><trkpt lat="40.12105246383519" lon="19.891351549185824"><ele>406.79999999999995</ele><time>2026-04-27T15:35:26Z</time></trkpt><trkpt lat="40.120965861060526" lon="19.891430938393885"><ele>408.20000000000005</ele><time>2026-04-27T15:35:27Z</time></trkpt><trkpt lat="40.120889467909016" lon="19.891492014306948"><ele>409.6</ele><time>2026-04-27T15:35:28Z</time></trkpt><trkpt lat="40.120827224107686" lon="19.89151541300511"><ele>411.0</ele><time>2026-04-27T15:35:29Z</time></trkpt><trkpt lat="40.120702900572596" lon="19.891504327090615"><ele>411.0</ele><time>2026-04-27T15:35:31Z</time></trkpt><trkpt lat="40.12062376782817" lon="19.891479677777966"><ele>411.0</ele><time>2026-04-27T15:35:32Z</time></trkpt><trkpt lat="40.120550288134396" lon="19.89145776565909"><ele>411.0</ele><time>2026-04-27T15:35:33Z</time></trkpt><trkpt lat="40.12045808105652" lon="19.8914844064304"><ele>411.0</ele><time>2026-04-27T15:35:34Z</time></trkpt><trkpt lat="40.12037734021857" lon="19.89149118884347"><ele>411.0</ele><time>2026-04-27T15:35:35Z</time></trkpt><trkpt lat="40.120288577903914" lon="19.891504462573675"><ele>411.0</ele><time>2026-04-27T15:35:36Z</time></trkpt><trkpt lat="40.12020805564634" lon="19.89151679305249"><ele>411.0</ele><time>2026-04-27T15:35:37Z</time></trkpt><trkpt lat="40.120138146622566" lon="19.891539259378472"><ele>411.0</ele><time>2026-04-27T15:35:38Z</time></trkpt><trkpt lat="40.12005963752382" lon="19.89156872282753"><ele>411.0</ele><time>2026-04-27T15:35:39Z</time></trkpt><trkpt lat="40.11998815898177" lon="19.891615155321183"><ele>411.0</ele><time>2026-04-27T15:35:40Z</time></trkpt><trkpt lat="40.119919725493084" lon="19.89167058522967"><ele>411.0</ele><time>2026-04-27T15:35:41Z</time></trkpt><trkpt lat="40.11986248960658" lon="19.891725933166708"><ele>411.0</ele><time>2026-04-27T15:35:42Z</time></trkpt><trkpt lat="40.11980419757978" lon="19.891795775773286"><ele>412.8333333333333</ele><time>2026-04-27T15:35:43Z</time></trkpt><trkpt lat="40.11976466960525" lon="19.89186819672398"><ele>414.66666666666663</ele><time>2026-04-27T15:35:44Z</time></trkpt><trkpt lat="40.119734056895325" lon="19.891943519009992"><ele>416.5</ele><time>2026-04-27T15:35:45Z</time></trkpt><trkpt lat="40.11970414744689" lon="19.89203461881035"><ele>418.3333333333333</ele><time>2026-04-27T15:35:46Z</time></trkpt><trkpt lat="40.119656691494725" lon="19.892140019501355"><ele>420.16666666666663</ele><time>2026-04-27T15:35:47Z</time></trkpt><trkpt lat="40.119581227224046" lon="19.892196433823546"><ele>422.0</ele><time>2026-04-27T15:35:48Z</time></trkpt><trkpt lat="40.11950982422267" lon="19.89224607030966"><ele>422.0</ele><time>2026-04-27T15:35:49Z</time></trkpt><trkpt lat="40.11943173149008" lon="19.892297510534156"><ele>422.0</ele><time>2026-04-27T15:35:50Z</time></trkpt><trkpt lat="40.11935259896406" lon="19.892348891023854"><ele>422.0</ele><time>2026-04-27T15:35:51Z</time></trkpt><trkpt lat="40.11928737866782" lon="19.892410579530036"><ele>422.0</ele><time>2026-04-27T15:35:52Z</time></trkpt><trkpt lat="40.11918765991809" lon="19.892481806937315"><ele>422.0</ele><time>2026-04-27T15:35:54Z</time></trkpt><trkpt lat="40.119086761096376" lon="19.892526409459283"><ele>421.6</ele><time>2026-04-27T15:35:56Z</time></trkpt><trkpt lat="40.11898225066852" lon="19.892542239535885"><ele>421.20000000000005</ele><time>2026-04-27T15:35:58Z</time></trkpt><trkpt lat="40.118903594756844" lon="19.892561903446943"><ele>420.8</ele><time>2026-04-27T15:36:00Z</time></trkpt><trkpt lat="40.11879779892679" lon="19.892536713520172"><ele>420.4</ele><time>2026-04-27T15:36:02Z</time></trkpt><trkpt lat="40.11870710337783" lon="19.8925072943341"><ele>420.0</ele><time>2026-04-27T15:36:04Z</time></trkpt><trkpt lat="40.11860848721731" lon="19.892431064247265"><ele>420.0</ele><time>2026-04-27T15:36:06Z</time></trkpt><trkpt lat="40.11851064790111" lon="19.892360558876288"><ele>420.0</ele><time>2026-04-27T15:36:08Z</time></trkpt><trkpt lat="40.11845020776734" lon="19.892288093880843"><ele>420.0</ele><time>2026-04-27T15:36:10Z</time></trkpt><trkpt lat="40.11840782605777" lon="19.892222740321795"><ele>420.0</ele><time>2026-04-27T15:36:12Z</time></trkpt><trkpt lat="40.11834378562741" lon="19.892155460096312"><ele>420.0</ele><time>2026-04-27T15:36:15Z</time></trkpt><trkpt lat="40.11825886430695" lon="19.892102706750897"><ele>420.0</ele><time>2026-04-27T15:36:17Z</time></trkpt><trkpt lat="40.11817082734878" lon="19.892020377760232"><ele>423.4</ele><time>2026-04-27T15:36:19Z</time></trkpt><trkpt lat="40.11812754739363" lon="19.891933181297468"><ele>426.8</ele><time>2026-04-27T15:36:21Z</time></trkpt><trkpt lat="40.1180581052824" lon="19.891833539933423"><ele>430.20000000000005</ele><time>2026-04-27T15:36:23Z</time></trkpt><trkpt lat="40.11798780056597" lon="19.891749458698616"><ele>433.6</ele><time>2026-04-27T15:36:25Z</time></trkpt><trkpt lat="40.11788094134063" lon="19.89168368407465"><ele>437.0</ele><time>2026-04-27T15:36:27Z</time></trkpt><trkpt lat="40.11774389003152" lon="19.89169754312627"><ele>437.0</ele><time>2026-04-27T15:36:29Z</time></trkpt><trkpt lat="40.117674561900465" lon="19.891729865689932"><ele>437.00000000000006</ele><time>2026-04-27T15:36:30Z</time></trkpt><trkpt lat="40.11761134967765" lon="19.89176073044992"><ele>437.00000000000006</ele><time>2026-04-27T15:36:31Z</time></trkpt><trkpt lat="40.11748886949682" lon="19.891752746875007"><ele>437.0</ele><time>2026-04-27T15:36:33Z</time></trkpt><trkpt lat="40.11737843986447" lon="19.89165838520862"><ele>437.0</ele><time>2026-04-27T15:36:35Z</time></trkpt><trkpt lat="40.11730226361755" lon="19.891572621764933"><ele>431.3333333333333</ele><time>2026-04-27T15:36:36Z</time></trkpt><trkpt lat="40.11721962356116" lon="19.891499262501025"><ele>425.66666666666663</ele><time>2026-04-27T15:36:37Z</time></trkpt><trkpt lat="40.11716689280896" lon="19.89141580982573"><ele>420.0</ele><time>2026-04-27T15:36:38Z</time></trkpt><trkpt lat="40.11711188549796" lon="19.891344635483264"><ele>414.33333333333337</ele><time>2026-04-27T15:36:39Z</time></trkpt><trkpt lat="40.117064234209636" lon="19.891279206622933"><ele>408.6666666666667</ele><time>2026-04-27T15:36:40Z</time></trkpt><trkpt lat="40.11698934910583" lon="19.8911700433727"><ele>403.0</ele><time>2026-04-27T15:36:42Z</time></trkpt><trkpt lat="40.11691779171512" lon="19.891067300999058"><ele>403.00000000000006</ele><time>2026-04-27T15:36:44Z</time></trkpt><trkpt lat="40.116814638048886" lon="19.8910543455856"><ele>403.0</ele><time>2026-04-27T15:36:46Z</time></trkpt><trkpt lat="40.11672172533199" lon="19.891138699198954"><ele>403.0</ele><time>2026-04-27T15:36:48Z</time></trkpt><trkpt lat="40.11667861399788" lon="19.891214461595872"><ele>403.0</ele><time>2026-04-27T15:36:49Z</time></trkpt><trkpt lat="40.11663738543874" lon="19.89131057976554"><ele>403.00000000000006</ele><time>2026-04-27T15:36:50Z</time></trkpt><trkpt lat="40.116601527504926" lon="19.891398245579115"><ele>403.0</ele><time>2026-04-27T15:36:51Z</time></trkpt><trkpt lat="40.116553857985394" lon="19.89149066131882"><ele>398.50000000000006</ele><time>2026-04-27T15:36:52Z</time></trkpt><trkpt lat="40.116498446201945" lon="19.891585588766613"><ele>394.0</ele><time>2026-04-27T15:36:53Z</time></trkpt><trkpt lat="40.11644158499178" lon="19.891658048377952"><ele>389.5</ele><time>2026-04-27T15:36:54Z</time></trkpt><trkpt lat="40.116374327568195" lon="19.89171052703329"><ele>385.0</ele><time>2026-04-27T15:36:55Z</time></trkpt><trkpt lat="40.116302596704124" lon="19.891747157715066"><ele>380.5</ele><time>2026-04-27T15:36:56Z</time></trkpt><trkpt lat="40.11622703112404" lon="19.89178855563255"><ele>376.0</ele><time>2026-04-27T15:36:57Z</time></trkpt><trkpt lat="40.11616485240405" lon="19.891830446226333"><ele>376.0</ele><time>2026-04-27T15:36:58Z</time></trkpt><trkpt lat="40.11608372256163" lon="19.891957145494057"><ele>376.0</ele><time>2026-04-27T15:37:00Z</time></trkpt><trkpt lat="40.116051666720715" lon="19.892063937522835"><ele>376.0</ele><time>2026-04-27T15:37:01Z</time></trkpt><trkpt lat="40.11601474308743" lon="19.89218238236744"><ele>376.0</ele><time>2026-04-27T15:37:02Z</time></trkpt><trkpt lat="40.11596713441409" lon="19.892294638220612"><ele>376.0</ele><time>2026-04-27T15:37:03Z</time></trkpt><trkpt lat="40.1159209107355" lon="19.89237865981826"><ele>376.0</ele><time>2026-04-27T15:37:04Z</time></trkpt><trkpt lat="40.115883318912225" lon="19.892468026680497"><ele>376.0</ele><time>2026-04-27T15:37:05Z</time></trkpt><trkpt lat="40.11586340119389" lon="19.89255006931783"><ele>376.0</ele><time>2026-04-27T15:37:06Z</time></trkpt><trkpt lat="40.11585683620986" lon="19.89263611817232"><ele>376.0</ele><time>2026-04-27T15:37:07Z</time></trkpt><trkpt lat="40.1158665761058" lon="19.892806457293126"><ele>376.0</ele><time>2026-04-27T15:37:09Z</time></trkpt><trkpt lat="40.115952724110834" lon="19.89287584621562"><ele>376.0</ele><time>2026-04-27T15:37:10Z</time></trkpt><trkpt lat="40.11600608167421" lon="19.892956420118985"><ele>376.0</ele><time>2026-04-27T15:37:11Z</time></trkpt><trkpt lat="40.116039853206864" lon="19.89303579713565"><ele>376.0</ele><time>2026-04-27T15:37:12Z</time></trkpt><trkpt lat="40.116055319273435" lon="19.893115879085343"><ele>376.0</ele><time>2026-04-27T15:37:13Z</time></trkpt><trkpt lat="40.11600509326441" lon="19.893244191140422"><ele>376.0</ele><time>2026-04-27T15:37:15Z</time></trkpt><trkpt lat="40.11595521528024" lon="19.893315498112052"><ele>376.0</ele><time>2026-04-27T15:37:16Z</time></trkpt><trkpt lat="40.11590223470759" lon="19.89337823183224"><ele>376.0</ele><time>2026-04-27T15:37:17Z</time></trkpt><trkpt lat="40.11588232098249" lon="19.893463434929"><ele>377.66666666666663</ele><time>2026-04-27T15:37:18Z</time></trkpt><trkpt lat="40.11590120907105" lon="19.89356880730514"><ele>379.3333333333333</ele><time>2026-04-27T15:37:19Z</time></trkpt><trkpt lat="40.115918652488006" lon="19.89367567774365"><ele>381.0</ele><time>2026-04-27T15:37:20Z</time></trkpt><trkpt lat="40.115945909461004" lon="19.893782500402438"><ele>382.66666666666663</ele><time>2026-04-27T15:37:21Z</time></trkpt><trkpt lat="40.11596275365304" lon="19.89387590661037"><ele>384.3333333333333</ele><time>2026-04-27T15:37:22Z</time></trkpt><trkpt lat="40.115979300820406" lon="19.893972436399967"><ele>386.0</ele><time>2026-04-27T15:37:23Z</time></trkpt><trkpt lat="40.11599549788501" lon="19.894056851788193"><ele>386.0</ele><time>2026-04-27T15:37:24Z</time></trkpt><trkpt lat="40.115951230732975" lon="19.894176014844287"><ele>386.0</ele><time>2026-04-27T15:37:26Z</time></trkpt><trkpt lat="40.115827657258926" lon="19.89414288743987"><ele>386.0</ele><time>2026-04-27T15:37:28Z</time></trkpt><trkpt lat="40.115706994552276" lon="19.894083490342872"><ele>386.0</ele><time>2026-04-27T15:37:30Z</time></trkpt><trkpt lat="40.11561814951051" lon="19.89404166738103"><ele>389.8</ele><time>2026-04-27T15:37:31Z</time></trkpt><trkpt lat="40.1155400066586" lon="19.894012380527258"><ele>393.6</ele><time>2026-04-27T15:37:32Z</time></trkpt><trkpt lat="40.115427478865904" lon="19.89393259271999"><ele>397.4</ele><time>2026-04-27T15:37:34Z</time></trkpt><trkpt lat="40.11538875916105" lon="19.893851475616216"><ele>401.2</ele><time>2026-04-27T15:37:35Z</time></trkpt><trkpt lat="40.115330605776975" lon="19.89375711352696"><ele>405.0</ele><time>2026-04-27T15:37:36Z</time></trkpt><trkpt lat="40.11523883674452" lon="19.89367752755017"><ele>405.0</ele><time>2026-04-27T15:37:37Z</time></trkpt><trkpt lat="40.11515057442838" lon="19.893640838489556"><ele>405.0</ele><time>2026-04-27T15:37:38Z</time></trkpt><trkpt lat="40.11506236224944" lon="19.89360527555963"><ele>405.0</ele><time>2026-04-27T15:37:39Z</time></trkpt><trkpt lat="40.11499621667029" lon="19.893553304102415"><ele>405.0</ele><time>2026-04-27T15:37:40Z</time></trkpt><trkpt lat="40.11492939246554" lon="19.893514859533212"><ele>405.0</ele><time>2026-04-27T15:37:41Z</time></trkpt><trkpt lat="40.114861310753504" lon="19.89347742673934"><ele>405.0</ele><time>2026-04-27T15:37:42Z</time></trkpt><trkpt lat="40.11478476362834" lon="19.89345409860825"><ele>404.6</ele><time>2026-04-27T15:37:43Z</time></trkpt><trkpt lat="40.114708637530406" lon="19.893411107894174"><ele>404.2</ele><time>2026-04-27T15:37:45Z</time></trkpt><trkpt lat="40.11461182281578" lon="19.893432438368535"><ele>403.79999999999995</ele><time>2026-04-27T15:37:47Z</time></trkpt><trkpt lat="40.11449507459729" lon="19.89351295018739"><ele>403.4</ele><time>2026-04-27T15:37:49Z</time></trkpt><trkpt lat="40.11442615409927" lon="19.893567702785838"><ele>403.0</ele><time>2026-04-27T15:37:50Z</time></trkpt><trkpt lat="40.114337900051325" lon="19.89361658680683"><ele>403.00000000000006</ele><time>2026-04-27T15:37:51Z</time></trkpt><trkpt lat="40.11425784775517" lon="19.89366055811963"><ele>403.0</ele><time>2026-04-27T15:37:52Z</time></trkpt><trkpt lat="40.11416682968548" lon="19.89366589642209"><ele>403.0</ele><time>2026-04-27T15:37:53Z</time></trkpt><trkpt lat="40.11408066104373" lon="19.89368318735976"><ele>403.0</ele><time>2026-04-27T15:37:54Z</time></trkpt><trkpt lat="40.1139994405464" lon="19.89370824927464"><ele>403.00000000000006</ele><time>2026-04-27T15:37:55Z</time></trkpt><trkpt lat="40.11392076000393" lon="19.89371979722728"><ele>403.0</ele><time>2026-04-27T15:37:56Z</time></trkpt><trkpt lat="40.11384833722713" lon="19.89372506688806"><ele>396.2</ele><time>2026-04-27T15:37:57Z</time></trkpt><trkpt lat="40.11376442786373" lon="19.89375213098629"><ele>389.4</ele><time>2026-04-27T15:37:58Z</time></trkpt><trkpt lat="40.11366268233075" lon="19.893862898994396"><ele>382.59999999999997</ele><time>2026-04-27T15:38:00Z</time></trkpt><trkpt lat="40.11362050622737" lon="19.89395486782731"><ele>375.79999999999995</ele><time>2026-04-27T15:38:01Z</time></trkpt><trkpt lat="40.11357834424151" lon="19.89403961674412"><ele>369.0</ele><time>2026-04-27T15:38:02Z</time></trkpt><trkpt lat="40.113528018757506" lon="19.894118940980835"><ele>369.0</ele><time>2026-04-27T15:38:03Z</time></trkpt><trkpt lat="40.11348500506749" lon="19.89420180558923"><ele>369.0</ele><time>2026-04-27T15:38:04Z</time></trkpt><trkpt lat="40.11344894576123" lon="19.894298786254733"><ele>369.0</ele><time>2026-04-27T15:38:05Z</time></trkpt><trkpt lat="40.113434458797315" lon="19.8943965600219"><ele>369.0</ele><time>2026-04-27T15:38:06Z</time></trkpt><trkpt lat="40.11342591774263" lon="19.894510529807256"><ele>369.0</ele><time>2026-04-27T15:38:07Z</time></trkpt><trkpt lat="40.11342016926314" lon="19.894628384729284"><ele>369.0</ele><time>2026-04-27T15:38:08Z</time></trkpt><trkpt lat="40.11340896526985" lon="19.894752508797588"><ele>371.0</ele><time>2026-04-27T15:38:09Z</time></trkpt><trkpt lat="40.113389899590814" lon="19.89488462965352"><ele>373.0</ele><time>2026-04-27T15:38:10Z</time></trkpt><trkpt lat="40.11336253195266" lon="19.895020998106588"><ele>375.0</ele><time>2026-04-27T15:38:11Z</time></trkpt><trkpt lat="40.11333032264942" lon="19.89512952445477"><ele>377.0</ele><time>2026-04-27T15:38:12Z</time></trkpt><trkpt lat="40.113305475953716" lon="19.895221775791175"><ele>379.0</ele><time>2026-04-27T15:38:13Z</time></trkpt><trkpt lat="40.11329948619766" lon="19.89531946431669"><ele>381.0</ele><time>2026-04-27T15:38:14Z</time></trkpt><trkpt lat="40.11330725492099" lon="19.895433308273624"><ele>382.20000000000005</ele><time>2026-04-27T15:38:15Z</time></trkpt><trkpt lat="40.113329575591294" lon="19.89556125691298"><ele>383.40000000000003</ele><time>2026-04-27T15:38:16Z</time></trkpt><trkpt lat="40.113321439877716" lon="19.895670411929597"><ele>384.6</ele><time>2026-04-27T15:38:17Z</time></trkpt><trkpt lat="40.11333423457849" lon="19.895793119427537"><ele>385.8</ele><time>2026-04-27T15:38:18Z</time></trkpt><trkpt lat="40.1133190097594" lon="19.89590598913542"><ele>387.0</ele><time>2026-04-27T15:38:19Z</time></trkpt><trkpt lat="40.11330972882158" lon="19.896028904013658"><ele>387.6666666666667</ele><time>2026-04-27T15:38:20Z</time></trkpt><trkpt lat="40.11329482832134" lon="19.89613399605541"><ele>388.33333333333337</ele><time>2026-04-27T15:38:21Z</time></trkpt><trkpt lat="40.11326545373781" lon="19.89621443946432"><ele>389.0</ele><time>2026-04-27T15:38:22Z</time></trkpt><trkpt lat="40.11321902775951" lon="19.896286327737386"><ele>389.6666666666667</ele><time>2026-04-27T15:38:23Z</time></trkpt><trkpt lat="40.11316516478806" lon="19.89634830064355"><ele>390.33333333333337</ele><time>2026-04-27T15:38:24Z</time></trkpt><trkpt lat="40.11310485928991" lon="19.896479974759803"><ele>391.0</ele><time>2026-04-27T15:38:26Z</time></trkpt><trkpt lat="40.11308467897572" lon="19.8965695967504"><ele>391.00000000000006</ele><time>2026-04-27T15:38:27Z</time></trkpt><trkpt lat="40.11307327373804" lon="19.896661082887412"><ele>391.0</ele><time>2026-04-27T15:38:28Z</time></trkpt><trkpt lat="40.11307722915435" lon="19.896751843433996"><ele>391.0</ele><time>2026-04-27T15:38:29Z</time></trkpt><trkpt lat="40.11308271249152" lon="19.89689901363045"><ele>391.0</ele><time>2026-04-27T15:38:31Z</time></trkpt><trkpt lat="40.113000445198345" lon="19.896956114981492"><ele>391.00000000000006</ele><time>2026-04-27T15:38:33Z</time></trkpt><trkpt lat="40.112951075932834" lon="19.896893049242152"><ele>391.0</ele><time>2026-04-27T15:38:35Z</time></trkpt><trkpt lat="40.112890024114265" lon="19.896834196154426"><ele>391.00000000000006</ele><time>2026-04-27T15:38:37Z</time></trkpt><trkpt lat="40.11285260093067" lon="19.896725759712062"><ele>391.0</ele><time>2026-04-27T15:38:39Z</time></trkpt><trkpt lat="40.11281562891233" lon="19.89664545947292"><ele>391.0</ele><time>2026-04-27T15:38:40Z</time></trkpt><trkpt lat="40.1127821886162" lon="19.89657428072494"><ele>391.0</ele><time>2026-04-27T15:38:41Z</time></trkpt><trkpt lat="40.1127129391701" lon="19.896437755773725"><ele>391.00000000000006</ele><time>2026-04-27T15:38:43Z</time></trkpt><trkpt lat="40.11267208643823" lon="19.89636903725587"><ele>391.0</ele><time>2026-04-27T15:38:44Z</time></trkpt><trkpt lat="40.11262188064938" lon="19.896283024127687"><ele>391.0</ele><time>2026-04-27T15:38:45Z</time></trkpt><trkpt lat="40.11256033582652" lon="19.89619696460953"><ele>391.0</ele><time>2026-04-27T15:38:46Z</time></trkpt><trkpt lat="40.11249397415475" lon="19.896112776634894"><ele>391.0</ele><time>2026-04-27T15:38:47Z</time></trkpt><trkpt lat="40.112407393264974" lon="19.89602744510526"><ele>391.0</ele><time>2026-04-27T15:38:48Z</time></trkpt><trkpt lat="40.11230511096124" lon="19.895960579905847"><ele>391.0</ele><time>2026-04-27T15:38:49Z</time></trkpt><trkpt lat="40.11220553401787" lon="19.895875227524343"><ele>390.0</ele><time>2026-04-27T15:38:50Z</time></trkpt><trkpt lat="40.11211742067384" lon="19.895816810264336"><ele>389.0</ele><time>2026-04-27T15:38:51Z</time></trkpt><trkpt lat="40.11204210520794" lon="19.89578121671856"><ele>388.0</ele><time>2026-04-27T15:38:52Z</time></trkpt><trkpt lat="40.11195436481037" lon="19.89576887163446"><ele>387.0</ele><time>2026-04-27T15:38:53Z</time></trkpt><trkpt lat="40.11185083272749" lon="19.895768495085427"><ele>386.0</ele><time>2026-04-27T15:38:54Z</time></trkpt><trkpt lat="40.11173052447063" lon="19.895779354847114"><ele>386.0</ele><time>2026-04-27T15:38:55Z</time></trkpt><trkpt lat="40.111621714079554" lon="19.89580511058071"><ele>386.0</ele><time>2026-04-27T15:38:56Z</time></trkpt><trkpt lat="40.11153181510348" lon="19.89585023617586"><ele>386.0</ele><time>2026-04-27T15:38:57Z</time></trkpt><trkpt lat="40.111444501601106" lon="19.895902980395263"><ele>386.0</ele><time>2026-04-27T15:38:58Z</time></trkpt><trkpt lat="40.11136777748957" lon="19.895954388048928"><ele>386.0</ele><time>2026-04-27T15:38:59Z</time></trkpt><trkpt lat="40.111308631497295" lon="19.895988220182236"><ele>387.8</ele><time>2026-04-27T15:39:00Z</time></trkpt><trkpt lat="40.11119462517881" lon="19.896016840586928"><ele>389.6</ele><time>2026-04-27T15:39:02Z</time></trkpt><trkpt lat="40.11109138937079" lon="19.8959829070094"><ele>391.4</ele><time>2026-04-27T15:39:04Z</time></trkpt><trkpt lat="40.111002570617345" lon="19.895875590670617"><ele>393.2</ele><time>2026-04-27T15:39:06Z</time></trkpt><trkpt lat="40.110972370510815" lon="19.895793113013127"><ele>395.0</ele><time>2026-04-27T15:39:07Z</time></trkpt><trkpt lat="40.110981366772585" lon="19.895641987979463"><ele>395.0</ele><time>2026-04-27T15:39:09Z</time></trkpt><trkpt lat="40.11104174483016" lon="19.89550228275649"><ele>395.0</ele><time>2026-04-27T15:39:11Z</time></trkpt><trkpt lat="40.11112330302895" lon="19.89544272248028"><ele>395.0</ele><time>2026-04-27T15:39:12Z</time></trkpt><trkpt lat="40.11116231156912" lon="19.89535765609933"><ele>395.0</ele><time>2026-04-27T15:39:13Z</time></trkpt><trkpt lat="40.1111958321797" lon="19.895270748986423"><ele>395.0</ele><time>2026-04-27T15:39:14Z</time></trkpt><trkpt lat="40.111229585278814" lon="19.895171008624743"><ele>395.3333333333333</ele><time>2026-04-27T15:39:15Z</time></trkpt><trkpt lat="40.111259321840386" lon="19.89507104746037"><ele>395.66666666666663</ele><time>2026-04-27T15:39:16Z</time></trkpt><trkpt lat="40.11125086012649" lon="19.894961730844912"><ele>396.0</ele><time>2026-04-27T15:39:17Z</time></trkpt><trkpt lat="40.11121496800618" lon="19.894882656349242"><ele>396.33333333333337</ele><time>2026-04-27T15:39:18Z</time></trkpt><trkpt lat="40.1111863487527" lon="19.894809151985836"><ele>396.6666666666667</ele><time>2026-04-27T15:39:19Z</time></trkpt><trkpt lat="40.111158563396074" lon="19.894711295007777"><ele>397.0</ele><time>2026-04-27T15:39:20Z</time></trkpt><trkpt lat="40.111088660629264" lon="19.894624871438786"><ele>397.0</ele><time>2026-04-27T15:39:21Z</time></trkpt><trkpt lat="40.11102108795997" lon="19.89452614348877"><ele>397.0</ele><time>2026-04-27T15:39:22Z</time></trkpt><trkpt lat="40.11094843698908" lon="19.89442228517719"><ele>397.0</ele><time>2026-04-27T15:39:23Z</time></trkpt><trkpt lat="40.110880226703095" lon="19.89430344880186"><ele>397.0</ele><time>2026-04-27T15:39:24Z</time></trkpt><trkpt lat="40.11081450324247" lon="19.89416950055582"><ele>397.0</ele><time>2026-04-27T15:39:25Z</time></trkpt><trkpt lat="40.110762087299655" lon="19.894042536035606"><ele>401.20000000000005</ele><time>2026-04-27T15:39:26Z</time></trkpt><trkpt lat="40.110723026818874" lon="19.89393826941647"><ele>405.4</ele><time>2026-04-27T15:39:27Z</time></trkpt><trkpt lat="40.11067770423454" lon="19.893845262991775"><ele>409.6</ele><time>2026-04-27T15:39:28Z</time></trkpt><trkpt lat="40.110603584128825" lon="19.893758743672656"><ele>413.79999999999995</ele><time>2026-04-27T15:39:29Z</time></trkpt><trkpt lat="40.110531264598116" lon="19.8936951562503"><ele>418.0</ele><time>2026-04-27T15:39:30Z</time></trkpt><trkpt lat="40.11044574523752" lon="19.893638580933747"><ele>418.0</ele><time>2026-04-27T15:39:31Z</time></trkpt><trkpt lat="40.11034974251293" lon="19.8935897188644"><ele>418.0</ele><time>2026-04-27T15:39:32Z</time></trkpt><trkpt lat="40.11024571700362" lon="19.893539680625057"><ele>418.0</ele><time>2026-04-27T15:39:33Z</time></trkpt><trkpt lat="40.11014490464718" lon="19.89346110273968"><ele>418.0</ele><time>2026-04-27T15:39:34Z</time></trkpt><trkpt lat="40.11004689042079" lon="19.89339813298739"><ele>418.0</ele><time>2026-04-27T15:39:35Z</time></trkpt><trkpt lat="40.109963970591956" lon="19.893335729218624"><ele>417.00000000000006</ele><time>2026-04-27T15:39:36Z</time></trkpt><trkpt lat="40.109887963372095" lon="19.89327454429985"><ele>416.0</ele><time>2026-04-27T15:39:37Z</time></trkpt><trkpt lat="40.10983047517508" lon="19.893196969389244"><ele>415.0</ele><time>2026-04-27T15:39:38Z</time></trkpt><trkpt lat="40.10977756021428" lon="19.893111981892915"><ele>414.0</ele><time>2026-04-27T15:39:39Z</time></trkpt><trkpt lat="40.109723764429255" lon="19.893015495349953"><ele>413.00000000000006</ele><time>2026-04-27T15:39:40Z</time></trkpt><trkpt lat="40.109685690774754" lon="19.892898277946973"><ele>412.0</ele><time>2026-04-27T15:39:41Z</time></trkpt><trkpt lat="40.1096465917206" lon="19.89281442409527"><ele>412.0</ele><time>2026-04-27T15:39:42Z</time></trkpt><trkpt lat="40.109600138622454" lon="19.892716084989026"><ele>412.0</ele><time>2026-04-27T15:39:43Z</time></trkpt><trkpt lat="40.10950840064248" lon="19.89263713415012"><ele>412.0</ele><time>2026-04-27T15:39:44Z</time></trkpt><trkpt lat="40.10943306031918" lon="19.89256936290169"><ele>412.0</ele><time>2026-04-27T15:39:45Z</time></trkpt><trkpt lat="40.10935612624983" lon="19.892525934121153"><ele>412.0</ele><time>2026-04-27T15:39:46Z</time></trkpt><trkpt lat="40.10927470926874" lon="19.89250320667991"><ele>410.40000000000003</ele><time>2026-04-27T15:39:47Z</time></trkpt><trkpt lat="40.10918890083337" lon="19.892498177099696"><ele>408.8</ele><time>2026-04-27T15:39:48Z</time></trkpt><trkpt lat="40.10909501368698" lon="19.892510937930076"><ele>407.2</ele><time>2026-04-27T15:39:49Z</time></trkpt><trkpt lat="40.10899360164611" lon="19.892480823362106"><ele>405.6</ele><time>2026-04-27T15:39:50Z</time></trkpt><trkpt lat="40.1088978087881" lon="19.892454212459104"><ele>404.0</ele><time>2026-04-27T15:39:51Z</time></trkpt><trkpt lat="40.108808745016255" lon="19.89242667378687"><ele>403.99999999999994</ele><time>2026-04-27T15:39:52Z</time></trkpt><trkpt lat="40.10873316904574" lon="19.89240416797508"><ele>404.0</ele><time>2026-04-27T15:39:53Z</time></trkpt><trkpt lat="40.1086616553302" lon="19.8923439788769"><ele>404.0</ele><time>2026-04-27T15:39:55Z</time></trkpt><trkpt lat="40.10869587866822" lon="19.892245812249936"><ele>404.0</ele><time>2026-04-27T15:39:57Z</time></trkpt><trkpt lat="40.10872301441932" lon="19.892160969656317"><ele>403.99999999999994</ele><time>2026-04-27T15:39:58Z</time></trkpt><trkpt lat="40.108769863834205" lon="19.89204015899681"><ele>404.0</ele><time>2026-04-27T15:39:59Z</time></trkpt><trkpt lat="40.10879555945173" lon="19.89188545836285"><ele>404.25</ele><time>2026-04-27T15:40:00Z</time></trkpt><trkpt lat="40.1088027702864" lon="19.891734092274223"><ele>404.5</ele><time>2026-04-27T15:40:01Z</time></trkpt><trkpt lat="40.10879384800557" lon="19.89156120804843"><ele>404.75</ele><time>2026-04-27T15:40:02Z</time></trkpt><trkpt lat="40.10879192184425" lon="19.89140131457451"><ele>405.0</ele><time>2026-04-27T15:40:03Z</time></trkpt><trkpt lat="40.1087961565612" lon="19.891279673995353"><ele>405.0</ele><time>2026-04-27T15:40:04Z</time></trkpt><trkpt lat="40.10880223064441" lon="19.891182374416207"><ele>405.0</ele><time>2026-04-27T15:40:05Z</time></trkpt><trkpt lat="40.10881590338021" lon="19.89108466385665"><ele>405.0</ele><time>2026-04-27T15:40:06Z</time></trkpt><trkpt lat="40.10883444044192" lon="19.89097788889373"><ele>405.0</ele><time>2026-04-27T15:40:07Z</time></trkpt><trkpt lat="40.108851639548924" lon="19.890887905698918"><ele>405.0</ele><time>2026-04-27T15:40:08Z</time></trkpt><trkpt lat="40.108827170744796" lon="19.89078332752351"><ele>405.0</ele><time>2026-04-27T15:40:09Z</time></trkpt><trkpt lat="40.10875770140038" lon="19.890702760312134"><ele>402.0</ele><time>2026-04-27T15:40:10Z</time></trkpt><trkpt lat="40.10870952379389" lon="19.89063902156157"><ele>399.0</ele><time>2026-04-27T15:40:11Z</time></trkpt><trkpt lat="40.1085925254298" lon="19.890657682589705"><ele>396.0</ele><time>2026-04-27T15:40:12Z</time></trkpt><trkpt lat="40.10850038112339" lon="19.890652291088955"><ele>393.0</ele><time>2026-04-27T15:40:13Z</time></trkpt><trkpt lat="40.10839537289541" lon="19.890659333540096"><ele>390.0</ele><time>2026-04-27T15:40:14Z</time></trkpt><trkpt lat="40.10829960818809" lon="19.89067131814937"><ele>392.3333333333333</ele><time>2026-04-27T15:40:15Z</time></trkpt><trkpt lat="40.10821912498472" lon="19.890696123660977"><ele>394.66666666666663</ele><time>2026-04-27T15:40:16Z</time></trkpt><trkpt lat="40.108133205409544" lon="19.890701116401925"><ele>397.0</ele><time>2026-04-27T15:40:17Z</time></trkpt><trkpt lat="40.108048330862" lon="19.890711925844254"><ele>399.3333333333333</ele><time>2026-04-27T15:40:18Z</time></trkpt><trkpt lat="40.107966394510704" lon="19.890705354234402"><ele>401.66666666666663</ele><time>2026-04-27T15:40:19Z</time></trkpt><trkpt lat="40.10789404629646" lon="19.8906985529883"><ele>404.0</ele><time>2026-04-27T15:40:20Z</time></trkpt><trkpt lat="40.107796188520126" lon="19.890616634438288"><ele>404.0</ele><time>2026-04-27T15:40:22Z</time></trkpt><trkpt lat="40.10779759429695" lon="19.890529347470636"><ele>404.0</ele><time>2026-04-27T15:40:23Z</time></trkpt><trkpt lat="40.107714892639116" lon="19.89039663273002"><ele>404.0</ele><time>2026-04-27T15:40:25Z</time></trkpt><trkpt lat="40.10764499278068" lon="19.890339695683885"><ele>404.0</ele><time>2026-04-27T15:40:26Z</time></trkpt><trkpt lat="40.107584109779445" lon="19.89025993712298"><ele>404.0</ele><time>2026-04-27T15:40:27Z</time></trkpt><trkpt lat="40.10750711746611" lon="19.89018825208025"><ele>404.0</ele><time>2026-04-27T15:40:28Z</time></trkpt><trkpt lat="40.10742084211451" lon="19.890121289736303"><ele>404.0</ele><time>2026-04-27T15:40:29Z</time></trkpt><trkpt lat="40.10732598812521" lon="19.89004984047363"><ele>404.0</ele><time>2026-04-27T15:40:30Z</time></trkpt><trkpt lat="40.10722692420519" lon="19.889999502353508"><ele>404.0</ele><time>2026-04-27T15:40:31Z</time></trkpt><trkpt lat="40.10712475949" lon="19.8899611593922"><ele>404.0</ele><time>2026-04-27T15:40:32Z</time></trkpt><trkpt lat="40.10701056581361" lon="19.88995370880514"><ele>402.79999999999995</ele><time>2026-04-27T15:40:33Z</time></trkpt><trkpt lat="40.106898169897335" lon="19.889940710496678"><ele>401.59999999999997</ele><time>2026-04-27T15:40:34Z</time></trkpt><trkpt lat="40.10679129423578" lon="19.889929146659526"><ele>400.4</ele><time>2026-04-27T15:40:35Z</time></trkpt><trkpt lat="40.10669333269829" lon="19.889898846881504"><ele>399.2</ele><time>2026-04-27T15:40:36Z</time></trkpt><trkpt lat="40.1066236317073" lon="19.88984064984825"><ele>398.0</ele><time>2026-04-27T15:40:37Z</time></trkpt><trkpt lat="40.106584719019494" lon="19.889767920413536"><ele>399.49999999999994</ele><time>2026-04-27T15:40:38Z</time></trkpt><trkpt lat="40.10654968900545" lon="19.88969193401517"><ele>401.0</ele><time>2026-04-27T15:40:39Z</time></trkpt><trkpt lat="40.106519085680375" lon="19.889609677170398"><ele>402.5</ele><time>2026-04-27T15:40:40Z</time></trkpt><trkpt lat="40.10645219553632" lon="19.88952870863243"><ele>404.0</ele><time>2026-04-27T15:40:41Z</time></trkpt><trkpt lat="40.10638582765482" lon="19.889428834438327"><ele>405.49999999999994</ele><time>2026-04-27T15:40:42Z</time></trkpt><trkpt lat="40.106291677347485" lon="19.88936230528965"><ele>407.0</ele><time>2026-04-27T15:40:43Z</time></trkpt><trkpt lat="40.1061895955977" lon="19.88934018157177"><ele>407.0</ele><time>2026-04-27T15:40:44Z</time></trkpt><trkpt lat="40.10610954291397" lon="19.889353745156537"><ele>407.0</ele><time>2026-04-27T15:40:45Z</time></trkpt><trkpt lat="40.10602203996614" lon="19.889381494751802"><ele>407.0</ele><time>2026-04-27T15:40:46Z</time></trkpt><trkpt lat="40.10593338525022" lon="19.889424456891394"><ele>407.0</ele><time>2026-04-27T15:40:47Z</time></trkpt><trkpt lat="40.10584732448472" lon="19.889484538748256"><ele>407.0</ele><time>2026-04-27T15:40:48Z</time></trkpt><trkpt lat="40.10575756905817" lon="19.889547220428685"><ele>405.6</ele><time>2026-04-27T15:40:49Z</time></trkpt><trkpt lat="40.10566278723597" lon="19.889525602759427"><ele>404.20000000000005</ele><time>2026-04-27T15:40:50Z</time></trkpt><trkpt lat="40.105564078570126" lon="19.889496953544036"><ele>402.8</ele><time>2026-04-27T15:40:51Z</time></trkpt><trkpt lat="40.105466883800915" lon="19.889505199306512"><ele>401.4</ele><time>2026-04-27T15:40:52Z</time></trkpt><trkpt lat="40.10537704556087" lon="19.8895154844296"><ele>400.0</ele><time>2026-04-27T15:40:53Z</time></trkpt><trkpt lat="40.10530408081751" lon="19.88953570973988"><ele>400.00000000000006</ele><time>2026-04-27T15:40:54Z</time></trkpt><trkpt lat="40.105235430241656" lon="19.889586074700613"><ele>400.0</ele><time>2026-04-27T15:40:55Z</time></trkpt><trkpt lat="40.10516883924344" lon="19.889630963347575"><ele>400.0</ele><time>2026-04-27T15:40:56Z</time></trkpt><trkpt lat="40.10512905008474" lon="19.88972779899863"><ele>400.0</ele><time>2026-04-27T15:40:57Z</time></trkpt><trkpt lat="40.1050771819475" lon="19.88981817030558"><ele>400.00000000000006</ele><time>2026-04-27T15:40:58Z</time></trkpt><trkpt lat="40.10497563479651" lon="19.88984353003343"><ele>400.0</ele><time>2026-04-27T15:40:59Z</time></trkpt><trkpt lat="40.10489060057648" lon="19.889930731570686"><ele>403.4</ele><time>2026-04-27T15:41:00Z</time></trkpt><trkpt lat="40.10479285119234" lon="19.88999631793735"><ele>406.8</ele><time>2026-04-27T15:41:01Z</time></trkpt><trkpt lat="40.104714209408144" lon="19.890054247499094"><ele>410.20000000000005</ele><time>2026-04-27T15:41:02Z</time></trkpt><trkpt lat="40.104600678368726" lon="19.890108425218763"><ele>413.6</ele><time>2026-04-27T15:41:04Z</time></trkpt><trkpt lat="40.10456394791353" lon="19.89002354678857"><ele>417.0</ele><time>2026-04-27T15:41:06Z</time></trkpt><trkpt lat="40.10454443805753" lon="19.88990021394684"><ele>417.0</ele><time>2026-04-27T15:41:08Z</time></trkpt><trkpt lat="40.10458418864712" lon="19.889750214080383"><ele>417.0</ele><time>2026-04-27T15:41:10Z</time></trkpt><trkpt lat="40.10462322599885" lon="19.889630485917984"><ele>417.0</ele><time>2026-04-27T15:41:11Z</time></trkpt><trkpt lat="40.1046520135121" lon="19.889497065670092"><ele>417.0</ele><time>2026-04-27T15:41:12Z</time></trkpt><trkpt lat="40.104604453169635" lon="19.88936978868766"><ele>417.0</ele><time>2026-04-27T15:41:13Z</time></trkpt><trkpt lat="40.104571803324404" lon="19.889264439388594"><ele>416.8</ele><time>2026-04-27T15:41:14Z</time></trkpt><trkpt lat="40.104517779393376" lon="19.889151367776925"><ele>416.6</ele><time>2026-04-27T15:41:15Z</time></trkpt><trkpt lat="40.104458364908595" lon="19.889053572103112"><ele>416.40000000000003</ele><time>2026-04-27T15:41:16Z</time></trkpt><trkpt lat="40.10438325263924" lon="19.888966464755345"><ele>416.20000000000005</ele><time>2026-04-27T15:41:17Z</time></trkpt><trkpt lat="40.10431655746232" lon="19.888846822152445"><ele>416.0</ele><time>2026-04-27T15:41:18Z</time></trkpt><trkpt lat="40.10425265472257" lon="19.888710344007038"><ele>416.0</ele><time>2026-04-27T15:41:19Z</time></trkpt><trkpt lat="40.104220674114075" lon="19.888573489274883"><ele>416.0</ele><time>2026-04-27T15:41:20Z</time></trkpt><trkpt lat="40.10419455609889" lon="19.88845895221612"><ele>416.0</ele><time>2026-04-27T15:41:21Z</time></trkpt><trkpt lat="40.10413888969481" lon="19.888368300032738"><ele>416.0</ele><time>2026-04-27T15:41:22Z</time></trkpt><trkpt lat="40.10404851900827" lon="19.888287296038186"><ele>416.0</ele><time>2026-04-27T15:41:23Z</time></trkpt><trkpt lat="40.10395472431876" lon="19.888204788237868"><ele>420.0</ele><time>2026-04-27T15:41:24Z</time></trkpt><trkpt lat="40.10386938435492" lon="19.888085460011474"><ele>424.0</ele><time>2026-04-27T15:41:25Z</time></trkpt><trkpt lat="40.10376212170879" lon="19.88799682277859"><ele>428.0</ele><time>2026-04-27T15:41:26Z</time></trkpt><trkpt lat="40.10364160318203" lon="19.88796040326954"><ele>432.0</ele><time>2026-04-27T15:41:27Z</time></trkpt><trkpt lat="40.103575540832225" lon="19.887894100669527"><ele>432.0</ele><time>2026-04-27T15:41:28Z</time></trkpt><trkpt lat="40.103530609728125" lon="19.887746562534826"><ele>432.00000000000006</ele><time>2026-04-27T15:41:30Z</time></trkpt><trkpt lat="40.10354574675476" lon="19.887631222136303"><ele>432.00000000000006</ele><time>2026-04-27T15:41:31Z</time></trkpt><trkpt lat="40.10361543880321" lon="19.88752088240309"><ele>432.0</ele><time>2026-04-27T15:41:32Z</time></trkpt><trkpt lat="40.103658905375234" lon="19.887381635503267"><ele>432.0</ele><time>2026-04-27T15:41:33Z</time></trkpt><trkpt lat="40.10364873984625" lon="19.887253845039126"><ele>432.3333333333333</ele><time>2026-04-27T15:41:34Z</time></trkpt><trkpt lat="40.10362953090428" lon="19.887138800707287"><ele>432.66666666666663</ele><time>2026-04-27T15:41:35Z</time></trkpt><trkpt lat="40.10362822780822" lon="19.88701201125991"><ele>433.0</ele><time>2026-04-27T15:41:36Z</time></trkpt><trkpt lat="40.103650220770454" lon="19.886920459903212"><ele>433.3333333333333</ele><time>2026-04-27T15:41:37Z</time></trkpt><trkpt lat="40.1036807313088" lon="19.88682925616493"><ele>433.66666666666663</ele><time>2026-04-27T15:41:38Z</time></trkpt><trkpt lat="40.10371596121359" lon="19.886725103465693"><ele>434.0</ele><time>2026-04-27T15:41:39Z</time></trkpt><trkpt lat="40.1037836339781" lon="19.88664778253501"><ele>435.4</ele><time>2026-04-27T15:41:40Z</time></trkpt><trkpt lat="40.103887078136744" lon="19.886553538500827"><ele>436.79999999999995</ele><time>2026-04-27T15:41:41Z</time></trkpt><trkpt lat="40.10394900300043" lon="19.886476582718352"><ele>438.20000000000005</ele><time>2026-04-27T15:41:42Z</time></trkpt><trkpt lat="40.10400485205998" lon="19.886410060255447"><ele>439.6</ele><time>2026-04-27T15:41:43Z</time></trkpt><trkpt lat="40.10403761284887" lon="19.886299392269578"><ele>441.0</ele><time>2026-04-27T15:41:44Z</time></trkpt><trkpt lat="40.10403887200443" lon="19.886199956025397"><ele>441.0</ele><time>2026-04-27T15:41:45Z</time></trkpt><trkpt lat="40.10396700007388" lon="19.88603952541483"><ele>441.0</ele><time>2026-04-27T15:41:47Z</time></trkpt><trkpt lat="40.103893233470494" lon="19.886016917450746"><ele>441.0</ele><time>2026-04-27T15:41:48Z</time></trkpt><trkpt lat="40.10381558100281" lon="19.885987216731877"><ele>441.0</ele><time>2026-04-27T15:41:49Z</time></trkpt><trkpt lat="40.103713780173294" lon="19.88591099786605"><ele>441.0</ele><time>2026-04-27T15:41:50Z</time></trkpt><trkpt lat="40.10361415251658" lon="19.885824973347855"><ele>440.8</ele><time>2026-04-27T15:41:51Z</time></trkpt><trkpt lat="40.10354368148588" lon="19.885752598078028"><ele>440.6</ele><time>2026-04-27T15:41:52Z</time></trkpt><trkpt lat="40.10347391223363" lon="19.885684374444466"><ele>440.4</ele><time>2026-04-27T15:41:53Z</time></trkpt><trkpt lat="40.10339176343033" lon="19.885618533087523"><ele>440.2</ele><time>2026-04-27T15:41:54Z</time></trkpt><trkpt lat="40.10328784211543" lon="19.88558274820633"><ele>440.0</ele><time>2026-04-27T15:41:55Z</time></trkpt><trkpt lat="40.10317947282443" lon="19.88560242547172"><ele>438.8</ele><time>2026-04-27T15:41:56Z</time></trkpt><trkpt lat="40.10310117191797" lon="19.885613422258295"><ele>437.6</ele><time>2026-04-27T15:41:57Z</time></trkpt><trkpt lat="40.103029249320215" lon="19.885725696789656"><ele>436.4</ele><time>2026-04-27T15:41:58Z</time></trkpt><trkpt lat="40.10298229036855" lon="19.885812186992847"><ele>435.2</ele><time>2026-04-27T15:41:59Z</time></trkpt><trkpt lat="40.10293609976464" lon="19.88589920400789"><ele>434.0</ele><time>2026-04-27T15:42:00Z</time></trkpt><trkpt lat="40.10287770189684" lon="19.886000063346724"><ele>433.99999999999994</ele><time>2026-04-27T15:42:01Z</time></trkpt><trkpt lat="40.10281384323572" lon="19.886090663528773"><ele>434.0</ele><time>2026-04-27T15:42:02Z</time></trkpt><trkpt lat="40.10275604275924" lon="19.886177034048178"><ele>434.0</ele><time>2026-04-27T15:42:03Z</time></trkpt><trkpt lat="40.10270206210442" lon="19.88626005225897"><ele>434.0</ele><time>2026-04-27T15:42:04Z</time></trkpt><trkpt lat="40.10264045201401" lon="19.8863401447694"><ele>433.99999999999994</ele><time>2026-04-27T15:42:05Z</time></trkpt><trkpt lat="40.10254792752984" lon="19.88637784364037"><ele>434.0</ele><time>2026-04-27T15:42:06Z</time></trkpt><trkpt lat="40.10246297785698" lon="19.886388887223156"><ele>431.3333333333333</ele><time>2026-04-27T15:42:07Z</time></trkpt><trkpt lat="40.10238002729094" lon="19.886445020577096"><ele>428.66666666666663</ele><time>2026-04-27T15:42:08Z</time></trkpt><trkpt lat="40.10230729918277" lon="19.886496990213764"><ele>426.0</ele><time>2026-04-27T15:42:09Z</time></trkpt><trkpt lat="40.10223677415803" lon="19.88656288519725"><ele>423.33333333333337</ele><time>2026-04-27T15:42:10Z</time></trkpt><trkpt lat="40.102172706353855" lon="19.886619649793964"><ele>420.6666666666667</ele><time>2026-04-27T15:42:11Z</time></trkpt><trkpt lat="40.10210810694579" lon="19.886626887876933"><ele>418.0</ele><time>2026-04-27T15:42:12Z</time></trkpt><trkpt lat="40.102042137462306" lon="19.88663907509637"><ele>418.0</ele><time>2026-04-27T15:42:13Z</time></trkpt><trkpt lat="40.101921577981166" lon="19.88659093385936"><ele>418.0</ele><time>2026-04-27T15:42:15Z</time></trkpt><trkpt lat="40.10185107046975" lon="19.88657674418835"><ele>418.0</ele><time>2026-04-27T15:42:16Z</time></trkpt><trkpt lat="40.10177060278251" lon="19.886615409475922"><ele>418.0</ele><time>2026-04-27T15:42:17Z</time></trkpt><trkpt lat="40.1016831198784" lon="19.886644315219016"><ele>418.0</ele><time>2026-04-27T15:42:18Z</time></trkpt><trkpt lat="40.10159033075199" lon="19.88668366739434"><ele>419.00000000000006</ele><time>2026-04-27T15:42:19Z</time></trkpt><trkpt lat="40.101508426386964" lon="19.886722484500012"><ele>420.0</ele><time>2026-04-27T15:42:20Z</time></trkpt><trkpt lat="40.101428392546374" lon="19.886758951440452"><ele>421.0</ele><time>2026-04-27T15:42:21Z</time></trkpt><trkpt lat="40.101356309140805" lon="19.886791846433557"><ele>422.0</ele><time>2026-04-27T15:42:22Z</time></trkpt><trkpt lat="40.1012776561853" lon="19.886830448825965"><ele>423.00000000000006</ele><time>2026-04-27T15:42:23Z</time></trkpt><trkpt lat="40.10119721641994" lon="19.88687112547339"><ele>424.0</ele><time>2026-04-27T15:42:24Z</time></trkpt><trkpt lat="40.10111502233503" lon="19.886893405544278"><ele>424.0</ele><time>2026-04-27T15:42:25Z</time></trkpt><trkpt lat="40.10102446538774" lon="19.88688340203404"><ele>424.0</ele><time>2026-04-27T15:42:26Z</time></trkpt><trkpt lat="40.100947646168486" lon="19.88686306761308"><ele>424.0</ele><time>2026-04-27T15:42:27Z</time></trkpt><trkpt lat="40.10086445869799" lon="19.88687041278346"><ele>424.0</ele><time>2026-04-27T15:42:28Z</time></trkpt><trkpt lat="40.10076773494083" lon="19.886917393861804"><ele>424.0</ele><time>2026-04-27T15:42:29Z</time></trkpt><trkpt lat="40.10065239827324" lon="19.886976543675484"><ele>419.0</ele><time>2026-04-27T15:42:30Z</time></trkpt><trkpt lat="40.10054179395479" lon="19.887019055165297"><ele>414.0</ele><time>2026-04-27T15:42:31Z</time></trkpt><trkpt lat="40.10044618073595" lon="19.88705212628858"><ele>409.0</ele><time>2026-04-27T15:42:32Z</time></trkpt><trkpt lat="40.10036503885901" lon="19.887089230600193"><ele>404.0</ele><time>2026-04-27T15:42:33Z</time></trkpt><trkpt lat="40.10029463743375" lon="19.887139431288706"><ele>399.0</ele><time>2026-04-27T15:42:34Z</time></trkpt><trkpt lat="40.10022394514181" lon="19.88717581064965"><ele>399.0</ele><time>2026-04-27T15:42:35Z</time></trkpt><trkpt lat="40.100149646603064" lon="19.887195340157156"><ele>399.0</ele><time>2026-04-27T15:42:36Z</time></trkpt><trkpt lat="40.10007877212829" lon="19.887187842616708"><ele>399.0</ele><time>2026-04-27T15:42:37Z</time></trkpt><trkpt lat="40.10000993340479" lon="19.887169677388655"><ele>399.0</ele><time>2026-04-27T15:42:38Z</time></trkpt><trkpt lat="40.099898632544885" lon="19.887228194809516"><ele>399.0</ele><time>2026-04-27T15:42:40Z</time></trkpt><trkpt lat="40.099852266456395" lon="19.887313903385653"><ele>399.0</ele><time>2026-04-27T15:42:41Z</time></trkpt><trkpt lat="40.09981464981123" lon="19.88741043513435"><ele>399.5</ele><time>2026-04-27T15:42:42Z</time></trkpt><trkpt lat="40.099795093286694" lon="19.88751349374457"><ele>400.0</ele><time>2026-04-27T15:42:43Z</time></trkpt><trkpt lat="40.09977555484993" lon="19.887608549682472"><ele>400.5</ele><time>2026-04-27T15:42:44Z</time></trkpt><trkpt lat="40.09978271154321" lon="19.88771891835047"><ele>401.0</ele><time>2026-04-27T15:42:45Z</time></trkpt><trkpt lat="40.09984839458815" lon="19.88783939932449"><ele>401.5</ele><time>2026-04-27T15:42:46Z</time></trkpt><trkpt lat="40.09989388876457" lon="19.887937522088997"><ele>402.0</ele><time>2026-04-27T15:42:47Z</time></trkpt><trkpt lat="40.099938112817036" lon="19.888016109975087"><ele>402.0</ele><time>2026-04-27T15:42:48Z</time></trkpt><trkpt lat="40.0999787119957" lon="19.888082108908534"><ele>402.0</ele><time>2026-04-27T15:42:49Z</time></trkpt><trkpt lat="40.10001566696005" lon="19.888209497961906"><ele>402.0</ele><time>2026-04-27T15:42:51Z</time></trkpt><trkpt lat="40.09991060115431" lon="19.888286280351217"><ele>402.0</ele><time>2026-04-27T15:42:53Z</time></trkpt><trkpt lat="40.099835377682275" lon="19.888272709007733"><ele>402.0</ele><time>2026-04-27T15:42:54Z</time></trkpt><trkpt lat="40.09973278432252" lon="19.888301422875056"><ele>396.8</ele><time>2026-04-27T15:42:55Z</time></trkpt><trkpt lat="40.09962434784717" lon="19.888312966760804"><ele>391.6</ele><time>2026-04-27T15:42:56Z</time></trkpt><trkpt lat="40.09953130981918" lon="19.888331848687876"><ele>386.40000000000003</ele><time>2026-04-27T15:42:57Z</time></trkpt><trkpt lat="40.09943807434589" lon="19.888328312136153"><ele>381.20000000000005</ele><time>2026-04-27T15:42:58Z</time></trkpt><trkpt lat="40.099330045597945" lon="19.888358706243658"><ele>376.0</ele><time>2026-04-27T15:42:59Z</time></trkpt><trkpt lat="40.099212962021014" lon="19.888411963309178"><ele>376.5</ele><time>2026-04-27T15:43:00Z</time></trkpt><trkpt lat="40.099090753810145" lon="19.888471978847928"><ele>377.0</ele><time>2026-04-27T15:43:01Z</time></trkpt><trkpt lat="40.09897032594148" lon="19.888502888856713"><ele>377.5</ele><time>2026-04-27T15:43:02Z</time></trkpt><trkpt lat="40.09885494698942" lon="19.888510540458924"><ele>378.0</ele><time>2026-04-27T15:43:03Z</time></trkpt><trkpt lat="40.0987383470993" lon="19.88853857863537"><ele>378.0</ele><time>2026-04-27T15:43:04Z</time></trkpt><trkpt lat="40.09863111901214" lon="19.88857355598389"><ele>378.0</ele><time>2026-04-27T15:43:05Z</time></trkpt><trkpt lat="40.09853222103524" lon="19.88860083593707"><ele>378.0</ele><time>2026-04-27T15:43:06Z</time></trkpt><trkpt lat="40.098441318940736" lon="19.88863044649401"><ele>378.0</ele><time>2026-04-27T15:43:07Z</time></trkpt><trkpt lat="40.09835828812643" lon="19.888675172504566"><ele>378.0</ele><time>2026-04-27T15:43:08Z</time></trkpt><trkpt lat="40.09829464487212" lon="19.88873503910699"><ele>372.3333333333333</ele><time>2026-04-27T15:43:09Z</time></trkpt><trkpt lat="40.09824961431092" lon="19.8888000666165"><ele>366.6666666666667</ele><time>2026-04-27T15:43:10Z</time></trkpt><trkpt lat="40.098182990248205" lon="19.888907250403733"><ele>361.0</ele><time>2026-04-27T15:43:12Z</time></trkpt><trkpt lat="40.098114892567224" lon="19.888907005874263"><ele>355.33333333333337</ele><time>2026-04-27T15:43:14Z</time></trkpt><trkpt lat="40.09806992871403" lon="19.88880514916773"><ele>349.6666666666667</ele><time>2026-04-27T15:43:16Z</time></trkpt><trkpt lat="40.09815917292879" lon="19.888705073670057"><ele>344.0</ele><time>2026-04-27T15:43:18Z</time></trkpt><trkpt lat="40.09820850761923" lon="19.88862533170441"><ele>347.4</ele><time>2026-04-27T15:43:19Z</time></trkpt><trkpt lat="40.09828551174085" lon="19.888526508370756"><ele>350.79999999999995</ele><time>2026-04-27T15:43:20Z</time></trkpt><trkpt lat="40.098368203473136" lon="19.88842969023424"><ele>354.20000000000005</ele><time>2026-04-27T15:43:21Z</time></trkpt><trkpt lat="40.098433780824045" lon="19.888342838127638"><ele>357.6</ele><time>2026-04-27T15:43:22Z</time></trkpt><trkpt lat="40.098497204609146" lon="19.88825906132535"><ele>361.0</ele><time>2026-04-27T15:43:23Z</time></trkpt><trkpt lat="40.098554357640104" lon="19.888184385976537"><ele>361.0</ele><time>2026-04-27T15:43:24Z</time></trkpt><trkpt lat="40.098601572980336" lon="19.88812983892898"><ele>361.0</ele><time>2026-04-27T15:43:25Z</time></trkpt><trkpt lat="40.09866112502316" lon="19.888067625828416"><ele>361.0</ele><time>2026-04-27T15:43:27Z</time></trkpt><trkpt lat="40.09865601519476" lon="19.887920865588807"><ele>361.0</ele><time>2026-04-27T15:43:29Z</time></trkpt><trkpt lat="40.09854355651821" lon="19.887879953730884"><ele>361.0</ele><time>2026-04-27T15:43:31Z</time></trkpt><trkpt lat="40.098459227274965" lon="19.887897146811035"><ele>361.0</ele><time>2026-04-27T15:43:33Z</time></trkpt><trkpt lat="40.09840133254009" lon="19.88793737285664"><ele>361.0</ele><time>2026-04-27T15:43:34Z</time></trkpt><trkpt lat="40.098334373643745" lon="19.887993904509916"><ele>361.0</ele><time>2026-04-27T15:43:35Z</time></trkpt><trkpt lat="40.09826770067193" lon="19.888061056573836"><ele>361.0</ele><time>2026-04-27T15:43:36Z</time></trkpt><trkpt lat="40.098201972532294" lon="19.888127412248256"><ele>361.0</ele><time>2026-04-27T15:43:37Z</time></trkpt><trkpt lat="40.098123158763" lon="19.888187663886917"><ele>361.0</ele><time>2026-04-27T15:43:38Z</time></trkpt><trkpt lat="40.098036953270096" lon="19.888233006722047"><ele>357.6</ele><time>2026-04-27T15:43:39Z</time></trkpt><trkpt lat="40.097954553342866" lon="19.888269114846597"><ele>354.20000000000005</ele><time>2026-04-27T15:43:40Z</time></trkpt><trkpt lat="40.09786699445789" lon="19.88832627484611"><ele>350.79999999999995</ele><time>2026-04-27T15:43:41Z</time></trkpt><trkpt lat="40.097775721809796" lon="19.88840853831325"><ele>347.4</ele><time>2026-04-27T15:43:42Z</time></trkpt><trkpt lat="40.097692491954135" lon="19.888498235008537"><ele>344.0</ele><time>2026-04-27T15:43:43Z</time></trkpt><trkpt lat="40.09762025309913" lon="19.88859169954325"><ele>344.0</ele><time>2026-04-27T15:43:44Z</time></trkpt><trkpt lat="40.09754485819619" lon="19.888664958755438"><ele>344.0</ele><time>2026-04-27T15:43:45Z</time></trkpt><trkpt lat="40.09746393890737" lon="19.888711057959565"><ele>344.0</ele><time>2026-04-27T15:43:46Z</time></trkpt><trkpt lat="40.09739325031629" lon="19.88875493248052"><ele>344.0</ele><time>2026-04-27T15:43:47Z</time></trkpt><trkpt lat="40.09733369196967" lon="19.88882482839557"><ele>344.0</ele><time>2026-04-27T15:43:48Z</time></trkpt><trkpt lat="40.09727696073468" lon="19.888926438175115"><ele>344.0</ele><time>2026-04-27T15:43:49Z</time></trkpt><trkpt lat="40.09722703422714" lon="19.889024045206337"><ele>341.1666666666667</ele><time>2026-04-27T15:43:50Z</time></trkpt><trkpt lat="40.097192728085574" lon="19.88911496867208"><ele>338.33333333333337</ele><time>2026-04-27T15:43:51Z</time></trkpt><trkpt lat="40.09717280963329" lon="19.889200887183442"><ele>335.5</ele><time>2026-04-27T15:43:52Z</time></trkpt><trkpt lat="40.09714471804829" lon="19.88928491352879"><ele>332.6666666666667</ele><time>2026-04-27T15:43:53Z</time></trkpt><trkpt lat="40.0971785554144" lon="19.889391816722107"><ele>329.8333333333333</ele><time>2026-04-27T15:43:54Z</time></trkpt><trkpt lat="40.097215760882165" lon="19.889489697574533"><ele>327.0</ele><time>2026-04-27T15:43:55Z</time></trkpt><trkpt lat="40.09725598292886" lon="19.889572970497095"><ele>327.0</ele><time>2026-04-27T15:43:56Z</time></trkpt><trkpt lat="40.09727070690167" lon="19.88965322863703"><ele>327.0</ele><time>2026-04-27T15:43:57Z</time></trkpt><trkpt lat="40.09719341224799" lon="19.88975182312436"><ele>327.0</ele><time>2026-04-27T15:43:59Z</time></trkpt><trkpt lat="40.09709583716564" lon="19.889745693948385"><ele>327.0</ele><time>2026-04-27T15:44:01Z</time></trkpt><trkpt lat="40.09703703403537" lon="19.8896279093919"><ele>327.0</ele><time>2026-04-27T15:44:03Z</time></trkpt><trkpt lat="40.09697691951907" lon="19.8895418248252"><ele>327.0</ele><time>2026-04-27T15:44:04Z</time></trkpt><trkpt lat="40.096924063100474" lon="19.889476237638526"><ele>327.0</ele><time>2026-04-27T15:44:05Z</time></trkpt><trkpt lat="40.09682075832355" lon="19.889405926060704"><ele>327.0</ele><time>2026-04-27T15:44:07Z</time></trkpt><trkpt lat="40.0967151080074" lon="19.889452893556854"><ele>327.0</ele><time>2026-04-27T15:44:09Z</time></trkpt><trkpt lat="40.09665825954327" lon="19.889593794841105"><ele>327.0</ele><time>2026-04-27T15:44:11Z</time></trkpt><trkpt lat="40.09663219088467" lon="19.88968984025962"><ele>327.0</ele><time>2026-04-27T15:44:12Z</time></trkpt><trkpt lat="40.09659346776642" lon="19.88982294418515"><ele>327.0</ele><time>2026-04-27T15:44:13Z</time></trkpt><trkpt lat="40.09653133853203" lon="19.889936322241482"><ele>327.0</ele><time>2026-04-27T15:44:14Z</time></trkpt><trkpt lat="40.09649328704899" lon="19.890058501398432"><ele>327.0</ele><time>2026-04-27T15:44:15Z</time></trkpt><trkpt lat="40.09643744078401" lon="19.890170128556264"><ele>327.0</ele><time>2026-04-27T15:44:16Z</time></trkpt><trkpt lat="40.09637863686976" lon="19.890280476618308"><ele>325.20000000000005</ele><time>2026-04-27T15:44:17Z</time></trkpt><trkpt lat="40.09630246705411" lon="19.89037755910993"><ele>323.40000000000003</ele><time>2026-04-27T15:44:18Z</time></trkpt><trkpt lat="40.096241354830774" lon="19.89047558919043"><ele>321.6</ele><time>2026-04-27T15:44:19Z</time></trkpt><trkpt lat="40.09617875376122" lon="19.89055953263"><ele>319.8</ele><time>2026-04-27T15:44:20Z</time></trkpt><trkpt lat="40.096111024635555" lon="19.890632364020952"><ele>318.0</ele><time>2026-04-27T15:44:21Z</time></trkpt><trkpt lat="40.09603343858413" lon="19.89070478002618"><ele>318.0</ele><time>2026-04-27T15:44:22Z</time></trkpt><trkpt lat="40.09595891283989" lon="19.8907678619079"><ele>318.0</ele><time>2026-04-27T15:44:23Z</time></trkpt><trkpt lat="40.095893675438994" lon="19.89080915293547"><ele>318.0</ele><time>2026-04-27T15:44:24Z</time></trkpt><trkpt lat="40.09583184028782" lon="19.890849783564573"><ele>318.0</ele><time>2026-04-27T15:44:25Z</time></trkpt><trkpt lat="40.09576896604042" lon="19.89089068000903"><ele>318.0</ele><time>2026-04-27T15:44:26Z</time></trkpt><trkpt lat="40.09569315088112" lon="19.89082477210991"><ele>318.0</ele><time>2026-04-27T15:44:28Z</time></trkpt><trkpt lat="40.095627525663694" lon="19.890783411346398"><ele>324.2</ele><time>2026-04-27T15:44:29Z</time></trkpt><trkpt lat="40.095635331789424" lon="19.890678357001498"><ele>330.4</ele><time>2026-04-27T15:44:30Z</time></trkpt><trkpt lat="40.09561128458004" lon="19.890546504451358"><ele>336.59999999999997</ele><time>2026-04-27T15:44:31Z</time></trkpt><trkpt lat="40.09560876038357" lon="19.890396553351707"><ele>342.8</ele><time>2026-04-27T15:44:32Z</time></trkpt><trkpt lat="40.09563194249943" lon="19.890280049763422"><ele>349.0</ele><time>2026-04-27T15:44:33Z</time></trkpt><trkpt lat="40.09567898236367" lon="19.890202151500407"><ele>349.0</ele><time>2026-04-27T15:44:34Z</time></trkpt><trkpt lat="40.09569060119671" lon="19.890099542912154"><ele>349.0</ele><time>2026-04-27T15:44:35Z</time></trkpt><trkpt lat="40.09560118363593" lon="19.88991877511599"><ele>349.0</ele><time>2026-04-27T15:44:37Z</time></trkpt><trkpt lat="40.095544422161296" lon="19.889811605334884"><ele>349.0</ele><time>2026-04-27T15:44:38Z</time></trkpt><trkpt lat="40.09548348455524" lon="19.889700303659446"><ele>349.0</ele><time>2026-04-27T15:44:39Z</time></trkpt><trkpt lat="40.09540566772097" lon="19.88960078301015"><ele>346.16666666666663</ele><time>2026-04-27T15:44:40Z</time></trkpt><trkpt lat="40.09532391151523" lon="19.88950363664557"><ele>343.3333333333333</ele><time>2026-04-27T15:44:41Z</time></trkpt><trkpt lat="40.09525166615322" lon="19.889407081787777"><ele>340.5</ele><time>2026-04-27T15:44:42Z</time></trkpt><trkpt lat="40.0952163357629" lon="19.889319319994836"><ele>337.6666666666667</ele><time>2026-04-27T15:44:43Z</time></trkpt><trkpt lat="40.09520340557503" lon="19.88921753805585"><ele>334.83333333333337</ele><time>2026-04-27T15:44:44Z</time></trkpt><trkpt lat="40.095224315276" lon="19.889119671192017"><ele>332.0</ele><time>2026-04-27T15:44:45Z</time></trkpt><trkpt lat="40.09524456037941" lon="19.88899682406902"><ele>329.0</ele><time>2026-04-27T15:44:46Z</time></trkpt><trkpt lat="40.0952445603787" lon="19.88887796667675"><ele>326.0</ele><time>2026-04-27T15:44:47Z</time></trkpt><trkpt lat="40.09521347440764" lon="19.888750664662968"><ele>323.0</ele><time>2026-04-27T15:44:48Z</time></trkpt><trkpt lat="40.0951527327184" lon="19.888629910240383"><ele>320.0</ele><time>2026-04-27T15:44:49Z</time></trkpt><trkpt lat="40.09512236216507" lon="19.888500026282586"><ele>317.0</ele><time>2026-04-27T15:44:50Z</time></trkpt><trkpt lat="40.095079571031256" lon="19.888388811447406"><ele>314.4</ele><time>2026-04-27T15:44:51Z</time></trkpt><trkpt lat="40.095029517947964" lon="19.888286680608"><ele>311.79999999999995</ele><time>2026-04-27T15:44:52Z</time></trkpt><trkpt lat="40.0949590908978" lon="19.888195570457636"><ele>309.2</ele><time>2026-04-27T15:44:53Z</time></trkpt><trkpt lat="40.09488457103032" lon="19.888082348211782"><ele>306.59999999999997</ele><time>2026-04-27T15:44:54Z</time></trkpt><trkpt lat="40.094809301196946" lon="19.88797882811229"><ele>304.0</ele><time>2026-04-27T15:44:55Z</time></trkpt><trkpt lat="40.09475607869434" lon="19.887872728375314"><ele>305.0</ele><time>2026-04-27T15:44:56Z</time></trkpt><trkpt lat="40.09472954207108" lon="19.88774681197568"><ele>306.0</ele><time>2026-04-27T15:44:57Z</time></trkpt><trkpt lat="40.09471611221024" lon="19.887601539482368"><ele>307.0</ele><time>2026-04-27T15:44:58Z</time></trkpt><trkpt lat="40.09469619259791" lon="19.887479808000112"><ele>308.0</ele><time>2026-04-27T15:44:59Z</time></trkpt><trkpt lat="40.09464795641311" lon="19.887354243082065"><ele>309.0</ele><time>2026-04-27T15:45:00Z</time></trkpt><trkpt lat="40.09458860095413" lon="19.887262084299046"><ele>309.0</ele><time>2026-04-27T15:45:01Z</time></trkpt><trkpt lat="40.0945340523489" lon="19.887191395733137"><ele>309.0</ele><time>2026-04-27T15:45:02Z</time></trkpt><trkpt lat="40.09447109140738" lon="19.887157144614157"><ele>309.0</ele><time>2026-04-27T15:45:03Z</time></trkpt><trkpt lat="40.09440521435349" lon="19.88714646119096"><ele>309.0</ele><time>2026-04-27T15:45:04Z</time></trkpt><trkpt lat="40.09433238418179" lon="19.887157499688154"><ele>309.0</ele><time>2026-04-27T15:45:05Z</time></trkpt><trkpt lat="40.09424558551514" lon="19.887176097296447"><ele>309.0</ele><time>2026-04-27T15:45:06Z</time></trkpt><trkpt lat="40.094158527483174" lon="19.887187165697156"><ele>309.0</ele><time>2026-04-27T15:45:07Z</time></trkpt><trkpt lat="40.09408059389518" lon="19.88716136824587"><ele>309.0</ele><time>2026-04-27T15:45:08Z</time></trkpt><trkpt lat="40.09402322543536" lon="19.88710988910984"><ele>309.0</ele><time>2026-04-27T15:45:09Z</time></trkpt><trkpt lat="40.09395983791817" lon="19.88697522271108"><ele>309.0</ele><time>2026-04-27T15:45:11Z</time></trkpt><trkpt lat="40.09395243136823" lon="19.886885357997123"><ele>309.0</ele><time>2026-04-27T15:45:12Z</time></trkpt><trkpt lat="40.0939645714368" lon="19.88677787646592"><ele>309.0</ele><time>2026-04-27T15:45:13Z</time></trkpt><trkpt lat="40.09397259286036" lon="19.886633312191254"><ele>306.2</ele><time>2026-04-27T15:45:14Z</time></trkpt><trkpt lat="40.09394172783885" lon="19.886537094069343"><ele>303.4</ele><time>2026-04-27T15:45:15Z</time></trkpt><trkpt lat="40.093884909981014" lon="19.88643256679039"><ele>300.6</ele><time>2026-04-27T15:45:16Z</time></trkpt><trkpt lat="40.09381435903787" lon="19.886330832073593"><ele>297.8</ele><time>2026-04-27T15:45:17Z</time></trkpt><trkpt lat="40.09375070373134" lon="19.886241813610994"><ele>295.0</ele><time>2026-04-27T15:45:18Z</time></trkpt><trkpt lat="40.09369766908736" lon="19.88617181179762"><ele>295.0</ele><time>2026-04-27T15:45:19Z</time></trkpt><trkpt lat="40.09364407168499" lon="19.886128528297064"><ele>295.0</ele><time>2026-04-27T15:45:20Z</time></trkpt><trkpt lat="40.093528673643014" lon="19.886136281564777"><ele>295.0</ele><time>2026-04-27T15:45:22Z</time></trkpt><trkpt lat="40.093425524937004" lon="19.886253527722438"><ele>295.0</ele><time>2026-04-27T15:45:24Z</time></trkpt><trkpt lat="40.09337245872071" lon="19.886351614633618"><ele>295.0</ele><time>2026-04-27T15:45:25Z</time></trkpt><trkpt lat="40.093337319868" lon="19.886469081910064"><ele>295.0</ele><time>2026-04-27T15:45:26Z</time></trkpt><trkpt lat="40.09332895158479" lon="19.886578496082443"><ele>295.0</ele><time>2026-04-27T15:45:27Z</time></trkpt><trkpt lat="40.09334308474531" lon="19.88670745814637"><ele>295.0</ele><time>2026-04-27T15:45:28Z</time></trkpt><trkpt lat="40.09334810700888" lon="19.886845461916028"><ele>295.0</ele><time>2026-04-27T15:45:29Z</time></trkpt><trkpt lat="40.093317250101016" lon="19.8869536080949"><ele>295.0</ele><time>2026-04-27T15:45:30Z</time></trkpt><trkpt lat="40.09325724745583" lon="19.887030112255054"><ele>298.7142857142857</ele><time>2026-04-27T15:45:31Z</time></trkpt><trkpt lat="40.093204078556404" lon="19.887095419158133"><ele>302.42857142857144</ele><time>2026-04-27T15:45:32Z</time></trkpt><trkpt lat="40.09316035757093" lon="19.887162628366962"><ele>306.1428571428571</ele><time>2026-04-27T15:45:33Z</time></trkpt><trkpt lat="40.09312146814148" lon="19.88722897915506"><ele>309.8571428571429</ele><time>2026-04-27T15:45:34Z</time></trkpt><trkpt lat="40.09307887996487" lon="19.88730533562753"><ele>313.57142857142856</ele><time>2026-04-27T15:45:35Z</time></trkpt><trkpt lat="40.093009350211204" lon="19.887393507996926"><ele>317.2857142857143</ele><time>2026-04-27T15:45:37Z</time></trkpt><trkpt lat="40.09295526783694" lon="19.88743880579931"><ele>321.0</ele><time>2026-04-27T15:45:41Z</time></trkpt><trkpt lat="40.09288199404036" lon="19.887482004945277"><ele>320.99999999999994</ele><time>2026-04-27T15:45:45Z</time></trkpt><trkpt lat="40.09281166229298" lon="19.887449838873156"><ele>321.0</ele><time>2026-04-27T15:45:48Z</time></trkpt><trkpt lat="40.09276742460239" lon="19.887361138176026"><ele>321.0</ele><time>2026-04-27T15:45:51Z</time></trkpt><trkpt lat="40.09273463582739" lon="19.887249634009418"><ele>321.0</ele><time>2026-04-27T15:45:54Z</time></trkpt><trkpt lat="40.09271586786057" lon="19.8871644339528"><ele>321.0</ele><time>2026-04-27T15:45:56Z</time></trkpt><trkpt lat="40.092715271588744" lon="19.88707725875754"><ele>320.99999999999994</ele><time>2026-04-27T15:45:58Z</time></trkpt><trkpt lat="40.092723439162945" lon="19.88699385180903"><ele>321.0</ele><time>2026-04-27T15:46:00Z</time></trkpt><trkpt lat="40.09273994203754" lon="19.88687983106265"><ele>321.0</ele><time>2026-04-27T15:46:03Z</time></trkpt><trkpt lat="40.09274370008009" lon="19.886793559946064"><ele>321.0</ele><time>2026-04-27T15:46:05Z</time></trkpt><trkpt lat="40.09270418662763" lon="19.886692361301918"><ele>321.0</ele><time>2026-04-27T15:46:07Z</time></trkpt><trkpt lat="40.0926490643955" lon="19.886589228341823"><ele>321.0</ele><time>2026-04-27T15:46:09Z</time></trkpt><trkpt lat="40.09262702841203" lon="19.886413974311594"><ele>321.0</ele><time>2026-04-27T15:46:11Z</time></trkpt><trkpt lat="40.092579715085606" lon="19.886323695932884"><ele>318.1666666666667</ele><time>2026-04-27T15:46:12Z</time></trkpt><trkpt lat="40.0925352829152" lon="19.886232586632836"><ele>315.3333333333333</ele><time>2026-04-27T15:46:13Z</time></trkpt><trkpt lat="40.09250760637714" lon="19.886107014204814"><ele>312.5</ele><time>2026-04-27T15:46:14Z</time></trkpt><trkpt lat="40.09249411066014" lon="19.885988509301377"><ele>309.66666666666663</ele><time>2026-04-27T15:46:15Z</time></trkpt><trkpt lat="40.09248531584909" lon="19.885899768219478"><ele>306.8333333333333</ele><time>2026-04-27T15:46:16Z</time></trkpt><trkpt lat="40.09246627393329" lon="19.88581091471436"><ele>304.0</ele><time>2026-04-27T15:46:17Z</time></trkpt><trkpt lat="40.0923609482463" lon="19.88573436136475"><ele>304.8333333333333</ele><time>2026-04-27T15:46:19Z</time></trkpt><trkpt lat="40.09226806391851" lon="19.88571593592305"><ele>305.66666666666663</ele><time>2026-04-27T15:46:21Z</time></trkpt><trkpt lat="40.092163321707005" lon="19.885761551765942"><ele>306.5</ele><time>2026-04-27T15:46:23Z</time></trkpt><trkpt lat="40.09210892527451" lon="19.88581119904178"><ele>307.3333333333333</ele><time>2026-04-27T15:46:24Z</time></trkpt><trkpt lat="40.0920514941863" lon="19.885874895156075"><ele>308.1666666666667</ele><time>2026-04-27T15:46:25Z</time></trkpt><trkpt lat="40.091989399375855" lon="19.885937736485676"><ele>309.0</ele><time>2026-04-27T15:46:26Z</time></trkpt><trkpt lat="40.09193864799467" lon="19.88601992249442"><ele>309.0</ele><time>2026-04-27T15:46:27Z</time></trkpt><trkpt lat="40.091891731571565" lon="19.88610650808399"><ele>309.0</ele><time>2026-04-27T15:46:28Z</time></trkpt><trkpt lat="40.09183449794592" lon="19.886185656595412"><ele>309.0</ele><time>2026-04-27T15:46:29Z</time></trkpt><trkpt lat="40.09176434053372" lon="19.886246767823472"><ele>309.0</ele><time>2026-04-27T15:46:30Z</time></trkpt><trkpt lat="40.09168756681283" lon="19.886292769673165"><ele>309.0</ele><time>2026-04-27T15:46:31Z</time></trkpt><trkpt lat="40.091618243687876" lon="19.886350279839082"><ele>309.0</ele><time>2026-04-27T15:46:32Z</time></trkpt><trkpt lat="40.09155316840265" lon="19.88644014349588"><ele>307.2</ele><time>2026-04-27T15:46:33Z</time></trkpt><trkpt lat="40.09148386381758" lon="19.886544993231723"><ele>305.4</ele><time>2026-04-27T15:46:34Z</time></trkpt><trkpt lat="40.09141592731992" lon="19.88665551392561"><ele>303.6</ele><time>2026-04-27T15:46:35Z</time></trkpt><trkpt lat="40.09135939429893" lon="19.88675151516946"><ele>301.8</ele><time>2026-04-27T15:46:36Z</time></trkpt><trkpt lat="40.091303589249094" lon="19.88682804650666"><ele>300.0</ele><time>2026-04-27T15:46:37Z</time></trkpt><trkpt lat="40.09122560706323" lon="19.88688824781506"><ele>304.0</ele><time>2026-04-27T15:46:38Z</time></trkpt><trkpt lat="40.091115184903366" lon="19.886868280943293"><ele>308.0</ele><time>2026-04-27T15:46:39Z</time></trkpt><trkpt lat="40.091022881158764" lon="19.886937017528446"><ele>312.0</ele><time>2026-04-27T15:46:40Z</time></trkpt><trkpt lat="40.09092349392601" lon="19.886989300392344"><ele>316.0</ele><time>2026-04-27T15:46:41Z</time></trkpt><trkpt lat="40.090825660513545" lon="19.887058913340507"><ele>320.0</ele><time>2026-04-27T15:46:42Z</time></trkpt><trkpt lat="40.09071914560864" lon="19.887121946811508"><ele>321.0</ele><time>2026-04-27T15:46:43Z</time></trkpt><trkpt lat="40.09061077728815" lon="19.887173906936415"><ele>322.0</ele><time>2026-04-27T15:46:44Z</time></trkpt><trkpt lat="40.09050326900777" lon="19.887231216282473"><ele>323.0</ele><time>2026-04-27T15:46:45Z</time></trkpt><trkpt lat="40.09042474371724" lon="19.887303447563404"><ele>324.0</ele><time>2026-04-27T15:46:46Z</time></trkpt><trkpt lat="40.090379473898615" lon="19.887377567767267"><ele>325.0</ele><time>2026-04-27T15:46:47Z</time></trkpt><trkpt lat="40.090344595179" lon="19.88746880545172"><ele>325.0</ele><time>2026-04-27T15:46:48Z</time></trkpt><trkpt lat="40.090330666754745" lon="19.8875641638482"><ele>325.0</ele><time>2026-04-27T15:46:49Z</time></trkpt><trkpt lat="40.09024988113795" lon="19.88764679465489"><ele>325.0</ele><time>2026-04-27T15:46:51Z</time></trkpt><trkpt lat="40.090156698199195" lon="19.887576266731493"><ele>325.0</ele><time>2026-04-27T15:46:53Z</time></trkpt><trkpt lat="40.090088614917995" lon="19.887533771871652"><ele>325.0</ele><time>2026-04-27T15:46:54Z</time></trkpt><trkpt lat="40.09000905401472" lon="19.887469700399137"><ele>328.8</ele><time>2026-04-27T15:46:55Z</time></trkpt><trkpt lat="40.089910053093625" lon="19.88739735473469"><ele>332.6</ele><time>2026-04-27T15:46:56Z</time></trkpt><trkpt lat="40.08979663832675" lon="19.887342908021054"><ele>336.4</ele><time>2026-04-27T15:46:57Z</time></trkpt><trkpt lat="40.08969299325719" lon="19.887300819663963"><ele>340.2</ele><time>2026-04-27T15:46:58Z</time></trkpt><trkpt lat="40.08961408169383" lon="19.88724311275417"><ele>344.0</ele><time>2026-04-27T15:46:59Z</time></trkpt><trkpt lat="40.0895382890626" lon="19.887229710522984"><ele>344.0</ele><time>2026-04-27T15:47:00Z</time></trkpt><trkpt lat="40.089469441979226" lon="19.887226468649246"><ele>344.0</ele><time>2026-04-27T15:47:01Z</time></trkpt><trkpt lat="40.08938664438345" lon="19.88725501997293"><ele>344.0</ele><time>2026-04-27T15:47:02Z</time></trkpt><trkpt lat="40.08930531103447" lon="19.88729506989749"><ele>344.0</ele><time>2026-04-27T15:47:03Z</time></trkpt><trkpt lat="40.089237205485965" lon="19.88727536912829"><ele>344.0</ele><time>2026-04-27T15:47:04Z</time></trkpt><trkpt lat="40.089163130027444" lon="19.88718186383501"><ele>344.0</ele><time>2026-04-27T15:47:06Z</time></trkpt><trkpt lat="40.08917552136701" lon="19.88708858413315"><ele>344.0</ele><time>2026-04-27T15:47:07Z</time></trkpt><trkpt lat="40.08914973611145" lon="19.886958240805356"><ele>344.0</ele><time>2026-04-27T15:47:08Z</time></trkpt><trkpt lat="40.08912898084404" lon="19.886835314765605"><ele>344.0</ele><time>2026-04-27T15:47:09Z</time></trkpt><trkpt lat="40.08903841969103" lon="19.886745755632088"><ele>344.0</ele><time>2026-04-27T15:47:10Z</time></trkpt><trkpt lat="40.088953434966754" lon="19.886673899609498"><ele>344.0</ele><time>2026-04-27T15:47:11Z</time></trkpt><trkpt lat="40.08885037044491" lon="19.886622411102845"><ele>345.2</ele><time>2026-04-27T15:47:12Z</time></trkpt><trkpt lat="40.08874167673521" lon="19.88660159209054"><ele>346.4</ele><time>2026-04-27T15:47:13Z</time></trkpt><trkpt lat="40.08864294635551" lon="19.88657437505987"><ele>347.6</ele><time>2026-04-27T15:47:14Z</time></trkpt><trkpt lat="40.088565556938065" lon="19.886500380892144"><ele>348.8</ele><time>2026-04-27T15:47:15Z</time></trkpt><trkpt lat="40.088529013177435" lon="19.886363030167953"><ele>350.0</ele><time>2026-04-27T15:47:16Z</time></trkpt><trkpt lat="40.08847104297581" lon="19.88626193229105"><ele>350.0</ele><time>2026-04-27T15:47:17Z</time></trkpt><trkpt lat="40.08839885843655" lon="19.88622634584887"><ele>350.0</ele><time>2026-04-27T15:47:18Z</time></trkpt><trkpt lat="40.08831890688442" lon="19.88619243125699"><ele>350.0</ele><time>2026-04-27T15:47:19Z</time></trkpt><trkpt lat="40.088217816482796" lon="19.88618083070229"><ele>350.0</ele><time>2026-04-27T15:47:20Z</time></trkpt><trkpt lat="40.0881548833086" lon="19.886112244924014"><ele>350.0</ele><time>2026-04-27T15:47:21Z</time></trkpt><trkpt lat="40.08810838720547" lon="19.88602663552224"><ele>350.0</ele><time>2026-04-27T15:47:22Z</time></trkpt><trkpt lat="40.08808122465109" lon="19.885915316834197"><ele>354.6</ele><time>2026-04-27T15:47:23Z</time></trkpt><trkpt lat="40.08805043085304" lon="19.88579505906113"><ele>359.2</ele><time>2026-04-27T15:47:24Z</time></trkpt><trkpt lat="40.088027591829075" lon="19.885665628597476"><ele>363.79999999999995</ele><time>2026-04-27T15:47:25Z</time></trkpt><trkpt lat="40.08797079776459" lon="19.885549154420243"><ele>368.4</ele><time>2026-04-27T15:47:26Z</time></trkpt><trkpt lat="40.08789034185521" lon="19.88544043828053"><ele>373.0</ele><time>2026-04-27T15:47:27Z</time></trkpt><trkpt lat="40.08778718520844" lon="19.88535739015669"><ele>373.0</ele><time>2026-04-27T15:47:28Z</time></trkpt><trkpt lat="40.087660028863134" lon="19.885283841225096"><ele>373.0</ele><time>2026-04-27T15:47:29Z</time></trkpt><trkpt lat="40.08753744140358" lon="19.885204142395892"><ele>373.0</ele><time>2026-04-27T15:47:30Z</time></trkpt><trkpt lat="40.0874257501964" lon="19.885116094988934"><ele>373.0</ele><time>2026-04-27T15:47:31Z</time></trkpt><trkpt lat="40.087314548125036" lon="19.885052483210412"><ele>373.2</ele><time>2026-04-27T15:47:32Z</time></trkpt><trkpt lat="40.087228450594324" lon="19.884980069281152"><ele>373.4</ele><time>2026-04-27T15:47:33Z</time></trkpt><trkpt lat="40.0871573327526" lon="19.884866435329393"><ele>373.59999999999997</ele><time>2026-04-27T15:47:34Z</time></trkpt><trkpt lat="40.08707704925872" lon="19.884737869414703"><ele>373.79999999999995</ele><time>2026-04-27T15:47:35Z</time></trkpt><trkpt lat="40.086995825251215" lon="19.88464960806238"><ele>374.0</ele><time>2026-04-27T15:47:36Z</time></trkpt><trkpt lat="40.086885207324144" lon="19.884570664263702"><ele>374.0</ele><time>2026-04-27T15:47:37Z</time></trkpt><trkpt lat="40.08678471696243" lon="19.88448030622707"><ele>374.0</ele><time>2026-04-27T15:47:38Z</time></trkpt><trkpt lat="40.08669735927896" lon="19.884353825067098"><ele>374.0</ele><time>2026-04-27T15:47:39Z</time></trkpt><trkpt lat="40.08660326484611" lon="19.88420805571924"><ele>374.0</ele><time>2026-04-27T15:47:40Z</time></trkpt><trkpt lat="40.08651687530327" lon="19.884098180878535"><ele>370.79999999999995</ele><time>2026-04-27T15:47:41Z</time></trkpt><trkpt lat="40.08644792581607" lon="19.88399641487693"><ele>367.59999999999997</ele><time>2026-04-27T15:47:42Z</time></trkpt><trkpt lat="40.08639881622659" lon="19.883893429284"><ele>364.4</ele><time>2026-04-27T15:47:43Z</time></trkpt><trkpt lat="40.086402768175596" lon="19.88377584933476"><ele>361.2</ele><time>2026-04-27T15:47:44Z</time></trkpt><trkpt lat="40.086380238723486" lon="19.883648905267822"><ele>358.0</ele><time>2026-04-27T15:47:45Z</time></trkpt><trkpt lat="40.086353723886646" lon="19.88350810958528"><ele>356.59999999999997</ele><time>2026-04-27T15:47:46Z</time></trkpt><trkpt lat="40.08631473446857" lon="19.883360304494055"><ele>355.2</ele><time>2026-04-27T15:47:47Z</time></trkpt><trkpt lat="40.08628360298253" lon="19.883241006839253"><ele>353.8</ele><time>2026-04-27T15:47:48Z</time></trkpt><trkpt lat="40.086255607268704" lon="19.88314758151099"><ele>352.4</ele><time>2026-04-27T15:47:49Z</time></trkpt><trkpt lat="40.08621712795293" lon="19.883067290238607"><ele>351.0</ele><time>2026-04-27T15:47:50Z</time></trkpt><trkpt lat="40.086162644037096" lon="19.882977157891983"><ele>351.0</ele><time>2026-04-27T15:47:51Z</time></trkpt><trkpt lat="40.08612801922939" lon="19.882866513803776"><ele>351.0</ele><time>2026-04-27T15:47:52Z</time></trkpt><trkpt lat="40.086073745415625" lon="19.882762521073023"><ele>351.0</ele><time>2026-04-27T15:47:53Z</time></trkpt><trkpt lat="40.086006485539784" lon="19.882645861797464"><ele>351.0</ele><time>2026-04-27T15:47:54Z</time></trkpt><trkpt lat="40.085915811777724" lon="19.88253376423435"><ele>351.0</ele><time>2026-04-27T15:47:55Z</time></trkpt><trkpt lat="40.08583057807109" lon="19.882420515007244"><ele>352.0</ele><time>2026-04-27T15:47:56Z</time></trkpt><trkpt lat="40.08577063812284" lon="19.882297949972724"><ele>353.0</ele><time>2026-04-27T15:47:57Z</time></trkpt><trkpt lat="40.08571152367889" lon="19.882142627624496"><ele>354.0</ele><time>2026-04-27T15:47:58Z</time></trkpt><trkpt lat="40.0856420034422" lon="19.88198179578428"><ele>355.0</ele><time>2026-04-27T15:47:59Z</time></trkpt><trkpt lat="40.08558320134363" lon="19.88184708666509"><ele>353.16666666666663</ele><time>2026-04-27T15:48:00Z</time></trkpt><trkpt lat="40.08553122097842" lon="19.881730465849255"><ele>351.3333333333333</ele><time>2026-04-27T15:48:01Z</time></trkpt><trkpt lat="40.08548208377832" lon="19.881636101670907"><ele>349.5</ele><time>2026-04-27T15:48:02Z</time></trkpt><trkpt lat="40.08543322548113" lon="19.881554865951824"><ele>347.6666666666667</ele><time>2026-04-27T15:48:03Z</time></trkpt><trkpt lat="40.08539075540773" lon="19.88147043929202"><ele>345.83333333333337</ele><time>2026-04-27T15:48:04Z</time></trkpt><trkpt lat="40.08535578444204" lon="19.8813937480604"><ele>344.0</ele><time>2026-04-27T15:48:05Z</time></trkpt><trkpt lat="40.08528072908589" lon="19.881302729556797"><ele>344.0</ele><time>2026-04-27T15:48:07Z</time></trkpt><trkpt lat="40.085194380075315" lon="19.881324075321952"><ele>344.0</ele><time>2026-04-27T15:48:09Z</time></trkpt><trkpt lat="40.08517353963035" lon="19.8814404140223"><ele>344.0</ele><time>2026-04-27T15:48:11Z</time></trkpt><trkpt lat="40.085229559670886" lon="19.88161515492093"><ele>344.0</ele><time>2026-04-27T15:48:13Z</time></trkpt><trkpt lat="40.085309039084976" lon="19.88168737632011"><ele>344.0</ele><time>2026-04-27T15:48:14Z</time></trkpt><trkpt lat="40.08536803935779" lon="19.881801834683376"><ele>341.4</ele><time>2026-04-27T15:48:15Z</time></trkpt><trkpt lat="40.08540208905127" lon="19.881935045472776"><ele>338.79999999999995</ele><time>2026-04-27T15:48:16Z</time></trkpt><trkpt lat="40.08543281251688" lon="19.882066117389346"><ele>336.20000000000005</ele><time>2026-04-27T15:48:17Z</time></trkpt><trkpt lat="40.08547080523766" lon="19.882206816290307"><ele>333.6</ele><time>2026-04-27T15:48:18Z</time></trkpt><trkpt lat="40.08548735463949" lon="19.882349932927756"><ele>331.0</ele><time>2026-04-27T15:48:19Z</time></trkpt><trkpt lat="40.085508623948684" lon="19.882466738843213"><ele>331.0</ele><time>2026-04-27T15:48:20Z</time></trkpt><trkpt lat="40.08554245233648" lon="19.882571927625925"><ele>331.0</ele><time>2026-04-27T15:48:21Z</time></trkpt><trkpt lat="40.08555500899539" lon="19.882671588302273"><ele>331.0</ele><time>2026-04-27T15:48:22Z</time></trkpt><trkpt lat="40.085569792318836" lon="19.882780787675905"><ele>331.0</ele><time>2026-04-27T15:48:23Z</time></trkpt><trkpt lat="40.08558987854693" lon="19.882896416289714"><ele>331.0</ele><time>2026-04-27T15:48:24Z</time></trkpt><trkpt lat="40.085622287230215" lon="19.88301256070662"><ele>331.0</ele><time>2026-04-27T15:48:25Z</time></trkpt><trkpt lat="40.08565355262177" lon="19.88311336114966"><ele>329.8333333333333</ele><time>2026-04-27T15:48:26Z</time></trkpt><trkpt lat="40.08567847972514" lon="19.883227365942652"><ele>328.66666666666663</ele><time>2026-04-27T15:48:27Z</time></trkpt><trkpt lat="40.085660292223224" lon="19.88333089927529"><ele>327.5</ele><time>2026-04-27T15:48:28Z</time></trkpt><trkpt lat="40.08563573779735" lon="19.883416426455337"><ele>326.3333333333333</ele><time>2026-04-27T15:48:29Z</time></trkpt><trkpt lat="40.08561084000695" lon="19.88352393553423"><ele>325.1666666666667</ele><time>2026-04-27T15:48:30Z</time></trkpt><trkpt lat="40.085560836051336" lon="19.883631591663566"><ele>324.0</ele><time>2026-04-27T15:48:31Z</time></trkpt><trkpt lat="40.08553136045023" lon="19.883733215046934"><ele>327.0</ele><time>2026-04-27T15:48:32Z</time></trkpt><trkpt lat="40.085533597604" lon="19.883839105935973"><ele>330.0</ele><time>2026-04-27T15:48:33Z</time></trkpt><trkpt lat="40.085546698972" lon="19.88396393035914"><ele>333.0</ele><time>2026-04-27T15:48:34Z</time></trkpt><trkpt lat="40.08552326403234" lon="19.884095400758085"><ele>336.0</ele><time>2026-04-27T15:48:35Z</time></trkpt><trkpt lat="40.085499607189355" lon="19.88422695579641"><ele>339.0</ele><time>2026-04-27T15:48:36Z</time></trkpt><trkpt lat="40.0855006510708" lon="19.884346172872853"><ele>344.0</ele><time>2026-04-27T15:48:37Z</time></trkpt><trkpt lat="40.085491286428926" lon="19.88443862942746"><ele>349.0</ele><time>2026-04-27T15:48:38Z</time></trkpt><trkpt lat="40.085414870606705" lon="19.884543892662755"><ele>354.0</ele><time>2026-04-27T15:48:40Z</time></trkpt><trkpt lat="40.08531682153882" lon="19.884497209037626"><ele>359.0</ele><time>2026-04-27T15:48:42Z</time></trkpt><trkpt lat="40.08525913814913" lon="19.88446174250459"><ele>364.0</ele><time>2026-04-27T15:48:43Z</time></trkpt><trkpt lat="40.085151210764685" lon="19.884415796229856"><ele>364.0</ele><time>2026-04-27T15:48:44Z</time></trkpt><trkpt lat="40.08503202638765" lon="19.884365335288887"><ele>364.0</ele><time>2026-04-27T15:48:45Z</time></trkpt><trkpt lat="40.0849432604762" lon="19.88432062579857"><ele>364.0</ele><time>2026-04-27T15:48:46Z</time></trkpt><trkpt lat="40.08487791411413" lon="19.8842853282296"><ele>364.0</ele><time>2026-04-27T15:48:47Z</time></trkpt><trkpt lat="40.08479077090061" lon="19.884289250021922"><ele>364.0</ele><time>2026-04-27T15:48:48Z</time></trkpt><trkpt lat="40.08468925626397" lon="19.884278991099354"><ele>361.5</ele><time>2026-04-27T15:48:49Z</time></trkpt><trkpt lat="40.084581400600214" lon="19.884282667448048"><ele>359.0</ele><time>2026-04-27T15:48:50Z</time></trkpt><trkpt lat="40.08448583048937" lon="19.884285168481743"><ele>356.5</ele><time>2026-04-27T15:48:51Z</time></trkpt><trkpt lat="40.084399410385075" lon="19.88427239085396"><ele>354.0</ele><time>2026-04-27T15:48:52Z</time></trkpt><trkpt lat="40.08432157513827" lon="19.884252906106763"><ele>351.5</ele><time>2026-04-27T15:48:53Z</time></trkpt><trkpt lat="40.08425076721456" lon="19.88424290929545"><ele>349.0</ele><time>2026-04-27T15:48:54Z</time></trkpt><trkpt lat="40.084182555028846" lon="19.884262976810845"><ele>349.0</ele><time>2026-04-27T15:48:55Z</time></trkpt><trkpt lat="40.08411342721385" lon="19.884319059953903"><ele>349.0</ele><time>2026-04-27T15:48:56Z</time></trkpt><trkpt lat="40.08405210276514" lon="19.884416324047972"><ele>349.0</ele><time>2026-04-27T15:48:57Z</time></trkpt><trkpt lat="40.08399806127476" lon="19.884497449946508"><ele>349.0</ele><time>2026-04-27T15:48:58Z</time></trkpt><trkpt lat="40.08393589785624" lon="19.884568878743835"><ele>349.0</ele><time>2026-04-27T15:48:59Z</time></trkpt><trkpt lat="40.08385198661526" lon="19.88454696570806"><ele>349.0</ele><time>2026-04-27T15:49:00Z</time></trkpt><trkpt lat="40.083752651411864" lon="19.884516728033034"><ele>346.5</ele><time>2026-04-27T15:49:01Z</time></trkpt><trkpt lat="40.08362915784055" lon="19.88453887859372"><ele>344.0</ele><time>2026-04-27T15:49:02Z</time></trkpt><trkpt lat="40.08349148001199" lon="19.88459631106755"><ele>341.5</ele><time>2026-04-27T15:49:03Z</time></trkpt><trkpt lat="40.0833570049996" lon="19.884648992748815"><ele>339.0</ele><time>2026-04-27T15:49:04Z</time></trkpt><trkpt lat="40.08323742642735" lon="19.88468811933035"><ele>334.0</ele><time>2026-04-27T15:49:05Z</time></trkpt><trkpt lat="40.08312114381882" lon="19.884681295168498"><ele>329.0</ele><time>2026-04-27T15:49:06Z</time></trkpt><trkpt lat="40.08300981680374" lon="19.884691451692685"><ele>324.0</ele><time>2026-04-27T15:49:07Z</time></trkpt><trkpt lat="40.08289092752444" lon="19.884740714099657"><ele>319.0</ele><time>2026-04-27T15:49:08Z</time></trkpt><trkpt lat="40.08277893544515" lon="19.88478850022242"><ele>319.0</ele><time>2026-04-27T15:49:09Z</time></trkpt><trkpt lat="40.08268472865791" lon="19.88485054444144"><ele>319.0</ele><time>2026-04-27T15:49:10Z</time></trkpt><trkpt lat="40.08258472522047" lon="19.8849334976546"><ele>319.0</ele><time>2026-04-27T15:49:11Z</time></trkpt><trkpt lat="40.08248092659332" lon="19.8850296488725"><ele>319.0</ele><time>2026-04-27T15:49:12Z</time></trkpt><trkpt lat="40.08238179726077" lon="19.885122026715724"><ele>321.0</ele><time>2026-04-27T15:49:13Z</time></trkpt><trkpt lat="40.08228101928997" lon="19.885207514125575"><ele>323.0</ele><time>2026-04-27T15:49:14Z</time></trkpt><trkpt lat="40.082174210549354" lon="19.885296091844054"><ele>325.0</ele><time>2026-04-27T15:49:15Z</time></trkpt><trkpt lat="40.08207459557497" lon="19.885361813972928"><ele>327.0</ele><time>2026-04-27T15:49:16Z</time></trkpt><trkpt lat="40.081993886428826" lon="19.885428403862768"><ele>327.0</ele><time>2026-04-27T15:49:17Z</time></trkpt><trkpt lat="40.08192091407775" lon="19.885487290071882"><ele>327.0</ele><time>2026-04-27T15:49:18Z</time></trkpt><trkpt lat="40.081861733874064" lon="19.88554234070364"><ele>327.0</ele><time>2026-04-27T15:49:19Z</time></trkpt><trkpt lat="40.08180043117582" lon="19.885599265919954"><ele>327.0</ele><time>2026-04-27T15:49:20Z</time></trkpt><trkpt lat="40.08173262915238" lon="19.885621516253003"><ele>327.0</ele><time>2026-04-27T15:49:21Z</time></trkpt><trkpt lat="40.08166095585472" lon="19.885594296126207"><ele>327.0</ele><time>2026-04-27T15:49:22Z</time></trkpt><trkpt lat="40.08158514025164" lon="19.885519656975806"><ele>330.1666666666667</ele><time>2026-04-27T15:49:23Z</time></trkpt><trkpt lat="40.08147996348603" lon="19.88552118335667"><ele>333.3333333333333</ele><time>2026-04-27T15:49:24Z</time></trkpt><trkpt lat="40.08140840499326" lon="19.88554193560633"><ele>336.5</ele><time>2026-04-27T15:49:25Z</time></trkpt><trkpt lat="40.08136635071283" lon="19.885478491192377"><ele>339.66666666666663</ele><time>2026-04-27T15:49:26Z</time></trkpt><trkpt lat="40.08132314471792" lon="19.885417517114675"><ele>342.8333333333333</ele><time>2026-04-27T15:49:27Z</time></trkpt><trkpt lat="40.081381921008095" lon="19.885301865242212"><ele>346.0</ele><time>2026-04-27T15:49:28Z</time></trkpt><trkpt lat="40.081373428764785" lon="19.88513236871594"><ele>342.0</ele><time>2026-04-27T15:49:29Z</time></trkpt><trkpt lat="40.081335709600566" lon="19.88494834333342"><ele>338.0</ele><time>2026-04-27T15:49:30Z</time></trkpt><trkpt lat="40.08129816770892" lon="19.884784177485837"><ele>334.0</ele><time>2026-04-27T15:49:31Z</time></trkpt><trkpt lat="40.08128080067788" lon="19.884640299493018"><ele>330.0</ele><time>2026-04-27T15:49:32Z</time></trkpt><trkpt lat="40.081218507551945" lon="19.88454717706154"><ele>330.0</ele><time>2026-04-27T15:49:33Z</time></trkpt><trkpt lat="40.081192517079984" lon="19.88445141556621"><ele>330.0</ele><time>2026-04-27T15:49:34Z</time></trkpt><trkpt lat="40.081075096652306" lon="19.884424392365997"><ele>330.0</ele><time>2026-04-27T15:49:35Z</time></trkpt><trkpt lat="40.080981282717495" lon="19.884404356922456"><ele>330.0</ele><time>2026-04-27T15:49:36Z</time></trkpt><trkpt lat="40.08091642198853" lon="19.88433771764564"><ele>330.0</ele><time>2026-04-27T15:49:37Z</time></trkpt><trkpt lat="40.080888890701004" lon="19.884221279448045"><ele>325.5</ele><time>2026-04-27T15:49:38Z</time></trkpt><trkpt lat="40.08089216674934" lon="19.88409914204813"><ele>321.0</ele><time>2026-04-27T15:49:39Z</time></trkpt><trkpt lat="40.08088334637102" lon="19.88394566952072"><ele>316.5</ele><time>2026-04-27T15:49:40Z</time></trkpt><trkpt lat="40.080883660425826" lon="19.88377110942008"><ele>312.0</ele><time>2026-04-27T15:49:41Z</time></trkpt><trkpt lat="40.080884601922165" lon="19.883621069929575"><ele>312.0</ele><time>2026-04-27T15:49:42Z</time></trkpt><trkpt lat="40.0808644783342" lon="19.88348017110754"><ele>312.0</ele><time>2026-04-27T15:49:43Z</time></trkpt><trkpt lat="40.08084055347091" lon="19.88333321459365"><ele>312.0</ele><time>2026-04-27T15:49:44Z</time></trkpt><trkpt lat="40.08078720382621" lon="19.88319044995336"><ele>312.0</ele><time>2026-04-27T15:49:45Z</time></trkpt><trkpt lat="40.0807205154836" lon="19.88305204789034"><ele>309.0</ele><time>2026-04-27T15:49:46Z</time></trkpt><trkpt lat="40.08066425497736" lon="19.882932680007553"><ele>306.0</ele><time>2026-04-27T15:49:47Z</time></trkpt><trkpt lat="40.08061129413924" lon="19.882803664805895"><ele>303.0</ele><time>2026-04-27T15:49:48Z</time></trkpt><trkpt lat="40.08055725093039" lon="19.882679364298095"><ele>300.0</ele><time>2026-04-27T15:49:49Z</time></trkpt><trkpt lat="40.08050322781658" lon="19.882580605773885"><ele>297.0</ele><time>2026-04-27T15:49:50Z</time></trkpt><trkpt lat="40.08042519582009" lon="19.882499759068313"><ele>297.0</ele><time>2026-04-27T15:49:51Z</time></trkpt><trkpt lat="40.08033555515606" lon="19.882426427360233"><ele>297.0</ele><time>2026-04-27T15:49:52Z</time></trkpt><trkpt lat="40.08024903271191" lon="19.882364377164734"><ele>297.0</ele><time>2026-04-27T15:49:53Z</time></trkpt><trkpt lat="40.0801637016944" lon="19.882302651415188"><ele>297.0</ele><time>2026-04-27T15:49:54Z</time></trkpt><trkpt lat="40.08007807793419" lon="19.882263416749677"><ele>297.0</ele><time>2026-04-27T15:49:55Z</time></trkpt><trkpt lat="40.07999188999363" lon="19.882242806858805"><ele>298.0</ele><time>2026-04-27T15:49:56Z</time></trkpt><trkpt lat="40.07990199059471" lon="19.88222876838235"><ele>299.0</ele><time>2026-04-27T15:49:57Z</time></trkpt><trkpt lat="40.07980188774382" lon="19.88221127859893"><ele>300.0</ele><time>2026-04-27T15:49:58Z</time></trkpt><trkpt lat="40.07969899273988" lon="19.882163422672388"><ele>301.0</ele><time>2026-04-27T15:49:59Z</time></trkpt><trkpt lat="40.07958746166704" lon="19.88214719770757"><ele>302.0</ele><time>2026-04-27T15:50:00Z</time></trkpt><trkpt lat="40.079485398298154" lon="19.88210649169477"><ele>302.0</ele><time>2026-04-27T15:50:01Z</time></trkpt><trkpt lat="40.07938753998965" lon="19.882071174260254"><ele>302.0</ele><time>2026-04-27T15:50:02Z</time></trkpt><trkpt lat="40.07929848022544" lon="19.882046018822003"><ele>302.0</ele><time>2026-04-27T15:50:03Z</time></trkpt><trkpt lat="40.07919888634058" lon="19.88201582458064"><ele>302.0</ele><time>2026-04-27T15:50:04Z</time></trkpt><trkpt lat="40.07908400635713" lon="19.881974601530963"><ele>302.0</ele><time>2026-04-27T15:50:05Z</time></trkpt><trkpt lat="40.07897594088747" lon="19.88194794175453"><ele>303.4</ele><time>2026-04-27T15:50:06Z</time></trkpt><trkpt lat="40.07887512572992" lon="19.88193004636175"><ele>304.79999999999995</ele><time>2026-04-27T15:50:07Z</time></trkpt><trkpt lat="40.07877129021412" lon="19.88190419109188"><ele>306.2</ele><time>2026-04-27T15:50:08Z</time></trkpt><trkpt lat="40.07867093587751" lon="19.881869023479517"><ele>307.59999999999997</ele><time>2026-04-27T15:50:09Z</time></trkpt><trkpt lat="40.07856943180115" lon="19.88182624334237"><ele>309.0</ele><time>2026-04-27T15:50:10Z</time></trkpt><trkpt lat="40.078463338066214" lon="19.881783315195886"><ele>304.0</ele><time>2026-04-27T15:50:11Z</time></trkpt><trkpt lat="40.078352641889474" lon="19.881750251206064"><ele>299.0</ele><time>2026-04-27T15:50:12Z</time></trkpt><trkpt lat="40.07825278620108" lon="19.881726825409935"><ele>294.0</ele><time>2026-04-27T15:50:13Z</time></trkpt><trkpt lat="40.078160860862894" lon="19.88169961732412"><ele>289.0</ele><time>2026-04-27T15:50:14Z</time></trkpt><trkpt lat="40.07806658483113" lon="19.881666085179987"><ele>284.0</ele><time>2026-04-27T15:50:15Z</time></trkpt><trkpt lat="40.07796333586737" lon="19.88164308623349"><ele>284.0</ele><time>2026-04-27T15:50:16Z</time></trkpt><trkpt lat="40.077856898735284" lon="19.88161939752124"><ele>284.0</ele><time>2026-04-27T15:50:17Z</time></trkpt><trkpt lat="40.077749021529826" lon="19.881598135286605"><ele>284.0</ele><time>2026-04-27T15:50:18Z</time></trkpt><trkpt lat="40.07765135792064" lon="19.881584300920043"><ele>284.0</ele><time>2026-04-27T15:50:19Z</time></trkpt><trkpt lat="40.0775650384746" lon="19.881593647980722"><ele>284.0</ele><time>2026-04-27T15:50:20Z</time></trkpt><trkpt lat="40.07747769969439" lon="19.8816151170345"><ele>287.83333333333337</ele><time>2026-04-27T15:50:21Z</time></trkpt><trkpt lat="40.077380578500595" lon="19.881620395678002"><ele>291.6666666666667</ele><time>2026-04-27T15:50:22Z</time></trkpt><trkpt lat="40.07729889904575" lon="19.88160423825759"><ele>295.5</ele><time>2026-04-27T15:50:23Z</time></trkpt><trkpt lat="40.07723610673947" lon="19.881577436418734"><ele>299.3333333333333</ele><time>2026-04-27T15:50:24Z</time></trkpt><trkpt lat="40.077178761958805" lon="19.881447580707736"><ele>303.16666666666663</ele><time>2026-04-27T15:50:26Z</time></trkpt><trkpt lat="40.0771800209439" lon="19.881351426324073"><ele>307.0</ele><time>2026-04-27T15:50:27Z</time></trkpt><trkpt lat="40.07719810634514" lon="19.881246156228155"><ele>307.0</ele><time>2026-04-27T15:50:28Z</time></trkpt><trkpt lat="40.07724225956694" lon="19.88114352092627"><ele>307.0</ele><time>2026-04-27T15:50:29Z</time></trkpt><trkpt lat="40.07729345671644" lon="19.88105461019438"><ele>307.0</ele><time>2026-04-27T15:50:30Z</time></trkpt><trkpt lat="40.07735747299879" lon="19.88097998805796"><ele>307.0</ele><time>2026-04-27T15:50:31Z</time></trkpt><trkpt lat="40.07743181177033" lon="19.88091759046462"><ele>307.0</ele><time>2026-04-27T15:50:32Z</time></trkpt><trkpt lat="40.07751244031385" lon="19.8808511714023"><ele>307.0</ele><time>2026-04-27T15:50:33Z</time></trkpt><trkpt lat="40.07759174134943" lon="19.88076482939412"><ele>303.2</ele><time>2026-04-27T15:50:34Z</time></trkpt><trkpt lat="40.07765718664282" lon="19.880677853509106"><ele>299.4</ele><time>2026-04-27T15:50:35Z</time></trkpt><trkpt lat="40.07771010330446" lon="19.880581993862577"><ele>295.6</ele><time>2026-04-27T15:50:36Z</time></trkpt><trkpt lat="40.07774811022005" lon="19.880454276558435"><ele>291.8</ele><time>2026-04-27T15:50:37Z</time></trkpt><trkpt lat="40.077782807798386" lon="19.88033187191279"><ele>288.0</ele><time>2026-04-27T15:50:38Z</time></trkpt><trkpt lat="40.07783567427235" lon="19.88023207384067"><ele>288.0</ele><time>2026-04-27T15:50:39Z</time></trkpt><trkpt lat="40.07791157247758" lon="19.880128354487866"><ele>288.0</ele><time>2026-04-27T15:50:40Z</time></trkpt><trkpt lat="40.07798218348063" lon="19.880022825029098"><ele>288.0</ele><time>2026-04-27T15:50:41Z</time></trkpt><trkpt lat="40.07803908074506" lon="19.879904794447743"><ele>288.0</ele><time>2026-04-27T15:50:42Z</time></trkpt><trkpt lat="40.07807829762513" lon="19.879805982776016"><ele>288.0</ele><time>2026-04-27T15:50:43Z</time></trkpt><trkpt lat="40.07809565090525" lon="19.879711199934214"><ele>293.0</ele><time>2026-04-27T15:50:44Z</time></trkpt><trkpt lat="40.07809276139806" lon="19.87960176595914"><ele>298.0</ele><time>2026-04-27T15:50:45Z</time></trkpt><trkpt lat="40.078069067807" lon="19.879478606700406"><ele>303.0</ele><time>2026-04-27T15:50:46Z</time></trkpt><trkpt lat="40.0780302248485" lon="19.879349845881467"><ele>308.0</ele><time>2026-04-27T15:50:47Z</time></trkpt><trkpt lat="40.0779927985835" lon="19.879212993560568"><ele>313.0</ele><time>2026-04-27T15:50:48Z</time></trkpt><trkpt lat="40.0779560808777" lon="19.87906865003175"><ele>313.75</ele><time>2026-04-27T15:50:49Z</time></trkpt><trkpt lat="40.077931103570656" lon="19.87891624624224"><ele>314.5</ele><time>2026-04-27T15:50:50Z</time></trkpt><trkpt lat="40.07791401952547" lon="19.878751576196876"><ele>315.25</ele><time>2026-04-27T15:50:51Z</time></trkpt><trkpt lat="40.07788620881728" lon="19.87859284836023"><ele>316.0</ele><time>2026-04-27T15:50:52Z</time></trkpt><trkpt lat="40.077828859029445" lon="19.878455809050173"><ele>313.5</ele><time>2026-04-27T15:50:53Z</time></trkpt><trkpt lat="40.07777007288834" lon="19.87835071676645"><ele>311.0</ele><time>2026-04-27T15:50:54Z</time></trkpt><trkpt lat="40.077705036755546" lon="19.878264092449935"><ele>308.5</ele><time>2026-04-27T15:50:55Z</time></trkpt><trkpt lat="40.07765882622187" lon="19.878168064701665"><ele>306.0</ele><time>2026-04-27T15:50:56Z</time></trkpt><trkpt lat="40.07765788679396" lon="19.878075805592694"><ele>303.5</ele><time>2026-04-27T15:50:57Z</time></trkpt><trkpt lat="40.07768410160165" lon="19.877977096934806"><ele>301.0</ele><time>2026-04-27T15:50:58Z</time></trkpt><trkpt lat="40.077714268448" lon="19.877853455111502"><ele>301.0</ele><time>2026-04-27T15:50:59Z</time></trkpt><trkpt lat="40.077745828626654" lon="19.877701507777694"><ele>301.0</ele><time>2026-04-27T15:51:00Z</time></trkpt><trkpt lat="40.077766636759506" lon="19.877553830901768"><ele>301.0</ele><time>2026-04-27T15:51:01Z</time></trkpt><trkpt lat="40.07778300125821" lon="19.87743065435497"><ele>301.0</ele><time>2026-04-27T15:51:02Z</time></trkpt><trkpt lat="40.07780814413515" lon="19.877348719459704"><ele>301.0</ele><time>2026-04-27T15:51:03Z</time></trkpt><trkpt lat="40.077858693836646" lon="19.87729183117375"><ele>302.0</ele><time>2026-04-27T15:51:04Z</time></trkpt><trkpt lat="40.077929099749944" lon="19.87727505927723"><ele>303.0</ele><time>2026-04-27T15:51:05Z</time></trkpt><trkpt lat="40.07801658208566" lon="19.87727673776374"><ele>304.0</ele><time>2026-04-27T15:51:06Z</time></trkpt><trkpt lat="40.07812232153634" lon="19.877263800500106"><ele>305.0</ele><time>2026-04-27T15:51:07Z</time></trkpt><trkpt lat="40.07822890245132" lon="19.877234091571278"><ele>306.0</ele><time>2026-04-27T15:51:08Z</time></trkpt><trkpt lat="40.07831604060378" lon="19.877197813666648"><ele>306.5</ele><time>2026-04-27T15:51:09Z</time></trkpt><trkpt lat="40.078378122443794" lon="19.877141747366267"><ele>307.0</ele><time>2026-04-27T15:51:10Z</time></trkpt><trkpt lat="40.07842370291543" lon="19.87705147811246"><ele>307.5</ele><time>2026-04-27T15:51:11Z</time></trkpt><trkpt lat="40.07845486249556" lon="19.87694532536601"><ele>308.0</ele><time>2026-04-27T15:51:12Z</time></trkpt><trkpt lat="40.07847292444079" lon="19.876832612878815"><ele>308.5</ele><time>2026-04-27T15:51:13Z</time></trkpt><trkpt lat="40.078478525523806" lon="19.87671000125383"><ele>309.0</ele><time>2026-04-27T15:51:14Z</time></trkpt><trkpt lat="40.078477865455234" lon="19.876586450916985"><ele>309.0</ele><time>2026-04-27T15:51:15Z</time></trkpt><trkpt lat="40.07848098872295" lon="19.87644290735207"><ele>309.0</ele><time>2026-04-27T15:51:16Z</time></trkpt><trkpt lat="40.07849207305466" lon="19.87629270579529"><ele>309.0</ele><time>2026-04-27T15:51:17Z</time></trkpt><trkpt lat="40.07850735672156" lon="19.87616748945646"><ele>309.0</ele><time>2026-04-27T15:51:18Z</time></trkpt><trkpt lat="40.0785112283013" lon="19.876078555662787"><ele>309.0</ele><time>2026-04-27T15:51:19Z</time></trkpt><trkpt lat="40.078466610424016" lon="19.87593759005072"><ele>308.0</ele><time>2026-04-27T15:51:21Z</time></trkpt><trkpt lat="40.07836190631654" lon="19.87585646753578"><ele>307.0</ele><time>2026-04-27T15:51:23Z</time></trkpt><trkpt lat="40.07822486503443" lon="19.87582759780405"><ele>306.0</ele><time>2026-04-27T15:51:25Z</time></trkpt><trkpt lat="40.07814228522247" lon="19.87579465928096"><ele>305.0</ele><time>2026-04-27T15:51:26Z</time></trkpt><trkpt lat="40.078051935538284" lon="19.875752779488668"><ele>304.0</ele><time>2026-04-27T15:51:27Z</time></trkpt><trkpt lat="40.077964065892736" lon="19.875704516666524"><ele>307.0</ele><time>2026-04-27T15:51:28Z</time></trkpt><trkpt lat="40.07789475767605" lon="19.87564325562503"><ele>310.0</ele><time>2026-04-27T15:51:29Z</time></trkpt><trkpt lat="40.07782915336447" lon="19.875560385820997"><ele>313.0</ele><time>2026-04-27T15:51:30Z</time></trkpt><trkpt lat="40.077751123333805" lon="19.875463204770476"><ele>316.0</ele><time>2026-04-27T15:51:31Z</time></trkpt><trkpt lat="40.077659639847326" lon="19.87539088344293"><ele>319.0</ele><time>2026-04-27T15:51:32Z</time></trkpt><trkpt lat="40.07755905892134" lon="19.875322102803057"><ele>319.0</ele><time>2026-04-27T15:51:33Z</time></trkpt><trkpt lat="40.077467573248576" lon="19.875218976553906"><ele>319.0</ele><time>2026-04-27T15:51:34Z</time></trkpt><trkpt lat="40.077386826320534" lon="19.875105121247714"><ele>319.0</ele><time>2026-04-27T15:51:35Z</time></trkpt><trkpt lat="40.077324404517256" lon="19.874998936913777"><ele>319.0</ele><time>2026-04-27T15:51:36Z</time></trkpt><trkpt lat="40.077265772082406" lon="19.874895467018476"><ele>319.0</ele><time>2026-04-27T15:51:37Z</time></trkpt><trkpt lat="40.0772065039864" lon="19.87480883684662"><ele>320.5</ele><time>2026-04-27T15:51:38Z</time></trkpt><trkpt lat="40.07712331719296" lon="19.874721148627156"><ele>322.0</ele><time>2026-04-27T15:51:39Z</time></trkpt><trkpt lat="40.07702161244267" lon="19.874653992555846"><ele>323.5</ele><time>2026-04-27T15:51:40Z</time></trkpt><trkpt lat="40.07690811037152" lon="19.874602691789832"><ele>325.0</ele><time>2026-04-27T15:51:41Z</time></trkpt><trkpt lat="40.076791550419394" lon="19.87454983497309"><ele>325.0</ele><time>2026-04-27T15:51:42Z</time></trkpt><trkpt lat="40.07669136070969" lon="19.874497030126374"><ele>325.0</ele><time>2026-04-27T15:51:43Z</time></trkpt><trkpt lat="40.076608735336826" lon="19.874451838665813"><ele>325.0</ele><time>2026-04-27T15:51:44Z</time></trkpt><trkpt lat="40.07653423232989" lon="19.874385123595147"><ele>325.0</ele><time>2026-04-27T15:51:45Z</time></trkpt><trkpt lat="40.07647468562219" lon="19.87429410899121"><ele>325.0</ele><time>2026-04-27T15:51:46Z</time></trkpt><trkpt lat="40.07642690474689" lon="19.874177579180827"><ele>325.5</ele><time>2026-04-27T15:51:47Z</time></trkpt><trkpt lat="40.07638061264871" lon="19.87404268745649"><ele>326.0</ele><time>2026-04-27T15:51:48Z</time></trkpt><trkpt lat="40.076331451027684" lon="19.873901085065988"><ele>326.5</ele><time>2026-04-27T15:51:49Z</time></trkpt><trkpt lat="40.076268893596165" lon="19.873761412833655"><ele>327.0</ele><time>2026-04-27T15:51:50Z</time></trkpt><trkpt lat="40.07621043920496" lon="19.873634169615766"><ele>327.0</ele><time>2026-04-27T15:51:51Z</time></trkpt><trkpt lat="40.07616461021161" lon="19.873533121695797"><ele>327.0</ele><time>2026-04-27T15:51:52Z</time></trkpt><trkpt lat="40.076117846571286" lon="19.873455243593934"><ele>327.0</ele><time>2026-04-27T15:51:53Z</time></trkpt><trkpt lat="40.07605943204761" lon="19.873402054073797"><ele>327.0</ele><time>2026-04-27T15:51:54Z</time></trkpt><trkpt lat="40.07598274612656" lon="19.873358976077643"><ele>327.0</ele><time>2026-04-27T15:51:55Z</time></trkpt><trkpt lat="40.07588863381871" lon="19.87331928645437"><ele>327.0</ele><time>2026-04-27T15:51:56Z</time></trkpt><trkpt lat="40.075783937206246" lon="19.873269480781286"><ele>326.40000000000003</ele><time>2026-04-27T15:51:57Z</time></trkpt><trkpt lat="40.07570151082274" lon="19.873207663918212"><ele>325.8</ele><time>2026-04-27T15:51:58Z</time></trkpt><trkpt lat="40.075624394251825" lon="19.87312838701217"><ele>325.2</ele><time>2026-04-27T15:51:59Z</time></trkpt><trkpt lat="40.075549839806186" lon="19.873036847507844"><ele>324.6</ele><time>2026-04-27T15:52:00Z</time></trkpt><trkpt lat="40.075480467297375" lon="19.87293597328095"><ele>324.0</ele><time>2026-04-27T15:52:01Z</time></trkpt><trkpt lat="40.075424067817316" lon="19.872844198038212"><ele>324.0</ele><time>2026-04-27T15:52:02Z</time></trkpt><trkpt lat="40.07535800167787" lon="19.872756036537083"><ele>324.0</ele><time>2026-04-27T15:52:03Z</time></trkpt><trkpt lat="40.075293166723775" lon="19.87268119053021"><ele>324.0</ele><time>2026-04-27T15:52:04Z</time></trkpt><trkpt lat="40.075233234633664" lon="19.87261297603371"><ele>324.0</ele><time>2026-04-27T15:52:05Z</time></trkpt><trkpt lat="40.07516890920025" lon="19.872555904257897"><ele>324.0</ele><time>2026-04-27T15:52:06Z</time></trkpt><trkpt lat="40.07508863487449" lon="19.872510874272272"><ele>324.0</ele><time>2026-04-27T15:52:07Z</time></trkpt><trkpt lat="40.07497502819737" lon="19.872483668936155"><ele>319.0</ele><time>2026-04-27T15:52:08Z</time></trkpt><trkpt lat="40.07485279945326" lon="19.872448982521338"><ele>314.0</ele><time>2026-04-27T15:52:09Z</time></trkpt><trkpt lat="40.07473259169759" lon="19.872396882584646"><ele>309.0</ele><time>2026-04-27T15:52:10Z</time></trkpt><trkpt lat="40.07461325506422" lon="19.872322692188394"><ele>304.0</ele><time>2026-04-27T15:52:11Z</time></trkpt><trkpt lat="40.074505160087284" lon="19.872258996642184"><ele>304.0</ele><time>2026-04-27T15:52:12Z</time></trkpt><trkpt lat="40.07439871939459" lon="19.872220260798187"><ele>304.0</ele><time>2026-04-27T15:52:13Z</time></trkpt><trkpt lat="40.0742989680338" lon="19.87219085532565"><ele>304.0</ele><time>2026-04-27T15:52:14Z</time></trkpt><trkpt lat="40.07419478040181" lon="19.872145624169658"><ele>304.0</ele><time>2026-04-27T15:52:15Z</time></trkpt><trkpt lat="40.074092772379814" lon="19.87208006818173"><ele>304.0</ele><time>2026-04-27T15:52:16Z</time></trkpt><trkpt lat="40.073988560440796" lon="19.87200902893738"><ele>306.2</ele><time>2026-04-27T15:52:17Z</time></trkpt><trkpt lat="40.07389184023258" lon="19.87194796558136"><ele>308.4</ele><time>2026-04-27T15:52:18Z</time></trkpt><trkpt lat="40.073801274251935" lon="19.871903249819216"><ele>310.6</ele><time>2026-04-27T15:52:19Z</time></trkpt><trkpt lat="40.07371712880365" lon="19.8718757052767"><ele>312.8</ele><time>2026-04-27T15:52:20Z</time></trkpt><trkpt lat="40.073630437410046" lon="19.871845804188737"><ele>315.0</ele><time>2026-04-27T15:52:21Z</time></trkpt><trkpt lat="40.07352157472818" lon="19.87180289457262"><ele>312.1666666666667</ele><time>2026-04-27T15:52:22Z</time></trkpt><trkpt lat="40.07342301090502" lon="19.87176027150051"><ele>309.3333333333333</ele><time>2026-04-27T15:52:23Z</time></trkpt><trkpt lat="40.073338005354614" lon="19.87172767867106"><ele>306.5</ele><time>2026-04-27T15:52:24Z</time></trkpt><trkpt lat="40.07326209384818" lon="19.871698769233987"><ele>303.66666666666663</ele><time>2026-04-27T15:52:25Z</time></trkpt><trkpt lat="40.07318189910469" lon="19.87167262057777"><ele>300.8333333333333</ele><time>2026-04-27T15:52:26Z</time></trkpt><trkpt lat="40.07310586610095" lon="19.871669562862067"><ele>298.0</ele><time>2026-04-27T15:52:27Z</time></trkpt><trkpt lat="40.07303414146055" lon="19.87168880643639"><ele>298.0</ele><time>2026-04-27T15:52:28Z</time></trkpt><trkpt lat="40.072960940744544" lon="19.8717418876684"><ele>298.0</ele><time>2026-04-27T15:52:29Z</time></trkpt><trkpt lat="40.072895674885295" lon="19.871799863450132"><ele>298.0</ele><time>2026-04-27T15:52:30Z</time></trkpt><trkpt lat="40.072790731216614" lon="19.871834720479786"><ele>298.0</ele><time>2026-04-27T15:52:32Z</time></trkpt><trkpt lat="40.07271155268136" lon="19.871737963533857"><ele>298.0</ele><time>2026-04-27T15:52:34Z</time></trkpt><trkpt lat="40.07271025749453" lon="19.871579814340457"><ele>298.0</ele><time>2026-04-27T15:52:36Z</time></trkpt><trkpt lat="40.07272980913067" lon="19.8714840831494"><ele>298.0</ele><time>2026-04-27T15:52:37Z</time></trkpt><trkpt lat="40.07275478235696" lon="19.871362604452244"><ele>298.0</ele><time>2026-04-27T15:52:38Z</time></trkpt><trkpt lat="40.07277591333465" lon="19.871243120272847"><ele>298.0</ele><time>2026-04-27T15:52:39Z</time></trkpt><trkpt lat="40.07278658204015" lon="19.871131859917124"><ele>298.0</ele><time>2026-04-27T15:52:40Z</time></trkpt><trkpt lat="40.07278039940536" lon="19.871031993347447"><ele>298.0</ele><time>2026-04-27T15:52:41Z</time></trkpt><trkpt lat="40.07275485457745" lon="19.870939628893723"><ele>295.8</ele><time>2026-04-27T15:52:42Z</time></trkpt><trkpt lat="40.072705102917496" lon="19.870853508789875"><ele>293.6</ele><time>2026-04-27T15:52:43Z</time></trkpt><trkpt lat="40.072652047042816" lon="19.870753401796193"><ele>291.4</ele><time>2026-04-27T15:52:44Z</time></trkpt><trkpt lat="40.07259837953903" lon="19.870639011014717"><ele>289.2</ele><time>2026-04-27T15:52:45Z</time></trkpt><trkpt lat="40.07255064654314" lon="19.8705144823058"><ele>287.0</ele><time>2026-04-27T15:52:46Z</time></trkpt><trkpt lat="40.072501836205156" lon="19.870390393391094"><ele>287.0</ele><time>2026-04-27T15:52:47Z</time></trkpt><trkpt lat="40.07244476649823" lon="19.870294096946836"><ele>287.0</ele><time>2026-04-27T15:52:48Z</time></trkpt><trkpt lat="40.07237397220504" lon="19.870210952237805"><ele>287.0</ele><time>2026-04-27T15:52:49Z</time></trkpt><trkpt lat="40.07230867866955" lon="19.870126739082878"><ele>287.0</ele><time>2026-04-27T15:52:50Z</time></trkpt><trkpt lat="40.072268715673545" lon="19.87004135458702"><ele>287.0</ele><time>2026-04-27T15:52:51Z</time></trkpt><trkpt lat="40.072252791266024" lon="19.869941877466836"><ele>287.0</ele><time>2026-04-27T15:52:52Z</time></trkpt><trkpt lat="40.072258945505034" lon="19.86982974361556"><ele>288.8</ele><time>2026-04-27T15:52:53Z</time></trkpt><trkpt lat="40.072285981079574" lon="19.869704517662967"><ele>290.6</ele><time>2026-04-27T15:52:54Z</time></trkpt><trkpt lat="40.07230102549267" lon="19.86959225990035"><ele>292.40000000000003</ele><time>2026-04-27T15:52:55Z</time></trkpt><trkpt lat="40.072294761692774" lon="19.869474988730566"><ele>294.2</ele><time>2026-04-27T15:52:56Z</time></trkpt><trkpt lat="40.07228304517879" lon="19.869346666315135"><ele>296.0</ele><time>2026-04-27T15:52:57Z</time></trkpt><trkpt lat="40.07226213464136" lon="19.869217510715597"><ele>296.0</ele><time>2026-04-27T15:52:58Z</time></trkpt><trkpt lat="40.072233240709465" lon="19.869107022628558"><ele>296.0</ele><time>2026-04-27T15:52:59Z</time></trkpt><trkpt lat="40.0721948602343" lon="19.869030882647696"><ele>296.0</ele><time>2026-04-27T15:53:00Z</time></trkpt><trkpt lat="40.07213545525482" lon="19.868955754963974"><ele>296.0</ele><time>2026-04-27T15:53:01Z</time></trkpt><trkpt lat="40.072054075800004" lon="19.86887613965456"><ele>296.0</ele><time>2026-04-27T15:53:02Z</time></trkpt><trkpt lat="40.0719635004683" lon="19.868800303359073"><ele>296.0</ele><time>2026-04-27T15:53:03Z</time></trkpt><trkpt lat="40.07188840509086" lon="19.868715038716324"><ele>296.0</ele><time>2026-04-27T15:53:04Z</time></trkpt><trkpt lat="40.071835458678535" lon="19.868611398186367"><ele>296.0</ele><time>2026-04-27T15:53:05Z</time></trkpt><trkpt lat="40.07179067826906" lon="19.868484917615973"><ele>296.0</ele><time>2026-04-27T15:53:06Z</time></trkpt><trkpt lat="40.07175343705474" lon="19.868334548830127"><ele>296.0</ele><time>2026-04-27T15:53:07Z</time></trkpt><trkpt lat="40.07171456726964" lon="19.868185095197976"><ele>293.25</ele><time>2026-04-27T15:53:08Z</time></trkpt><trkpt lat="40.07167324669395" lon="19.8680362786589"><ele>290.5</ele><time>2026-04-27T15:53:09Z</time></trkpt><trkpt lat="40.071633546022866" lon="19.86787314912351"><ele>287.75</ele><time>2026-04-27T15:53:10Z</time></trkpt><trkpt lat="40.07159391872059" lon="19.86769994907742"><ele>285.0</ele><time>2026-04-27T15:53:11Z</time></trkpt><trkpt lat="40.071560067668784" lon="19.867544890278445"><ele>285.0</ele><time>2026-04-27T15:53:12Z</time></trkpt><trkpt lat="40.071534467861866" lon="19.867409011899205"><ele>285.0</ele><time>2026-04-27T15:53:13Z</time></trkpt><trkpt lat="40.07151015470329" lon="19.867287741006173"><ele>285.0</ele><time>2026-04-27T15:53:14Z</time></trkpt><trkpt lat="40.07148362595365" lon="19.867166461184656"><ele>285.0</ele><time>2026-04-27T15:53:15Z</time></trkpt><trkpt lat="40.07145553126665" lon="19.86704382112071"><ele>285.0</ele><time>2026-04-27T15:53:16Z</time></trkpt><trkpt lat="40.07142857198199" lon="19.8669345959668"><ele>285.0</ele><time>2026-04-27T15:53:17Z</time></trkpt><trkpt lat="40.07139778404569" lon="19.866835401185426"><ele>285.0</ele><time>2026-04-27T15:53:18Z</time></trkpt><trkpt lat="40.07135321426858" lon="19.866743741382987"><ele>285.0</ele><time>2026-04-27T15:53:19Z</time></trkpt><trkpt lat="40.07129849388869" lon="19.866668506905203"><ele>285.0</ele><time>2026-04-27T15:53:20Z</time></trkpt><trkpt lat="40.07123407970925" lon="19.866608081049186"><ele>285.0</ele><time>2026-04-27T15:53:21Z</time></trkpt><trkpt lat="40.071166234443545" lon="19.866566766013456"><ele>285.0</ele><time>2026-04-27T15:53:22Z</time></trkpt><trkpt lat="40.071086943841976" lon="19.86654344761056"><ele>284.6666666666667</ele><time>2026-04-27T15:53:23Z</time></trkpt><trkpt lat="40.070998361183506" lon="19.86653083963907"><ele>284.3333333333333</ele><time>2026-04-27T15:53:24Z</time></trkpt><trkpt lat="40.07090728454171" lon="19.86652894753181"><ele>284.0</ele><time>2026-04-27T15:53:25Z</time></trkpt><trkpt lat="40.07081496858445" lon="19.86652193723741"><ele>283.66666666666663</ele><time>2026-04-27T15:53:26Z</time></trkpt><trkpt lat="40.070730878260974" lon="19.866501195964712"><ele>283.3333333333333</ele><time>2026-04-27T15:53:27Z</time></trkpt><trkpt lat="40.07065209817937" lon="19.866465519069518"><ele>283.0</ele><time>2026-04-27T15:53:28Z</time></trkpt><trkpt lat="40.07057624322056" lon="19.866413816624277"><ele>283.0</ele><time>2026-04-27T15:53:29Z</time></trkpt><trkpt lat="40.07050917503939" lon="19.866330562731086"><ele>283.0</ele><time>2026-04-27T15:53:30Z</time></trkpt><trkpt lat="40.070449319194864" lon="19.866219329763926"><ele>283.0</ele><time>2026-04-27T15:53:31Z</time></trkpt><trkpt lat="40.07039817367657" lon="19.866105287841748"><ele>283.0</ele><time>2026-04-27T15:53:32Z</time></trkpt><trkpt lat="40.07033882535833" lon="19.8659931680774"><ele>283.0</ele><time>2026-04-27T15:53:33Z</time></trkpt><trkpt lat="40.07027560799732" lon="19.86588459518586"><ele>285.4</ele><time>2026-04-27T15:53:34Z</time></trkpt><trkpt lat="40.07021169258424" lon="19.865777016144012"><ele>287.8</ele><time>2026-04-27T15:53:35Z</time></trkpt><trkpt lat="40.07014724602689" lon="19.865669156527968"><ele>290.2</ele><time>2026-04-27T15:53:36Z</time></trkpt><trkpt lat="40.070085433586755" lon="19.865573695205093"><ele>292.6</ele><time>2026-04-27T15:53:37Z</time></trkpt><trkpt lat="40.07001653967743" lon="19.865490018179692"><ele>295.0</ele><time>2026-04-27T15:53:38Z</time></trkpt><trkpt lat="40.069929126950804" lon="19.865422771624036"><ele>295.0</ele><time>2026-04-27T15:53:39Z</time></trkpt><trkpt lat="40.069829970280324" lon="19.865363228596813"><ele>295.0</ele><time>2026-04-27T15:53:40Z</time></trkpt><trkpt lat="40.06973687864752" lon="19.865305516022392"><ele>295.0</ele><time>2026-04-27T15:53:41Z</time></trkpt><trkpt lat="40.069651022935595" lon="19.86522696980359"><ele>295.0</ele><time>2026-04-27T15:53:42Z</time></trkpt><trkpt lat="40.06957687667281" lon="19.865121435907973"><ele>295.0</ele><time>2026-04-27T15:53:43Z</time></trkpt><trkpt lat="40.0695111756364" lon="19.864987097829005"><ele>286.25</ele><time>2026-04-27T15:53:44Z</time></trkpt><trkpt lat="40.06944063345998" lon="19.864841610855976"><ele>277.5</ele><time>2026-04-27T15:53:45Z</time></trkpt><trkpt lat="40.06936389826693" lon="19.864722302888154"><ele>268.75</ele><time>2026-04-27T15:53:46Z</time></trkpt><trkpt lat="40.0692905124513" lon="19.864617920657377"><ele>260.0</ele><time>2026-04-27T15:53:47Z</time></trkpt><trkpt lat="40.06922025931134" lon="19.864517219016523"><ele>260.0</ele><time>2026-04-27T15:53:48Z</time></trkpt><trkpt lat="40.06915203340933" lon="19.864428028495496"><ele>260.0</ele><time>2026-04-27T15:53:49Z</time></trkpt><trkpt lat="40.06908018677873" lon="19.864350116456137"><ele>260.0</ele><time>2026-04-27T15:53:50Z</time></trkpt><trkpt lat="40.06900496772299" lon="19.864298903423077"><ele>260.0</ele><time>2026-04-27T15:53:51Z</time></trkpt><trkpt lat="40.06893346319192" lon="19.864252364865056"><ele>260.0</ele><time>2026-04-27T15:53:52Z</time></trkpt><trkpt lat="40.06887590800629" lon="19.864192851966287"><ele>260.0</ele><time>2026-04-27T15:53:53Z</time></trkpt><trkpt lat="40.06884770848809" lon="19.864106686019962"><ele>263.6</ele><time>2026-04-27T15:53:54Z</time></trkpt><trkpt lat="40.06884338799217" lon="19.864006024862196"><ele>267.2</ele><time>2026-04-27T15:53:55Z</time></trkpt><trkpt lat="40.06888115609428" lon="19.863911996753455"><ele>270.8</ele><time>2026-04-27T15:53:56Z</time></trkpt><trkpt lat="40.06893704929341" lon="19.863814978962523"><ele>274.4</ele><time>2026-04-27T15:53:57Z</time></trkpt><trkpt lat="40.06900166042991" lon="19.863709653382095"><ele>278.0</ele><time>2026-04-27T15:53:58Z</time></trkpt><trkpt lat="40.069063402455996" lon="19.863576267171865"><ele>270.0</ele><time>2026-04-27T15:53:59Z</time></trkpt><trkpt lat="40.06911479128743" lon="19.863435636756915"><ele>262.0</ele><time>2026-04-27T15:54:00Z</time></trkpt><trkpt lat="40.06914767564384" lon="19.863307666268803"><ele>254.0</ele><time>2026-04-27T15:54:01Z</time></trkpt><trkpt lat="40.069170396845145" lon="19.86317968295001"><ele>246.0</ele><time>2026-04-27T15:54:02Z</time></trkpt><trkpt lat="40.06920907394293" lon="19.863064300584803"><ele>238.0</ele><time>2026-04-27T15:54:03Z</time></trkpt><trkpt lat="40.06927002731675" lon="19.86295425660204"><ele>238.0</ele><time>2026-04-27T15:54:04Z</time></trkpt><trkpt lat="40.06933555193888" lon="19.862837489563717"><ele>238.0</ele><time>2026-04-27T15:54:05Z</time></trkpt><trkpt lat="40.069390284799745" lon="19.862737229217267"><ele>238.0</ele><time>2026-04-27T15:54:06Z</time></trkpt><trkpt lat="40.069441444527406" lon="19.86264499920185"><ele>238.0</ele><time>2026-04-27T15:54:07Z</time></trkpt><trkpt lat="40.06948457754253" lon="19.862551915764495"><ele>238.0</ele><time>2026-04-27T15:54:08Z</time></trkpt><trkpt lat="40.06951373926058" lon="19.862449963499856"><ele>241.4</ele><time>2026-04-27T15:54:09Z</time></trkpt><trkpt lat="40.0695378020754" lon="19.862336526931145"><ele>244.8</ele><time>2026-04-27T15:54:10Z</time></trkpt><trkpt lat="40.06956040722306" lon="19.86221166286713"><ele>248.2</ele><time>2026-04-27T15:54:11Z</time></trkpt><trkpt lat="40.06958047945322" lon="19.862073959110795"><ele>251.6</ele><time>2026-04-27T15:54:12Z</time></trkpt><trkpt lat="40.06959456239397" lon="19.861951507792746"><ele>255.0</ele><time>2026-04-27T15:54:13Z</time></trkpt><trkpt lat="40.06960533232253" lon="19.86184080080297"><ele>255.0</ele><time>2026-04-27T15:54:14Z</time></trkpt><trkpt lat="40.069609964442854" lon="19.861737784533673"><ele>255.0</ele><time>2026-04-27T15:54:15Z</time></trkpt><trkpt lat="40.06960167654733" lon="19.861637272858086"><ele>255.0</ele><time>2026-04-27T15:54:16Z</time></trkpt><trkpt lat="40.069579226315085" lon="19.861528827850883"><ele>255.0</ele><time>2026-04-27T15:54:17Z</time></trkpt><trkpt lat="40.06955345048892" lon="19.861401636493405"><ele>255.0</ele><time>2026-04-27T15:54:18Z</time></trkpt><trkpt lat="40.06952450534254" lon="19.861265135555893"><ele>255.0</ele><time>2026-04-27T15:54:19Z</time></trkpt><trkpt lat="40.069489862326854" lon="19.86112130931897"><ele>255.0</ele><time>2026-04-27T15:54:20Z</time></trkpt><trkpt lat="40.06946680936246" lon="19.860973917113352"><ele>255.0</ele><time>2026-04-27T15:54:21Z</time></trkpt><trkpt lat="40.069454878887825" lon="19.860840249068758"><ele>255.0</ele><time>2026-04-27T15:54:22Z</time></trkpt><trkpt lat="40.069454360934955" lon="19.86071064320492"><ele>255.0</ele><time>2026-04-27T15:54:23Z</time></trkpt><trkpt lat="40.0694532032152" lon="19.86058025736561"><ele>253.2</ele><time>2026-04-27T15:54:24Z</time></trkpt><trkpt lat="40.06944088879501" lon="19.860451052508562"><ele>251.4</ele><time>2026-04-27T15:54:25Z</time></trkpt><trkpt lat="40.06941898564918" lon="19.86033155683081"><ele>249.60000000000002</ele><time>2026-04-27T15:54:26Z</time></trkpt><trkpt lat="40.0693980851911" lon="19.86020502972622"><ele>247.8</ele><time>2026-04-27T15:54:27Z</time></trkpt><trkpt lat="40.069364402583105" lon="19.86006670179061"><ele>246.0</ele><time>2026-04-27T15:54:28Z</time></trkpt><trkpt lat="40.06932183363406" lon="19.859938992657284"><ele>244.60000000000002</ele><time>2026-04-27T15:54:29Z</time></trkpt><trkpt lat="40.06927547843076" lon="19.859817031231948"><ele>243.20000000000002</ele><time>2026-04-27T15:54:30Z</time></trkpt><trkpt lat="40.06923932073444" lon="19.85969309909588"><ele>241.79999999999998</ele><time>2026-04-27T15:54:31Z</time></trkpt><trkpt lat="40.069218780619806" lon="19.85956766715727"><ele>240.39999999999998</ele><time>2026-04-27T15:54:32Z</time></trkpt><trkpt lat="40.06919077655429" lon="19.859444232884364"><ele>239.0</ele><time>2026-04-27T15:54:33Z</time></trkpt><trkpt lat="40.06914768393014" lon="19.85932261406898"><ele>239.6</ele><time>2026-04-27T15:54:34Z</time></trkpt><trkpt lat="40.06909855497081" lon="19.85918658364548"><ele>240.2</ele><time>2026-04-27T15:54:35Z</time></trkpt><trkpt lat="40.06905389212801" lon="19.85904398131606"><ele>240.79999999999998</ele><time>2026-04-27T15:54:36Z</time></trkpt><trkpt lat="40.06901231660734" lon="19.858916935344666"><ele>241.39999999999998</ele><time>2026-04-27T15:54:37Z</time></trkpt><trkpt lat="40.068971681852894" lon="19.858799570396275"><ele>242.0</ele><time>2026-04-27T15:54:38Z</time></trkpt><trkpt lat="40.06894487109149" lon="19.858684189407935"><ele>242.0</ele><time>2026-04-27T15:54:39Z</time></trkpt><trkpt lat="40.06891391196856" lon="19.858608113021404"><ele>241.99999999999997</ele><time>2026-04-27T15:54:40Z</time></trkpt><trkpt lat="40.06884288487914" lon="19.85858730444762"><ele>242.0</ele><time>2026-04-27T15:54:41Z</time></trkpt><trkpt lat="40.06878405510948" lon="19.85854762369078"><ele>242.0</ele><time>2026-04-27T15:54:42Z</time></trkpt><trkpt lat="40.0687134175766" lon="19.85852997076663"><ele>241.99999999999997</ele><time>2026-04-27T15:54:43Z</time></trkpt><trkpt lat="40.0686376545949" lon="19.858507498417502"><ele>242.0</ele><time>2026-04-27T15:54:44Z</time></trkpt><trkpt lat="40.0685612737372" lon="19.858475286558374"><ele>242.0</ele><time>2026-04-27T15:54:45Z</time></trkpt><trkpt lat="40.06847487621915" lon="19.858406902761377"><ele>234.25</ele><time>2026-04-27T15:54:46Z</time></trkpt><trkpt lat="40.06835914102625" lon="19.858368367312504"><ele>226.5</ele><time>2026-04-27T15:54:47Z</time></trkpt><trkpt lat="40.06824194407836" lon="19.85835573504685"><ele>218.75</ele><time>2026-04-27T15:54:48Z</time></trkpt><trkpt lat="40.06812892856793" lon="19.85833817852776"><ele>211.0</ele><time>2026-04-27T15:54:49Z</time></trkpt><trkpt lat="40.06801323165266" lon="19.85831618738808"><ele>209.0</ele><time>2026-04-27T15:54:50Z</time></trkpt><trkpt lat="40.06789470311091" lon="19.858287761445286"><ele>207.0</ele><time>2026-04-27T15:54:51Z</time></trkpt><trkpt lat="40.06777498295456" lon="19.85825068141822"><ele>205.0</ele><time>2026-04-27T15:54:52Z</time></trkpt><trkpt lat="40.06765876518094" lon="19.858215726345353"><ele>203.0</ele><time>2026-04-27T15:54:53Z</time></trkpt><trkpt lat="40.06754469863414" lon="19.858190331945536"><ele>200.4</ele><time>2026-04-27T15:54:54Z</time></trkpt><trkpt lat="40.06743428825968" lon="19.85816711296704"><ele>197.8</ele><time>2026-04-27T15:54:55Z</time></trkpt><trkpt lat="40.06732959610342" lon="19.85814422435314"><ele>195.2</ele><time>2026-04-27T15:54:56Z</time></trkpt><trkpt lat="40.06723384653" lon="19.858123787499455"><ele>192.6</ele><time>2026-04-27T15:54:57Z</time></trkpt><trkpt lat="40.067135486777055" lon="19.858122746541813"><ele>190.0</ele><time>2026-04-27T15:54:58Z</time></trkpt><trkpt lat="40.06703914461865" lon="19.858147445793072"><ele>190.0</ele><time>2026-04-27T15:54:59Z</time></trkpt><trkpt lat="40.06694928272995" lon="19.858191407617472"><ele>190.0</ele><time>2026-04-27T15:55:00Z</time></trkpt><trkpt lat="40.066854893421485" lon="19.858219326795766"><ele>190.0</ele><time>2026-04-27T15:55:01Z</time></trkpt><trkpt lat="40.06676647534021" lon="19.85827305557001"><ele>190.0</ele><time>2026-04-27T15:55:02Z</time></trkpt><trkpt lat="40.06668462614793" lon="19.858330204032324"><ele>190.0</ele><time>2026-04-27T15:55:03Z</time></trkpt><trkpt lat="40.06662127466311" lon="19.858396643674254"><ele>190.0</ele><time>2026-04-27T15:55:04Z</time></trkpt><trkpt lat="40.06654463421017" lon="19.858374834811723"><ele>190.0</ele><time>2026-04-27T15:55:06Z</time></trkpt><trkpt lat="40.066544811615536" lon="19.858252440614237"><ele>190.0</ele><time>2026-04-27T15:55:08Z</time></trkpt><trkpt lat="40.06659161893" lon="19.858196312679343"><ele>190.0</ele><time>2026-04-27T15:55:09Z</time></trkpt><trkpt lat="40.06665903056602" lon="19.85814895875934"><ele>190.0</ele><time>2026-04-27T15:55:10Z</time></trkpt><trkpt lat="40.06672925730319" lon="19.858092100254865"><ele>190.0</ele><time>2026-04-27T15:55:11Z</time></trkpt><trkpt lat="40.06678889733184" lon="19.858035669764778"><ele>190.0</ele><time>2026-04-27T15:55:12Z</time></trkpt><trkpt lat="40.06686508068434" lon="19.857968025156705"><ele>190.0</ele><time>2026-04-27T15:55:14Z</time></trkpt><trkpt lat="40.066826623697075" lon="19.857816965504604"><ele>190.0</ele><time>2026-04-27T15:55:16Z</time></trkpt><trkpt lat="40.06675665760639" lon="19.857815545399873"><ele>190.0</ele><time>2026-04-27T15:55:17Z</time></trkpt><trkpt lat="40.06669808019877" lon="19.857870339248095"><ele>190.0</ele><time>2026-04-27T15:55:18Z</time></trkpt><trkpt lat="40.0666283502364" lon="19.857948778989876"><ele>190.0</ele><time>2026-04-27T15:55:19Z</time></trkpt><trkpt lat="40.066541469319176" lon="19.85803751084841"><ele>186.5</ele><time>2026-04-27T15:55:20Z</time></trkpt><trkpt lat="40.06643464543739" lon="19.858118328089148"><ele>183.0</ele><time>2026-04-27T15:55:21Z</time></trkpt><trkpt lat="40.06630504423458" lon="19.85815991028656"><ele>179.5</ele><time>2026-04-27T15:55:22Z</time></trkpt><trkpt lat="40.06616559190862" lon="19.858214750045192"><ele>176.0</ele><time>2026-04-27T15:55:23Z</time></trkpt><trkpt lat="40.06601007842222" lon="19.858257263370277"><ele>176.0</ele><time>2026-04-27T15:55:24Z</time></trkpt><trkpt lat="40.06584571117817" lon="19.858279750094002"><ele>176.0</ele><time>2026-04-27T15:55:25Z</time></trkpt><trkpt lat="40.065679263198184" lon="19.85830126964718"><ele>176.0</ele><time>2026-04-27T15:55:26Z</time></trkpt><trkpt lat="40.065534612453725" lon="19.85832841940928"><ele>173.75</ele><time>2026-04-27T15:55:27Z</time></trkpt><trkpt lat="40.06539928276369" lon="19.858370379389747"><ele>171.5</ele><time>2026-04-27T15:55:28Z</time></trkpt><trkpt lat="40.065265782173284" lon="19.858385899192374"><ele>169.25</ele><time>2026-04-27T15:55:29Z</time></trkpt><trkpt lat="40.065144061961945" lon="19.85838884859487"><ele>167.0</ele><time>2026-04-27T15:55:30Z</time></trkpt><trkpt lat="40.0650328379162" lon="19.858395702426773"><ele>169.2</ele><time>2026-04-27T15:55:31Z</time></trkpt><trkpt lat="40.06493264069644" lon="19.858393091752873"><ele>171.39999999999998</ele><time>2026-04-27T15:55:32Z</time></trkpt><trkpt lat="40.06484629131457" lon="19.85834146843396"><ele>173.60000000000002</ele><time>2026-04-27T15:55:33Z</time></trkpt><trkpt lat="40.06477896443539" lon="19.85827015429946"><ele>175.8</ele><time>2026-04-27T15:55:34Z</time></trkpt><trkpt lat="40.064677315300464" lon="19.858230895897233"><ele>178.0</ele><time>2026-04-27T15:55:35Z</time></trkpt><trkpt lat="40.06460280439474" lon="19.85812587744838"><ele>178.0</ele><time>2026-04-27T15:55:36Z</time></trkpt><trkpt lat="40.06447074908691" lon="19.858024848392542"><ele>178.0</ele><time>2026-04-27T15:55:37Z</time></trkpt><trkpt lat="40.064453661263514" lon="19.857902002181863"><ele>178.0</ele><time>2026-04-27T15:55:38Z</time></trkpt><trkpt lat="40.06437763716704" lon="19.857819030513948"><ele>178.0</ele><time>2026-04-27T15:55:39Z</time></trkpt><trkpt lat="40.06429403438041" lon="19.8577619591415"><ele>178.0</ele><time>2026-04-27T15:55:40Z</time></trkpt><trkpt lat="40.06420608507414" lon="19.85774199264259"><ele>178.0</ele><time>2026-04-27T15:55:41Z</time></trkpt><trkpt lat="40.064118951777175" lon="19.857731029048637"><ele>178.0</ele><time>2026-04-27T15:55:42Z</time></trkpt><trkpt lat="40.06404254056713" lon="19.857685308951847"><ele>178.0</ele><time>2026-04-27T15:55:43Z</time></trkpt><trkpt lat="40.06398076556193" lon="19.857598463808497"><ele>178.0</ele><time>2026-04-27T15:55:44Z</time></trkpt><trkpt lat="40.063943241359794" lon="19.857488813808324"><ele>178.0</ele><time>2026-04-27T15:55:45Z</time></trkpt><trkpt lat="40.063869194635224" lon="19.857438145816836"><ele>178.0</ele><time>2026-04-27T15:55:46Z</time></trkpt><trkpt lat="40.063776434638704" lon="19.857408508833363"><ele>169.0</ele><time>2026-04-27T15:55:47Z</time></trkpt><trkpt lat="40.06366519673146" lon="19.857385923116205"><ele>160.0</ele><time>2026-04-27T15:55:48Z</time></trkpt><trkpt lat="40.063537659930475" lon="19.857369203752178"><ele>151.0</ele><time>2026-04-27T15:55:49Z</time></trkpt><trkpt lat="40.06340911299984" lon="19.857362760414546"><ele>142.0</ele><time>2026-04-27T15:55:50Z</time></trkpt><trkpt lat="40.063291637610895" lon="19.857366905592315"><ele>138.6</ele><time>2026-04-27T15:55:51Z</time></trkpt><trkpt lat="40.063184956993595" lon="19.857380712725583"><ele>135.2</ele><time>2026-04-27T15:55:52Z</time></trkpt><trkpt lat="40.06308821591465" lon="19.857405271887718"><ele>131.8</ele><time>2026-04-27T15:55:53Z</time></trkpt><trkpt lat="40.06299569111364" lon="19.857435867991985"><ele>128.4</ele><time>2026-04-27T15:55:54Z</time></trkpt><trkpt lat="40.062900803032086" lon="19.857474448051274"><ele>125.0</ele><time>2026-04-27T15:55:55Z</time></trkpt><trkpt lat="40.062800021728044" lon="19.857531683516797"><ele>125.0</ele><time>2026-04-27T15:55:56Z</time></trkpt><trkpt lat="40.062693463376874" lon="19.85761208488314"><ele>125.0</ele><time>2026-04-27T15:55:57Z</time></trkpt><trkpt lat="40.06259170621772" lon="19.857697820845097"><ele>125.0</ele><time>2026-04-27T15:55:58Z</time></trkpt><trkpt lat="40.062501899520775" lon="19.857783548483255"><ele>125.0</ele><time>2026-04-27T15:55:59Z</time></trkpt><trkpt lat="40.0624204054367" lon="19.857867765150385"><ele>123.5</ele><time>2026-04-27T15:56:00Z</time></trkpt><trkpt lat="40.06234123804886" lon="19.857975964620046"><ele>122.0</ele><time>2026-04-27T15:56:01Z</time></trkpt><trkpt lat="40.06226479905932" lon="19.858105316595132"><ele>120.5</ele><time>2026-04-27T15:56:02Z</time></trkpt><trkpt lat="40.06218861788154" lon="19.85824797678904"><ele>119.0</ele><time>2026-04-27T15:56:03Z</time></trkpt><trkpt lat="40.062114081916434" lon="19.858380230871028"><ele>123.83333333333333</ele><time>2026-04-27T15:56:04Z</time></trkpt><trkpt lat="40.06204153682527" lon="19.858491513161262"><ele>128.66666666666666</ele><time>2026-04-27T15:56:05Z</time></trkpt><trkpt lat="40.061972872047875" lon="19.858585571462804"><ele>133.5</ele><time>2026-04-27T15:56:06Z</time></trkpt><trkpt lat="40.06191393015079" lon="19.858666511028282"><ele>138.33333333333334</ele><time>2026-04-27T15:56:07Z</time></trkpt><trkpt lat="40.06185806537381" lon="19.858728882337203"><ele>143.16666666666669</ele><time>2026-04-27T15:56:08Z</time></trkpt><trkpt lat="40.06180820628398" lon="19.858789570537713"><ele>148.0</ele><time>2026-04-27T15:56:10Z</time></trkpt><trkpt lat="40.061737791198006" lon="19.85882488824775"><ele>148.0</ele><time>2026-04-27T15:56:13Z</time></trkpt><trkpt lat="40.06161909634336" lon="19.85878101387787"><ele>148.0</ele><time>2026-04-27T15:56:15Z</time></trkpt><trkpt lat="40.06154501806993" lon="19.85871678949536"><ele>148.0</ele><time>2026-04-27T15:56:16Z</time></trkpt><trkpt lat="40.06146028340291" lon="19.858651851569526"><ele>148.0</ele><time>2026-04-27T15:56:17Z</time></trkpt><trkpt lat="40.06137719445933" lon="19.858605155428165"><ele>148.0</ele><time>2026-04-27T15:56:18Z</time></trkpt><trkpt lat="40.06129848936587" lon="19.85856226914336"><ele>148.0</ele><time>2026-04-27T15:56:19Z</time></trkpt><trkpt lat="40.06122872549216" lon="19.858525704929008"><ele>148.0</ele><time>2026-04-27T15:56:20Z</time></trkpt><trkpt lat="40.06114303343678" lon="19.85845023821545"><ele>148.0</ele><time>2026-04-27T15:56:22Z</time></trkpt><trkpt lat="40.06115785411814" lon="19.85834988167525"><ele>148.0</ele><time>2026-04-27T15:56:24Z</time></trkpt><trkpt lat="40.06125743052731" lon="19.858389238785424"><ele>148.0</ele><time>2026-04-27T15:56:26Z</time></trkpt><trkpt lat="40.061317482852736" lon="19.858415915676968"><ele>148.0</ele><time>2026-04-27T15:56:27Z</time></trkpt><trkpt lat="40.06139130588499" lon="19.858456429750873"><ele>148.0</ele><time>2026-04-27T15:56:28Z</time></trkpt><trkpt lat="40.061453761802504" lon="19.858497637055684"><ele>148.0</ele><time>2026-04-27T15:56:29Z</time></trkpt><trkpt lat="40.061563024576124" lon="19.85854099143537"><ele>148.0</ele><time>2026-04-27T15:56:31Z</time></trkpt><trkpt lat="40.06163204199007" lon="19.858454069928897"><ele>148.0</ele><time>2026-04-27T15:56:33Z</time></trkpt><trkpt lat="40.06162810201203" lon="19.85833612290375"><ele>148.0</ele><time>2026-04-27T15:56:35Z</time></trkpt><trkpt lat="40.06158169578467" lon="19.858277065268705"><ele>148.0</ele><time>2026-04-27T15:56:36Z</time></trkpt><trkpt lat="40.061523595981555" lon="19.8582169928839"><ele>142.83333333333334</ele><time>2026-04-27T15:56:37Z</time></trkpt><trkpt lat="40.061457656521235" lon="19.858144281472622"><ele>137.66666666666669</ele><time>2026-04-27T15:56:38Z</time></trkpt><trkpt lat="40.061387636427845" lon="19.858071711039223"><ele>132.5</ele><time>2026-04-27T15:56:39Z</time></trkpt><trkpt lat="40.06132009083844" lon="19.85802547638088"><ele>127.33333333333334</ele><time>2026-04-27T15:56:40Z</time></trkpt><trkpt lat="40.06125965275002" lon="19.85797972994852"><ele>122.16666666666667</ele><time>2026-04-27T15:56:41Z</time></trkpt><trkpt lat="40.06118117735205" lon="19.8579323952727"><ele>117.0</ele><time>2026-04-27T15:56:42Z</time></trkpt><trkpt lat="40.061093549242784" lon="19.857904893990888"><ele>117.0</ele><time>2026-04-27T15:56:43Z</time></trkpt><trkpt lat="40.06101081488827" lon="19.857901388505574"><ele>117.0</ele><time>2026-04-27T15:56:44Z</time></trkpt><trkpt lat="40.060905850154775" lon="19.85791454323045"><ele>117.0</ele><time>2026-04-27T15:56:46Z</time></trkpt><trkpt lat="40.06083913720813" lon="19.85788831380782"><ele>117.0</ele><time>2026-04-27T15:56:50Z</time></trkpt><trkpt lat="40.06073371257963" lon="19.857886755308165"><ele>117.0</ele><time>2026-04-27T15:56:59Z</time></trkpt><trkpt lat="40.06069205080779" lon="19.857980432530066"><ele>117.0</ele><time>2026-04-27T15:57:00Z</time></trkpt><trkpt lat="40.060637826575" lon="19.858030343115306"><ele>114.39999999999999</ele><time>2026-04-27T15:57:01Z</time></trkpt><trkpt lat="40.06054532640554" lon="19.85814890541072"><ele>111.79999999999998</ele><time>2026-04-27T15:57:03Z</time></trkpt><trkpt lat="40.060485796368724" lon="19.858202919375334"><ele>109.2</ele><time>2026-04-27T15:57:04Z</time></trkpt><trkpt lat="40.06041755042958" lon="19.85825552443117"><ele>106.6</ele><time>2026-04-27T15:57:05Z</time></trkpt><trkpt lat="40.06034439690464" lon="19.858306464581894"><ele>104.0</ele><time>2026-04-27T15:57:06Z</time></trkpt><trkpt lat="40.06026800996879" lon="19.858360631871623"><ele>104.0</ele><time>2026-04-27T15:57:07Z</time></trkpt><trkpt lat="40.06018845835038" lon="19.858410760625706"><ele>104.0</ele><time>2026-04-27T15:57:08Z</time></trkpt><trkpt lat="40.06010561309936" lon="19.8584712955289"><ele>104.0</ele><time>2026-04-27T15:57:09Z</time></trkpt><trkpt lat="40.06001836116236" lon="19.858537642208557"><ele>104.0</ele><time>2026-04-27T15:57:10Z</time></trkpt><trkpt lat="40.05992315032026" lon="19.858600056132303"><ele>104.0</ele><time>2026-04-27T15:57:11Z</time></trkpt><trkpt lat="40.05982664398311" lon="19.858662618140627"><ele>107.0</ele><time>2026-04-27T15:57:12Z</time></trkpt><trkpt lat="40.059722870745496" lon="19.858727765399657"><ele>110.0</ele><time>2026-04-27T15:57:13Z</time></trkpt><trkpt lat="40.059617945424684" lon="19.858801741572318"><ele>113.0</ele><time>2026-04-27T15:57:14Z</time></trkpt><trkpt lat="40.05951005790624" lon="19.85887212744425"><ele>116.0</ele><time>2026-04-27T15:57:15Z</time></trkpt><trkpt lat="40.059398532557005" lon="19.85894502501068"><ele>116.0</ele><time>2026-04-27T15:57:16Z</time></trkpt><trkpt lat="40.059299636946335" lon="19.859019315856845"><ele>116.0</ele><time>2026-04-27T15:57:17Z</time></trkpt><trkpt lat="40.05920122728024" lon="19.859098126182783"><ele>116.0</ele><time>2026-04-27T15:57:18Z</time></trkpt><trkpt lat="40.05910093074413" lon="19.859171997465488"><ele>116.0</ele><time>2026-04-27T15:57:19Z</time></trkpt><trkpt lat="40.05900065402226" lon="19.859240722696345"><ele>118.4</ele><time>2026-04-27T15:57:20Z</time></trkpt><trkpt lat="40.058901872698975" lon="19.859306933907728"><ele>120.8</ele><time>2026-04-27T15:57:21Z</time></trkpt><trkpt lat="40.05881362342139" lon="19.859369803172655"><ele>123.20000000000002</ele><time>2026-04-27T15:57:22Z</time></trkpt><trkpt lat="40.058736544273515" lon="19.8594247723009"><ele>125.60000000000001</ele><time>2026-04-27T15:57:23Z</time></trkpt><trkpt lat="40.05866247271063" lon="19.85946704676679"><ele>128.0</ele><time>2026-04-27T15:57:24Z</time></trkpt><trkpt lat="40.058597649375" lon="19.859507090517454"><ele>128.0</ele><time>2026-04-27T15:57:25Z</time></trkpt><trkpt lat="40.05849837980392" lon="19.859572491997643"><ele>128.0</ele><time>2026-04-27T15:57:27Z</time></trkpt><trkpt lat="40.05842438817249" lon="19.85961909544075"><ele>128.0</ele><time>2026-04-27T15:57:30Z</time></trkpt><trkpt lat="40.058387082516326" lon="19.859704195796414"><ele>128.0</ele><time>2026-04-27T15:57:35Z</time></trkpt><trkpt lat="40.05846798965603" lon="19.859657338556435"><ele>128.0</ele><time>2026-04-27T15:57:58Z</time></trkpt><trkpt lat="40.058598023021716" lon="19.859490811110355"><ele>128.0</ele><time>2026-04-27T15:58:00Z</time></trkpt><trkpt lat="40.058736413779975" lon="19.859460785004245"><ele>128.0</ele><time>2026-04-27T15:58:01Z</time></trkpt><trkpt lat="40.05884324029611" lon="19.859385735848445"><ele>128.0</ele><time>2026-04-27T15:58:02Z</time></trkpt><trkpt lat="40.05895334456511" lon="19.859306378229718"><ele>128.0</ele><time>2026-04-27T15:58:03Z</time></trkpt><trkpt lat="40.05905064683052" lon="19.85923652536877"><ele>125.0</ele><time>2026-04-27T15:58:04Z</time></trkpt><trkpt lat="40.059146444936566" lon="19.859170388768632"><ele>122.0</ele><time>2026-04-27T15:58:05Z</time></trkpt><trkpt lat="40.059249923153274" lon="19.85910369579951"><ele>119.0</ele><time>2026-04-27T15:58:06Z</time></trkpt><trkpt lat="40.05935408887456" lon="19.859031280408896"><ele>116.0</ele><time>2026-04-27T15:58:07Z</time></trkpt><trkpt lat="40.0594568206364" lon="19.858960278475816"><ele>116.0</ele><time>2026-04-27T15:58:08Z</time></trkpt><trkpt lat="40.05954754853147" lon="19.858895240363317"><ele>116.0</ele><time>2026-04-27T15:58:09Z</time></trkpt><trkpt lat="40.059636236975415" lon="19.858833244064343"><ele>116.0</ele><time>2026-04-27T15:58:10Z</time></trkpt><trkpt lat="40.05972376558996" lon="19.858772182007275"><ele>116.0</ele><time>2026-04-27T15:58:11Z</time></trkpt><trkpt lat="40.05980788831934" lon="19.858714016716167"><ele>116.0</ele><time>2026-04-27T15:58:12Z</time></trkpt><trkpt lat="40.05989728756352" lon="19.858650910967363"><ele>113.6</ele><time>2026-04-27T15:58:13Z</time></trkpt><trkpt lat="40.059991371012714" lon="19.85858323705107"><ele>111.19999999999999</ele><time>2026-04-27T15:58:14Z</time></trkpt><trkpt lat="40.06008342520362" lon="19.85851981177098"><ele>108.80000000000001</ele><time>2026-04-27T15:58:15Z</time></trkpt><trkpt lat="40.0601643753913" lon="19.858463090583907"><ele>106.4</ele><time>2026-04-27T15:58:16Z</time></trkpt><trkpt lat="40.06023772324862" lon="19.85841418504107"><ele>104.0</ele><time>2026-04-27T15:58:17Z</time></trkpt><trkpt lat="40.06034006289067" lon="19.858508388650634"><ele>107.25</ele><time>2026-04-27T15:58:18Z</time></trkpt><trkpt lat="40.060418050681" lon="19.85848895944053"><ele>110.5</ele><time>2026-04-27T15:58:19Z</time></trkpt><trkpt lat="40.06049079412602" lon="19.85847614915448"><ele>113.75</ele><time>2026-04-27T15:58:20Z</time></trkpt><trkpt lat="40.060570080154285" lon="19.85846139300884"><ele>117.0</ele><time>2026-04-27T15:58:21Z</time></trkpt><trkpt lat="40.06082743755129" lon="19.857919885786124"><ele>117.0</ele><time>2026-04-27T15:58:28Z</time></trkpt><trkpt lat="40.06081637186978" lon="19.857831200199403"><ele>117.0</ele><time>2026-04-27T15:58:32Z</time></trkpt><trkpt lat="40.06075690699321" lon="19.85786088117848"><ele>117.0</ele><time>2026-04-27T15:58:34Z</time></trkpt><trkpt lat="40.060668846071316" lon="19.85793041081886"><ele>117.0</ele><time>2026-04-27T15:58:36Z</time></trkpt><trkpt lat="40.06055026098598" lon="19.857995516567854"><ele>117.0</ele><time>2026-04-27T15:58:38Z</time></trkpt><trkpt lat="40.060477216264985" lon="19.858029217924628"><ele>117.0</ele><time>2026-04-27T15:58:39Z</time></trkpt><trkpt lat="40.06040505286313" lon="19.858057099562174"><ele>114.83333333333333</ele><time>2026-04-27T15:58:40Z</time></trkpt><trkpt lat="40.06032162794988" lon="19.858085882837933"><ele>112.66666666666666</ele><time>2026-04-27T15:58:41Z</time></trkpt><trkpt lat="40.060234136096675" lon="19.85812162798181"><ele>110.5</ele><time>2026-04-27T15:58:42Z</time></trkpt><trkpt lat="40.060141918829196" lon="19.858149243239943"><ele>108.33333333333333</ele><time>2026-04-27T15:58:43Z</time></trkpt><trkpt lat="40.060063658517315" lon="19.858172433886146"><ele>106.16666666666666</ele><time>2026-04-27T15:58:44Z</time></trkpt><trkpt lat="40.05999917340714" lon="19.85820576451217"><ele>104.0</ele><time>2026-04-27T15:58:45Z</time></trkpt><trkpt lat="40.059946799378395" lon="19.858258356121496"><ele>102.0</ele><time>2026-04-27T15:58:46Z</time></trkpt><trkpt lat="40.059876917663054" lon="19.85831173988259"><ele>100.0</ele><time>2026-04-27T15:58:47Z</time></trkpt><trkpt lat="40.05979452882274" lon="19.858352823529476"><ele>98.0</ele><time>2026-04-27T15:58:48Z</time></trkpt><trkpt lat="40.059716184489446" lon="19.858394307961532"><ele>96.0</ele><time>2026-04-27T15:58:49Z</time></trkpt><trkpt lat="40.05971759647852" lon="19.858619344386966"><ele>94.0</ele><time>2026-04-27T15:58:50Z</time></trkpt><trkpt lat="40.059661800326026" lon="19.85865862249723"><ele>94.0</ele><time>2026-04-27T15:58:51Z</time></trkpt><trkpt lat="40.05958848749845" lon="19.85871018572727"><ele>94.0</ele><time>2026-04-27T15:58:53Z</time></trkpt><trkpt lat="40.05951471131954" lon="19.858699383176194"><ele>94.0</ele><time>2026-04-27T15:58:55Z</time></trkpt><trkpt lat="40.05925882917664" lon="19.858392063971603"><ele>94.0</ele><time>2026-04-27T15:58:57Z</time></trkpt><trkpt lat="40.059182512102346" lon="19.858425488313188"><ele>94.0</ele><time>2026-04-27T15:58:58Z</time></trkpt><trkpt lat="40.05912334749171" lon="19.858465331304814"><ele>94.0</ele><time>2026-04-27T15:58:59Z</time></trkpt><trkpt lat="40.05904333729863" lon="19.858593702521905"><ele>94.0</ele><time>2026-04-27T15:59:01Z</time></trkpt><trkpt lat="40.059006181588884" lon="19.85866051275347"><ele>94.0</ele><time>2026-04-27T15:59:02Z</time></trkpt><trkpt lat="40.058928685564474" lon="19.85873775340665"><ele>94.0</ele><time>2026-04-27T15:59:04Z</time></trkpt><trkpt lat="40.05887050292454" lon="19.858772697027216"><ele>95.0</ele><time>2026-04-27T15:59:05Z</time></trkpt><trkpt lat="40.05880071954376" lon="19.858802239971038"><ele>96.0</ele><time>2026-04-27T15:59:06Z</time></trkpt><trkpt lat="40.058735378682755" lon="19.858817352569023"><ele>97.0</ele><time>2026-04-27T15:59:07Z</time></trkpt><trkpt lat="40.05867060045964" lon="19.858840247406786"><ele>98.0</ele><time>2026-04-27T15:59:08Z</time></trkpt><trkpt lat="40.0586055048852" lon="19.858851973738133"><ele>99.0</ele><time>2026-04-27T15:59:09Z</time></trkpt><trkpt lat="40.058542183216105" lon="19.858857804637612"><ele>100.0</ele><time>2026-04-27T15:59:10Z</time></trkpt><trkpt lat="40.058437916420274" lon="19.858882528817233"><ele>101.0</ele><time>2026-04-27T15:59:12Z</time></trkpt><trkpt lat="40.05833023879407" lon="19.85886400251145"><ele>96.6</ele><time>2026-04-27T15:59:14Z</time></trkpt><trkpt lat="40.05821360559839" lon="19.858849084076468"><ele>92.19999999999999</ele><time>2026-04-27T15:59:16Z</time></trkpt><trkpt lat="40.05814854758448" lon="19.858846156802873"><ele>87.80000000000001</ele><time>2026-04-27T15:59:17Z</time></trkpt><trkpt lat="40.058080037702226" lon="19.858844299210006"><ele>83.4</ele><time>2026-04-27T15:59:18Z</time></trkpt><trkpt lat="40.05795871776835" lon="19.858863671367978"><ele>79.0</ele><time>2026-04-27T15:59:20Z</time></trkpt><trkpt lat="40.05783947257204" lon="19.858930933942094"><ele>79.0</ele><time>2026-04-27T15:59:22Z</time></trkpt><trkpt lat="40.05776187599112" lon="19.8589782456346"><ele>79.0</ele><time>2026-04-27T15:59:23Z</time></trkpt><trkpt lat="40.0577020859512" lon="19.859031326178933"><ele>79.0</ele><time>2026-04-27T15:59:24Z</time></trkpt><trkpt lat="40.05764017643496" lon="19.85908662835399"><ele>79.0</ele><time>2026-04-27T15:59:25Z</time></trkpt><trkpt lat="40.05756980261895" lon="19.85914482122447"><ele>79.0</ele><time>2026-04-27T15:59:26Z</time></trkpt><trkpt lat="40.05747792898167" lon="19.85926338563922"><ele>79.0</ele><time>2026-04-27T15:59:28Z</time></trkpt><trkpt lat="40.05740044236403" lon="19.859388950479897"><ele>79.0</ele><time>2026-04-27T15:59:30Z</time></trkpt><trkpt lat="40.057342018949875" lon="19.859445295129746"><ele>79.0</ele><time>2026-04-27T15:59:31Z</time></trkpt><trkpt lat="40.0572594250592" lon="19.85947369823056"><ele>79.0</ele><time>2026-04-27T15:59:32Z</time></trkpt><trkpt lat="40.05716022097013" lon="19.859515514117014"><ele>79.0</ele><time>2026-04-27T15:59:33Z</time></trkpt><trkpt lat="40.057057462279445" lon="19.85958710388407"><ele>79.0</ele><time>2026-04-27T15:59:34Z</time></trkpt><trkpt lat="40.05694588155253" lon="19.859697773456574"><ele>79.0</ele><time>2026-04-27T15:59:35Z</time></trkpt><trkpt lat="40.05684657434985" lon="19.859816390304186"><ele>79.0</ele><time>2026-04-27T15:59:36Z</time></trkpt><trkpt lat="40.05675520982236" lon="19.859934139372662"><ele>79.0</ele><time>2026-04-27T15:59:37Z</time></trkpt><trkpt lat="40.05664769015757" lon="19.860001829468466"><ele>79.0</ele><time>2026-04-27T15:59:38Z</time></trkpt><trkpt lat="40.05654781561927" lon="19.860109570390758"><ele>79.0</ele><time>2026-04-27T15:59:39Z</time></trkpt><trkpt lat="40.05645228593731" lon="19.8602051662217"><ele>79.0</ele><time>2026-04-27T15:59:40Z</time></trkpt><trkpt lat="40.05635887368888" lon="19.860278567420046"><ele>79.0</ele><time>2026-04-27T15:59:41Z</time></trkpt><trkpt lat="40.05625883648233" lon="19.86035332295723"><ele>79.0</ele><time>2026-04-27T15:59:42Z</time></trkpt><trkpt lat="40.056159027574445" lon="19.86041550142043"><ele>79.0</ele><time>2026-04-27T15:59:43Z</time></trkpt><trkpt lat="40.05606223426719" lon="19.860492645586557"><ele>79.0</ele><time>2026-04-27T15:59:44Z</time></trkpt><trkpt lat="40.055947876967075" lon="19.8605544843502"><ele>79.0</ele><time>2026-04-27T15:59:45Z</time></trkpt><trkpt lat="40.05584789277909" lon="19.860631311476865"><ele>79.0</ele><time>2026-04-27T15:59:46Z</time></trkpt><trkpt lat="40.055747541606955" lon="19.860716401171096"><ele>77.4</ele><time>2026-04-27T15:59:47Z</time></trkpt><trkpt lat="40.055646949220964" lon="19.860801395897294"><ele>75.80000000000001</ele><time>2026-04-27T15:59:48Z</time></trkpt><trkpt lat="40.055551525651445" lon="19.860882761714944"><ele>74.19999999999999</ele><time>2026-04-27T15:59:49Z</time></trkpt><trkpt lat="40.05546842463291" lon="19.860955432791172"><ele>72.6</ele><time>2026-04-27T15:59:50Z</time></trkpt><trkpt lat="40.05540058097164" lon="19.861040252907568"><ele>71.0</ele><time>2026-04-27T15:59:51Z</time></trkpt><trkpt lat="40.05531298409283" lon="19.86109809562318"><ele>71.0</ele><time>2026-04-27T15:59:52Z</time></trkpt><trkpt lat="40.05523751227527" lon="19.861167191468354"><ele>71.0</ele><time>2026-04-27T15:59:53Z</time></trkpt><trkpt lat="40.05514483196084" lon="19.86115978002318"><ele>71.0</ele><time>2026-04-27T15:59:54Z</time></trkpt><trkpt lat="40.05505122523056" lon="19.86115400832702"><ele>71.0</ele><time>2026-04-27T15:59:55Z</time></trkpt><trkpt lat="40.05495704543816" lon="19.861193820869413"><ele>71.0</ele><time>2026-04-27T15:59:56Z</time></trkpt><trkpt lat="40.05489064979086" lon="19.86123096900732"><ele>69.2</ele><time>2026-04-27T15:59:57Z</time></trkpt><trkpt lat="40.05485403556826" lon="19.86131720927533"><ele>67.39999999999999</ele><time>2026-04-27T15:59:58Z</time></trkpt><trkpt lat="40.05478772662343" lon="19.861439264744405"><ele>65.6</ele><time>2026-04-27T16:00:00Z</time></trkpt><trkpt lat="40.054759065725385" lon="19.861537555533733"><ele>63.8</ele><time>2026-04-27T16:00:01Z</time></trkpt><trkpt lat="40.054734141313595" lon="19.861664724425182"><ele>62.0</ele><time>2026-04-27T16:00:02Z</time></trkpt><trkpt lat="40.05468665223535" lon="19.861764837335087"><ele>64.4</ele><time>2026-04-27T16:00:03Z</time></trkpt><trkpt lat="40.05465782719691" lon="19.86185226327485"><ele>66.80000000000001</ele><time>2026-04-27T16:00:04Z</time></trkpt><trkpt lat="40.0546295152002" lon="19.86192728896535"><ele>69.2</ele><time>2026-04-27T16:00:05Z</time></trkpt><trkpt lat="40.05454850930595" lon="19.86202065224535"><ele>71.60000000000001</ele><time>2026-04-27T16:00:07Z</time></trkpt><trkpt lat="40.054412382569694" lon="19.862045513655673"><ele>74.0</ele><time>2026-04-27T16:00:09Z</time></trkpt><trkpt lat="40.05433112700512" lon="19.862086273441506"><ele>74.0</ele><time>2026-04-27T16:00:10Z</time></trkpt><trkpt lat="40.05424711114547" lon="19.862155255682126"><ele>74.0</ele><time>2026-04-27T16:00:11Z</time></trkpt><trkpt lat="40.054195126574086" lon="19.862217161032877"><ele>74.0</ele><time>2026-04-27T16:00:12Z</time></trkpt><trkpt lat="40.054116859507005" lon="19.862356636070814"><ele>74.0</ele><time>2026-04-27T16:00:14Z</time></trkpt><trkpt lat="40.05411459809635" lon="19.862458352697423"><ele>74.0</ele><time>2026-04-27T16:00:15Z</time></trkpt><trkpt lat="40.05403949882344" lon="19.862519476191217"><ele>74.60000000000001</ele><time>2026-04-27T16:00:17Z</time></trkpt><trkpt lat="40.05399469939228" lon="19.862418670852797"><ele>75.2</ele><time>2026-04-27T16:00:19Z</time></trkpt><trkpt lat="40.0539023964452" lon="19.862343373244762"><ele>75.80000000000001</ele><time>2026-04-27T16:00:21Z</time></trkpt><trkpt lat="40.0538525021981" lon="19.862248184350683"><ele>76.4</ele><time>2026-04-27T16:00:22Z</time></trkpt><trkpt lat="40.05379137097875" lon="19.86213202059477"><ele>77.0</ele><time>2026-04-27T16:00:23Z</time></trkpt><trkpt lat="40.053774878278126" lon="19.86202316256624"><ele>77.0</ele><time>2026-04-27T16:00:24Z</time></trkpt><trkpt lat="40.0537070375964" lon="19.86191302668342"><ele>77.0</ele><time>2026-04-27T16:00:26Z</time></trkpt><trkpt lat="40.0536390764736" lon="19.861798289473903"><ele>77.0</ele><time>2026-04-27T16:00:28Z</time></trkpt><trkpt lat="40.053587789505954" lon="19.861734051410174"><ele>77.0</ele><time>2026-04-27T16:00:29Z</time></trkpt><trkpt lat="40.053489314636366" lon="19.861716842777348"><ele>77.0</ele><time>2026-04-27T16:00:31Z</time></trkpt><trkpt lat="40.05342265582478" lon="19.861700835482885"><ele>75.71428571428571</ele><time>2026-04-27T16:00:32Z</time></trkpt><trkpt lat="40.05334004487739" lon="19.861676445412037"><ele>74.42857142857143</ele><time>2026-04-27T16:00:33Z</time></trkpt><trkpt lat="40.05326204397301" lon="19.861665124200044"><ele>73.14285714285714</ele><time>2026-04-27T16:00:34Z</time></trkpt><trkpt lat="40.0531930914519" lon="19.86165948952137"><ele>71.85714285714286</ele><time>2026-04-27T16:00:35Z</time></trkpt><trkpt lat="40.05312820784042" lon="19.861660447870243"><ele>70.57142857142857</ele><time>2026-04-27T16:00:36Z</time></trkpt><trkpt lat="40.053061229034746" lon="19.861661437167264"><ele>69.28571428571428</ele><time>2026-04-27T16:00:37Z</time></trkpt><trkpt lat="40.05298791276509" lon="19.861643135189848"><ele>68.0</ele><time>2026-04-27T16:00:38Z</time></trkpt><trkpt lat="40.0529235387028" lon="19.861633343507652"><ele>68.0</ele><time>2026-04-27T16:00:39Z</time></trkpt><trkpt lat="40.05283723142928" lon="19.861585953069834"><ele>68.0</ele><time>2026-04-27T16:00:41Z</time></trkpt><trkpt lat="40.05274508702833" lon="19.861514330945365"><ele>68.0</ele><time>2026-04-27T16:00:43Z</time></trkpt><trkpt lat="40.05268401941764" lon="19.861448287860537"><ele>68.0</ele><time>2026-04-27T16:00:44Z</time></trkpt><trkpt lat="40.05263287666273" lon="19.861369900991892"><ele>68.0</ele><time>2026-04-27T16:00:45Z</time></trkpt><trkpt lat="40.05254840972996" lon="19.861295164576998"><ele>68.0</ele><time>2026-04-27T16:00:46Z</time></trkpt><trkpt lat="40.052467528966616" lon="19.861264760208073"><ele>68.0</ele><time>2026-04-27T16:00:47Z</time></trkpt><trkpt lat="40.052396711272756" lon="19.861237414252663"><ele>68.0</ele><time>2026-04-27T16:00:48Z</time></trkpt><trkpt lat="40.052316003358065" lon="19.861213621920054"><ele>68.0</ele><time>2026-04-27T16:00:49Z</time></trkpt><trkpt lat="40.05221117692108" lon="19.861200375823195"><ele>68.0</ele><time>2026-04-27T16:00:50Z</time></trkpt><trkpt lat="40.052108109120326" lon="19.86119012353213"><ele>68.0</ele><time>2026-04-27T16:00:51Z</time></trkpt><trkpt lat="40.05201440583342" lon="19.86121120361157"><ele>67.66666666666667</ele><time>2026-04-27T16:00:52Z</time></trkpt><trkpt lat="40.05193395520817" lon="19.8612384848933"><ele>67.33333333333334</ele><time>2026-04-27T16:00:53Z</time></trkpt><trkpt lat="40.05185577440312" lon="19.8612377227581"><ele>67.0</ele><time>2026-04-27T16:00:54Z</time></trkpt><trkpt lat="40.05177448744996" lon="19.861237610322984"><ele>66.66666666666667</ele><time>2026-04-27T16:00:55Z</time></trkpt><trkpt lat="40.05168771172006" lon="19.861243000900178"><ele>66.33333333333333</ele><time>2026-04-27T16:00:56Z</time></trkpt><trkpt lat="40.05160181683005" lon="19.8612585083122"><ele>66.0</ele><time>2026-04-27T16:00:57Z</time></trkpt><trkpt lat="40.05151672893414" lon="19.861276118359488"><ele>65.39999999999999</ele><time>2026-04-27T16:00:58Z</time></trkpt><trkpt lat="40.05141641276904" lon="19.861277054798485"><ele>64.8</ele><time>2026-04-27T16:00:59Z</time></trkpt><trkpt lat="40.05131632653415" lon="19.861312939926083"><ele>64.19999999999999</ele><time>2026-04-27T16:01:00Z</time></trkpt><trkpt lat="40.05120672708585" lon="19.861304741861836"><ele>63.599999999999994</ele><time>2026-04-27T16:01:01Z</time></trkpt><trkpt lat="40.051091485897324" lon="19.861311062112737"><ele>63.0</ele><time>2026-04-27T16:01:02Z</time></trkpt><trkpt lat="40.05098290319929" lon="19.861301217735875"><ele>63.0</ele><time>2026-04-27T16:01:03Z</time></trkpt><trkpt lat="40.050866628246325" lon="19.8612917291219"><ele>63.0</ele><time>2026-04-27T16:01:04Z</time></trkpt><trkpt lat="40.05075402886089" lon="19.86128503550354"><ele>63.0</ele><time>2026-04-27T16:01:05Z</time></trkpt><trkpt lat="40.05066262762121" lon="19.86128218589056"><ele>63.0</ele><time>2026-04-27T16:01:06Z</time></trkpt><trkpt lat="40.050577213336894" lon="19.861293731294104"><ele>63.0</ele><time>2026-04-27T16:01:07Z</time></trkpt><trkpt lat="40.050508262178276" lon="19.861301858071734"><ele>62.833333333333336</ele><time>2026-04-27T16:01:08Z</time></trkpt><trkpt lat="40.05044428371411" lon="19.861329440339013"><ele>62.66666666666667</ele><time>2026-04-27T16:01:09Z</time></trkpt><trkpt lat="40.05033297179679" lon="19.86139670741544"><ele>62.5</ele><time>2026-04-27T16:01:11Z</time></trkpt><trkpt lat="40.05027211157001" lon="19.86143343618713"><ele>62.333333333333336</ele><time>2026-04-27T16:01:12Z</time></trkpt><trkpt lat="40.05019555759577" lon="19.861462363382547"><ele>62.16666666666667</ele><time>2026-04-27T16:01:13Z</time></trkpt><trkpt lat="40.05010893212711" lon="19.861472882116338"><ele>62.0</ele><time>2026-04-27T16:01:14Z</time></trkpt><trkpt lat="40.05001944036748" lon="19.861470720099494"><ele>60.66666666666667</ele><time>2026-04-27T16:01:15Z</time></trkpt><trkpt lat="40.04993908457236" lon="19.86146864773435"><ele>59.333333333333336</ele><time>2026-04-27T16:01:16Z</time></trkpt><trkpt lat="40.04984600884235" lon="19.86149544638975"><ele>58.0</ele><time>2026-04-27T16:01:17Z</time></trkpt><trkpt lat="40.049765989965074" lon="19.86153537635207"><ele>56.66666666666667</ele><time>2026-04-27T16:01:18Z</time></trkpt><trkpt lat="40.0496954525048" lon="19.86157144678961"><ele>55.333333333333336</ele><time>2026-04-27T16:01:19Z</time></trkpt><trkpt lat="40.04962951861913" lon="19.86165343130272"><ele>54.0</ele><time>2026-04-27T16:01:20Z</time></trkpt><trkpt lat="40.04954811068368" lon="19.861717471277533"><ele>54.0</ele><time>2026-04-27T16:01:21Z</time></trkpt><trkpt lat="40.04947560744827" lon="19.861779096195693"><ele>54.0</ele><time>2026-04-27T16:01:22Z</time></trkpt><trkpt lat="40.04941040694467" lon="19.861830995336"><ele>54.0</ele><time>2026-04-27T16:01:23Z</time></trkpt><trkpt lat="40.049336973194606" lon="19.86189038868"><ele>54.0</ele><time>2026-04-27T16:01:24Z</time></trkpt><trkpt lat="40.04924901215375" lon="19.861938972712704"><ele>54.0</ele><time>2026-04-27T16:01:25Z</time></trkpt><trkpt lat="40.04916843507974" lon="19.86194555666956"><ele>54.0</ele><time>2026-04-27T16:01:26Z</time></trkpt><trkpt lat="40.049093195741406" lon="19.861956329528482"><ele>53.5</ele><time>2026-04-27T16:01:27Z</time></trkpt><trkpt lat="40.049014244238336" lon="19.861991782650275"><ele>53.0</ele><time>2026-04-27T16:01:28Z</time></trkpt><trkpt lat="40.04893448536159" lon="19.8620462593067"><ele>52.5</ele><time>2026-04-27T16:01:29Z</time></trkpt><trkpt lat="40.048856102378835" lon="19.862108397959165"><ele>52.0</ele><time>2026-04-27T16:01:30Z</time></trkpt><trkpt lat="40.04878837341938" lon="19.86217752454585"><ele>51.5</ele><time>2026-04-27T16:01:31Z</time></trkpt><trkpt lat="40.04871205126979" lon="19.862256852838545"><ele>51.0</ele><time>2026-04-27T16:01:32Z</time></trkpt><trkpt lat="40.0486274074635" lon="19.862339391711874"><ele>51.0</ele><time>2026-04-27T16:01:33Z</time></trkpt><trkpt lat="40.04855956421208" lon="19.862435061272834"><ele>51.0</ele><time>2026-04-27T16:01:34Z</time></trkpt><trkpt lat="40.04849201900522" lon="19.8625180545274"><ele>51.0</ele><time>2026-04-27T16:01:35Z</time></trkpt><trkpt lat="40.0484087975109" lon="19.862594138792133"><ele>51.0</ele><time>2026-04-27T16:01:36Z</time></trkpt><trkpt lat="40.04833243205155" lon="19.86269120147157"><ele>51.0</ele><time>2026-04-27T16:01:37Z</time></trkpt><trkpt lat="40.04827824663439" lon="19.862805789912446"><ele>50.4</ele><time>2026-04-27T16:01:38Z</time></trkpt><trkpt lat="40.04825564377057" lon="19.862934163767452"><ele>49.8</ele><time>2026-04-27T16:01:39Z</time></trkpt><trkpt lat="40.048237190159334" lon="19.8630639498994"><ele>49.199999999999996</ele><time>2026-04-27T16:01:40Z</time></trkpt><trkpt lat="40.04821810426984" lon="19.86318518615442"><ele>48.599999999999994</ele><time>2026-04-27T16:01:41Z</time></trkpt><trkpt lat="40.04818625850139" lon="19.86327593610424"><ele>48.0</ele><time>2026-04-27T16:01:42Z</time></trkpt><trkpt lat="40.04814396824106" lon="19.863370402877567"><ele>48.0</ele><time>2026-04-27T16:01:43Z</time></trkpt><trkpt lat="40.048082340823804" lon="19.863434337426455"><ele>48.0</ele><time>2026-04-27T16:01:44Z</time></trkpt><trkpt lat="40.04795692280319" lon="19.863509446561995"><ele>48.0</ele><time>2026-04-27T16:01:45Z</time></trkpt><trkpt lat="40.0480045471435" lon="19.86367402214294"><ele>48.0</ele><time>2026-04-27T16:01:46Z</time></trkpt><trkpt lat="40.047942914329866" lon="19.863751425708948"><ele>48.0</ele><time>2026-04-27T16:01:47Z</time></trkpt><trkpt lat="40.04789825326151" lon="19.863837229573747"><ele>50.833333333333336</ele><time>2026-04-27T16:01:48Z</time></trkpt><trkpt lat="40.0478686363761" lon="19.86391051639144"><ele>53.66666666666667</ele><time>2026-04-27T16:01:49Z</time></trkpt><trkpt lat="40.047779872572406" lon="19.863899424031548"><ele>56.5</ele><time>2026-04-27T16:01:50Z</time></trkpt><trkpt lat="40.04770918329447" lon="19.863825252024988"><ele>59.333333333333336</ele><time>2026-04-27T16:01:51Z</time></trkpt><trkpt lat="40.047649631423866" lon="19.86378671148097"><ele>62.16666666666667</ele><time>2026-04-27T16:01:52Z</time></trkpt><trkpt lat="40.04754022883123" lon="19.863747993511392"><ele>65.0</ele><time>2026-04-27T16:01:53Z</time></trkpt><trkpt lat="40.04740972662163" lon="19.863702656326833"><ele>65.0</ele><time>2026-04-27T16:01:54Z</time></trkpt><trkpt lat="40.0472539820605" lon="19.863766373514068"><ele>65.0</ele><time>2026-04-27T16:01:55Z</time></trkpt><trkpt lat="40.047143764270935" lon="19.863718904929808"><ele>65.0</ele><time>2026-04-27T16:01:56Z</time></trkpt><trkpt lat="40.0470539005709" lon="19.86367872302795"><ele>65.0</ele><time>2026-04-27T16:01:57Z</time></trkpt><trkpt lat="40.046965210289265" lon="19.86363655034668"><ele>65.0</ele><time>2026-04-27T16:01:58Z</time></trkpt><trkpt lat="40.04684601155811" lon="19.863670292917202"><ele>65.0</ele><time>2026-04-27T16:01:59Z</time></trkpt><trkpt lat="40.046710994729764" lon="19.863686700212018"><ele>65.0</ele><time>2026-04-27T16:02:00Z</time></trkpt><trkpt lat="40.046585543176825" lon="19.863701304767226"><ele>65.0</ele><time>2026-04-27T16:02:01Z</time></trkpt><trkpt lat="40.046478619938135" lon="19.863736145497693"><ele>63.6</ele><time>2026-04-27T16:02:02Z</time></trkpt><trkpt lat="40.046372668076884" lon="19.863786706403452"><ele>62.2</ele><time>2026-04-27T16:02:03Z</time></trkpt><trkpt lat="40.04626844246945" lon="19.863811128229862"><ele>60.8</ele><time>2026-04-27T16:02:04Z</time></trkpt><trkpt lat="40.046181014884006" lon="19.86384312493906"><ele>59.4</ele><time>2026-04-27T16:02:05Z</time></trkpt><trkpt lat="40.0461029436422" lon="19.863890645193756"><ele>58.0</ele><time>2026-04-27T16:02:06Z</time></trkpt><trkpt lat="40.04601097205571" lon="19.86388873488326"><ele>57.99999999999999</ele><time>2026-04-27T16:02:07Z</time></trkpt><trkpt lat="40.04593819797202" lon="19.8638367387383"><ele>58.0</ele><time>2026-04-27T16:02:08Z</time></trkpt><trkpt lat="40.04586739055318" lon="19.863791665618983"><ele>58.0</ele><time>2026-04-27T16:02:09Z</time></trkpt><trkpt lat="40.045789473956845" lon="19.86374818094012"><ele>58.0</ele><time>2026-04-27T16:02:10Z</time></trkpt><trkpt lat="40.045725710304" lon="19.8637127398673"><ele>57.99999999999999</ele><time>2026-04-27T16:02:11Z</time></trkpt><trkpt lat="40.04566312684534" lon="19.863678013236523"><ele>58.0</ele><time>2026-04-27T16:02:12Z</time></trkpt><trkpt lat="40.04559435686697" lon="19.863657013978397"><ele>55.75</ele><time>2026-04-27T16:02:13Z</time></trkpt><trkpt lat="40.04545493486018" lon="19.86368500789187"><ele>53.5</ele><time>2026-04-27T16:02:15Z</time></trkpt><trkpt lat="40.04537912128703" lon="19.863712740491124"><ele>51.25</ele><time>2026-04-27T16:02:16Z</time></trkpt><trkpt lat="40.0453105087088" lon="19.863846626484126"><ele>49.0</ele><time>2026-04-27T16:02:17Z</time></trkpt><trkpt lat="40.04521971510001" lon="19.863944687086644"><ele>49.0</ele><time>2026-04-27T16:02:18Z</time></trkpt><trkpt lat="40.045111659733216" lon="19.86399454771283"><ele>49.0</ele><time>2026-04-27T16:02:19Z</time></trkpt><trkpt lat="40.0450103021641" lon="19.864040993446057"><ele>49.0</ele><time>2026-04-27T16:02:20Z</time></trkpt><trkpt lat="40.044898548566685" lon="19.86409296426998"><ele>49.0</ele><time>2026-04-27T16:02:21Z</time></trkpt><trkpt lat="40.04477070122945" lon="19.86414878814142"><ele>46.5</ele><time>2026-04-27T16:02:22Z</time></trkpt><trkpt lat="40.04464913292213" lon="19.864202060944983"><ele>44.0</ele><time>2026-04-27T16:02:23Z</time></trkpt><trkpt lat="40.04453755806926" lon="19.864228822433546"><ele>41.5</ele><time>2026-04-27T16:02:24Z</time></trkpt><trkpt lat="40.04440262508259" lon="19.8642389137695"><ele>39.0</ele><time>2026-04-27T16:02:25Z</time></trkpt><trkpt lat="40.04425972467376" lon="19.864250251529047"><ele>38.0</ele><time>2026-04-27T16:02:26Z</time></trkpt><trkpt lat="40.04411278944913" lon="19.864268501324794"><ele>37.0</ele><time>2026-04-27T16:02:27Z</time></trkpt><trkpt lat="40.04400592913677" lon="19.864291947790107"><ele>36.0</ele><time>2026-04-27T16:02:28Z</time></trkpt><trkpt lat="40.0439236679549" lon="19.8642984940533"><ele>35.0</ele><time>2026-04-27T16:02:29Z</time></trkpt><trkpt lat="40.04386069500047" lon="19.86429702675772"><ele>34.0</ele><time>2026-04-27T16:02:30Z</time></trkpt><trkpt lat="40.04377589771227" lon="19.864333111763482"><ele>37.66666666666667</ele><time>2026-04-27T16:02:32Z</time></trkpt><trkpt lat="40.043686659603516" lon="19.864408605550818"><ele>41.333333333333336</ele><time>2026-04-27T16:02:34Z</time></trkpt><trkpt lat="40.043673080222476" lon="19.864505887144535"><ele>45.0</ele><time>2026-04-27T16:02:35Z</time></trkpt><trkpt lat="40.04364005065044" lon="19.864587508801353"><ele>48.66666666666667</ele><time>2026-04-27T16:02:36Z</time></trkpt><trkpt lat="40.043611728122315" lon="19.86466273369232"><ele>52.333333333333336</ele><time>2026-04-27T16:02:37Z</time></trkpt><trkpt lat="40.04355727059104" lon="19.86476405164979"><ele>56.0</ele><time>2026-04-27T16:02:39Z</time></trkpt><trkpt lat="40.043488090021796" lon="19.864831971051856"><ele>56.0</ele><time>2026-04-27T16:02:41Z</time></trkpt><trkpt lat="40.04340997754465" lon="19.864827141133777"><ele>55.99999999999999</ele><time>2026-04-27T16:02:43Z</time></trkpt><trkpt lat="40.04335159024145" lon="19.864690751488514"><ele>55.99999999999999</ele><time>2026-04-27T16:02:45Z</time></trkpt><trkpt lat="40.04329127484741" lon="19.86462217218402"><ele>56.0</ele><time>2026-04-27T16:02:46Z</time></trkpt><trkpt lat="40.043227634159464" lon="19.864550166751997"><ele>56.0</ele><time>2026-04-27T16:02:47Z</time></trkpt><trkpt lat="40.04312369039665" lon="19.86448940944644"><ele>54.0</ele><time>2026-04-27T16:02:48Z</time></trkpt><trkpt lat="40.04302231512727" lon="19.864440437449556"><ele>51.99999999999999</ele><time>2026-04-27T16:02:49Z</time></trkpt><trkpt lat="40.04290808450796" lon="19.864401157959744"><ele>50.0</ele><time>2026-04-27T16:02:50Z</time></trkpt><trkpt lat="40.04281910858645" lon="19.864374867916496"><ele>48.0</ele><time>2026-04-27T16:02:51Z</time></trkpt><trkpt lat="40.04274093351645" lon="19.864351865725624"><ele>46.0</ele><time>2026-04-27T16:02:52Z</time></trkpt><trkpt lat="40.042664160660145" lon="19.864349677079343"><ele>46.0</ele><time>2026-04-27T16:02:53Z</time></trkpt><trkpt lat="40.04255144905683" lon="19.864378645848934"><ele>46.0</ele><time>2026-04-27T16:02:55Z</time></trkpt><trkpt lat="40.04249281483314" lon="19.86444218347992"><ele>46.0</ele><time>2026-04-27T16:02:57Z</time></trkpt><trkpt lat="40.0424421652813" lon="19.864525942445475"><ele>46.0</ele><time>2026-04-27T16:03:05Z</time></trkpt><trkpt lat="40.04243871259195" lon="19.864638977186985"><ele>46.0</ele><time>2026-04-27T16:03:07Z</time></trkpt><trkpt lat="40.04242137120118" lon="19.86472336406435"><ele>46.0</ele><time>2026-04-27T16:03:09Z</time></trkpt><trkpt lat="40.04238961607722" lon="19.864878534733634"><ele>47.16666666666667</ele><time>2026-04-27T16:03:11Z</time></trkpt><trkpt lat="40.042369156750446" lon="19.864980783943246"><ele>48.333333333333336</ele><time>2026-04-27T16:03:12Z</time></trkpt><trkpt lat="40.04234906396953" lon="19.865081321958314"><ele>49.5</ele><time>2026-04-27T16:03:13Z</time></trkpt><trkpt lat="40.04232586145707" lon="19.86519364905819"><ele>50.66666666666667</ele><time>2026-04-27T16:03:14Z</time></trkpt><trkpt lat="40.04230884246261" lon="19.865289234858743"><ele>51.833333333333336</ele><time>2026-04-27T16:03:15Z</time></trkpt><trkpt lat="40.04223681273774" lon="19.865405461266707"><ele>53.0</ele><time>2026-04-27T16:03:17Z</time></trkpt><trkpt lat="40.04211009840961" lon="19.86540130357022"><ele>53.00000000000001</ele><time>2026-04-27T16:03:19Z</time></trkpt><trkpt lat="40.0420427690161" lon="19.86535335294152"><ele>53.0</ele><time>2026-04-27T16:03:20Z</time></trkpt><trkpt lat="40.04195491691728" lon="19.865325465885494"><ele>53.0</ele><time>2026-04-27T16:03:21Z</time></trkpt><trkpt lat="40.041880424409484" lon="19.865302790278157"><ele>53.0</ele><time>2026-04-27T16:03:22Z</time></trkpt><trkpt lat="40.041799894231666" lon="19.865282377497735"><ele>53.00000000000001</ele><time>2026-04-27T16:03:23Z</time></trkpt><trkpt lat="40.041714248787606" lon="19.86528222164123"><ele>53.0</ele><time>2026-04-27T16:03:24Z</time></trkpt><trkpt lat="40.0416375515676" lon="19.865317608614117"><ele>52.00000000000001</ele><time>2026-04-27T16:03:25Z</time></trkpt><trkpt lat="40.04157012260297" lon="19.86538759511205"><ele>51.0</ele><time>2026-04-27T16:03:26Z</time></trkpt><trkpt lat="40.04151057180557" lon="19.865449984993475"><ele>50.0</ele><time>2026-04-27T16:03:27Z</time></trkpt><trkpt lat="40.04146506188328" lon="19.86556151012837"><ele>49.0</ele><time>2026-04-27T16:03:28Z</time></trkpt><trkpt lat="40.04143142363042" lon="19.865645354221233"><ele>48.0</ele><time>2026-04-27T16:03:29Z</time></trkpt><trkpt lat="40.04136385792766" lon="19.86571920171451"><ele>47.0</ele><time>2026-04-27T16:03:31Z</time></trkpt><trkpt lat="40.041309039331196" lon="19.86567435563827"><ele>47.0</ele><time>2026-04-27T16:03:33Z</time></trkpt><trkpt lat="40.04124251213062" lon="19.865636800092737"><ele>47.0</ele><time>2026-04-27T16:03:39Z</time></trkpt><trkpt lat="40.041221301817465" lon="19.865467450268255"><ele>47.0</ele><time>2026-04-27T16:03:41Z</time></trkpt><trkpt lat="40.04118390147818" lon="19.86539449586238"><ele>47.0</ele><time>2026-04-27T16:03:42Z</time></trkpt><trkpt lat="40.0411238515459" lon="19.86527768968081"><ele>47.0</ele><time>2026-04-27T16:03:44Z</time></trkpt><trkpt lat="40.04105567084965" lon="19.86526561562435"><ele>47.0</ele><time>2026-04-27T16:03:45Z</time></trkpt><trkpt lat="40.041007826269905" lon="19.865212136911442"><ele>47.0</ele><time>2026-04-27T16:03:46Z</time></trkpt><trkpt lat="40.04090979956453" lon="19.86515396154413"><ele>47.0</ele><time>2026-04-27T16:03:48Z</time></trkpt><trkpt lat="40.04082818785799" lon="19.865187432718503"><ele>47.0</ele><time>2026-04-27T16:03:50Z</time></trkpt><trkpt lat="40.04070605362571" lon="19.865260933807374"><ele>47.0</ele><time>2026-04-27T16:03:52Z</time></trkpt><trkpt lat="40.04063749204622" lon="19.865312581984483"><ele>47.0</ele><time>2026-04-27T16:03:53Z</time></trkpt><trkpt lat="40.04057400107979" lon="19.865354800965417"><ele>48.166666666666664</ele><time>2026-04-27T16:03:54Z</time></trkpt><trkpt lat="40.040492641225306" lon="19.865401756330527"><ele>49.33333333333333</ele><time>2026-04-27T16:03:55Z</time></trkpt><trkpt lat="40.04043039725356" lon="19.865439590241106"><ele>50.5</ele><time>2026-04-27T16:03:56Z</time></trkpt><trkpt lat="40.0403631984929" lon="19.865546852771534"><ele>51.666666666666664</ele><time>2026-04-27T16:03:58Z</time></trkpt><trkpt lat="40.04028344421521" lon="19.86557230901858"><ele>52.833333333333336</ele><time>2026-04-27T16:04:00Z</time></trkpt><trkpt lat="40.040193436267444" lon="19.865622226092878"><ele>54.0</ele><time>2026-04-27T16:04:02Z</time></trkpt><trkpt lat="40.04015637456641" lon="19.865490591298776"><ele>54.0</ele><time>2026-04-27T16:04:03Z</time></trkpt><trkpt lat="40.04008688072968" lon="19.865413887030392"><ele>54.0</ele><time>2026-04-27T16:04:04Z</time></trkpt><trkpt lat="40.040012032470045" lon="19.865349992158063"><ele>54.0</ele><time>2026-04-27T16:04:05Z</time></trkpt><trkpt lat="40.03993570445709" lon="19.865312119456675"><ele>54.0</ele><time>2026-04-27T16:04:06Z</time></trkpt><trkpt lat="40.039863249558216" lon="19.865252723452667"><ele>54.0</ele><time>2026-04-27T16:04:07Z</time></trkpt><trkpt lat="40.03978011548461" lon="19.865250498101776"><ele>54.0</ele><time>2026-04-27T16:04:08Z</time></trkpt><trkpt lat="40.0397155549017" lon="19.86524023934709"><ele>52.0</ele><time>2026-04-27T16:04:09Z</time></trkpt><trkpt lat="40.039651604031796" lon="19.865240533457936"><ele>50.0</ele><time>2026-04-27T16:04:10Z</time></trkpt><trkpt lat="40.03958651322986" lon="19.865259097997455"><ele>48.0</ele><time>2026-04-27T16:04:11Z</time></trkpt><trkpt lat="40.039523525549036" lon="19.865294969750643"><ele>46.0</ele><time>2026-04-27T16:04:12Z</time></trkpt><trkpt lat="40.03947760990955" lon="19.865351460673356"><ele>44.0</ele><time>2026-04-27T16:04:13Z</time></trkpt><trkpt lat="40.0394037550507" lon="19.86546121850955"><ele>42.0</ele><time>2026-04-27T16:04:15Z</time></trkpt><trkpt lat="40.03936006096011" lon="19.865554472742566"><ele>42.0</ele><time>2026-04-27T16:04:17Z</time></trkpt><trkpt lat="40.03927957575915" lon="19.865566078013703"><ele>42.0</ele><time>2026-04-27T16:04:19Z</time></trkpt><trkpt lat="40.03921871184923" lon="19.865494756354728"><ele>42.0</ele><time>2026-04-27T16:04:21Z</time></trkpt><trkpt lat="40.03932517085499" lon="19.865219588281157"><ele>42.0</ele><time>2026-04-27T16:07:00Z</time></trkpt><trkpt lat="40.03938894369306" lon="19.865116343638753"><ele>37.833333333333336</ele><time>2026-04-27T16:07:02Z</time></trkpt><trkpt lat="40.03947324804423" lon="19.86501609851562"><ele>33.666666666666664</ele><time>2026-04-27T16:07:04Z</time></trkpt><trkpt lat="40.03954036631522" lon="19.864994480619877"><ele>29.5</ele><time>2026-04-27T16:07:05Z</time></trkpt><trkpt lat="40.03962315890723" lon="19.865006887005155"><ele>25.333333333333336</ele><time>2026-04-27T16:07:06Z</time></trkpt><trkpt lat="40.03969882497673" lon="19.864998226420347"><ele>21.166666666666668</ele><time>2026-04-27T16:07:07Z</time></trkpt><trkpt lat="40.03976866351766" lon="19.86499120067574"><ele>17.0</ele><time>2026-04-27T16:07:08Z</time></trkpt><trkpt lat="40.03984580029903" lon="19.864981082744222"><ele>17.0</ele><time>2026-04-27T16:07:09Z</time></trkpt><trkpt lat="40.03992584811254" lon="19.864960920901964"><ele>17.0</ele><time>2026-04-27T16:07:10Z</time></trkpt><trkpt lat="40.03999512245795" lon="19.864943472308198"><ele>17.0</ele><time>2026-04-27T16:07:11Z</time></trkpt><trkpt lat="40.040053125570815" lon="19.864898270298685"><ele>17.0</ele><time>2026-04-27T16:07:12Z</time></trkpt><trkpt lat="40.040104688255816" lon="19.864802487110126"><ele>17.0</ele><time>2026-04-27T16:07:14Z</time></trkpt><trkpt lat="40.04014970700005" lon="19.864732069548534"><ele>17.0</ele><time>2026-04-27T16:07:16Z</time></trkpt><trkpt lat="40.04013465327345" lon="19.86463679663635"><ele>17.0</ele><time>2026-04-27T16:07:17Z</time></trkpt><trkpt lat="40.040049787377164" lon="19.86457794196603"><ele>17.0</ele><time>2026-04-27T16:07:18Z</time></trkpt><trkpt lat="40.039960272832616" lon="19.86446097842497"><ele>17.0</ele><time>2026-04-27T16:07:20Z</time></trkpt><trkpt lat="40.039861641226054" lon="19.864351297853514"><ele>17.0</ele><time>2026-04-27T16:07:22Z</time></trkpt><trkpt lat="40.039805787738715" lon="19.864210162687183"><ele>14.799999999999999</ele><time>2026-04-27T16:07:24Z</time></trkpt><trkpt lat="40.039750398755075" lon="19.864055118598145"><ele>12.6</ele><time>2026-04-27T16:07:26Z</time></trkpt><trkpt lat="40.03972073983983" lon="19.863962177210812"><ele>10.399999999999999</ele><time>2026-04-27T16:07:27Z</time></trkpt><trkpt lat="40.03969661938882" lon="19.863865324185962"><ele>8.2</ele><time>2026-04-27T16:07:28Z</time></trkpt><trkpt lat="40.03967578671817" lon="19.863764462920884"><ele>6.0</ele><time>2026-04-27T16:07:29Z</time></trkpt><trkpt lat="40.039645457358276" lon="19.86365498883485"><ele>6.0</ele><time>2026-04-27T16:07:30Z</time></trkpt><trkpt lat="40.03962346039477" lon="19.863556532414396"><ele>6.0</ele><time>2026-04-27T16:07:31Z</time></trkpt><trkpt lat="40.03962262285905" lon="19.863456086285822"><ele>6.0</ele><time>2026-04-27T16:07:32Z</time></trkpt><trkpt lat="40.03960803936692" lon="19.86334801427383"><ele>6.0</ele><time>2026-04-27T16:07:33Z</time></trkpt><trkpt lat="40.039569457053894" lon="19.863244972377853"><ele>6.0</ele><time>2026-04-27T16:07:34Z</time></trkpt><trkpt lat="40.03955823126047" lon="19.86315186977455"><ele>6.0</ele><time>2026-04-27T16:07:35Z</time></trkpt><trkpt lat="40.039548380471665" lon="19.863062415576263"><ele>5.666666666666667</ele><time>2026-04-27T16:07:36Z</time></trkpt><trkpt lat="40.039527846825166" lon="19.862961469367583"><ele>5.333333333333333</ele><time>2026-04-27T16:07:37Z</time></trkpt><trkpt lat="40.039500106444166" lon="19.862859440418706"><ele>5.0</ele><time>2026-04-27T16:07:38Z</time></trkpt><trkpt lat="40.03945454170485" lon="19.862765225330847"><ele>4.666666666666666</ele><time>2026-04-27T16:07:39Z</time></trkpt><trkpt lat="40.03939168535339" lon="19.862664206105645"><ele>4.333333333333333</ele><time>2026-04-27T16:07:40Z</time></trkpt><trkpt lat="40.03933682275673" lon="19.86259253928535"><ele>4.0</ele><time>2026-04-27T16:07:41Z</time></trkpt><trkpt lat="40.039286546248995" lon="19.862535682663175"><ele>3.4000000000000004</ele><time>2026-04-27T16:07:42Z</time></trkpt><trkpt lat="40.03920977883919" lon="19.86243123586518"><ele>2.8000000000000003</ele><time>2026-04-27T16:07:44Z</time></trkpt><trkpt lat="40.039163074796804" lon="19.862340456111372"><ele>2.2</ele><time>2026-04-27T16:07:46Z</time></trkpt><trkpt lat="40.039127451690234" lon="19.8622640082034"><ele>1.6</ele><time>2026-04-27T16:07:50Z</time></trkpt><trkpt lat="40.03900274270542" lon="19.862360761811146"><ele>1.0</ele><time>2026-04-27T16:07:54Z</time></trkpt><trkpt lat="40.03892810837465" lon="19.862451863905893"><ele>0.9999999999999999</ele><time>2026-04-27T16:07:56Z</time></trkpt><trkpt lat="40.03887948051916" lon="19.86250510505776"><ele>1.0</ele><time>2026-04-27T16:07:57Z</time></trkpt><trkpt lat="40.03877281723104" lon="19.86259486047843"><ele>1.0</ele><time>2026-04-27T16:07:59Z</time></trkpt><trkpt lat="40.03871909083015" lon="19.862651437794852"><ele>1.0</ele><time>2026-04-27T16:08:00Z</time></trkpt><trkpt lat="40.038669841211465" lon="19.862725302055644"><ele>0.9999999999999999</ele><time>2026-04-27T16:08:01Z</time></trkpt><trkpt lat="40.038612636680796" lon="19.86278250030071"><ele>1.0</ele><time>2026-04-27T16:08:02Z</time></trkpt><trkpt lat="40.03856294542999" lon="19.8628363219508"><ele>1.0</ele><time>2026-04-27T16:08:03Z</time></trkpt><trkpt lat="40.038489789786176" lon="19.862895497710653"><ele>1.0</ele><time>2026-04-27T16:08:05Z</time></trkpt><trkpt lat="40.038429161781245" lon="19.862930699010388"><ele>1.0</ele><time>2026-04-27T16:08:07Z</time></trkpt></trkseg></trk></gpx>